<?xml version="1.0" encoding="UTF-8" standalone="no" ?>
<gpx xmlns="http://www.topografix.com/GPX/1/1" xmlns:xsi="http://www.w3.org/2001/XMLSchema-instance" xsi:schemaLocation="http://www.topografix.com/GPX/1/1 http://www.topografix.com/GPX/1/1/gpx.xsd" version="1.1" creator="VisuGPX - https://www.visugpx.com">
  <metadata>
    <name>Lectoure - Aroue</name>
    <desc><![CDATA[Chemin de Compostelle 2022 : Lectoure-Aroue]]></desc>
  </metadata>
  <trk>
    <name><![CDATA[16 août 2022 à 11:22:24]]></name>
    <extensions>
      <line xmlns="http://www.topografix.com/GPX/gpx_style/0/2">
        <color>0000FF</color>
        <width>4</width>
      </line>
    </extensions>
    <trkseg>
      <trkpt lat="43.93389" lon="0.62549">
        <ele>242.116367</ele>
        <time>2022-08-16T08:33:26.267Z</time>
      </trkpt>
      <trkpt lat="43.93399" lon="0.62544">
        <ele>242.116367</ele>
        <time>2022-08-16T08:33:31.267Z</time>
      </trkpt>
      <trkpt lat="43.93407" lon="0.62536">
        <ele>242.116367</ele>
        <time>2022-08-16T08:33:36.267Z</time>
      </trkpt>
      <trkpt lat="43.93409" lon="0.62524">
        <ele>242.116367</ele>
        <time>2022-08-16T08:33:43.267Z</time>
      </trkpt>
      <trkpt lat="43.9341" lon="0.62511">
        <ele>242.116367</ele>
        <time>2022-08-16T08:33:52.267Z</time>
      </trkpt>
      <trkpt lat="43.93408" lon="0.62498">
        <ele>242.116367</ele>
        <time>2022-08-16T08:34:01.267Z</time>
      </trkpt>
      <trkpt lat="43.93408" lon="0.62485">
        <ele>242.116367</ele>
        <time>2022-08-16T08:34:11.267Z</time>
      </trkpt>
      <trkpt lat="43.93403" lon="0.62473">
        <ele>242.116367</ele>
        <time>2022-08-16T08:34:19.267Z</time>
      </trkpt>
      <trkpt lat="43.93395" lon="0.62463">
        <ele>242.116367</ele>
        <time>2022-08-16T08:34:27.267Z</time>
      </trkpt>
      <trkpt lat="43.93389" lon="0.62454">
        <ele>242.116367</ele>
        <time>2022-08-16T08:34:32.267Z</time>
      </trkpt>
      <trkpt lat="43.93382" lon="0.62444">
        <ele>241.668781</ele>
        <time>2022-08-16T08:34:38.267Z</time>
      </trkpt>
      <trkpt lat="43.93376" lon="0.62434">
        <ele>240.965732</ele>
        <time>2022-08-16T08:34:44.267Z</time>
      </trkpt>
      <trkpt lat="43.93369" lon="0.62425">
        <ele>240.288991</ele>
        <time>2022-08-16T08:34:51.267Z</time>
      </trkpt>
      <trkpt lat="43.93367" lon="0.62412">
        <ele>239.563631</ele>
        <time>2022-08-16T08:35:01.267Z</time>
      </trkpt>
      <trkpt lat="43.93366" lon="0.62399">
        <ele>238.902736</ele>
        <time>2022-08-16T08:35:11.267Z</time>
      </trkpt>
      <trkpt lat="43.93359" lon="0.62391">
        <ele>238.243977</ele>
        <time>2022-08-16T08:35:22.088Z</time>
      </trkpt>
      <trkpt lat="43.93394" lon="0.62345">
        <ele>234.735476</ele>
        <time>2022-08-16T08:36:49.267Z</time>
      </trkpt>
      <trkpt lat="43.93405" lon="0.62314">
        <ele>232.957774</ele>
        <time>2022-08-16T08:42:02.267Z</time>
      </trkpt>
      <trkpt lat="43.93397" lon="0.62309">
        <ele>232.283905</ele>
        <time>2022-08-16T08:42:32.267Z</time>
      </trkpt>
      <trkpt lat="43.93396" lon="0.62295">
        <ele>231.56368</ele>
        <time>2022-08-16T08:43:09.267Z</time>
      </trkpt>
      <trkpt lat="43.93394" lon="0.62283">
        <ele>230.894403</ele>
        <time>2022-08-16T08:43:17.267Z</time>
      </trkpt>
      <trkpt lat="43.9339" lon="0.6227">
        <ele>230.162826</ele>
        <time>2022-08-16T08:43:24.267Z</time>
      </trkpt>
      <trkpt lat="43.93392" lon="0.62256">
        <ele>229.42586</ele>
        <time>2022-08-16T08:43:32.267Z</time>
      </trkpt>
      <trkpt lat="43.93395" lon="0.62242">
        <ele>228.762936</ele>
        <time>2022-08-16T08:43:42.267Z</time>
      </trkpt>
      <trkpt lat="43.93392" lon="0.6223">
        <ele>228.198337</ele>
        <time>2022-08-16T08:43:49.267Z</time>
      </trkpt>
      <trkpt lat="43.93389" lon="0.62218">
        <ele>227.613103</ele>
        <time>2022-08-16T08:43:57.267Z</time>
      </trkpt>
      <trkpt lat="43.93387" lon="0.62204">
        <ele>226.968896</ele>
        <time>2022-08-16T08:44:07.267Z</time>
      </trkpt>
      <trkpt lat="43.93387" lon="0.6219">
        <ele>226.344161</ele>
        <time>2022-08-16T08:44:13.267Z</time>
      </trkpt>
      <trkpt lat="43.93392" lon="0.62179">
        <ele>225.754235</ele>
        <time>2022-08-16T08:44:19.267Z</time>
      </trkpt>
      <trkpt lat="43.93395" lon="0.62166">
        <ele>225.142451</ele>
        <time>2022-08-16T08:44:27.267Z</time>
      </trkpt>
      <trkpt lat="43.93398" lon="0.62152">
        <ele>224.510534</ele>
        <time>2022-08-16T08:44:34.267Z</time>
      </trkpt>
      <trkpt lat="43.93396" lon="0.62138">
        <ele>223.868504</ele>
        <time>2022-08-16T08:44:41.267Z</time>
      </trkpt>
      <trkpt lat="43.93401" lon="0.62127">
        <ele>223.287635</ele>
        <time>2022-08-16T08:44:48.267Z</time>
      </trkpt>
      <trkpt lat="43.93407" lon="0.62114">
        <ele>222.610522</ele>
        <time>2022-08-16T08:44:57.267Z</time>
      </trkpt>
      <trkpt lat="43.93407" lon="0.62101">
        <ele>222.031062</ele>
        <time>2022-08-16T08:45:06.267Z</time>
      </trkpt>
      <trkpt lat="43.93402" lon="0.62088">
        <ele>221.369197</ele>
        <time>2022-08-16T08:45:13.267Z</time>
      </trkpt>
      <trkpt lat="43.93412" lon="0.62083">
        <ele>220.721575</ele>
        <time>2022-08-16T08:45:17.267Z</time>
      </trkpt>
      <trkpt lat="43.9342" lon="0.62078">
        <ele>220.148043</ele>
        <time>2022-08-16T08:45:21.267Z</time>
      </trkpt>
      <trkpt lat="43.93428" lon="0.6207">
        <ele>219.53795</ele>
        <time>2022-08-16T08:45:27.267Z</time>
      </trkpt>
      <trkpt lat="43.93438" lon="0.62063">
        <ele>218.843578</ele>
        <time>2022-08-16T08:45:32.267Z</time>
      </trkpt>
      <trkpt lat="43.93447" lon="0.62053">
        <ele>218.135855</ele>
        <time>2022-08-16T08:45:37.267Z</time>
      </trkpt>
      <trkpt lat="43.93452" lon="0.62041">
        <ele>217.960656</ele>
        <time>2022-08-16T08:45:45.267Z</time>
      </trkpt>
      <trkpt lat="43.93452" lon="0.62029">
        <ele>217.942969</ele>
        <time>2022-08-16T08:45:51.267Z</time>
      </trkpt>
      <trkpt lat="43.93459" lon="0.62017">
        <ele>217.922907</ele>
        <time>2022-08-16T08:45:59.267Z</time>
      </trkpt>
      <trkpt lat="43.93467" lon="0.62008">
        <ele>217.902896</ele>
        <time>2022-08-16T08:46:04.267Z</time>
      </trkpt>
      <trkpt lat="43.93468" lon="0.61994">
        <ele>217.883516</ele>
        <time>2022-08-16T08:46:14.267Z</time>
      </trkpt>
      <trkpt lat="43.93473" lon="0.61981">
        <ele>217.863502</ele>
        <time>2022-08-16T08:46:22.267Z</time>
      </trkpt>
      <trkpt lat="43.93481" lon="0.61971">
        <ele>217.842841</ele>
        <time>2022-08-16T08:46:29.267Z</time>
      </trkpt>
      <trkpt lat="43.93486" lon="0.61959">
        <ele>217.823563</ele>
        <time>2022-08-16T08:46:34.267Z</time>
      </trkpt>
      <trkpt lat="43.93489" lon="0.61946">
        <ele>217.805104</ele>
        <time>2022-08-16T08:46:40.267Z</time>
      </trkpt>
      <trkpt lat="43.93491" lon="0.61934">
        <ele>217.787266</ele>
        <time>2022-08-16T08:46:58.267Z</time>
      </trkpt>
      <trkpt lat="43.93495" lon="0.61922">
        <ele>217.769393</ele>
        <time>2022-08-16T08:47:08.267Z</time>
      </trkpt>
      <trkpt lat="43.93497" lon="0.61909">
        <ele>217.751585</ele>
        <time>2022-08-16T08:47:15.267Z</time>
      </trkpt>
      <trkpt lat="43.93504" lon="0.61898">
        <ele>217.732331</ele>
        <time>2022-08-16T08:47:22.267Z</time>
      </trkpt>
      <trkpt lat="43.93507" lon="0.61886">
        <ele>217.714533</ele>
        <time>2022-08-16T08:47:32.267Z</time>
      </trkpt>
      <trkpt lat="43.93512" lon="0.61874">
        <ele>217.694967</ele>
        <time>2022-08-16T08:47:41.267Z</time>
      </trkpt>
      <trkpt lat="43.93512" lon="0.6186">
        <ele>217.676348</ele>
        <time>2022-08-16T08:47:46.267Z</time>
      </trkpt>
      <trkpt lat="43.9351" lon="0.61847">
        <ele>217.658549</ele>
        <time>2022-08-16T08:48:03.267Z</time>
      </trkpt>
      <trkpt lat="43.93515" lon="0.61826">
        <ele>217.563747</ele>
        <time>2022-08-16T08:49:01.267Z</time>
      </trkpt>
      <trkpt lat="43.9352" lon="0.61814">
        <ele>217.128177</ele>
        <time>2022-08-16T08:49:10.267Z</time>
      </trkpt>
      <trkpt lat="43.93529" lon="0.61806">
        <ele>216.675117</ele>
        <time>2022-08-16T08:49:17.267Z</time>
      </trkpt>
      <trkpt lat="43.93533" lon="0.61793">
        <ele>216.215746</ele>
        <time>2022-08-16T08:49:24.267Z</time>
      </trkpt>
      <trkpt lat="43.93538" lon="0.6178">
        <ele>215.757188</ele>
        <time>2022-08-16T08:49:32.267Z</time>
      </trkpt>
      <trkpt lat="43.93542" lon="0.61766">
        <ele>215.281791</ele>
        <time>2022-08-16T08:49:41.267Z</time>
      </trkpt>
      <trkpt lat="43.93546" lon="0.61754">
        <ele>214.85212</ele>
        <time>2022-08-16T08:49:49.267Z</time>
      </trkpt>
      <trkpt lat="43.93549" lon="0.61741">
        <ele>214.418589</ele>
        <time>2022-08-16T08:49:56.267Z</time>
      </trkpt>
      <trkpt lat="43.93553" lon="0.61728">
        <ele>213.970007</ele>
        <time>2022-08-16T08:50:03.267Z</time>
      </trkpt>
      <trkpt lat="43.93556" lon="0.61715">
        <ele>213.54645</ele>
        <time>2022-08-16T08:50:10.267Z</time>
      </trkpt>
      <trkpt lat="43.93565" lon="0.61715">
        <ele>213.144607</ele>
        <time>2022-08-16T08:50:22.267Z</time>
      </trkpt>
      <trkpt lat="43.93575" lon="0.61716">
        <ele>212.742274</ele>
        <time>2022-08-16T08:50:54.267Z</time>
      </trkpt>
      <trkpt lat="43.93582" lon="0.61725">
        <ele>212.315951</ele>
        <time>2022-08-16T08:51:01.267Z</time>
      </trkpt>
      <trkpt lat="43.93591" lon="0.61725">
        <ele>211.887523</ele>
        <time>2022-08-16T08:51:08.267Z</time>
      </trkpt>
      <trkpt lat="43.93601" lon="0.61726">
        <ele>211.471008</ele>
        <time>2022-08-16T08:51:20.267Z</time>
      </trkpt>
      <trkpt lat="43.9361" lon="0.61721">
        <ele>211.022153</ele>
        <time>2022-08-16T08:51:30.267Z</time>
      </trkpt>
      <trkpt lat="43.93616" lon="0.61711">
        <ele>210.60857</ele>
        <time>2022-08-16T08:51:35.267Z</time>
      </trkpt>
      <trkpt lat="43.93621" lon="0.61699">
        <ele>210.179423</ele>
        <time>2022-08-16T08:51:43.267Z</time>
      </trkpt>
      <trkpt lat="43.93626" lon="0.61688">
        <ele>209.770743</ele>
        <time>2022-08-16T08:51:54.267Z</time>
      </trkpt>
      <trkpt lat="43.93627" lon="0.61674">
        <ele>209.486936</ele>
        <time>2022-08-16T08:52:01.267Z</time>
      </trkpt>
      <trkpt lat="43.93628" lon="0.61661">
        <ele>209.260583</ele>
        <time>2022-08-16T08:52:08.267Z</time>
      </trkpt>
      <trkpt lat="43.93628" lon="0.61648">
        <ele>209.028413</ele>
        <time>2022-08-16T08:52:14.267Z</time>
      </trkpt>
      <trkpt lat="43.93626" lon="0.61634">
        <ele>208.794245</ele>
        <time>2022-08-16T08:52:20.267Z</time>
      </trkpt>
      <trkpt lat="43.93628" lon="0.6162">
        <ele>208.543607</ele>
        <time>2022-08-16T08:52:30.267Z</time>
      </trkpt>
      <trkpt lat="43.93631" lon="0.61607">
        <ele>208.309512</ele>
        <time>2022-08-16T08:52:37.267Z</time>
      </trkpt>
      <trkpt lat="43.93633" lon="0.61595">
        <ele>208.091654</ele>
        <time>2022-08-16T08:52:43.267Z</time>
      </trkpt>
      <trkpt lat="43.93634" lon="0.61583">
        <ele>207.872879</ele>
        <time>2022-08-16T08:52:50.267Z</time>
      </trkpt>
      <trkpt lat="43.9364" lon="0.61595">
        <ele>207.615905</ele>
        <time>2022-08-16T08:53:05.267Z</time>
      </trkpt>
      <trkpt lat="43.93641" lon="0.61608">
        <ele>207.387032</ele>
        <time>2022-08-16T08:53:10.267Z</time>
      </trkpt>
      <trkpt lat="43.93641" lon="0.61622">
        <ele>207.149716</ele>
        <time>2022-08-16T08:53:17.267Z</time>
      </trkpt>
      <trkpt lat="43.9364" lon="0.61634">
        <ele>206.931498</ele>
        <time>2022-08-16T08:53:23.267Z</time>
      </trkpt>
      <trkpt lat="43.93637" lon="0.61648">
        <ele>206.685455</ele>
        <time>2022-08-16T08:53:31.267Z</time>
      </trkpt>
      <trkpt lat="43.93632" lon="0.61661">
        <ele>206.425486</ele>
        <time>2022-08-16T08:53:38.267Z</time>
      </trkpt>
      <trkpt lat="43.93627" lon="0.61673">
        <ele>206.188641</ele>
        <time>2022-08-16T08:53:45.267Z</time>
      </trkpt>
      <trkpt lat="43.93625" lon="0.61686">
        <ele>205.954271</ele>
        <time>2022-08-16T08:53:52.267Z</time>
      </trkpt>
      <trkpt lat="43.93622" lon="0.617">
        <ele>205.704247</ele>
        <time>2022-08-16T08:54:02.267Z</time>
      </trkpt>
      <trkpt lat="43.93619" lon="0.61715">
        <ele>205.447658</ele>
        <time>2022-08-16T08:54:09.267Z</time>
      </trkpt>
      <trkpt lat="43.93613" lon="0.61724">
        <ele>205.488533</ele>
        <time>2022-08-16T08:54:15.267Z</time>
      </trkpt>
      <trkpt lat="43.93604" lon="0.61727">
        <ele>205.67953</ele>
        <time>2022-08-16T08:54:22.267Z</time>
      </trkpt>
      <trkpt lat="43.93594" lon="0.61728">
        <ele>205.885952</ele>
        <time>2022-08-16T08:54:31.267Z</time>
      </trkpt>
      <trkpt lat="43.93585" lon="0.61731">
        <ele>206.090141</ele>
        <time>2022-08-16T08:54:42.267Z</time>
      </trkpt>
      <trkpt lat="43.93576" lon="0.6173">
        <ele>206.282487</ele>
        <time>2022-08-16T08:54:49.267Z</time>
      </trkpt>
      <trkpt lat="43.93574" lon="0.61716">
        <ele>206.485163</ele>
        <time>2022-08-16T08:55:00.267Z</time>
      </trkpt>
      <trkpt lat="43.93581" lon="0.61708">
        <ele>206.681711</ele>
        <time>2022-08-16T08:55:07.267Z</time>
      </trkpt>
      <trkpt lat="43.93587" lon="0.61696">
        <ele>206.884915</ele>
        <time>2022-08-16T08:55:14.267Z</time>
      </trkpt>
      <trkpt lat="43.93588" lon="0.61683">
        <ele>207.081128</ele>
        <time>2022-08-16T08:55:22.267Z</time>
      </trkpt>
      <trkpt lat="43.93595" lon="0.61675">
        <ele>207.280225</ele>
        <time>2022-08-16T08:55:29.267Z</time>
      </trkpt>
      <trkpt lat="43.93602" lon="0.61664">
        <ele>207.481284</ele>
        <time>2022-08-16T08:55:36.267Z</time>
      </trkpt>
      <trkpt lat="43.93605" lon="0.61652">
        <ele>207.674201</ele>
        <time>2022-08-16T08:55:44.267Z</time>
      </trkpt>
      <trkpt lat="43.93608" lon="0.6164">
        <ele>207.861858</ele>
        <time>2022-08-16T08:55:50.267Z</time>
      </trkpt>
      <trkpt lat="43.93608" lon="0.61627">
        <ele>208.059895</ele>
        <time>2022-08-16T08:55:56.267Z</time>
      </trkpt>
      <trkpt lat="43.93613" lon="0.61615">
        <ele>208.271149</ele>
        <time>2022-08-16T08:56:04.267Z</time>
      </trkpt>
      <trkpt lat="43.93615" lon="0.61602">
        <ele>208.470863</ele>
        <time>2022-08-16T08:56:10.267Z</time>
      </trkpt>
      <trkpt lat="43.93617" lon="0.61588">
        <ele>208.685157</ele>
        <time>2022-08-16T08:56:18.267Z</time>
      </trkpt>
      <trkpt lat="43.93625" lon="0.61582">
        <ele>208.883636</ele>
        <time>2022-08-16T08:56:30.267Z</time>
      </trkpt>
      <trkpt lat="43.93634" lon="0.6156">
        <ele>208.310976</ele>
        <time>2022-08-16T08:57:52.267Z</time>
      </trkpt>
      <trkpt lat="43.93636" lon="0.61548">
        <ele>207.221358</ele>
        <time>2022-08-16T08:58:07.267Z</time>
      </trkpt>
      <trkpt lat="43.93628" lon="0.61552">
        <ele>206.132962</ele>
        <time>2022-08-16T08:58:29.267Z</time>
      </trkpt>
      <trkpt lat="43.93618" lon="0.61548">
        <ele>204.962363</ele>
        <time>2022-08-16T08:58:42.267Z</time>
      </trkpt>
      <trkpt lat="43.93614" lon="0.6152">
        <ele>202.492032</ele>
        <time>2022-08-16T09:00:02.267Z</time>
      </trkpt>
      <trkpt lat="43.93622" lon="0.61528">
        <ele>201.326903</ele>
        <time>2022-08-16T09:00:21.267Z</time>
      </trkpt>
      <trkpt lat="43.93631" lon="0.61527">
        <ele>200.235963</ele>
        <time>2022-08-16T09:00:28.267Z</time>
      </trkpt>
      <trkpt lat="43.93641" lon="0.61532">
        <ele>198.994915</ele>
        <time>2022-08-16T09:00:37.267Z</time>
      </trkpt>
      <trkpt lat="43.9365" lon="0.61538">
        <ele>197.809814</ele>
        <time>2022-08-16T09:00:43.267Z</time>
      </trkpt>
      <trkpt lat="43.93648" lon="0.61526">
        <ele>196.717374</ele>
        <time>2022-08-16T09:01:00.267Z</time>
      </trkpt>
      <trkpt lat="43.9364" lon="0.61518">
        <ele>195.586167</ele>
        <time>2022-08-16T09:01:07.267Z</time>
      </trkpt>
      <trkpt lat="43.93631" lon="0.61508">
        <ele>194.266695</ele>
        <time>2022-08-16T09:01:14.267Z</time>
      </trkpt>
      <trkpt lat="43.93622" lon="0.61503">
        <ele>193.099868</ele>
        <time>2022-08-16T09:01:19.267Z</time>
      </trkpt>
      <trkpt lat="43.93624" lon="0.61491">
        <ele>192.003352</ele>
        <time>2022-08-16T09:01:30.267Z</time>
      </trkpt>
      <trkpt lat="43.93631" lon="0.61482">
        <ele>190.89354</ele>
        <time>2022-08-16T09:01:44.267Z</time>
      </trkpt>
      <trkpt lat="43.93641" lon="0.61478">
        <ele>189.615048</ele>
        <time>2022-08-16T09:01:52.267Z</time>
      </trkpt>
      <trkpt lat="43.93651" lon="0.61477">
        <ele>188.452806</ele>
        <time>2022-08-16T09:01:57.267Z</time>
      </trkpt>
      <trkpt lat="43.9366" lon="0.61477">
        <ele>187.319914</ele>
        <time>2022-08-16T09:02:04.267Z</time>
      </trkpt>
      <trkpt lat="43.9367" lon="0.61478">
        <ele>185.922676</ele>
        <time>2022-08-16T09:02:11.267Z</time>
      </trkpt>
      <trkpt lat="43.93678" lon="0.61476">
        <ele>184.622992</ele>
        <time>2022-08-16T09:02:17.267Z</time>
      </trkpt>
      <trkpt lat="43.93687" lon="0.6147">
        <ele>183.26331</ele>
        <time>2022-08-16T09:02:26.267Z</time>
      </trkpt>
      <trkpt lat="43.93689" lon="0.61458">
        <ele>181.920213</ele>
        <time>2022-08-16T09:02:33.267Z</time>
      </trkpt>
      <trkpt lat="43.93682" lon="0.61447">
        <ele>180.458247</ele>
        <time>2022-08-16T09:02:43.267Z</time>
      </trkpt>
      <trkpt lat="43.93673" lon="0.61439">
        <ele>179.001745</ele>
        <time>2022-08-16T09:02:47.267Z</time>
      </trkpt>
      <trkpt lat="43.93665" lon="0.6143">
        <ele>177.508167</ele>
        <time>2022-08-16T09:02:53.267Z</time>
      </trkpt>
      <trkpt lat="43.93659" lon="0.61421">
        <ele>176.215858</ele>
        <time>2022-08-16T09:02:59.267Z</time>
      </trkpt>
      <trkpt lat="43.93649" lon="0.61416">
        <ele>174.742134</ele>
        <time>2022-08-16T09:03:07.267Z</time>
      </trkpt>
      <trkpt lat="43.93642" lon="0.61406">
        <ele>173.305093</ele>
        <time>2022-08-16T09:03:13.267Z</time>
      </trkpt>
      <trkpt lat="43.93636" lon="0.61395">
        <ele>171.843121</ele>
        <time>2022-08-16T09:03:19.267Z</time>
      </trkpt>
      <trkpt lat="43.93628" lon="0.61386">
        <ele>170.395646</ele>
        <time>2022-08-16T09:03:26.267Z</time>
      </trkpt>
      <trkpt lat="43.93622" lon="0.61376">
        <ele>169.023558</ele>
        <time>2022-08-16T09:03:33.267Z</time>
      </trkpt>
      <trkpt lat="43.93618" lon="0.61363">
        <ele>167.605676</ele>
        <time>2022-08-16T09:03:40.267Z</time>
      </trkpt>
      <trkpt lat="43.93615" lon="0.6135">
        <ele>166.09698</ele>
        <time>2022-08-16T09:03:48.267Z</time>
      </trkpt>
      <trkpt lat="43.93609" lon="0.61338">
        <ele>164.635942</ele>
        <time>2022-08-16T09:03:54.267Z</time>
      </trkpt>
      <trkpt lat="43.93604" lon="0.61327">
        <ele>163.331332</ele>
        <time>2022-08-16T09:04:00.267Z</time>
      </trkpt>
      <trkpt lat="43.936" lon="0.61315">
        <ele>161.973301</ele>
        <time>2022-08-16T09:04:08.267Z</time>
      </trkpt>
      <trkpt lat="43.93596" lon="0.61303">
        <ele>160.957845</ele>
        <time>2022-08-16T09:04:16.267Z</time>
      </trkpt>
      <trkpt lat="43.9359" lon="0.61293">
        <ele>160.018581</ele>
        <time>2022-08-16T09:04:24.267Z</time>
      </trkpt>
      <trkpt lat="43.93582" lon="0.61285">
        <ele>159.067283</ele>
        <time>2022-08-16T09:04:32.267Z</time>
      </trkpt>
      <trkpt lat="43.93573" lon="0.61279">
        <ele>158.072811</ele>
        <time>2022-08-16T09:04:40.267Z</time>
      </trkpt>
      <trkpt lat="43.93566" lon="0.61273">
        <ele>157.180404</ele>
        <time>2022-08-16T09:04:44.267Z</time>
      </trkpt>
      <trkpt lat="43.93559" lon="0.61264">
        <ele>156.275382</ele>
        <time>2022-08-16T09:04:52.267Z</time>
      </trkpt>
      <trkpt lat="43.9355" lon="0.61257">
        <ele>155.259053</ele>
        <time>2022-08-16T09:05:05.267Z</time>
      </trkpt>
      <trkpt lat="43.9354" lon="0.61253">
        <ele>154.254005</ele>
        <time>2022-08-16T09:05:13.267Z</time>
      </trkpt>
      <trkpt lat="43.93531" lon="0.61255">
        <ele>153.287678</ele>
        <time>2022-08-16T09:05:20.267Z</time>
      </trkpt>
      <trkpt lat="43.93521" lon="0.61259">
        <ele>152.283973</ele>
        <time>2022-08-16T09:05:28.267Z</time>
      </trkpt>
      <trkpt lat="43.93511" lon="0.61259">
        <ele>151.271971</ele>
        <time>2022-08-16T09:05:33.267Z</time>
      </trkpt>
      <trkpt lat="43.93501" lon="0.61257">
        <ele>150.269801</ele>
        <time>2022-08-16T09:05:38.267Z</time>
      </trkpt>
      <trkpt lat="43.93491" lon="0.61258">
        <ele>149.285682</ele>
        <time>2022-08-16T09:05:45.267Z</time>
      </trkpt>
      <trkpt lat="43.93486" lon="0.61246">
        <ele>148.314847</ele>
        <time>2022-08-16T09:05:53.267Z</time>
      </trkpt>
      <trkpt lat="43.93477" lon="0.61249">
        <ele>147.360912</ele>
        <time>2022-08-16T09:06:00.267Z</time>
      </trkpt>
      <trkpt lat="43.93466" lon="0.61252">
        <ele>146.289248</ele>
        <time>2022-08-16T09:06:07.267Z</time>
      </trkpt>
      <trkpt lat="43.93456" lon="0.61256">
        <ele>145.290846</ele>
        <time>2022-08-16T09:06:15.267Z</time>
      </trkpt>
      <trkpt lat="43.93447" lon="0.61263">
        <ele>144.228628</ele>
        <time>2022-08-16T09:06:22.267Z</time>
      </trkpt>
      <trkpt lat="43.93438" lon="0.61268">
        <ele>143.414392</ele>
        <time>2022-08-16T09:06:29.267Z</time>
      </trkpt>
      <trkpt lat="43.9343" lon="0.61273">
        <ele>142.668429</ele>
        <time>2022-08-16T09:06:36.267Z</time>
      </trkpt>
      <trkpt lat="43.93421" lon="0.61277">
        <ele>141.905224</ele>
        <time>2022-08-16T09:06:42.267Z</time>
      </trkpt>
      <trkpt lat="43.93412" lon="0.61281">
        <ele>141.120948</ele>
        <time>2022-08-16T09:06:51.267Z</time>
      </trkpt>
      <trkpt lat="43.93402" lon="0.61286">
        <ele>140.319371</ele>
        <time>2022-08-16T09:06:59.267Z</time>
      </trkpt>
      <trkpt lat="43.93394" lon="0.61291">
        <ele>139.543761</ele>
        <time>2022-08-16T09:07:05.267Z</time>
      </trkpt>
      <trkpt lat="43.93385" lon="0.61296">
        <ele>138.788278</ele>
        <time>2022-08-16T09:07:12.267Z</time>
      </trkpt>
      <trkpt lat="43.93375" lon="0.61292">
        <ele>137.978143</ele>
        <time>2022-08-16T09:07:21.267Z</time>
      </trkpt>
      <trkpt lat="43.9338" lon="0.6128">
        <ele>137.165779</ele>
        <time>2022-08-16T09:07:29.267Z</time>
      </trkpt>
      <trkpt lat="43.93385" lon="0.61269">
        <ele>136.395136</ele>
        <time>2022-08-16T09:07:37.267Z</time>
      </trkpt>
      <trkpt lat="43.93391" lon="0.61258">
        <ele>135.610331</ele>
        <time>2022-08-16T09:07:45.267Z</time>
      </trkpt>
      <trkpt lat="43.93397" lon="0.61247">
        <ele>134.796987</ele>
        <time>2022-08-16T09:07:54.267Z</time>
      </trkpt>
      <trkpt lat="43.93398" lon="0.61235">
        <ele>134.048438</ele>
        <time>2022-08-16T09:08:02.267Z</time>
      </trkpt>
      <trkpt lat="43.934" lon="0.61221">
        <ele>133.265172</ele>
        <time>2022-08-16T09:08:09.267Z</time>
      </trkpt>
      <trkpt lat="43.93402" lon="0.61209">
        <ele>132.517086</ele>
        <time>2022-08-16T09:08:15.267Z</time>
      </trkpt>
      <trkpt lat="43.93403" lon="0.61197">
        <ele>131.78077</ele>
        <time>2022-08-16T09:08:21.267Z</time>
      </trkpt>
      <trkpt lat="43.93406" lon="0.61185">
        <ele>131.038865</ele>
        <time>2022-08-16T09:08:30.267Z</time>
      </trkpt>
      <trkpt lat="43.93409" lon="0.61172">
        <ele>130.266806</ele>
        <time>2022-08-16T09:08:37.267Z</time>
      </trkpt>
      <trkpt lat="43.93408" lon="0.6116">
        <ele>129.533471</ele>
        <time>2022-08-16T09:08:43.267Z</time>
      </trkpt>
      <trkpt lat="43.93411" lon="0.61147">
        <ele>128.984432</ele>
        <time>2022-08-16T09:08:50.267Z</time>
      </trkpt>
      <trkpt lat="43.93412" lon="0.61135">
        <ele>128.556348</ele>
        <time>2022-08-16T09:08:56.267Z</time>
      </trkpt>
      <trkpt lat="43.93418" lon="0.61124">
        <ele>128.10619</ele>
        <time>2022-08-16T09:09:15.267Z</time>
      </trkpt>
      <trkpt lat="43.9342" lon="0.61109">
        <ele>127.573891</ele>
        <time>2022-08-16T09:09:24.267Z</time>
      </trkpt>
      <trkpt lat="43.93422" lon="0.61096">
        <ele>127.113991</ele>
        <time>2022-08-16T09:09:30.267Z</time>
      </trkpt>
      <trkpt lat="43.93425" lon="0.61083">
        <ele>126.679303</ele>
        <time>2022-08-16T09:09:38.267Z</time>
      </trkpt>
      <trkpt lat="43.93426" lon="0.61069">
        <ele>126.201833</ele>
        <time>2022-08-16T09:09:44.267Z</time>
      </trkpt>
      <trkpt lat="43.93428" lon="0.61056">
        <ele>125.732933</ele>
        <time>2022-08-16T09:09:51.267Z</time>
      </trkpt>
      <trkpt lat="43.9343" lon="0.61043">
        <ele>125.283873</ele>
        <time>2022-08-16T09:10:00.267Z</time>
      </trkpt>
      <trkpt lat="43.93434" lon="0.6103">
        <ele>124.813373</ele>
        <time>2022-08-16T09:10:08.267Z</time>
      </trkpt>
      <trkpt lat="43.93437" lon="0.61017">
        <ele>124.354105</ele>
        <time>2022-08-16T09:10:15.267Z</time>
      </trkpt>
      <trkpt lat="43.93441" lon="0.61003">
        <ele>123.870752</ele>
        <time>2022-08-16T09:10:23.267Z</time>
      </trkpt>
      <trkpt lat="43.93441" lon="0.60991">
        <ele>123.440098</ele>
        <time>2022-08-16T09:10:30.267Z</time>
      </trkpt>
      <trkpt lat="43.93445" lon="0.60979">
        <ele>122.992279</ele>
        <time>2022-08-16T09:10:40.267Z</time>
      </trkpt>
      <trkpt lat="43.93447" lon="0.60966">
        <ele>122.553126</ele>
        <time>2022-08-16T09:10:47.267Z</time>
      </trkpt>
      <trkpt lat="43.93449" lon="0.60954">
        <ele>122.13004</ele>
        <time>2022-08-16T09:10:53.267Z</time>
      </trkpt>
      <trkpt lat="43.9345" lon="0.60941">
        <ele>121.698953</ele>
        <time>2022-08-16T09:10:59.267Z</time>
      </trkpt>
      <trkpt lat="43.9345" lon="0.60928">
        <ele>121.269528</ele>
        <time>2022-08-16T09:11:04.267Z</time>
      </trkpt>
      <trkpt lat="43.9345" lon="0.60916">
        <ele>120.843659</ele>
        <time>2022-08-16T09:11:10.267Z</time>
      </trkpt>
      <trkpt lat="43.9345" lon="0.60902">
        <ele>120.628825</ele>
        <time>2022-08-16T09:11:17.267Z</time>
      </trkpt>
      <trkpt lat="43.9345" lon="0.60889">
        <ele>120.42628</ele>
        <time>2022-08-16T09:11:26.267Z</time>
      </trkpt>
      <trkpt lat="43.93453" lon="0.60877">
        <ele>120.224918</ele>
        <time>2022-08-16T09:11:34.267Z</time>
      </trkpt>
      <trkpt lat="43.93455" lon="0.60863">
        <ele>120.009782</ele>
        <time>2022-08-16T09:11:41.267Z</time>
      </trkpt>
      <trkpt lat="43.93457" lon="0.6085">
        <ele>119.803997</ele>
        <time>2022-08-16T09:11:49.267Z</time>
      </trkpt>
      <trkpt lat="43.93461" lon="0.60838">
        <ele>119.594334</ele>
        <time>2022-08-16T09:11:56.267Z</time>
      </trkpt>
      <trkpt lat="43.93463" lon="0.60824">
        <ele>119.374978</ele>
        <time>2022-08-16T09:12:05.267Z</time>
      </trkpt>
      <trkpt lat="43.93465" lon="0.60811">
        <ele>119.174693</ele>
        <time>2022-08-16T09:12:12.267Z</time>
      </trkpt>
      <trkpt lat="43.93462" lon="0.60776">
        <ele>118.622623</ele>
        <time>2022-08-16T09:12:48.267Z</time>
      </trkpt>
      <trkpt lat="43.93465" lon="0.60763">
        <ele>118.416821</ele>
        <time>2022-08-16T09:12:55.267Z</time>
      </trkpt>
      <trkpt lat="43.93468" lon="0.60751">
        <ele>118.204561</ele>
        <time>2022-08-16T09:13:10.267Z</time>
      </trkpt>
      <trkpt lat="43.9347" lon="0.60738">
        <ele>118.008936</ele>
        <time>2022-08-16T09:13:17.267Z</time>
      </trkpt>
      <trkpt lat="43.93469" lon="0.60726">
        <ele>117.813693</ele>
        <time>2022-08-16T09:13:25.267Z</time>
      </trkpt>
      <trkpt lat="43.93471" lon="0.60713">
        <ele>117.616452</ele>
        <time>2022-08-16T09:13:30.267Z</time>
      </trkpt>
      <trkpt lat="43.93474" lon="0.60701">
        <ele>117.411298</ele>
        <time>2022-08-16T09:13:36.267Z</time>
      </trkpt>
      <trkpt lat="43.93476" lon="0.60687">
        <ele>117.186838</ele>
        <time>2022-08-16T09:13:45.267Z</time>
      </trkpt>
      <trkpt lat="43.9348" lon="0.60674">
        <ele>116.968554</ele>
        <time>2022-08-16T09:13:52.267Z</time>
      </trkpt>
      <trkpt lat="43.93484" lon="0.60661">
        <ele>117.522564</ele>
        <time>2022-08-16T09:13:59.267Z</time>
      </trkpt>
      <trkpt lat="43.93486" lon="0.60649">
        <ele>118.074579</ele>
        <time>2022-08-16T09:14:06.267Z</time>
      </trkpt>
      <trkpt lat="43.93489" lon="0.60637">
        <ele>118.62297</ele>
        <time>2022-08-16T09:14:13.267Z</time>
      </trkpt>
      <trkpt lat="43.93491" lon="0.60623">
        <ele>119.225799</ele>
        <time>2022-08-16T09:14:20.267Z</time>
      </trkpt>
      <trkpt lat="43.93493" lon="0.60611">
        <ele>119.786786</ele>
        <time>2022-08-16T09:14:27.267Z</time>
      </trkpt>
      <trkpt lat="43.93495" lon="0.60598">
        <ele>120.34423</ele>
        <time>2022-08-16T09:14:34.267Z</time>
      </trkpt>
      <trkpt lat="43.93497" lon="0.60585">
        <ele>120.965755</ele>
        <time>2022-08-16T09:14:43.267Z</time>
      </trkpt>
      <trkpt lat="43.93496" lon="0.60572">
        <ele>121.537274</ele>
        <time>2022-08-16T09:14:50.267Z</time>
      </trkpt>
      <trkpt lat="43.93494" lon="0.60559">
        <ele>122.107506</ele>
        <time>2022-08-16T09:14:55.267Z</time>
      </trkpt>
      <trkpt lat="43.93492" lon="0.60547">
        <ele>122.655896</ele>
        <time>2022-08-16T09:15:01.267Z</time>
      </trkpt>
      <trkpt lat="43.93487" lon="0.60536">
        <ele>123.204998</ele>
        <time>2022-08-16T09:15:07.267Z</time>
      </trkpt>
      <trkpt lat="43.93483" lon="0.60523">
        <ele>123.824865</ele>
        <time>2022-08-16T09:15:15.267Z</time>
      </trkpt>
      <trkpt lat="43.93479" lon="0.6051">
        <ele>124.425952</ele>
        <time>2022-08-16T09:15:21.267Z</time>
      </trkpt>
      <trkpt lat="43.93477" lon="0.60497">
        <ele>125.03304</ele>
        <time>2022-08-16T09:15:27.267Z</time>
      </trkpt>
      <trkpt lat="43.93473" lon="0.60484">
        <ele>125.632207</ele>
        <time>2022-08-16T09:15:34.267Z</time>
      </trkpt>
      <trkpt lat="43.93471" lon="0.60471">
        <ele>126.221043</ele>
        <time>2022-08-16T09:15:41.267Z</time>
      </trkpt>
      <trkpt lat="43.9347" lon="0.60458">
        <ele>126.793179</ele>
        <time>2022-08-16T09:15:48.267Z</time>
      </trkpt>
      <trkpt lat="43.93468" lon="0.60444">
        <ele>127.394385</ele>
        <time>2022-08-16T09:15:55.267Z</time>
      </trkpt>
      <trkpt lat="43.93466" lon="0.60431">
        <ele>127.900763</ele>
        <time>2022-08-16T09:16:03.267Z</time>
      </trkpt>
      <trkpt lat="43.93464" lon="0.60417">
        <ele>127.9902</ele>
        <time>2022-08-16T09:16:10.267Z</time>
      </trkpt>
      <trkpt lat="43.93462" lon="0.60404">
        <ele>128.077674</ele>
        <time>2022-08-16T09:16:17.267Z</time>
      </trkpt>
      <trkpt lat="43.93462" lon="0.6039">
        <ele>128.165416</ele>
        <time>2022-08-16T09:16:25.267Z</time>
      </trkpt>
      <trkpt lat="43.93467" lon="0.60378">
        <ele>128.251202</ele>
        <time>2022-08-16T09:16:32.267Z</time>
      </trkpt>
      <trkpt lat="43.93474" lon="0.6037">
        <ele>128.335724</ele>
        <time>2022-08-16T09:16:38.267Z</time>
      </trkpt>
      <trkpt lat="43.93483" lon="0.60366">
        <ele>128.417086</ele>
        <time>2022-08-16T09:16:44.267Z</time>
      </trkpt>
      <trkpt lat="43.93492" lon="0.60363">
        <ele>128.497729</ele>
        <time>2022-08-16T09:16:51.267Z</time>
      </trkpt>
      <trkpt lat="43.93502" lon="0.60362">
        <ele>128.582569</ele>
        <time>2022-08-16T09:16:58.267Z</time>
      </trkpt>
      <trkpt lat="43.93512" lon="0.60361">
        <ele>128.671184</ele>
        <time>2022-08-16T09:17:06.267Z</time>
      </trkpt>
      <trkpt lat="43.93521" lon="0.6036">
        <ele>128.751829</ele>
        <time>2022-08-16T09:17:13.267Z</time>
      </trkpt>
      <trkpt lat="43.9353" lon="0.60358">
        <ele>128.834819</ele>
        <time>2022-08-16T09:17:22.267Z</time>
      </trkpt>
      <trkpt lat="43.93539" lon="0.60359">
        <ele>128.917045</ele>
        <time>2022-08-16T09:17:30.267Z</time>
      </trkpt>
      <trkpt lat="43.93548" lon="0.60363">
        <ele>128.999831</ele>
        <time>2022-08-16T09:17:36.267Z</time>
      </trkpt>
      <trkpt lat="43.93559" lon="0.60362">
        <ele>129.093553</ele>
        <time>2022-08-16T09:17:46.267Z</time>
      </trkpt>
      <trkpt lat="43.93568" lon="0.6036">
        <ele>129.179352</ele>
        <time>2022-08-16T09:17:52.267Z</time>
      </trkpt>
      <trkpt lat="43.93579" lon="0.60358">
        <ele>129.271357</ele>
        <time>2022-08-16T09:17:59.267Z</time>
      </trkpt>
      <trkpt lat="43.93588" lon="0.60357">
        <ele>129.357015</ele>
        <time>2022-08-16T09:18:07.267Z</time>
      </trkpt>
      <trkpt lat="43.93599" lon="0.60357">
        <ele>129.448006</ele>
        <time>2022-08-16T09:18:15.267Z</time>
      </trkpt>
      <trkpt lat="43.93608" lon="0.60355">
        <ele>129.52022</ele>
        <time>2022-08-16T09:18:22.267Z</time>
      </trkpt>
      <trkpt lat="43.93618" lon="0.60354">
        <ele>129.585993</ele>
        <time>2022-08-16T09:18:29.267Z</time>
      </trkpt>
      <trkpt lat="43.93627" lon="0.60353">
        <ele>129.651806</ele>
        <time>2022-08-16T09:18:35.267Z</time>
      </trkpt>
      <trkpt lat="43.93637" lon="0.60351">
        <ele>129.72015</ele>
        <time>2022-08-16T09:18:42.267Z</time>
      </trkpt>
      <trkpt lat="43.93646" lon="0.60349">
        <ele>129.786144</ele>
        <time>2022-08-16T09:18:49.267Z</time>
      </trkpt>
      <trkpt lat="43.93655" lon="0.60349">
        <ele>129.851097</ele>
        <time>2022-08-16T09:19:09.267Z</time>
      </trkpt>
      <trkpt lat="43.93664" lon="0.60347">
        <ele>129.913763</ele>
        <time>2022-08-16T09:19:18.267Z</time>
      </trkpt>
      <trkpt lat="43.93673" lon="0.60343">
        <ele>129.976707</ele>
        <time>2022-08-16T09:19:26.267Z</time>
      </trkpt>
      <trkpt lat="43.9368" lon="0.60334">
        <ele>130.044162</ele>
        <time>2022-08-16T09:19:33.267Z</time>
      </trkpt>
      <trkpt lat="43.93688" lon="0.60327">
        <ele>130.107815</ele>
        <time>2022-08-16T09:19:41.267Z</time>
      </trkpt>
      <trkpt lat="43.93695" lon="0.60321">
        <ele>130.170635</ele>
        <time>2022-08-16T09:19:48.267Z</time>
      </trkpt>
      <trkpt lat="43.93704" lon="0.6032">
        <ele>130.233433</ele>
        <time>2022-08-16T09:19:55.267Z</time>
      </trkpt>
      <trkpt lat="43.93715" lon="0.6032">
        <ele>130.305378</ele>
        <time>2022-08-16T09:20:06.267Z</time>
      </trkpt>
      <trkpt lat="43.93724" lon="0.60318">
        <ele>130.373366</ele>
        <time>2022-08-16T09:20:14.267Z</time>
      </trkpt>
      <trkpt lat="43.93734" lon="0.60318">
        <ele>130.436904</ele>
        <time>2022-08-16T09:20:21.267Z</time>
      </trkpt>
      <trkpt lat="43.93743" lon="0.60316">
        <ele>130.506774</ele>
        <time>2022-08-16T09:20:28.267Z</time>
      </trkpt>
      <trkpt lat="43.93752" lon="0.60314">
        <ele>130.569674</ele>
        <time>2022-08-16T09:20:35.267Z</time>
      </trkpt>
      <trkpt lat="43.93762" lon="0.60312">
        <ele>130.637258</ele>
        <time>2022-08-16T09:20:43.267Z</time>
      </trkpt>
      <trkpt lat="43.93771" lon="0.60312">
        <ele>130.702189</ele>
        <time>2022-08-16T09:20:50.267Z</time>
      </trkpt>
      <trkpt lat="43.93781" lon="0.60309">
        <ele>131.088789</ele>
        <time>2022-08-16T09:20:57.267Z</time>
      </trkpt>
      <trkpt lat="43.93791" lon="0.60307">
        <ele>131.695279</ele>
        <time>2022-08-16T09:21:06.267Z</time>
      </trkpt>
      <trkpt lat="43.938" lon="0.60302">
        <ele>132.299233</ele>
        <time>2022-08-16T09:21:17.267Z</time>
      </trkpt>
      <trkpt lat="43.93802" lon="0.60289">
        <ele>132.868079</ele>
        <time>2022-08-16T09:21:24.267Z</time>
      </trkpt>
      <trkpt lat="43.938" lon="0.60277">
        <ele>133.434258</ele>
        <time>2022-08-16T09:21:32.267Z</time>
      </trkpt>
      <trkpt lat="43.938" lon="0.60263">
        <ele>134.035111</ele>
        <time>2022-08-16T09:21:41.267Z</time>
      </trkpt>
      <trkpt lat="43.93798" lon="0.6025">
        <ele>134.611033</ele>
        <time>2022-08-16T09:21:49.267Z</time>
      </trkpt>
      <trkpt lat="43.93794" lon="0.60237">
        <ele>135.223548</ele>
        <time>2022-08-16T09:21:56.267Z</time>
      </trkpt>
      <trkpt lat="43.93791" lon="0.60223">
        <ele>135.838051</ele>
        <time>2022-08-16T09:22:04.267Z</time>
      </trkpt>
      <trkpt lat="43.93787" lon="0.6021">
        <ele>136.458809</ele>
        <time>2022-08-16T09:22:15.267Z</time>
      </trkpt>
      <trkpt lat="43.93787" lon="0.60208">
        <ele>87</ele>
        <time>2022-08-16T09:22:24Z</time>
      </trkpt>
      <trkpt lat="43.93787" lon="0.60206">
        <ele>87</ele>
        <time>2022-08-16T09:22:25Z</time>
      </trkpt>
      <trkpt lat="43.93785" lon="0.60197">
        <ele>87</ele>
        <time>2022-08-16T09:22:30Z</time>
      </trkpt>
      <trkpt lat="43.93784" lon="0.60189">
        <ele>88</ele>
        <time>2022-08-16T09:22:35Z</time>
      </trkpt>
      <trkpt lat="43.93771" lon="0.60151">
        <ele>90</ele>
        <time>2022-08-16T09:23:01Z</time>
      </trkpt>
      <trkpt lat="43.9377" lon="0.60144">
        <ele>90</ele>
        <time>2022-08-16T09:23:05Z</time>
      </trkpt>
      <trkpt lat="43.93757" lon="0.60098">
        <ele>93</ele>
        <time>2022-08-16T09:23:32Z</time>
      </trkpt>
      <trkpt lat="43.93756" lon="0.60091">
        <ele>93</ele>
        <time>2022-08-16T09:23:37Z</time>
      </trkpt>
      <trkpt lat="43.93753" lon="0.60082">
        <ele>92</ele>
        <time>2022-08-16T09:23:43Z</time>
      </trkpt>
      <trkpt lat="43.93745" lon="0.60049">
        <ele>93</ele>
        <time>2022-08-16T09:24:03Z</time>
      </trkpt>
      <trkpt lat="43.93742" lon="0.60041">
        <ele>93</ele>
        <time>2022-08-16T09:24:08Z</time>
      </trkpt>
      <trkpt lat="43.9373" lon="0.59997">
        <ele>93</ele>
        <time>2022-08-16T09:24:36Z</time>
      </trkpt>
      <trkpt lat="43.93729" lon="0.5999">
        <ele>93</ele>
        <time>2022-08-16T09:24:40Z</time>
      </trkpt>
      <trkpt lat="43.93717" lon="0.59936">
        <ele>94</ele>
        <time>2022-08-16T09:25:12Z</time>
      </trkpt>
      <trkpt lat="43.93716" lon="0.59929">
        <ele>94</ele>
        <time>2022-08-16T09:25:17Z</time>
      </trkpt>
      <trkpt lat="43.93713" lon="0.59922">
        <ele>94</ele>
        <time>2022-08-16T09:25:21Z</time>
      </trkpt>
      <trkpt lat="43.93706" lon="0.59867">
        <ele>94</ele>
        <time>2022-08-16T09:25:52Z</time>
      </trkpt>
      <trkpt lat="43.93706" lon="0.59861">
        <ele>94</ele>
        <time>2022-08-16T09:25:55Z</time>
      </trkpt>
      <trkpt lat="43.93707" lon="0.59854">
        <ele>95</ele>
        <time>2022-08-16T09:25:59Z</time>
      </trkpt>
      <trkpt lat="43.93707" lon="0.59846">
        <ele>95</ele>
        <time>2022-08-16T09:26:03Z</time>
      </trkpt>
      <trkpt lat="43.93705" lon="0.59833">
        <ele>95</ele>
        <time>2022-08-16T09:26:10Z</time>
      </trkpt>
      <trkpt lat="43.93704" lon="0.59796">
        <ele>95</ele>
        <time>2022-08-16T09:26:30Z</time>
      </trkpt>
      <trkpt lat="43.93703" lon="0.59783">
        <ele>95</ele>
        <time>2022-08-16T09:26:37Z</time>
      </trkpt>
      <trkpt lat="43.93702" lon="0.59734">
        <ele>97</ele>
        <time>2022-08-16T09:27:05Z</time>
      </trkpt>
      <trkpt lat="43.93701" lon="0.59727">
        <ele>97</ele>
        <time>2022-08-16T09:27:09Z</time>
      </trkpt>
      <trkpt lat="43.93703" lon="0.59677">
        <ele>99</ele>
        <time>2022-08-16T09:27:37Z</time>
      </trkpt>
      <trkpt lat="43.93714" lon="0.59621">
        <ele>101</ele>
        <time>2022-08-16T09:28:10Z</time>
      </trkpt>
      <trkpt lat="43.93715" lon="0.59584">
        <ele>103</ele>
        <time>2022-08-16T09:28:30Z</time>
      </trkpt>
      <trkpt lat="43.93707" lon="0.5953">
        <ele>105</ele>
        <time>2022-08-16T09:29:02Z</time>
      </trkpt>
      <trkpt lat="43.937" lon="0.59478">
        <ele>107</ele>
        <time>2022-08-16T09:29:33Z</time>
      </trkpt>
      <trkpt lat="43.93696" lon="0.59465">
        <ele>107</ele>
        <time>2022-08-16T09:29:41Z</time>
      </trkpt>
      <trkpt lat="43.93694" lon="0.59451">
        <ele>107</ele>
        <time>2022-08-16T09:29:49Z</time>
      </trkpt>
      <trkpt lat="43.93693" lon="0.59443">
        <ele>107</ele>
        <time>2022-08-16T09:29:53Z</time>
      </trkpt>
      <trkpt lat="43.93696" lon="0.59429">
        <ele>108</ele>
        <time>2022-08-16T09:30:02Z</time>
      </trkpt>
      <trkpt lat="43.937" lon="0.59423">
        <ele>109</ele>
        <time>2022-08-16T09:30:06Z</time>
      </trkpt>
      <trkpt lat="43.93704" lon="0.5942">
        <ele>109</ele>
        <time>2022-08-16T09:30:10Z</time>
      </trkpt>
      <trkpt lat="43.93707" lon="0.59415">
        <ele>109</ele>
        <time>2022-08-16T09:30:13Z</time>
      </trkpt>
      <trkpt lat="43.93712" lon="0.59407">
        <ele>109</ele>
        <time>2022-08-16T09:30:39Z</time>
      </trkpt>
      <trkpt lat="43.93718" lon="0.59389">
        <ele>109</ele>
        <time>2022-08-16T09:30:53Z</time>
      </trkpt>
      <trkpt lat="43.93734" lon="0.59341">
        <ele>113</ele>
        <time>2022-08-16T09:31:25Z</time>
      </trkpt>
      <trkpt lat="43.93739" lon="0.59329">
        <ele>114</ele>
        <time>2022-08-16T09:31:33Z</time>
      </trkpt>
      <trkpt lat="43.93743" lon="0.59316">
        <ele>114</ele>
        <time>2022-08-16T09:31:41Z</time>
      </trkpt>
      <trkpt lat="43.93755" lon="0.59291">
        <ele>116</ele>
        <time>2022-08-16T09:32:14Z</time>
      </trkpt>
      <trkpt lat="43.93759" lon="0.59285">
        <ele>116</ele>
        <time>2022-08-16T09:32:18Z</time>
      </trkpt>
      <trkpt lat="43.93761" lon="0.5928">
        <ele>116</ele>
        <time>2022-08-16T09:32:22Z</time>
      </trkpt>
      <trkpt lat="43.93782" lon="0.59234">
        <ele>118</ele>
        <time>2022-08-16T09:32:57Z</time>
      </trkpt>
      <trkpt lat="43.93785" lon="0.59228">
        <ele>118</ele>
        <time>2022-08-16T09:33:01Z</time>
      </trkpt>
      <trkpt lat="43.93789" lon="0.59223">
        <ele>118</ele>
        <time>2022-08-16T09:33:05Z</time>
      </trkpt>
      <trkpt lat="43.93792" lon="0.59215">
        <ele>118</ele>
        <time>2022-08-16T09:33:17Z</time>
      </trkpt>
      <trkpt lat="43.93796" lon="0.5921">
        <ele>118</ele>
        <time>2022-08-16T09:33:22Z</time>
      </trkpt>
      <trkpt lat="43.93804" lon="0.59202">
        <ele>118</ele>
        <time>2022-08-16T09:33:30Z</time>
      </trkpt>
      <trkpt lat="43.93809" lon="0.59198">
        <ele>118</ele>
        <time>2022-08-16T09:33:34Z</time>
      </trkpt>
      <trkpt lat="43.93813" lon="0.59192">
        <ele>118</ele>
        <time>2022-08-16T09:33:38Z</time>
      </trkpt>
      <trkpt lat="43.93814" lon="0.59184">
        <ele>118</ele>
        <time>2022-08-16T09:33:43Z</time>
      </trkpt>
      <trkpt lat="43.93817" lon="0.5918">
        <ele>118</ele>
        <time>2022-08-16T09:33:48Z</time>
      </trkpt>
      <trkpt lat="43.93814" lon="0.59172">
        <ele>118</ele>
        <time>2022-08-16T09:33:54Z</time>
      </trkpt>
      <trkpt lat="43.93812" lon="0.59167">
        <ele>119</ele>
        <time>2022-08-16T09:33:58Z</time>
      </trkpt>
      <trkpt lat="43.93809" lon="0.59159">
        <ele>118</ele>
        <time>2022-08-16T09:34:06Z</time>
      </trkpt>
      <trkpt lat="43.93808" lon="0.59153">
        <ele>117</ele>
        <time>2022-08-16T09:34:12Z</time>
      </trkpt>
      <trkpt lat="43.93805" lon="0.59146">
        <ele>116</ele>
        <time>2022-08-16T09:34:16Z</time>
      </trkpt>
      <trkpt lat="43.93802" lon="0.59132">
        <ele>115</ele>
        <time>2022-08-16T09:34:24Z</time>
      </trkpt>
      <trkpt lat="43.93789" lon="0.59094">
        <ele>111</ele>
        <time>2022-08-16T09:34:48Z</time>
      </trkpt>
      <trkpt lat="43.93788" lon="0.59087">
        <ele>110</ele>
        <time>2022-08-16T09:34:53Z</time>
      </trkpt>
      <trkpt lat="43.93777" lon="0.59047">
        <ele>107</ele>
        <time>2022-08-16T09:35:17Z</time>
      </trkpt>
      <trkpt lat="43.93776" lon="0.59041">
        <ele>107</ele>
        <time>2022-08-16T09:35:21Z</time>
      </trkpt>
      <trkpt lat="43.93774" lon="0.59034">
        <ele>107</ele>
        <time>2022-08-16T09:35:25Z</time>
      </trkpt>
      <trkpt lat="43.93772" lon="0.59006">
        <ele>106</ele>
        <time>2022-08-16T09:35:42Z</time>
      </trkpt>
      <trkpt lat="43.93772" lon="0.58985">
        <ele>106</ele>
        <time>2022-08-16T09:35:55Z</time>
      </trkpt>
      <trkpt lat="43.93758" lon="0.58934">
        <ele>107</ele>
        <time>2022-08-16T09:36:26Z</time>
      </trkpt>
      <trkpt lat="43.9375" lon="0.58893">
        <ele>109</ele>
        <time>2022-08-16T09:36:51Z</time>
      </trkpt>
      <trkpt lat="43.93748" lon="0.58887">
        <ele>109</ele>
        <time>2022-08-16T09:36:55Z</time>
      </trkpt>
      <trkpt lat="43.93744" lon="0.58869">
        <ele>110</ele>
        <time>2022-08-16T09:37:11Z</time>
      </trkpt>
      <trkpt lat="43.93735" lon="0.58844">
        <ele>112</ele>
        <time>2022-08-16T09:37:30Z</time>
      </trkpt>
      <trkpt lat="43.93719" lon="0.58817">
        <ele>115</ele>
        <time>2022-08-16T09:37:52Z</time>
      </trkpt>
      <trkpt lat="43.93705" lon="0.58775">
        <ele>118</ele>
        <time>2022-08-16T09:38:22Z</time>
      </trkpt>
      <trkpt lat="43.93703" lon="0.58768">
        <ele>118</ele>
        <time>2022-08-16T09:38:26Z</time>
      </trkpt>
      <trkpt lat="43.93699" lon="0.58757">
        <ele>118</ele>
        <time>2022-08-16T09:38:34Z</time>
      </trkpt>
      <trkpt lat="43.93697" lon="0.58749">
        <ele>119</ele>
        <time>2022-08-16T09:38:39Z</time>
      </trkpt>
      <trkpt lat="43.937" lon="0.58744">
        <ele>119</ele>
        <time>2022-08-16T09:38:47Z</time>
      </trkpt>
      <trkpt lat="43.93703" lon="0.58738">
        <ele>120</ele>
        <time>2022-08-16T09:39:22Z</time>
      </trkpt>
      <trkpt lat="43.93705" lon="0.58729">
        <ele>121</ele>
        <time>2022-08-16T09:40:44Z</time>
      </trkpt>
      <trkpt lat="43.93699" lon="0.58719">
        <ele>122</ele>
        <time>2022-08-16T09:41:09Z</time>
      </trkpt>
      <trkpt lat="43.93694" lon="0.58698">
        <ele>124</ele>
        <time>2022-08-16T09:41:24Z</time>
      </trkpt>
      <trkpt lat="43.9368" lon="0.5865">
        <ele>126</ele>
        <time>2022-08-16T09:41:57Z</time>
      </trkpt>
      <trkpt lat="43.9367" lon="0.58597">
        <ele>128</ele>
        <time>2022-08-16T09:42:29Z</time>
      </trkpt>
      <trkpt lat="43.93668" lon="0.5859">
        <ele>128</ele>
        <time>2022-08-16T09:42:33Z</time>
      </trkpt>
      <trkpt lat="43.93666" lon="0.58585">
        <ele>129</ele>
        <time>2022-08-16T09:42:38Z</time>
      </trkpt>
      <trkpt lat="43.93661" lon="0.5856">
        <ele>129</ele>
        <time>2022-08-16T09:42:52Z</time>
      </trkpt>
      <trkpt lat="43.9366" lon="0.58546">
        <ele>130</ele>
        <time>2022-08-16T09:43:00Z</time>
      </trkpt>
      <trkpt lat="43.93661" lon="0.58533">
        <ele>130</ele>
        <time>2022-08-16T09:43:08Z</time>
      </trkpt>
      <trkpt lat="43.93662" lon="0.5852">
        <ele>130</ele>
        <time>2022-08-16T09:43:16Z</time>
      </trkpt>
      <trkpt lat="43.93662" lon="0.58507">
        <ele>131</ele>
        <time>2022-08-16T09:43:24Z</time>
      </trkpt>
      <trkpt lat="43.93655" lon="0.58467">
        <ele>132</ele>
        <time>2022-08-16T09:43:51Z</time>
      </trkpt>
      <trkpt lat="43.9365" lon="0.58467">
        <ele>132</ele>
        <time>2022-08-16T09:43:55Z</time>
      </trkpt>
      <trkpt lat="43.93645" lon="0.58468">
        <ele>132</ele>
        <time>2022-08-16T09:44:00Z</time>
      </trkpt>
      <trkpt lat="43.93641" lon="0.58467">
        <ele>132</ele>
        <time>2022-08-16T09:44:04Z</time>
      </trkpt>
      <trkpt lat="43.93626" lon="0.58471">
        <ele>132</ele>
        <time>2022-08-16T09:44:17Z</time>
      </trkpt>
      <trkpt lat="43.93607" lon="0.58475">
        <ele>134</ele>
        <time>2022-08-16T09:44:35Z</time>
      </trkpt>
      <trkpt lat="43.93573" lon="0.58478">
        <ele>138</ele>
        <time>2022-08-16T09:45:13Z</time>
      </trkpt>
      <trkpt lat="43.93557" lon="0.5848">
        <ele>141</ele>
        <time>2022-08-16T09:45:30Z</time>
      </trkpt>
      <trkpt lat="43.93553" lon="0.58482">
        <ele>141</ele>
        <time>2022-08-16T09:45:35Z</time>
      </trkpt>
      <trkpt lat="43.93549" lon="0.58486">
        <ele>142</ele>
        <time>2022-08-16T09:45:39Z</time>
      </trkpt>
      <trkpt lat="43.93533" lon="0.58484">
        <ele>144</ele>
        <time>2022-08-16T09:45:59Z</time>
      </trkpt>
      <trkpt lat="43.93528" lon="0.58485">
        <ele>145</ele>
        <time>2022-08-16T09:46:05Z</time>
      </trkpt>
      <trkpt lat="43.93516" lon="0.58521">
        <ele>150</ele>
        <time>2022-08-16T09:46:38Z</time>
      </trkpt>
      <trkpt lat="43.93513" lon="0.58533">
        <ele>150</ele>
        <time>2022-08-16T09:46:50Z</time>
      </trkpt>
      <trkpt lat="43.9351" lon="0.58539">
        <ele>151</ele>
        <time>2022-08-16T09:46:55Z</time>
      </trkpt>
      <trkpt lat="43.93504" lon="0.5856">
        <ele>153</ele>
        <time>2022-08-16T09:47:12Z</time>
      </trkpt>
      <trkpt lat="43.93499" lon="0.58566">
        <ele>154</ele>
        <time>2022-08-16T09:47:20Z</time>
      </trkpt>
      <trkpt lat="43.93497" lon="0.58559">
        <ele>155</ele>
        <time>2022-08-16T09:47:26Z</time>
      </trkpt>
      <trkpt lat="43.93496" lon="0.58552">
        <ele>155</ele>
        <time>2022-08-16T09:47:31Z</time>
      </trkpt>
      <trkpt lat="43.93492" lon="0.58544">
        <ele>155</ele>
        <time>2022-08-16T09:47:37Z</time>
      </trkpt>
      <trkpt lat="43.93487" lon="0.58518">
        <ele>155</ele>
        <time>2022-08-16T09:47:53Z</time>
      </trkpt>
      <trkpt lat="43.93486" lon="0.58504">
        <ele>155</ele>
        <time>2022-08-16T09:48:01Z</time>
      </trkpt>
      <trkpt lat="43.9347" lon="0.58451">
        <ele>156</ele>
        <time>2022-08-16T09:48:32Z</time>
      </trkpt>
      <trkpt lat="43.93466" lon="0.58439">
        <ele>156</ele>
        <time>2022-08-16T09:48:40Z</time>
      </trkpt>
      <trkpt lat="43.93461" lon="0.58426">
        <ele>156</ele>
        <time>2022-08-16T09:48:48Z</time>
      </trkpt>
      <trkpt lat="43.93456" lon="0.58407">
        <ele>156</ele>
        <time>2022-08-16T09:49:00Z</time>
      </trkpt>
      <trkpt lat="43.93455" lon="0.584">
        <ele>156</ele>
        <time>2022-08-16T09:49:04Z</time>
      </trkpt>
      <trkpt lat="43.9345" lon="0.58387">
        <ele>156</ele>
        <time>2022-08-16T09:49:12Z</time>
      </trkpt>
      <trkpt lat="43.93441" lon="0.58331">
        <ele>157</ele>
        <time>2022-08-16T09:49:44Z</time>
      </trkpt>
      <trkpt lat="43.93439" lon="0.58301">
        <ele>158</ele>
        <time>2022-08-16T09:50:02Z</time>
      </trkpt>
      <trkpt lat="43.9344" lon="0.58287">
        <ele>158</ele>
        <time>2022-08-16T09:50:10Z</time>
      </trkpt>
      <trkpt lat="43.93439" lon="0.58232">
        <ele>160</ele>
        <time>2022-08-16T09:50:42Z</time>
      </trkpt>
      <trkpt lat="43.93439" lon="0.58212">
        <ele>159</ele>
        <time>2022-08-16T09:50:54Z</time>
      </trkpt>
      <trkpt lat="43.93439" lon="0.58204">
        <ele>159</ele>
        <time>2022-08-16T09:50:58Z</time>
      </trkpt>
      <trkpt lat="43.93438" lon="0.58197">
        <ele>159</ele>
        <time>2022-08-16T09:51:02Z</time>
      </trkpt>
      <trkpt lat="43.93438" lon="0.58191">
        <ele>159</ele>
        <time>2022-08-16T09:51:05Z</time>
      </trkpt>
      <trkpt lat="43.93438" lon="0.58176">
        <ele>160</ele>
        <time>2022-08-16T09:51:13Z</time>
      </trkpt>
      <trkpt lat="43.93437" lon="0.58155">
        <ele>160</ele>
        <time>2022-08-16T09:51:25Z</time>
      </trkpt>
      <trkpt lat="43.93437" lon="0.58135">
        <ele>160</ele>
        <time>2022-08-16T09:51:51Z</time>
      </trkpt>
      <trkpt lat="43.93437" lon="0.58129">
        <ele>160</ele>
        <time>2022-08-16T09:51:56Z</time>
      </trkpt>
      <trkpt lat="43.93436" lon="0.58121">
        <ele>161</ele>
        <time>2022-08-16T09:52:00Z</time>
      </trkpt>
      <trkpt lat="43.93431" lon="0.58066">
        <ele>161</ele>
        <time>2022-08-16T09:52:31Z</time>
      </trkpt>
      <trkpt lat="43.93428" lon="0.58047">
        <ele>162</ele>
        <time>2022-08-16T09:52:43Z</time>
      </trkpt>
      <trkpt lat="43.93426" lon="0.58034">
        <ele>162</ele>
        <time>2022-08-16T09:52:50Z</time>
      </trkpt>
      <trkpt lat="43.93423" lon="0.57999">
        <ele>163</ele>
        <time>2022-08-16T09:53:10Z</time>
      </trkpt>
      <trkpt lat="43.93422" lon="0.57988">
        <ele>164</ele>
        <time>2022-08-16T09:53:27Z</time>
      </trkpt>
      <trkpt lat="43.93421" lon="0.57981">
        <ele>164</ele>
        <time>2022-08-16T09:53:31Z</time>
      </trkpt>
      <trkpt lat="43.93416" lon="0.57927">
        <ele>166</ele>
        <time>2022-08-16T09:54:03Z</time>
      </trkpt>
      <trkpt lat="43.9341" lon="0.57874">
        <ele>169</ele>
        <time>2022-08-16T09:54:35Z</time>
      </trkpt>
      <trkpt lat="43.93405" lon="0.57829">
        <ele>170</ele>
        <time>2022-08-16T09:55:07Z</time>
      </trkpt>
      <trkpt lat="43.93404" lon="0.57821">
        <ele>170</ele>
        <time>2022-08-16T09:55:11Z</time>
      </trkpt>
      <trkpt lat="43.93403" lon="0.57811">
        <ele>170</ele>
        <time>2022-08-16T09:55:54Z</time>
      </trkpt>
      <trkpt lat="43.93403" lon="0.57804">
        <ele>170</ele>
        <time>2022-08-16T09:55:58Z</time>
      </trkpt>
      <trkpt lat="43.93403" lon="0.57797">
        <ele>170</ele>
        <time>2022-08-16T09:56:02Z</time>
      </trkpt>
      <trkpt lat="43.93402" lon="0.57742">
        <ele>172</ele>
        <time>2022-08-16T09:56:35Z</time>
      </trkpt>
      <trkpt lat="43.93402" lon="0.57735">
        <ele>172</ele>
        <time>2022-08-16T09:56:39Z</time>
      </trkpt>
      <trkpt lat="43.93404" lon="0.57678">
        <ele>173</ele>
        <time>2022-08-16T09:57:10Z</time>
      </trkpt>
      <trkpt lat="43.93405" lon="0.57671">
        <ele>173</ele>
        <time>2022-08-16T09:57:14Z</time>
      </trkpt>
      <trkpt lat="43.93406" lon="0.57664">
        <ele>174</ele>
        <time>2022-08-16T09:57:18Z</time>
      </trkpt>
      <trkpt lat="43.93415" lon="0.57611">
        <ele>175</ele>
        <time>2022-08-16T09:57:49Z</time>
      </trkpt>
      <trkpt lat="43.93427" lon="0.57564">
        <ele>176</ele>
        <time>2022-08-16T09:58:22Z</time>
      </trkpt>
      <trkpt lat="43.93429" lon="0.57559">
        <ele>177</ele>
        <time>2022-08-16T09:58:25Z</time>
      </trkpt>
      <trkpt lat="43.9344" lon="0.57513">
        <ele>179</ele>
        <time>2022-08-16T09:58:53Z</time>
      </trkpt>
      <trkpt lat="43.93443" lon="0.57507">
        <ele>180</ele>
        <time>2022-08-16T09:58:57Z</time>
      </trkpt>
      <trkpt lat="43.93453" lon="0.57478">
        <ele>180</ele>
        <time>2022-08-16T09:59:16Z</time>
      </trkpt>
      <trkpt lat="43.9346" lon="0.57467">
        <ele>181</ele>
        <time>2022-08-16T09:59:25Z</time>
      </trkpt>
      <trkpt lat="43.93472" lon="0.57427">
        <ele>181</ele>
        <time>2022-08-16T09:59:49Z</time>
      </trkpt>
      <trkpt lat="43.93487" lon="0.57393">
        <ele>182</ele>
        <time>2022-08-16T10:00:12Z</time>
      </trkpt>
      <trkpt lat="43.93491" lon="0.57382">
        <ele>182</ele>
        <time>2022-08-16T10:00:23Z</time>
      </trkpt>
      <trkpt lat="43.93507" lon="0.57347">
        <ele>183</ele>
        <time>2022-08-16T10:00:53Z</time>
      </trkpt>
      <trkpt lat="43.9351" lon="0.57341">
        <ele>183</ele>
        <time>2022-08-16T10:00:57Z</time>
      </trkpt>
      <trkpt lat="43.93513" lon="0.57335">
        <ele>183</ele>
        <time>2022-08-16T10:01:01Z</time>
      </trkpt>
      <trkpt lat="43.93527" lon="0.57309">
        <ele>184</ele>
        <time>2022-08-16T10:01:20Z</time>
      </trkpt>
      <trkpt lat="43.93532" lon="0.57307">
        <ele>184</ele>
        <time>2022-08-16T10:01:26Z</time>
      </trkpt>
      <trkpt lat="43.93536" lon="0.57303">
        <ele>184</ele>
        <time>2022-08-16T10:01:30Z</time>
      </trkpt>
      <trkpt lat="43.93545" lon="0.57298">
        <ele>185</ele>
        <time>2022-08-16T10:01:38Z</time>
      </trkpt>
      <trkpt lat="43.93583" lon="0.5728">
        <ele>185</ele>
        <time>2022-08-16T10:02:09Z</time>
      </trkpt>
      <trkpt lat="43.93618" lon="0.5725">
        <ele>185</ele>
        <time>2022-08-16T10:02:41Z</time>
      </trkpt>
      <trkpt lat="43.93623" lon="0.57242">
        <ele>185</ele>
        <time>2022-08-16T10:02:50Z</time>
      </trkpt>
      <trkpt lat="43.93634" lon="0.57228">
        <ele>186</ele>
        <time>2022-08-16T10:03:02Z</time>
      </trkpt>
      <trkpt lat="43.93637" lon="0.57223">
        <ele>186</ele>
        <time>2022-08-16T10:03:07Z</time>
      </trkpt>
      <trkpt lat="43.93644" lon="0.5721">
        <ele>187</ele>
        <time>2022-08-16T10:03:19Z</time>
      </trkpt>
      <trkpt lat="43.93646" lon="0.57204">
        <ele>187</ele>
        <time>2022-08-16T10:03:23Z</time>
      </trkpt>
      <trkpt lat="43.93659" lon="0.57168">
        <ele>188</ele>
        <time>2022-08-16T10:03:48Z</time>
      </trkpt>
      <trkpt lat="43.93662" lon="0.57157">
        <ele>188</ele>
        <time>2022-08-16T10:04:00Z</time>
      </trkpt>
      <trkpt lat="43.93667" lon="0.57145">
        <ele>188</ele>
        <time>2022-08-16T10:04:08Z</time>
      </trkpt>
      <trkpt lat="43.93683" lon="0.57103">
        <ele>188</ele>
        <time>2022-08-16T10:04:37Z</time>
      </trkpt>
      <trkpt lat="43.93685" lon="0.57098">
        <ele>188</ele>
        <time>2022-08-16T10:04:41Z</time>
      </trkpt>
      <trkpt lat="43.93688" lon="0.57092">
        <ele>188</ele>
        <time>2022-08-16T10:04:45Z</time>
      </trkpt>
      <trkpt lat="43.93691" lon="0.57079">
        <ele>187</ele>
        <time>2022-08-16T10:04:53Z</time>
      </trkpt>
      <trkpt lat="43.93699" lon="0.5706">
        <ele>187</ele>
        <time>2022-08-16T10:05:05Z</time>
      </trkpt>
      <trkpt lat="43.93701" lon="0.57053">
        <ele>187</ele>
        <time>2022-08-16T10:05:09Z</time>
      </trkpt>
      <trkpt lat="43.93709" lon="0.57036">
        <ele>187</ele>
        <time>2022-08-16T10:05:21Z</time>
      </trkpt>
      <trkpt lat="43.93712" lon="0.57029">
        <ele>187</ele>
        <time>2022-08-16T10:05:25Z</time>
      </trkpt>
      <trkpt lat="43.93714" lon="0.57023">
        <ele>187</ele>
        <time>2022-08-16T10:05:29Z</time>
      </trkpt>
      <trkpt lat="43.93733" lon="0.56973">
        <ele>187</ele>
        <time>2022-08-16T10:06:00Z</time>
      </trkpt>
      <trkpt lat="43.93748" lon="0.56931">
        <ele>186</ele>
        <time>2022-08-16T10:06:27Z</time>
      </trkpt>
      <trkpt lat="43.9375" lon="0.56924">
        <ele>186</ele>
        <time>2022-08-16T10:06:31Z</time>
      </trkpt>
      <trkpt lat="43.93755" lon="0.56897">
        <ele>185</ele>
        <time>2022-08-16T10:07:10Z</time>
      </trkpt>
      <trkpt lat="43.93759" lon="0.56877">
        <ele>185</ele>
        <time>2022-08-16T10:07:23Z</time>
      </trkpt>
      <trkpt lat="43.93762" lon="0.56865">
        <ele>185</ele>
        <time>2022-08-16T10:07:31Z</time>
      </trkpt>
      <trkpt lat="43.93776" lon="0.56817">
        <ele>183</ele>
        <time>2022-08-16T10:08:03Z</time>
      </trkpt>
      <trkpt lat="43.93778" lon="0.56811">
        <ele>182</ele>
        <time>2022-08-16T10:08:07Z</time>
      </trkpt>
      <trkpt lat="43.93779" lon="0.56804">
        <ele>181</ele>
        <time>2022-08-16T10:08:11Z</time>
      </trkpt>
      <trkpt lat="43.93782" lon="0.56798">
        <ele>180</ele>
        <time>2022-08-16T10:08:15Z</time>
      </trkpt>
      <trkpt lat="43.93789" lon="0.56772">
        <ele>179</ele>
        <time>2022-08-16T10:08:31Z</time>
      </trkpt>
      <trkpt lat="43.93792" lon="0.56719">
        <ele>177</ele>
        <time>2022-08-16T10:09:03Z</time>
      </trkpt>
      <trkpt lat="43.93792" lon="0.56713">
        <ele>177</ele>
        <time>2022-08-16T10:09:07Z</time>
      </trkpt>
      <trkpt lat="43.93792" lon="0.56707">
        <ele>177</ele>
        <time>2022-08-16T10:09:11Z</time>
      </trkpt>
      <trkpt lat="43.93788" lon="0.56678">
        <ele>176</ele>
        <time>2022-08-16T10:09:29Z</time>
      </trkpt>
      <trkpt lat="43.93787" lon="0.56666">
        <ele>176</ele>
        <time>2022-08-16T10:09:50Z</time>
      </trkpt>
      <trkpt lat="43.93786" lon="0.56637">
        <ele>175</ele>
        <time>2022-08-16T10:10:08Z</time>
      </trkpt>
      <trkpt lat="43.93785" lon="0.5663">
        <ele>175</ele>
        <time>2022-08-16T10:10:12Z</time>
      </trkpt>
      <trkpt lat="43.93786" lon="0.56621">
        <ele>175</ele>
        <time>2022-08-16T10:10:19Z</time>
      </trkpt>
      <trkpt lat="43.93787" lon="0.56607">
        <ele>174</ele>
        <time>2022-08-16T10:10:28Z</time>
      </trkpt>
      <trkpt lat="43.93788" lon="0.56594">
        <ele>172</ele>
        <time>2022-08-16T10:10:37Z</time>
      </trkpt>
      <trkpt lat="43.93789" lon="0.56587">
        <ele>171</ele>
        <time>2022-08-16T10:10:47Z</time>
      </trkpt>
      <trkpt lat="43.93791" lon="0.56554">
        <ele>168</ele>
        <time>2022-08-16T10:11:13Z</time>
      </trkpt>
      <trkpt lat="43.9379" lon="0.56547">
        <ele>168</ele>
        <time>2022-08-16T10:11:17Z</time>
      </trkpt>
      <trkpt lat="43.9379" lon="0.56533">
        <ele>167</ele>
        <time>2022-08-16T10:11:25Z</time>
      </trkpt>
      <trkpt lat="43.9379" lon="0.56527">
        <ele>167</ele>
        <time>2022-08-16T10:11:29Z</time>
      </trkpt>
      <trkpt lat="43.9379" lon="0.56507">
        <ele>166</ele>
        <time>2022-08-16T10:11:41Z</time>
      </trkpt>
      <trkpt lat="43.93795" lon="0.56486">
        <ele>166</ele>
        <time>2022-08-16T10:11:53Z</time>
      </trkpt>
      <trkpt lat="43.93798" lon="0.56473">
        <ele>167</ele>
        <time>2022-08-16T10:12:02Z</time>
      </trkpt>
      <trkpt lat="43.93818" lon="0.56424">
        <ele>167</ele>
        <time>2022-08-16T10:12:35Z</time>
      </trkpt>
      <trkpt lat="43.93833" lon="0.56397">
        <ele>168</ele>
        <time>2022-08-16T10:13:09Z</time>
      </trkpt>
      <trkpt lat="43.93834" lon="0.56388">
        <ele>168</ele>
        <time>2022-08-16T10:13:37Z</time>
      </trkpt>
      <trkpt lat="43.93853" lon="0.56343">
        <ele>170</ele>
        <time>2022-08-16T10:14:11Z</time>
      </trkpt>
      <trkpt lat="43.93855" lon="0.56336">
        <ele>171</ele>
        <time>2022-08-16T10:14:15Z</time>
      </trkpt>
      <trkpt lat="43.93871" lon="0.5629">
        <ele>175</ele>
        <time>2022-08-16T10:14:47Z</time>
      </trkpt>
      <trkpt lat="43.93881" lon="0.56254">
        <ele>178</ele>
        <time>2022-08-16T10:15:11Z</time>
      </trkpt>
      <trkpt lat="43.93883" lon="0.56247">
        <ele>178</ele>
        <time>2022-08-16T10:15:15Z</time>
      </trkpt>
      <trkpt lat="43.9389" lon="0.56222">
        <ele>179</ele>
        <time>2022-08-16T10:15:30Z</time>
      </trkpt>
      <trkpt lat="43.93895" lon="0.56209">
        <ele>180</ele>
        <time>2022-08-16T10:15:39Z</time>
      </trkpt>
      <trkpt lat="43.93897" lon="0.56201">
        <ele>180</ele>
        <time>2022-08-16T10:15:44Z</time>
      </trkpt>
      <trkpt lat="43.9391" lon="0.56174">
        <ele>181</ele>
        <time>2022-08-16T10:16:01Z</time>
      </trkpt>
      <trkpt lat="43.93911" lon="0.56168">
        <ele>181</ele>
        <time>2022-08-16T10:16:05Z</time>
      </trkpt>
      <trkpt lat="43.93913" lon="0.56161">
        <ele>181</ele>
        <time>2022-08-16T10:16:09Z</time>
      </trkpt>
      <trkpt lat="43.93915" lon="0.56154">
        <ele>181</ele>
        <time>2022-08-16T10:16:13Z</time>
      </trkpt>
      <trkpt lat="43.93921" lon="0.56142">
        <ele>181</ele>
        <time>2022-08-16T10:16:21Z</time>
      </trkpt>
      <trkpt lat="43.93923" lon="0.56135">
        <ele>181</ele>
        <time>2022-08-16T10:16:25Z</time>
      </trkpt>
      <trkpt lat="43.93925" lon="0.56121">
        <ele>181</ele>
        <time>2022-08-16T10:16:33Z</time>
      </trkpt>
      <trkpt lat="43.93926" lon="0.56115">
        <ele>181</ele>
        <time>2022-08-16T10:16:37Z</time>
      </trkpt>
      <trkpt lat="43.93929" lon="0.56108">
        <ele>181</ele>
        <time>2022-08-16T10:16:41Z</time>
      </trkpt>
      <trkpt lat="43.9393" lon="0.56095">
        <ele>181</ele>
        <time>2022-08-16T10:16:49Z</time>
      </trkpt>
      <trkpt lat="43.93939" lon="0.56054">
        <ele>181</ele>
        <time>2022-08-16T10:17:13Z</time>
      </trkpt>
      <trkpt lat="43.93942" lon="0.56048">
        <ele>181</ele>
        <time>2022-08-16T10:17:17Z</time>
      </trkpt>
      <trkpt lat="43.93942" lon="0.56041">
        <ele>181</ele>
        <time>2022-08-16T10:17:21Z</time>
      </trkpt>
      <trkpt lat="43.93945" lon="0.56028">
        <ele>181</ele>
        <time>2022-08-16T10:17:29Z</time>
      </trkpt>
      <trkpt lat="43.93947" lon="0.56012">
        <ele>181</ele>
        <time>2022-08-16T10:18:01Z</time>
      </trkpt>
      <trkpt lat="43.93947" lon="0.56006">
        <ele>181</ele>
        <time>2022-08-16T10:18:05Z</time>
      </trkpt>
      <trkpt lat="43.93951" lon="0.55984">
        <ele>180</ele>
        <time>2022-08-16T10:18:18Z</time>
      </trkpt>
      <trkpt lat="43.93952" lon="0.55978">
        <ele>180</ele>
        <time>2022-08-16T10:18:22Z</time>
      </trkpt>
      <trkpt lat="43.93952" lon="0.55971">
        <ele>180</ele>
        <time>2022-08-16T10:18:26Z</time>
      </trkpt>
      <trkpt lat="43.93962" lon="0.55925">
        <ele>179</ele>
        <time>2022-08-16T10:18:53Z</time>
      </trkpt>
      <trkpt lat="43.9398" lon="0.55877">
        <ele>179</ele>
        <time>2022-08-16T10:19:26Z</time>
      </trkpt>
      <trkpt lat="43.93985" lon="0.55865">
        <ele>178</ele>
        <time>2022-08-16T10:19:34Z</time>
      </trkpt>
      <trkpt lat="43.93991" lon="0.55853">
        <ele>179</ele>
        <time>2022-08-16T10:19:42Z</time>
      </trkpt>
      <trkpt lat="43.93993" lon="0.55847">
        <ele>179</ele>
        <time>2022-08-16T10:19:46Z</time>
      </trkpt>
      <trkpt lat="43.94007" lon="0.55812">
        <ele>178</ele>
        <time>2022-08-16T10:20:10Z</time>
      </trkpt>
      <trkpt lat="43.94023" lon="0.55763">
        <ele>177</ele>
        <time>2022-08-16T10:20:42Z</time>
      </trkpt>
      <trkpt lat="43.94026" lon="0.55755">
        <ele>176</ele>
        <time>2022-08-16T10:20:48Z</time>
      </trkpt>
      <trkpt lat="43.94039" lon="0.55723">
        <ele>177</ele>
        <time>2022-08-16T10:21:08Z</time>
      </trkpt>
      <trkpt lat="43.94043" lon="0.55711">
        <ele>176</ele>
        <time>2022-08-16T10:21:17Z</time>
      </trkpt>
      <trkpt lat="43.94048" lon="0.55699">
        <ele>176</ele>
        <time>2022-08-16T10:21:25Z</time>
      </trkpt>
      <trkpt lat="43.94064" lon="0.55649">
        <ele>176</ele>
        <time>2022-08-16T10:21:57Z</time>
      </trkpt>
      <trkpt lat="43.94066" lon="0.55643">
        <ele>176</ele>
        <time>2022-08-16T10:22:01Z</time>
      </trkpt>
      <trkpt lat="43.94065" lon="0.55635">
        <ele>176</ele>
        <time>2022-08-16T10:22:15Z</time>
      </trkpt>
      <trkpt lat="43.94066" lon="0.55629">
        <ele>176</ele>
        <time>2022-08-16T10:22:19Z</time>
      </trkpt>
      <trkpt lat="43.94071" lon="0.55618">
        <ele>175</ele>
        <time>2022-08-16T10:22:28Z</time>
      </trkpt>
      <trkpt lat="43.94076" lon="0.55612">
        <ele>175</ele>
        <time>2022-08-16T10:22:46Z</time>
      </trkpt>
      <trkpt lat="43.94078" lon="0.55606">
        <ele>175</ele>
        <time>2022-08-16T10:22:51Z</time>
      </trkpt>
      <trkpt lat="43.9408" lon="0.556">
        <ele>175</ele>
        <time>2022-08-16T10:22:59Z</time>
      </trkpt>
      <trkpt lat="43.94074" lon="0.55594">
        <ele>175</ele>
        <time>2022-08-16T10:23:34Z</time>
      </trkpt>
      <trkpt lat="43.94073" lon="0.55588">
        <ele>176</ele>
        <time>2022-08-16T10:23:38Z</time>
      </trkpt>
      <trkpt lat="43.94074" lon="0.55573">
        <ele>176</ele>
        <time>2022-08-16T10:23:46Z</time>
      </trkpt>
      <trkpt lat="43.94075" lon="0.55566">
        <ele>175</ele>
        <time>2022-08-16T10:23:50Z</time>
      </trkpt>
      <trkpt lat="43.94077" lon="0.55509">
        <ele>175</ele>
        <time>2022-08-16T10:24:23Z</time>
      </trkpt>
      <trkpt lat="43.94078" lon="0.55473">
        <ele>175</ele>
        <time>2022-08-16T10:24:44Z</time>
      </trkpt>
      <trkpt lat="43.94084" lon="0.55418">
        <ele>175</ele>
        <time>2022-08-16T10:25:16Z</time>
      </trkpt>
      <trkpt lat="43.94086" lon="0.55411">
        <ele>175</ele>
        <time>2022-08-16T10:25:20Z</time>
      </trkpt>
      <trkpt lat="43.94087" lon="0.55403">
        <ele>175</ele>
        <time>2022-08-16T10:25:24Z</time>
      </trkpt>
      <trkpt lat="43.94102" lon="0.5535">
        <ele>175</ele>
        <time>2022-08-16T10:25:56Z</time>
      </trkpt>
      <trkpt lat="43.94117" lon="0.55297">
        <ele>176</ele>
        <time>2022-08-16T10:26:28Z</time>
      </trkpt>
      <trkpt lat="43.94135" lon="0.55248">
        <ele>178</ele>
        <time>2022-08-16T10:27:00Z</time>
      </trkpt>
      <trkpt lat="43.94138" lon="0.55242">
        <ele>178</ele>
        <time>2022-08-16T10:27:04Z</time>
      </trkpt>
      <trkpt lat="43.9414" lon="0.55235">
        <ele>178</ele>
        <time>2022-08-16T10:27:08Z</time>
      </trkpt>
      <trkpt lat="43.94143" lon="0.5523">
        <ele>179</ele>
        <time>2022-08-16T10:27:12Z</time>
      </trkpt>
      <trkpt lat="43.94151" lon="0.55212">
        <ele>179</ele>
        <time>2022-08-16T10:27:24Z</time>
      </trkpt>
      <trkpt lat="43.94162" lon="0.5518">
        <ele>179</ele>
        <time>2022-08-16T10:27:45Z</time>
      </trkpt>
      <trkpt lat="43.94181" lon="0.55145">
        <ele>179</ele>
        <time>2022-08-16T10:28:08Z</time>
      </trkpt>
      <trkpt lat="43.94205" lon="0.55098">
        <ele>178</ele>
        <time>2022-08-16T10:28:40Z</time>
      </trkpt>
      <trkpt lat="43.94208" lon="0.55093">
        <ele>178</ele>
        <time>2022-08-16T10:28:44Z</time>
      </trkpt>
      <trkpt lat="43.94211" lon="0.55089">
        <ele>178</ele>
        <time>2022-08-16T10:28:48Z</time>
      </trkpt>
      <trkpt lat="43.94221" lon="0.55072">
        <ele>178</ele>
        <time>2022-08-16T10:29:00Z</time>
      </trkpt>
      <trkpt lat="43.94234" lon="0.5505">
        <ele>179</ele>
        <time>2022-08-16T10:29:16Z</time>
      </trkpt>
      <trkpt lat="43.94249" lon="0.55013">
        <ele>178</ele>
        <time>2022-08-16T10:29:39Z</time>
      </trkpt>
      <trkpt lat="43.94257" lon="0.54958">
        <ele>178</ele>
        <time>2022-08-16T10:30:12Z</time>
      </trkpt>
      <trkpt lat="43.94259" lon="0.54937">
        <ele>178</ele>
        <time>2022-08-16T10:30:24Z</time>
      </trkpt>
      <trkpt lat="43.9426" lon="0.54923">
        <ele>178</ele>
        <time>2022-08-16T10:30:32Z</time>
      </trkpt>
      <trkpt lat="43.94266" lon="0.54867">
        <ele>178</ele>
        <time>2022-08-16T10:31:04Z</time>
      </trkpt>
      <trkpt lat="43.94273" lon="0.54812">
        <ele>178</ele>
        <time>2022-08-16T10:31:35Z</time>
      </trkpt>
      <trkpt lat="43.94275" lon="0.54805">
        <ele>178</ele>
        <time>2022-08-16T10:31:39Z</time>
      </trkpt>
      <trkpt lat="43.94279" lon="0.54785">
        <ele>178</ele>
        <time>2022-08-16T10:31:52Z</time>
      </trkpt>
      <trkpt lat="43.94292" lon="0.54754">
        <ele>177</ele>
        <time>2022-08-16T10:32:12Z</time>
      </trkpt>
      <trkpt lat="43.94294" lon="0.54748">
        <ele>178</ele>
        <time>2022-08-16T10:32:16Z</time>
      </trkpt>
      <trkpt lat="43.94311" lon="0.5471">
        <ele>178</ele>
        <time>2022-08-16T10:32:48Z</time>
      </trkpt>
      <trkpt lat="43.94316" lon="0.54698">
        <ele>178</ele>
        <time>2022-08-16T10:32:56Z</time>
      </trkpt>
      <trkpt lat="43.94319" lon="0.54684">
        <ele>178</ele>
        <time>2022-08-16T10:33:04Z</time>
      </trkpt>
      <trkpt lat="43.94322" lon="0.54678">
        <ele>178</ele>
        <time>2022-08-16T10:33:08Z</time>
      </trkpt>
      <trkpt lat="43.94325" lon="0.54664">
        <ele>178</ele>
        <time>2022-08-16T10:33:16Z</time>
      </trkpt>
      <trkpt lat="43.94328" lon="0.54657">
        <ele>177</ele>
        <time>2022-08-16T10:33:21Z</time>
      </trkpt>
      <trkpt lat="43.94334" lon="0.54618">
        <ele>177</ele>
        <time>2022-08-16T10:33:45Z</time>
      </trkpt>
      <trkpt lat="43.94336" lon="0.54563">
        <ele>175</ele>
        <time>2022-08-16T10:34:17Z</time>
      </trkpt>
      <trkpt lat="43.94338" lon="0.5454">
        <ele>175</ele>
        <time>2022-08-16T10:34:29Z</time>
      </trkpt>
      <trkpt lat="43.94338" lon="0.54533">
        <ele>175</ele>
        <time>2022-08-16T10:34:32Z</time>
      </trkpt>
      <trkpt lat="43.94339" lon="0.54526">
        <ele>175</ele>
        <time>2022-08-16T10:34:37Z</time>
      </trkpt>
      <trkpt lat="43.94337" lon="0.54505">
        <ele>175</ele>
        <time>2022-08-16T10:34:47Z</time>
      </trkpt>
      <trkpt lat="43.94339" lon="0.54477">
        <ele>175</ele>
        <time>2022-08-16T10:35:02Z</time>
      </trkpt>
      <trkpt lat="43.94339" lon="0.54463">
        <ele>174</ele>
        <time>2022-08-16T10:35:11Z</time>
      </trkpt>
      <trkpt lat="43.94339" lon="0.54456">
        <ele>174</ele>
        <time>2022-08-16T10:35:19Z</time>
      </trkpt>
      <trkpt lat="43.94337" lon="0.54448">
        <ele>174</ele>
        <time>2022-08-16T10:35:30Z</time>
      </trkpt>
      <trkpt lat="43.94338" lon="0.54441">
        <ele>174</ele>
        <time>2022-08-16T10:35:35Z</time>
      </trkpt>
      <trkpt lat="43.94338" lon="0.54396">
        <ele>173</ele>
        <time>2022-08-16T10:36:03Z</time>
      </trkpt>
      <trkpt lat="43.94342" lon="0.54387">
        <ele>173</ele>
        <time>2022-08-16T10:36:22Z</time>
      </trkpt>
      <trkpt lat="43.94344" lon="0.54366">
        <ele>173</ele>
        <time>2022-08-16T10:36:35Z</time>
      </trkpt>
      <trkpt lat="43.9434" lon="0.54311">
        <ele>174</ele>
        <time>2022-08-16T10:37:07Z</time>
      </trkpt>
      <trkpt lat="43.94335" lon="0.54269">
        <ele>174</ele>
        <time>2022-08-16T10:37:32Z</time>
      </trkpt>
      <trkpt lat="43.94334" lon="0.54262">
        <ele>174</ele>
        <time>2022-08-16T10:37:35Z</time>
      </trkpt>
      <trkpt lat="43.94332" lon="0.54248">
        <ele>174</ele>
        <time>2022-08-16T10:37:43Z</time>
      </trkpt>
      <trkpt lat="43.9433" lon="0.54242">
        <ele>174</ele>
        <time>2022-08-16T10:37:47Z</time>
      </trkpt>
      <trkpt lat="43.94327" lon="0.54236">
        <ele>174</ele>
        <time>2022-08-16T10:37:51Z</time>
      </trkpt>
      <trkpt lat="43.94325" lon="0.54229">
        <ele>174</ele>
        <time>2022-08-16T10:37:55Z</time>
      </trkpt>
      <trkpt lat="43.94323" lon="0.54208">
        <ele>174</ele>
        <time>2022-08-16T10:38:07Z</time>
      </trkpt>
      <trkpt lat="43.9432" lon="0.54202">
        <ele>174</ele>
        <time>2022-08-16T10:38:11Z</time>
      </trkpt>
      <trkpt lat="43.94312" lon="0.54145">
        <ele>173</ele>
        <time>2022-08-16T10:38:43Z</time>
      </trkpt>
      <trkpt lat="43.9431" lon="0.5412">
        <ele>172</ele>
        <time>2022-08-16T10:38:57Z</time>
      </trkpt>
      <trkpt lat="43.94309" lon="0.54113">
        <ele>172</ele>
        <time>2022-08-16T10:39:01Z</time>
      </trkpt>
      <trkpt lat="43.94309" lon="0.54105">
        <ele>172</ele>
        <time>2022-08-16T10:39:06Z</time>
      </trkpt>
      <trkpt lat="43.94315" lon="0.54084">
        <ele>171</ele>
        <time>2022-08-16T10:39:19Z</time>
      </trkpt>
      <trkpt lat="43.94327" lon="0.54054">
        <ele>171</ele>
        <time>2022-08-16T10:39:42Z</time>
      </trkpt>
      <trkpt lat="43.94325" lon="0.54047">
        <ele>171</ele>
        <time>2022-08-16T10:39:47Z</time>
      </trkpt>
      <trkpt lat="43.94314" lon="0.54044">
        <ele>171</ele>
        <time>2022-08-16T10:40:00Z</time>
      </trkpt>
      <trkpt lat="43.94311" lon="0.54037">
        <ele>170</ele>
        <time>2022-08-16T10:40:06Z</time>
      </trkpt>
      <trkpt lat="43.9431" lon="0.54036">
        <ele>169</ele>
        <time>2022-08-16T10:41:48Z</time>
      </trkpt>
      <trkpt lat="43.94305" lon="0.54045">
        <ele>167</ele>
        <time>2022-08-16T10:42:02Z</time>
      </trkpt>
      <trkpt lat="43.94298" lon="0.54042">
        <ele>166</ele>
        <time>2022-08-16T10:42:08Z</time>
      </trkpt>
      <trkpt lat="43.94291" lon="0.54032">
        <ele>165</ele>
        <time>2022-08-16T10:42:18Z</time>
      </trkpt>
      <trkpt lat="43.94285" lon="0.54012">
        <ele>164</ele>
        <time>2022-08-16T10:42:36Z</time>
      </trkpt>
      <trkpt lat="43.94284" lon="0.53996">
        <ele>163</ele>
        <time>2022-08-16T10:42:51Z</time>
      </trkpt>
      <trkpt lat="43.94276" lon="0.54009">
        <ele>163</ele>
        <time>2022-08-16T10:48:13Z</time>
      </trkpt>
      <trkpt lat="43.9428" lon="0.54001">
        <ele>162</ele>
        <time>2022-08-16T10:49:45Z</time>
      </trkpt>
      <trkpt lat="43.9428" lon="0.54002">
        <ele>163</ele>
        <time>2022-08-16T10:51:56Z</time>
      </trkpt>
      <trkpt lat="43.94283" lon="0.53995">
        <ele>163</ele>
        <time>2022-08-16T10:52:09Z</time>
      </trkpt>
      <trkpt lat="43.94288" lon="0.53992">
        <ele>163</ele>
        <time>2022-08-16T10:58:55Z</time>
      </trkpt>
      <trkpt lat="43.94287" lon="0.53999">
        <ele>163</ele>
        <time>2022-08-16T10:58:58Z</time>
      </trkpt>
      <trkpt lat="43.94283" lon="0.54">
        <ele>163</ele>
        <time>2022-08-16T11:05:09Z</time>
      </trkpt>
      <trkpt lat="43.94285" lon="0.54006">
        <ele>162</ele>
        <time>2022-08-16T11:09:32Z</time>
      </trkpt>
      <trkpt lat="43.9428" lon="0.54007">
        <ele>162</ele>
        <time>2022-08-16T11:11:10Z</time>
      </trkpt>
      <trkpt lat="43.94281" lon="0.54006">
        <ele>162</ele>
        <time>2022-08-16T11:13:32Z</time>
      </trkpt>
      <trkpt lat="43.94283" lon="0.53999">
        <ele>162</ele>
        <time>2022-08-16T11:15:54Z</time>
      </trkpt>
      <trkpt lat="43.94289" lon="0.53999">
        <ele>162</ele>
        <time>2022-08-16T11:17:41Z</time>
      </trkpt>
      <trkpt lat="43.94282" lon="0.54008">
        <ele>163</ele>
        <time>2022-08-16T11:25:24Z</time>
      </trkpt>
      <trkpt lat="43.94284" lon="0.53996">
        <ele>163</ele>
        <time>2022-08-16T11:26:35Z</time>
      </trkpt>
      <trkpt lat="43.9428" lon="0.53997">
        <ele>163</ele>
        <time>2022-08-16T11:29:04Z</time>
      </trkpt>
      <trkpt lat="43.94282" lon="0.53987">
        <ele>163</ele>
        <time>2022-08-16T11:29:36Z</time>
      </trkpt>
      <trkpt lat="43.94279" lon="0.5397">
        <ele>162</ele>
        <time>2022-08-16T11:29:47Z</time>
      </trkpt>
      <trkpt lat="43.94278" lon="0.53961">
        <ele>162</ele>
        <time>2022-08-16T11:29:58Z</time>
      </trkpt>
      <trkpt lat="43.94273" lon="0.53947">
        <ele>160</ele>
        <time>2022-08-16T11:32:11Z</time>
      </trkpt>
      <trkpt lat="43.94271" lon="0.53939">
        <ele>160</ele>
        <time>2022-08-16T11:32:17Z</time>
      </trkpt>
      <trkpt lat="43.94272" lon="0.53931">
        <ele>160</ele>
        <time>2022-08-16T11:32:22Z</time>
      </trkpt>
      <trkpt lat="43.94271" lon="0.53924">
        <ele>159</ele>
        <time>2022-08-16T11:32:27Z</time>
      </trkpt>
      <trkpt lat="43.94262" lon="0.53901">
        <ele>157</ele>
        <time>2022-08-16T11:32:45Z</time>
      </trkpt>
      <trkpt lat="43.94255" lon="0.53889">
        <ele>155</ele>
        <time>2022-08-16T11:32:54Z</time>
      </trkpt>
      <trkpt lat="43.94246" lon="0.53865">
        <ele>152</ele>
        <time>2022-08-16T11:33:10Z</time>
      </trkpt>
      <trkpt lat="43.94242" lon="0.5386">
        <ele>151</ele>
        <time>2022-08-16T11:33:13Z</time>
      </trkpt>
      <trkpt lat="43.94233" lon="0.53837">
        <ele>149</ele>
        <time>2022-08-16T11:33:28Z</time>
      </trkpt>
      <trkpt lat="43.94232" lon="0.53829">
        <ele>148</ele>
        <time>2022-08-16T11:33:32Z</time>
      </trkpt>
      <trkpt lat="43.94227" lon="0.53817">
        <ele>146</ele>
        <time>2022-08-16T11:33:39Z</time>
      </trkpt>
      <trkpt lat="43.94225" lon="0.5381">
        <ele>146</ele>
        <time>2022-08-16T11:33:44Z</time>
      </trkpt>
      <trkpt lat="43.94228" lon="0.53784">
        <ele>144</ele>
        <time>2022-08-16T11:34:13Z</time>
      </trkpt>
      <trkpt lat="43.94227" lon="0.5377">
        <ele>143</ele>
        <time>2022-08-16T11:34:21Z</time>
      </trkpt>
      <trkpt lat="43.94225" lon="0.53763">
        <ele>142</ele>
        <time>2022-08-16T11:34:25Z</time>
      </trkpt>
      <trkpt lat="43.94227" lon="0.53748">
        <ele>141</ele>
        <time>2022-08-16T11:34:33Z</time>
      </trkpt>
      <trkpt lat="43.94229" lon="0.53741">
        <ele>140</ele>
        <time>2022-08-16T11:34:38Z</time>
      </trkpt>
      <trkpt lat="43.94236" lon="0.5373">
        <ele>139</ele>
        <time>2022-08-16T11:34:46Z</time>
      </trkpt>
      <trkpt lat="43.94266" lon="0.537">
        <ele>136</ele>
        <time>2022-08-16T11:35:18Z</time>
      </trkpt>
      <trkpt lat="43.94282" lon="0.53683">
        <ele>136</ele>
        <time>2022-08-16T11:35:34Z</time>
      </trkpt>
      <trkpt lat="43.94314" lon="0.5366">
        <ele>133</ele>
        <time>2022-08-16T11:36:02Z</time>
      </trkpt>
      <trkpt lat="43.94322" lon="0.53651">
        <ele>133</ele>
        <time>2022-08-16T11:36:10Z</time>
      </trkpt>
      <trkpt lat="43.94333" lon="0.53644">
        <ele>131</ele>
        <time>2022-08-16T11:36:18Z</time>
      </trkpt>
      <trkpt lat="43.94343" lon="0.53636">
        <ele>129</ele>
        <time>2022-08-16T11:36:27Z</time>
      </trkpt>
      <trkpt lat="43.94345" lon="0.5363">
        <ele>128</ele>
        <time>2022-08-16T11:36:32Z</time>
      </trkpt>
      <trkpt lat="43.94349" lon="0.53624">
        <ele>126</ele>
        <time>2022-08-16T11:36:37Z</time>
      </trkpt>
      <trkpt lat="43.94353" lon="0.5362">
        <ele>125</ele>
        <time>2022-08-16T11:36:41Z</time>
      </trkpt>
      <trkpt lat="43.94357" lon="0.53619">
        <ele>124</ele>
        <time>2022-08-16T11:36:45Z</time>
      </trkpt>
      <trkpt lat="43.94362" lon="0.5362">
        <ele>123</ele>
        <time>2022-08-16T11:36:49Z</time>
      </trkpt>
      <trkpt lat="43.94365" lon="0.53614">
        <ele>122</ele>
        <time>2022-08-16T11:36:54Z</time>
      </trkpt>
      <trkpt lat="43.94365" lon="0.53607">
        <ele>121</ele>
        <time>2022-08-16T11:36:58Z</time>
      </trkpt>
      <trkpt lat="43.9436" lon="0.53594">
        <ele>120</ele>
        <time>2022-08-16T11:37:08Z</time>
      </trkpt>
      <trkpt lat="43.94357" lon="0.53587">
        <ele>119</ele>
        <time>2022-08-16T11:37:12Z</time>
      </trkpt>
      <trkpt lat="43.94354" lon="0.53576">
        <ele>118</ele>
        <time>2022-08-16T11:37:20Z</time>
      </trkpt>
      <trkpt lat="43.94351" lon="0.5357">
        <ele>117</ele>
        <time>2022-08-16T11:37:24Z</time>
      </trkpt>
      <trkpt lat="43.94341" lon="0.53541">
        <ele>114</ele>
        <time>2022-08-16T11:37:43Z</time>
      </trkpt>
      <trkpt lat="43.94339" lon="0.53535">
        <ele>114</ele>
        <time>2022-08-16T11:37:47Z</time>
      </trkpt>
      <trkpt lat="43.94336" lon="0.53523">
        <ele>112</ele>
        <time>2022-08-16T11:37:55Z</time>
      </trkpt>
      <trkpt lat="43.94317" lon="0.53481">
        <ele>107</ele>
        <time>2022-08-16T11:38:22Z</time>
      </trkpt>
      <trkpt lat="43.94304" lon="0.53442">
        <ele>105</ele>
        <time>2022-08-16T11:38:45Z</time>
      </trkpt>
      <trkpt lat="43.94299" lon="0.5343">
        <ele>105</ele>
        <time>2022-08-16T11:38:52Z</time>
      </trkpt>
      <trkpt lat="43.94297" lon="0.53423">
        <ele>105</ele>
        <time>2022-08-16T11:38:57Z</time>
      </trkpt>
      <trkpt lat="43.94295" lon="0.5341">
        <ele>105</ele>
        <time>2022-08-16T11:39:05Z</time>
      </trkpt>
      <trkpt lat="43.94288" lon="0.53391">
        <ele>104</ele>
        <time>2022-08-16T11:39:17Z</time>
      </trkpt>
      <trkpt lat="43.94271" lon="0.53339">
        <ele>105</ele>
        <time>2022-08-16T11:39:49Z</time>
      </trkpt>
      <trkpt lat="43.94259" lon="0.53289">
        <ele>106</ele>
        <time>2022-08-16T11:40:16Z</time>
      </trkpt>
      <trkpt lat="43.94245" lon="0.53253">
        <ele>109</ele>
        <time>2022-08-16T11:40:40Z</time>
      </trkpt>
      <trkpt lat="43.9424" lon="0.53242">
        <ele>110</ele>
        <time>2022-08-16T11:40:48Z</time>
      </trkpt>
      <trkpt lat="43.94238" lon="0.53236">
        <ele>110</ele>
        <time>2022-08-16T11:40:52Z</time>
      </trkpt>
      <trkpt lat="43.9422" lon="0.53189">
        <ele>111</ele>
        <time>2022-08-16T11:41:23Z</time>
      </trkpt>
      <trkpt lat="43.94215" lon="0.53176">
        <ele>111</ele>
        <time>2022-08-16T11:41:31Z</time>
      </trkpt>
      <trkpt lat="43.94213" lon="0.5317">
        <ele>111</ele>
        <time>2022-08-16T11:41:35Z</time>
      </trkpt>
      <trkpt lat="43.94209" lon="0.53166">
        <ele>111</ele>
        <time>2022-08-16T11:41:40Z</time>
      </trkpt>
      <trkpt lat="43.94204" lon="0.53166">
        <ele>111</ele>
        <time>2022-08-16T11:41:44Z</time>
      </trkpt>
      <trkpt lat="43.94194" lon="0.53168">
        <ele>111</ele>
        <time>2022-08-16T11:41:52Z</time>
      </trkpt>
      <trkpt lat="43.94189" lon="0.53167">
        <ele>111</ele>
        <time>2022-08-16T11:41:56Z</time>
      </trkpt>
      <trkpt lat="43.94185" lon="0.53165">
        <ele>111</ele>
        <time>2022-08-16T11:42:00Z</time>
      </trkpt>
      <trkpt lat="43.94182" lon="0.5316">
        <ele>111</ele>
        <time>2022-08-16T11:42:05Z</time>
      </trkpt>
      <trkpt lat="43.94178" lon="0.53149">
        <ele>111</ele>
        <time>2022-08-16T11:42:12Z</time>
      </trkpt>
      <trkpt lat="43.94166" lon="0.53111">
        <ele>112</ele>
        <time>2022-08-16T11:42:42Z</time>
      </trkpt>
      <trkpt lat="43.94165" lon="0.53105">
        <ele>112</ele>
        <time>2022-08-16T11:42:46Z</time>
      </trkpt>
      <trkpt lat="43.94161" lon="0.53092">
        <ele>112</ele>
        <time>2022-08-16T11:42:54Z</time>
      </trkpt>
      <trkpt lat="43.94148" lon="0.53042">
        <ele>113</ele>
        <time>2022-08-16T11:43:26Z</time>
      </trkpt>
      <trkpt lat="43.94147" lon="0.53035">
        <ele>113</ele>
        <time>2022-08-16T11:43:31Z</time>
      </trkpt>
      <trkpt lat="43.94138" lon="0.53004">
        <ele>114</ele>
        <time>2022-08-16T11:43:52Z</time>
      </trkpt>
      <trkpt lat="43.94137" lon="0.52998">
        <ele>114</ele>
        <time>2022-08-16T11:43:56Z</time>
      </trkpt>
      <trkpt lat="43.94137" lon="0.52991">
        <ele>114</ele>
        <time>2022-08-16T11:44:01Z</time>
      </trkpt>
      <trkpt lat="43.94136" lon="0.52985">
        <ele>114</ele>
        <time>2022-08-16T11:44:06Z</time>
      </trkpt>
      <trkpt lat="43.94136" lon="0.52978">
        <ele>114</ele>
        <time>2022-08-16T11:44:10Z</time>
      </trkpt>
      <trkpt lat="43.94134" lon="0.52972">
        <ele>114</ele>
        <time>2022-08-16T11:44:14Z</time>
      </trkpt>
      <trkpt lat="43.9413" lon="0.52966">
        <ele>114</ele>
        <time>2022-08-16T11:44:22Z</time>
      </trkpt>
      <trkpt lat="43.94125" lon="0.52947">
        <ele>115</ele>
        <time>2022-08-16T11:44:35Z</time>
      </trkpt>
      <trkpt lat="43.94124" lon="0.52926">
        <ele>116</ele>
        <time>2022-08-16T11:44:46Z</time>
      </trkpt>
      <trkpt lat="43.94126" lon="0.52913">
        <ele>116</ele>
        <time>2022-08-16T11:44:54Z</time>
      </trkpt>
      <trkpt lat="43.94133" lon="0.52904">
        <ele>116</ele>
        <time>2022-08-16T11:45:02Z</time>
      </trkpt>
      <trkpt lat="43.94139" lon="0.52894">
        <ele>117</ele>
        <time>2022-08-16T11:45:11Z</time>
      </trkpt>
      <trkpt lat="43.9414" lon="0.52887">
        <ele>118</ele>
        <time>2022-08-16T11:45:16Z</time>
      </trkpt>
      <trkpt lat="43.94135" lon="0.52857">
        <ele>120</ele>
        <time>2022-08-16T11:45:50Z</time>
      </trkpt>
      <trkpt lat="43.94128" lon="0.52818">
        <ele>122</ele>
        <time>2022-08-16T11:46:15Z</time>
      </trkpt>
      <trkpt lat="43.94125" lon="0.52813">
        <ele>122</ele>
        <time>2022-08-16T11:46:19Z</time>
      </trkpt>
      <trkpt lat="43.94118" lon="0.52805">
        <ele>123</ele>
        <time>2022-08-16T11:46:27Z</time>
      </trkpt>
      <trkpt lat="43.94108" lon="0.52793">
        <ele>126</ele>
        <time>2022-08-16T11:46:48Z</time>
      </trkpt>
      <trkpt lat="43.94107" lon="0.52786">
        <ele>127</ele>
        <time>2022-08-16T11:46:53Z</time>
      </trkpt>
      <trkpt lat="43.94102" lon="0.52774">
        <ele>127</ele>
        <time>2022-08-16T11:47:01Z</time>
      </trkpt>
      <trkpt lat="43.94084" lon="0.5273">
        <ele>127</ele>
        <time>2022-08-16T11:47:33Z</time>
      </trkpt>
      <trkpt lat="43.94073" lon="0.52692">
        <ele>127</ele>
        <time>2022-08-16T11:47:58Z</time>
      </trkpt>
      <trkpt lat="43.94067" lon="0.52642">
        <ele>129</ele>
        <time>2022-08-16T11:48:29Z</time>
      </trkpt>
      <trkpt lat="43.94066" lon="0.52636">
        <ele>129</ele>
        <time>2022-08-16T11:48:33Z</time>
      </trkpt>
      <trkpt lat="43.94064" lon="0.52618">
        <ele>130</ele>
        <time>2022-08-16T11:48:46Z</time>
      </trkpt>
      <trkpt lat="43.94054" lon="0.52591">
        <ele>132</ele>
        <time>2022-08-16T11:49:05Z</time>
      </trkpt>
      <trkpt lat="43.94042" lon="0.5257">
        <ele>133</ele>
        <time>2022-08-16T11:49:23Z</time>
      </trkpt>
      <trkpt lat="43.94024" lon="0.52527">
        <ele>135</ele>
        <time>2022-08-16T11:49:54Z</time>
      </trkpt>
      <trkpt lat="43.94011" lon="0.52492">
        <ele>137</ele>
        <time>2022-08-16T11:50:21Z</time>
      </trkpt>
      <trkpt lat="43.93998" lon="0.52439">
        <ele>139</ele>
        <time>2022-08-16T11:50:57Z</time>
      </trkpt>
      <trkpt lat="43.93992" lon="0.52389">
        <ele>141</ele>
        <time>2022-08-16T11:51:29Z</time>
      </trkpt>
      <trkpt lat="43.93995" lon="0.52334">
        <ele>143</ele>
        <time>2022-08-16T11:52:02Z</time>
      </trkpt>
      <trkpt lat="43.93996" lon="0.5232">
        <ele>144</ele>
        <time>2022-08-16T11:52:10Z</time>
      </trkpt>
      <trkpt lat="43.94001" lon="0.52288">
        <ele>146</ele>
        <time>2022-08-16T11:52:35Z</time>
      </trkpt>
      <trkpt lat="43.94002" lon="0.52277">
        <ele>146</ele>
        <time>2022-08-16T11:52:49Z</time>
      </trkpt>
      <trkpt lat="43.94008" lon="0.52249">
        <ele>148</ele>
        <time>2022-08-16T11:53:09Z</time>
      </trkpt>
      <trkpt lat="43.9401" lon="0.5223">
        <ele>148</ele>
        <time>2022-08-16T11:53:29Z</time>
      </trkpt>
      <trkpt lat="43.94016" lon="0.5218">
        <ele>152</ele>
        <time>2022-08-16T11:54:04Z</time>
      </trkpt>
      <trkpt lat="43.94016" lon="0.52167">
        <ele>152</ele>
        <time>2022-08-16T11:54:12Z</time>
      </trkpt>
      <trkpt lat="43.94017" lon="0.52157">
        <ele>153</ele>
        <time>2022-08-16T11:54:24Z</time>
      </trkpt>
      <trkpt lat="43.94016" lon="0.52151">
        <ele>153</ele>
        <time>2022-08-16T11:54:28Z</time>
      </trkpt>
      <trkpt lat="43.94019" lon="0.52107">
        <ele>156</ele>
        <time>2022-08-16T11:54:58Z</time>
      </trkpt>
      <trkpt lat="43.94018" lon="0.52099">
        <ele>156</ele>
        <time>2022-08-16T11:55:04Z</time>
      </trkpt>
      <trkpt lat="43.94014" lon="0.52093">
        <ele>156</ele>
        <time>2022-08-16T11:55:14Z</time>
      </trkpt>
      <trkpt lat="43.94011" lon="0.52088">
        <ele>156</ele>
        <time>2022-08-16T11:55:18Z</time>
      </trkpt>
      <trkpt lat="43.93993" lon="0.5207">
        <ele>158</ele>
        <time>2022-08-16T11:55:51Z</time>
      </trkpt>
      <trkpt lat="43.93969" lon="0.52045">
        <ele>161</ele>
        <time>2022-08-16T11:56:23Z</time>
      </trkpt>
      <trkpt lat="43.93964" lon="0.5204">
        <ele>162</ele>
        <time>2022-08-16T11:56:28Z</time>
      </trkpt>
      <trkpt lat="43.93955" lon="0.52033">
        <ele>164</ele>
        <time>2022-08-16T11:56:51Z</time>
      </trkpt>
      <trkpt lat="43.93951" lon="0.52027">
        <ele>164</ele>
        <time>2022-08-16T11:58:05Z</time>
      </trkpt>
      <trkpt lat="43.93921" lon="0.51996">
        <ele>169</ele>
        <time>2022-08-16T11:58:44Z</time>
      </trkpt>
      <trkpt lat="43.93899" lon="0.51973">
        <ele>173</ele>
        <time>2022-08-16T11:59:32Z</time>
      </trkpt>
      <trkpt lat="43.93881" lon="0.51954">
        <ele>177</ele>
        <time>2022-08-16T12:00:05Z</time>
      </trkpt>
      <trkpt lat="43.93851" lon="0.5193">
        <ele>182</ele>
        <time>2022-08-16T12:00:37Z</time>
      </trkpt>
      <trkpt lat="43.93847" lon="0.51926">
        <ele>182</ele>
        <time>2022-08-16T12:00:42Z</time>
      </trkpt>
      <trkpt lat="43.93841" lon="0.51921">
        <ele>184</ele>
        <time>2022-08-16T12:00:58Z</time>
      </trkpt>
      <trkpt lat="43.93837" lon="0.51918">
        <ele>183</ele>
        <time>2022-08-16T12:01:02Z</time>
      </trkpt>
      <trkpt lat="43.93834" lon="0.51914">
        <ele>183</ele>
        <time>2022-08-16T12:01:06Z</time>
      </trkpt>
      <trkpt lat="43.9382" lon="0.51904">
        <ele>185</ele>
        <time>2022-08-16T12:01:19Z</time>
      </trkpt>
      <trkpt lat="43.93813" lon="0.51895">
        <ele>185</ele>
        <time>2022-08-16T12:01:27Z</time>
      </trkpt>
      <trkpt lat="43.93804" lon="0.51886">
        <ele>184</ele>
        <time>2022-08-16T12:01:36Z</time>
      </trkpt>
      <trkpt lat="43.93799" lon="0.51873">
        <ele>183</ele>
        <time>2022-08-16T12:01:45Z</time>
      </trkpt>
      <trkpt lat="43.93799" lon="0.51866">
        <ele>183</ele>
        <time>2022-08-16T12:01:49Z</time>
      </trkpt>
      <trkpt lat="43.93797" lon="0.51859">
        <ele>183</ele>
        <time>2022-08-16T12:01:54Z</time>
      </trkpt>
      <trkpt lat="43.93798" lon="0.51846">
        <ele>183</ele>
        <time>2022-08-16T12:02:01Z</time>
      </trkpt>
      <trkpt lat="43.93799" lon="0.51831">
        <ele>184</ele>
        <time>2022-08-16T12:02:10Z</time>
      </trkpt>
      <trkpt lat="43.938" lon="0.51824">
        <ele>184</ele>
        <time>2022-08-16T12:02:13Z</time>
      </trkpt>
      <trkpt lat="43.93806" lon="0.51769">
        <ele>187</ele>
        <time>2022-08-16T12:02:45Z</time>
      </trkpt>
      <trkpt lat="43.93812" lon="0.51714">
        <ele>189</ele>
        <time>2022-08-16T12:03:17Z</time>
      </trkpt>
      <trkpt lat="43.93814" lon="0.51708">
        <ele>189</ele>
        <time>2022-08-16T12:03:21Z</time>
      </trkpt>
      <trkpt lat="43.93815" lon="0.51693">
        <ele>189</ele>
        <time>2022-08-16T12:03:29Z</time>
      </trkpt>
      <trkpt lat="43.93824" lon="0.51633">
        <ele>190</ele>
        <time>2022-08-16T12:04:13Z</time>
      </trkpt>
      <trkpt lat="43.93826" lon="0.51612">
        <ele>190</ele>
        <time>2022-08-16T12:04:25Z</time>
      </trkpt>
      <trkpt lat="43.93826" lon="0.51605">
        <ele>190</ele>
        <time>2022-08-16T12:04:29Z</time>
      </trkpt>
      <trkpt lat="43.93826" lon="0.51598">
        <ele>191</ele>
        <time>2022-08-16T12:04:33Z</time>
      </trkpt>
      <trkpt lat="43.93831" lon="0.51545">
        <ele>192</ele>
        <time>2022-08-16T12:05:05Z</time>
      </trkpt>
      <trkpt lat="43.93831" lon="0.51537">
        <ele>193</ele>
        <time>2022-08-16T12:05:09Z</time>
      </trkpt>
      <trkpt lat="43.93831" lon="0.51523">
        <ele>194</ele>
        <time>2022-08-16T12:05:18Z</time>
      </trkpt>
      <trkpt lat="43.93828" lon="0.51503">
        <ele>195</ele>
        <time>2022-08-16T12:05:42Z</time>
      </trkpt>
      <trkpt lat="43.93826" lon="0.51479">
        <ele>196</ele>
        <time>2022-08-16T12:05:57Z</time>
      </trkpt>
      <trkpt lat="43.93825" lon="0.51466">
        <ele>197</ele>
        <time>2022-08-16T12:06:05Z</time>
      </trkpt>
      <trkpt lat="43.93824" lon="0.51459">
        <ele>197</ele>
        <time>2022-08-16T12:06:09Z</time>
      </trkpt>
      <trkpt lat="43.93824" lon="0.51444">
        <ele>197</ele>
        <time>2022-08-16T12:06:17Z</time>
      </trkpt>
      <trkpt lat="43.93824" lon="0.51404">
        <ele>197</ele>
        <time>2022-08-16T12:06:41Z</time>
      </trkpt>
      <trkpt lat="43.93834" lon="0.51371">
        <ele>197</ele>
        <time>2022-08-16T12:07:00Z</time>
      </trkpt>
      <trkpt lat="43.93839" lon="0.51359">
        <ele>197</ele>
        <time>2022-08-16T12:07:08Z</time>
      </trkpt>
      <trkpt lat="43.93851" lon="0.51337">
        <ele>197</ele>
        <time>2022-08-16T12:07:24Z</time>
      </trkpt>
      <trkpt lat="43.93875" lon="0.51302">
        <ele>197</ele>
        <time>2022-08-16T12:07:53Z</time>
      </trkpt>
      <trkpt lat="43.93877" lon="0.51296">
        <ele>197</ele>
        <time>2022-08-16T12:07:57Z</time>
      </trkpt>
      <trkpt lat="43.93878" lon="0.51289">
        <ele>197</ele>
        <time>2022-08-16T12:08:17Z</time>
      </trkpt>
      <trkpt lat="43.93881" lon="0.51285">
        <ele>197</ele>
        <time>2022-08-16T12:08:21Z</time>
      </trkpt>
      <trkpt lat="43.93885" lon="0.5128">
        <ele>196</ele>
        <time>2022-08-16T12:08:25Z</time>
      </trkpt>
      <trkpt lat="43.93889" lon="0.51275">
        <ele>197</ele>
        <time>2022-08-16T12:08:30Z</time>
      </trkpt>
      <trkpt lat="43.93892" lon="0.5127">
        <ele>197</ele>
        <time>2022-08-16T12:08:34Z</time>
      </trkpt>
      <trkpt lat="43.93897" lon="0.5126">
        <ele>196</ele>
        <time>2022-08-16T12:08:42Z</time>
      </trkpt>
      <trkpt lat="43.939" lon="0.51254">
        <ele>196</ele>
        <time>2022-08-16T12:08:46Z</time>
      </trkpt>
      <trkpt lat="43.93915" lon="0.51217">
        <ele>194</ele>
        <time>2022-08-16T12:09:10Z</time>
      </trkpt>
      <trkpt lat="43.93922" lon="0.512">
        <ele>194</ele>
        <time>2022-08-16T12:09:21Z</time>
      </trkpt>
      <trkpt lat="43.93928" lon="0.51188">
        <ele>194</ele>
        <time>2022-08-16T12:09:29Z</time>
      </trkpt>
      <trkpt lat="43.9393" lon="0.51181">
        <ele>194</ele>
        <time>2022-08-16T12:09:33Z</time>
      </trkpt>
      <trkpt lat="43.93933" lon="0.51176">
        <ele>193</ele>
        <time>2022-08-16T12:09:37Z</time>
      </trkpt>
      <trkpt lat="43.93936" lon="0.51169">
        <ele>193</ele>
        <time>2022-08-16T12:09:41Z</time>
      </trkpt>
      <trkpt lat="43.93938" lon="0.51164">
        <ele>193</ele>
        <time>2022-08-16T12:09:45Z</time>
      </trkpt>
      <trkpt lat="43.93944" lon="0.51152">
        <ele>194</ele>
        <time>2022-08-16T12:09:53Z</time>
      </trkpt>
      <trkpt lat="43.93947" lon="0.51146">
        <ele>194</ele>
        <time>2022-08-16T12:10:40Z</time>
      </trkpt>
      <trkpt lat="43.93949" lon="0.51139">
        <ele>193</ele>
        <time>2022-08-16T12:10:52Z</time>
      </trkpt>
      <trkpt lat="43.93952" lon="0.51134">
        <ele>194</ele>
        <time>2022-08-16T12:10:56Z</time>
      </trkpt>
      <trkpt lat="43.9396" lon="0.5111">
        <ele>194</ele>
        <time>2022-08-16T12:11:12Z</time>
      </trkpt>
      <trkpt lat="43.93962" lon="0.51104">
        <ele>194</ele>
        <time>2022-08-16T12:11:16Z</time>
      </trkpt>
      <trkpt lat="43.93962" lon="0.51098">
        <ele>193</ele>
        <time>2022-08-16T12:11:19Z</time>
      </trkpt>
      <trkpt lat="43.93966" lon="0.51086">
        <ele>194</ele>
        <time>2022-08-16T12:11:27Z</time>
      </trkpt>
      <trkpt lat="43.93981" lon="0.51046">
        <ele>191</ele>
        <time>2022-08-16T12:11:58Z</time>
      </trkpt>
      <trkpt lat="43.93988" lon="0.51029">
        <ele>189</ele>
        <time>2022-08-16T12:12:08Z</time>
      </trkpt>
      <trkpt lat="43.93998" lon="0.51019">
        <ele>186</ele>
        <time>2022-08-16T12:12:16Z</time>
      </trkpt>
      <trkpt lat="43.94005" lon="0.51009">
        <ele>185</ele>
        <time>2022-08-16T12:12:24Z</time>
      </trkpt>
      <trkpt lat="43.94013" lon="0.50997">
        <ele>183</ele>
        <time>2022-08-16T12:12:37Z</time>
      </trkpt>
      <trkpt lat="43.94025" lon="0.50985">
        <ele>181</ele>
        <time>2022-08-16T12:13:09Z</time>
      </trkpt>
      <trkpt lat="43.94055" lon="0.50935">
        <ele>176</ele>
        <time>2022-08-16T12:13:42Z</time>
      </trkpt>
      <trkpt lat="43.94062" lon="0.50925">
        <ele>174</ele>
        <time>2022-08-16T12:13:49Z</time>
      </trkpt>
      <trkpt lat="43.94081" lon="0.50889">
        <ele>173</ele>
        <time>2022-08-16T12:14:13Z</time>
      </trkpt>
      <trkpt lat="43.94084" lon="0.50884">
        <ele>173</ele>
        <time>2022-08-16T12:14:17Z</time>
      </trkpt>
      <trkpt lat="43.94088" lon="0.50881">
        <ele>173</ele>
        <time>2022-08-16T12:14:21Z</time>
      </trkpt>
      <trkpt lat="43.94092" lon="0.50875">
        <ele>172</ele>
        <time>2022-08-16T12:14:26Z</time>
      </trkpt>
      <trkpt lat="43.94096" lon="0.50871">
        <ele>172</ele>
        <time>2022-08-16T12:14:30Z</time>
      </trkpt>
      <trkpt lat="43.94105" lon="0.50866">
        <ele>171</ele>
        <time>2022-08-16T12:14:38Z</time>
      </trkpt>
      <trkpt lat="43.9412" lon="0.50849">
        <ele>171</ele>
        <time>2022-08-16T12:14:55Z</time>
      </trkpt>
      <trkpt lat="43.94128" lon="0.5084">
        <ele>171</ele>
        <time>2022-08-16T12:15:03Z</time>
      </trkpt>
      <trkpt lat="43.94131" lon="0.50834">
        <ele>171</ele>
        <time>2022-08-16T12:15:07Z</time>
      </trkpt>
      <trkpt lat="43.94142" lon="0.50812">
        <ele>171</ele>
        <time>2022-08-16T12:15:23Z</time>
      </trkpt>
      <trkpt lat="43.94143" lon="0.50806">
        <ele>170</ele>
        <time>2022-08-16T12:15:27Z</time>
      </trkpt>
      <trkpt lat="43.94148" lon="0.50794">
        <ele>170</ele>
        <time>2022-08-16T12:15:35Z</time>
      </trkpt>
      <trkpt lat="43.94149" lon="0.50789">
        <ele>170</ele>
        <time>2022-08-16T12:15:38Z</time>
      </trkpt>
      <trkpt lat="43.94153" lon="0.50783">
        <ele>169</ele>
        <time>2022-08-16T12:15:42Z</time>
      </trkpt>
      <trkpt lat="43.94168" lon="0.5073">
        <ele>166</ele>
        <time>2022-08-16T12:16:14Z</time>
      </trkpt>
      <trkpt lat="43.94175" lon="0.50712">
        <ele>164</ele>
        <time>2022-08-16T12:16:25Z</time>
      </trkpt>
      <trkpt lat="43.94182" lon="0.50695">
        <ele>165</ele>
        <time>2022-08-16T12:16:37Z</time>
      </trkpt>
      <trkpt lat="43.94185" lon="0.5069">
        <ele>165</ele>
        <time>2022-08-16T12:16:41Z</time>
      </trkpt>
      <trkpt lat="43.94187" lon="0.50684">
        <ele>165</ele>
        <time>2022-08-16T12:16:45Z</time>
      </trkpt>
      <trkpt lat="43.9419" lon="0.50679">
        <ele>165</ele>
        <time>2022-08-16T12:16:49Z</time>
      </trkpt>
      <trkpt lat="43.94192" lon="0.50672">
        <ele>166</ele>
        <time>2022-08-16T12:16:54Z</time>
      </trkpt>
      <trkpt lat="43.94201" lon="0.50631">
        <ele>167</ele>
        <time>2022-08-16T12:17:23Z</time>
      </trkpt>
      <trkpt lat="43.94204" lon="0.50626">
        <ele>168</ele>
        <time>2022-08-16T12:17:27Z</time>
      </trkpt>
      <trkpt lat="43.94231" lon="0.50588">
        <ele>170</ele>
        <time>2022-08-16T12:18:01Z</time>
      </trkpt>
      <trkpt lat="43.94235" lon="0.50578">
        <ele>170</ele>
        <time>2022-08-16T12:18:33Z</time>
      </trkpt>
      <trkpt lat="43.94251" lon="0.50546">
        <ele>172</ele>
        <time>2022-08-16T12:18:56Z</time>
      </trkpt>
      <trkpt lat="43.94258" lon="0.50537">
        <ele>173</ele>
        <time>2022-08-16T12:19:05Z</time>
      </trkpt>
      <trkpt lat="43.94273" lon="0.50506">
        <ele>174</ele>
        <time>2022-08-16T12:19:36Z</time>
      </trkpt>
      <trkpt lat="43.94274" lon="0.505">
        <ele>174</ele>
        <time>2022-08-16T12:19:40Z</time>
      </trkpt>
      <trkpt lat="43.94276" lon="0.50494">
        <ele>174</ele>
        <time>2022-08-16T12:19:43Z</time>
      </trkpt>
      <trkpt lat="43.94279" lon="0.50487">
        <ele>174</ele>
        <time>2022-08-16T12:19:48Z</time>
      </trkpt>
      <trkpt lat="43.94286" lon="0.50467">
        <ele>173</ele>
        <time>2022-08-16T12:20:02Z</time>
      </trkpt>
      <trkpt lat="43.94299" lon="0.50429">
        <ele>174</ele>
        <time>2022-08-16T12:20:25Z</time>
      </trkpt>
      <trkpt lat="43.94301" lon="0.50424">
        <ele>175</ele>
        <time>2022-08-16T12:20:29Z</time>
      </trkpt>
      <trkpt lat="43.94302" lon="0.50417">
        <ele>175</ele>
        <time>2022-08-16T12:20:33Z</time>
      </trkpt>
      <trkpt lat="43.94305" lon="0.50411">
        <ele>175</ele>
        <time>2022-08-16T12:20:38Z</time>
      </trkpt>
      <trkpt lat="43.94311" lon="0.5039">
        <ele>176</ele>
        <time>2022-08-16T12:20:51Z</time>
      </trkpt>
      <trkpt lat="43.94314" lon="0.50367">
        <ele>175</ele>
        <time>2022-08-16T12:21:03Z</time>
      </trkpt>
      <trkpt lat="43.94316" lon="0.50361">
        <ele>175</ele>
        <time>2022-08-16T12:21:07Z</time>
      </trkpt>
      <trkpt lat="43.94317" lon="0.50353">
        <ele>175</ele>
        <time>2022-08-16T12:21:11Z</time>
      </trkpt>
      <trkpt lat="43.94321" lon="0.5034">
        <ele>175</ele>
        <time>2022-08-16T12:21:19Z</time>
      </trkpt>
      <trkpt lat="43.94322" lon="0.50333">
        <ele>176</ele>
        <time>2022-08-16T12:21:23Z</time>
      </trkpt>
      <trkpt lat="43.94325" lon="0.5032">
        <ele>176</ele>
        <time>2022-08-16T12:21:30Z</time>
      </trkpt>
      <trkpt lat="43.94326" lon="0.50313">
        <ele>177</ele>
        <time>2022-08-16T12:21:34Z</time>
      </trkpt>
      <trkpt lat="43.94328" lon="0.50307">
        <ele>177</ele>
        <time>2022-08-16T12:21:38Z</time>
      </trkpt>
      <trkpt lat="43.94329" lon="0.503">
        <ele>177</ele>
        <time>2022-08-16T12:21:42Z</time>
      </trkpt>
      <trkpt lat="43.94334" lon="0.50273">
        <ele>177</ele>
        <time>2022-08-16T12:21:59Z</time>
      </trkpt>
      <trkpt lat="43.94337" lon="0.50259">
        <ele>177</ele>
        <time>2022-08-16T12:22:07Z</time>
      </trkpt>
      <trkpt lat="43.94339" lon="0.50245">
        <ele>177</ele>
        <time>2022-08-16T12:22:15Z</time>
      </trkpt>
      <trkpt lat="43.94342" lon="0.50231">
        <ele>177</ele>
        <time>2022-08-16T12:22:22Z</time>
      </trkpt>
      <trkpt lat="43.94343" lon="0.50224">
        <ele>177</ele>
        <time>2022-08-16T12:22:25Z</time>
      </trkpt>
      <trkpt lat="43.94344" lon="0.50218">
        <ele>177</ele>
        <time>2022-08-16T12:22:29Z</time>
      </trkpt>
      <trkpt lat="43.94349" lon="0.50199">
        <ele>176</ele>
        <time>2022-08-16T12:22:41Z</time>
      </trkpt>
      <trkpt lat="43.94353" lon="0.50178">
        <ele>178</ele>
        <time>2022-08-16T12:22:53Z</time>
      </trkpt>
      <trkpt lat="43.94358" lon="0.50166">
        <ele>178</ele>
        <time>2022-08-16T12:23:02Z</time>
      </trkpt>
      <trkpt lat="43.9436" lon="0.50159">
        <ele>178</ele>
        <time>2022-08-16T12:23:06Z</time>
      </trkpt>
      <trkpt lat="43.9436" lon="0.50151">
        <ele>178</ele>
        <time>2022-08-16T12:23:10Z</time>
      </trkpt>
      <trkpt lat="43.94363" lon="0.50139">
        <ele>178</ele>
        <time>2022-08-16T12:23:18Z</time>
      </trkpt>
      <trkpt lat="43.94366" lon="0.50132">
        <ele>178</ele>
        <time>2022-08-16T12:23:22Z</time>
      </trkpt>
      <trkpt lat="43.9437" lon="0.50119">
        <ele>178</ele>
        <time>2022-08-16T12:23:30Z</time>
      </trkpt>
      <trkpt lat="43.94372" lon="0.50113">
        <ele>178</ele>
        <time>2022-08-16T12:23:34Z</time>
      </trkpt>
      <trkpt lat="43.94382" lon="0.50087">
        <ele>178</ele>
        <time>2022-08-16T12:23:50Z</time>
      </trkpt>
      <trkpt lat="43.94383" lon="0.50082">
        <ele>178</ele>
        <time>2022-08-16T12:23:54Z</time>
      </trkpt>
      <trkpt lat="43.94387" lon="0.50075">
        <ele>178</ele>
        <time>2022-08-16T12:24:52Z</time>
      </trkpt>
      <trkpt lat="43.94406" lon="0.50027">
        <ele>178</ele>
        <time>2022-08-16T12:25:24Z</time>
      </trkpt>
      <trkpt lat="43.94409" lon="0.50021">
        <ele>178</ele>
        <time>2022-08-16T12:25:28Z</time>
      </trkpt>
      <trkpt lat="43.94411" lon="0.50015">
        <ele>178</ele>
        <time>2022-08-16T12:25:32Z</time>
      </trkpt>
      <trkpt lat="43.94416" lon="0.50003">
        <ele>178</ele>
        <time>2022-08-16T12:25:40Z</time>
      </trkpt>
      <trkpt lat="43.94419" lon="0.49998">
        <ele>178</ele>
        <time>2022-08-16T12:25:45Z</time>
      </trkpt>
      <trkpt lat="43.94426" lon="0.49981">
        <ele>178</ele>
        <time>2022-08-16T12:25:57Z</time>
      </trkpt>
      <trkpt lat="43.94433" lon="0.49971">
        <ele>178</ele>
        <time>2022-08-16T12:26:05Z</time>
      </trkpt>
      <trkpt lat="43.94435" lon="0.49965">
        <ele>178</ele>
        <time>2022-08-16T12:26:09Z</time>
      </trkpt>
      <trkpt lat="43.94441" lon="0.49953">
        <ele>178</ele>
        <time>2022-08-16T12:26:16Z</time>
      </trkpt>
      <trkpt lat="43.94443" lon="0.49949">
        <ele>178</ele>
        <time>2022-08-16T12:26:20Z</time>
      </trkpt>
      <trkpt lat="43.94445" lon="0.49943">
        <ele>178</ele>
        <time>2022-08-16T12:26:23Z</time>
      </trkpt>
      <trkpt lat="43.94447" lon="0.49938">
        <ele>179</ele>
        <time>2022-08-16T12:26:27Z</time>
      </trkpt>
      <trkpt lat="43.94452" lon="0.49925">
        <ele>179</ele>
        <time>2022-08-16T12:26:35Z</time>
      </trkpt>
      <trkpt lat="43.94457" lon="0.49913">
        <ele>179</ele>
        <time>2022-08-16T12:26:43Z</time>
      </trkpt>
      <trkpt lat="43.94462" lon="0.49901">
        <ele>178</ele>
        <time>2022-08-16T12:26:51Z</time>
      </trkpt>
      <trkpt lat="43.94465" lon="0.49888">
        <ele>178</ele>
        <time>2022-08-16T12:26:59Z</time>
      </trkpt>
      <trkpt lat="43.94467" lon="0.49881">
        <ele>179</ele>
        <time>2022-08-16T12:27:03Z</time>
      </trkpt>
      <trkpt lat="43.94478" lon="0.49827">
        <ele>179</ele>
        <time>2022-08-16T12:27:35Z</time>
      </trkpt>
      <trkpt lat="43.9448" lon="0.4982">
        <ele>179</ele>
        <time>2022-08-16T12:27:39Z</time>
      </trkpt>
      <trkpt lat="43.94481" lon="0.49813">
        <ele>179</ele>
        <time>2022-08-16T12:27:43Z</time>
      </trkpt>
      <trkpt lat="43.94485" lon="0.498">
        <ele>179</ele>
        <time>2022-08-16T12:27:51Z</time>
      </trkpt>
      <trkpt lat="43.94489" lon="0.49763">
        <ele>179</ele>
        <time>2022-08-16T12:28:14Z</time>
      </trkpt>
      <trkpt lat="43.94489" lon="0.49748">
        <ele>179</ele>
        <time>2022-08-16T12:28:23Z</time>
      </trkpt>
      <trkpt lat="43.94495" lon="0.49715">
        <ele>180</ele>
        <time>2022-08-16T12:28:42Z</time>
      </trkpt>
      <trkpt lat="43.945" lon="0.49703">
        <ele>180</ele>
        <time>2022-08-16T12:28:51Z</time>
      </trkpt>
      <trkpt lat="43.94505" lon="0.49682">
        <ele>180</ele>
        <time>2022-08-16T12:29:04Z</time>
      </trkpt>
      <trkpt lat="43.94517" lon="0.4965">
        <ele>180</ele>
        <time>2022-08-16T12:29:24Z</time>
      </trkpt>
      <trkpt lat="43.94518" lon="0.49643">
        <ele>180</ele>
        <time>2022-08-16T12:29:28Z</time>
      </trkpt>
      <trkpt lat="43.9452" lon="0.49635">
        <ele>180</ele>
        <time>2022-08-16T12:29:33Z</time>
      </trkpt>
      <trkpt lat="43.94523" lon="0.49629">
        <ele>180</ele>
        <time>2022-08-16T12:29:37Z</time>
      </trkpt>
      <trkpt lat="43.94536" lon="0.4959">
        <ele>179</ele>
        <time>2022-08-16T12:30:02Z</time>
      </trkpt>
      <trkpt lat="43.94541" lon="0.49578">
        <ele>178</ele>
        <time>2022-08-16T12:30:10Z</time>
      </trkpt>
      <trkpt lat="43.94542" lon="0.49572">
        <ele>179</ele>
        <time>2022-08-16T12:30:14Z</time>
      </trkpt>
      <trkpt lat="43.94546" lon="0.49566">
        <ele>179</ele>
        <time>2022-08-16T12:30:18Z</time>
      </trkpt>
      <trkpt lat="43.94552" lon="0.49555">
        <ele>179</ele>
        <time>2022-08-16T12:30:26Z</time>
      </trkpt>
      <trkpt lat="43.94572" lon="0.49508">
        <ele>178</ele>
        <time>2022-08-16T12:30:58Z</time>
      </trkpt>
      <trkpt lat="43.94574" lon="0.49496">
        <ele>178</ele>
        <time>2022-08-16T12:31:05Z</time>
      </trkpt>
      <trkpt lat="43.94576" lon="0.49489">
        <ele>178</ele>
        <time>2022-08-16T12:31:09Z</time>
      </trkpt>
      <trkpt lat="43.94579" lon="0.49477">
        <ele>178</ele>
        <time>2022-08-16T12:31:17Z</time>
      </trkpt>
      <trkpt lat="43.94586" lon="0.49458">
        <ele>178</ele>
        <time>2022-08-16T12:32:07Z</time>
      </trkpt>
      <trkpt lat="43.94589" lon="0.49452">
        <ele>178</ele>
        <time>2022-08-16T12:32:12Z</time>
      </trkpt>
      <trkpt lat="43.94592" lon="0.49446">
        <ele>179</ele>
        <time>2022-08-16T12:32:17Z</time>
      </trkpt>
      <trkpt lat="43.94593" lon="0.4944">
        <ele>178</ele>
        <time>2022-08-16T12:32:21Z</time>
      </trkpt>
      <trkpt lat="43.94598" lon="0.49421">
        <ele>178</ele>
        <time>2022-08-16T12:32:31Z</time>
      </trkpt>
      <trkpt lat="43.94606" lon="0.49402">
        <ele>179</ele>
        <time>2022-08-16T12:32:43Z</time>
      </trkpt>
      <trkpt lat="43.94607" lon="0.49395">
        <ele>179</ele>
        <time>2022-08-16T12:32:47Z</time>
      </trkpt>
      <trkpt lat="43.94613" lon="0.49384">
        <ele>180</ele>
        <time>2022-08-16T12:32:55Z</time>
      </trkpt>
      <trkpt lat="43.94616" lon="0.49378">
        <ele>180</ele>
        <time>2022-08-16T12:32:59Z</time>
      </trkpt>
      <trkpt lat="43.94618" lon="0.49373">
        <ele>180</ele>
        <time>2022-08-16T12:33:03Z</time>
      </trkpt>
      <trkpt lat="43.94622" lon="0.49361">
        <ele>180</ele>
        <time>2022-08-16T12:33:11Z</time>
      </trkpt>
      <trkpt lat="43.94625" lon="0.49355">
        <ele>180</ele>
        <time>2022-08-16T12:33:15Z</time>
      </trkpt>
      <trkpt lat="43.94637" lon="0.49326">
        <ele>181</ele>
        <time>2022-08-16T12:33:35Z</time>
      </trkpt>
      <trkpt lat="43.94639" lon="0.49319">
        <ele>180</ele>
        <time>2022-08-16T12:33:40Z</time>
      </trkpt>
      <trkpt lat="43.94645" lon="0.49307">
        <ele>180</ele>
        <time>2022-08-16T12:33:49Z</time>
      </trkpt>
      <trkpt lat="43.94648" lon="0.49301">
        <ele>180</ele>
        <time>2022-08-16T12:33:53Z</time>
      </trkpt>
      <trkpt lat="43.94649" lon="0.49294">
        <ele>180</ele>
        <time>2022-08-16T12:33:57Z</time>
      </trkpt>
      <trkpt lat="43.94654" lon="0.49283">
        <ele>181</ele>
        <time>2022-08-16T12:34:05Z</time>
      </trkpt>
      <trkpt lat="43.94668" lon="0.49229">
        <ele>178</ele>
        <time>2022-08-16T12:34:36Z</time>
      </trkpt>
      <trkpt lat="43.94672" lon="0.49224">
        <ele>178</ele>
        <time>2022-08-16T12:34:40Z</time>
      </trkpt>
      <trkpt lat="43.94679" lon="0.49198">
        <ele>177</ele>
        <time>2022-08-16T12:34:57Z</time>
      </trkpt>
      <trkpt lat="43.9468" lon="0.49185">
        <ele>177</ele>
        <time>2022-08-16T12:35:05Z</time>
      </trkpt>
      <trkpt lat="43.94684" lon="0.49173">
        <ele>177</ele>
        <time>2022-08-16T12:35:13Z</time>
      </trkpt>
      <trkpt lat="43.94689" lon="0.4914">
        <ele>177</ele>
        <time>2022-08-16T12:35:33Z</time>
      </trkpt>
      <trkpt lat="43.94691" lon="0.49134">
        <ele>177</ele>
        <time>2022-08-16T12:35:37Z</time>
      </trkpt>
      <trkpt lat="43.94693" lon="0.49127">
        <ele>177</ele>
        <time>2022-08-16T12:35:41Z</time>
      </trkpt>
      <trkpt lat="43.94695" lon="0.49096">
        <ele>176</ele>
        <time>2022-08-16T12:36:18Z</time>
      </trkpt>
      <trkpt lat="43.94699" lon="0.49041">
        <ele>176</ele>
        <time>2022-08-16T12:36:52Z</time>
      </trkpt>
      <trkpt lat="43.94698" lon="0.48986">
        <ele>176</ele>
        <time>2022-08-16T12:37:23Z</time>
      </trkpt>
      <trkpt lat="43.94701" lon="0.48957">
        <ele>176</ele>
        <time>2022-08-16T12:37:40Z</time>
      </trkpt>
      <trkpt lat="43.94702" lon="0.48951">
        <ele>175</ele>
        <time>2022-08-16T12:37:45Z</time>
      </trkpt>
      <trkpt lat="43.94706" lon="0.48943">
        <ele>169</ele>
        <time>2022-08-16T12:43:40Z</time>
      </trkpt>
      <trkpt lat="43.94744" lon="0.48952">
        <ele>166</ele>
        <time>2022-08-16T12:44:12Z</time>
      </trkpt>
      <trkpt lat="43.94785" lon="0.48953">
        <ele>163</ele>
        <time>2022-08-16T12:44:44Z</time>
      </trkpt>
      <trkpt lat="43.94821" lon="0.48953">
        <ele>161</ele>
        <time>2022-08-16T12:45:24Z</time>
      </trkpt>
      <trkpt lat="43.94826" lon="0.48953">
        <ele>160</ele>
        <time>2022-08-16T12:45:28Z</time>
      </trkpt>
      <trkpt lat="43.94841" lon="0.48947">
        <ele>160</ele>
        <time>2022-08-16T12:45:54Z</time>
      </trkpt>
      <trkpt lat="43.94864" lon="0.48932">
        <ele>157</ele>
        <time>2022-08-16T12:46:20Z</time>
      </trkpt>
      <trkpt lat="43.94869" lon="0.4893">
        <ele>157</ele>
        <time>2022-08-16T12:46:24Z</time>
      </trkpt>
      <trkpt lat="43.94883" lon="0.4893">
        <ele>156</ele>
        <time>2022-08-16T12:46:34Z</time>
      </trkpt>
      <trkpt lat="43.94892" lon="0.48933">
        <ele>156</ele>
        <time>2022-08-16T12:46:40Z</time>
      </trkpt>
      <trkpt lat="43.9493" lon="0.48948">
        <ele>154</ele>
        <time>2022-08-16T12:47:12Z</time>
      </trkpt>
      <trkpt lat="43.9497" lon="0.48961">
        <ele>151</ele>
        <time>2022-08-16T12:47:45Z</time>
      </trkpt>
      <trkpt lat="43.95008" lon="0.48977">
        <ele>146</ele>
        <time>2022-08-16T12:48:17Z</time>
      </trkpt>
      <trkpt lat="43.95021" lon="0.48985">
        <ele>145</ele>
        <time>2022-08-16T12:48:29Z</time>
      </trkpt>
      <trkpt lat="43.95045" lon="0.48992">
        <ele>143</ele>
        <time>2022-08-16T12:48:45Z</time>
      </trkpt>
      <trkpt lat="43.95065" lon="0.49004">
        <ele>142</ele>
        <time>2022-08-16T12:49:33Z</time>
      </trkpt>
      <trkpt lat="43.951" lon="0.49032">
        <ele>142</ele>
        <time>2022-08-16T12:50:07Z</time>
      </trkpt>
      <trkpt lat="43.95105" lon="0.49034">
        <ele>142</ele>
        <time>2022-08-16T12:50:12Z</time>
      </trkpt>
      <trkpt lat="43.95115" lon="0.49037">
        <ele>142</ele>
        <time>2022-08-16T12:50:20Z</time>
      </trkpt>
      <trkpt lat="43.95135" lon="0.49039">
        <ele>142</ele>
        <time>2022-08-16T12:51:01Z</time>
      </trkpt>
      <trkpt lat="43.9516" lon="0.49037">
        <ele>144</ele>
        <time>2022-08-16T12:51:23Z</time>
      </trkpt>
      <trkpt lat="43.95188" lon="0.49023">
        <ele>146</ele>
        <time>2022-08-16T12:51:49Z</time>
      </trkpt>
      <trkpt lat="43.95193" lon="0.49023">
        <ele>147</ele>
        <time>2022-08-16T12:51:53Z</time>
      </trkpt>
      <trkpt lat="43.95199" lon="0.49019">
        <ele>147</ele>
        <time>2022-08-16T12:51:59Z</time>
      </trkpt>
      <trkpt lat="43.9523" lon="0.49013">
        <ele>151</ele>
        <time>2022-08-16T12:52:34Z</time>
      </trkpt>
      <trkpt lat="43.95244" lon="0.49007">
        <ele>153</ele>
        <time>2022-08-16T12:52:48Z</time>
      </trkpt>
      <trkpt lat="43.95257" lon="0.49009">
        <ele>155</ele>
        <time>2022-08-16T12:53:12Z</time>
      </trkpt>
      <trkpt lat="43.95262" lon="0.49009">
        <ele>155</ele>
        <time>2022-08-16T12:53:16Z</time>
      </trkpt>
      <trkpt lat="43.95277" lon="0.49009">
        <ele>154</ele>
        <time>2022-08-16T12:53:29Z</time>
      </trkpt>
      <trkpt lat="43.95283" lon="0.49007">
        <ele>153</ele>
        <time>2022-08-16T12:53:59Z</time>
      </trkpt>
      <trkpt lat="43.95321" lon="0.48998">
        <ele>150</ele>
        <time>2022-08-16T12:54:30Z</time>
      </trkpt>
      <trkpt lat="43.95326" lon="0.48996">
        <ele>150</ele>
        <time>2022-08-16T12:54:34Z</time>
      </trkpt>
      <trkpt lat="43.95367" lon="0.48992">
        <ele>150</ele>
        <time>2022-08-16T12:55:06Z</time>
      </trkpt>
      <trkpt lat="43.95383" lon="0.48992">
        <ele>150</ele>
        <time>2022-08-16T12:55:18Z</time>
      </trkpt>
      <trkpt lat="43.95393" lon="0.4899">
        <ele>150</ele>
        <time>2022-08-16T12:55:26Z</time>
      </trkpt>
      <trkpt lat="43.954" lon="0.48992">
        <ele>150</ele>
        <time>2022-08-16T12:55:34Z</time>
      </trkpt>
      <trkpt lat="43.95406" lon="0.48991">
        <ele>150</ele>
        <time>2022-08-16T12:55:38Z</time>
      </trkpt>
      <trkpt lat="43.9542" lon="0.48996">
        <ele>152</ele>
        <time>2022-08-16T12:55:51Z</time>
      </trkpt>
      <trkpt lat="43.95441" lon="0.49011">
        <ele>154</ele>
        <time>2022-08-16T12:56:21Z</time>
      </trkpt>
      <trkpt lat="43.95445" lon="0.49014">
        <ele>155</ele>
        <time>2022-08-16T12:56:25Z</time>
      </trkpt>
      <trkpt lat="43.95449" lon="0.49016">
        <ele>156</ele>
        <time>2022-08-16T12:57:57Z</time>
      </trkpt>
      <trkpt lat="43.95453" lon="0.49019">
        <ele>156</ele>
        <time>2022-08-16T12:58:13Z</time>
      </trkpt>
      <trkpt lat="43.9549" lon="0.49041">
        <ele>159</ele>
        <time>2022-08-16T12:58:46Z</time>
      </trkpt>
      <trkpt lat="43.955" lon="0.49049">
        <ele>160</ele>
        <time>2022-08-16T12:59:04Z</time>
      </trkpt>
      <trkpt lat="43.95504" lon="0.49052">
        <ele>161</ele>
        <time>2022-08-16T12:59:24Z</time>
      </trkpt>
      <trkpt lat="43.95534" lon="0.49069">
        <ele>164</ele>
        <time>2022-08-16T12:59:58Z</time>
      </trkpt>
      <trkpt lat="43.95558" lon="0.49087">
        <ele>167</ele>
        <time>2022-08-16T13:00:32Z</time>
      </trkpt>
      <trkpt lat="43.95563" lon="0.49089">
        <ele>167</ele>
        <time>2022-08-16T13:00:36Z</time>
      </trkpt>
      <trkpt lat="43.95597" lon="0.49114">
        <ele>173</ele>
        <time>2022-08-16T13:01:12Z</time>
      </trkpt>
      <trkpt lat="43.95607" lon="0.49119">
        <ele>173</ele>
        <time>2022-08-16T13:01:23Z</time>
      </trkpt>
      <trkpt lat="43.95612" lon="0.49119">
        <ele>174</ele>
        <time>2022-08-16T13:01:28Z</time>
      </trkpt>
      <trkpt lat="43.95617" lon="0.49121">
        <ele>173</ele>
        <time>2022-08-16T13:01:32Z</time>
      </trkpt>
      <trkpt lat="43.95637" lon="0.4913">
        <ele>169</ele>
        <time>2022-08-16T13:01:53Z</time>
      </trkpt>
      <trkpt lat="43.95642" lon="0.49129">
        <ele>169</ele>
        <time>2022-08-16T13:01:58Z</time>
      </trkpt>
      <trkpt lat="43.95653" lon="0.49127">
        <ele>167</ele>
        <time>2022-08-16T13:02:06Z</time>
      </trkpt>
      <trkpt lat="43.95691" lon="0.49125">
        <ele>163</ele>
        <time>2022-08-16T13:02:40Z</time>
      </trkpt>
      <trkpt lat="43.95696" lon="0.49124">
        <ele>163</ele>
        <time>2022-08-16T13:02:44Z</time>
      </trkpt>
      <trkpt lat="43.95707" lon="0.49126">
        <ele>162</ele>
        <time>2022-08-16T13:02:53Z</time>
      </trkpt>
      <trkpt lat="43.95748" lon="0.4912">
        <ele>159</ele>
        <time>2022-08-16T13:03:27Z</time>
      </trkpt>
      <trkpt lat="43.95785" lon="0.49115">
        <ele>156</ele>
        <time>2022-08-16T13:03:58Z</time>
      </trkpt>
      <trkpt lat="43.95832" lon="0.49111">
        <ele>153</ele>
        <time>2022-08-16T13:04:30Z</time>
      </trkpt>
      <trkpt lat="43.95856" lon="0.49111">
        <ele>152</ele>
        <time>2022-08-16T13:04:47Z</time>
      </trkpt>
      <trkpt lat="43.9589" lon="0.49106">
        <ele>148</ele>
        <time>2022-08-16T13:05:21Z</time>
      </trkpt>
      <trkpt lat="43.95895" lon="0.49107">
        <ele>148</ele>
        <time>2022-08-16T13:05:26Z</time>
      </trkpt>
      <trkpt lat="43.959" lon="0.49105">
        <ele>147</ele>
        <time>2022-08-16T13:05:30Z</time>
      </trkpt>
      <trkpt lat="43.95906" lon="0.49105">
        <ele>147</ele>
        <time>2022-08-16T13:05:35Z</time>
      </trkpt>
      <trkpt lat="43.95917" lon="0.49106">
        <ele>147</ele>
        <time>2022-08-16T13:05:45Z</time>
      </trkpt>
      <trkpt lat="43.95925" lon="0.49103">
        <ele>148</ele>
        <time>2022-08-16T13:05:58Z</time>
      </trkpt>
      <trkpt lat="43.95929" lon="0.49107">
        <ele>148</ele>
        <time>2022-08-16T13:07:08Z</time>
      </trkpt>
      <trkpt lat="43.95935" lon="0.49107">
        <ele>148</ele>
        <time>2022-08-16T13:07:26Z</time>
      </trkpt>
      <trkpt lat="43.95958" lon="0.49122">
        <ele>153</ele>
        <time>2022-08-16T13:07:53Z</time>
      </trkpt>
      <trkpt lat="43.95963" lon="0.49124">
        <ele>155</ele>
        <time>2022-08-16T13:08:12Z</time>
      </trkpt>
      <trkpt lat="43.95968" lon="0.49127">
        <ele>156</ele>
        <time>2022-08-16T13:08:30Z</time>
      </trkpt>
      <trkpt lat="43.96002" lon="0.49142">
        <ele>161</ele>
        <time>2022-08-16T13:09:05Z</time>
      </trkpt>
      <trkpt lat="43.96007" lon="0.49145">
        <ele>161</ele>
        <time>2022-08-16T13:09:10Z</time>
      </trkpt>
      <trkpt lat="43.96015" lon="0.49154">
        <ele>162</ele>
        <time>2022-08-16T13:09:20Z</time>
      </trkpt>
      <trkpt lat="43.96022" lon="0.49167">
        <ele>163</ele>
        <time>2022-08-16T13:09:33Z</time>
      </trkpt>
      <trkpt lat="43.9604" lon="0.4919">
        <ele>165</ele>
        <time>2022-08-16T13:09:55Z</time>
      </trkpt>
      <trkpt lat="43.96049" lon="0.49208">
        <ele>167</ele>
        <time>2022-08-16T13:10:09Z</time>
      </trkpt>
      <trkpt lat="43.96057" lon="0.49219">
        <ele>168</ele>
        <time>2022-08-16T13:10:20Z</time>
      </trkpt>
      <trkpt lat="43.9608" lon="0.49257">
        <ele>168</ele>
        <time>2022-08-16T13:10:50Z</time>
      </trkpt>
      <trkpt lat="43.96083" lon="0.49261">
        <ele>168</ele>
        <time>2022-08-16T13:10:54Z</time>
      </trkpt>
      <trkpt lat="43.96097" lon="0.49274">
        <ele>167</ele>
        <time>2022-08-16T13:11:06Z</time>
      </trkpt>
      <trkpt lat="43.96106" lon="0.49291">
        <ele>168</ele>
        <time>2022-08-16T13:11:18Z</time>
      </trkpt>
      <trkpt lat="43.96121" lon="0.49336">
        <ele>171</ele>
        <time>2022-08-16T13:11:47Z</time>
      </trkpt>
      <trkpt lat="43.96124" lon="0.49342">
        <ele>171</ele>
        <time>2022-08-16T13:11:51Z</time>
      </trkpt>
      <trkpt lat="43.96134" lon="0.4936">
        <ele>172</ele>
        <time>2022-08-16T13:12:04Z</time>
      </trkpt>
      <trkpt lat="43.96138" lon="0.49364">
        <ele>172</ele>
        <time>2022-08-16T13:12:08Z</time>
      </trkpt>
      <trkpt lat="43.9617" lon="0.49377">
        <ele>173</ele>
        <time>2022-08-16T13:12:39Z</time>
      </trkpt>
      <trkpt lat="43.96193" lon="0.49388">
        <ele>176</ele>
        <time>2022-08-16T13:13:07Z</time>
      </trkpt>
      <trkpt lat="43.96201" lon="0.49388">
        <ele>176</ele>
        <time>2022-08-16T13:13:26Z</time>
      </trkpt>
      <trkpt lat="43.96211" lon="0.49399">
        <ele>177</ele>
        <time>2022-08-16T13:13:40Z</time>
      </trkpt>
      <trkpt lat="43.96229" lon="0.49403">
        <ele>180</ele>
        <time>2022-08-16T13:14:00Z</time>
      </trkpt>
      <trkpt lat="43.96234" lon="0.49408">
        <ele>181</ele>
        <time>2022-08-16T13:14:13Z</time>
      </trkpt>
      <trkpt lat="43.96235" lon="0.49409">
        <ele>182</ele>
        <time>2022-08-16T13:15:22Z</time>
      </trkpt>
      <trkpt lat="43.96242" lon="0.49412">
        <ele>182</ele>
        <time>2022-08-16T13:15:35Z</time>
      </trkpt>
      <trkpt lat="43.96246" lon="0.49415">
        <ele>183</ele>
        <time>2022-08-16T13:15:39Z</time>
      </trkpt>
      <trkpt lat="43.96261" lon="0.49424">
        <ele>185</ele>
        <time>2022-08-16T13:15:56Z</time>
      </trkpt>
      <trkpt lat="43.96265" lon="0.49425">
        <ele>186</ele>
        <time>2022-08-16T13:16:06Z</time>
      </trkpt>
      <trkpt lat="43.9627" lon="0.49421">
        <ele>186</ele>
        <time>2022-08-16T13:16:22Z</time>
      </trkpt>
      <trkpt lat="43.96276" lon="0.49426">
        <ele>187</ele>
        <time>2022-08-16T13:16:31Z</time>
      </trkpt>
      <trkpt lat="43.96281" lon="0.49427">
        <ele>187</ele>
        <time>2022-08-16T13:16:37Z</time>
      </trkpt>
      <trkpt lat="43.96285" lon="0.49431">
        <ele>188</ele>
        <time>2022-08-16T13:16:40Z</time>
      </trkpt>
      <trkpt lat="43.96292" lon="0.49434">
        <ele>189</ele>
        <time>2022-08-16T13:16:47Z</time>
      </trkpt>
      <trkpt lat="43.96297" lon="0.4944">
        <ele>190</ele>
        <time>2022-08-16T13:16:52Z</time>
      </trkpt>
      <trkpt lat="43.96308" lon="0.49445">
        <ele>191</ele>
        <time>2022-08-16T13:17:04Z</time>
      </trkpt>
      <trkpt lat="43.96322" lon="0.49447">
        <ele>193</ele>
        <time>2022-08-16T13:17:41Z</time>
      </trkpt>
      <trkpt lat="43.96327" lon="0.4945">
        <ele>194</ele>
        <time>2022-08-16T13:17:46Z</time>
      </trkpt>
      <trkpt lat="43.96335" lon="0.4945">
        <ele>194</ele>
        <time>2022-08-16T13:17:55Z</time>
      </trkpt>
      <trkpt lat="43.96355" lon="0.49468">
        <ele>198</ele>
        <time>2022-08-16T13:18:23Z</time>
      </trkpt>
      <trkpt lat="43.96371" lon="0.49474">
        <ele>202</ele>
        <time>2022-08-16T13:18:42Z</time>
      </trkpt>
      <trkpt lat="43.96377" lon="0.49473">
        <ele>202</ele>
        <time>2022-08-16T13:18:55Z</time>
      </trkpt>
      <trkpt lat="43.96407" lon="0.49474">
        <ele>206</ele>
        <time>2022-08-16T13:19:29Z</time>
      </trkpt>
      <trkpt lat="43.96412" lon="0.49477">
        <ele>207</ele>
        <time>2022-08-16T13:19:35Z</time>
      </trkpt>
      <trkpt lat="43.96418" lon="0.49484">
        <ele>208</ele>
        <time>2022-08-16T13:19:43Z</time>
      </trkpt>
      <trkpt lat="43.96421" lon="0.49477">
        <ele>209</ele>
        <time>2022-08-16T13:20:02Z</time>
      </trkpt>
      <trkpt lat="43.96421" lon="0.49469">
        <ele>208</ele>
        <time>2022-08-16T13:20:07Z</time>
      </trkpt>
      <trkpt lat="43.96428" lon="0.49443">
        <ele>208</ele>
        <time>2022-08-16T13:20:24Z</time>
      </trkpt>
      <trkpt lat="43.9645" lon="0.49402">
        <ele>208</ele>
        <time>2022-08-16T13:20:54Z</time>
      </trkpt>
      <trkpt lat="43.96473" lon="0.49354">
        <ele>206</ele>
        <time>2022-08-16T13:21:26Z</time>
      </trkpt>
      <trkpt lat="43.96487" lon="0.49296">
        <ele>204</ele>
        <time>2022-08-16T13:21:59Z</time>
      </trkpt>
      <trkpt lat="43.96496" lon="0.4924">
        <ele>203</ele>
        <time>2022-08-16T13:22:31Z</time>
      </trkpt>
      <trkpt lat="43.96506" lon="0.49194">
        <ele>202</ele>
        <time>2022-08-16T13:22:59Z</time>
      </trkpt>
      <trkpt lat="43.9651" lon="0.49188">
        <ele>202</ele>
        <time>2022-08-16T13:23:03Z</time>
      </trkpt>
      <trkpt lat="43.96533" lon="0.49167">
        <ele>202</ele>
        <time>2022-08-16T13:23:24Z</time>
      </trkpt>
      <trkpt lat="43.96545" lon="0.49152">
        <ele>202</ele>
        <time>2022-08-16T13:23:39Z</time>
      </trkpt>
      <trkpt lat="43.9655" lon="0.49135">
        <ele>203</ele>
        <time>2022-08-16T13:23:49Z</time>
      </trkpt>
      <trkpt lat="43.96571" lon="0.49103">
        <ele>204</ele>
        <time>2022-08-16T13:24:21Z</time>
      </trkpt>
      <trkpt lat="43.96574" lon="0.49098">
        <ele>204</ele>
        <time>2022-08-16T13:24:25Z</time>
      </trkpt>
      <trkpt lat="43.96578" lon="0.49094">
        <ele>204</ele>
        <time>2022-08-16T13:24:29Z</time>
      </trkpt>
      <trkpt lat="43.96587" lon="0.49084">
        <ele>205</ele>
        <time>2022-08-16T13:24:40Z</time>
      </trkpt>
      <trkpt lat="43.96591" lon="0.49079">
        <ele>205</ele>
        <time>2022-08-16T13:24:44Z</time>
      </trkpt>
      <trkpt lat="43.96598" lon="0.49068">
        <ele>205</ele>
        <time>2022-08-16T13:24:52Z</time>
      </trkpt>
      <trkpt lat="43.96614" lon="0.49052">
        <ele>205</ele>
        <time>2022-08-16T13:25:08Z</time>
      </trkpt>
      <trkpt lat="43.96629" lon="0.49044">
        <ele>205</ele>
        <time>2022-08-16T13:25:20Z</time>
      </trkpt>
      <trkpt lat="43.96634" lon="0.49041">
        <ele>205</ele>
        <time>2022-08-16T13:25:25Z</time>
      </trkpt>
      <trkpt lat="43.96642" lon="0.49035">
        <ele>205</ele>
        <time>2022-08-16T13:25:33Z</time>
      </trkpt>
      <trkpt lat="43.96648" lon="0.49034">
        <ele>205</ele>
        <time>2022-08-16T13:25:39Z</time>
      </trkpt>
      <trkpt lat="43.96665" lon="0.49023">
        <ele>205</ele>
        <time>2022-08-16T13:25:55Z</time>
      </trkpt>
      <trkpt lat="43.96679" lon="0.49016">
        <ele>205</ele>
        <time>2022-08-16T13:26:06Z</time>
      </trkpt>
      <trkpt lat="43.96684" lon="0.49014">
        <ele>205</ele>
        <time>2022-08-16T13:26:11Z</time>
      </trkpt>
      <trkpt lat="43.9672" lon="0.48993">
        <ele>205</ele>
        <time>2022-08-16T13:26:43Z</time>
      </trkpt>
      <trkpt lat="43.9673" lon="0.48988">
        <ele>205</ele>
        <time>2022-08-16T13:26:52Z</time>
      </trkpt>
      <trkpt lat="43.96753" lon="0.48971">
        <ele>204</ele>
        <time>2022-08-16T13:27:12Z</time>
      </trkpt>
      <trkpt lat="43.9676" lon="0.48969">
        <ele>204</ele>
        <time>2022-08-16T13:27:20Z</time>
      </trkpt>
      <trkpt lat="43.96774" lon="0.48971">
        <ele>204</ele>
        <time>2022-08-16T13:27:38Z</time>
      </trkpt>
      <trkpt lat="43.96779" lon="0.48974">
        <ele>204</ele>
        <time>2022-08-16T13:27:43Z</time>
      </trkpt>
      <trkpt lat="43.96784" lon="0.4898">
        <ele>205</ele>
        <time>2022-08-16T13:27:51Z</time>
      </trkpt>
      <trkpt lat="43.96779" lon="0.48983">
        <ele>204</ele>
        <time>2022-08-16T13:28:12Z</time>
      </trkpt>
      <trkpt lat="43.96786" lon="0.48987">
        <ele>204</ele>
        <time>2022-08-16T13:28:42Z</time>
      </trkpt>
      <trkpt lat="43.96791" lon="0.48989">
        <ele>204</ele>
        <time>2022-08-16T13:28:46Z</time>
      </trkpt>
      <trkpt lat="43.96824" lon="0.49022">
        <ele>205</ele>
        <time>2022-08-16T13:29:17Z</time>
      </trkpt>
      <trkpt lat="43.96833" lon="0.49032">
        <ele>205</ele>
        <time>2022-08-16T13:29:25Z</time>
      </trkpt>
      <trkpt lat="43.96859" lon="0.49057">
        <ele>207</ele>
        <time>2022-08-16T13:29:49Z</time>
      </trkpt>
      <trkpt lat="43.96863" lon="0.49054">
        <ele>207</ele>
        <time>2022-08-16T13:29:57Z</time>
      </trkpt>
      <trkpt lat="43.96892" lon="0.49037">
        <ele>208</ele>
        <time>2022-08-16T13:30:25Z</time>
      </trkpt>
      <trkpt lat="43.96895" lon="0.49033">
        <ele>208</ele>
        <time>2022-08-16T13:30:30Z</time>
      </trkpt>
      <trkpt lat="43.9693" lon="0.49">
        <ele>211</ele>
        <time>2022-08-16T13:31:05Z</time>
      </trkpt>
      <trkpt lat="43.96939" lon="0.48992">
        <ele>211</ele>
        <time>2022-08-16T13:31:12Z</time>
      </trkpt>
      <trkpt lat="43.96968" lon="0.48974">
        <ele>211</ele>
        <time>2022-08-16T13:31:37Z</time>
      </trkpt>
      <trkpt lat="43.96972" lon="0.4897">
        <ele>212</ele>
        <time>2022-08-16T13:31:41Z</time>
      </trkpt>
      <trkpt lat="43.9698" lon="0.48961">
        <ele>211</ele>
        <time>2022-08-16T13:31:49Z</time>
      </trkpt>
      <trkpt lat="43.96999" lon="0.48946">
        <ele>212</ele>
        <time>2022-08-16T13:32:15Z</time>
      </trkpt>
      <trkpt lat="43.97006" lon="0.48935">
        <ele>212</ele>
        <time>2022-08-16T13:32:23Z</time>
      </trkpt>
      <trkpt lat="43.97034" lon="0.48896">
        <ele>212</ele>
        <time>2022-08-16T13:32:54Z</time>
      </trkpt>
      <trkpt lat="43.97062" lon="0.48854">
        <ele>213</ele>
        <time>2022-08-16T13:33:27Z</time>
      </trkpt>
      <trkpt lat="43.97068" lon="0.48844">
        <ele>212</ele>
        <time>2022-08-16T13:33:34Z</time>
      </trkpt>
      <trkpt lat="43.97072" lon="0.48839">
        <ele>212</ele>
        <time>2022-08-16T13:33:39Z</time>
      </trkpt>
      <trkpt lat="43.97074" lon="0.48833">
        <ele>212</ele>
        <time>2022-08-16T13:33:43Z</time>
      </trkpt>
      <trkpt lat="43.97077" lon="0.48827">
        <ele>212</ele>
        <time>2022-08-16T13:33:48Z</time>
      </trkpt>
      <trkpt lat="43.97081" lon="0.48822">
        <ele>212</ele>
        <time>2022-08-16T13:33:53Z</time>
      </trkpt>
      <trkpt lat="43.97084" lon="0.48816">
        <ele>212</ele>
        <time>2022-08-16T13:33:57Z</time>
      </trkpt>
      <trkpt lat="43.97119" lon="0.48786">
        <ele>212</ele>
        <time>2022-08-16T13:34:29Z</time>
      </trkpt>
      <trkpt lat="43.97157" lon="0.48758">
        <ele>211</ele>
        <time>2022-08-16T13:35:02Z</time>
      </trkpt>
      <trkpt lat="43.97168" lon="0.48752">
        <ele>210</ele>
        <time>2022-08-16T13:35:10Z</time>
      </trkpt>
      <trkpt lat="43.97188" lon="0.4874">
        <ele>211</ele>
        <time>2022-08-16T13:35:29Z</time>
      </trkpt>
      <trkpt lat="43.97202" lon="0.48732">
        <ele>211</ele>
        <time>2022-08-16T13:35:41Z</time>
      </trkpt>
      <trkpt lat="43.97211" lon="0.48724">
        <ele>211</ele>
        <time>2022-08-16T13:36:00Z</time>
      </trkpt>
      <trkpt lat="43.97217" lon="0.4872">
        <ele>211</ele>
        <time>2022-08-16T13:36:05Z</time>
      </trkpt>
      <trkpt lat="43.97222" lon="0.48718">
        <ele>211</ele>
        <time>2022-08-16T13:36:09Z</time>
      </trkpt>
      <trkpt lat="43.97237" lon="0.48714">
        <ele>211</ele>
        <time>2022-08-16T13:36:20Z</time>
      </trkpt>
      <trkpt lat="43.97247" lon="0.48715">
        <ele>211</ele>
        <time>2022-08-16T13:36:27Z</time>
      </trkpt>
      <trkpt lat="43.97252" lon="0.48714">
        <ele>211</ele>
        <time>2022-08-16T13:36:31Z</time>
      </trkpt>
      <trkpt lat="43.97275" lon="0.48717">
        <ele>211</ele>
        <time>2022-08-16T13:36:49Z</time>
      </trkpt>
      <trkpt lat="43.9728" lon="0.48715">
        <ele>211</ele>
        <time>2022-08-16T13:36:53Z</time>
      </trkpt>
      <trkpt lat="43.97289" lon="0.48715">
        <ele>211</ele>
        <time>2022-08-16T13:37:01Z</time>
      </trkpt>
      <trkpt lat="43.973" lon="0.48712">
        <ele>211</ele>
        <time>2022-08-16T13:37:10Z</time>
      </trkpt>
      <trkpt lat="43.97339" lon="0.48698">
        <ele>211</ele>
        <time>2022-08-16T13:37:43Z</time>
      </trkpt>
      <trkpt lat="43.97376" lon="0.48682">
        <ele>212</ele>
        <time>2022-08-16T13:38:13Z</time>
      </trkpt>
      <trkpt lat="43.97385" lon="0.48683">
        <ele>211</ele>
        <time>2022-08-16T13:38:21Z</time>
      </trkpt>
      <trkpt lat="43.9739" lon="0.48682">
        <ele>212</ele>
        <time>2022-08-16T13:38:25Z</time>
      </trkpt>
      <trkpt lat="43.97394" lon="0.48679">
        <ele>212</ele>
        <time>2022-08-16T13:38:29Z</time>
      </trkpt>
      <trkpt lat="43.97404" lon="0.48675">
        <ele>211</ele>
        <time>2022-08-16T13:38:37Z</time>
      </trkpt>
      <trkpt lat="43.97418" lon="0.48666">
        <ele>211</ele>
        <time>2022-08-16T13:38:50Z</time>
      </trkpt>
      <trkpt lat="43.97423" lon="0.48665">
        <ele>211</ele>
        <time>2022-08-16T13:38:54Z</time>
      </trkpt>
      <trkpt lat="43.97427" lon="0.4867">
        <ele>211</ele>
        <time>2022-08-16T13:38:57Z</time>
      </trkpt>
      <trkpt lat="43.97429" lon="0.48675">
        <ele>211</ele>
        <time>2022-08-16T13:39:00Z</time>
      </trkpt>
      <trkpt lat="43.9743" lon="0.48682">
        <ele>211</ele>
        <time>2022-08-16T13:39:04Z</time>
      </trkpt>
      <trkpt lat="43.97432" lon="0.48719">
        <ele>209</ele>
        <time>2022-08-16T13:39:26Z</time>
      </trkpt>
      <trkpt lat="43.97437" lon="0.48741">
        <ele>207</ele>
        <time>2022-08-16T13:39:39Z</time>
      </trkpt>
      <trkpt lat="43.97437" lon="0.4875">
        <ele>206</ele>
        <time>2022-08-16T13:39:43Z</time>
      </trkpt>
      <trkpt lat="43.97442" lon="0.48771">
        <ele>205</ele>
        <time>2022-08-16T13:39:57Z</time>
      </trkpt>
      <trkpt lat="43.97443" lon="0.48779">
        <ele>204</ele>
        <time>2022-08-16T13:40:02Z</time>
      </trkpt>
      <trkpt lat="43.97446" lon="0.48792">
        <ele>203</ele>
        <time>2022-08-16T13:40:11Z</time>
      </trkpt>
      <trkpt lat="43.97446" lon="0.48801">
        <ele>203</ele>
        <time>2022-08-16T13:40:20Z</time>
      </trkpt>
      <trkpt lat="43.97449" lon="0.4881">
        <ele>203</ele>
        <time>2022-08-16T13:40:27Z</time>
      </trkpt>
      <trkpt lat="43.97459" lon="0.48863">
        <ele>201</ele>
        <time>2022-08-16T13:41:03Z</time>
      </trkpt>
      <trkpt lat="43.97469" lon="0.48918">
        <ele>199</ele>
        <time>2022-08-16T13:41:38Z</time>
      </trkpt>
      <trkpt lat="43.97472" lon="0.48941">
        <ele>199</ele>
        <time>2022-08-16T13:41:52Z</time>
      </trkpt>
      <trkpt lat="43.97478" lon="0.48962">
        <ele>198</ele>
        <time>2022-08-16T13:42:05Z</time>
      </trkpt>
      <trkpt lat="43.9748" lon="0.48991">
        <ele>198</ele>
        <time>2022-08-16T13:42:24Z</time>
      </trkpt>
      <trkpt lat="43.97488" lon="0.49027">
        <ele>197</ele>
        <time>2022-08-16T13:42:46Z</time>
      </trkpt>
      <trkpt lat="43.9749" lon="0.4904">
        <ele>196</ele>
        <time>2022-08-16T13:42:54Z</time>
      </trkpt>
      <trkpt lat="43.97493" lon="0.49053">
        <ele>196</ele>
        <time>2022-08-16T13:43:02Z</time>
      </trkpt>
      <trkpt lat="43.97495" lon="0.49059">
        <ele>195</ele>
        <time>2022-08-16T13:43:07Z</time>
      </trkpt>
      <trkpt lat="43.97503" lon="0.49111">
        <ele>194</ele>
        <time>2022-08-16T13:43:39Z</time>
      </trkpt>
      <trkpt lat="43.97506" lon="0.49124">
        <ele>193</ele>
        <time>2022-08-16T13:43:47Z</time>
      </trkpt>
      <trkpt lat="43.97506" lon="0.49132">
        <ele>193</ele>
        <time>2022-08-16T13:43:52Z</time>
      </trkpt>
      <trkpt lat="43.97508" lon="0.49138">
        <ele>192</ele>
        <time>2022-08-16T13:43:56Z</time>
      </trkpt>
      <trkpt lat="43.97508" lon="0.49146">
        <ele>192</ele>
        <time>2022-08-16T13:44:00Z</time>
      </trkpt>
      <trkpt lat="43.97518" lon="0.4917">
        <ele>191</ele>
        <time>2022-08-16T13:44:17Z</time>
      </trkpt>
      <trkpt lat="43.97542" lon="0.49198">
        <ele>190</ele>
        <time>2022-08-16T13:44:43Z</time>
      </trkpt>
      <trkpt lat="43.9756" lon="0.49211">
        <ele>189</ele>
        <time>2022-08-16T13:44:59Z</time>
      </trkpt>
      <trkpt lat="43.97573" lon="0.49219">
        <ele>187</ele>
        <time>2022-08-16T13:45:09Z</time>
      </trkpt>
      <trkpt lat="43.9758" lon="0.49227">
        <ele>186</ele>
        <time>2022-08-16T13:45:18Z</time>
      </trkpt>
      <trkpt lat="43.97594" lon="0.49237">
        <ele>186</ele>
        <time>2022-08-16T13:45:31Z</time>
      </trkpt>
      <trkpt lat="43.97628" lon="0.49278">
        <ele>184</ele>
        <time>2022-08-16T13:46:08Z</time>
      </trkpt>
      <trkpt lat="43.97632" lon="0.49281">
        <ele>184</ele>
        <time>2022-08-16T13:46:13Z</time>
      </trkpt>
      <trkpt lat="43.97637" lon="0.49287">
        <ele>184</ele>
        <time>2022-08-16T13:46:19Z</time>
      </trkpt>
      <trkpt lat="43.97641" lon="0.4929">
        <ele>184</ele>
        <time>2022-08-16T13:46:23Z</time>
      </trkpt>
      <trkpt lat="43.97669" lon="0.49322">
        <ele>183</ele>
        <time>2022-08-16T13:46:55Z</time>
      </trkpt>
      <trkpt lat="43.97684" lon="0.49337">
        <ele>182</ele>
        <time>2022-08-16T13:47:12Z</time>
      </trkpt>
      <trkpt lat="43.9769" lon="0.49348">
        <ele>181</ele>
        <time>2022-08-16T13:47:20Z</time>
      </trkpt>
      <trkpt lat="43.97699" lon="0.49349">
        <ele>181</ele>
        <time>2022-08-16T13:47:42Z</time>
      </trkpt>
      <trkpt lat="43.97703" lon="0.49352">
        <ele>180</ele>
        <time>2022-08-16T13:47:47Z</time>
      </trkpt>
      <trkpt lat="43.97721" lon="0.4937">
        <ele>179</ele>
        <time>2022-08-16T13:48:06Z</time>
      </trkpt>
      <trkpt lat="43.97724" lon="0.49375">
        <ele>178</ele>
        <time>2022-08-16T13:48:10Z</time>
      </trkpt>
      <trkpt lat="43.97734" lon="0.49384">
        <ele>178</ele>
        <time>2022-08-16T13:48:22Z</time>
      </trkpt>
      <trkpt lat="43.97739" lon="0.49387">
        <ele>177</ele>
        <time>2022-08-16T13:48:27Z</time>
      </trkpt>
      <trkpt lat="43.97775" lon="0.49416">
        <ele>176</ele>
        <time>2022-08-16T13:49:04Z</time>
      </trkpt>
      <trkpt lat="43.97809" lon="0.49441">
        <ele>176</ele>
        <time>2022-08-16T13:49:38Z</time>
      </trkpt>
      <trkpt lat="43.97849" lon="0.49462">
        <ele>175</ele>
        <time>2022-08-16T13:50:11Z</time>
      </trkpt>
      <trkpt lat="43.97863" lon="0.49472">
        <ele>175</ele>
        <time>2022-08-16T13:50:23Z</time>
      </trkpt>
      <trkpt lat="43.97867" lon="0.49476">
        <ele>175</ele>
        <time>2022-08-16T13:50:28Z</time>
      </trkpt>
      <trkpt lat="43.97872" lon="0.49479">
        <ele>175</ele>
        <time>2022-08-16T13:50:33Z</time>
      </trkpt>
      <trkpt lat="43.97876" lon="0.49484">
        <ele>175</ele>
        <time>2022-08-16T13:50:38Z</time>
      </trkpt>
      <trkpt lat="43.9788" lon="0.49486">
        <ele>175</ele>
        <time>2022-08-16T13:50:55Z</time>
      </trkpt>
      <trkpt lat="43.97885" lon="0.4949">
        <ele>175</ele>
        <time>2022-08-16T13:51:00Z</time>
      </trkpt>
      <trkpt lat="43.9789" lon="0.49493">
        <ele>174</ele>
        <time>2022-08-16T13:51:04Z</time>
      </trkpt>
      <trkpt lat="43.97904" lon="0.49504">
        <ele>174</ele>
        <time>2022-08-16T13:51:22Z</time>
      </trkpt>
      <trkpt lat="43.97905" lon="0.49511">
        <ele>174</ele>
        <time>2022-08-16T13:51:27Z</time>
      </trkpt>
      <trkpt lat="43.9791" lon="0.49509">
        <ele>175</ele>
        <time>2022-08-16T13:51:47Z</time>
      </trkpt>
      <trkpt lat="43.97919" lon="0.49513">
        <ele>175</ele>
        <time>2022-08-16T13:51:57Z</time>
      </trkpt>
      <trkpt lat="43.97932" lon="0.49517">
        <ele>175</ele>
        <time>2022-08-16T13:52:17Z</time>
      </trkpt>
      <trkpt lat="43.97961" lon="0.49519">
        <ele>176</ele>
        <time>2022-08-16T13:52:42Z</time>
      </trkpt>
      <trkpt lat="43.97975" lon="0.49518">
        <ele>177</ele>
        <time>2022-08-16T13:52:55Z</time>
      </trkpt>
      <trkpt lat="43.97989" lon="0.49518">
        <ele>177</ele>
        <time>2022-08-16T13:53:07Z</time>
      </trkpt>
      <trkpt lat="43.97995" lon="0.49519">
        <ele>178</ele>
        <time>2022-08-16T13:53:14Z</time>
      </trkpt>
      <trkpt lat="43.98011" lon="0.49519">
        <ele>179</ele>
        <time>2022-08-16T13:53:26Z</time>
      </trkpt>
      <trkpt lat="43.98017" lon="0.4952">
        <ele>179</ele>
        <time>2022-08-16T13:53:31Z</time>
      </trkpt>
      <trkpt lat="43.98055" lon="0.49523">
        <ele>182</ele>
        <time>2022-08-16T13:54:05Z</time>
      </trkpt>
      <trkpt lat="43.98077" lon="0.49525">
        <ele>182</ele>
        <time>2022-08-16T13:54:25Z</time>
      </trkpt>
      <trkpt lat="43.98081" lon="0.4955">
        <ele>180</ele>
        <time>2022-08-16T13:54:48Z</time>
      </trkpt>
      <trkpt lat="43.98076" lon="0.49557">
        <ele>181</ele>
        <time>2022-08-16T13:55:29Z</time>
      </trkpt>
      <trkpt lat="43.98046" lon="0.49581">
        <ele>182</ele>
        <time>2022-08-16T13:55:59Z</time>
      </trkpt>
      <trkpt lat="43.98041" lon="0.49585">
        <ele>182</ele>
        <time>2022-08-16T13:56:03Z</time>
      </trkpt>
      <trkpt lat="43.9804" lon="0.49593">
        <ele>182</ele>
        <time>2022-08-16T13:56:08Z</time>
      </trkpt>
      <trkpt lat="43.98031" lon="0.49632">
        <ele>181</ele>
        <time>2022-08-16T13:56:40Z</time>
      </trkpt>
      <trkpt lat="43.9802" lon="0.49669">
        <ele>181</ele>
        <time>2022-08-16T13:57:06Z</time>
      </trkpt>
      <trkpt lat="43.98023" lon="0.49677">
        <ele>180</ele>
        <time>2022-08-16T13:57:12Z</time>
      </trkpt>
      <trkpt lat="43.9803" lon="0.49685">
        <ele>179</ele>
        <time>2022-08-16T13:57:20Z</time>
      </trkpt>
      <trkpt lat="43.98038" lon="0.49694">
        <ele>179</ele>
        <time>2022-08-16T13:57:29Z</time>
      </trkpt>
      <trkpt lat="43.98044" lon="0.49704">
        <ele>180</ele>
        <time>2022-08-16T13:57:39Z</time>
      </trkpt>
      <trkpt lat="43.98071" lon="0.49738">
        <ele>182</ele>
        <time>2022-08-16T13:58:13Z</time>
      </trkpt>
      <trkpt lat="43.98099" lon="0.49767">
        <ele>184</ele>
        <time>2022-08-16T13:58:48Z</time>
      </trkpt>
      <trkpt lat="43.98104" lon="0.49773">
        <ele>185</ele>
        <time>2022-08-16T13:58:56Z</time>
      </trkpt>
      <trkpt lat="43.98107" lon="0.49781">
        <ele>185</ele>
        <time>2022-08-16T13:59:08Z</time>
      </trkpt>
      <trkpt lat="43.98108" lon="0.49787">
        <ele>185</ele>
        <time>2022-08-16T13:59:14Z</time>
      </trkpt>
      <trkpt lat="43.98106" lon="0.49799">
        <ele>186</ele>
        <time>2022-08-16T13:59:25Z</time>
      </trkpt>
      <trkpt lat="43.98106" lon="0.49807">
        <ele>186</ele>
        <time>2022-08-16T13:59:30Z</time>
      </trkpt>
      <trkpt lat="43.9811" lon="0.49822">
        <ele>186</ele>
        <time>2022-08-16T13:59:40Z</time>
      </trkpt>
      <trkpt lat="43.98111" lon="0.49828">
        <ele>187</ele>
        <time>2022-08-16T14:00:22Z</time>
      </trkpt>
      <trkpt lat="43.98128" lon="0.4986">
        <ele>188</ele>
        <time>2022-08-16T14:00:50Z</time>
      </trkpt>
      <trkpt lat="43.98132" lon="0.49863">
        <ele>188</ele>
        <time>2022-08-16T14:00:54Z</time>
      </trkpt>
      <trkpt lat="43.98138" lon="0.49869">
        <ele>189</ele>
        <time>2022-08-16T14:01:02Z</time>
      </trkpt>
      <trkpt lat="43.98145" lon="0.49884">
        <ele>190</ele>
        <time>2022-08-16T14:01:12Z</time>
      </trkpt>
      <trkpt lat="43.98151" lon="0.49897">
        <ele>192</ele>
        <time>2022-08-16T14:01:30Z</time>
      </trkpt>
      <trkpt lat="43.98154" lon="0.4989">
        <ele>192</ele>
        <time>2022-08-16T14:01:35Z</time>
      </trkpt>
      <trkpt lat="43.98157" lon="0.49882">
        <ele>192</ele>
        <time>2022-08-16T14:01:42Z</time>
      </trkpt>
      <trkpt lat="43.98155" lon="0.49872">
        <ele>192</ele>
        <time>2022-08-16T14:01:52Z</time>
      </trkpt>
      <trkpt lat="43.98147" lon="0.49863">
        <ele>192</ele>
        <time>2022-08-16T14:02:01Z</time>
      </trkpt>
      <trkpt lat="43.98146" lon="0.49855">
        <ele>193</ele>
        <time>2022-08-16T14:02:22Z</time>
      </trkpt>
      <trkpt lat="43.98153" lon="0.49861">
        <ele>192</ele>
        <time>2022-08-16T14:02:28Z</time>
      </trkpt>
      <trkpt lat="43.98159" lon="0.49866">
        <ele>192</ele>
        <time>2022-08-16T14:02:34Z</time>
      </trkpt>
      <trkpt lat="43.98165" lon="0.49863">
        <ele>192</ele>
        <time>2022-08-16T14:02:52Z</time>
      </trkpt>
      <trkpt lat="43.98166" lon="0.4984">
        <ele>195</ele>
        <time>2022-08-16T14:09:58Z</time>
      </trkpt>
      <trkpt lat="43.98154" lon="0.49839">
        <ele>188</ele>
        <time>2022-08-16T14:20:48Z</time>
      </trkpt>
      <trkpt lat="43.98136" lon="0.49835">
        <ele>188</ele>
        <time>2022-08-16T14:21:19Z</time>
      </trkpt>
      <trkpt lat="43.9815" lon="0.49822">
        <ele>188</ele>
        <time>2022-08-16T14:21:58Z</time>
      </trkpt>
      <trkpt lat="43.98169" lon="0.49835">
        <ele>189</ele>
        <time>2022-08-16T14:22:32Z</time>
      </trkpt>
      <trkpt lat="43.98172" lon="0.49825">
        <ele>189</ele>
        <time>2022-08-16T14:22:55Z</time>
      </trkpt>
      <trkpt lat="43.98164" lon="0.49819">
        <ele>190</ele>
        <time>2022-08-16T14:23:23Z</time>
      </trkpt>
      <trkpt lat="43.98166" lon="0.49809">
        <ele>190</ele>
        <time>2022-08-16T14:24:26Z</time>
      </trkpt>
      <trkpt lat="43.98161" lon="0.49806">
        <ele>190</ele>
        <time>2022-08-16T14:25:02Z</time>
      </trkpt>
      <trkpt lat="43.9816" lon="0.49809">
        <ele>189</ele>
        <time>2022-08-16T14:26:29Z</time>
      </trkpt>
      <trkpt lat="43.98137" lon="0.4984">
        <ele>186</ele>
        <time>2022-08-16T14:39:43Z</time>
      </trkpt>
      <trkpt lat="43.9813" lon="0.49835">
        <ele>187</ele>
        <time>2022-08-16T14:39:56Z</time>
      </trkpt>
      <trkpt lat="43.98127" lon="0.49827">
        <ele>199</ele>
        <time>2022-08-16T14:43:41Z</time>
      </trkpt>
      <trkpt lat="43.9815" lon="0.49809">
        <ele>187</ele>
        <time>2022-08-16T14:51:34Z</time>
      </trkpt>
      <trkpt lat="43.98144" lon="0.49805">
        <ele>187</ele>
        <time>2022-08-16T14:51:52Z</time>
      </trkpt>
      <trkpt lat="43.98135" lon="0.49815">
        <ele>187</ele>
        <time>2022-08-16T14:53:00Z</time>
      </trkpt>
      <trkpt lat="43.9813" lon="0.49822">
        <ele>188</ele>
        <time>2022-08-16T14:53:10Z</time>
      </trkpt>
      <trkpt lat="43.98127" lon="0.49833">
        <ele>188</ele>
        <time>2022-08-16T14:53:21Z</time>
      </trkpt>
      <trkpt lat="43.98128" lon="0.49841">
        <ele>188</ele>
        <time>2022-08-16T14:53:27Z</time>
      </trkpt>
      <trkpt lat="43.98133" lon="0.49861">
        <ele>188</ele>
        <time>2022-08-16T14:53:42Z</time>
      </trkpt>
      <trkpt lat="43.98139" lon="0.49857">
        <ele>189</ele>
        <time>2022-08-16T14:53:49Z</time>
      </trkpt>
      <trkpt lat="43.98139" lon="0.49844">
        <ele>189</ele>
        <time>2022-08-16T14:54:03Z</time>
      </trkpt>
      <trkpt lat="43.98152" lon="0.49847">
        <ele>189</ele>
        <time>2022-08-16T14:54:24Z</time>
      </trkpt>
      <trkpt lat="43.98161" lon="0.49849">
        <ele>189</ele>
        <time>2022-08-16T14:54:38Z</time>
      </trkpt>
      <trkpt lat="43.98167" lon="0.49858">
        <ele>189</ele>
        <time>2022-08-16T14:58:15Z</time>
      </trkpt>
      <trkpt lat="43.98176" lon="0.49843">
        <ele>190</ele>
        <time>2022-08-16T14:58:39Z</time>
      </trkpt>
      <trkpt lat="43.9819" lon="0.49822">
        <ele>189</ele>
        <time>2022-08-16T14:59:01Z</time>
      </trkpt>
      <trkpt lat="43.98189" lon="0.49814">
        <ele>189</ele>
        <time>2022-08-16T14:59:18Z</time>
      </trkpt>
      <trkpt lat="43.98185" lon="0.49804">
        <ele>190</ele>
        <time>2022-08-16T14:59:29Z</time>
      </trkpt>
      <trkpt lat="43.98187" lon="0.49797">
        <ele>190</ele>
        <time>2022-08-16T14:59:40Z</time>
      </trkpt>
      <trkpt lat="43.9819" lon="0.49789">
        <ele>190</ele>
        <time>2022-08-16T14:59:54Z</time>
      </trkpt>
      <trkpt lat="43.98196" lon="0.4978">
        <ele>190</ele>
        <time>2022-08-16T15:00:15Z</time>
      </trkpt>
      <trkpt lat="43.98198" lon="0.49774">
        <ele>190</ele>
        <time>2022-08-16T15:00:20Z</time>
      </trkpt>
      <trkpt lat="43.98201" lon="0.49768">
        <ele>190</ele>
        <time>2022-08-16T15:00:28Z</time>
      </trkpt>
      <trkpt lat="43.98202" lon="0.49762">
        <ele>190</ele>
        <time>2022-08-16T15:01:39Z</time>
      </trkpt>
      <trkpt lat="43.98202" lon="0.49763">
        <ele>190</ele>
        <time>2022-08-16T15:03:19Z</time>
      </trkpt>
      <trkpt lat="43.98202" lon="0.49767">
        <ele>190</ele>
        <time>2022-08-16T15:04:30Z</time>
      </trkpt>
      <trkpt lat="43.98204" lon="0.49764">
        <ele>191</ele>
        <time>2022-08-16T15:06:02Z</time>
      </trkpt>
      <trkpt lat="43.98209" lon="0.49749">
        <ele>191</ele>
        <time>2022-08-16T15:06:14Z</time>
      </trkpt>
      <trkpt lat="43.98232" lon="0.49765">
        <ele>190</ele>
        <time>2022-08-16T15:06:44Z</time>
      </trkpt>
      <trkpt lat="43.9825" lon="0.49778">
        <ele>188</ele>
        <time>2022-08-16T15:07:02Z</time>
      </trkpt>
      <trkpt lat="43.98252" lon="0.49768">
        <ele>188</ele>
        <time>2022-08-16T15:07:13Z</time>
      </trkpt>
      <trkpt lat="43.98258" lon="0.49763">
        <ele>188</ele>
        <time>2022-08-16T15:07:20Z</time>
      </trkpt>
      <trkpt lat="43.98263" lon="0.4975">
        <ele>187</ele>
        <time>2022-08-16T15:07:29Z</time>
      </trkpt>
      <trkpt lat="43.98263" lon="0.49743">
        <ele>187</ele>
        <time>2022-08-16T15:07:34Z</time>
      </trkpt>
      <trkpt lat="43.98265" lon="0.49736">
        <ele>187</ele>
        <time>2022-08-16T15:07:39Z</time>
      </trkpt>
      <trkpt lat="43.98266" lon="0.49728">
        <ele>186</ele>
        <time>2022-08-16T15:07:51Z</time>
      </trkpt>
      <trkpt lat="43.98265" lon="0.49722">
        <ele>186</ele>
        <time>2022-08-16T15:08:01Z</time>
      </trkpt>
      <trkpt lat="43.98264" lon="0.49701">
        <ele>185</ele>
        <time>2022-08-16T15:08:17Z</time>
      </trkpt>
      <trkpt lat="43.98263" lon="0.49694">
        <ele>186</ele>
        <time>2022-08-16T15:08:22Z</time>
      </trkpt>
      <trkpt lat="43.98263" lon="0.49686">
        <ele>185</ele>
        <time>2022-08-16T15:08:29Z</time>
      </trkpt>
      <trkpt lat="43.98262" lon="0.4968">
        <ele>185</ele>
        <time>2022-08-16T15:08:33Z</time>
      </trkpt>
      <trkpt lat="43.98259" lon="0.49674">
        <ele>186</ele>
        <time>2022-08-16T15:08:37Z</time>
      </trkpt>
      <trkpt lat="43.98257" lon="0.49667">
        <ele>185</ele>
        <time>2022-08-16T15:08:42Z</time>
      </trkpt>
      <trkpt lat="43.98252" lon="0.49639">
        <ele>186</ele>
        <time>2022-08-16T15:09:00Z</time>
      </trkpt>
      <trkpt lat="43.98253" lon="0.49633">
        <ele>186</ele>
        <time>2022-08-16T15:09:05Z</time>
      </trkpt>
      <trkpt lat="43.98237" lon="0.49595">
        <ele>187</ele>
        <time>2022-08-16T15:09:31Z</time>
      </trkpt>
      <trkpt lat="43.98228" lon="0.49563">
        <ele>188</ele>
        <time>2022-08-16T15:09:52Z</time>
      </trkpt>
      <trkpt lat="43.98221" lon="0.49546">
        <ele>188</ele>
        <time>2022-08-16T15:10:05Z</time>
      </trkpt>
      <trkpt lat="43.98214" lon="0.49531">
        <ele>190</ele>
        <time>2022-08-16T15:10:16Z</time>
      </trkpt>
      <trkpt lat="43.98205" lon="0.49508">
        <ele>191</ele>
        <time>2022-08-16T15:10:32Z</time>
      </trkpt>
      <trkpt lat="43.982" lon="0.49497">
        <ele>191</ele>
        <time>2022-08-16T15:10:40Z</time>
      </trkpt>
      <trkpt lat="43.98198" lon="0.49491">
        <ele>192</ele>
        <time>2022-08-16T15:10:44Z</time>
      </trkpt>
      <trkpt lat="43.98186" lon="0.49469">
        <ele>193</ele>
        <time>2022-08-16T15:11:00Z</time>
      </trkpt>
      <trkpt lat="43.98185" lon="0.49462">
        <ele>194</ele>
        <time>2022-08-16T15:11:05Z</time>
      </trkpt>
      <trkpt lat="43.98181" lon="0.49449">
        <ele>194</ele>
        <time>2022-08-16T15:11:13Z</time>
      </trkpt>
      <trkpt lat="43.98179" lon="0.49443">
        <ele>194</ele>
        <time>2022-08-16T15:11:17Z</time>
      </trkpt>
      <trkpt lat="43.98175" lon="0.4943">
        <ele>194</ele>
        <time>2022-08-16T15:11:25Z</time>
      </trkpt>
      <trkpt lat="43.98174" lon="0.49423">
        <ele>194</ele>
        <time>2022-08-16T15:11:29Z</time>
      </trkpt>
      <trkpt lat="43.98175" lon="0.49402">
        <ele>194</ele>
        <time>2022-08-16T15:11:41Z</time>
      </trkpt>
      <trkpt lat="43.98173" lon="0.49388">
        <ele>193</ele>
        <time>2022-08-16T15:11:49Z</time>
      </trkpt>
      <trkpt lat="43.98174" lon="0.49382">
        <ele>193</ele>
        <time>2022-08-16T15:11:53Z</time>
      </trkpt>
      <trkpt lat="43.98172" lon="0.4937">
        <ele>193</ele>
        <time>2022-08-16T15:12:01Z</time>
      </trkpt>
      <trkpt lat="43.98167" lon="0.49336">
        <ele>193</ele>
        <time>2022-08-16T15:12:20Z</time>
      </trkpt>
      <trkpt lat="43.98168" lon="0.4928">
        <ele>194</ele>
        <time>2022-08-16T15:12:53Z</time>
      </trkpt>
      <trkpt lat="43.98167" lon="0.49267">
        <ele>195</ele>
        <time>2022-08-16T15:13:03Z</time>
      </trkpt>
      <trkpt lat="43.98169" lon="0.49232">
        <ele>197</ele>
        <time>2022-08-16T15:13:24Z</time>
      </trkpt>
      <trkpt lat="43.98168" lon="0.49217">
        <ele>198</ele>
        <time>2022-08-16T15:13:33Z</time>
      </trkpt>
      <trkpt lat="43.98171" lon="0.49179">
        <ele>199</ele>
        <time>2022-08-16T15:14:01Z</time>
      </trkpt>
      <trkpt lat="43.98172" lon="0.49156">
        <ele>200</ele>
        <time>2022-08-16T15:14:16Z</time>
      </trkpt>
      <trkpt lat="43.98173" lon="0.49143">
        <ele>201</ele>
        <time>2022-08-16T15:14:25Z</time>
      </trkpt>
      <trkpt lat="43.98172" lon="0.49115">
        <ele>202</ele>
        <time>2022-08-16T15:14:42Z</time>
      </trkpt>
      <trkpt lat="43.98175" lon="0.49101">
        <ele>202</ele>
        <time>2022-08-16T15:14:51Z</time>
      </trkpt>
      <trkpt lat="43.98173" lon="0.49055">
        <ele>204</ele>
        <time>2022-08-16T15:15:24Z</time>
      </trkpt>
      <trkpt lat="43.98176" lon="0.48999">
        <ele>206</ele>
        <time>2022-08-16T15:15:56Z</time>
      </trkpt>
      <trkpt lat="43.98183" lon="0.48946">
        <ele>207</ele>
        <time>2022-08-16T15:16:28Z</time>
      </trkpt>
      <trkpt lat="43.98185" lon="0.48932">
        <ele>208</ele>
        <time>2022-08-16T15:16:36Z</time>
      </trkpt>
      <trkpt lat="43.98186" lon="0.48925">
        <ele>207</ele>
        <time>2022-08-16T15:16:40Z</time>
      </trkpt>
      <trkpt lat="43.98185" lon="0.48919">
        <ele>207</ele>
        <time>2022-08-16T15:16:44Z</time>
      </trkpt>
      <trkpt lat="43.98187" lon="0.48914">
        <ele>208</ele>
        <time>2022-08-16T15:16:48Z</time>
      </trkpt>
      <trkpt lat="43.98189" lon="0.48905">
        <ele>208</ele>
        <time>2022-08-16T15:16:54Z</time>
      </trkpt>
      <trkpt lat="43.98189" lon="0.48897">
        <ele>208</ele>
        <time>2022-08-16T15:16:58Z</time>
      </trkpt>
      <trkpt lat="43.98191" lon="0.48891">
        <ele>207</ele>
        <time>2022-08-16T15:17:01Z</time>
      </trkpt>
      <trkpt lat="43.98193" lon="0.48885">
        <ele>207</ele>
        <time>2022-08-16T15:17:04Z</time>
      </trkpt>
      <trkpt lat="43.98193" lon="0.48879">
        <ele>208</ele>
        <time>2022-08-16T15:17:08Z</time>
      </trkpt>
      <trkpt lat="43.98202" lon="0.48825">
        <ele>208</ele>
        <time>2022-08-16T15:17:40Z</time>
      </trkpt>
      <trkpt lat="43.98203" lon="0.48818">
        <ele>209</ele>
        <time>2022-08-16T15:17:44Z</time>
      </trkpt>
      <trkpt lat="43.98205" lon="0.48805">
        <ele>209</ele>
        <time>2022-08-16T15:17:52Z</time>
      </trkpt>
      <trkpt lat="43.98204" lon="0.48799">
        <ele>209</ele>
        <time>2022-08-16T15:17:55Z</time>
      </trkpt>
      <trkpt lat="43.98205" lon="0.48792">
        <ele>208</ele>
        <time>2022-08-16T15:17:58Z</time>
      </trkpt>
      <trkpt lat="43.98205" lon="0.48785">
        <ele>208</ele>
        <time>2022-08-16T15:18:02Z</time>
      </trkpt>
      <trkpt lat="43.98205" lon="0.48756">
        <ele>210</ele>
        <time>2022-08-16T15:18:19Z</time>
      </trkpt>
      <trkpt lat="43.98206" lon="0.4875">
        <ele>210</ele>
        <time>2022-08-16T15:18:23Z</time>
      </trkpt>
      <trkpt lat="43.98206" lon="0.48736">
        <ele>210</ele>
        <time>2022-08-16T15:18:31Z</time>
      </trkpt>
      <trkpt lat="43.98202" lon="0.48725">
        <ele>209</ele>
        <time>2022-08-16T15:18:38Z</time>
      </trkpt>
      <trkpt lat="43.98203" lon="0.48704">
        <ele>210</ele>
        <time>2022-08-16T15:18:51Z</time>
      </trkpt>
      <trkpt lat="43.98206" lon="0.48691">
        <ele>210</ele>
        <time>2022-08-16T15:18:59Z</time>
      </trkpt>
      <trkpt lat="43.98199" lon="0.48653">
        <ele>210</ele>
        <time>2022-08-16T15:19:32Z</time>
      </trkpt>
      <trkpt lat="43.98194" lon="0.48599">
        <ele>211</ele>
        <time>2022-08-16T15:20:05Z</time>
      </trkpt>
      <trkpt lat="43.98192" lon="0.48557">
        <ele>213</ele>
        <time>2022-08-16T15:20:29Z</time>
      </trkpt>
      <trkpt lat="43.98191" lon="0.4855">
        <ele>213</ele>
        <time>2022-08-16T15:20:33Z</time>
      </trkpt>
      <trkpt lat="43.98189" lon="0.48536">
        <ele>214</ele>
        <time>2022-08-16T15:20:42Z</time>
      </trkpt>
      <trkpt lat="43.98184" lon="0.48517">
        <ele>213</ele>
        <time>2022-08-16T15:20:54Z</time>
      </trkpt>
      <trkpt lat="43.98184" lon="0.4851">
        <ele>213</ele>
        <time>2022-08-16T15:20:58Z</time>
      </trkpt>
      <trkpt lat="43.98185" lon="0.48504">
        <ele>213</ele>
        <time>2022-08-16T15:21:02Z</time>
      </trkpt>
      <trkpt lat="43.98188" lon="0.48495">
        <ele>213</ele>
        <time>2022-08-16T15:21:08Z</time>
      </trkpt>
      <trkpt lat="43.98197" lon="0.48479">
        <ele>215</ele>
        <time>2022-08-16T15:21:20Z</time>
      </trkpt>
      <trkpt lat="43.98206" lon="0.48461">
        <ele>215</ele>
        <time>2022-08-16T15:21:31Z</time>
      </trkpt>
      <trkpt lat="43.98213" lon="0.48452">
        <ele>215</ele>
        <time>2022-08-16T15:21:38Z</time>
      </trkpt>
      <trkpt lat="43.98234" lon="0.48404">
        <ele>213</ele>
        <time>2022-08-16T15:22:09Z</time>
      </trkpt>
      <trkpt lat="43.98246" lon="0.48351">
        <ele>210</ele>
        <time>2022-08-16T15:22:41Z</time>
      </trkpt>
      <trkpt lat="43.98249" lon="0.48338">
        <ele>210</ele>
        <time>2022-08-16T15:22:49Z</time>
      </trkpt>
      <trkpt lat="43.98256" lon="0.48305">
        <ele>209</ele>
        <time>2022-08-16T15:23:09Z</time>
      </trkpt>
      <trkpt lat="43.98258" lon="0.483">
        <ele>209</ele>
        <time>2022-08-16T15:23:13Z</time>
      </trkpt>
      <trkpt lat="43.9827" lon="0.48261">
        <ele>208</ele>
        <time>2022-08-16T15:23:36Z</time>
      </trkpt>
      <trkpt lat="43.98273" lon="0.48255">
        <ele>207</ele>
        <time>2022-08-16T15:23:40Z</time>
      </trkpt>
      <trkpt lat="43.98282" lon="0.48229">
        <ele>205</ele>
        <time>2022-08-16T15:23:56Z</time>
      </trkpt>
      <trkpt lat="43.98284" lon="0.48224">
        <ele>205</ele>
        <time>2022-08-16T15:23:59Z</time>
      </trkpt>
      <trkpt lat="43.98287" lon="0.48203">
        <ele>204</ele>
        <time>2022-08-16T15:24:11Z</time>
      </trkpt>
      <trkpt lat="43.98292" lon="0.48131">
        <ele>200</ele>
        <time>2022-08-16T15:24:42Z</time>
      </trkpt>
      <trkpt lat="43.98299" lon="0.48075">
        <ele>196</ele>
        <time>2022-08-16T15:25:13Z</time>
      </trkpt>
      <trkpt lat="43.98305" lon="0.48041">
        <ele>193</ele>
        <time>2022-08-16T15:25:31Z</time>
      </trkpt>
      <trkpt lat="43.98307" lon="0.48027">
        <ele>192</ele>
        <time>2022-08-16T15:25:38Z</time>
      </trkpt>
      <trkpt lat="43.98309" lon="0.48021">
        <ele>191</ele>
        <time>2022-08-16T15:25:42Z</time>
      </trkpt>
      <trkpt lat="43.9831" lon="0.48013">
        <ele>191</ele>
        <time>2022-08-16T15:25:46Z</time>
      </trkpt>
      <trkpt lat="43.98313" lon="0.47992">
        <ele>189</ele>
        <time>2022-08-16T15:25:57Z</time>
      </trkpt>
      <trkpt lat="43.98313" lon="0.47984">
        <ele>188</ele>
        <time>2022-08-16T15:26:01Z</time>
      </trkpt>
      <trkpt lat="43.98325" lon="0.47927">
        <ele>184</ele>
        <time>2022-08-16T15:26:35Z</time>
      </trkpt>
      <trkpt lat="43.98329" lon="0.47898">
        <ele>182</ele>
        <time>2022-08-16T15:26:52Z</time>
      </trkpt>
      <trkpt lat="43.98331" lon="0.47893">
        <ele>182</ele>
        <time>2022-08-16T15:26:55Z</time>
      </trkpt>
      <trkpt lat="43.98339" lon="0.47829">
        <ele>180</ele>
        <time>2022-08-16T15:27:29Z</time>
      </trkpt>
      <trkpt lat="43.98347" lon="0.47771">
        <ele>178</ele>
        <time>2022-08-16T15:28:01Z</time>
      </trkpt>
      <trkpt lat="43.98347" lon="0.47765">
        <ele>178</ele>
        <time>2022-08-16T15:28:05Z</time>
      </trkpt>
      <trkpt lat="43.98353" lon="0.47762">
        <ele>178</ele>
        <time>2022-08-16T15:28:10Z</time>
      </trkpt>
      <trkpt lat="43.98394" lon="0.4776">
        <ele>179</ele>
        <time>2022-08-16T15:28:41Z</time>
      </trkpt>
      <trkpt lat="43.98429" lon="0.47757">
        <ele>179</ele>
        <time>2022-08-16T15:29:08Z</time>
      </trkpt>
      <trkpt lat="43.9845" lon="0.47755">
        <ele>179</ele>
        <time>2022-08-16T15:29:25Z</time>
      </trkpt>
      <trkpt lat="43.98471" lon="0.47753">
        <ele>178</ele>
        <time>2022-08-16T15:29:41Z</time>
      </trkpt>
      <trkpt lat="43.98509" lon="0.47749">
        <ele>179</ele>
        <time>2022-08-16T15:30:13Z</time>
      </trkpt>
      <trkpt lat="43.98544" lon="0.47745">
        <ele>181</ele>
        <time>2022-08-16T15:30:43Z</time>
      </trkpt>
      <trkpt lat="43.98549" lon="0.47743">
        <ele>181</ele>
        <time>2022-08-16T15:30:48Z</time>
      </trkpt>
      <trkpt lat="43.9855" lon="0.47731">
        <ele>182</ele>
        <time>2022-08-16T15:31:11Z</time>
      </trkpt>
      <trkpt lat="43.98554" lon="0.4771">
        <ele>181</ele>
        <time>2022-08-16T15:31:26Z</time>
      </trkpt>
      <trkpt lat="43.98558" lon="0.47677">
        <ele>181</ele>
        <time>2022-08-16T15:31:46Z</time>
      </trkpt>
      <trkpt lat="43.98564" lon="0.47644">
        <ele>179</ele>
        <time>2022-08-16T15:32:07Z</time>
      </trkpt>
      <trkpt lat="43.98567" lon="0.47624">
        <ele>179</ele>
        <time>2022-08-16T15:32:18Z</time>
      </trkpt>
      <trkpt lat="43.98569" lon="0.47618">
        <ele>179</ele>
        <time>2022-08-16T15:32:23Z</time>
      </trkpt>
      <trkpt lat="43.98569" lon="0.47611">
        <ele>179</ele>
        <time>2022-08-16T15:32:26Z</time>
      </trkpt>
      <trkpt lat="43.98571" lon="0.47605">
        <ele>179</ele>
        <time>2022-08-16T15:32:30Z</time>
      </trkpt>
      <trkpt lat="43.98574" lon="0.47591">
        <ele>179</ele>
        <time>2022-08-16T15:32:38Z</time>
      </trkpt>
      <trkpt lat="43.9858" lon="0.47538">
        <ele>178</ele>
        <time>2022-08-16T15:33:09Z</time>
      </trkpt>
      <trkpt lat="43.98578" lon="0.47531">
        <ele>178</ele>
        <time>2022-08-16T15:33:13Z</time>
      </trkpt>
      <trkpt lat="43.98576" lon="0.47526">
        <ele>178</ele>
        <time>2022-08-16T15:33:17Z</time>
      </trkpt>
      <trkpt lat="43.98554" lon="0.47486">
        <ele>175</ele>
        <time>2022-08-16T15:33:49Z</time>
      </trkpt>
      <trkpt lat="43.98551" lon="0.4748">
        <ele>175</ele>
        <time>2022-08-16T15:33:53Z</time>
      </trkpt>
      <trkpt lat="43.98547" lon="0.47476">
        <ele>174</ele>
        <time>2022-08-16T15:33:57Z</time>
      </trkpt>
      <trkpt lat="43.98542" lon="0.47463">
        <ele>174</ele>
        <time>2022-08-16T15:34:05Z</time>
      </trkpt>
      <trkpt lat="43.9854" lon="0.47449">
        <ele>172</ele>
        <time>2022-08-16T15:34:14Z</time>
      </trkpt>
      <trkpt lat="43.98542" lon="0.47443">
        <ele>172</ele>
        <time>2022-08-16T15:34:18Z</time>
      </trkpt>
      <trkpt lat="43.98539" lon="0.47407">
        <ele>169</ele>
        <time>2022-08-16T15:34:38Z</time>
      </trkpt>
      <trkpt lat="43.9854" lon="0.47398">
        <ele>169</ele>
        <time>2022-08-16T15:34:43Z</time>
      </trkpt>
      <trkpt lat="43.9854" lon="0.47384">
        <ele>169</ele>
        <time>2022-08-16T15:34:49Z</time>
      </trkpt>
      <trkpt lat="43.98533" lon="0.47346">
        <ele>167</ele>
        <time>2022-08-16T15:35:09Z</time>
      </trkpt>
      <trkpt lat="43.98514" lon="0.47302">
        <ele>166</ele>
        <time>2022-08-16T15:35:40Z</time>
      </trkpt>
      <trkpt lat="43.98507" lon="0.47284">
        <ele>165</ele>
        <time>2022-08-16T15:35:55Z</time>
      </trkpt>
      <trkpt lat="43.98506" lon="0.47277">
        <ele>165</ele>
        <time>2022-08-16T15:36:00Z</time>
      </trkpt>
      <trkpt lat="43.98505" lon="0.47262">
        <ele>165</ele>
        <time>2022-08-16T15:36:09Z</time>
      </trkpt>
      <trkpt lat="43.98488" lon="0.47214">
        <ele>161</ele>
        <time>2022-08-16T15:36:43Z</time>
      </trkpt>
      <trkpt lat="43.98476" lon="0.47188">
        <ele>160</ele>
        <time>2022-08-16T15:37:02Z</time>
      </trkpt>
      <trkpt lat="43.98473" lon="0.47178">
        <ele>161</ele>
        <time>2022-08-16T15:37:10Z</time>
      </trkpt>
      <trkpt lat="43.98471" lon="0.47171">
        <ele>161</ele>
        <time>2022-08-16T15:37:14Z</time>
      </trkpt>
      <trkpt lat="43.98453" lon="0.47132">
        <ele>159</ele>
        <time>2022-08-16T15:37:41Z</time>
      </trkpt>
      <trkpt lat="43.98442" lon="0.47091">
        <ele>158</ele>
        <time>2022-08-16T15:38:07Z</time>
      </trkpt>
      <trkpt lat="43.9843" lon="0.4706">
        <ele>158</ele>
        <time>2022-08-16T15:38:38Z</time>
      </trkpt>
      <trkpt lat="43.98427" lon="0.47055">
        <ele>158</ele>
        <time>2022-08-16T15:38:42Z</time>
      </trkpt>
      <trkpt lat="43.98425" lon="0.47049">
        <ele>158</ele>
        <time>2022-08-16T15:38:46Z</time>
      </trkpt>
      <trkpt lat="43.98409" lon="0.47031">
        <ele>156</ele>
        <time>2022-08-16T15:39:04Z</time>
      </trkpt>
      <trkpt lat="43.984" lon="0.47024">
        <ele>155</ele>
        <time>2022-08-16T15:39:10Z</time>
      </trkpt>
      <trkpt lat="43.98394" lon="0.47016">
        <ele>155</ele>
        <time>2022-08-16T15:39:16Z</time>
      </trkpt>
      <trkpt lat="43.9839" lon="0.47011">
        <ele>155</ele>
        <time>2022-08-16T15:39:20Z</time>
      </trkpt>
      <trkpt lat="43.98376" lon="0.46993">
        <ele>154</ele>
        <time>2022-08-16T15:39:35Z</time>
      </trkpt>
      <trkpt lat="43.98367" lon="0.46985">
        <ele>155</ele>
        <time>2022-08-16T15:39:42Z</time>
      </trkpt>
      <trkpt lat="43.98353" lon="0.46965">
        <ele>155</ele>
        <time>2022-08-16T15:39:57Z</time>
      </trkpt>
      <trkpt lat="43.98342" lon="0.46941">
        <ele>154</ele>
        <time>2022-08-16T15:40:13Z</time>
      </trkpt>
      <trkpt lat="43.98336" lon="0.46921">
        <ele>153</ele>
        <time>2022-08-16T15:40:25Z</time>
      </trkpt>
      <trkpt lat="43.98333" lon="0.46916">
        <ele>153</ele>
        <time>2022-08-16T15:40:28Z</time>
      </trkpt>
      <trkpt lat="43.98318" lon="0.46859">
        <ele>151</ele>
        <time>2022-08-16T15:41:00Z</time>
      </trkpt>
      <trkpt lat="43.98312" lon="0.46841">
        <ele>151</ele>
        <time>2022-08-16T15:41:09Z</time>
      </trkpt>
      <trkpt lat="43.9831" lon="0.46836">
        <ele>150</ele>
        <time>2022-08-16T15:41:12Z</time>
      </trkpt>
      <trkpt lat="43.98309" lon="0.46829">
        <ele>150</ele>
        <time>2022-08-16T15:41:15Z</time>
      </trkpt>
      <trkpt lat="43.98304" lon="0.46816">
        <ele>149</ele>
        <time>2022-08-16T15:41:23Z</time>
      </trkpt>
      <trkpt lat="43.98298" lon="0.46783">
        <ele>148</ele>
        <time>2022-08-16T15:41:46Z</time>
      </trkpt>
      <trkpt lat="43.98294" lon="0.4678">
        <ele>148</ele>
        <time>2022-08-16T15:41:50Z</time>
      </trkpt>
      <trkpt lat="43.98281" lon="0.46774">
        <ele>146</ele>
        <time>2022-08-16T15:42:02Z</time>
      </trkpt>
      <trkpt lat="43.98276" lon="0.4677">
        <ele>145</ele>
        <time>2022-08-16T15:42:06Z</time>
      </trkpt>
      <trkpt lat="43.9824" lon="0.46746">
        <ele>140</ele>
        <time>2022-08-16T15:42:36Z</time>
      </trkpt>
      <trkpt lat="43.98205" lon="0.46719">
        <ele>135</ele>
        <time>2022-08-16T15:43:08Z</time>
      </trkpt>
      <trkpt lat="43.98185" lon="0.46704">
        <ele>133</ele>
        <time>2022-08-16T15:43:34Z</time>
      </trkpt>
      <trkpt lat="43.98175" lon="0.4669">
        <ele>132</ele>
        <time>2022-08-16T15:43:47Z</time>
      </trkpt>
      <trkpt lat="43.98171" lon="0.46684">
        <ele>132</ele>
        <time>2022-08-16T15:43:51Z</time>
      </trkpt>
      <trkpt lat="43.98165" lon="0.4667">
        <ele>132</ele>
        <time>2022-08-16T15:44:03Z</time>
      </trkpt>
      <trkpt lat="43.98163" lon="0.46664">
        <ele>132</ele>
        <time>2022-08-16T15:44:07Z</time>
      </trkpt>
      <trkpt lat="43.9814" lon="0.46613">
        <ele>132</ele>
        <time>2022-08-16T15:44:37Z</time>
      </trkpt>
      <trkpt lat="43.98134" lon="0.46602">
        <ele>133</ele>
        <time>2022-08-16T15:44:45Z</time>
      </trkpt>
      <trkpt lat="43.98124" lon="0.46576">
        <ele>135</ele>
        <time>2022-08-16T15:45:02Z</time>
      </trkpt>
      <trkpt lat="43.9811" lon="0.46546">
        <ele>137</ele>
        <time>2022-08-16T15:45:31Z</time>
      </trkpt>
      <trkpt lat="43.98109" lon="0.46539">
        <ele>138</ele>
        <time>2022-08-16T15:45:39Z</time>
      </trkpt>
      <trkpt lat="43.98102" lon="0.46527">
        <ele>139</ele>
        <time>2022-08-16T15:45:50Z</time>
      </trkpt>
      <trkpt lat="43.98099" lon="0.46517">
        <ele>140</ele>
        <time>2022-08-16T15:45:57Z</time>
      </trkpt>
      <trkpt lat="43.98095" lon="0.46506">
        <ele>141</ele>
        <time>2022-08-16T15:46:08Z</time>
      </trkpt>
      <trkpt lat="43.98086" lon="0.46474">
        <ele>143</ele>
        <time>2022-08-16T15:46:30Z</time>
      </trkpt>
      <trkpt lat="43.98084" lon="0.4644">
        <ele>143</ele>
        <time>2022-08-16T15:46:52Z</time>
      </trkpt>
      <trkpt lat="43.98083" lon="0.46414">
        <ele>145</ele>
        <time>2022-08-16T15:47:10Z</time>
      </trkpt>
      <trkpt lat="43.98081" lon="0.46407">
        <ele>146</ele>
        <time>2022-08-16T15:47:14Z</time>
      </trkpt>
      <trkpt lat="43.98082" lon="0.46399">
        <ele>146</ele>
        <time>2022-08-16T15:47:20Z</time>
      </trkpt>
      <trkpt lat="43.98082" lon="0.46393">
        <ele>147</ele>
        <time>2022-08-16T15:47:28Z</time>
      </trkpt>
      <trkpt lat="43.98082" lon="0.46374">
        <ele>147</ele>
        <time>2022-08-16T15:47:40Z</time>
      </trkpt>
      <trkpt lat="43.98079" lon="0.46355">
        <ele>149</ele>
        <time>2022-08-16T15:48:00Z</time>
      </trkpt>
      <trkpt lat="43.98076" lon="0.46348">
        <ele>149</ele>
        <time>2022-08-16T15:48:05Z</time>
      </trkpt>
      <trkpt lat="43.98061" lon="0.46326">
        <ele>152</ele>
        <time>2022-08-16T15:48:37Z</time>
      </trkpt>
      <trkpt lat="43.98057" lon="0.46322">
        <ele>153</ele>
        <time>2022-08-16T15:48:41Z</time>
      </trkpt>
      <trkpt lat="43.98054" lon="0.46315">
        <ele>155</ele>
        <time>2022-08-16T15:48:51Z</time>
      </trkpt>
      <trkpt lat="43.9805" lon="0.4631">
        <ele>156</ele>
        <time>2022-08-16T15:49:02Z</time>
      </trkpt>
      <trkpt lat="43.98047" lon="0.46305">
        <ele>156</ele>
        <time>2022-08-16T15:49:06Z</time>
      </trkpt>
      <trkpt lat="43.98029" lon="0.46284">
        <ele>160</ele>
        <time>2022-08-16T15:49:49Z</time>
      </trkpt>
      <trkpt lat="43.98021" lon="0.46271">
        <ele>162</ele>
        <time>2022-08-16T15:50:23Z</time>
      </trkpt>
      <trkpt lat="43.98015" lon="0.4626">
        <ele>163</ele>
        <time>2022-08-16T15:50:33Z</time>
      </trkpt>
      <trkpt lat="43.98001" lon="0.46216">
        <ele>168</ele>
        <time>2022-08-16T15:51:03Z</time>
      </trkpt>
      <trkpt lat="43.97998" lon="0.46211">
        <ele>168</ele>
        <time>2022-08-16T15:51:07Z</time>
      </trkpt>
      <trkpt lat="43.97986" lon="0.46181">
        <ele>168</ele>
        <time>2022-08-16T15:51:27Z</time>
      </trkpt>
      <trkpt lat="43.97987" lon="0.46174">
        <ele>168</ele>
        <time>2022-08-16T15:51:31Z</time>
      </trkpt>
      <trkpt lat="43.9799" lon="0.46167">
        <ele>169</ele>
        <time>2022-08-16T15:51:35Z</time>
      </trkpt>
      <trkpt lat="43.98008" lon="0.46115">
        <ele>168</ele>
        <time>2022-08-16T15:52:07Z</time>
      </trkpt>
      <trkpt lat="43.98024" lon="0.46066">
        <ele>168</ele>
        <time>2022-08-16T15:52:37Z</time>
      </trkpt>
      <trkpt lat="43.98034" lon="0.46034">
        <ele>168</ele>
        <time>2022-08-16T15:52:57Z</time>
      </trkpt>
      <trkpt lat="43.98039" lon="0.46008">
        <ele>168</ele>
        <time>2022-08-16T15:53:11Z</time>
      </trkpt>
      <trkpt lat="43.98039" lon="0.45974">
        <ele>168</ele>
        <time>2022-08-16T15:53:30Z</time>
      </trkpt>
      <trkpt lat="43.98031" lon="0.45917">
        <ele>168</ele>
        <time>2022-08-16T15:54:00Z</time>
      </trkpt>
      <trkpt lat="43.98029" lon="0.45896">
        <ele>167</ele>
        <time>2022-08-16T15:54:12Z</time>
      </trkpt>
      <trkpt lat="43.98022" lon="0.45854">
        <ele>165</ele>
        <time>2022-08-16T15:54:36Z</time>
      </trkpt>
      <trkpt lat="43.9802" lon="0.45842">
        <ele>165</ele>
        <time>2022-08-16T15:54:42Z</time>
      </trkpt>
      <trkpt lat="43.98009" lon="0.45782">
        <ele>162</ele>
        <time>2022-08-16T15:55:16Z</time>
      </trkpt>
      <trkpt lat="43.97996" lon="0.45732">
        <ele>160</ele>
        <time>2022-08-16T15:55:48Z</time>
      </trkpt>
      <trkpt lat="43.97994" lon="0.45726">
        <ele>159</ele>
        <time>2022-08-16T15:56:02Z</time>
      </trkpt>
      <trkpt lat="43.97988" lon="0.45706">
        <ele>158</ele>
        <time>2022-08-16T15:56:17Z</time>
      </trkpt>
      <trkpt lat="43.97983" lon="0.457">
        <ele>157</ele>
        <time>2022-08-16T15:56:24Z</time>
      </trkpt>
      <trkpt lat="43.9798" lon="0.45695">
        <ele>157</ele>
        <time>2022-08-16T15:56:28Z</time>
      </trkpt>
      <trkpt lat="43.97977" lon="0.45689">
        <ele>157</ele>
        <time>2022-08-16T15:56:32Z</time>
      </trkpt>
      <trkpt lat="43.97976" lon="0.45682">
        <ele>156</ele>
        <time>2022-08-16T15:56:37Z</time>
      </trkpt>
      <trkpt lat="43.97965" lon="0.45656">
        <ele>155</ele>
        <time>2022-08-16T15:56:56Z</time>
      </trkpt>
      <trkpt lat="43.97956" lon="0.45617">
        <ele>153</ele>
        <time>2022-08-16T15:57:21Z</time>
      </trkpt>
      <trkpt lat="43.97957" lon="0.45608">
        <ele>153</ele>
        <time>2022-08-16T15:57:34Z</time>
      </trkpt>
      <trkpt lat="43.97956" lon="0.45601">
        <ele>153</ele>
        <time>2022-08-16T15:57:38Z</time>
      </trkpt>
      <trkpt lat="43.97957" lon="0.45573">
        <ele>150</ele>
        <time>2022-08-16T15:57:56Z</time>
      </trkpt>
      <trkpt lat="43.9796" lon="0.45558">
        <ele>149</ele>
        <time>2022-08-16T15:58:15Z</time>
      </trkpt>
      <trkpt lat="43.97961" lon="0.4555">
        <ele>149</ele>
        <time>2022-08-16T15:58:19Z</time>
      </trkpt>
      <trkpt lat="43.97968" lon="0.45501">
        <ele>147</ele>
        <time>2022-08-16T15:58:49Z</time>
      </trkpt>
      <trkpt lat="43.97971" lon="0.45489">
        <ele>146</ele>
        <time>2022-08-16T15:58:57Z</time>
      </trkpt>
      <trkpt lat="43.97975" lon="0.45459">
        <ele>146</ele>
        <time>2022-08-16T15:59:16Z</time>
      </trkpt>
      <trkpt lat="43.97978" lon="0.4545">
        <ele>146</ele>
        <time>2022-08-16T15:59:41Z</time>
      </trkpt>
      <trkpt lat="43.97981" lon="0.45427">
        <ele>145</ele>
        <time>2022-08-16T15:59:57Z</time>
      </trkpt>
      <trkpt lat="43.97986" lon="0.45408">
        <ele>145</ele>
        <time>2022-08-16T16:00:10Z</time>
      </trkpt>
      <trkpt lat="43.97989" lon="0.4538">
        <ele>144</ele>
        <time>2022-08-16T16:00:27Z</time>
      </trkpt>
      <trkpt lat="43.97988" lon="0.4536">
        <ele>141</ele>
        <time>2022-08-17T06:08:34Z</time>
      </trkpt>
      <trkpt lat="43.97994" lon="0.45349">
        <ele>141</ele>
        <time>2022-08-17T06:08:50Z</time>
      </trkpt>
      <trkpt lat="43.97996" lon="0.45347">
        <ele>141</ele>
        <time>2022-08-17T06:09:32Z</time>
      </trkpt>
      <trkpt lat="43.98004" lon="0.45322">
        <ele>141</ele>
        <time>2022-08-17T06:10:02Z</time>
      </trkpt>
      <trkpt lat="43.98011" lon="0.45308">
        <ele>141</ele>
        <time>2022-08-17T06:10:17Z</time>
      </trkpt>
      <trkpt lat="43.98015" lon="0.45305">
        <ele>141</ele>
        <time>2022-08-17T06:10:47Z</time>
      </trkpt>
      <trkpt lat="43.9802" lon="0.45295">
        <ele>142</ele>
        <time>2022-08-17T06:11:31Z</time>
      </trkpt>
      <trkpt lat="43.98023" lon="0.45288">
        <ele>142</ele>
        <time>2022-08-17T06:11:36Z</time>
      </trkpt>
      <trkpt lat="43.98014" lon="0.45291">
        <ele>141</ele>
        <time>2022-08-17T06:11:47Z</time>
      </trkpt>
      <trkpt lat="43.9801" lon="0.45295">
        <ele>140</ele>
        <time>2022-08-17T06:11:51Z</time>
      </trkpt>
      <trkpt lat="43.98" lon="0.45291">
        <ele>139</ele>
        <time>2022-08-17T06:12:03Z</time>
      </trkpt>
      <trkpt lat="43.97993" lon="0.45284">
        <ele>138</ele>
        <time>2022-08-17T06:12:12Z</time>
      </trkpt>
      <trkpt lat="43.97987" lon="0.45282">
        <ele>137</ele>
        <time>2022-08-17T06:12:20Z</time>
      </trkpt>
      <trkpt lat="43.97983" lon="0.45285">
        <ele>136</ele>
        <time>2022-08-17T06:12:24Z</time>
      </trkpt>
      <trkpt lat="43.97979" lon="0.45293">
        <ele>136</ele>
        <time>2022-08-17T06:12:30Z</time>
      </trkpt>
      <trkpt lat="43.97979" lon="0.45299">
        <ele>136</ele>
        <time>2022-08-17T06:12:39Z</time>
      </trkpt>
      <trkpt lat="43.9797" lon="0.45296">
        <ele>136</ele>
        <time>2022-08-17T06:13:35Z</time>
      </trkpt>
      <trkpt lat="43.97961" lon="0.45293">
        <ele>134</ele>
        <time>2022-08-17T06:13:48Z</time>
      </trkpt>
      <trkpt lat="43.97953" lon="0.45293">
        <ele>134</ele>
        <time>2022-08-17T06:14:12Z</time>
      </trkpt>
      <trkpt lat="43.97927" lon="0.45284">
        <ele>131</ele>
        <time>2022-08-17T06:14:34Z</time>
      </trkpt>
      <trkpt lat="43.9791" lon="0.45286">
        <ele>130</ele>
        <time>2022-08-17T06:14:48Z</time>
      </trkpt>
      <trkpt lat="43.97874" lon="0.45304">
        <ele>126</ele>
        <time>2022-08-17T06:15:22Z</time>
      </trkpt>
      <trkpt lat="43.97861" lon="0.45314">
        <ele>124</ele>
        <time>2022-08-17T06:15:33Z</time>
      </trkpt>
      <trkpt lat="43.97856" lon="0.45314">
        <ele>124</ele>
        <time>2022-08-17T06:15:37Z</time>
      </trkpt>
      <trkpt lat="43.97817" lon="0.453">
        <ele>118</ele>
        <time>2022-08-17T06:16:09Z</time>
      </trkpt>
      <trkpt lat="43.97801" lon="0.45296">
        <ele>116</ele>
        <time>2022-08-17T06:16:22Z</time>
      </trkpt>
      <trkpt lat="43.97787" lon="0.4529">
        <ele>114</ele>
        <time>2022-08-17T06:16:34Z</time>
      </trkpt>
      <trkpt lat="43.97763" lon="0.45283">
        <ele>111</ele>
        <time>2022-08-17T06:16:56Z</time>
      </trkpt>
      <trkpt lat="43.97757" lon="0.45281">
        <ele>110</ele>
        <time>2022-08-17T06:17:07Z</time>
      </trkpt>
      <trkpt lat="43.97742" lon="0.45279">
        <ele>109</ele>
        <time>2022-08-17T06:17:19Z</time>
      </trkpt>
      <trkpt lat="43.97732" lon="0.45276">
        <ele>108</ele>
        <time>2022-08-17T06:17:27Z</time>
      </trkpt>
      <trkpt lat="43.97697" lon="0.45272">
        <ele>107</ele>
        <time>2022-08-17T06:17:57Z</time>
      </trkpt>
      <trkpt lat="43.97693" lon="0.45272">
        <ele>106</ele>
        <time>2022-08-17T06:18:20Z</time>
      </trkpt>
      <trkpt lat="43.97688" lon="0.45271">
        <ele>106</ele>
        <time>2022-08-17T06:18:42Z</time>
      </trkpt>
      <trkpt lat="43.97678" lon="0.4527">
        <ele>106</ele>
        <time>2022-08-17T06:18:51Z</time>
      </trkpt>
      <trkpt lat="43.97669" lon="0.45269">
        <ele>106</ele>
        <time>2022-08-17T06:18:59Z</time>
      </trkpt>
      <trkpt lat="43.97635" lon="0.45257">
        <ele>106</ele>
        <time>2022-08-17T06:19:31Z</time>
      </trkpt>
      <trkpt lat="43.97606" lon="0.45247">
        <ele>109</ele>
        <time>2022-08-17T06:19:57Z</time>
      </trkpt>
      <trkpt lat="43.97602" lon="0.4525">
        <ele>110</ele>
        <time>2022-08-17T06:20:02Z</time>
      </trkpt>
      <trkpt lat="43.97595" lon="0.45261">
        <ele>111</ele>
        <time>2022-08-17T06:20:12Z</time>
      </trkpt>
      <trkpt lat="43.97591" lon="0.45265">
        <ele>111</ele>
        <time>2022-08-17T06:21:11Z</time>
      </trkpt>
      <trkpt lat="43.97565" lon="0.45299">
        <ele>116</ele>
        <time>2022-08-17T06:21:47Z</time>
      </trkpt>
      <trkpt lat="43.97537" lon="0.45334">
        <ele>121</ele>
        <time>2022-08-17T06:22:19Z</time>
      </trkpt>
      <trkpt lat="43.97532" lon="0.4534">
        <ele>122</ele>
        <time>2022-08-17T06:22:23Z</time>
      </trkpt>
      <trkpt lat="43.97521" lon="0.45348">
        <ele>123</ele>
        <time>2022-08-17T06:23:20Z</time>
      </trkpt>
      <trkpt lat="43.97485" lon="0.4537">
        <ele>128</ele>
        <time>2022-08-17T06:23:52Z</time>
      </trkpt>
      <trkpt lat="43.97476" lon="0.45377">
        <ele>129</ele>
        <time>2022-08-17T06:24:01Z</time>
      </trkpt>
      <trkpt lat="43.97461" lon="0.45386">
        <ele>132</ele>
        <time>2022-08-17T06:24:16Z</time>
      </trkpt>
      <trkpt lat="43.97445" lon="0.45398">
        <ele>135</ele>
        <time>2022-08-17T06:24:33Z</time>
      </trkpt>
      <trkpt lat="43.97441" lon="0.45405">
        <ele>136</ele>
        <time>2022-08-17T06:24:38Z</time>
      </trkpt>
      <trkpt lat="43.97437" lon="0.45409">
        <ele>137</ele>
        <time>2022-08-17T06:24:44Z</time>
      </trkpt>
      <trkpt lat="43.97424" lon="0.45437">
        <ele>139</ele>
        <time>2022-08-17T06:25:07Z</time>
      </trkpt>
      <trkpt lat="43.97417" lon="0.45454">
        <ele>140</ele>
        <time>2022-08-17T06:25:19Z</time>
      </trkpt>
      <trkpt lat="43.97416" lon="0.45461">
        <ele>140</ele>
        <time>2022-08-17T06:25:23Z</time>
      </trkpt>
      <trkpt lat="43.97411" lon="0.4548">
        <ele>140</ele>
        <time>2022-08-17T06:25:36Z</time>
      </trkpt>
      <trkpt lat="43.97411" lon="0.45487">
        <ele>140</ele>
        <time>2022-08-17T06:25:41Z</time>
      </trkpt>
      <trkpt lat="43.97408" lon="0.4551">
        <ele>141</ele>
        <time>2022-08-17T06:25:55Z</time>
      </trkpt>
      <trkpt lat="43.97402" lon="0.45522">
        <ele>142</ele>
        <time>2022-08-17T06:26:04Z</time>
      </trkpt>
      <trkpt lat="43.97393" lon="0.4553">
        <ele>143</ele>
        <time>2022-08-17T06:26:12Z</time>
      </trkpt>
      <trkpt lat="43.97388" lon="0.45529">
        <ele>143</ele>
        <time>2022-08-17T06:26:16Z</time>
      </trkpt>
      <trkpt lat="43.97383" lon="0.4553">
        <ele>144</ele>
        <time>2022-08-17T06:26:20Z</time>
      </trkpt>
      <trkpt lat="43.97378" lon="0.45528">
        <ele>145</ele>
        <time>2022-08-17T06:26:25Z</time>
      </trkpt>
      <trkpt lat="43.97363" lon="0.45532">
        <ele>147</ele>
        <time>2022-08-17T06:26:39Z</time>
      </trkpt>
      <trkpt lat="43.97359" lon="0.45532">
        <ele>147</ele>
        <time>2022-08-17T06:26:42Z</time>
      </trkpt>
      <trkpt lat="43.97353" lon="0.45538">
        <ele>148</ele>
        <time>2022-08-17T06:26:54Z</time>
      </trkpt>
      <trkpt lat="43.97344" lon="0.45552">
        <ele>150</ele>
        <time>2022-08-17T06:27:08Z</time>
      </trkpt>
      <trkpt lat="43.97315" lon="0.45567">
        <ele>154</ele>
        <time>2022-08-17T06:27:45Z</time>
      </trkpt>
      <trkpt lat="43.97285" lon="0.45579">
        <ele>159</ele>
        <time>2022-08-17T06:28:16Z</time>
      </trkpt>
      <trkpt lat="43.97249" lon="0.45591">
        <ele>163</ele>
        <time>2022-08-17T06:28:47Z</time>
      </trkpt>
      <trkpt lat="43.97234" lon="0.45595">
        <ele>164</ele>
        <time>2022-08-17T06:28:59Z</time>
      </trkpt>
      <trkpt lat="43.9723" lon="0.45602">
        <ele>165</ele>
        <time>2022-08-17T06:29:05Z</time>
      </trkpt>
      <trkpt lat="43.97225" lon="0.45606">
        <ele>165</ele>
        <time>2022-08-17T06:29:09Z</time>
      </trkpt>
      <trkpt lat="43.97223" lon="0.45612">
        <ele>165</ele>
        <time>2022-08-17T06:29:22Z</time>
      </trkpt>
      <trkpt lat="43.97221" lon="0.45619">
        <ele>165</ele>
        <time>2022-08-17T06:29:27Z</time>
      </trkpt>
      <trkpt lat="43.97219" lon="0.45626">
        <ele>165</ele>
        <time>2022-08-17T06:29:33Z</time>
      </trkpt>
      <trkpt lat="43.97218" lon="0.45636">
        <ele>165</ele>
        <time>2022-08-17T06:29:40Z</time>
      </trkpt>
      <trkpt lat="43.97219" lon="0.45643">
        <ele>165</ele>
        <time>2022-08-17T06:29:44Z</time>
      </trkpt>
      <trkpt lat="43.97217" lon="0.45648">
        <ele>166</ele>
        <time>2022-08-17T06:29:53Z</time>
      </trkpt>
      <trkpt lat="43.97214" lon="0.4565">
        <ele>166</ele>
        <time>2022-08-17T06:30:52Z</time>
      </trkpt>
      <trkpt lat="43.97216" lon="0.45639">
        <ele>165</ele>
        <time>2022-08-17T06:31:16Z</time>
      </trkpt>
      <trkpt lat="43.97215" lon="0.45625">
        <ele>164</ele>
        <time>2022-08-17T06:32:15Z</time>
      </trkpt>
      <trkpt lat="43.9722" lon="0.45615">
        <ele>164</ele>
        <time>2022-08-17T06:32:20Z</time>
      </trkpt>
      <trkpt lat="43.97215" lon="0.45608">
        <ele>163</ele>
        <time>2022-08-17T06:32:36Z</time>
      </trkpt>
      <trkpt lat="43.97191" lon="0.45625">
        <ele>160</ele>
        <time>2022-08-17T06:32:57Z</time>
      </trkpt>
      <trkpt lat="43.97187" lon="0.4563">
        <ele>160</ele>
        <time>2022-08-17T06:33:01Z</time>
      </trkpt>
      <trkpt lat="43.9717" lon="0.45645">
        <ele>159</ele>
        <time>2022-08-17T06:33:18Z</time>
      </trkpt>
      <trkpt lat="43.97165" lon="0.45642">
        <ele>158</ele>
        <time>2022-08-17T06:33:23Z</time>
      </trkpt>
      <trkpt lat="43.97152" lon="0.45631">
        <ele>155</ele>
        <time>2022-08-17T06:33:37Z</time>
      </trkpt>
      <trkpt lat="43.97135" lon="0.45621">
        <ele>152</ele>
        <time>2022-08-17T06:33:58Z</time>
      </trkpt>
      <trkpt lat="43.97125" lon="0.45627">
        <ele>150</ele>
        <time>2022-08-17T06:34:08Z</time>
      </trkpt>
      <trkpt lat="43.971" lon="0.45628">
        <ele>146</ele>
        <time>2022-08-17T06:34:31Z</time>
      </trkpt>
      <trkpt lat="43.97092" lon="0.45624">
        <ele>145</ele>
        <time>2022-08-17T06:34:45Z</time>
      </trkpt>
      <trkpt lat="43.97086" lon="0.45624">
        <ele>144</ele>
        <time>2022-08-17T06:34:51Z</time>
      </trkpt>
      <trkpt lat="43.97077" lon="0.45606">
        <ele>140</ele>
        <time>2022-08-17T06:35:06Z</time>
      </trkpt>
      <trkpt lat="43.97073" lon="0.4559">
        <ele>138</ele>
        <time>2022-08-17T06:35:18Z</time>
      </trkpt>
      <trkpt lat="43.97073" lon="0.45583">
        <ele>137</ele>
        <time>2022-08-17T06:35:23Z</time>
      </trkpt>
      <trkpt lat="43.97071" lon="0.45571">
        <ele>135</ele>
        <time>2022-08-17T06:35:38Z</time>
      </trkpt>
      <trkpt lat="43.97072" lon="0.45565">
        <ele>134</ele>
        <time>2022-08-17T06:35:44Z</time>
      </trkpt>
      <trkpt lat="43.97071" lon="0.45558">
        <ele>134</ele>
        <time>2022-08-17T06:35:49Z</time>
      </trkpt>
      <trkpt lat="43.97072" lon="0.45552">
        <ele>133</ele>
        <time>2022-08-17T06:35:55Z</time>
      </trkpt>
      <trkpt lat="43.97068" lon="0.4553">
        <ele>130</ele>
        <time>2022-08-17T06:36:13Z</time>
      </trkpt>
      <trkpt lat="43.97068" lon="0.45514">
        <ele>129</ele>
        <time>2022-08-17T06:36:23Z</time>
      </trkpt>
      <trkpt lat="43.97066" lon="0.455">
        <ele>128</ele>
        <time>2022-08-17T06:36:35Z</time>
      </trkpt>
      <trkpt lat="43.97067" lon="0.4548">
        <ele>125</ele>
        <time>2022-08-17T06:36:52Z</time>
      </trkpt>
      <trkpt lat="43.97063" lon="0.45467">
        <ele>123</ele>
        <time>2022-08-17T06:37:03Z</time>
      </trkpt>
      <trkpt lat="43.97062" lon="0.45458">
        <ele>122</ele>
        <time>2022-08-17T06:37:10Z</time>
      </trkpt>
      <trkpt lat="43.9706" lon="0.45452">
        <ele>122</ele>
        <time>2022-08-17T06:37:14Z</time>
      </trkpt>
      <trkpt lat="43.9706" lon="0.45443">
        <ele>121</ele>
        <time>2022-08-17T06:37:21Z</time>
      </trkpt>
      <trkpt lat="43.97061" lon="0.45428">
        <ele>118</ele>
        <time>2022-08-17T06:37:34Z</time>
      </trkpt>
      <trkpt lat="43.97057" lon="0.45406">
        <ele>115</ele>
        <time>2022-08-17T06:37:49Z</time>
      </trkpt>
      <trkpt lat="43.97058" lon="0.454">
        <ele>114</ele>
        <time>2022-08-17T06:37:54Z</time>
      </trkpt>
      <trkpt lat="43.97053" lon="0.45373">
        <ele>110</ele>
        <time>2022-08-17T06:38:15Z</time>
      </trkpt>
      <trkpt lat="43.97054" lon="0.45363">
        <ele>109</ele>
        <time>2022-08-17T06:38:22Z</time>
      </trkpt>
      <trkpt lat="43.9705" lon="0.45349">
        <ele>108</ele>
        <time>2022-08-17T06:38:36Z</time>
      </trkpt>
      <trkpt lat="43.97049" lon="0.45344">
        <ele>108</ele>
        <time>2022-08-17T06:38:56Z</time>
      </trkpt>
      <trkpt lat="43.97045" lon="0.45339">
        <ele>108</ele>
        <time>2022-08-17T06:39:08Z</time>
      </trkpt>
      <trkpt lat="43.97038" lon="0.45335">
        <ele>108</ele>
        <time>2022-08-17T06:39:20Z</time>
      </trkpt>
      <trkpt lat="43.97038" lon="0.45328">
        <ele>107</ele>
        <time>2022-08-17T06:39:26Z</time>
      </trkpt>
      <trkpt lat="43.97041" lon="0.45322">
        <ele>106</ele>
        <time>2022-08-17T06:39:37Z</time>
      </trkpt>
      <trkpt lat="43.97045" lon="0.45312">
        <ele>106</ele>
        <time>2022-08-17T06:39:48Z</time>
      </trkpt>
      <trkpt lat="43.97043" lon="0.45281">
        <ele>105</ele>
        <time>2022-08-17T06:40:19Z</time>
      </trkpt>
      <trkpt lat="43.97041" lon="0.4526">
        <ele>104</ele>
        <time>2022-08-17T06:40:33Z</time>
      </trkpt>
      <trkpt lat="43.9704" lon="0.45252">
        <ele>104</ele>
        <time>2022-08-17T06:40:39Z</time>
      </trkpt>
      <trkpt lat="43.97041" lon="0.45242">
        <ele>105</ele>
        <time>2022-08-17T06:40:48Z</time>
      </trkpt>
      <trkpt lat="43.97036" lon="0.45225">
        <ele>104</ele>
        <time>2022-08-17T06:40:58Z</time>
      </trkpt>
      <trkpt lat="43.97029" lon="0.45194">
        <ele>103</ele>
        <time>2022-08-17T06:41:18Z</time>
      </trkpt>
      <trkpt lat="43.97014" lon="0.45161">
        <ele>103</ele>
        <time>2022-08-17T06:41:44Z</time>
      </trkpt>
      <trkpt lat="43.96997" lon="0.45108">
        <ele>103</ele>
        <time>2022-08-17T06:42:16Z</time>
      </trkpt>
      <trkpt lat="43.96989" lon="0.45089">
        <ele>104</ele>
        <time>2022-08-17T06:42:31Z</time>
      </trkpt>
      <trkpt lat="43.96959" lon="0.45069">
        <ele>105</ele>
        <time>2022-08-17T06:42:59Z</time>
      </trkpt>
      <trkpt lat="43.96932" lon="0.45057">
        <ele>105</ele>
        <time>2022-08-17T06:43:34Z</time>
      </trkpt>
      <trkpt lat="43.96914" lon="0.45052">
        <ele>106</ele>
        <time>2022-08-17T06:43:49Z</time>
      </trkpt>
      <trkpt lat="43.96909" lon="0.45052">
        <ele>106</ele>
        <time>2022-08-17T06:43:53Z</time>
      </trkpt>
      <trkpt lat="43.96884" lon="0.45046">
        <ele>106</ele>
        <time>2022-08-17T06:44:15Z</time>
      </trkpt>
      <trkpt lat="43.96874" lon="0.45046">
        <ele>106</ele>
        <time>2022-08-17T06:44:25Z</time>
      </trkpt>
      <trkpt lat="43.96869" lon="0.45043">
        <ele>106</ele>
        <time>2022-08-17T06:44:30Z</time>
      </trkpt>
      <trkpt lat="43.96832" lon="0.45038">
        <ele>105</ele>
        <time>2022-08-17T06:45:02Z</time>
      </trkpt>
      <trkpt lat="43.96827" lon="0.45036">
        <ele>105</ele>
        <time>2022-08-17T06:45:06Z</time>
      </trkpt>
      <trkpt lat="43.96823" lon="0.45032">
        <ele>105</ele>
        <time>2022-08-17T06:45:10Z</time>
      </trkpt>
      <trkpt lat="43.96816" lon="0.45031">
        <ele>106</ele>
        <time>2022-08-17T06:45:18Z</time>
      </trkpt>
      <trkpt lat="43.96811" lon="0.45025">
        <ele>106</ele>
        <time>2022-08-17T06:45:24Z</time>
      </trkpt>
      <trkpt lat="43.968" lon="0.45019">
        <ele>107</ele>
        <time>2022-08-17T06:45:39Z</time>
      </trkpt>
      <trkpt lat="43.96789" lon="0.45009">
        <ele>109</ele>
        <time>2022-08-17T06:45:54Z</time>
      </trkpt>
      <trkpt lat="43.96767" lon="0.44995">
        <ele>112</ele>
        <time>2022-08-17T06:46:18Z</time>
      </trkpt>
      <trkpt lat="43.96743" lon="0.44956">
        <ele>113</ele>
        <time>2022-08-17T06:46:52Z</time>
      </trkpt>
      <trkpt lat="43.96739" lon="0.44951">
        <ele>114</ele>
        <time>2022-08-17T06:46:56Z</time>
      </trkpt>
      <trkpt lat="43.96736" lon="0.44945">
        <ele>114</ele>
        <time>2022-08-17T06:47:33Z</time>
      </trkpt>
      <trkpt lat="43.96724" lon="0.44928">
        <ele>114</ele>
        <time>2022-08-17T06:47:52Z</time>
      </trkpt>
      <trkpt lat="43.96721" lon="0.4492">
        <ele>115</ele>
        <time>2022-08-17T06:48:03Z</time>
      </trkpt>
      <trkpt lat="43.96697" lon="0.44882">
        <ele>116</ele>
        <time>2022-08-17T06:48:37Z</time>
      </trkpt>
      <trkpt lat="43.96679" lon="0.44857">
        <ele>118</ele>
        <time>2022-08-17T06:48:59Z</time>
      </trkpt>
      <trkpt lat="43.96657" lon="0.44817">
        <ele>121</ele>
        <time>2022-08-17T06:49:30Z</time>
      </trkpt>
      <trkpt lat="43.96651" lon="0.44806">
        <ele>122</ele>
        <time>2022-08-17T06:49:40Z</time>
      </trkpt>
      <trkpt lat="43.96621" lon="0.44776">
        <ele>126</ele>
        <time>2022-08-17T06:50:11Z</time>
      </trkpt>
      <trkpt lat="43.96608" lon="0.44764">
        <ele>127</ele>
        <time>2022-08-17T06:50:32Z</time>
      </trkpt>
      <trkpt lat="43.96589" lon="0.44743">
        <ele>130</ele>
        <time>2022-08-17T06:51:04Z</time>
      </trkpt>
      <trkpt lat="43.96577" lon="0.44726">
        <ele>133</ele>
        <time>2022-08-17T06:51:23Z</time>
      </trkpt>
      <trkpt lat="43.9657" lon="0.44722">
        <ele>134</ele>
        <time>2022-08-17T06:51:31Z</time>
      </trkpt>
      <trkpt lat="43.96549" lon="0.44697">
        <ele>137</ele>
        <time>2022-08-17T06:52:18Z</time>
      </trkpt>
      <trkpt lat="43.96543" lon="0.44686">
        <ele>138</ele>
        <time>2022-08-17T06:52:27Z</time>
      </trkpt>
      <trkpt lat="43.96535" lon="0.44679">
        <ele>140</ele>
        <time>2022-08-17T06:52:38Z</time>
      </trkpt>
      <trkpt lat="43.9653" lon="0.44676">
        <ele>140</ele>
        <time>2022-08-17T06:52:43Z</time>
      </trkpt>
      <trkpt lat="43.96525" lon="0.44676">
        <ele>141</ele>
        <time>2022-08-17T06:52:48Z</time>
      </trkpt>
      <trkpt lat="43.96508" lon="0.44662">
        <ele>144</ele>
        <time>2022-08-17T06:53:11Z</time>
      </trkpt>
      <trkpt lat="43.96493" lon="0.44657">
        <ele>144</ele>
        <time>2022-08-17T06:53:24Z</time>
      </trkpt>
      <trkpt lat="43.96465" lon="0.44637">
        <ele>147</ele>
        <time>2022-08-17T06:53:55Z</time>
      </trkpt>
      <trkpt lat="43.96448" lon="0.44622">
        <ele>150</ele>
        <time>2022-08-17T06:54:15Z</time>
      </trkpt>
      <trkpt lat="43.96441" lon="0.44614">
        <ele>151</ele>
        <time>2022-08-17T06:54:24Z</time>
      </trkpt>
      <trkpt lat="43.96438" lon="0.44602">
        <ele>153</ele>
        <time>2022-08-17T06:54:49Z</time>
      </trkpt>
      <trkpt lat="43.96438" lon="0.44595">
        <ele>153</ele>
        <time>2022-08-17T06:54:54Z</time>
      </trkpt>
      <trkpt lat="43.96438" lon="0.44581">
        <ele>153</ele>
        <time>2022-08-17T06:55:04Z</time>
      </trkpt>
      <trkpt lat="43.96437" lon="0.44573">
        <ele>154</ele>
        <time>2022-08-17T06:55:11Z</time>
      </trkpt>
      <trkpt lat="43.96428" lon="0.44568">
        <ele>154</ele>
        <time>2022-08-17T06:55:30Z</time>
      </trkpt>
      <trkpt lat="43.96424" lon="0.44562">
        <ele>154</ele>
        <time>2022-08-17T06:55:49Z</time>
      </trkpt>
      <trkpt lat="43.96421" lon="0.44557">
        <ele>154</ele>
        <time>2022-08-17T06:55:55Z</time>
      </trkpt>
      <trkpt lat="43.96413" lon="0.44551">
        <ele>155</ele>
        <time>2022-08-17T06:56:07Z</time>
      </trkpt>
      <trkpt lat="43.96408" lon="0.44547">
        <ele>155</ele>
        <time>2022-08-17T06:56:30Z</time>
      </trkpt>
      <trkpt lat="43.96414" lon="0.44549">
        <ele>154</ele>
        <time>2022-08-17T06:58:18Z</time>
      </trkpt>
      <trkpt lat="43.96421" lon="0.44555">
        <ele>154</ele>
        <time>2022-08-17T06:58:27Z</time>
      </trkpt>
      <trkpt lat="43.96429" lon="0.44567">
        <ele>154</ele>
        <time>2022-08-17T06:58:35Z</time>
      </trkpt>
      <trkpt lat="43.96432" lon="0.44574">
        <ele>153</ele>
        <time>2022-08-17T06:59:07Z</time>
      </trkpt>
      <trkpt lat="43.96438" lon="0.44568">
        <ele>152</ele>
        <time>2022-08-17T06:59:12Z</time>
      </trkpt>
      <trkpt lat="43.96444" lon="0.44557">
        <ele>152</ele>
        <time>2022-08-17T06:59:19Z</time>
      </trkpt>
      <trkpt lat="43.96445" lon="0.4455">
        <ele>152</ele>
        <time>2022-08-17T06:59:23Z</time>
      </trkpt>
      <trkpt lat="43.96447" lon="0.44544">
        <ele>152</ele>
        <time>2022-08-17T06:59:26Z</time>
      </trkpt>
      <trkpt lat="43.96448" lon="0.44502">
        <ele>153</ele>
        <time>2022-08-17T06:59:51Z</time>
      </trkpt>
      <trkpt lat="43.96446" lon="0.4448">
        <ele>153</ele>
        <time>2022-08-17T07:00:24Z</time>
      </trkpt>
      <trkpt lat="43.96447" lon="0.44473">
        <ele>153</ele>
        <time>2022-08-17T07:00:28Z</time>
      </trkpt>
      <trkpt lat="43.96457" lon="0.44425">
        <ele>154</ele>
        <time>2022-08-17T07:00:54Z</time>
      </trkpt>
      <trkpt lat="43.96459" lon="0.44411">
        <ele>154</ele>
        <time>2022-08-17T07:01:02Z</time>
      </trkpt>
      <trkpt lat="43.96458" lon="0.44397">
        <ele>155</ele>
        <time>2022-08-17T07:01:09Z</time>
      </trkpt>
      <trkpt lat="43.96453" lon="0.44386">
        <ele>156</ele>
        <time>2022-08-17T07:01:17Z</time>
      </trkpt>
      <trkpt lat="43.9642" lon="0.44355">
        <ele>158</ele>
        <time>2022-08-17T07:01:49Z</time>
      </trkpt>
      <trkpt lat="43.96388" lon="0.44324">
        <ele>161</ele>
        <time>2022-08-17T07:02:22Z</time>
      </trkpt>
      <trkpt lat="43.96371" lon="0.443">
        <ele>163</ele>
        <time>2022-08-17T07:02:42Z</time>
      </trkpt>
      <trkpt lat="43.96362" lon="0.44284">
        <ele>164</ele>
        <time>2022-08-17T07:02:53Z</time>
      </trkpt>
      <trkpt lat="43.96347" lon="0.44256">
        <ele>164</ele>
        <time>2022-08-17T07:03:13Z</time>
      </trkpt>
      <trkpt lat="43.96345" lon="0.44249">
        <ele>164</ele>
        <time>2022-08-17T07:03:18Z</time>
      </trkpt>
      <trkpt lat="43.96343" lon="0.44243">
        <ele>164</ele>
        <time>2022-08-17T07:03:21Z</time>
      </trkpt>
      <trkpt lat="43.96342" lon="0.44235">
        <ele>165</ele>
        <time>2022-08-17T07:03:25Z</time>
      </trkpt>
      <trkpt lat="43.96344" lon="0.44229">
        <ele>165</ele>
        <time>2022-08-17T07:03:29Z</time>
      </trkpt>
      <trkpt lat="43.96366" lon="0.44189">
        <ele>166</ele>
        <time>2022-08-17T07:03:59Z</time>
      </trkpt>
      <trkpt lat="43.9637" lon="0.44185">
        <ele>166</ele>
        <time>2022-08-17T07:04:02Z</time>
      </trkpt>
      <trkpt lat="43.96375" lon="0.44174">
        <ele>167</ele>
        <time>2022-08-17T07:04:09Z</time>
      </trkpt>
      <trkpt lat="43.96381" lon="0.44162">
        <ele>167</ele>
        <time>2022-08-17T07:04:17Z</time>
      </trkpt>
      <trkpt lat="43.96384" lon="0.44155">
        <ele>167</ele>
        <time>2022-08-17T07:04:22Z</time>
      </trkpt>
      <trkpt lat="43.96387" lon="0.4415">
        <ele>167</ele>
        <time>2022-08-17T07:04:26Z</time>
      </trkpt>
      <trkpt lat="43.96389" lon="0.44143">
        <ele>168</ele>
        <time>2022-08-17T07:04:31Z</time>
      </trkpt>
      <trkpt lat="43.9639" lon="0.44135">
        <ele>168</ele>
        <time>2022-08-17T07:04:35Z</time>
      </trkpt>
      <trkpt lat="43.96388" lon="0.44121">
        <ele>168</ele>
        <time>2022-08-17T07:04:43Z</time>
      </trkpt>
      <trkpt lat="43.96383" lon="0.44119">
        <ele>168</ele>
        <time>2022-08-17T07:04:48Z</time>
      </trkpt>
      <trkpt lat="43.96368" lon="0.44113">
        <ele>169</ele>
        <time>2022-08-17T07:05:00Z</time>
      </trkpt>
      <trkpt lat="43.96354" lon="0.44102">
        <ele>169</ele>
        <time>2022-08-17T07:05:13Z</time>
      </trkpt>
      <trkpt lat="43.96349" lon="0.44102">
        <ele>169</ele>
        <time>2022-08-17T07:05:17Z</time>
      </trkpt>
      <trkpt lat="43.96339" lon="0.44097">
        <ele>169</ele>
        <time>2022-08-17T07:05:25Z</time>
      </trkpt>
      <trkpt lat="43.96297" lon="0.44077">
        <ele>166</ele>
        <time>2022-08-17T07:05:59Z</time>
      </trkpt>
      <trkpt lat="43.96257" lon="0.44063">
        <ele>163</ele>
        <time>2022-08-17T07:06:31Z</time>
      </trkpt>
      <trkpt lat="43.96243" lon="0.44058">
        <ele>162</ele>
        <time>2022-08-17T07:06:43Z</time>
      </trkpt>
      <trkpt lat="43.96237" lon="0.44058">
        <ele>162</ele>
        <time>2022-08-17T07:06:47Z</time>
      </trkpt>
      <trkpt lat="43.96195" lon="0.44046">
        <ele>161</ele>
        <time>2022-08-17T07:07:19Z</time>
      </trkpt>
      <trkpt lat="43.96154" lon="0.44033">
        <ele>161</ele>
        <time>2022-08-17T07:07:51Z</time>
      </trkpt>
      <trkpt lat="43.96112" lon="0.44022">
        <ele>164</ele>
        <time>2022-08-17T07:08:23Z</time>
      </trkpt>
      <trkpt lat="43.96096" lon="0.44018">
        <ele>165</ele>
        <time>2022-08-17T07:08:35Z</time>
      </trkpt>
      <trkpt lat="43.96054" lon="0.4402">
        <ele>166</ele>
        <time>2022-08-17T07:09:07Z</time>
      </trkpt>
      <trkpt lat="43.9602" lon="0.44029">
        <ele>165</ele>
        <time>2022-08-17T07:09:33Z</time>
      </trkpt>
      <trkpt lat="43.95989" lon="0.44039">
        <ele>165</ele>
        <time>2022-08-17T07:09:57Z</time>
      </trkpt>
      <trkpt lat="43.95979" lon="0.44042">
        <ele>164</ele>
        <time>2022-08-17T07:10:05Z</time>
      </trkpt>
      <trkpt lat="43.95935" lon="0.44062">
        <ele>166</ele>
        <time>2022-08-17T07:10:54Z</time>
      </trkpt>
      <trkpt lat="43.9593" lon="0.4406">
        <ele>166</ele>
        <time>2022-08-17T07:10:58Z</time>
      </trkpt>
      <trkpt lat="43.95928" lon="0.44055">
        <ele>165</ele>
        <time>2022-08-17T07:11:02Z</time>
      </trkpt>
      <trkpt lat="43.95928" lon="0.44048">
        <ele>165</ele>
        <time>2022-08-17T07:11:07Z</time>
      </trkpt>
      <trkpt lat="43.95922" lon="0.43993">
        <ele>160</ele>
        <time>2022-08-17T07:11:38Z</time>
      </trkpt>
      <trkpt lat="43.95918" lon="0.43951">
        <ele>158</ele>
        <time>2022-08-17T07:12:03Z</time>
      </trkpt>
      <trkpt lat="43.95919" lon="0.43944">
        <ele>157</ele>
        <time>2022-08-17T07:12:07Z</time>
      </trkpt>
      <trkpt lat="43.95917" lon="0.43935">
        <ele>157</ele>
        <time>2022-08-17T07:12:12Z</time>
      </trkpt>
      <trkpt lat="43.95918" lon="0.43922">
        <ele>156</ele>
        <time>2022-08-17T07:12:20Z</time>
      </trkpt>
      <trkpt lat="43.95916" lon="0.43915">
        <ele>156</ele>
        <time>2022-08-17T07:12:24Z</time>
      </trkpt>
      <trkpt lat="43.95915" lon="0.43882">
        <ele>154</ele>
        <time>2022-08-17T07:12:42Z</time>
      </trkpt>
      <trkpt lat="43.95913" lon="0.43876">
        <ele>154</ele>
        <time>2022-08-17T07:12:46Z</time>
      </trkpt>
      <trkpt lat="43.95911" lon="0.4382">
        <ele>152</ele>
        <time>2022-08-17T07:13:17Z</time>
      </trkpt>
      <trkpt lat="43.9591" lon="0.43813">
        <ele>152</ele>
        <time>2022-08-17T07:13:21Z</time>
      </trkpt>
      <trkpt lat="43.95908" lon="0.43755">
        <ele>150</ele>
        <time>2022-08-17T07:13:53Z</time>
      </trkpt>
      <trkpt lat="43.95905" lon="0.43734">
        <ele>149</ele>
        <time>2022-08-17T07:14:04Z</time>
      </trkpt>
      <trkpt lat="43.95909" lon="0.43707">
        <ele>149</ele>
        <time>2022-08-17T07:14:22Z</time>
      </trkpt>
      <trkpt lat="43.95909" lon="0.43665">
        <ele>148</ele>
        <time>2022-08-17T07:14:49Z</time>
      </trkpt>
      <trkpt lat="43.95911" lon="0.43658">
        <ele>148</ele>
        <time>2022-08-17T07:14:53Z</time>
      </trkpt>
      <trkpt lat="43.95913" lon="0.43652">
        <ele>148</ele>
        <time>2022-08-17T07:14:57Z</time>
      </trkpt>
      <trkpt lat="43.95917" lon="0.4364">
        <ele>146</ele>
        <time>2022-08-17T07:15:06Z</time>
      </trkpt>
      <trkpt lat="43.95922" lon="0.43627">
        <ele>146</ele>
        <time>2022-08-17T07:15:15Z</time>
      </trkpt>
      <trkpt lat="43.95932" lon="0.43595">
        <ele>145</ele>
        <time>2022-08-17T07:15:34Z</time>
      </trkpt>
      <trkpt lat="43.95933" lon="0.43588">
        <ele>145</ele>
        <time>2022-08-17T07:15:39Z</time>
      </trkpt>
      <trkpt lat="43.95932" lon="0.43581">
        <ele>145</ele>
        <time>2022-08-17T07:15:43Z</time>
      </trkpt>
      <trkpt lat="43.95939" lon="0.43532">
        <ele>142</ele>
        <time>2022-08-17T07:16:14Z</time>
      </trkpt>
      <trkpt lat="43.9594" lon="0.43526">
        <ele>142</ele>
        <time>2022-08-17T07:16:18Z</time>
      </trkpt>
      <trkpt lat="43.9595" lon="0.43477">
        <ele>137</ele>
        <time>2022-08-17T07:16:49Z</time>
      </trkpt>
      <trkpt lat="43.95951" lon="0.4347">
        <ele>136</ele>
        <time>2022-08-17T07:16:53Z</time>
      </trkpt>
      <trkpt lat="43.9595" lon="0.43455">
        <ele>135</ele>
        <time>2022-08-17T07:17:02Z</time>
      </trkpt>
      <trkpt lat="43.95951" lon="0.43449">
        <ele>134</ele>
        <time>2022-08-17T07:17:06Z</time>
      </trkpt>
      <trkpt lat="43.95951" lon="0.43443">
        <ele>133</ele>
        <time>2022-08-17T07:17:10Z</time>
      </trkpt>
      <trkpt lat="43.95952" lon="0.43421">
        <ele>130</ele>
        <time>2022-08-17T07:17:27Z</time>
      </trkpt>
      <trkpt lat="43.95951" lon="0.43414">
        <ele>129</ele>
        <time>2022-08-17T07:17:31Z</time>
      </trkpt>
      <trkpt lat="43.95952" lon="0.43408">
        <ele>128</ele>
        <time>2022-08-17T07:17:35Z</time>
      </trkpt>
      <trkpt lat="43.95951" lon="0.43401">
        <ele>127</ele>
        <time>2022-08-17T07:17:40Z</time>
      </trkpt>
      <trkpt lat="43.95947" lon="0.43397">
        <ele>126</ele>
        <time>2022-08-17T07:17:44Z</time>
      </trkpt>
      <trkpt lat="43.95943" lon="0.43395">
        <ele>127</ele>
        <time>2022-08-17T07:18:01Z</time>
      </trkpt>
      <trkpt lat="43.95936" lon="0.43393">
        <ele>127</ele>
        <time>2022-08-17T07:18:14Z</time>
      </trkpt>
      <trkpt lat="43.95899" lon="0.43396">
        <ele>126</ele>
        <time>2022-08-17T07:18:46Z</time>
      </trkpt>
      <trkpt lat="43.95863" lon="0.43399">
        <ele>125</ele>
        <time>2022-08-17T07:19:18Z</time>
      </trkpt>
      <trkpt lat="43.95857" lon="0.434">
        <ele>126</ele>
        <time>2022-08-17T07:19:22Z</time>
      </trkpt>
      <trkpt lat="43.95851" lon="0.43401">
        <ele>125</ele>
        <time>2022-08-17T07:19:27Z</time>
      </trkpt>
      <trkpt lat="43.95845" lon="0.43399">
        <ele>125</ele>
        <time>2022-08-17T07:19:32Z</time>
      </trkpt>
      <trkpt lat="43.95818" lon="0.43399">
        <ele>126</ele>
        <time>2022-08-17T07:19:51Z</time>
      </trkpt>
      <trkpt lat="43.95814" lon="0.43396">
        <ele>126</ele>
        <time>2022-08-17T07:19:56Z</time>
      </trkpt>
      <trkpt lat="43.9581" lon="0.4339">
        <ele>126</ele>
        <time>2022-08-17T07:20:06Z</time>
      </trkpt>
      <trkpt lat="43.95808" lon="0.43383">
        <ele>126</ele>
        <time>2022-08-17T07:20:12Z</time>
      </trkpt>
      <trkpt lat="43.95811" lon="0.43377">
        <ele>126</ele>
        <time>2022-08-17T07:20:17Z</time>
      </trkpt>
      <trkpt lat="43.95815" lon="0.43375">
        <ele>126</ele>
        <time>2022-08-17T07:20:21Z</time>
      </trkpt>
      <trkpt lat="43.95819" lon="0.43373">
        <ele>126</ele>
        <time>2022-08-17T07:20:24Z</time>
      </trkpt>
      <trkpt lat="43.95832" lon="0.43362">
        <ele>126</ele>
        <time>2022-08-17T07:20:36Z</time>
      </trkpt>
      <trkpt lat="43.95853" lon="0.43355">
        <ele>125</ele>
        <time>2022-08-17T07:21:06Z</time>
      </trkpt>
      <trkpt lat="43.95862" lon="0.43351">
        <ele>125</ele>
        <time>2022-08-17T07:21:15Z</time>
      </trkpt>
      <trkpt lat="43.95867" lon="0.43348">
        <ele>125</ele>
        <time>2022-08-17T07:21:20Z</time>
      </trkpt>
      <trkpt lat="43.95872" lon="0.43348">
        <ele>125</ele>
        <time>2022-08-17T07:21:24Z</time>
      </trkpt>
      <trkpt lat="43.95891" lon="0.43338">
        <ele>125</ele>
        <time>2022-08-17T07:21:42Z</time>
      </trkpt>
      <trkpt lat="43.95895" lon="0.43334">
        <ele>125</ele>
        <time>2022-08-17T07:21:53Z</time>
      </trkpt>
      <trkpt lat="43.95905" lon="0.43325">
        <ele>126</ele>
        <time>2022-08-17T07:22:03Z</time>
      </trkpt>
      <trkpt lat="43.95908" lon="0.43321">
        <ele>126</ele>
        <time>2022-08-17T07:22:08Z</time>
      </trkpt>
      <trkpt lat="43.95912" lon="0.43316">
        <ele>126</ele>
        <time>2022-08-17T07:22:12Z</time>
      </trkpt>
      <trkpt lat="43.95924" lon="0.43301">
        <ele>126</ele>
        <time>2022-08-17T07:22:26Z</time>
      </trkpt>
      <trkpt lat="43.95932" lon="0.43294">
        <ele>126</ele>
        <time>2022-08-17T07:22:34Z</time>
      </trkpt>
      <trkpt lat="43.95963" lon="0.43276">
        <ele>127</ele>
        <time>2022-08-17T07:23:02Z</time>
      </trkpt>
      <trkpt lat="43.9599" lon="0.43254">
        <ele>126</ele>
        <time>2022-08-17T07:23:26Z</time>
      </trkpt>
      <trkpt lat="43.95995" lon="0.43251">
        <ele>127</ele>
        <time>2022-08-17T07:23:30Z</time>
      </trkpt>
      <trkpt lat="43.96023" lon="0.43237">
        <ele>126</ele>
        <time>2022-08-17T07:23:55Z</time>
      </trkpt>
      <trkpt lat="43.96025" lon="0.43232">
        <ele>126</ele>
        <time>2022-08-17T07:24:13Z</time>
      </trkpt>
      <trkpt lat="43.96033" lon="0.43225">
        <ele>126</ele>
        <time>2022-08-17T07:24:41Z</time>
      </trkpt>
      <trkpt lat="43.9604" lon="0.43225">
        <ele>126</ele>
        <time>2022-08-17T07:24:48Z</time>
      </trkpt>
      <trkpt lat="43.96076" lon="0.43203">
        <ele>126</ele>
        <time>2022-08-17T07:25:22Z</time>
      </trkpt>
      <trkpt lat="43.96096" lon="0.43191">
        <ele>125</ele>
        <time>2022-08-17T07:25:38Z</time>
      </trkpt>
      <trkpt lat="43.96123" lon="0.43156">
        <ele>125</ele>
        <time>2022-08-17T07:26:24Z</time>
      </trkpt>
      <trkpt lat="43.96133" lon="0.43142">
        <ele>126</ele>
        <time>2022-08-17T07:26:36Z</time>
      </trkpt>
      <trkpt lat="43.9614" lon="0.43132">
        <ele>126</ele>
        <time>2022-08-17T07:26:44Z</time>
      </trkpt>
      <trkpt lat="43.96144" lon="0.43128">
        <ele>126</ele>
        <time>2022-08-17T07:26:48Z</time>
      </trkpt>
      <trkpt lat="43.96148" lon="0.43124">
        <ele>125</ele>
        <time>2022-08-17T07:26:52Z</time>
      </trkpt>
      <trkpt lat="43.96152" lon="0.43119">
        <ele>125</ele>
        <time>2022-08-17T07:26:56Z</time>
      </trkpt>
      <trkpt lat="43.96167" lon="0.431">
        <ele>125</ele>
        <time>2022-08-17T07:27:14Z</time>
      </trkpt>
      <trkpt lat="43.96175" lon="0.43091">
        <ele>125</ele>
        <time>2022-08-17T07:27:22Z</time>
      </trkpt>
      <trkpt lat="43.96188" lon="0.4308">
        <ele>125</ele>
        <time>2022-08-17T07:27:34Z</time>
      </trkpt>
      <trkpt lat="43.96198" lon="0.43075">
        <ele>125</ele>
        <time>2022-08-17T07:27:43Z</time>
      </trkpt>
      <trkpt lat="43.96201" lon="0.4307">
        <ele>125</ele>
        <time>2022-08-17T07:27:47Z</time>
      </trkpt>
      <trkpt lat="43.96235" lon="0.43046">
        <ele>126</ele>
        <time>2022-08-17T07:28:20Z</time>
      </trkpt>
      <trkpt lat="43.96252" lon="0.43031">
        <ele>125</ele>
        <time>2022-08-17T07:28:37Z</time>
      </trkpt>
      <trkpt lat="43.96259" lon="0.43021">
        <ele>125</ele>
        <time>2022-08-17T07:28:45Z</time>
      </trkpt>
      <trkpt lat="43.96282" lon="0.42978">
        <ele>125</ele>
        <time>2022-08-17T07:29:17Z</time>
      </trkpt>
      <trkpt lat="43.96284" lon="0.42971">
        <ele>125</ele>
        <time>2022-08-17T07:29:22Z</time>
      </trkpt>
      <trkpt lat="43.96291" lon="0.42961">
        <ele>125</ele>
        <time>2022-08-17T07:29:32Z</time>
      </trkpt>
      <trkpt lat="43.96292" lon="0.42953">
        <ele>125</ele>
        <time>2022-08-17T07:29:38Z</time>
      </trkpt>
      <trkpt lat="43.96297" lon="0.4294">
        <ele>125</ele>
        <time>2022-08-17T07:29:47Z</time>
      </trkpt>
      <trkpt lat="43.96307" lon="0.42926">
        <ele>125</ele>
        <time>2022-08-17T07:30:01Z</time>
      </trkpt>
      <trkpt lat="43.96313" lon="0.42922">
        <ele>125</ele>
        <time>2022-08-17T07:30:19Z</time>
      </trkpt>
      <trkpt lat="43.96316" lon="0.42917">
        <ele>125</ele>
        <time>2022-08-17T07:30:23Z</time>
      </trkpt>
      <trkpt lat="43.9632" lon="0.42913">
        <ele>125</ele>
        <time>2022-08-17T07:30:27Z</time>
      </trkpt>
      <trkpt lat="43.96324" lon="0.4291">
        <ele>125</ele>
        <time>2022-08-17T07:30:32Z</time>
      </trkpt>
      <trkpt lat="43.96347" lon="0.42885">
        <ele>124</ele>
        <time>2022-08-17T07:31:00Z</time>
      </trkpt>
      <trkpt lat="43.96351" lon="0.42881">
        <ele>124</ele>
        <time>2022-08-17T07:31:04Z</time>
      </trkpt>
      <trkpt lat="43.96359" lon="0.42873">
        <ele>124</ele>
        <time>2022-08-17T07:31:12Z</time>
      </trkpt>
      <trkpt lat="43.96368" lon="0.42868">
        <ele>125</ele>
        <time>2022-08-17T07:31:20Z</time>
      </trkpt>
      <trkpt lat="43.96385" lon="0.42854">
        <ele>125</ele>
        <time>2022-08-17T07:31:36Z</time>
      </trkpt>
      <trkpt lat="43.96389" lon="0.4285">
        <ele>125</ele>
        <time>2022-08-17T07:31:41Z</time>
      </trkpt>
      <trkpt lat="43.96401" lon="0.42838">
        <ele>124</ele>
        <time>2022-08-17T07:31:52Z</time>
      </trkpt>
      <trkpt lat="43.96409" lon="0.42822">
        <ele>125</ele>
        <time>2022-08-17T07:32:06Z</time>
      </trkpt>
      <trkpt lat="43.96409" lon="0.42814">
        <ele>125</ele>
        <time>2022-08-17T07:32:31Z</time>
      </trkpt>
      <trkpt lat="43.96414" lon="0.42802">
        <ele>126</ele>
        <time>2022-08-17T07:32:42Z</time>
      </trkpt>
      <trkpt lat="43.96419" lon="0.4279">
        <ele>127</ele>
        <time>2022-08-17T07:32:52Z</time>
      </trkpt>
      <trkpt lat="43.96421" lon="0.42782">
        <ele>128</ele>
        <time>2022-08-17T07:32:57Z</time>
      </trkpt>
      <trkpt lat="43.96424" lon="0.42777">
        <ele>128</ele>
        <time>2022-08-17T07:33:01Z</time>
      </trkpt>
      <trkpt lat="43.96435" lon="0.42749">
        <ele>130</ele>
        <time>2022-08-17T07:33:23Z</time>
      </trkpt>
      <trkpt lat="43.96441" lon="0.42737">
        <ele>131</ele>
        <time>2022-08-17T07:33:33Z</time>
      </trkpt>
      <trkpt lat="43.96443" lon="0.4273">
        <ele>131</ele>
        <time>2022-08-17T07:33:37Z</time>
      </trkpt>
      <trkpt lat="43.96447" lon="0.42725">
        <ele>132</ele>
        <time>2022-08-17T07:33:42Z</time>
      </trkpt>
      <trkpt lat="43.96456" lon="0.42701">
        <ele>133</ele>
        <time>2022-08-17T07:34:03Z</time>
      </trkpt>
      <trkpt lat="43.96458" lon="0.42688">
        <ele>134</ele>
        <time>2022-08-17T07:34:11Z</time>
      </trkpt>
      <trkpt lat="43.96469" lon="0.42635">
        <ele>136</ele>
        <time>2022-08-17T07:34:46Z</time>
      </trkpt>
      <trkpt lat="43.96472" lon="0.42621">
        <ele>136</ele>
        <time>2022-08-17T07:34:55Z</time>
      </trkpt>
      <trkpt lat="43.96483" lon="0.42575">
        <ele>138</ele>
        <time>2022-08-17T07:35:26Z</time>
      </trkpt>
      <trkpt lat="43.96485" lon="0.42569">
        <ele>138</ele>
        <time>2022-08-17T07:35:30Z</time>
      </trkpt>
      <trkpt lat="43.96488" lon="0.42548">
        <ele>139</ele>
        <time>2022-08-17T07:35:42Z</time>
      </trkpt>
      <trkpt lat="43.96487" lon="0.42532">
        <ele>139</ele>
        <time>2022-08-17T07:35:52Z</time>
      </trkpt>
      <trkpt lat="43.96485" lon="0.42525">
        <ele>139</ele>
        <time>2022-08-17T07:35:55Z</time>
      </trkpt>
      <trkpt lat="43.96485" lon="0.42518">
        <ele>139</ele>
        <time>2022-08-17T07:35:59Z</time>
      </trkpt>
      <trkpt lat="43.96472" lon="0.42464">
        <ele>138</ele>
        <time>2022-08-17T07:36:33Z</time>
      </trkpt>
      <trkpt lat="43.96468" lon="0.42451">
        <ele>138</ele>
        <time>2022-08-17T07:36:41Z</time>
      </trkpt>
      <trkpt lat="43.96468" lon="0.42443">
        <ele>138</ele>
        <time>2022-08-17T07:36:45Z</time>
      </trkpt>
      <trkpt lat="43.96465" lon="0.42436">
        <ele>137</ele>
        <time>2022-08-17T07:36:50Z</time>
      </trkpt>
      <trkpt lat="43.96453" lon="0.4238">
        <ele>136</ele>
        <time>2022-08-17T07:37:22Z</time>
      </trkpt>
      <trkpt lat="43.96452" lon="0.42374">
        <ele>136</ele>
        <time>2022-08-17T07:37:26Z</time>
      </trkpt>
      <trkpt lat="43.96449" lon="0.42366">
        <ele>135</ele>
        <time>2022-08-17T07:37:30Z</time>
      </trkpt>
      <trkpt lat="43.96446" lon="0.42344">
        <ele>134</ele>
        <time>2022-08-17T07:37:44Z</time>
      </trkpt>
      <trkpt lat="43.96435" lon="0.42315">
        <ele>132</ele>
        <time>2022-08-17T07:38:03Z</time>
      </trkpt>
      <trkpt lat="43.96424" lon="0.42264">
        <ele>129</ele>
        <time>2022-08-17T07:38:33Z</time>
      </trkpt>
      <trkpt lat="43.9641" lon="0.42218">
        <ele>127</ele>
        <time>2022-08-17T07:39:02Z</time>
      </trkpt>
      <trkpt lat="43.96387" lon="0.42164">
        <ele>126</ele>
        <time>2022-08-17T07:39:36Z</time>
      </trkpt>
      <trkpt lat="43.9638" lon="0.42146">
        <ele>126</ele>
        <time>2022-08-17T07:39:49Z</time>
      </trkpt>
      <trkpt lat="43.96365" lon="0.42105">
        <ele>126</ele>
        <time>2022-08-17T07:40:15Z</time>
      </trkpt>
      <trkpt lat="43.96363" lon="0.42096">
        <ele>127</ele>
        <time>2022-08-17T07:40:20Z</time>
      </trkpt>
      <trkpt lat="43.96358" lon="0.42082">
        <ele>127</ele>
        <time>2022-08-17T07:40:28Z</time>
      </trkpt>
      <trkpt lat="43.96354" lon="0.42059">
        <ele>127</ele>
        <time>2022-08-17T07:40:40Z</time>
      </trkpt>
      <trkpt lat="43.96355" lon="0.42051">
        <ele>127</ele>
        <time>2022-08-17T07:40:45Z</time>
      </trkpt>
      <trkpt lat="43.9635" lon="0.42032">
        <ele>127</ele>
        <time>2022-08-17T07:40:57Z</time>
      </trkpt>
      <trkpt lat="43.9635" lon="0.42022">
        <ele>127</ele>
        <time>2022-08-17T07:41:06Z</time>
      </trkpt>
      <trkpt lat="43.96349" lon="0.42013">
        <ele>128</ele>
        <time>2022-08-17T07:41:52Z</time>
      </trkpt>
      <trkpt lat="43.96342" lon="0.41985">
        <ele>131</ele>
        <time>2022-08-17T07:42:12Z</time>
      </trkpt>
      <trkpt lat="43.96339" lon="0.41978">
        <ele>131</ele>
        <time>2022-08-17T07:42:17Z</time>
      </trkpt>
      <trkpt lat="43.96335" lon="0.41972">
        <ele>132</ele>
        <time>2022-08-17T07:42:22Z</time>
      </trkpt>
      <trkpt lat="43.96334" lon="0.41966">
        <ele>132</ele>
        <time>2022-08-17T07:42:26Z</time>
      </trkpt>
      <trkpt lat="43.96329" lon="0.41921">
        <ele>134</ele>
        <time>2022-08-17T07:42:59Z</time>
      </trkpt>
      <trkpt lat="43.9633" lon="0.41869">
        <ele>138</ele>
        <time>2022-08-17T07:43:32Z</time>
      </trkpt>
      <trkpt lat="43.96328" lon="0.41855">
        <ele>138</ele>
        <time>2022-08-17T07:43:41Z</time>
      </trkpt>
      <trkpt lat="43.96329" lon="0.41848">
        <ele>139</ele>
        <time>2022-08-17T07:43:45Z</time>
      </trkpt>
      <trkpt lat="43.96325" lon="0.41805">
        <ele>139</ele>
        <time>2022-08-17T07:44:08Z</time>
      </trkpt>
      <trkpt lat="43.96323" lon="0.41798">
        <ele>139</ele>
        <time>2022-08-17T07:44:13Z</time>
      </trkpt>
      <trkpt lat="43.96322" lon="0.41777">
        <ele>139</ele>
        <time>2022-08-17T07:44:25Z</time>
      </trkpt>
      <trkpt lat="43.96323" lon="0.4177">
        <ele>138</ele>
        <time>2022-08-17T07:44:29Z</time>
      </trkpt>
      <trkpt lat="43.96318" lon="0.41709">
        <ele>138</ele>
        <time>2022-08-17T07:45:03Z</time>
      </trkpt>
      <trkpt lat="43.96318" lon="0.41689">
        <ele>139</ele>
        <time>2022-08-17T07:45:17Z</time>
      </trkpt>
      <trkpt lat="43.96318" lon="0.41682">
        <ele>139</ele>
        <time>2022-08-17T07:45:29Z</time>
      </trkpt>
      <trkpt lat="43.96317" lon="0.41675">
        <ele>139</ele>
        <time>2022-08-17T07:45:34Z</time>
      </trkpt>
      <trkpt lat="43.96317" lon="0.41629">
        <ele>141</ele>
        <time>2022-08-17T07:46:02Z</time>
      </trkpt>
      <trkpt lat="43.9632" lon="0.41624">
        <ele>142</ele>
        <time>2022-08-17T07:46:13Z</time>
      </trkpt>
      <trkpt lat="43.96324" lon="0.41611">
        <ele>142</ele>
        <time>2022-08-17T07:46:22Z</time>
      </trkpt>
      <trkpt lat="43.96324" lon="0.41603">
        <ele>143</ele>
        <time>2022-08-17T07:46:26Z</time>
      </trkpt>
      <trkpt lat="43.96335" lon="0.41563">
        <ele>144</ele>
        <time>2022-08-17T07:46:59Z</time>
      </trkpt>
      <trkpt lat="43.96335" lon="0.41555">
        <ele>144</ele>
        <time>2022-08-17T07:47:04Z</time>
      </trkpt>
      <trkpt lat="43.96345" lon="0.41522">
        <ele>145</ele>
        <time>2022-08-17T07:47:25Z</time>
      </trkpt>
      <trkpt lat="43.96348" lon="0.41517">
        <ele>145</ele>
        <time>2022-08-17T07:47:29Z</time>
      </trkpt>
      <trkpt lat="43.96349" lon="0.4151">
        <ele>145</ele>
        <time>2022-08-17T07:47:33Z</time>
      </trkpt>
      <trkpt lat="43.96357" lon="0.41491">
        <ele>145</ele>
        <time>2022-08-17T07:47:46Z</time>
      </trkpt>
      <trkpt lat="43.96365" lon="0.41463">
        <ele>146</ele>
        <time>2022-08-17T07:48:10Z</time>
      </trkpt>
      <trkpt lat="43.96369" lon="0.41456">
        <ele>146</ele>
        <time>2022-08-17T07:48:15Z</time>
      </trkpt>
      <trkpt lat="43.96371" lon="0.41441">
        <ele>146</ele>
        <time>2022-08-17T07:48:23Z</time>
      </trkpt>
      <trkpt lat="43.96371" lon="0.41434">
        <ele>147</ele>
        <time>2022-08-17T07:48:28Z</time>
      </trkpt>
      <trkpt lat="43.96355" lon="0.41382">
        <ele>149</ele>
        <time>2022-08-17T07:49:01Z</time>
      </trkpt>
      <trkpt lat="43.96349" lon="0.41362">
        <ele>150</ele>
        <time>2022-08-17T07:49:15Z</time>
      </trkpt>
      <trkpt lat="43.96349" lon="0.41353">
        <ele>150</ele>
        <time>2022-08-17T07:49:19Z</time>
      </trkpt>
      <trkpt lat="43.96344" lon="0.41337">
        <ele>151</ele>
        <time>2022-08-17T07:49:34Z</time>
      </trkpt>
      <trkpt lat="43.96343" lon="0.41332">
        <ele>152</ele>
        <time>2022-08-17T07:49:45Z</time>
      </trkpt>
      <trkpt lat="43.96343" lon="0.4132">
        <ele>152</ele>
        <time>2022-08-17T07:50:20Z</time>
      </trkpt>
      <trkpt lat="43.96339" lon="0.41306">
        <ele>153</ele>
        <time>2022-08-17T07:50:38Z</time>
      </trkpt>
      <trkpt lat="43.9633" lon="0.41256">
        <ele>156</ele>
        <time>2022-08-17T07:51:09Z</time>
      </trkpt>
      <trkpt lat="43.96328" lon="0.41243">
        <ele>157</ele>
        <time>2022-08-17T07:51:17Z</time>
      </trkpt>
      <trkpt lat="43.96318" lon="0.41199">
        <ele>161</ele>
        <time>2022-08-17T07:51:49Z</time>
      </trkpt>
      <trkpt lat="43.9631" lon="0.41171">
        <ele>163</ele>
        <time>2022-08-17T07:52:14Z</time>
      </trkpt>
      <trkpt lat="43.96307" lon="0.41158">
        <ele>164</ele>
        <time>2022-08-17T07:52:23Z</time>
      </trkpt>
      <trkpt lat="43.96308" lon="0.41142">
        <ele>166</ele>
        <time>2022-08-17T07:52:34Z</time>
      </trkpt>
      <trkpt lat="43.96305" lon="0.41091">
        <ele>169</ele>
        <time>2022-08-17T07:53:04Z</time>
      </trkpt>
      <trkpt lat="43.96292" lon="0.41043">
        <ele>171</ele>
        <time>2022-08-17T07:53:37Z</time>
      </trkpt>
      <trkpt lat="43.96281" lon="0.41">
        <ele>174</ele>
        <time>2022-08-17T07:54:11Z</time>
      </trkpt>
      <trkpt lat="43.96271" lon="0.40963">
        <ele>176</ele>
        <time>2022-08-17T07:54:43Z</time>
      </trkpt>
      <trkpt lat="43.96258" lon="0.4091">
        <ele>177</ele>
        <time>2022-08-17T07:55:14Z</time>
      </trkpt>
      <trkpt lat="43.96245" lon="0.40857">
        <ele>178</ele>
        <time>2022-08-17T07:55:47Z</time>
      </trkpt>
      <trkpt lat="43.96231" lon="0.40801">
        <ele>177</ele>
        <time>2022-08-17T07:56:23Z</time>
      </trkpt>
      <trkpt lat="43.96228" lon="0.40789">
        <ele>177</ele>
        <time>2022-08-17T07:56:32Z</time>
      </trkpt>
      <trkpt lat="43.96212" lon="0.40732">
        <ele>174</ele>
        <time>2022-08-17T07:57:06Z</time>
      </trkpt>
      <trkpt lat="43.96204" lon="0.4068">
        <ele>169</ele>
        <time>2022-08-17T07:57:43Z</time>
      </trkpt>
      <trkpt lat="43.96191" lon="0.40627">
        <ele>164</ele>
        <time>2022-08-17T07:58:15Z</time>
      </trkpt>
      <trkpt lat="43.96176" lon="0.4059">
        <ele>162</ele>
        <time>2022-08-17T07:58:36Z</time>
      </trkpt>
      <trkpt lat="43.96169" lon="0.40562">
        <ele>160</ele>
        <time>2022-08-17T07:58:51Z</time>
      </trkpt>
      <trkpt lat="43.96167" lon="0.40555">
        <ele>160</ele>
        <time>2022-08-17T07:58:55Z</time>
      </trkpt>
      <trkpt lat="43.96164" lon="0.40548">
        <ele>160</ele>
        <time>2022-08-17T07:58:59Z</time>
      </trkpt>
      <trkpt lat="43.9616" lon="0.40535">
        <ele>159</ele>
        <time>2022-08-17T07:59:07Z</time>
      </trkpt>
      <trkpt lat="43.96159" lon="0.40528">
        <ele>158</ele>
        <time>2022-08-17T07:59:17Z</time>
      </trkpt>
      <trkpt lat="43.96152" lon="0.4049">
        <ele>156</ele>
        <time>2022-08-17T07:59:50Z</time>
      </trkpt>
      <trkpt lat="43.96148" lon="0.40469">
        <ele>155</ele>
        <time>2022-08-17T08:00:03Z</time>
      </trkpt>
      <trkpt lat="43.96146" lon="0.40449">
        <ele>155</ele>
        <time>2022-08-17T08:00:15Z</time>
      </trkpt>
      <trkpt lat="43.96145" lon="0.40443">
        <ele>154</ele>
        <time>2022-08-17T08:00:19Z</time>
      </trkpt>
      <trkpt lat="43.96137" lon="0.40389">
        <ele>153</ele>
        <time>2022-08-17T08:00:52Z</time>
      </trkpt>
      <trkpt lat="43.96135" lon="0.40376">
        <ele>153</ele>
        <time>2022-08-17T08:00:58Z</time>
      </trkpt>
      <trkpt lat="43.96135" lon="0.40369">
        <ele>153</ele>
        <time>2022-08-17T08:01:02Z</time>
      </trkpt>
      <trkpt lat="43.96133" lon="0.40362">
        <ele>153</ele>
        <time>2022-08-17T08:01:06Z</time>
      </trkpt>
      <trkpt lat="43.96129" lon="0.40334">
        <ele>152</ele>
        <time>2022-08-17T08:01:23Z</time>
      </trkpt>
      <trkpt lat="43.96113" lon="0.40275">
        <ele>151</ele>
        <time>2022-08-17T08:01:55Z</time>
      </trkpt>
      <trkpt lat="43.96098" lon="0.40221">
        <ele>149</ele>
        <time>2022-08-17T08:02:27Z</time>
      </trkpt>
      <trkpt lat="43.96085" lon="0.40169">
        <ele>148</ele>
        <time>2022-08-17T08:02:59Z</time>
      </trkpt>
      <trkpt lat="43.96075" lon="0.40112">
        <ele>147</ele>
        <time>2022-08-17T08:03:30Z</time>
      </trkpt>
      <trkpt lat="43.96073" lon="0.40105">
        <ele>147</ele>
        <time>2022-08-17T08:03:34Z</time>
      </trkpt>
      <trkpt lat="43.9607" lon="0.40085">
        <ele>147</ele>
        <time>2022-08-17T08:03:46Z</time>
      </trkpt>
      <trkpt lat="43.96063" lon="0.40055">
        <ele>147</ele>
        <time>2022-08-17T08:04:04Z</time>
      </trkpt>
      <trkpt lat="43.96063" lon="0.40033">
        <ele>147</ele>
        <time>2022-08-17T08:04:17Z</time>
      </trkpt>
      <trkpt lat="43.96061" lon="0.40026">
        <ele>147</ele>
        <time>2022-08-17T08:04:22Z</time>
      </trkpt>
      <trkpt lat="43.96061" lon="0.40012">
        <ele>147</ele>
        <time>2022-08-17T08:04:30Z</time>
      </trkpt>
      <trkpt lat="43.96059" lon="0.40006">
        <ele>147</ele>
        <time>2022-08-17T08:04:34Z</time>
      </trkpt>
      <trkpt lat="43.96054" lon="0.39985">
        <ele>147</ele>
        <time>2022-08-17T08:04:46Z</time>
      </trkpt>
      <trkpt lat="43.96052" lon="0.39963">
        <ele>146</ele>
        <time>2022-08-17T08:04:58Z</time>
      </trkpt>
      <trkpt lat="43.96048" lon="0.39949">
        <ele>147</ele>
        <time>2022-08-17T08:05:06Z</time>
      </trkpt>
      <trkpt lat="43.9605" lon="0.39942">
        <ele>147</ele>
        <time>2022-08-17T08:05:16Z</time>
      </trkpt>
      <trkpt lat="43.96047" lon="0.39937">
        <ele>147</ele>
        <time>2022-08-17T08:05:21Z</time>
      </trkpt>
      <trkpt lat="43.96045" lon="0.39931">
        <ele>147</ele>
        <time>2022-08-17T08:05:25Z</time>
      </trkpt>
      <trkpt lat="43.9604" lon="0.39903">
        <ele>147</ele>
        <time>2022-08-17T08:05:42Z</time>
      </trkpt>
      <trkpt lat="43.96038" lon="0.39896">
        <ele>146</ele>
        <time>2022-08-17T08:05:46Z</time>
      </trkpt>
      <trkpt lat="43.96024" lon="0.39843">
        <ele>146</ele>
        <time>2022-08-17T08:06:18Z</time>
      </trkpt>
      <trkpt lat="43.96011" lon="0.39787">
        <ele>146</ele>
        <time>2022-08-17T08:06:50Z</time>
      </trkpt>
      <trkpt lat="43.96004" lon="0.39731">
        <ele>146</ele>
        <time>2022-08-17T08:07:22Z</time>
      </trkpt>
      <trkpt lat="43.96003" lon="0.39711">
        <ele>145</ele>
        <time>2022-08-17T08:07:35Z</time>
      </trkpt>
      <trkpt lat="43.96002" lon="0.39699">
        <ele>145</ele>
        <time>2022-08-17T08:07:42Z</time>
      </trkpt>
      <trkpt lat="43.96001" lon="0.39693">
        <ele>145</ele>
        <time>2022-08-17T08:07:46Z</time>
      </trkpt>
      <trkpt lat="43.95998" lon="0.3968">
        <ele>145</ele>
        <time>2022-08-17T08:07:53Z</time>
      </trkpt>
      <trkpt lat="43.95996" lon="0.39649">
        <ele>145</ele>
        <time>2022-08-17T08:08:08Z</time>
      </trkpt>
      <trkpt lat="43.95992" lon="0.39594">
        <ele>145</ele>
        <time>2022-08-17T08:08:40Z</time>
      </trkpt>
      <trkpt lat="43.95987" lon="0.39549">
        <ele>144</ele>
        <time>2022-08-17T08:09:06Z</time>
      </trkpt>
      <trkpt lat="43.95984" lon="0.39536">
        <ele>144</ele>
        <time>2022-08-17T08:09:14Z</time>
      </trkpt>
      <trkpt lat="43.95983" lon="0.39493">
        <ele>143</ele>
        <time>2022-08-17T08:09:52Z</time>
      </trkpt>
      <trkpt lat="43.95979" lon="0.39467">
        <ele>143</ele>
        <time>2022-08-17T08:10:10Z</time>
      </trkpt>
      <trkpt lat="43.95976" lon="0.39453">
        <ele>143</ele>
        <time>2022-08-17T08:10:18Z</time>
      </trkpt>
      <trkpt lat="43.95973" lon="0.3944">
        <ele>144</ele>
        <time>2022-08-17T08:10:27Z</time>
      </trkpt>
      <trkpt lat="43.95971" lon="0.3942">
        <ele>144</ele>
        <time>2022-08-17T08:10:40Z</time>
      </trkpt>
      <trkpt lat="43.9597" lon="0.39413">
        <ele>144</ele>
        <time>2022-08-17T08:10:44Z</time>
      </trkpt>
      <trkpt lat="43.95966" lon="0.39355">
        <ele>144</ele>
        <time>2022-08-17T08:11:16Z</time>
      </trkpt>
      <trkpt lat="43.95964" lon="0.39342">
        <ele>145</ele>
        <time>2022-08-17T08:11:24Z</time>
      </trkpt>
      <trkpt lat="43.95965" lon="0.39283">
        <ele>143</ele>
        <time>2022-08-17T08:11:59Z</time>
      </trkpt>
      <trkpt lat="43.95966" lon="0.39268">
        <ele>143</ele>
        <time>2022-08-17T08:12:07Z</time>
      </trkpt>
      <trkpt lat="43.95964" lon="0.39254">
        <ele>142</ele>
        <time>2022-08-17T08:12:15Z</time>
      </trkpt>
      <trkpt lat="43.95964" lon="0.39247">
        <ele>143</ele>
        <time>2022-08-17T08:12:19Z</time>
      </trkpt>
      <trkpt lat="43.95965" lon="0.3924">
        <ele>142</ele>
        <time>2022-08-17T08:12:23Z</time>
      </trkpt>
      <trkpt lat="43.95968" lon="0.39218">
        <ele>142</ele>
        <time>2022-08-17T08:12:35Z</time>
      </trkpt>
      <trkpt lat="43.95968" lon="0.39211">
        <ele>142</ele>
        <time>2022-08-17T08:12:39Z</time>
      </trkpt>
      <trkpt lat="43.95968" lon="0.39204">
        <ele>142</ele>
        <time>2022-08-17T08:12:43Z</time>
      </trkpt>
      <trkpt lat="43.95968" lon="0.39163">
        <ele>141</ele>
        <time>2022-08-17T08:13:08Z</time>
      </trkpt>
      <trkpt lat="43.95967" lon="0.39155">
        <ele>141</ele>
        <time>2022-08-17T08:13:13Z</time>
      </trkpt>
      <trkpt lat="43.95963" lon="0.39143">
        <ele>141</ele>
        <time>2022-08-17T08:13:21Z</time>
      </trkpt>
      <trkpt lat="43.95963" lon="0.39135">
        <ele>141</ele>
        <time>2022-08-17T08:13:27Z</time>
      </trkpt>
      <trkpt lat="43.9596" lon="0.39128">
        <ele>141</ele>
        <time>2022-08-17T08:13:30Z</time>
      </trkpt>
      <trkpt lat="43.95957" lon="0.39099">
        <ele>142</ele>
        <time>2022-08-17T08:13:46Z</time>
      </trkpt>
      <trkpt lat="43.95955" lon="0.39092">
        <ele>142</ele>
        <time>2022-08-17T08:13:50Z</time>
      </trkpt>
      <trkpt lat="43.95956" lon="0.39084">
        <ele>142</ele>
        <time>2022-08-17T08:13:55Z</time>
      </trkpt>
      <trkpt lat="43.95953" lon="0.39064">
        <ele>143</ele>
        <time>2022-08-17T08:14:08Z</time>
      </trkpt>
      <trkpt lat="43.95953" lon="0.39049">
        <ele>143</ele>
        <time>2022-08-17T08:14:18Z</time>
      </trkpt>
      <trkpt lat="43.95952" lon="0.39039">
        <ele>143</ele>
        <time>2022-08-17T08:14:26Z</time>
      </trkpt>
      <trkpt lat="43.95951" lon="0.3903">
        <ele>143</ele>
        <time>2022-08-17T08:14:35Z</time>
      </trkpt>
      <trkpt lat="43.95948" lon="0.39025">
        <ele>143</ele>
        <time>2022-08-17T08:14:40Z</time>
      </trkpt>
      <trkpt lat="43.95947" lon="0.39004">
        <ele>141</ele>
        <time>2022-08-17T08:15:10Z</time>
      </trkpt>
      <trkpt lat="43.95943" lon="0.38991">
        <ele>139</ele>
        <time>2022-08-17T08:15:20Z</time>
      </trkpt>
      <trkpt lat="43.95944" lon="0.38985">
        <ele>138</ele>
        <time>2022-08-17T08:15:24Z</time>
      </trkpt>
      <trkpt lat="43.95941" lon="0.38972">
        <ele>137</ele>
        <time>2022-08-17T08:15:31Z</time>
      </trkpt>
      <trkpt lat="43.9594" lon="0.38961">
        <ele>136</ele>
        <time>2022-08-17T08:15:40Z</time>
      </trkpt>
      <trkpt lat="43.95939" lon="0.38919">
        <ele>133</ele>
        <time>2022-08-17T08:16:06Z</time>
      </trkpt>
      <trkpt lat="43.95937" lon="0.38913">
        <ele>132</ele>
        <time>2022-08-17T08:16:08Z</time>
      </trkpt>
      <trkpt lat="43.95938" lon="0.38892">
        <ele>131</ele>
        <time>2022-08-17T08:16:21Z</time>
      </trkpt>
      <trkpt lat="43.95932" lon="0.38837">
        <ele>127</ele>
        <time>2022-08-17T08:16:54Z</time>
      </trkpt>
      <trkpt lat="43.95927" lon="0.3878">
        <ele>125</ele>
        <time>2022-08-17T08:17:26Z</time>
      </trkpt>
      <trkpt lat="43.95922" lon="0.38734">
        <ele>123</ele>
        <time>2022-08-17T08:17:53Z</time>
      </trkpt>
      <trkpt lat="43.95922" lon="0.38728">
        <ele>123</ele>
        <time>2022-08-17T08:17:57Z</time>
      </trkpt>
      <trkpt lat="43.95917" lon="0.38673">
        <ele>122</ele>
        <time>2022-08-17T08:18:29Z</time>
      </trkpt>
      <trkpt lat="43.95914" lon="0.38618">
        <ele>120</ele>
        <time>2022-08-17T08:19:04Z</time>
      </trkpt>
      <trkpt lat="43.95913" lon="0.38604">
        <ele>120</ele>
        <time>2022-08-17T08:19:19Z</time>
      </trkpt>
      <trkpt lat="43.95912" lon="0.38597">
        <ele>120</ele>
        <time>2022-08-17T08:19:23Z</time>
      </trkpt>
      <trkpt lat="43.95915" lon="0.3857">
        <ele>119</ele>
        <time>2022-08-17T08:19:40Z</time>
      </trkpt>
      <trkpt lat="43.95925" lon="0.38528">
        <ele>118</ele>
        <time>2022-08-17T08:20:06Z</time>
      </trkpt>
      <trkpt lat="43.95927" lon="0.38472">
        <ele>116</ele>
        <time>2022-08-17T08:20:39Z</time>
      </trkpt>
      <trkpt lat="43.95928" lon="0.38438">
        <ele>115</ele>
        <time>2022-08-17T08:21:00Z</time>
      </trkpt>
      <trkpt lat="43.95927" lon="0.38423">
        <ele>115</ele>
        <time>2022-08-17T08:21:08Z</time>
      </trkpt>
      <trkpt lat="43.95928" lon="0.38416">
        <ele>114</ele>
        <time>2022-08-17T08:21:13Z</time>
      </trkpt>
      <trkpt lat="43.95927" lon="0.38409">
        <ele>114</ele>
        <time>2022-08-17T08:21:18Z</time>
      </trkpt>
      <trkpt lat="43.95928" lon="0.38365">
        <ele>113</ele>
        <time>2022-08-17T08:21:42Z</time>
      </trkpt>
      <trkpt lat="43.95925" lon="0.38343">
        <ele>112</ele>
        <time>2022-08-17T08:21:55Z</time>
      </trkpt>
      <trkpt lat="43.95923" lon="0.38336">
        <ele>112</ele>
        <time>2022-08-17T08:21:59Z</time>
      </trkpt>
      <trkpt lat="43.95919" lon="0.38301">
        <ele>110</ele>
        <time>2022-08-17T08:22:19Z</time>
      </trkpt>
      <trkpt lat="43.95917" lon="0.38293">
        <ele>110</ele>
        <time>2022-08-17T08:22:23Z</time>
      </trkpt>
      <trkpt lat="43.95917" lon="0.38265">
        <ele>108</ele>
        <time>2022-08-17T08:22:40Z</time>
      </trkpt>
      <trkpt lat="43.95915" lon="0.38258">
        <ele>108</ele>
        <time>2022-08-17T08:22:45Z</time>
      </trkpt>
      <trkpt lat="43.95911" lon="0.3825">
        <ele>108</ele>
        <time>2022-08-17T08:22:52Z</time>
      </trkpt>
      <trkpt lat="43.95905" lon="0.38246">
        <ele>107</ele>
        <time>2022-08-17T08:22:58Z</time>
      </trkpt>
      <trkpt lat="43.95899" lon="0.38245">
        <ele>107</ele>
        <time>2022-08-17T08:23:03Z</time>
      </trkpt>
      <trkpt lat="43.95892" lon="0.3824">
        <ele>105</ele>
        <time>2022-08-17T08:23:12Z</time>
      </trkpt>
      <trkpt lat="43.95874" lon="0.38213">
        <ele>102</ele>
        <time>2022-08-17T08:23:32Z</time>
      </trkpt>
      <trkpt lat="43.95863" lon="0.38192">
        <ele>100</ele>
        <time>2022-08-17T08:23:47Z</time>
      </trkpt>
      <trkpt lat="43.95859" lon="0.38188">
        <ele>99</ele>
        <time>2022-08-17T08:23:51Z</time>
      </trkpt>
      <trkpt lat="43.95856" lon="0.38182">
        <ele>99</ele>
        <time>2022-08-17T08:23:55Z</time>
      </trkpt>
      <trkpt lat="43.95834" lon="0.38158">
        <ele>97</ele>
        <time>2022-08-17T08:24:17Z</time>
      </trkpt>
      <trkpt lat="43.95823" lon="0.38143">
        <ele>96</ele>
        <time>2022-08-17T08:24:30Z</time>
      </trkpt>
      <trkpt lat="43.95818" lon="0.38137">
        <ele>95</ele>
        <time>2022-08-17T08:24:35Z</time>
      </trkpt>
      <trkpt lat="43.95814" lon="0.3813">
        <ele>95</ele>
        <time>2022-08-17T08:24:40Z</time>
      </trkpt>
      <trkpt lat="43.95809" lon="0.38126">
        <ele>94</ele>
        <time>2022-08-17T08:24:45Z</time>
      </trkpt>
      <trkpt lat="43.95804" lon="0.38119">
        <ele>94</ele>
        <time>2022-08-17T08:24:49Z</time>
      </trkpt>
      <trkpt lat="43.95803" lon="0.38112">
        <ele>93</ele>
        <time>2022-08-17T08:24:53Z</time>
      </trkpt>
      <trkpt lat="43.95784" lon="0.38085">
        <ele>90</ele>
        <time>2022-08-17T08:25:18Z</time>
      </trkpt>
      <trkpt lat="43.95779" lon="0.38082">
        <ele>90</ele>
        <time>2022-08-17T08:25:24Z</time>
      </trkpt>
      <trkpt lat="43.95767" lon="0.38067">
        <ele>88</ele>
        <time>2022-08-17T08:25:36Z</time>
      </trkpt>
      <trkpt lat="43.95765" lon="0.38061">
        <ele>88</ele>
        <time>2022-08-17T08:25:40Z</time>
      </trkpt>
      <trkpt lat="43.9576" lon="0.38054">
        <ele>88</ele>
        <time>2022-08-17T08:25:55Z</time>
      </trkpt>
      <trkpt lat="43.95737" lon="0.38044">
        <ele>85</ele>
        <time>2022-08-17T08:26:15Z</time>
      </trkpt>
      <trkpt lat="43.95726" lon="0.38044">
        <ele>83</ele>
        <time>2022-08-17T08:26:24Z</time>
      </trkpt>
      <trkpt lat="43.95699" lon="0.38035">
        <ele>82</ele>
        <time>2022-08-17T08:26:49Z</time>
      </trkpt>
      <trkpt lat="43.95677" lon="0.38019">
        <ele>81</ele>
        <time>2022-08-17T08:27:11Z</time>
      </trkpt>
      <trkpt lat="43.9567" lon="0.38017">
        <ele>81</ele>
        <time>2022-08-17T08:27:18Z</time>
      </trkpt>
      <trkpt lat="43.95665" lon="0.38017">
        <ele>81</ele>
        <time>2022-08-17T08:27:27Z</time>
      </trkpt>
      <trkpt lat="43.9565" lon="0.38017">
        <ele>81</ele>
        <time>2022-08-17T08:27:51Z</time>
      </trkpt>
      <trkpt lat="43.95647" lon="0.38009">
        <ele>80</ele>
        <time>2022-08-17T08:28:01Z</time>
      </trkpt>
      <trkpt lat="43.95647" lon="0.38003">
        <ele>80</ele>
        <time>2022-08-17T08:28:05Z</time>
      </trkpt>
      <trkpt lat="43.9566" lon="0.37963">
        <ele>79</ele>
        <time>2022-08-17T08:28:30Z</time>
      </trkpt>
      <trkpt lat="43.9566" lon="0.37956">
        <ele>78</ele>
        <time>2022-08-17T08:28:34Z</time>
      </trkpt>
      <trkpt lat="43.9566" lon="0.37957">
        <ele>78</ele>
        <time>2022-08-17T08:29:09Z</time>
      </trkpt>
      <trkpt lat="43.9567" lon="0.37905">
        <ele>77</ele>
        <time>2022-08-17T08:29:43Z</time>
      </trkpt>
      <trkpt lat="43.95674" lon="0.37891">
        <ele>76</ele>
        <time>2022-08-17T08:29:52Z</time>
      </trkpt>
      <trkpt lat="43.95675" lon="0.37876">
        <ele>76</ele>
        <time>2022-08-17T08:30:00Z</time>
      </trkpt>
      <trkpt lat="43.95676" lon="0.37869">
        <ele>76</ele>
        <time>2022-08-17T08:30:04Z</time>
      </trkpt>
      <trkpt lat="43.95677" lon="0.37862">
        <ele>77</ele>
        <time>2022-08-17T08:30:08Z</time>
      </trkpt>
      <trkpt lat="43.95682" lon="0.37847">
        <ele>77</ele>
        <time>2022-08-17T08:30:17Z</time>
      </trkpt>
      <trkpt lat="43.95682" lon="0.37838">
        <ele>77</ele>
        <time>2022-08-17T08:30:22Z</time>
      </trkpt>
      <trkpt lat="43.9569" lon="0.3781">
        <ele>77</ele>
        <time>2022-08-17T08:30:39Z</time>
      </trkpt>
      <trkpt lat="43.9569" lon="0.37802">
        <ele>77</ele>
        <time>2022-08-17T08:30:43Z</time>
      </trkpt>
      <trkpt lat="43.95698" lon="0.37762">
        <ele>78</ele>
        <time>2022-08-17T08:31:08Z</time>
      </trkpt>
      <trkpt lat="43.95702" lon="0.37756">
        <ele>78</ele>
        <time>2022-08-17T08:31:13Z</time>
      </trkpt>
      <trkpt lat="43.95708" lon="0.37739">
        <ele>78</ele>
        <time>2022-08-17T08:31:26Z</time>
      </trkpt>
      <trkpt lat="43.95706" lon="0.37721">
        <ele>78</ele>
        <time>2022-08-17T08:31:50Z</time>
      </trkpt>
      <trkpt lat="43.95708" lon="0.37715">
        <ele>79</ele>
        <time>2022-08-17T08:31:54Z</time>
      </trkpt>
      <trkpt lat="43.9571" lon="0.37706">
        <ele>78</ele>
        <time>2022-08-17T08:32:00Z</time>
      </trkpt>
      <trkpt lat="43.9571" lon="0.37698">
        <ele>78</ele>
        <time>2022-08-17T08:32:04Z</time>
      </trkpt>
      <trkpt lat="43.95714" lon="0.37692">
        <ele>79</ele>
        <time>2022-08-17T08:32:09Z</time>
      </trkpt>
      <trkpt lat="43.95712" lon="0.37685">
        <ele>79</ele>
        <time>2022-08-17T08:32:14Z</time>
      </trkpt>
      <trkpt lat="43.95708" lon="0.3768">
        <ele>79</ele>
        <time>2022-08-17T08:32:18Z</time>
      </trkpt>
      <trkpt lat="43.95703" lon="0.37677">
        <ele>79</ele>
        <time>2022-08-17T08:32:24Z</time>
      </trkpt>
      <trkpt lat="43.95703" lon="0.37669">
        <ele>79</ele>
        <time>2022-08-17T08:32:29Z</time>
      </trkpt>
      <trkpt lat="43.95707" lon="0.37646">
        <ele>80</ele>
        <time>2022-08-17T08:32:42Z</time>
      </trkpt>
      <trkpt lat="43.95691" lon="0.37621">
        <ele>81</ele>
        <time>2022-08-17T08:33:06Z</time>
      </trkpt>
      <trkpt lat="43.95683" lon="0.37605">
        <ele>81</ele>
        <time>2022-08-17T08:33:16Z</time>
      </trkpt>
      <trkpt lat="43.95684" lon="0.37593">
        <ele>82</ele>
        <time>2022-08-17T08:33:21Z</time>
      </trkpt>
      <trkpt lat="43.95686" lon="0.37588">
        <ele>82</ele>
        <time>2022-08-17T08:33:23Z</time>
      </trkpt>
      <trkpt lat="43.95696" lon="0.37571">
        <ele>82</ele>
        <time>2022-08-17T08:33:35Z</time>
      </trkpt>
      <trkpt lat="43.95698" lon="0.37562">
        <ele>82</ele>
        <time>2022-08-17T08:33:41Z</time>
      </trkpt>
      <trkpt lat="43.95699" lon="0.37554">
        <ele>82</ele>
        <time>2022-08-17T08:33:48Z</time>
      </trkpt>
      <trkpt lat="43.95702" lon="0.37544">
        <ele>82</ele>
        <time>2022-08-17T08:35:11Z</time>
      </trkpt>
      <trkpt lat="43.95712" lon="0.37546">
        <ele>82</ele>
        <time>2022-08-17T08:36:59Z</time>
      </trkpt>
      <trkpt lat="43.95716" lon="0.37533">
        <ele>82</ele>
        <time>2022-08-17T08:37:10Z</time>
      </trkpt>
      <trkpt lat="43.95715" lon="0.37522">
        <ele>82</ele>
        <time>2022-08-17T08:37:18Z</time>
      </trkpt>
      <trkpt lat="43.95723" lon="0.37498">
        <ele>82</ele>
        <time>2022-08-17T08:37:35Z</time>
      </trkpt>
      <trkpt lat="43.95722" lon="0.37488">
        <ele>82</ele>
        <time>2022-08-17T08:37:42Z</time>
      </trkpt>
      <trkpt lat="43.95728" lon="0.37471">
        <ele>83</ele>
        <time>2022-08-17T08:37:56Z</time>
      </trkpt>
      <trkpt lat="43.95731" lon="0.37461">
        <ele>83</ele>
        <time>2022-08-17T08:38:03Z</time>
      </trkpt>
      <trkpt lat="43.95737" lon="0.37451">
        <ele>83</ele>
        <time>2022-08-17T08:38:16Z</time>
      </trkpt>
      <trkpt lat="43.95747" lon="0.37431">
        <ele>83</ele>
        <time>2022-08-17T08:41:13Z</time>
      </trkpt>
      <trkpt lat="43.95753" lon="0.37408">
        <ele>83</ele>
        <time>2022-08-17T08:41:31Z</time>
      </trkpt>
      <trkpt lat="43.95758" lon="0.374">
        <ele>83</ele>
        <time>2022-08-17T08:41:37Z</time>
      </trkpt>
      <trkpt lat="43.95757" lon="0.37389">
        <ele>84</ele>
        <time>2022-08-17T08:41:47Z</time>
      </trkpt>
      <trkpt lat="43.95761" lon="0.3737">
        <ele>83</ele>
        <time>2022-08-17T08:42:28Z</time>
      </trkpt>
      <trkpt lat="43.95765" lon="0.37361">
        <ele>83</ele>
        <time>2022-08-17T08:42:32Z</time>
      </trkpt>
      <trkpt lat="43.95768" lon="0.37341">
        <ele>84</ele>
        <time>2022-08-17T08:42:44Z</time>
      </trkpt>
      <trkpt lat="43.95775" lon="0.37327">
        <ele>84</ele>
        <time>2022-08-17T08:42:54Z</time>
      </trkpt>
      <trkpt lat="43.95774" lon="0.37333">
        <ele>85</ele>
        <time>2022-08-17T08:43:18Z</time>
      </trkpt>
      <trkpt lat="43.95769" lon="0.37321">
        <ele>85</ele>
        <time>2022-08-17T08:43:31Z</time>
      </trkpt>
      <trkpt lat="43.95768" lon="0.37311">
        <ele>85</ele>
        <time>2022-08-17T08:43:39Z</time>
      </trkpt>
      <trkpt lat="43.95765" lon="0.37306">
        <ele>85</ele>
        <time>2022-08-17T08:43:54Z</time>
      </trkpt>
      <trkpt lat="43.95772" lon="0.37301">
        <ele>85</ele>
        <time>2022-08-17T08:44:12Z</time>
      </trkpt>
      <trkpt lat="43.9577" lon="0.37306">
        <ele>85</ele>
        <time>2022-08-17T08:45:40Z</time>
      </trkpt>
      <trkpt lat="43.95761" lon="0.37304">
        <ele>85</ele>
        <time>2022-08-17T08:47:01Z</time>
      </trkpt>
      <trkpt lat="43.95754" lon="0.37306">
        <ele>85</ele>
        <time>2022-08-17T08:47:13Z</time>
      </trkpt>
      <trkpt lat="43.95755" lon="0.37296">
        <ele>85</ele>
        <time>2022-08-17T08:47:36Z</time>
      </trkpt>
      <trkpt lat="43.95762" lon="0.37293">
        <ele>86</ele>
        <time>2022-08-17T08:47:59Z</time>
      </trkpt>
      <trkpt lat="43.95765" lon="0.37296">
        <ele>86</ele>
        <time>2022-08-17T08:48:04Z</time>
      </trkpt>
      <trkpt lat="43.95769" lon="0.37303">
        <ele>86</ele>
        <time>2022-08-17T08:48:18Z</time>
      </trkpt>
      <trkpt lat="43.95781" lon="0.37299">
        <ele>86</ele>
        <time>2022-08-17T08:49:46Z</time>
      </trkpt>
      <trkpt lat="43.95777" lon="0.37306">
        <ele>86</ele>
        <time>2022-08-17T08:50:17Z</time>
      </trkpt>
      <trkpt lat="43.95773" lon="0.37313">
        <ele>86</ele>
        <time>2022-08-17T08:50:31Z</time>
      </trkpt>
      <trkpt lat="43.95772" lon="0.3731">
        <ele>86</ele>
        <time>2022-08-17T08:51:36Z</time>
      </trkpt>
      <trkpt lat="43.95773" lon="0.37305">
        <ele>85</ele>
        <time>2022-08-17T08:53:56Z</time>
      </trkpt>
      <trkpt lat="43.95767" lon="0.37304">
        <ele>85</ele>
        <time>2022-08-17T08:54:15Z</time>
      </trkpt>
      <trkpt lat="43.95771" lon="0.37294">
        <ele>85</ele>
        <time>2022-08-17T08:54:49Z</time>
      </trkpt>
      <trkpt lat="43.95771" lon="0.37278">
        <ele>86</ele>
        <time>2022-08-17T08:55:02Z</time>
      </trkpt>
      <trkpt lat="43.95771" lon="0.37268">
        <ele>86</ele>
        <time>2022-08-17T08:55:09Z</time>
      </trkpt>
      <trkpt lat="43.95777" lon="0.37264">
        <ele>86</ele>
        <time>2022-08-17T08:55:24Z</time>
      </trkpt>
      <trkpt lat="43.95782" lon="0.37274">
        <ele>85</ele>
        <time>2022-08-17T09:07:33Z</time>
      </trkpt>
      <trkpt lat="43.9576" lon="0.37281">
        <ele>86</ele>
        <time>2022-08-17T09:11:40Z</time>
      </trkpt>
      <trkpt lat="43.95763" lon="0.37285">
        <ele>87</ele>
        <time>2022-08-17T09:11:55Z</time>
      </trkpt>
      <trkpt lat="43.95765" lon="0.37278">
        <ele>86</ele>
        <time>2022-08-17T09:16:32Z</time>
      </trkpt>
      <trkpt lat="43.95779" lon="0.37267">
        <ele>86</ele>
        <time>2022-08-17T09:16:34Z</time>
      </trkpt>
      <trkpt lat="43.95779" lon="0.37264">
        <ele>86</ele>
        <time>2022-08-17T09:16:38Z</time>
      </trkpt>
      <trkpt lat="43.95777" lon="0.37257">
        <ele>87</ele>
        <time>2022-08-17T09:16:46Z</time>
      </trkpt>
      <trkpt lat="43.95773" lon="0.37252">
        <ele>86</ele>
        <time>2022-08-17T09:16:52Z</time>
      </trkpt>
      <trkpt lat="43.95777" lon="0.37236">
        <ele>86</ele>
        <time>2022-08-17T09:17:13Z</time>
      </trkpt>
      <trkpt lat="43.95783" lon="0.37227">
        <ele>85</ele>
        <time>2022-08-17T09:17:21Z</time>
      </trkpt>
      <trkpt lat="43.95791" lon="0.37225">
        <ele>85</ele>
        <time>2022-08-17T09:17:27Z</time>
      </trkpt>
      <trkpt lat="43.95795" lon="0.37216">
        <ele>85</ele>
        <time>2022-08-17T09:17:34Z</time>
      </trkpt>
      <trkpt lat="43.95799" lon="0.37213">
        <ele>84</ele>
        <time>2022-08-17T09:17:38Z</time>
      </trkpt>
      <trkpt lat="43.95805" lon="0.37213">
        <ele>85</ele>
        <time>2022-08-17T09:17:52Z</time>
      </trkpt>
      <trkpt lat="43.95807" lon="0.37215">
        <ele>85</ele>
        <time>2022-08-17T09:18:26Z</time>
      </trkpt>
      <trkpt lat="43.95809" lon="0.3723">
        <ele>84</ele>
        <time>2022-08-17T09:18:40Z</time>
      </trkpt>
      <trkpt lat="43.95817" lon="0.37231">
        <ele>84</ele>
        <time>2022-08-17T09:19:50Z</time>
      </trkpt>
      <trkpt lat="43.95835" lon="0.3723">
        <ele>83</ele>
        <time>2022-08-17T09:20:04Z</time>
      </trkpt>
      <trkpt lat="43.95842" lon="0.37232">
        <ele>83</ele>
        <time>2022-08-17T09:20:08Z</time>
      </trkpt>
      <trkpt lat="43.95847" lon="0.37236">
        <ele>83</ele>
        <time>2022-08-17T09:20:13Z</time>
      </trkpt>
      <trkpt lat="43.95846" lon="0.37231">
        <ele>83</ele>
        <time>2022-08-17T09:21:50Z</time>
      </trkpt>
      <trkpt lat="43.9585" lon="0.37223">
        <ele>83</ele>
        <time>2022-08-17T09:21:55Z</time>
      </trkpt>
      <trkpt lat="43.95851" lon="0.37203">
        <ele>82</ele>
        <time>2022-08-17T09:22:06Z</time>
      </trkpt>
      <trkpt lat="43.95853" lon="0.37196">
        <ele>82</ele>
        <time>2022-08-17T09:22:11Z</time>
      </trkpt>
      <trkpt lat="43.95855" lon="0.37189">
        <ele>82</ele>
        <time>2022-08-17T09:22:17Z</time>
      </trkpt>
      <trkpt lat="43.95861" lon="0.37187">
        <ele>82</ele>
        <time>2022-08-17T09:22:21Z</time>
      </trkpt>
      <trkpt lat="43.95866" lon="0.37188">
        <ele>82</ele>
        <time>2022-08-17T09:22:24Z</time>
      </trkpt>
      <trkpt lat="43.95876" lon="0.37192">
        <ele>82</ele>
        <time>2022-08-17T09:22:33Z</time>
      </trkpt>
      <trkpt lat="43.95898" lon="0.37211">
        <ele>81</ele>
        <time>2022-08-17T09:22:55Z</time>
      </trkpt>
      <trkpt lat="43.95906" lon="0.37213">
        <ele>81</ele>
        <time>2022-08-17T09:23:02Z</time>
      </trkpt>
      <trkpt lat="43.95912" lon="0.37209">
        <ele>81</ele>
        <time>2022-08-17T09:23:24Z</time>
      </trkpt>
      <trkpt lat="43.95918" lon="0.37213">
        <ele>80</ele>
        <time>2022-08-17T09:23:29Z</time>
      </trkpt>
      <trkpt lat="43.95922" lon="0.37218">
        <ele>80</ele>
        <time>2022-08-17T09:23:33Z</time>
      </trkpt>
      <trkpt lat="43.95944" lon="0.37226">
        <ele>80</ele>
        <time>2022-08-17T09:23:48Z</time>
      </trkpt>
      <trkpt lat="43.9596" lon="0.37237">
        <ele>80</ele>
        <time>2022-08-17T09:24:05Z</time>
      </trkpt>
      <trkpt lat="43.95968" lon="0.37239">
        <ele>80</ele>
        <time>2022-08-17T09:24:12Z</time>
      </trkpt>
      <trkpt lat="43.95996" lon="0.37254">
        <ele>79</ele>
        <time>2022-08-17T09:24:37Z</time>
      </trkpt>
      <trkpt lat="43.96002" lon="0.37256">
        <ele>79</ele>
        <time>2022-08-17T09:24:45Z</time>
      </trkpt>
      <trkpt lat="43.96007" lon="0.37255">
        <ele>79</ele>
        <time>2022-08-17T09:24:49Z</time>
      </trkpt>
      <trkpt lat="43.96012" lon="0.37258">
        <ele>79</ele>
        <time>2022-08-17T09:25:00Z</time>
      </trkpt>
      <trkpt lat="43.96017" lon="0.37265">
        <ele>79</ele>
        <time>2022-08-17T09:25:12Z</time>
      </trkpt>
      <trkpt lat="43.9601" lon="0.37268">
        <ele>78</ele>
        <time>2022-08-17T09:26:09Z</time>
      </trkpt>
      <trkpt lat="43.96011" lon="0.37281">
        <ele>78</ele>
        <time>2022-08-17T09:26:18Z</time>
      </trkpt>
      <trkpt lat="43.96002" lon="0.37305">
        <ele>79</ele>
        <time>2022-08-17T09:26:35Z</time>
      </trkpt>
      <trkpt lat="43.96001" lon="0.37315">
        <ele>79</ele>
        <time>2022-08-17T09:26:40Z</time>
      </trkpt>
      <trkpt lat="43.95985" lon="0.37319">
        <ele>78</ele>
        <time>2022-08-17T09:26:56Z</time>
      </trkpt>
      <trkpt lat="43.95974" lon="0.37318">
        <ele>78</ele>
        <time>2022-08-17T09:27:05Z</time>
      </trkpt>
      <trkpt lat="43.95969" lon="0.3732">
        <ele>78</ele>
        <time>2022-08-17T09:27:09Z</time>
      </trkpt>
      <trkpt lat="43.95964" lon="0.37321">
        <ele>78</ele>
        <time>2022-08-17T09:27:14Z</time>
      </trkpt>
      <trkpt lat="43.95959" lon="0.37319">
        <ele>77</ele>
        <time>2022-08-17T09:27:18Z</time>
      </trkpt>
      <trkpt lat="43.95954" lon="0.3732">
        <ele>77</ele>
        <time>2022-08-17T09:27:23Z</time>
      </trkpt>
      <trkpt lat="43.95926" lon="0.37322">
        <ele>77</ele>
        <time>2022-08-17T09:27:47Z</time>
      </trkpt>
      <trkpt lat="43.95918" lon="0.37325">
        <ele>77</ele>
        <time>2022-08-17T09:27:58Z</time>
      </trkpt>
      <trkpt lat="43.95909" lon="0.37331">
        <ele>77</ele>
        <time>2022-08-17T09:28:13Z</time>
      </trkpt>
      <trkpt lat="43.95898" lon="0.37334">
        <ele>76</ele>
        <time>2022-08-17T09:28:25Z</time>
      </trkpt>
      <trkpt lat="43.95887" lon="0.37346">
        <ele>75</ele>
        <time>2022-08-17T09:28:39Z</time>
      </trkpt>
      <trkpt lat="43.95877" lon="0.37348">
        <ele>75</ele>
        <time>2022-08-17T09:28:55Z</time>
      </trkpt>
      <trkpt lat="43.95845" lon="0.37345">
        <ele>79</ele>
        <time>2022-08-17T09:29:22Z</time>
      </trkpt>
      <trkpt lat="43.95824" lon="0.37339">
        <ele>81</ele>
        <time>2022-08-17T09:29:38Z</time>
      </trkpt>
      <trkpt lat="43.95796" lon="0.37318">
        <ele>82</ele>
        <time>2022-08-17T09:29:53Z</time>
      </trkpt>
      <trkpt lat="43.95792" lon="0.37317">
        <ele>82</ele>
        <time>2022-08-17T09:29:55Z</time>
      </trkpt>
      <trkpt lat="43.95789" lon="0.37325">
        <ele>83</ele>
        <time>2022-08-17T09:29:58Z</time>
      </trkpt>
      <trkpt lat="43.95782" lon="0.37334">
        <ele>83</ele>
        <time>2022-08-17T09:30:12Z</time>
      </trkpt>
      <trkpt lat="43.95778" lon="0.37339">
        <ele>83</ele>
        <time>2022-08-17T09:30:17Z</time>
      </trkpt>
      <trkpt lat="43.95776" lon="0.37349">
        <ele>83</ele>
        <time>2022-08-17T09:30:24Z</time>
      </trkpt>
      <trkpt lat="43.95773" lon="0.37355">
        <ele>83</ele>
        <time>2022-08-17T09:30:29Z</time>
      </trkpt>
      <trkpt lat="43.95765" lon="0.37356">
        <ele>83</ele>
        <time>2022-08-17T09:30:38Z</time>
      </trkpt>
      <trkpt lat="43.95762" lon="0.37351">
        <ele>83</ele>
        <time>2022-08-17T09:30:42Z</time>
      </trkpt>
      <trkpt lat="43.95759" lon="0.37342">
        <ele>84</ele>
        <time>2022-08-17T09:30:47Z</time>
      </trkpt>
      <trkpt lat="43.95765" lon="0.37325">
        <ele>84</ele>
        <time>2022-08-17T09:30:59Z</time>
      </trkpt>
      <trkpt lat="43.95763" lon="0.37319">
        <ele>84</ele>
        <time>2022-08-17T09:31:04Z</time>
      </trkpt>
      <trkpt lat="43.95768" lon="0.37313">
        <ele>86</ele>
        <time>2022-08-17T09:31:14Z</time>
      </trkpt>
      <trkpt lat="43.95772" lon="0.37307">
        <ele>85</ele>
        <time>2022-08-17T09:31:18Z</time>
      </trkpt>
      <trkpt lat="43.95771" lon="0.37297">
        <ele>85</ele>
        <time>2022-08-17T09:31:25Z</time>
      </trkpt>
      <trkpt lat="43.95763" lon="0.3728">
        <ele>85</ele>
        <time>2022-08-17T09:31:39Z</time>
      </trkpt>
      <trkpt lat="43.95765" lon="0.37267">
        <ele>86</ele>
        <time>2022-08-17T09:31:48Z</time>
      </trkpt>
      <trkpt lat="43.95769" lon="0.37257">
        <ele>86</ele>
        <time>2022-08-17T09:31:55Z</time>
      </trkpt>
      <trkpt lat="43.95768" lon="0.37247">
        <ele>86</ele>
        <time>2022-08-17T09:32:03Z</time>
      </trkpt>
      <trkpt lat="43.95763" lon="0.37237">
        <ele>86</ele>
        <time>2022-08-17T09:32:13Z</time>
      </trkpt>
      <trkpt lat="43.95765" lon="0.37218">
        <ele>87</ele>
        <time>2022-08-17T09:32:24Z</time>
      </trkpt>
      <trkpt lat="43.95761" lon="0.37203">
        <ele>86</ele>
        <time>2022-08-17T09:32:32Z</time>
      </trkpt>
      <trkpt lat="43.95747" lon="0.37182">
        <ele>85</ele>
        <time>2022-08-17T09:32:46Z</time>
      </trkpt>
      <trkpt lat="43.95735" lon="0.37176">
        <ele>85</ele>
        <time>2022-08-17T09:33:13Z</time>
      </trkpt>
      <trkpt lat="43.95737" lon="0.3717">
        <ele>85</ele>
        <time>2022-08-17T09:33:24Z</time>
      </trkpt>
      <trkpt lat="43.95733" lon="0.37158">
        <ele>85</ele>
        <time>2022-08-17T09:33:35Z</time>
      </trkpt>
      <trkpt lat="43.95735" lon="0.37151">
        <ele>85</ele>
        <time>2022-08-17T09:33:40Z</time>
      </trkpt>
      <trkpt lat="43.95744" lon="0.37137">
        <ele>85</ele>
        <time>2022-08-17T09:34:08Z</time>
      </trkpt>
      <trkpt lat="43.95745" lon="0.37129">
        <ele>85</ele>
        <time>2022-08-17T09:34:13Z</time>
      </trkpt>
      <trkpt lat="43.9575" lon="0.37127">
        <ele>85</ele>
        <time>2022-08-17T09:34:27Z</time>
      </trkpt>
      <trkpt lat="43.95751" lon="0.3714">
        <ele>84</ele>
        <time>2022-08-17T09:34:38Z</time>
      </trkpt>
      <trkpt lat="43.95752" lon="0.37149">
        <ele>85</ele>
        <time>2022-08-17T09:34:42Z</time>
      </trkpt>
      <trkpt lat="43.95748" lon="0.37157">
        <ele>85</ele>
        <time>2022-08-17T09:34:48Z</time>
      </trkpt>
      <trkpt lat="43.95751" lon="0.37167">
        <ele>86</ele>
        <time>2022-08-17T09:35:02Z</time>
      </trkpt>
      <trkpt lat="43.95747" lon="0.37171">
        <ele>86</ele>
        <time>2022-08-17T09:35:14Z</time>
      </trkpt>
      <trkpt lat="43.95737" lon="0.37164">
        <ele>85</ele>
        <time>2022-08-17T09:36:36Z</time>
      </trkpt>
      <trkpt lat="43.95731" lon="0.37144">
        <ele>85</ele>
        <time>2022-08-17T09:36:49Z</time>
      </trkpt>
      <trkpt lat="43.95734" lon="0.37122">
        <ele>85</ele>
        <time>2022-08-17T09:37:01Z</time>
      </trkpt>
      <trkpt lat="43.9574" lon="0.37112">
        <ele>84</ele>
        <time>2022-08-17T09:37:09Z</time>
      </trkpt>
      <trkpt lat="43.95744" lon="0.37099">
        <ele>83</ele>
        <time>2022-08-17T09:37:18Z</time>
      </trkpt>
      <trkpt lat="43.95748" lon="0.37088">
        <ele>83</ele>
        <time>2022-08-17T09:37:26Z</time>
      </trkpt>
      <trkpt lat="43.95749" lon="0.37078">
        <ele>82</ele>
        <time>2022-08-17T09:37:34Z</time>
      </trkpt>
      <trkpt lat="43.95749" lon="0.37052">
        <ele>81</ele>
        <time>2022-08-17T09:37:58Z</time>
      </trkpt>
      <trkpt lat="43.95746" lon="0.37044">
        <ele>81</ele>
        <time>2022-08-17T09:38:03Z</time>
      </trkpt>
      <trkpt lat="43.95744" lon="0.37027">
        <ele>79</ele>
        <time>2022-08-17T09:38:13Z</time>
      </trkpt>
      <trkpt lat="43.95746" lon="0.37005">
        <ele>78</ele>
        <time>2022-08-17T09:38:25Z</time>
      </trkpt>
      <trkpt lat="43.95739" lon="0.36996">
        <ele>78</ele>
        <time>2022-08-17T09:38:34Z</time>
      </trkpt>
      <trkpt lat="43.9574" lon="0.37014">
        <ele>78</ele>
        <time>2022-08-17T09:38:52Z</time>
      </trkpt>
      <trkpt lat="43.95729" lon="0.36992">
        <ele>76</ele>
        <time>2022-08-17T09:39:25Z</time>
      </trkpt>
      <trkpt lat="43.95724" lon="0.36983">
        <ele>76</ele>
        <time>2022-08-17T09:39:30Z</time>
      </trkpt>
      <trkpt lat="43.95719" lon="0.36964">
        <ele>75</ele>
        <time>2022-08-17T09:39:42Z</time>
      </trkpt>
      <trkpt lat="43.95714" lon="0.36954">
        <ele>74</ele>
        <time>2022-08-17T09:39:49Z</time>
      </trkpt>
      <trkpt lat="43.95701" lon="0.36934">
        <ele>73</ele>
        <time>2022-08-17T09:40:01Z</time>
      </trkpt>
      <trkpt lat="43.95693" lon="0.36931">
        <ele>73</ele>
        <time>2022-08-17T09:40:08Z</time>
      </trkpt>
      <trkpt lat="43.95687" lon="0.3692">
        <ele>73</ele>
        <time>2022-08-17T09:40:17Z</time>
      </trkpt>
      <trkpt lat="43.9568" lon="0.36923">
        <ele>73</ele>
        <time>2022-08-17T09:40:24Z</time>
      </trkpt>
      <trkpt lat="43.95678" lon="0.36914">
        <ele>73</ele>
        <time>2022-08-17T09:40:36Z</time>
      </trkpt>
      <trkpt lat="43.95679" lon="0.36906">
        <ele>72</ele>
        <time>2022-08-17T09:40:43Z</time>
      </trkpt>
      <trkpt lat="43.95681" lon="0.36888">
        <ele>72</ele>
        <time>2022-08-17T09:41:05Z</time>
      </trkpt>
      <trkpt lat="43.95682" lon="0.36845">
        <ele>71</ele>
        <time>2022-08-17T09:41:34Z</time>
      </trkpt>
      <trkpt lat="43.95668" lon="0.36837">
        <ele>71</ele>
        <time>2022-08-17T09:41:52Z</time>
      </trkpt>
      <trkpt lat="43.95644" lon="0.36837">
        <ele>71</ele>
        <time>2022-08-17T09:42:13Z</time>
      </trkpt>
      <trkpt lat="43.95633" lon="0.36835">
        <ele>71</ele>
        <time>2022-08-17T09:42:22Z</time>
      </trkpt>
      <trkpt lat="43.95628" lon="0.36834">
        <ele>71</ele>
        <time>2022-08-17T09:42:38Z</time>
      </trkpt>
      <trkpt lat="43.95618" lon="0.36832">
        <ele>71</ele>
        <time>2022-08-17T09:42:46Z</time>
      </trkpt>
      <trkpt lat="43.95613" lon="0.36832">
        <ele>71</ele>
        <time>2022-08-17T09:42:51Z</time>
      </trkpt>
      <trkpt lat="43.95581" lon="0.36822">
        <ele>71</ele>
        <time>2022-08-17T09:43:17Z</time>
      </trkpt>
      <trkpt lat="43.95571" lon="0.36809">
        <ele>70</ele>
        <time>2022-08-17T09:43:31Z</time>
      </trkpt>
      <trkpt lat="43.95568" lon="0.36804">
        <ele>71</ele>
        <time>2022-08-17T09:43:35Z</time>
      </trkpt>
      <trkpt lat="43.95564" lon="0.36796">
        <ele>71</ele>
        <time>2022-08-17T09:43:41Z</time>
      </trkpt>
      <trkpt lat="43.95563" lon="0.36771">
        <ele>71</ele>
        <time>2022-08-17T09:44:08Z</time>
      </trkpt>
      <trkpt lat="43.95561" lon="0.36765">
        <ele>71</ele>
        <time>2022-08-17T09:44:12Z</time>
      </trkpt>
      <trkpt lat="43.9556" lon="0.36744">
        <ele>71</ele>
        <time>2022-08-17T09:44:25Z</time>
      </trkpt>
      <trkpt lat="43.95555" lon="0.36702">
        <ele>71</ele>
        <time>2022-08-17T09:44:49Z</time>
      </trkpt>
      <trkpt lat="43.95556" lon="0.36689">
        <ele>71</ele>
        <time>2022-08-17T09:44:58Z</time>
      </trkpt>
      <trkpt lat="43.95552" lon="0.3664">
        <ele>70</ele>
        <time>2022-08-17T09:45:27Z</time>
      </trkpt>
      <trkpt lat="43.95549" lon="0.36625">
        <ele>70</ele>
        <time>2022-08-17T09:45:36Z</time>
      </trkpt>
      <trkpt lat="43.95547" lon="0.36618">
        <ele>71</ele>
        <time>2022-08-17T09:45:40Z</time>
      </trkpt>
      <trkpt lat="43.95542" lon="0.36599">
        <ele>71</ele>
        <time>2022-08-17T09:45:53Z</time>
      </trkpt>
      <trkpt lat="43.9554" lon="0.36593">
        <ele>71</ele>
        <time>2022-08-17T09:45:57Z</time>
      </trkpt>
      <trkpt lat="43.95536" lon="0.36588">
        <ele>71</ele>
        <time>2022-08-17T09:46:01Z</time>
      </trkpt>
      <trkpt lat="43.95533" lon="0.36581">
        <ele>70</ele>
        <time>2022-08-17T09:46:06Z</time>
      </trkpt>
      <trkpt lat="43.95529" lon="0.36576">
        <ele>70</ele>
        <time>2022-08-17T09:46:12Z</time>
      </trkpt>
      <trkpt lat="43.95512" lon="0.36549">
        <ele>71</ele>
        <time>2022-08-17T09:46:36Z</time>
      </trkpt>
      <trkpt lat="43.95486" lon="0.36512">
        <ele>71</ele>
        <time>2022-08-17T09:47:09Z</time>
      </trkpt>
      <trkpt lat="43.95481" lon="0.365">
        <ele>71</ele>
        <time>2022-08-17T09:47:30Z</time>
      </trkpt>
      <trkpt lat="43.95465" lon="0.36484">
        <ele>71</ele>
        <time>2022-08-17T09:47:45Z</time>
      </trkpt>
      <trkpt lat="43.95434" lon="0.36464">
        <ele>71</ele>
        <time>2022-08-17T09:48:16Z</time>
      </trkpt>
      <trkpt lat="43.95429" lon="0.36461">
        <ele>71</ele>
        <time>2022-08-17T09:48:20Z</time>
      </trkpt>
      <trkpt lat="43.95394" lon="0.36454">
        <ele>71</ele>
        <time>2022-08-17T09:48:48Z</time>
      </trkpt>
      <trkpt lat="43.95357" lon="0.36438">
        <ele>70</ele>
        <time>2022-08-17T09:49:20Z</time>
      </trkpt>
      <trkpt lat="43.95352" lon="0.36435">
        <ele>70</ele>
        <time>2022-08-17T09:49:24Z</time>
      </trkpt>
      <trkpt lat="43.9535" lon="0.3643">
        <ele>70</ele>
        <time>2022-08-17T09:49:28Z</time>
      </trkpt>
      <trkpt lat="43.95347" lon="0.36412">
        <ele>71</ele>
        <time>2022-08-17T09:49:50Z</time>
      </trkpt>
      <trkpt lat="43.95347" lon="0.36405">
        <ele>70</ele>
        <time>2022-08-17T09:50:01Z</time>
      </trkpt>
      <trkpt lat="43.95349" lon="0.36389">
        <ele>70</ele>
        <time>2022-08-17T09:50:12Z</time>
      </trkpt>
      <trkpt lat="43.95349" lon="0.3638">
        <ele>71</ele>
        <time>2022-08-17T09:50:29Z</time>
      </trkpt>
      <trkpt lat="43.9535" lon="0.36372">
        <ele>71</ele>
        <time>2022-08-17T09:50:35Z</time>
      </trkpt>
      <trkpt lat="43.95355" lon="0.36356">
        <ele>71</ele>
        <time>2022-08-17T09:50:46Z</time>
      </trkpt>
      <trkpt lat="43.95362" lon="0.36325">
        <ele>71</ele>
        <time>2022-08-17T09:51:06Z</time>
      </trkpt>
      <trkpt lat="43.95378" lon="0.36289">
        <ele>72</ele>
        <time>2022-08-17T09:51:30Z</time>
      </trkpt>
      <trkpt lat="43.95395" lon="0.36266">
        <ele>72</ele>
        <time>2022-08-17T09:51:49Z</time>
      </trkpt>
      <trkpt lat="43.95393" lon="0.36258">
        <ele>72</ele>
        <time>2022-08-17T09:51:59Z</time>
      </trkpt>
      <trkpt lat="43.9538" lon="0.36243">
        <ele>72</ele>
        <time>2022-08-17T09:52:13Z</time>
      </trkpt>
      <trkpt lat="43.95376" lon="0.3624">
        <ele>72</ele>
        <time>2022-08-17T09:52:18Z</time>
      </trkpt>
      <trkpt lat="43.95372" lon="0.36234">
        <ele>72</ele>
        <time>2022-08-17T09:52:22Z</time>
      </trkpt>
      <trkpt lat="43.9536" lon="0.36227">
        <ele>72</ele>
        <time>2022-08-17T09:52:33Z</time>
      </trkpt>
      <trkpt lat="43.95353" lon="0.36222">
        <ele>72</ele>
        <time>2022-08-17T09:52:41Z</time>
      </trkpt>
      <trkpt lat="43.95347" lon="0.36224">
        <ele>72</ele>
        <time>2022-08-17T09:52:45Z</time>
      </trkpt>
      <trkpt lat="43.95343" lon="0.36226">
        <ele>73</ele>
        <time>2022-08-17T09:52:48Z</time>
      </trkpt>
      <trkpt lat="43.95327" lon="0.36229">
        <ele>73</ele>
        <time>2022-08-17T09:53:00Z</time>
      </trkpt>
      <trkpt lat="43.95301" lon="0.36217">
        <ele>75</ele>
        <time>2022-08-17T09:53:21Z</time>
      </trkpt>
      <trkpt lat="43.95291" lon="0.36207">
        <ele>76</ele>
        <time>2022-08-17T09:53:30Z</time>
      </trkpt>
      <trkpt lat="43.95255" lon="0.36182">
        <ele>79</ele>
        <time>2022-08-17T09:54:01Z</time>
      </trkpt>
      <trkpt lat="43.95247" lon="0.36173">
        <ele>79</ele>
        <time>2022-08-17T09:54:11Z</time>
      </trkpt>
      <trkpt lat="43.95228" lon="0.36128">
        <ele>80</ele>
        <time>2022-08-17T09:54:41Z</time>
      </trkpt>
      <trkpt lat="43.9522" lon="0.36102">
        <ele>81</ele>
        <time>2022-08-17T09:54:58Z</time>
      </trkpt>
      <trkpt lat="43.95207" lon="0.36072">
        <ele>82</ele>
        <time>2022-08-17T09:55:17Z</time>
      </trkpt>
      <trkpt lat="43.95204" lon="0.36058">
        <ele>82</ele>
        <time>2022-08-17T09:55:25Z</time>
      </trkpt>
      <trkpt lat="43.952" lon="0.36053">
        <ele>82</ele>
        <time>2022-08-17T09:55:29Z</time>
      </trkpt>
      <trkpt lat="43.95181" lon="0.36003">
        <ele>84</ele>
        <time>2022-08-17T09:56:02Z</time>
      </trkpt>
      <trkpt lat="43.9517" lon="0.35979">
        <ele>84</ele>
        <time>2022-08-17T09:56:17Z</time>
      </trkpt>
      <trkpt lat="43.95159" lon="0.35939">
        <ele>85</ele>
        <time>2022-08-17T09:56:42Z</time>
      </trkpt>
      <trkpt lat="43.95155" lon="0.3592">
        <ele>85</ele>
        <time>2022-08-17T09:56:54Z</time>
      </trkpt>
      <trkpt lat="43.95141" lon="0.3588">
        <ele>86</ele>
        <time>2022-08-17T09:57:21Z</time>
      </trkpt>
      <trkpt lat="43.95119" lon="0.35835">
        <ele>88</ele>
        <time>2022-08-17T09:57:52Z</time>
      </trkpt>
      <trkpt lat="43.9509" lon="0.35791">
        <ele>89</ele>
        <time>2022-08-17T09:58:26Z</time>
      </trkpt>
      <trkpt lat="43.95079" lon="0.35777">
        <ele>90</ele>
        <time>2022-08-17T09:58:38Z</time>
      </trkpt>
      <trkpt lat="43.95065" lon="0.35769">
        <ele>90</ele>
        <time>2022-08-17T09:58:50Z</time>
      </trkpt>
      <trkpt lat="43.95026" lon="0.35761">
        <ele>89</ele>
        <time>2022-08-17T09:59:21Z</time>
      </trkpt>
      <trkpt lat="43.95016" lon="0.35759">
        <ele>89</ele>
        <time>2022-08-17T09:59:30Z</time>
      </trkpt>
      <trkpt lat="43.95004" lon="0.35762">
        <ele>89</ele>
        <time>2022-08-17T09:59:39Z</time>
      </trkpt>
      <trkpt lat="43.94999" lon="0.35761">
        <ele>88</ele>
        <time>2022-08-17T09:59:42Z</time>
      </trkpt>
      <trkpt lat="43.94984" lon="0.35763">
        <ele>88</ele>
        <time>2022-08-17T09:59:56Z</time>
      </trkpt>
      <trkpt lat="43.94977" lon="0.35763">
        <ele>88</ele>
        <time>2022-08-17T10:00:01Z</time>
      </trkpt>
      <trkpt lat="43.94968" lon="0.35755">
        <ele>88</ele>
        <time>2022-08-17T10:00:10Z</time>
      </trkpt>
      <trkpt lat="43.94965" lon="0.35741">
        <ele>88</ele>
        <time>2022-08-17T10:00:19Z</time>
      </trkpt>
      <trkpt lat="43.94968" lon="0.35705">
        <ele>89</ele>
        <time>2022-08-17T10:00:46Z</time>
      </trkpt>
      <trkpt lat="43.94967" lon="0.35697">
        <ele>89</ele>
        <time>2022-08-17T10:00:50Z</time>
      </trkpt>
      <trkpt lat="43.94968" lon="0.3569">
        <ele>89</ele>
        <time>2022-08-17T10:00:54Z</time>
      </trkpt>
      <trkpt lat="43.94969" lon="0.35674">
        <ele>89</ele>
        <time>2022-08-17T10:01:02Z</time>
      </trkpt>
      <trkpt lat="43.94972" lon="0.35667">
        <ele>89</ele>
        <time>2022-08-17T10:01:05Z</time>
      </trkpt>
      <trkpt lat="43.94976" lon="0.35625">
        <ele>90</ele>
        <time>2022-08-17T10:01:31Z</time>
      </trkpt>
      <trkpt lat="43.94976" lon="0.35611">
        <ele>91</ele>
        <time>2022-08-17T10:01:41Z</time>
      </trkpt>
      <trkpt lat="43.94967" lon="0.35607">
        <ele>91</ele>
        <time>2022-08-17T10:01:53Z</time>
      </trkpt>
      <trkpt lat="43.94954" lon="0.35588">
        <ele>93</ele>
        <time>2022-08-17T10:02:17Z</time>
      </trkpt>
      <trkpt lat="43.94946" lon="0.35579">
        <ele>93</ele>
        <time>2022-08-17T10:02:26Z</time>
      </trkpt>
      <trkpt lat="43.94934" lon="0.35556">
        <ele>92</ele>
        <time>2022-08-17T10:02:41Z</time>
      </trkpt>
      <trkpt lat="43.9493" lon="0.35551">
        <ele>92</ele>
        <time>2022-08-17T10:02:44Z</time>
      </trkpt>
      <trkpt lat="43.94925" lon="0.35537">
        <ele>93</ele>
        <time>2022-08-17T10:02:52Z</time>
      </trkpt>
      <trkpt lat="43.94917" lon="0.35496">
        <ele>94</ele>
        <time>2022-08-17T10:03:17Z</time>
      </trkpt>
      <trkpt lat="43.94914" lon="0.35489">
        <ele>94</ele>
        <time>2022-08-17T10:03:21Z</time>
      </trkpt>
      <trkpt lat="43.94909" lon="0.35467">
        <ele>95</ele>
        <time>2022-08-17T10:03:33Z</time>
      </trkpt>
      <trkpt lat="43.94899" lon="0.35442">
        <ele>95</ele>
        <time>2022-08-17T10:03:49Z</time>
      </trkpt>
      <trkpt lat="43.94895" lon="0.35437">
        <ele>96</ele>
        <time>2022-08-17T10:03:54Z</time>
      </trkpt>
      <trkpt lat="43.9489" lon="0.35434">
        <ele>96</ele>
        <time>2022-08-17T10:03:58Z</time>
      </trkpt>
      <trkpt lat="43.94871" lon="0.35414">
        <ele>97</ele>
        <time>2022-08-17T10:04:20Z</time>
      </trkpt>
      <trkpt lat="43.9484" lon="0.35386">
        <ele>100</ele>
        <time>2022-08-17T10:04:58Z</time>
      </trkpt>
      <trkpt lat="43.94831" lon="0.35381">
        <ele>101</ele>
        <time>2022-08-17T10:05:08Z</time>
      </trkpt>
      <trkpt lat="43.94827" lon="0.35376">
        <ele>102</ele>
        <time>2022-08-17T10:05:12Z</time>
      </trkpt>
      <trkpt lat="43.94824" lon="0.35368">
        <ele>103</ele>
        <time>2022-08-17T10:05:25Z</time>
      </trkpt>
      <trkpt lat="43.94813" lon="0.35365">
        <ele>104</ele>
        <time>2022-08-17T10:05:57Z</time>
      </trkpt>
      <trkpt lat="43.9479" lon="0.35338">
        <ele>108</ele>
        <time>2022-08-17T10:06:27Z</time>
      </trkpt>
      <trkpt lat="43.94784" lon="0.35335">
        <ele>109</ele>
        <time>2022-08-17T10:06:36Z</time>
      </trkpt>
      <trkpt lat="43.9478" lon="0.35328">
        <ele>109</ele>
        <time>2022-08-17T10:06:49Z</time>
      </trkpt>
      <trkpt lat="43.94777" lon="0.35322">
        <ele>110</ele>
        <time>2022-08-17T10:06:56Z</time>
      </trkpt>
      <trkpt lat="43.94764" lon="0.35299">
        <ele>113</ele>
        <time>2022-08-17T10:07:13Z</time>
      </trkpt>
      <trkpt lat="43.94759" lon="0.35281">
        <ele>113</ele>
        <time>2022-08-17T10:07:25Z</time>
      </trkpt>
      <trkpt lat="43.94759" lon="0.35273">
        <ele>113</ele>
        <time>2022-08-17T10:07:29Z</time>
      </trkpt>
      <trkpt lat="43.94753" lon="0.35253">
        <ele>114</ele>
        <time>2022-08-17T10:07:42Z</time>
      </trkpt>
      <trkpt lat="43.94752" lon="0.3524">
        <ele>115</ele>
        <time>2022-08-17T10:07:50Z</time>
      </trkpt>
      <trkpt lat="43.94755" lon="0.35225">
        <ele>115</ele>
        <time>2022-08-17T10:07:57Z</time>
      </trkpt>
      <trkpt lat="43.94756" lon="0.35213">
        <ele>116</ele>
        <time>2022-08-17T10:08:04Z</time>
      </trkpt>
      <trkpt lat="43.94757" lon="0.35206">
        <ele>116</ele>
        <time>2022-08-17T10:08:08Z</time>
      </trkpt>
      <trkpt lat="43.94758" lon="0.35193">
        <ele>116</ele>
        <time>2022-08-17T10:08:15Z</time>
      </trkpt>
      <trkpt lat="43.9476" lon="0.35173">
        <ele>116</ele>
        <time>2022-08-17T10:08:27Z</time>
      </trkpt>
      <trkpt lat="43.9476" lon="0.35165">
        <ele>116</ele>
        <time>2022-08-17T10:08:31Z</time>
      </trkpt>
      <trkpt lat="43.94759" lon="0.35159">
        <ele>115</ele>
        <time>2022-08-17T10:08:35Z</time>
      </trkpt>
      <trkpt lat="43.9476" lon="0.35132">
        <ele>115</ele>
        <time>2022-08-17T10:08:51Z</time>
      </trkpt>
      <trkpt lat="43.94761" lon="0.35117">
        <ele>115</ele>
        <time>2022-08-17T10:09:00Z</time>
      </trkpt>
      <trkpt lat="43.94761" lon="0.3511">
        <ele>115</ele>
        <time>2022-08-17T10:09:04Z</time>
      </trkpt>
      <trkpt lat="43.94762" lon="0.35066">
        <ele>114</ele>
        <time>2022-08-17T10:09:29Z</time>
      </trkpt>
      <trkpt lat="43.94761" lon="0.35058">
        <ele>114</ele>
        <time>2022-08-17T10:09:33Z</time>
      </trkpt>
      <trkpt lat="43.9476" lon="0.35044">
        <ele>113</ele>
        <time>2022-08-17T10:09:41Z</time>
      </trkpt>
      <trkpt lat="43.94759" lon="0.35022">
        <ele>112</ele>
        <time>2022-08-17T10:10:09Z</time>
      </trkpt>
      <trkpt lat="43.94756" lon="0.35014">
        <ele>111</ele>
        <time>2022-08-17T10:10:30Z</time>
      </trkpt>
      <trkpt lat="43.9475" lon="0.3496">
        <ele>110</ele>
        <time>2022-08-17T10:11:02Z</time>
      </trkpt>
      <trkpt lat="43.94746" lon="0.34922">
        <ele>108</ele>
        <time>2022-08-17T10:11:37Z</time>
      </trkpt>
      <trkpt lat="43.94742" lon="0.34895">
        <ele>108</ele>
        <time>2022-08-17T10:11:53Z</time>
      </trkpt>
      <trkpt lat="43.94736" lon="0.34854">
        <ele>108</ele>
        <time>2022-08-17T10:12:17Z</time>
      </trkpt>
      <trkpt lat="43.94734" lon="0.3484">
        <ele>108</ele>
        <time>2022-08-17T10:12:25Z</time>
      </trkpt>
      <trkpt lat="43.94727" lon="0.34797">
        <ele>108</ele>
        <time>2022-08-17T10:12:49Z</time>
      </trkpt>
      <trkpt lat="43.94723" lon="0.34769">
        <ele>108</ele>
        <time>2022-08-17T10:13:05Z</time>
      </trkpt>
      <trkpt lat="43.94711" lon="0.34714">
        <ele>110</ele>
        <time>2022-08-17T10:13:37Z</time>
      </trkpt>
      <trkpt lat="43.94699" lon="0.3466">
        <ele>111</ele>
        <time>2022-08-17T10:14:09Z</time>
      </trkpt>
      <trkpt lat="43.94688" lon="0.34629">
        <ele>111</ele>
        <time>2022-08-17T10:14:29Z</time>
      </trkpt>
      <trkpt lat="43.94685" lon="0.34625">
        <ele>111</ele>
        <time>2022-08-17T10:14:32Z</time>
      </trkpt>
      <trkpt lat="43.94683" lon="0.34618">
        <ele>111</ele>
        <time>2022-08-17T10:14:36Z</time>
      </trkpt>
      <trkpt lat="43.94675" lon="0.34602">
        <ele>111</ele>
        <time>2022-08-17T10:14:48Z</time>
      </trkpt>
      <trkpt lat="43.94673" lon="0.34596">
        <ele>110</ele>
        <time>2022-08-17T10:14:52Z</time>
      </trkpt>
      <trkpt lat="43.94645" lon="0.34553">
        <ele>109</ele>
        <time>2022-08-17T10:15:26Z</time>
      </trkpt>
      <trkpt lat="43.94636" lon="0.34546">
        <ele>108</ele>
        <time>2022-08-17T10:15:35Z</time>
      </trkpt>
      <trkpt lat="43.94626" lon="0.34541">
        <ele>108</ele>
        <time>2022-08-17T10:15:44Z</time>
      </trkpt>
      <trkpt lat="43.94617" lon="0.3454">
        <ele>108</ele>
        <time>2022-08-17T10:15:52Z</time>
      </trkpt>
      <trkpt lat="43.94612" lon="0.34537">
        <ele>108</ele>
        <time>2022-08-17T10:15:56Z</time>
      </trkpt>
      <trkpt lat="43.94607" lon="0.34536">
        <ele>108</ele>
        <time>2022-08-17T10:15:59Z</time>
      </trkpt>
      <trkpt lat="43.94602" lon="0.34534">
        <ele>109</ele>
        <time>2022-08-17T10:16:03Z</time>
      </trkpt>
      <trkpt lat="43.94597" lon="0.34531">
        <ele>108</ele>
        <time>2022-08-17T10:16:08Z</time>
      </trkpt>
      <trkpt lat="43.94591" lon="0.3453">
        <ele>108</ele>
        <time>2022-08-17T10:16:13Z</time>
      </trkpt>
      <trkpt lat="43.94564" lon="0.34522">
        <ele>109</ele>
        <time>2022-08-17T10:16:47Z</time>
      </trkpt>
      <trkpt lat="43.94536" lon="0.34506">
        <ele>112</ele>
        <time>2022-08-17T10:17:13Z</time>
      </trkpt>
      <trkpt lat="43.94513" lon="0.34478">
        <ele>113</ele>
        <time>2022-08-17T10:17:47Z</time>
      </trkpt>
      <trkpt lat="43.94497" lon="0.3445">
        <ele>115</ele>
        <time>2022-08-17T10:18:08Z</time>
      </trkpt>
      <trkpt lat="43.94485" lon="0.34421">
        <ele>117</ele>
        <time>2022-08-17T10:18:28Z</time>
      </trkpt>
      <trkpt lat="43.9448" lon="0.34384">
        <ele>118</ele>
        <time>2022-08-17T10:19:00Z</time>
      </trkpt>
      <trkpt lat="43.9448" lon="0.34376">
        <ele>118</ele>
        <time>2022-08-17T10:19:03Z</time>
      </trkpt>
      <trkpt lat="43.94473" lon="0.34324">
        <ele>119</ele>
        <time>2022-08-17T10:19:36Z</time>
      </trkpt>
      <trkpt lat="43.9447" lon="0.34309">
        <ele>120</ele>
        <time>2022-08-17T10:19:45Z</time>
      </trkpt>
      <trkpt lat="43.94459" lon="0.34264">
        <ele>120</ele>
        <time>2022-08-17T10:20:13Z</time>
      </trkpt>
      <trkpt lat="43.94458" lon="0.34257">
        <ele>119</ele>
        <time>2022-08-17T10:20:17Z</time>
      </trkpt>
      <trkpt lat="43.94456" lon="0.3425">
        <ele>119</ele>
        <time>2022-08-17T10:20:21Z</time>
      </trkpt>
      <trkpt lat="43.94453" lon="0.34239">
        <ele>119</ele>
        <time>2022-08-17T10:20:29Z</time>
      </trkpt>
      <trkpt lat="43.94448" lon="0.3422">
        <ele>118</ele>
        <time>2022-08-17T10:20:41Z</time>
      </trkpt>
      <trkpt lat="43.94447" lon="0.34214">
        <ele>119</ele>
        <time>2022-08-17T10:20:45Z</time>
      </trkpt>
      <trkpt lat="43.94438" lon="0.34177">
        <ele>118</ele>
        <time>2022-08-17T10:21:18Z</time>
      </trkpt>
      <trkpt lat="43.94435" lon="0.34165">
        <ele>118</ele>
        <time>2022-08-17T10:21:27Z</time>
      </trkpt>
      <trkpt lat="43.94432" lon="0.34152">
        <ele>117</ele>
        <time>2022-08-17T10:21:35Z</time>
      </trkpt>
      <trkpt lat="43.94428" lon="0.3414">
        <ele>117</ele>
        <time>2022-08-17T10:21:43Z</time>
      </trkpt>
      <trkpt lat="43.94424" lon="0.34123">
        <ele>117</ele>
        <time>2022-08-17T10:21:55Z</time>
      </trkpt>
      <trkpt lat="43.94421" lon="0.34111">
        <ele>117</ele>
        <time>2022-08-17T10:22:03Z</time>
      </trkpt>
      <trkpt lat="43.94409" lon="0.3406">
        <ele>115</ele>
        <time>2022-08-17T10:22:34Z</time>
      </trkpt>
      <trkpt lat="43.94405" lon="0.34047">
        <ele>115</ele>
        <time>2022-08-17T10:22:42Z</time>
      </trkpt>
      <trkpt lat="43.94393" lon="0.3401">
        <ele>114</ele>
        <time>2022-08-17T10:23:06Z</time>
      </trkpt>
      <trkpt lat="43.94371" lon="0.33963">
        <ele>111</ele>
        <time>2022-08-17T10:23:40Z</time>
      </trkpt>
      <trkpt lat="43.94362" lon="0.33948">
        <ele>110</ele>
        <time>2022-08-17T10:23:52Z</time>
      </trkpt>
      <trkpt lat="43.94356" lon="0.33937">
        <ele>110</ele>
        <time>2022-08-17T10:24:00Z</time>
      </trkpt>
      <trkpt lat="43.94338" lon="0.33894">
        <ele>109</ele>
        <time>2022-08-17T10:24:30Z</time>
      </trkpt>
      <trkpt lat="43.94327" lon="0.33845">
        <ele>111</ele>
        <time>2022-08-17T10:24:57Z</time>
      </trkpt>
      <trkpt lat="43.94328" lon="0.33839">
        <ele>111</ele>
        <time>2022-08-17T10:25:01Z</time>
      </trkpt>
      <trkpt lat="43.94323" lon="0.33807">
        <ele>113</ele>
        <time>2022-08-17T10:25:22Z</time>
      </trkpt>
      <trkpt lat="43.94322" lon="0.33802">
        <ele>113</ele>
        <time>2022-08-17T10:25:28Z</time>
      </trkpt>
      <trkpt lat="43.94319" lon="0.33794">
        <ele>113</ele>
        <time>2022-08-17T10:25:51Z</time>
      </trkpt>
      <trkpt lat="43.94313" lon="0.33758">
        <ele>114</ele>
        <time>2022-08-17T10:26:26Z</time>
      </trkpt>
      <trkpt lat="43.94304" lon="0.33702">
        <ele>116</ele>
        <time>2022-08-17T10:27:01Z</time>
      </trkpt>
      <trkpt lat="43.94301" lon="0.33682">
        <ele>116</ele>
        <time>2022-08-17T10:27:13Z</time>
      </trkpt>
      <trkpt lat="43.94298" lon="0.33663">
        <ele>117</ele>
        <time>2022-08-17T10:27:26Z</time>
      </trkpt>
      <trkpt lat="43.94297" lon="0.33664">
        <ele>117</ele>
        <time>2022-08-17T10:29:51Z</time>
      </trkpt>
      <trkpt lat="43.94296" lon="0.33649">
        <ele>118</ele>
        <time>2022-08-17T10:30:07Z</time>
      </trkpt>
      <trkpt lat="43.94298" lon="0.33653">
        <ele>118</ele>
        <time>2022-08-17T10:30:33Z</time>
      </trkpt>
      <trkpt lat="43.94296" lon="0.3365">
        <ele>118</ele>
        <time>2022-08-17T10:31:10Z</time>
      </trkpt>
      <trkpt lat="43.94295" lon="0.33643">
        <ele>118</ele>
        <time>2022-08-17T10:31:15Z</time>
      </trkpt>
      <trkpt lat="43.94292" lon="0.33623">
        <ele>119</ele>
        <time>2022-08-17T10:31:28Z</time>
      </trkpt>
      <trkpt lat="43.94289" lon="0.33587">
        <ele>121</ele>
        <time>2022-08-17T10:31:48Z</time>
      </trkpt>
      <trkpt lat="43.94289" lon="0.33581">
        <ele>121</ele>
        <time>2022-08-17T10:31:52Z</time>
      </trkpt>
      <trkpt lat="43.94289" lon="0.33534">
        <ele>124</ele>
        <time>2022-08-17T10:32:22Z</time>
      </trkpt>
      <trkpt lat="43.9429" lon="0.33524">
        <ele>124</ele>
        <time>2022-08-17T10:32:28Z</time>
      </trkpt>
      <trkpt lat="43.94291" lon="0.33518">
        <ele>124</ele>
        <time>2022-08-17T10:32:32Z</time>
      </trkpt>
      <trkpt lat="43.94293" lon="0.33504">
        <ele>125</ele>
        <time>2022-08-17T10:32:40Z</time>
      </trkpt>
      <trkpt lat="43.94293" lon="0.33498">
        <ele>126</ele>
        <time>2022-08-17T10:32:44Z</time>
      </trkpt>
      <trkpt lat="43.94297" lon="0.3345">
        <ele>128</ele>
        <time>2022-08-17T10:33:15Z</time>
      </trkpt>
      <trkpt lat="43.943" lon="0.33426">
        <ele>130</ele>
        <time>2022-08-17T10:33:32Z</time>
      </trkpt>
      <trkpt lat="43.94301" lon="0.33417">
        <ele>130</ele>
        <time>2022-08-17T10:33:38Z</time>
      </trkpt>
      <trkpt lat="43.94301" lon="0.33403">
        <ele>131</ele>
        <time>2022-08-17T10:33:47Z</time>
      </trkpt>
      <trkpt lat="43.94303" lon="0.33395">
        <ele>131</ele>
        <time>2022-08-17T10:34:07Z</time>
      </trkpt>
      <trkpt lat="43.94305" lon="0.33338">
        <ele>135</ele>
        <time>2022-08-17T10:34:40Z</time>
      </trkpt>
      <trkpt lat="43.94306" lon="0.33332">
        <ele>135</ele>
        <time>2022-08-17T10:34:44Z</time>
      </trkpt>
      <trkpt lat="43.94301" lon="0.33296">
        <ele>137</ele>
        <time>2022-08-17T10:35:04Z</time>
      </trkpt>
      <trkpt lat="43.94299" lon="0.33291">
        <ele>137</ele>
        <time>2022-08-17T10:35:08Z</time>
      </trkpt>
      <trkpt lat="43.94288" lon="0.33276">
        <ele>138</ele>
        <time>2022-08-17T10:35:22Z</time>
      </trkpt>
      <trkpt lat="43.9428" lon="0.3327">
        <ele>139</ele>
        <time>2022-08-17T10:35:30Z</time>
      </trkpt>
      <trkpt lat="43.94269" lon="0.33254">
        <ele>140</ele>
        <time>2022-08-17T10:35:43Z</time>
      </trkpt>
      <trkpt lat="43.9425" lon="0.33233">
        <ele>142</ele>
        <time>2022-08-17T10:36:12Z</time>
      </trkpt>
      <trkpt lat="43.94247" lon="0.33228">
        <ele>143</ele>
        <time>2022-08-17T10:36:17Z</time>
      </trkpt>
      <trkpt lat="43.94239" lon="0.33215">
        <ele>143</ele>
        <time>2022-08-17T10:36:33Z</time>
      </trkpt>
      <trkpt lat="43.94235" lon="0.33211">
        <ele>143</ele>
        <time>2022-08-17T10:36:37Z</time>
      </trkpt>
      <trkpt lat="43.94224" lon="0.33184">
        <ele>145</ele>
        <time>2022-08-17T10:37:09Z</time>
      </trkpt>
      <trkpt lat="43.94222" lon="0.33179">
        <ele>145</ele>
        <time>2022-08-17T10:37:13Z</time>
      </trkpt>
      <trkpt lat="43.94202" lon="0.33139">
        <ele>149</ele>
        <time>2022-08-17T10:37:44Z</time>
      </trkpt>
      <trkpt lat="43.94199" lon="0.33132">
        <ele>149</ele>
        <time>2022-08-17T10:37:58Z</time>
      </trkpt>
      <trkpt lat="43.94197" lon="0.33127">
        <ele>149</ele>
        <time>2022-08-17T10:38:02Z</time>
      </trkpt>
      <trkpt lat="43.94168" lon="0.33094">
        <ele>153</ele>
        <time>2022-08-17T10:38:34Z</time>
      </trkpt>
      <trkpt lat="43.94159" lon="0.33084">
        <ele>154</ele>
        <time>2022-08-17T10:38:44Z</time>
      </trkpt>
      <trkpt lat="43.94156" lon="0.33078">
        <ele>154</ele>
        <time>2022-08-17T10:38:49Z</time>
      </trkpt>
      <trkpt lat="43.94147" lon="0.33035">
        <ele>157</ele>
        <time>2022-08-17T10:39:17Z</time>
      </trkpt>
      <trkpt lat="43.94144" lon="0.33012">
        <ele>159</ele>
        <time>2022-08-17T10:39:41Z</time>
      </trkpt>
      <trkpt lat="43.9414" lon="0.32998">
        <ele>159</ele>
        <time>2022-08-17T10:39:50Z</time>
      </trkpt>
      <trkpt lat="43.94139" lon="0.32992">
        <ele>159</ele>
        <time>2022-08-17T10:39:54Z</time>
      </trkpt>
      <trkpt lat="43.94137" lon="0.32985">
        <ele>158</ele>
        <time>2022-08-17T10:39:58Z</time>
      </trkpt>
      <trkpt lat="43.94136" lon="0.32978">
        <ele>159</ele>
        <time>2022-08-17T10:40:03Z</time>
      </trkpt>
      <trkpt lat="43.94135" lon="0.32972">
        <ele>159</ele>
        <time>2022-08-17T10:40:07Z</time>
      </trkpt>
      <trkpt lat="43.94136" lon="0.32958">
        <ele>159</ele>
        <time>2022-08-17T10:40:16Z</time>
      </trkpt>
      <trkpt lat="43.9413" lon="0.32949">
        <ele>158</ele>
        <time>2022-08-17T10:40:35Z</time>
      </trkpt>
      <trkpt lat="43.94129" lon="0.32943">
        <ele>158</ele>
        <time>2022-08-17T10:40:40Z</time>
      </trkpt>
      <trkpt lat="43.94128" lon="0.32937">
        <ele>158</ele>
        <time>2022-08-17T10:40:44Z</time>
      </trkpt>
      <trkpt lat="43.94117" lon="0.32911">
        <ele>157</ele>
        <time>2022-08-17T10:41:03Z</time>
      </trkpt>
      <trkpt lat="43.94114" lon="0.32904">
        <ele>157</ele>
        <time>2022-08-17T10:41:08Z</time>
      </trkpt>
      <trkpt lat="43.94099" lon="0.32867">
        <ele>156</ele>
        <time>2022-08-17T10:41:29Z</time>
      </trkpt>
      <trkpt lat="43.9409" lon="0.32841">
        <ele>155</ele>
        <time>2022-08-17T10:41:44Z</time>
      </trkpt>
      <trkpt lat="43.94089" lon="0.32833">
        <ele>156</ele>
        <time>2022-08-17T10:41:48Z</time>
      </trkpt>
      <trkpt lat="43.94083" lon="0.32804">
        <ele>155</ele>
        <time>2022-08-17T10:42:05Z</time>
      </trkpt>
      <trkpt lat="43.94079" lon="0.32747">
        <ele>156</ele>
        <time>2022-08-17T10:42:38Z</time>
      </trkpt>
      <trkpt lat="43.94077" lon="0.32725">
        <ele>156</ele>
        <time>2022-08-17T10:42:52Z</time>
      </trkpt>
      <trkpt lat="43.94065" lon="0.32685">
        <ele>158</ele>
        <time>2022-08-17T10:43:22Z</time>
      </trkpt>
      <trkpt lat="43.94061" lon="0.32678">
        <ele>159</ele>
        <time>2022-08-17T10:43:30Z</time>
      </trkpt>
      <trkpt lat="43.94059" lon="0.32671">
        <ele>160</ele>
        <time>2022-08-17T10:43:35Z</time>
      </trkpt>
      <trkpt lat="43.94055" lon="0.3266">
        <ele>161</ele>
        <time>2022-08-17T10:43:45Z</time>
      </trkpt>
      <trkpt lat="43.94047" lon="0.32636">
        <ele>163</ele>
        <time>2022-08-17T10:44:14Z</time>
      </trkpt>
      <trkpt lat="43.94043" lon="0.32614">
        <ele>165</ele>
        <time>2022-08-17T10:44:28Z</time>
      </trkpt>
      <trkpt lat="43.94033" lon="0.32592">
        <ele>168</ele>
        <time>2022-08-17T10:44:51Z</time>
      </trkpt>
      <trkpt lat="43.94026" lon="0.32556">
        <ele>170</ele>
        <time>2022-08-17T10:45:18Z</time>
      </trkpt>
      <trkpt lat="43.94026" lon="0.32549">
        <ele>171</ele>
        <time>2022-08-17T10:45:22Z</time>
      </trkpt>
      <trkpt lat="43.94022" lon="0.32533">
        <ele>172</ele>
        <time>2022-08-17T10:45:36Z</time>
      </trkpt>
      <trkpt lat="43.94019" lon="0.32496">
        <ele>174</ele>
        <time>2022-08-17T10:46:08Z</time>
      </trkpt>
      <trkpt lat="43.94018" lon="0.32482">
        <ele>174</ele>
        <time>2022-08-17T10:46:17Z</time>
      </trkpt>
      <trkpt lat="43.94015" lon="0.32467">
        <ele>175</ele>
        <time>2022-08-17T10:46:27Z</time>
      </trkpt>
      <trkpt lat="43.94013" lon="0.32416">
        <ele>177</ele>
        <time>2022-08-17T10:46:57Z</time>
      </trkpt>
      <trkpt lat="43.94013" lon="0.32385">
        <ele>177</ele>
        <time>2022-08-17T10:47:17Z</time>
      </trkpt>
      <trkpt lat="43.94013" lon="0.32375">
        <ele>177</ele>
        <time>2022-08-17T10:47:24Z</time>
      </trkpt>
      <trkpt lat="43.94011" lon="0.32358">
        <ele>177</ele>
        <time>2022-08-17T10:47:33Z</time>
      </trkpt>
      <trkpt lat="43.94009" lon="0.32335">
        <ele>177</ele>
        <time>2022-08-17T10:47:46Z</time>
      </trkpt>
      <trkpt lat="43.94007" lon="0.32328">
        <ele>177</ele>
        <time>2022-08-17T10:47:50Z</time>
      </trkpt>
      <trkpt lat="43.94005" lon="0.32312">
        <ele>177</ele>
        <time>2022-08-17T10:47:59Z</time>
      </trkpt>
      <trkpt lat="43.93997" lon="0.32277">
        <ele>177</ele>
        <time>2022-08-17T10:48:21Z</time>
      </trkpt>
      <trkpt lat="43.93994" lon="0.3226">
        <ele>177</ele>
        <time>2022-08-17T10:48:30Z</time>
      </trkpt>
      <trkpt lat="43.9398" lon="0.32215">
        <ele>178</ele>
        <time>2022-08-17T10:49:03Z</time>
      </trkpt>
      <trkpt lat="43.93968" lon="0.32164">
        <ele>178</ele>
        <time>2022-08-17T10:49:35Z</time>
      </trkpt>
      <trkpt lat="43.93954" lon="0.32115">
        <ele>178</ele>
        <time>2022-08-17T10:50:05Z</time>
      </trkpt>
      <trkpt lat="43.93943" lon="0.32083">
        <ele>178</ele>
        <time>2022-08-17T10:50:24Z</time>
      </trkpt>
      <trkpt lat="43.93935" lon="0.3205">
        <ele>179</ele>
        <time>2022-08-17T10:50:44Z</time>
      </trkpt>
      <trkpt lat="43.93933" lon="0.32024">
        <ele>179</ele>
        <time>2022-08-17T10:51:00Z</time>
      </trkpt>
      <trkpt lat="43.93934" lon="0.3201">
        <ele>179</ele>
        <time>2022-08-17T10:51:08Z</time>
      </trkpt>
      <trkpt lat="43.9393" lon="0.31951">
        <ele>180</ele>
        <time>2022-08-17T10:51:42Z</time>
      </trkpt>
      <trkpt lat="43.93929" lon="0.31944">
        <ele>180</ele>
        <time>2022-08-17T10:51:46Z</time>
      </trkpt>
      <trkpt lat="43.93927" lon="0.31936">
        <ele>180</ele>
        <time>2022-08-17T10:52:13Z</time>
      </trkpt>
      <trkpt lat="43.93927" lon="0.31911">
        <ele>180</ele>
        <time>2022-08-17T10:52:32Z</time>
      </trkpt>
      <trkpt lat="43.93929" lon="0.31897">
        <ele>180</ele>
        <time>2022-08-17T10:52:41Z</time>
      </trkpt>
      <trkpt lat="43.93932" lon="0.31892">
        <ele>180</ele>
        <time>2022-08-17T10:52:45Z</time>
      </trkpt>
      <trkpt lat="43.93937" lon="0.31878">
        <ele>180</ele>
        <time>2022-08-17T10:52:53Z</time>
      </trkpt>
      <trkpt lat="43.93943" lon="0.31868">
        <ele>180</ele>
        <time>2022-08-17T10:53:01Z</time>
      </trkpt>
      <trkpt lat="43.93954" lon="0.31852">
        <ele>179</ele>
        <time>2022-08-17T10:53:13Z</time>
      </trkpt>
      <trkpt lat="43.93958" lon="0.31846">
        <ele>180</ele>
        <time>2022-08-17T10:53:16Z</time>
      </trkpt>
      <trkpt lat="43.9398" lon="0.31798">
        <ele>178</ele>
        <time>2022-08-17T10:53:49Z</time>
      </trkpt>
      <trkpt lat="43.93986" lon="0.31793">
        <ele>178</ele>
        <time>2022-08-17T10:53:54Z</time>
      </trkpt>
      <trkpt lat="43.93997" lon="0.3177">
        <ele>178</ele>
        <time>2022-08-17T10:54:09Z</time>
      </trkpt>
      <trkpt lat="43.93999" lon="0.31764">
        <ele>178</ele>
        <time>2022-08-17T10:54:13Z</time>
      </trkpt>
      <trkpt lat="43.94026" lon="0.31717">
        <ele>177</ele>
        <time>2022-08-17T10:54:45Z</time>
      </trkpt>
      <trkpt lat="43.94039" lon="0.31691">
        <ele>178</ele>
        <time>2022-08-17T10:55:03Z</time>
      </trkpt>
      <trkpt lat="43.94055" lon="0.31635">
        <ele>177</ele>
        <time>2022-08-17T10:55:46Z</time>
      </trkpt>
      <trkpt lat="43.94056" lon="0.31628">
        <ele>177</ele>
        <time>2022-08-17T10:55:51Z</time>
      </trkpt>
      <trkpt lat="43.94059" lon="0.31615">
        <ele>177</ele>
        <time>2022-08-17T10:55:59Z</time>
      </trkpt>
      <trkpt lat="43.94062" lon="0.31608">
        <ele>177</ele>
        <time>2022-08-17T10:56:02Z</time>
      </trkpt>
      <trkpt lat="43.94065" lon="0.31587">
        <ele>177</ele>
        <time>2022-08-17T10:56:15Z</time>
      </trkpt>
      <trkpt lat="43.94071" lon="0.31553">
        <ele>176</ele>
        <time>2022-08-17T10:56:39Z</time>
      </trkpt>
      <trkpt lat="43.94074" lon="0.31546">
        <ele>176</ele>
        <time>2022-08-17T10:56:44Z</time>
      </trkpt>
      <trkpt lat="43.94075" lon="0.31539">
        <ele>175</ele>
        <time>2022-08-17T10:56:49Z</time>
      </trkpt>
      <trkpt lat="43.9408" lon="0.31527">
        <ele>175</ele>
        <time>2022-08-17T10:56:57Z</time>
      </trkpt>
      <trkpt lat="43.94095" lon="0.31506">
        <ele>174</ele>
        <time>2022-08-17T10:57:16Z</time>
      </trkpt>
      <trkpt lat="43.94099" lon="0.31503">
        <ele>174</ele>
        <time>2022-08-17T10:57:20Z</time>
      </trkpt>
      <trkpt lat="43.94118" lon="0.31473">
        <ele>172</ele>
        <time>2022-08-17T10:57:42Z</time>
      </trkpt>
      <trkpt lat="43.94121" lon="0.31466">
        <ele>172</ele>
        <time>2022-08-17T10:57:46Z</time>
      </trkpt>
      <trkpt lat="43.94122" lon="0.31459">
        <ele>172</ele>
        <time>2022-08-17T10:57:51Z</time>
      </trkpt>
      <trkpt lat="43.94137" lon="0.31429">
        <ele>171</ele>
        <time>2022-08-17T10:58:11Z</time>
      </trkpt>
      <trkpt lat="43.94139" lon="0.31422">
        <ele>170</ele>
        <time>2022-08-17T10:58:15Z</time>
      </trkpt>
      <trkpt lat="43.94147" lon="0.31406">
        <ele>170</ele>
        <time>2022-08-17T10:58:27Z</time>
      </trkpt>
      <trkpt lat="43.94157" lon="0.31389">
        <ele>169</ele>
        <time>2022-08-17T10:58:39Z</time>
      </trkpt>
      <trkpt lat="43.94161" lon="0.3138">
        <ele>168</ele>
        <time>2022-08-17T10:58:54Z</time>
      </trkpt>
      <trkpt lat="43.94164" lon="0.31375">
        <ele>167</ele>
        <time>2022-08-17T10:58:58Z</time>
      </trkpt>
      <trkpt lat="43.94173" lon="0.31369">
        <ele>166</ele>
        <time>2022-08-17T10:59:06Z</time>
      </trkpt>
      <trkpt lat="43.94188" lon="0.31373">
        <ele>165</ele>
        <time>2022-08-17T10:59:19Z</time>
      </trkpt>
      <trkpt lat="43.94194" lon="0.31375">
        <ele>164</ele>
        <time>2022-08-17T10:59:27Z</time>
      </trkpt>
      <trkpt lat="43.94208" lon="0.31374">
        <ele>162</ele>
        <time>2022-08-17T10:59:38Z</time>
      </trkpt>
      <trkpt lat="43.94213" lon="0.31371">
        <ele>161</ele>
        <time>2022-08-17T10:59:44Z</time>
      </trkpt>
      <trkpt lat="43.94227" lon="0.3136">
        <ele>160</ele>
        <time>2022-08-17T10:59:57Z</time>
      </trkpt>
      <trkpt lat="43.94233" lon="0.31353">
        <ele>160</ele>
        <time>2022-08-17T11:00:18Z</time>
      </trkpt>
      <trkpt lat="43.94256" lon="0.31325">
        <ele>157</ele>
        <time>2022-08-17T11:00:51Z</time>
      </trkpt>
      <trkpt lat="43.94265" lon="0.31317">
        <ele>157</ele>
        <time>2022-08-17T11:00:59Z</time>
      </trkpt>
      <trkpt lat="43.94269" lon="0.31312">
        <ele>156</ele>
        <time>2022-08-17T11:01:04Z</time>
      </trkpt>
      <trkpt lat="43.94307" lon="0.31291">
        <ele>153</ele>
        <time>2022-08-17T11:01:36Z</time>
      </trkpt>
      <trkpt lat="43.94312" lon="0.31289">
        <ele>152</ele>
        <time>2022-08-17T11:01:41Z</time>
      </trkpt>
      <trkpt lat="43.94335" lon="0.31271">
        <ele>150</ele>
        <time>2022-08-17T11:02:03Z</time>
      </trkpt>
      <trkpt lat="43.94338" lon="0.31267">
        <ele>149</ele>
        <time>2022-08-17T11:02:07Z</time>
      </trkpt>
      <trkpt lat="43.94355" lon="0.31252">
        <ele>148</ele>
        <time>2022-08-17T11:02:24Z</time>
      </trkpt>
      <trkpt lat="43.94359" lon="0.31247">
        <ele>148</ele>
        <time>2022-08-17T11:02:28Z</time>
      </trkpt>
      <trkpt lat="43.94363" lon="0.31243">
        <ele>148</ele>
        <time>2022-08-17T11:02:32Z</time>
      </trkpt>
      <trkpt lat="43.94378" lon="0.3123">
        <ele>147</ele>
        <time>2022-08-17T11:02:48Z</time>
      </trkpt>
      <trkpt lat="43.94383" lon="0.31228">
        <ele>147</ele>
        <time>2022-08-17T11:02:52Z</time>
      </trkpt>
      <trkpt lat="43.94391" lon="0.31221">
        <ele>147</ele>
        <time>2022-08-17T11:03:01Z</time>
      </trkpt>
      <trkpt lat="43.94396" lon="0.31218">
        <ele>147</ele>
        <time>2022-08-17T11:03:11Z</time>
      </trkpt>
      <trkpt lat="43.944" lon="0.31213">
        <ele>147</ele>
        <time>2022-08-17T11:03:16Z</time>
      </trkpt>
      <trkpt lat="43.94409" lon="0.31205">
        <ele>146</ele>
        <time>2022-08-17T11:03:24Z</time>
      </trkpt>
      <trkpt lat="43.94422" lon="0.31195">
        <ele>145</ele>
        <time>2022-08-17T11:03:37Z</time>
      </trkpt>
      <trkpt lat="43.94441" lon="0.31189">
        <ele>144</ele>
        <time>2022-08-17T11:03:55Z</time>
      </trkpt>
      <trkpt lat="43.94446" lon="0.31186">
        <ele>144</ele>
        <time>2022-08-17T11:04:00Z</time>
      </trkpt>
      <trkpt lat="43.94449" lon="0.31181">
        <ele>144</ele>
        <time>2022-08-17T11:04:04Z</time>
      </trkpt>
      <trkpt lat="43.94465" lon="0.31161">
        <ele>145</ele>
        <time>2022-08-17T11:04:28Z</time>
      </trkpt>
      <trkpt lat="43.94465" lon="0.31153">
        <ele>145</ele>
        <time>2022-08-17T11:04:33Z</time>
      </trkpt>
      <trkpt lat="43.94465" lon="0.31147">
        <ele>145</ele>
        <time>2022-08-17T11:04:38Z</time>
      </trkpt>
      <trkpt lat="43.94461" lon="0.31142">
        <ele>145</ele>
        <time>2022-08-17T11:04:46Z</time>
      </trkpt>
      <trkpt lat="43.94459" lon="0.3114">
        <ele>146</ele>
        <time>2022-08-17T11:37:57Z</time>
      </trkpt>
      <trkpt lat="43.94469" lon="0.31133">
        <ele>146</ele>
        <time>2022-08-17T11:39:33Z</time>
      </trkpt>
      <trkpt lat="43.94459" lon="0.31131">
        <ele>146</ele>
        <time>2022-08-17T11:41:27Z</time>
      </trkpt>
      <trkpt lat="43.94458" lon="0.31137">
        <ele>147</ele>
        <time>2022-08-17T11:43:31Z</time>
      </trkpt>
      <trkpt lat="43.94465" lon="0.31146">
        <ele>146</ele>
        <time>2022-08-17T11:43:56Z</time>
      </trkpt>
      <trkpt lat="43.94461" lon="0.31144">
        <ele>146</ele>
        <time>2022-08-17T11:44:17Z</time>
      </trkpt>
      <trkpt lat="43.94458" lon="0.31134">
        <ele>146</ele>
        <time>2022-08-17T11:44:27Z</time>
      </trkpt>
      <trkpt lat="43.94451" lon="0.31133">
        <ele>146</ele>
        <time>2022-08-17T11:44:37Z</time>
      </trkpt>
      <trkpt lat="43.94446" lon="0.31131">
        <ele>147</ele>
        <time>2022-08-17T11:44:42Z</time>
      </trkpt>
      <trkpt lat="43.94441" lon="0.31121">
        <ele>147</ele>
        <time>2022-08-17T11:45:05Z</time>
      </trkpt>
      <trkpt lat="43.94436" lon="0.31112">
        <ele>147</ele>
        <time>2022-08-17T11:45:11Z</time>
      </trkpt>
      <trkpt lat="43.94431" lon="0.31096">
        <ele>148</ele>
        <time>2022-08-17T11:45:26Z</time>
      </trkpt>
      <trkpt lat="43.94427" lon="0.31081">
        <ele>148</ele>
        <time>2022-08-17T11:45:39Z</time>
      </trkpt>
      <trkpt lat="43.94421" lon="0.31067">
        <ele>149</ele>
        <time>2022-08-17T11:45:49Z</time>
      </trkpt>
      <trkpt lat="43.94414" lon="0.31055">
        <ele>149</ele>
        <time>2022-08-17T11:46:01Z</time>
      </trkpt>
      <trkpt lat="43.94408" lon="0.31049">
        <ele>149</ele>
        <time>2022-08-17T11:46:11Z</time>
      </trkpt>
      <trkpt lat="43.94404" lon="0.31045">
        <ele>149</ele>
        <time>2022-08-17T11:46:16Z</time>
      </trkpt>
      <trkpt lat="43.94399" lon="0.31043">
        <ele>149</ele>
        <time>2022-08-17T11:46:21Z</time>
      </trkpt>
      <trkpt lat="43.94394" lon="0.31039">
        <ele>149</ele>
        <time>2022-08-17T11:46:27Z</time>
      </trkpt>
      <trkpt lat="43.94402" lon="0.31035">
        <ele>149</ele>
        <time>2022-08-17T11:47:26Z</time>
      </trkpt>
      <trkpt lat="43.94409" lon="0.31047">
        <ele>148</ele>
        <time>2022-08-17T11:47:35Z</time>
      </trkpt>
      <trkpt lat="43.94406" lon="0.31052">
        <ele>148</ele>
        <time>2022-08-17T11:47:43Z</time>
      </trkpt>
      <trkpt lat="43.94403" lon="0.31065">
        <ele>149</ele>
        <time>2022-08-17T11:47:57Z</time>
      </trkpt>
      <trkpt lat="43.94406" lon="0.31074">
        <ele>149</ele>
        <time>2022-08-17T11:48:19Z</time>
      </trkpt>
      <trkpt lat="43.94411" lon="0.31079">
        <ele>149</ele>
        <time>2022-08-17T11:48:24Z</time>
      </trkpt>
      <trkpt lat="43.94415" lon="0.31087">
        <ele>148</ele>
        <time>2022-08-17T11:48:44Z</time>
      </trkpt>
      <trkpt lat="43.94403" lon="0.31095">
        <ele>148</ele>
        <time>2022-08-17T11:49:16Z</time>
      </trkpt>
      <trkpt lat="43.94402" lon="0.31102">
        <ele>148</ele>
        <time>2022-08-17T11:55:11Z</time>
      </trkpt>
      <trkpt lat="43.94399" lon="0.31113">
        <ele>147</ele>
        <time>2022-08-17T11:55:33Z</time>
      </trkpt>
      <trkpt lat="43.94394" lon="0.31117">
        <ele>147</ele>
        <time>2022-08-17T11:57:10Z</time>
      </trkpt>
      <trkpt lat="43.9439" lon="0.3112">
        <ele>147</ele>
        <time>2022-08-17T11:57:14Z</time>
      </trkpt>
      <trkpt lat="43.94393" lon="0.31115">
        <ele>148</ele>
        <time>2022-08-17T12:04:21Z</time>
      </trkpt>
      <trkpt lat="43.94391" lon="0.31117">
        <ele>148</ele>
        <time>2022-08-17T12:07:29Z</time>
      </trkpt>
      <trkpt lat="43.94394" lon="0.31123">
        <ele>148</ele>
        <time>2022-08-17T12:07:34Z</time>
      </trkpt>
      <trkpt lat="43.94389" lon="0.31139">
        <ele>148</ele>
        <time>2022-08-17T12:07:50Z</time>
      </trkpt>
      <trkpt lat="43.94384" lon="0.31143">
        <ele>148</ele>
        <time>2022-08-17T12:07:54Z</time>
      </trkpt>
      <trkpt lat="43.94376" lon="0.31143">
        <ele>148</ele>
        <time>2022-08-17T12:08:05Z</time>
      </trkpt>
      <trkpt lat="43.94368" lon="0.31132">
        <ele>148</ele>
        <time>2022-08-17T12:08:19Z</time>
      </trkpt>
      <trkpt lat="43.94371" lon="0.31118">
        <ele>148</ele>
        <time>2022-08-17T12:09:06Z</time>
      </trkpt>
      <trkpt lat="43.94374" lon="0.31105">
        <ele>147</ele>
        <time>2022-08-17T12:09:15Z</time>
      </trkpt>
      <trkpt lat="43.94382" lon="0.31104">
        <ele>147</ele>
        <time>2022-08-17T12:09:30Z</time>
      </trkpt>
      <trkpt lat="43.9438" lon="0.31095">
        <ele>147</ele>
        <time>2022-08-17T12:14:23Z</time>
      </trkpt>
      <trkpt lat="43.9438" lon="0.31087">
        <ele>148</ele>
        <time>2022-08-17T12:14:29Z</time>
      </trkpt>
      <trkpt lat="43.94384" lon="0.31078">
        <ele>148</ele>
        <time>2022-08-17T12:14:37Z</time>
      </trkpt>
      <trkpt lat="43.94386" lon="0.31076">
        <ele>148</ele>
        <time>2022-08-17T12:15:13Z</time>
      </trkpt>
      <trkpt lat="43.94393" lon="0.31067">
        <ele>148</ele>
        <time>2022-08-17T12:15:30Z</time>
      </trkpt>
      <trkpt lat="43.94398" lon="0.31053">
        <ele>148</ele>
        <time>2022-08-17T12:15:38Z</time>
      </trkpt>
      <trkpt lat="43.94403" lon="0.31056">
        <ele>148</ele>
        <time>2022-08-17T12:15:41Z</time>
      </trkpt>
      <trkpt lat="43.94408" lon="0.31051">
        <ele>147</ele>
        <time>2022-08-17T12:15:52Z</time>
      </trkpt>
      <trkpt lat="43.9441" lon="0.31044">
        <ele>147</ele>
        <time>2022-08-17T12:15:57Z</time>
      </trkpt>
      <trkpt lat="43.94413" lon="0.31039">
        <ele>146</ele>
        <time>2022-08-17T12:16:01Z</time>
      </trkpt>
      <trkpt lat="43.94415" lon="0.31032">
        <ele>146</ele>
        <time>2022-08-17T12:16:07Z</time>
      </trkpt>
      <trkpt lat="43.94416" lon="0.31016">
        <ele>146</ele>
        <time>2022-08-17T12:16:24Z</time>
      </trkpt>
      <trkpt lat="43.94419" lon="0.31022">
        <ele>146</ele>
        <time>2022-08-17T12:16:36Z</time>
      </trkpt>
      <trkpt lat="43.94416" lon="0.31029">
        <ele>146</ele>
        <time>2022-08-17T12:16:40Z</time>
      </trkpt>
      <trkpt lat="43.94414" lon="0.31019">
        <ele>146</ele>
        <time>2022-08-17T12:17:00Z</time>
      </trkpt>
      <trkpt lat="43.94416" lon="0.31012">
        <ele>146</ele>
        <time>2022-08-17T12:17:04Z</time>
      </trkpt>
      <trkpt lat="43.94417" lon="0.30995">
        <ele>146</ele>
        <time>2022-08-17T12:17:29Z</time>
      </trkpt>
      <trkpt lat="43.94417" lon="0.30989">
        <ele>146</ele>
        <time>2022-08-17T12:17:34Z</time>
      </trkpt>
      <trkpt lat="43.94419" lon="0.3098">
        <ele>145</ele>
        <time>2022-08-17T12:17:46Z</time>
      </trkpt>
      <trkpt lat="43.94418" lon="0.30965">
        <ele>144</ele>
        <time>2022-08-17T12:17:56Z</time>
      </trkpt>
      <trkpt lat="43.94415" lon="0.30956">
        <ele>143</ele>
        <time>2022-08-17T12:18:06Z</time>
      </trkpt>
      <trkpt lat="43.94387" lon="0.30928">
        <ele>138</ele>
        <time>2022-08-17T12:18:38Z</time>
      </trkpt>
      <trkpt lat="43.94371" lon="0.30913">
        <ele>137</ele>
        <time>2022-08-17T12:18:56Z</time>
      </trkpt>
      <trkpt lat="43.94366" lon="0.30909">
        <ele>136</ele>
        <time>2022-08-17T12:19:06Z</time>
      </trkpt>
      <trkpt lat="43.94361" lon="0.30905">
        <ele>136</ele>
        <time>2022-08-17T12:19:09Z</time>
      </trkpt>
      <trkpt lat="43.94356" lon="0.30899">
        <ele>135</ele>
        <time>2022-08-17T12:19:17Z</time>
      </trkpt>
      <trkpt lat="43.94356" lon="0.30892">
        <ele>135</ele>
        <time>2022-08-17T12:19:21Z</time>
      </trkpt>
      <trkpt lat="43.94354" lon="0.30885">
        <ele>135</ele>
        <time>2022-08-17T12:19:25Z</time>
      </trkpt>
      <trkpt lat="43.94348" lon="0.30874">
        <ele>134</ele>
        <time>2022-08-17T12:19:35Z</time>
      </trkpt>
      <trkpt lat="43.94343" lon="0.30868">
        <ele>134</ele>
        <time>2022-08-17T12:19:42Z</time>
      </trkpt>
      <trkpt lat="43.94339" lon="0.30864">
        <ele>134</ele>
        <time>2022-08-17T12:19:52Z</time>
      </trkpt>
      <trkpt lat="43.94333" lon="0.30859">
        <ele>134</ele>
        <time>2022-08-17T12:20:12Z</time>
      </trkpt>
      <trkpt lat="43.94325" lon="0.30851">
        <ele>134</ele>
        <time>2022-08-17T12:20:21Z</time>
      </trkpt>
      <trkpt lat="43.94312" lon="0.30842">
        <ele>136</ele>
        <time>2022-08-17T12:20:54Z</time>
      </trkpt>
      <trkpt lat="43.94295" lon="0.30822">
        <ele>139</ele>
        <time>2022-08-17T12:21:16Z</time>
      </trkpt>
      <trkpt lat="43.94292" lon="0.30817">
        <ele>139</ele>
        <time>2022-08-17T12:21:21Z</time>
      </trkpt>
      <trkpt lat="43.94284" lon="0.30807">
        <ele>140</ele>
        <time>2022-08-17T12:21:31Z</time>
      </trkpt>
      <trkpt lat="43.94278" lon="0.30798">
        <ele>140</ele>
        <time>2022-08-17T12:21:40Z</time>
      </trkpt>
      <trkpt lat="43.94256" lon="0.3077">
        <ele>140</ele>
        <time>2022-08-17T12:22:05Z</time>
      </trkpt>
      <trkpt lat="43.94243" lon="0.30757">
        <ele>140</ele>
        <time>2022-08-17T12:22:19Z</time>
      </trkpt>
      <trkpt lat="43.94239" lon="0.30754">
        <ele>140</ele>
        <time>2022-08-17T12:22:23Z</time>
      </trkpt>
      <trkpt lat="43.94234" lon="0.30751">
        <ele>139</ele>
        <time>2022-08-17T12:22:27Z</time>
      </trkpt>
      <trkpt lat="43.9423" lon="0.3075">
        <ele>139</ele>
        <time>2022-08-17T12:22:31Z</time>
      </trkpt>
      <trkpt lat="43.94212" lon="0.30744">
        <ele>140</ele>
        <time>2022-08-17T12:22:46Z</time>
      </trkpt>
      <trkpt lat="43.94171" lon="0.30751">
        <ele>140</ele>
        <time>2022-08-17T12:23:19Z</time>
      </trkpt>
      <trkpt lat="43.94165" lon="0.30752">
        <ele>141</ele>
        <time>2022-08-17T12:23:24Z</time>
      </trkpt>
      <trkpt lat="43.94153" lon="0.30755">
        <ele>141</ele>
        <time>2022-08-17T12:23:33Z</time>
      </trkpt>
      <trkpt lat="43.94124" lon="0.3075">
        <ele>142</ele>
        <time>2022-08-17T12:23:58Z</time>
      </trkpt>
      <trkpt lat="43.94096" lon="0.30724">
        <ele>143</ele>
        <time>2022-08-17T12:24:31Z</time>
      </trkpt>
      <trkpt lat="43.94084" lon="0.30717">
        <ele>144</ele>
        <time>2022-08-17T12:24:41Z</time>
      </trkpt>
      <trkpt lat="43.94078" lon="0.30714">
        <ele>144</ele>
        <time>2022-08-17T12:24:46Z</time>
      </trkpt>
      <trkpt lat="43.94073" lon="0.3071">
        <ele>144</ele>
        <time>2022-08-17T12:24:51Z</time>
      </trkpt>
      <trkpt lat="43.9407" lon="0.30703">
        <ele>144</ele>
        <time>2022-08-17T12:24:56Z</time>
      </trkpt>
      <trkpt lat="43.94065" lon="0.307">
        <ele>143</ele>
        <time>2022-08-17T12:25:01Z</time>
      </trkpt>
      <trkpt lat="43.94046" lon="0.30674">
        <ele>141</ele>
        <time>2022-08-17T12:25:23Z</time>
      </trkpt>
      <trkpt lat="43.94042" lon="0.30671">
        <ele>140</ele>
        <time>2022-08-17T12:25:27Z</time>
      </trkpt>
      <trkpt lat="43.94038" lon="0.30665">
        <ele>139</ele>
        <time>2022-08-17T12:25:32Z</time>
      </trkpt>
      <trkpt lat="43.94028" lon="0.30656">
        <ele>137</ele>
        <time>2022-08-17T12:26:05Z</time>
      </trkpt>
      <trkpt lat="43.94023" lon="0.30655">
        <ele>137</ele>
        <time>2022-08-17T12:26:09Z</time>
      </trkpt>
      <trkpt lat="43.9399" lon="0.3064">
        <ele>133</ele>
        <time>2022-08-17T12:26:37Z</time>
      </trkpt>
      <trkpt lat="43.9398" lon="0.30638">
        <ele>132</ele>
        <time>2022-08-17T12:26:45Z</time>
      </trkpt>
      <trkpt lat="43.9397" lon="0.3064">
        <ele>131</ele>
        <time>2022-08-17T12:26:53Z</time>
      </trkpt>
      <trkpt lat="43.9396" lon="0.30644">
        <ele>130</ele>
        <time>2022-08-17T12:27:01Z</time>
      </trkpt>
      <trkpt lat="43.93955" lon="0.30646">
        <ele>130</ele>
        <time>2022-08-17T12:27:06Z</time>
      </trkpt>
      <trkpt lat="43.9394" lon="0.30651">
        <ele>129</ele>
        <time>2022-08-17T12:27:19Z</time>
      </trkpt>
      <trkpt lat="43.93935" lon="0.3065">
        <ele>129</ele>
        <time>2022-08-17T12:28:03Z</time>
      </trkpt>
      <trkpt lat="43.9392" lon="0.3065">
        <ele>127</ele>
        <time>2022-08-17T12:28:16Z</time>
      </trkpt>
      <trkpt lat="43.93915" lon="0.30647">
        <ele>127</ele>
        <time>2022-08-17T12:28:21Z</time>
      </trkpt>
      <trkpt lat="43.93912" lon="0.30643">
        <ele>126</ele>
        <time>2022-08-17T12:28:39Z</time>
      </trkpt>
      <trkpt lat="43.939" lon="0.30632">
        <ele>125</ele>
        <time>2022-08-17T12:28:58Z</time>
      </trkpt>
      <trkpt lat="43.93896" lon="0.30628">
        <ele>125</ele>
        <time>2022-08-17T12:29:03Z</time>
      </trkpt>
      <trkpt lat="43.93879" lon="0.30617">
        <ele>123</ele>
        <time>2022-08-17T12:29:20Z</time>
      </trkpt>
      <trkpt lat="43.93875" lon="0.30614">
        <ele>123</ele>
        <time>2022-08-17T12:29:25Z</time>
      </trkpt>
      <trkpt lat="43.93855" lon="0.306">
        <ele>121</ele>
        <time>2022-08-17T12:29:45Z</time>
      </trkpt>
      <trkpt lat="43.93848" lon="0.30592">
        <ele>119</ele>
        <time>2022-08-17T12:29:56Z</time>
      </trkpt>
      <trkpt lat="43.93838" lon="0.30584">
        <ele>119</ele>
        <time>2022-08-17T12:30:07Z</time>
      </trkpt>
      <trkpt lat="43.93824" lon="0.30574">
        <ele>117</ele>
        <time>2022-08-17T12:30:21Z</time>
      </trkpt>
      <trkpt lat="43.93814" lon="0.3056">
        <ele>116</ele>
        <time>2022-08-17T12:30:31Z</time>
      </trkpt>
      <trkpt lat="43.9381" lon="0.30556">
        <ele>116</ele>
        <time>2022-08-17T12:30:34Z</time>
      </trkpt>
      <trkpt lat="43.93804" lon="0.30555">
        <ele>115</ele>
        <time>2022-08-17T12:30:38Z</time>
      </trkpt>
      <trkpt lat="43.938" lon="0.30551">
        <ele>115</ele>
        <time>2022-08-17T12:30:42Z</time>
      </trkpt>
      <trkpt lat="43.93789" lon="0.30538">
        <ele>114</ele>
        <time>2022-08-17T12:30:53Z</time>
      </trkpt>
      <trkpt lat="43.93784" lon="0.30535">
        <ele>114</ele>
        <time>2022-08-17T12:30:58Z</time>
      </trkpt>
      <trkpt lat="43.93759" lon="0.30503">
        <ele>111</ele>
        <time>2022-08-17T12:31:27Z</time>
      </trkpt>
      <trkpt lat="43.93754" lon="0.30488">
        <ele>109</ele>
        <time>2022-08-17T12:31:38Z</time>
      </trkpt>
      <trkpt lat="43.93749" lon="0.30483">
        <ele>109</ele>
        <time>2022-08-17T12:31:42Z</time>
      </trkpt>
      <trkpt lat="43.93744" lon="0.30467">
        <ele>107</ele>
        <time>2022-08-17T12:31:50Z</time>
      </trkpt>
      <trkpt lat="43.93736" lon="0.30459">
        <ele>105</ele>
        <time>2022-08-17T12:31:58Z</time>
      </trkpt>
      <trkpt lat="43.93725" lon="0.30456">
        <ele>103</ele>
        <time>2022-08-17T12:32:06Z</time>
      </trkpt>
      <trkpt lat="43.93718" lon="0.30458">
        <ele>102</ele>
        <time>2022-08-17T12:32:12Z</time>
      </trkpt>
      <trkpt lat="43.93675" lon="0.30465">
        <ele>98</ele>
        <time>2022-08-17T12:32:46Z</time>
      </trkpt>
      <trkpt lat="43.93647" lon="0.3047">
        <ele>95</ele>
        <time>2022-08-17T12:33:10Z</time>
      </trkpt>
      <trkpt lat="43.93642" lon="0.30473">
        <ele>95</ele>
        <time>2022-08-17T12:33:15Z</time>
      </trkpt>
      <trkpt lat="43.9363" lon="0.30476">
        <ele>93</ele>
        <time>2022-08-17T12:33:26Z</time>
      </trkpt>
      <trkpt lat="43.93601" lon="0.30494">
        <ele>91</ele>
        <time>2022-08-17T12:33:51Z</time>
      </trkpt>
      <trkpt lat="43.93596" lon="0.30499">
        <ele>90</ele>
        <time>2022-08-17T12:33:57Z</time>
      </trkpt>
      <trkpt lat="43.93591" lon="0.30504">
        <ele>90</ele>
        <time>2022-08-17T12:34:03Z</time>
      </trkpt>
      <trkpt lat="43.9358" lon="0.30508">
        <ele>90</ele>
        <time>2022-08-17T12:34:12Z</time>
      </trkpt>
      <trkpt lat="43.93575" lon="0.30514">
        <ele>89</ele>
        <time>2022-08-17T12:34:18Z</time>
      </trkpt>
      <trkpt lat="43.93559" lon="0.30524">
        <ele>88</ele>
        <time>2022-08-17T12:34:33Z</time>
      </trkpt>
      <trkpt lat="43.93551" lon="0.30536">
        <ele>87</ele>
        <time>2022-08-17T12:34:43Z</time>
      </trkpt>
      <trkpt lat="43.9354" lon="0.30546">
        <ele>86</ele>
        <time>2022-08-17T12:34:53Z</time>
      </trkpt>
      <trkpt lat="43.93524" lon="0.30564">
        <ele>85</ele>
        <time>2022-08-17T12:35:10Z</time>
      </trkpt>
      <trkpt lat="43.93515" lon="0.30572">
        <ele>84</ele>
        <time>2022-08-17T12:35:20Z</time>
      </trkpt>
      <trkpt lat="43.93497" lon="0.30596">
        <ele>84</ele>
        <time>2022-08-17T12:35:37Z</time>
      </trkpt>
      <trkpt lat="43.93489" lon="0.30616">
        <ele>84</ele>
        <time>2022-08-17T12:35:51Z</time>
      </trkpt>
      <trkpt lat="43.93473" lon="0.3064">
        <ele>84</ele>
        <time>2022-08-17T12:36:09Z</time>
      </trkpt>
      <trkpt lat="43.93454" lon="0.3068">
        <ele>83</ele>
        <time>2022-08-17T12:36:39Z</time>
      </trkpt>
      <trkpt lat="43.93452" lon="0.30688">
        <ele>84</ele>
        <time>2022-08-17T12:36:44Z</time>
      </trkpt>
      <trkpt lat="43.93444" lon="0.30698">
        <ele>84</ele>
        <time>2022-08-17T12:36:52Z</time>
      </trkpt>
      <trkpt lat="43.93438" lon="0.30705">
        <ele>83</ele>
        <time>2022-08-17T12:36:59Z</time>
      </trkpt>
      <trkpt lat="43.93434" lon="0.30707">
        <ele>83</ele>
        <time>2022-08-17T12:37:03Z</time>
      </trkpt>
      <trkpt lat="43.9343" lon="0.30701">
        <ele>83</ele>
        <time>2022-08-17T12:37:07Z</time>
      </trkpt>
      <trkpt lat="43.93428" lon="0.30695">
        <ele>83</ele>
        <time>2022-08-17T12:37:11Z</time>
      </trkpt>
      <trkpt lat="43.93425" lon="0.30689">
        <ele>83</ele>
        <time>2022-08-17T12:37:15Z</time>
      </trkpt>
      <trkpt lat="43.93421" lon="0.30685">
        <ele>82</ele>
        <time>2022-08-17T12:37:20Z</time>
      </trkpt>
      <trkpt lat="43.93417" lon="0.30682">
        <ele>82</ele>
        <time>2022-08-17T12:37:37Z</time>
      </trkpt>
      <trkpt lat="43.9341" lon="0.30684">
        <ele>81</ele>
        <time>2022-08-17T12:38:39Z</time>
      </trkpt>
      <trkpt lat="43.93403" lon="0.30681">
        <ele>81</ele>
        <time>2022-08-17T12:39:11Z</time>
      </trkpt>
      <trkpt lat="43.93398" lon="0.3068">
        <ele>81</ele>
        <time>2022-08-17T12:39:18Z</time>
      </trkpt>
      <trkpt lat="43.934" lon="0.30673">
        <ele>81</ele>
        <time>2022-08-17T12:40:00Z</time>
      </trkpt>
      <trkpt lat="43.93395" lon="0.30675">
        <ele>81</ele>
        <time>2022-08-17T12:40:05Z</time>
      </trkpt>
      <trkpt lat="43.93391" lon="0.30673">
        <ele>81</ele>
        <time>2022-08-17T12:40:09Z</time>
      </trkpt>
      <trkpt lat="43.93386" lon="0.30669">
        <ele>81</ele>
        <time>2022-08-17T12:40:13Z</time>
      </trkpt>
      <trkpt lat="43.9338" lon="0.30658">
        <ele>81</ele>
        <time>2022-08-17T12:40:22Z</time>
      </trkpt>
      <trkpt lat="43.93378" lon="0.30652">
        <ele>81</ele>
        <time>2022-08-17T12:40:29Z</time>
      </trkpt>
      <trkpt lat="43.93375" lon="0.30652">
        <ele>80</ele>
        <time>2022-08-17T12:41:21Z</time>
      </trkpt>
      <trkpt lat="43.93374" lon="0.3064">
        <ele>80</ele>
        <time>2022-08-17T12:41:42Z</time>
      </trkpt>
      <trkpt lat="43.93372" lon="0.30636">
        <ele>80</ele>
        <time>2022-08-17T12:41:49Z</time>
      </trkpt>
      <trkpt lat="43.9337" lon="0.30629">
        <ele>80</ele>
        <time>2022-08-17T12:42:24Z</time>
      </trkpt>
      <trkpt lat="43.93369" lon="0.30622">
        <ele>80</ele>
        <time>2022-08-17T12:42:28Z</time>
      </trkpt>
      <trkpt lat="43.93365" lon="0.30618">
        <ele>80</ele>
        <time>2022-08-17T12:42:32Z</time>
      </trkpt>
      <trkpt lat="43.93356" lon="0.30575">
        <ele>80</ele>
        <time>2022-08-17T12:42:59Z</time>
      </trkpt>
      <trkpt lat="43.93357" lon="0.30568">
        <ele>79</ele>
        <time>2022-08-17T12:43:03Z</time>
      </trkpt>
      <trkpt lat="43.93362" lon="0.30548">
        <ele>80</ele>
        <time>2022-08-17T12:43:17Z</time>
      </trkpt>
      <trkpt lat="43.93366" lon="0.30543">
        <ele>80</ele>
        <time>2022-08-17T12:43:29Z</time>
      </trkpt>
      <trkpt lat="43.93371" lon="0.30543">
        <ele>80</ele>
        <time>2022-08-17T12:43:46Z</time>
      </trkpt>
      <trkpt lat="43.9337" lon="0.30537">
        <ele>80</ele>
        <time>2022-08-17T12:44:12Z</time>
      </trkpt>
      <trkpt lat="43.93377" lon="0.30537">
        <ele>80</ele>
        <time>2022-08-17T12:44:32Z</time>
      </trkpt>
      <trkpt lat="43.93382" lon="0.30538">
        <ele>80</ele>
        <time>2022-08-17T12:44:37Z</time>
      </trkpt>
      <trkpt lat="43.93386" lon="0.30535">
        <ele>80</ele>
        <time>2022-08-17T12:44:42Z</time>
      </trkpt>
      <trkpt lat="43.93383" lon="0.30526">
        <ele>81</ele>
        <time>2022-08-17T12:44:59Z</time>
      </trkpt>
      <trkpt lat="43.93376" lon="0.30524">
        <ele>81</ele>
        <time>2022-08-17T12:45:14Z</time>
      </trkpt>
      <trkpt lat="43.93373" lon="0.30518">
        <ele>81</ele>
        <time>2022-08-17T12:45:19Z</time>
      </trkpt>
      <trkpt lat="43.93369" lon="0.30509">
        <ele>81</ele>
        <time>2022-08-17T12:45:26Z</time>
      </trkpt>
      <trkpt lat="43.93363" lon="0.30493">
        <ele>80</ele>
        <time>2022-08-17T12:45:38Z</time>
      </trkpt>
      <trkpt lat="43.9336" lon="0.30484">
        <ele>80</ele>
        <time>2022-08-17T12:45:57Z</time>
      </trkpt>
      <trkpt lat="43.93361" lon="0.30476">
        <ele>80</ele>
        <time>2022-08-17T12:46:09Z</time>
      </trkpt>
      <trkpt lat="43.9336" lon="0.30468">
        <ele>80</ele>
        <time>2022-08-17T12:46:30Z</time>
      </trkpt>
      <trkpt lat="43.93356" lon="0.3046">
        <ele>81</ele>
        <time>2022-08-17T12:46:39Z</time>
      </trkpt>
      <trkpt lat="43.93354" lon="0.30449">
        <ele>81</ele>
        <time>2022-08-17T12:46:50Z</time>
      </trkpt>
      <trkpt lat="43.93352" lon="0.30443">
        <ele>80</ele>
        <time>2022-08-17T12:46:54Z</time>
      </trkpt>
      <trkpt lat="43.93349" lon="0.30428">
        <ele>81</ele>
        <time>2022-08-17T12:47:02Z</time>
      </trkpt>
      <trkpt lat="43.93347" lon="0.30415">
        <ele>81</ele>
        <time>2022-08-17T12:47:10Z</time>
      </trkpt>
      <trkpt lat="43.93348" lon="0.30407">
        <ele>81</ele>
        <time>2022-08-17T12:47:15Z</time>
      </trkpt>
      <trkpt lat="43.93347" lon="0.30352">
        <ele>83</ele>
        <time>2022-08-17T12:47:46Z</time>
      </trkpt>
      <trkpt lat="43.93344" lon="0.30337">
        <ele>83</ele>
        <time>2022-08-17T12:47:57Z</time>
      </trkpt>
      <trkpt lat="43.93344" lon="0.3033">
        <ele>84</ele>
        <time>2022-08-17T12:48:01Z</time>
      </trkpt>
      <trkpt lat="43.93347" lon="0.30323">
        <ele>84</ele>
        <time>2022-08-17T12:48:07Z</time>
      </trkpt>
      <trkpt lat="43.93351" lon="0.3032">
        <ele>83</ele>
        <time>2022-08-17T12:48:12Z</time>
      </trkpt>
      <trkpt lat="43.93376" lon="0.30317">
        <ele>83</ele>
        <time>2022-08-17T12:48:34Z</time>
      </trkpt>
      <trkpt lat="43.93388" lon="0.30312">
        <ele>82</ele>
        <time>2022-08-17T12:48:51Z</time>
      </trkpt>
      <trkpt lat="43.93393" lon="0.30309">
        <ele>82</ele>
        <time>2022-08-17T12:48:55Z</time>
      </trkpt>
      <trkpt lat="43.93402" lon="0.30304">
        <ele>82</ele>
        <time>2022-08-17T12:49:03Z</time>
      </trkpt>
      <trkpt lat="43.93417" lon="0.30298">
        <ele>80</ele>
        <time>2022-08-17T12:49:16Z</time>
      </trkpt>
      <trkpt lat="43.93432" lon="0.30291">
        <ele>81</ele>
        <time>2022-08-17T12:49:30Z</time>
      </trkpt>
      <trkpt lat="43.93443" lon="0.30286">
        <ele>80</ele>
        <time>2022-08-17T12:49:41Z</time>
      </trkpt>
      <trkpt lat="43.93453" lon="0.30281">
        <ele>81</ele>
        <time>2022-08-17T12:49:48Z</time>
      </trkpt>
      <trkpt lat="43.93458" lon="0.30279">
        <ele>80</ele>
        <time>2022-08-17T12:49:53Z</time>
      </trkpt>
      <trkpt lat="43.93468" lon="0.30272">
        <ele>81</ele>
        <time>2022-08-17T12:50:02Z</time>
      </trkpt>
      <trkpt lat="43.93473" lon="0.30267">
        <ele>81</ele>
        <time>2022-08-17T12:50:06Z</time>
      </trkpt>
      <trkpt lat="43.93481" lon="0.30261">
        <ele>81</ele>
        <time>2022-08-17T12:50:14Z</time>
      </trkpt>
      <trkpt lat="43.9351" lon="0.30226">
        <ele>81</ele>
        <time>2022-08-17T12:50:46Z</time>
      </trkpt>
      <trkpt lat="43.93514" lon="0.30219">
        <ele>81</ele>
        <time>2022-08-17T12:50:50Z</time>
      </trkpt>
      <trkpt lat="43.93517" lon="0.30213">
        <ele>81</ele>
        <time>2022-08-17T12:50:55Z</time>
      </trkpt>
      <trkpt lat="43.93521" lon="0.30209">
        <ele>81</ele>
        <time>2022-08-17T12:50:59Z</time>
      </trkpt>
      <trkpt lat="43.93525" lon="0.30206">
        <ele>81</ele>
        <time>2022-08-17T12:51:02Z</time>
      </trkpt>
      <trkpt lat="43.9353" lon="0.30201">
        <ele>81</ele>
        <time>2022-08-17T12:51:07Z</time>
      </trkpt>
      <trkpt lat="43.93533" lon="0.30196">
        <ele>81</ele>
        <time>2022-08-17T12:51:12Z</time>
      </trkpt>
      <trkpt lat="43.93559" lon="0.30154">
        <ele>81</ele>
        <time>2022-08-17T12:51:43Z</time>
      </trkpt>
      <trkpt lat="43.93561" lon="0.30147">
        <ele>80</ele>
        <time>2022-08-17T12:51:48Z</time>
      </trkpt>
      <trkpt lat="43.93566" lon="0.30142">
        <ele>81</ele>
        <time>2022-08-17T12:51:52Z</time>
      </trkpt>
      <trkpt lat="43.9357" lon="0.30129">
        <ele>81</ele>
        <time>2022-08-17T12:52:02Z</time>
      </trkpt>
      <trkpt lat="43.93592" lon="0.30083">
        <ele>81</ele>
        <time>2022-08-17T12:52:34Z</time>
      </trkpt>
      <trkpt lat="43.93601" lon="0.30067">
        <ele>80</ele>
        <time>2022-08-17T12:52:45Z</time>
      </trkpt>
      <trkpt lat="43.93615" lon="0.3005">
        <ele>81</ele>
        <time>2022-08-17T12:53:00Z</time>
      </trkpt>
      <trkpt lat="43.93649" lon="0.30017">
        <ele>80</ele>
        <time>2022-08-17T12:53:32Z</time>
      </trkpt>
      <trkpt lat="43.93652" lon="0.30012">
        <ele>80</ele>
        <time>2022-08-17T12:53:36Z</time>
      </trkpt>
      <trkpt lat="43.93662" lon="0.30006">
        <ele>80</ele>
        <time>2022-08-17T12:53:44Z</time>
      </trkpt>
      <trkpt lat="43.93671" lon="0.29996">
        <ele>80</ele>
        <time>2022-08-17T12:53:53Z</time>
      </trkpt>
      <trkpt lat="43.93681" lon="0.29988">
        <ele>80</ele>
        <time>2022-08-17T12:54:03Z</time>
      </trkpt>
      <trkpt lat="43.93685" lon="0.29983">
        <ele>80</ele>
        <time>2022-08-17T12:54:07Z</time>
      </trkpt>
      <trkpt lat="43.9369" lon="0.29977">
        <ele>80</ele>
        <time>2022-08-17T12:54:12Z</time>
      </trkpt>
      <trkpt lat="43.93701" lon="0.29963">
        <ele>80</ele>
        <time>2022-08-17T12:54:27Z</time>
      </trkpt>
      <trkpt lat="43.93712" lon="0.29954">
        <ele>80</ele>
        <time>2022-08-17T12:54:36Z</time>
      </trkpt>
      <trkpt lat="43.93716" lon="0.29948">
        <ele>80</ele>
        <time>2022-08-17T12:54:40Z</time>
      </trkpt>
      <trkpt lat="43.93742" lon="0.2992">
        <ele>80</ele>
        <time>2022-08-17T12:55:10Z</time>
      </trkpt>
      <trkpt lat="43.93773" lon="0.29887">
        <ele>80</ele>
        <time>2022-08-17T12:55:41Z</time>
      </trkpt>
      <trkpt lat="43.93777" lon="0.29883">
        <ele>80</ele>
        <time>2022-08-17T12:55:44Z</time>
      </trkpt>
      <trkpt lat="43.93782" lon="0.29879">
        <ele>80</ele>
        <time>2022-08-17T12:55:49Z</time>
      </trkpt>
      <trkpt lat="43.93785" lon="0.29874">
        <ele>80</ele>
        <time>2022-08-17T12:55:54Z</time>
      </trkpt>
      <trkpt lat="43.9378" lon="0.29865">
        <ele>80</ele>
        <time>2022-08-17T12:56:07Z</time>
      </trkpt>
      <trkpt lat="43.93779" lon="0.29859">
        <ele>81</ele>
        <time>2022-08-17T12:56:13Z</time>
      </trkpt>
      <trkpt lat="43.93769" lon="0.29816">
        <ele>83</ele>
        <time>2022-08-17T12:57:06Z</time>
      </trkpt>
      <trkpt lat="43.93759" lon="0.29785">
        <ele>85</ele>
        <time>2022-08-17T12:57:30Z</time>
      </trkpt>
      <trkpt lat="43.93756" lon="0.29779">
        <ele>85</ele>
        <time>2022-08-17T12:57:34Z</time>
      </trkpt>
      <trkpt lat="43.93755" lon="0.29774">
        <ele>85</ele>
        <time>2022-08-17T12:57:38Z</time>
      </trkpt>
      <trkpt lat="43.93751" lon="0.29768">
        <ele>86</ele>
        <time>2022-08-17T12:57:42Z</time>
      </trkpt>
      <trkpt lat="43.9375" lon="0.29757">
        <ele>86</ele>
        <time>2022-08-17T12:57:54Z</time>
      </trkpt>
      <trkpt lat="43.93748" lon="0.29752">
        <ele>86</ele>
        <time>2022-08-17T12:57:57Z</time>
      </trkpt>
      <trkpt lat="43.93747" lon="0.29747">
        <ele>86</ele>
        <time>2022-08-17T12:58:01Z</time>
      </trkpt>
      <trkpt lat="43.93745" lon="0.29739">
        <ele>87</ele>
        <time>2022-08-17T12:58:07Z</time>
      </trkpt>
      <trkpt lat="43.93737" lon="0.29714">
        <ele>86</ele>
        <time>2022-08-17T12:58:23Z</time>
      </trkpt>
      <trkpt lat="43.93734" lon="0.29703">
        <ele>87</ele>
        <time>2022-08-17T12:58:31Z</time>
      </trkpt>
      <trkpt lat="43.93734" lon="0.29696">
        <ele>87</ele>
        <time>2022-08-17T12:58:35Z</time>
      </trkpt>
      <trkpt lat="43.93729" lon="0.29685">
        <ele>87</ele>
        <time>2022-08-17T12:58:42Z</time>
      </trkpt>
      <trkpt lat="43.93726" lon="0.29676">
        <ele>88</ele>
        <time>2022-08-17T12:58:50Z</time>
      </trkpt>
      <trkpt lat="43.93716" lon="0.29647">
        <ele>87</ele>
        <time>2022-08-17T12:59:09Z</time>
      </trkpt>
      <trkpt lat="43.93715" lon="0.29641">
        <ele>87</ele>
        <time>2022-08-17T12:59:12Z</time>
      </trkpt>
      <trkpt lat="43.93712" lon="0.29629">
        <ele>88</ele>
        <time>2022-08-17T12:59:19Z</time>
      </trkpt>
      <trkpt lat="43.93709" lon="0.29617">
        <ele>87</ele>
        <time>2022-08-17T12:59:27Z</time>
      </trkpt>
      <trkpt lat="43.93707" lon="0.29605">
        <ele>88</ele>
        <time>2022-08-17T12:59:35Z</time>
      </trkpt>
      <trkpt lat="43.9371" lon="0.29589">
        <ele>88</ele>
        <time>2022-08-17T12:59:45Z</time>
      </trkpt>
      <trkpt lat="43.93712" lon="0.29584">
        <ele>87</ele>
        <time>2022-08-17T12:59:49Z</time>
      </trkpt>
      <trkpt lat="43.93716" lon="0.29573">
        <ele>88</ele>
        <time>2022-08-17T12:59:56Z</time>
      </trkpt>
      <trkpt lat="43.93719" lon="0.29568">
        <ele>88</ele>
        <time>2022-08-17T13:00:00Z</time>
      </trkpt>
      <trkpt lat="43.93724" lon="0.29556">
        <ele>88</ele>
        <time>2022-08-17T13:00:08Z</time>
      </trkpt>
      <trkpt lat="43.93725" lon="0.2955">
        <ele>88</ele>
        <time>2022-08-17T13:00:13Z</time>
      </trkpt>
      <trkpt lat="43.93727" lon="0.29537">
        <ele>88</ele>
        <time>2022-08-17T13:00:21Z</time>
      </trkpt>
      <trkpt lat="43.93727" lon="0.29531">
        <ele>88</ele>
        <time>2022-08-17T13:00:25Z</time>
      </trkpt>
      <trkpt lat="43.93728" lon="0.29524">
        <ele>88</ele>
        <time>2022-08-17T13:00:29Z</time>
      </trkpt>
      <trkpt lat="43.93735" lon="0.29474">
        <ele>88</ele>
        <time>2022-08-17T13:01:00Z</time>
      </trkpt>
      <trkpt lat="43.93742" lon="0.2944">
        <ele>90</ele>
        <time>2022-08-17T13:01:20Z</time>
      </trkpt>
      <trkpt lat="43.93743" lon="0.29432">
        <ele>90</ele>
        <time>2022-08-17T13:01:33Z</time>
      </trkpt>
      <trkpt lat="43.93744" lon="0.29426">
        <ele>90</ele>
        <time>2022-08-17T13:01:37Z</time>
      </trkpt>
      <trkpt lat="43.93746" lon="0.2942">
        <ele>90</ele>
        <time>2022-08-17T13:01:41Z</time>
      </trkpt>
      <trkpt lat="43.93747" lon="0.29413">
        <ele>90</ele>
        <time>2022-08-17T13:01:46Z</time>
      </trkpt>
      <trkpt lat="43.93749" lon="0.29408">
        <ele>91</ele>
        <time>2022-08-17T13:01:51Z</time>
      </trkpt>
      <trkpt lat="43.93751" lon="0.29398">
        <ele>91</ele>
        <time>2022-08-17T13:02:18Z</time>
      </trkpt>
      <trkpt lat="43.93752" lon="0.2939">
        <ele>91</ele>
        <time>2022-08-17T13:02:27Z</time>
      </trkpt>
      <trkpt lat="43.93754" lon="0.29366">
        <ele>92</ele>
        <time>2022-08-17T13:02:59Z</time>
      </trkpt>
      <trkpt lat="43.93757" lon="0.29358">
        <ele>92</ele>
        <time>2022-08-17T13:03:06Z</time>
      </trkpt>
      <trkpt lat="43.93757" lon="0.29348">
        <ele>92</ele>
        <time>2022-08-17T13:03:24Z</time>
      </trkpt>
      <trkpt lat="43.93768" lon="0.29311">
        <ele>94</ele>
        <time>2022-08-17T13:03:58Z</time>
      </trkpt>
      <trkpt lat="43.93769" lon="0.29305">
        <ele>94</ele>
        <time>2022-08-17T13:04:02Z</time>
      </trkpt>
      <trkpt lat="43.93774" lon="0.29284">
        <ele>96</ele>
        <time>2022-08-17T13:04:19Z</time>
      </trkpt>
      <trkpt lat="43.93776" lon="0.2926">
        <ele>97</ele>
        <time>2022-08-17T13:04:40Z</time>
      </trkpt>
      <trkpt lat="43.93778" lon="0.29255">
        <ele>98</ele>
        <time>2022-08-17T13:04:48Z</time>
      </trkpt>
      <trkpt lat="43.9378" lon="0.29244">
        <ele>100</ele>
        <time>2022-08-17T13:04:59Z</time>
      </trkpt>
      <trkpt lat="43.93782" lon="0.29237">
        <ele>100</ele>
        <time>2022-08-17T13:05:04Z</time>
      </trkpt>
      <trkpt lat="43.93783" lon="0.29214">
        <ele>103</ele>
        <time>2022-08-17T13:05:27Z</time>
      </trkpt>
      <trkpt lat="43.93789" lon="0.29213">
        <ele>104</ele>
        <time>2022-08-17T13:05:54Z</time>
      </trkpt>
      <trkpt lat="43.93788" lon="0.29203">
        <ele>106</ele>
        <time>2022-08-17T13:06:47Z</time>
      </trkpt>
      <trkpt lat="43.93788" lon="0.29197">
        <ele>106</ele>
        <time>2022-08-17T13:06:51Z</time>
      </trkpt>
      <trkpt lat="43.93791" lon="0.29167">
        <ele>107</ele>
        <time>2022-08-17T13:07:11Z</time>
      </trkpt>
      <trkpt lat="43.93796" lon="0.29153">
        <ele>108</ele>
        <time>2022-08-17T13:07:22Z</time>
      </trkpt>
      <trkpt lat="43.93801" lon="0.29145">
        <ele>108</ele>
        <time>2022-08-17T13:07:27Z</time>
      </trkpt>
      <trkpt lat="43.93803" lon="0.29136">
        <ele>109</ele>
        <time>2022-08-17T13:07:35Z</time>
      </trkpt>
      <trkpt lat="43.93804" lon="0.29129">
        <ele>109</ele>
        <time>2022-08-17T13:07:40Z</time>
      </trkpt>
      <trkpt lat="43.93808" lon="0.2912">
        <ele>109</ele>
        <time>2022-08-17T13:07:44Z</time>
      </trkpt>
      <trkpt lat="43.93812" lon="0.29099">
        <ele>109</ele>
        <time>2022-08-17T13:07:59Z</time>
      </trkpt>
      <trkpt lat="43.93815" lon="0.29091">
        <ele>109</ele>
        <time>2022-08-17T13:08:07Z</time>
      </trkpt>
      <trkpt lat="43.93819" lon="0.29074">
        <ele>109</ele>
        <time>2022-08-17T13:08:20Z</time>
      </trkpt>
      <trkpt lat="43.93827" lon="0.29045">
        <ele>108</ele>
        <time>2022-08-17T13:08:43Z</time>
      </trkpt>
      <trkpt lat="43.93831" lon="0.29029">
        <ele>108</ele>
        <time>2022-08-17T13:08:54Z</time>
      </trkpt>
      <trkpt lat="43.93831" lon="0.29021">
        <ele>108</ele>
        <time>2022-08-17T13:08:59Z</time>
      </trkpt>
      <trkpt lat="43.93835" lon="0.29013">
        <ele>108</ele>
        <time>2022-08-17T13:09:05Z</time>
      </trkpt>
      <trkpt lat="43.93836" lon="0.29007">
        <ele>108</ele>
        <time>2022-08-17T13:09:09Z</time>
      </trkpt>
      <trkpt lat="43.93841" lon="0.28994">
        <ele>108</ele>
        <time>2022-08-17T13:09:18Z</time>
      </trkpt>
      <trkpt lat="43.93844" lon="0.2898">
        <ele>108</ele>
        <time>2022-08-17T13:09:28Z</time>
      </trkpt>
      <trkpt lat="43.93845" lon="0.28973">
        <ele>108</ele>
        <time>2022-08-17T13:09:32Z</time>
      </trkpt>
      <trkpt lat="43.93846" lon="0.28952">
        <ele>107</ele>
        <time>2022-08-17T13:09:44Z</time>
      </trkpt>
      <trkpt lat="43.93846" lon="0.28945">
        <ele>108</ele>
        <time>2022-08-17T13:09:48Z</time>
      </trkpt>
      <trkpt lat="43.93849" lon="0.28939">
        <ele>108</ele>
        <time>2022-08-17T13:10:00Z</time>
      </trkpt>
      <trkpt lat="43.93852" lon="0.28905">
        <ele>109</ele>
        <time>2022-08-17T13:10:34Z</time>
      </trkpt>
      <trkpt lat="43.93856" lon="0.28853">
        <ele>110</ele>
        <time>2022-08-17T13:11:05Z</time>
      </trkpt>
      <trkpt lat="43.93856" lon="0.28837">
        <ele>110</ele>
        <time>2022-08-17T13:11:15Z</time>
      </trkpt>
      <trkpt lat="43.93858" lon="0.2883">
        <ele>110</ele>
        <time>2022-08-17T13:11:19Z</time>
      </trkpt>
      <trkpt lat="43.93857" lon="0.28803">
        <ele>111</ele>
        <time>2022-08-17T13:11:40Z</time>
      </trkpt>
      <trkpt lat="43.93859" lon="0.28788">
        <ele>111</ele>
        <time>2022-08-17T13:11:58Z</time>
      </trkpt>
      <trkpt lat="43.9386" lon="0.28755">
        <ele>112</ele>
        <time>2022-08-17T13:12:24Z</time>
      </trkpt>
      <trkpt lat="43.93861" lon="0.28749">
        <ele>113</ele>
        <time>2022-08-17T13:12:29Z</time>
      </trkpt>
      <trkpt lat="43.93861" lon="0.28697">
        <ele>114</ele>
        <time>2022-08-17T13:13:03Z</time>
      </trkpt>
      <trkpt lat="43.9386" lon="0.2869">
        <ele>114</ele>
        <time>2022-08-17T13:13:08Z</time>
      </trkpt>
      <trkpt lat="43.93861" lon="0.2867">
        <ele>115</ele>
        <time>2022-08-17T13:13:21Z</time>
      </trkpt>
      <trkpt lat="43.93856" lon="0.28663">
        <ele>115</ele>
        <time>2022-08-17T13:13:55Z</time>
      </trkpt>
      <trkpt lat="43.93858" lon="0.28645">
        <ele>117</ele>
        <time>2022-08-17T13:14:30Z</time>
      </trkpt>
      <trkpt lat="43.93858" lon="0.28631">
        <ele>118</ele>
        <time>2022-08-17T13:14:38Z</time>
      </trkpt>
      <trkpt lat="43.93857" lon="0.28624">
        <ele>119</ele>
        <time>2022-08-17T13:14:42Z</time>
      </trkpt>
      <trkpt lat="43.93857" lon="0.28616">
        <ele>119</ele>
        <time>2022-08-17T13:14:47Z</time>
      </trkpt>
      <trkpt lat="43.93858" lon="0.28607">
        <ele>120</ele>
        <time>2022-08-17T13:14:52Z</time>
      </trkpt>
      <trkpt lat="43.93858" lon="0.28601">
        <ele>121</ele>
        <time>2022-08-17T13:14:57Z</time>
      </trkpt>
      <trkpt lat="43.93858" lon="0.28585">
        <ele>121</ele>
        <time>2022-08-17T13:15:06Z</time>
      </trkpt>
      <trkpt lat="43.93861" lon="0.28576">
        <ele>121</ele>
        <time>2022-08-17T13:15:18Z</time>
      </trkpt>
      <trkpt lat="43.93865" lon="0.28561">
        <ele>123</ele>
        <time>2022-08-17T13:15:29Z</time>
      </trkpt>
      <trkpt lat="43.93869" lon="0.2854">
        <ele>123</ele>
        <time>2022-08-17T13:15:42Z</time>
      </trkpt>
      <trkpt lat="43.9387" lon="0.28527">
        <ele>124</ele>
        <time>2022-08-17T13:15:52Z</time>
      </trkpt>
      <trkpt lat="43.93871" lon="0.28518">
        <ele>125</ele>
        <time>2022-08-17T13:15:59Z</time>
      </trkpt>
      <trkpt lat="43.93872" lon="0.2851">
        <ele>125</ele>
        <time>2022-08-17T13:16:04Z</time>
      </trkpt>
      <trkpt lat="43.93875" lon="0.28471">
        <ele>127</ele>
        <time>2022-08-17T13:16:32Z</time>
      </trkpt>
      <trkpt lat="43.93875" lon="0.28464">
        <ele>127</ele>
        <time>2022-08-17T13:16:36Z</time>
      </trkpt>
      <trkpt lat="43.93876" lon="0.28443">
        <ele>128</ele>
        <time>2022-08-17T13:16:51Z</time>
      </trkpt>
      <trkpt lat="43.93884" lon="0.28401">
        <ele>127</ele>
        <time>2022-08-17T13:17:18Z</time>
      </trkpt>
      <trkpt lat="43.93884" lon="0.28393">
        <ele>127</ele>
        <time>2022-08-17T13:17:23Z</time>
      </trkpt>
      <trkpt lat="43.93886" lon="0.28387">
        <ele>127</ele>
        <time>2022-08-17T13:17:27Z</time>
      </trkpt>
      <trkpt lat="43.93887" lon="0.28379">
        <ele>127</ele>
        <time>2022-08-17T13:17:31Z</time>
      </trkpt>
      <trkpt lat="43.93886" lon="0.28345">
        <ele>127</ele>
        <time>2022-08-17T13:17:51Z</time>
      </trkpt>
      <trkpt lat="43.93882" lon="0.28321">
        <ele>126</ele>
        <time>2022-08-17T13:18:08Z</time>
      </trkpt>
      <trkpt lat="43.9387" lon="0.28295">
        <ele>126</ele>
        <time>2022-08-17T13:18:42Z</time>
      </trkpt>
      <trkpt lat="43.93866" lon="0.28285">
        <ele>126</ele>
        <time>2022-08-17T13:18:54Z</time>
      </trkpt>
      <trkpt lat="43.93862" lon="0.2828">
        <ele>126</ele>
        <time>2022-08-17T13:19:24Z</time>
      </trkpt>
      <trkpt lat="43.9386" lon="0.2827">
        <ele>126</ele>
        <time>2022-08-17T13:20:23Z</time>
      </trkpt>
      <trkpt lat="43.93858" lon="0.28261">
        <ele>127</ele>
        <time>2022-08-17T13:20:28Z</time>
      </trkpt>
      <trkpt lat="43.93855" lon="0.28256">
        <ele>127</ele>
        <time>2022-08-17T13:20:32Z</time>
      </trkpt>
      <trkpt lat="43.93852" lon="0.28247">
        <ele>127</ele>
        <time>2022-08-17T13:20:39Z</time>
      </trkpt>
      <trkpt lat="43.93848" lon="0.28239">
        <ele>127</ele>
        <time>2022-08-17T13:20:47Z</time>
      </trkpt>
      <trkpt lat="43.93847" lon="0.28232">
        <ele>127</ele>
        <time>2022-08-17T13:20:51Z</time>
      </trkpt>
      <trkpt lat="43.93845" lon="0.28225">
        <ele>126</ele>
        <time>2022-08-17T13:20:56Z</time>
      </trkpt>
      <trkpt lat="43.93839" lon="0.28213">
        <ele>126</ele>
        <time>2022-08-17T13:21:04Z</time>
      </trkpt>
      <trkpt lat="43.93838" lon="0.28205">
        <ele>126</ele>
        <time>2022-08-17T13:21:10Z</time>
      </trkpt>
      <trkpt lat="43.93836" lon="0.28199">
        <ele>125</ele>
        <time>2022-08-17T13:21:25Z</time>
      </trkpt>
      <trkpt lat="43.93829" lon="0.28181">
        <ele>127</ele>
        <time>2022-08-17T13:21:46Z</time>
      </trkpt>
      <trkpt lat="43.93826" lon="0.28175">
        <ele>126</ele>
        <time>2022-08-17T13:21:50Z</time>
      </trkpt>
      <trkpt lat="43.93824" lon="0.28167">
        <ele>126</ele>
        <time>2022-08-17T13:21:55Z</time>
      </trkpt>
      <trkpt lat="43.9382" lon="0.28162">
        <ele>126</ele>
        <time>2022-08-17T13:21:59Z</time>
      </trkpt>
      <trkpt lat="43.93818" lon="0.28156">
        <ele>126</ele>
        <time>2022-08-17T13:22:04Z</time>
      </trkpt>
      <trkpt lat="43.93815" lon="0.2815">
        <ele>125</ele>
        <time>2022-08-17T13:22:08Z</time>
      </trkpt>
      <trkpt lat="43.93808" lon="0.2813">
        <ele>125</ele>
        <time>2022-08-17T13:22:23Z</time>
      </trkpt>
      <trkpt lat="43.93804" lon="0.28124">
        <ele>125</ele>
        <time>2022-08-17T13:22:28Z</time>
      </trkpt>
      <trkpt lat="43.93802" lon="0.28117">
        <ele>125</ele>
        <time>2022-08-17T13:22:32Z</time>
      </trkpt>
      <trkpt lat="43.938" lon="0.28109">
        <ele>125</ele>
        <time>2022-08-17T13:22:37Z</time>
      </trkpt>
      <trkpt lat="43.93791" lon="0.28089">
        <ele>124</ele>
        <time>2022-08-17T13:22:52Z</time>
      </trkpt>
      <trkpt lat="43.93784" lon="0.28081">
        <ele>124</ele>
        <time>2022-08-17T13:23:04Z</time>
      </trkpt>
      <trkpt lat="43.93781" lon="0.28074">
        <ele>124</ele>
        <time>2022-08-17T13:23:09Z</time>
      </trkpt>
      <trkpt lat="43.93763" lon="0.28026">
        <ele>125</ele>
        <time>2022-08-17T13:23:41Z</time>
      </trkpt>
      <trkpt lat="43.93758" lon="0.28012">
        <ele>125</ele>
        <time>2022-08-17T13:23:50Z</time>
      </trkpt>
      <trkpt lat="43.93755" lon="0.28005">
        <ele>125</ele>
        <time>2022-08-17T13:23:54Z</time>
      </trkpt>
      <trkpt lat="43.93753" lon="0.27997">
        <ele>125</ele>
        <time>2022-08-17T13:23:59Z</time>
      </trkpt>
      <trkpt lat="43.93735" lon="0.2796">
        <ele>124</ele>
        <time>2022-08-17T13:24:33Z</time>
      </trkpt>
      <trkpt lat="43.93726" lon="0.27936">
        <ele>124</ele>
        <time>2022-08-17T13:24:48Z</time>
      </trkpt>
      <trkpt lat="43.9371" lon="0.27903">
        <ele>124</ele>
        <time>2022-08-17T13:25:11Z</time>
      </trkpt>
      <trkpt lat="43.93696" lon="0.27858">
        <ele>125</ele>
        <time>2022-08-17T13:25:43Z</time>
      </trkpt>
      <trkpt lat="43.9368" lon="0.27832">
        <ele>125</ele>
        <time>2022-08-17T13:26:02Z</time>
      </trkpt>
      <trkpt lat="43.93678" lon="0.27824">
        <ele>125</ele>
        <time>2022-08-17T13:26:07Z</time>
      </trkpt>
      <trkpt lat="43.93675" lon="0.27816">
        <ele>125</ele>
        <time>2022-08-17T13:26:13Z</time>
      </trkpt>
      <trkpt lat="43.93667" lon="0.27787">
        <ele>125</ele>
        <time>2022-08-17T13:26:34Z</time>
      </trkpt>
      <trkpt lat="43.93655" lon="0.27745">
        <ele>126</ele>
        <time>2022-08-17T13:27:02Z</time>
      </trkpt>
      <trkpt lat="43.93655" lon="0.27737">
        <ele>126</ele>
        <time>2022-08-17T13:27:07Z</time>
      </trkpt>
      <trkpt lat="43.93651" lon="0.27725">
        <ele>127</ele>
        <time>2022-08-17T13:27:15Z</time>
      </trkpt>
      <trkpt lat="43.93649" lon="0.2771">
        <ele>127</ele>
        <time>2022-08-17T13:27:24Z</time>
      </trkpt>
      <trkpt lat="43.93647" lon="0.27703">
        <ele>127</ele>
        <time>2022-08-17T13:27:28Z</time>
      </trkpt>
      <trkpt lat="43.93645" lon="0.27689">
        <ele>127</ele>
        <time>2022-08-17T13:27:36Z</time>
      </trkpt>
      <trkpt lat="43.93639" lon="0.27664">
        <ele>128</ele>
        <time>2022-08-17T13:27:55Z</time>
      </trkpt>
      <trkpt lat="43.93638" lon="0.27655">
        <ele>128</ele>
        <time>2022-08-17T13:28:00Z</time>
      </trkpt>
      <trkpt lat="43.93635" lon="0.27634">
        <ele>128</ele>
        <time>2022-08-17T13:28:15Z</time>
      </trkpt>
      <trkpt lat="43.93634" lon="0.27627">
        <ele>128</ele>
        <time>2022-08-17T13:28:19Z</time>
      </trkpt>
      <trkpt lat="43.93628" lon="0.27603">
        <ele>129</ele>
        <time>2022-08-17T13:28:36Z</time>
      </trkpt>
      <trkpt lat="43.93625" lon="0.27578">
        <ele>128</ele>
        <time>2022-08-17T13:28:51Z</time>
      </trkpt>
      <trkpt lat="43.9362" lon="0.27528">
        <ele>130</ele>
        <time>2022-08-17T13:29:19Z</time>
      </trkpt>
      <trkpt lat="43.93623" lon="0.27521">
        <ele>130</ele>
        <time>2022-08-17T13:29:24Z</time>
      </trkpt>
      <trkpt lat="43.93643" lon="0.27497">
        <ele>129</ele>
        <time>2022-08-17T13:29:43Z</time>
      </trkpt>
      <trkpt lat="43.93647" lon="0.27493">
        <ele>129</ele>
        <time>2022-08-17T13:29:47Z</time>
      </trkpt>
      <trkpt lat="43.93655" lon="0.27483">
        <ele>128</ele>
        <time>2022-08-17T13:29:56Z</time>
      </trkpt>
      <trkpt lat="43.9366" lon="0.2748">
        <ele>128</ele>
        <time>2022-08-17T13:30:01Z</time>
      </trkpt>
      <trkpt lat="43.93664" lon="0.27477">
        <ele>128</ele>
        <time>2022-08-17T13:30:05Z</time>
      </trkpt>
      <trkpt lat="43.93674" lon="0.27467">
        <ele>128</ele>
        <time>2022-08-17T13:30:13Z</time>
      </trkpt>
      <trkpt lat="43.9368" lon="0.27461">
        <ele>127</ele>
        <time>2022-08-17T13:30:19Z</time>
      </trkpt>
      <trkpt lat="43.93702" lon="0.27442">
        <ele>126</ele>
        <time>2022-08-17T13:30:40Z</time>
      </trkpt>
      <trkpt lat="43.93707" lon="0.27438">
        <ele>126</ele>
        <time>2022-08-17T13:30:44Z</time>
      </trkpt>
      <trkpt lat="43.93738" lon="0.27407">
        <ele>126</ele>
        <time>2022-08-17T13:31:17Z</time>
      </trkpt>
      <trkpt lat="43.93744" lon="0.27403">
        <ele>126</ele>
        <time>2022-08-17T13:31:22Z</time>
      </trkpt>
      <trkpt lat="43.93748" lon="0.27397">
        <ele>125</ele>
        <time>2022-08-17T13:31:26Z</time>
      </trkpt>
      <trkpt lat="43.93768" lon="0.2738">
        <ele>125</ele>
        <time>2022-08-17T13:31:45Z</time>
      </trkpt>
      <trkpt lat="43.93774" lon="0.27381">
        <ele>125</ele>
        <time>2022-08-17T13:31:55Z</time>
      </trkpt>
      <trkpt lat="43.9378" lon="0.27378">
        <ele>125</ele>
        <time>2022-08-17T13:32:00Z</time>
      </trkpt>
      <trkpt lat="43.93807" lon="0.27353">
        <ele>125</ele>
        <time>2022-08-17T13:32:28Z</time>
      </trkpt>
      <trkpt lat="43.93842" lon="0.27315">
        <ele>123</ele>
        <time>2022-08-17T13:33:01Z</time>
      </trkpt>
      <trkpt lat="43.93846" lon="0.2731">
        <ele>123</ele>
        <time>2022-08-17T13:33:05Z</time>
      </trkpt>
      <trkpt lat="43.93856" lon="0.27302">
        <ele>123</ele>
        <time>2022-08-17T13:33:13Z</time>
      </trkpt>
      <trkpt lat="43.93861" lon="0.27297">
        <ele>123</ele>
        <time>2022-08-17T13:33:17Z</time>
      </trkpt>
      <trkpt lat="43.93866" lon="0.27296">
        <ele>123</ele>
        <time>2022-08-17T13:33:22Z</time>
      </trkpt>
      <trkpt lat="43.93876" lon="0.27292">
        <ele>123</ele>
        <time>2022-08-17T13:33:34Z</time>
      </trkpt>
      <trkpt lat="43.93881" lon="0.27292">
        <ele>124</ele>
        <time>2022-08-17T13:33:39Z</time>
      </trkpt>
      <trkpt lat="43.93888" lon="0.27288">
        <ele>124</ele>
        <time>2022-08-17T13:33:46Z</time>
      </trkpt>
      <trkpt lat="43.93893" lon="0.27286">
        <ele>125</ele>
        <time>2022-08-17T13:33:57Z</time>
      </trkpt>
      <trkpt lat="43.93919" lon="0.27267">
        <ele>128</ele>
        <time>2022-08-17T13:34:28Z</time>
      </trkpt>
      <trkpt lat="43.93923" lon="0.27263">
        <ele>128</ele>
        <time>2022-08-17T13:34:33Z</time>
      </trkpt>
      <trkpt lat="43.93929" lon="0.27259">
        <ele>129</ele>
        <time>2022-08-17T13:34:59Z</time>
      </trkpt>
      <trkpt lat="43.93945" lon="0.27247">
        <ele>131</ele>
        <time>2022-08-17T13:35:16Z</time>
      </trkpt>
      <trkpt lat="43.9395" lon="0.27246">
        <ele>132</ele>
        <time>2022-08-17T13:35:23Z</time>
      </trkpt>
      <trkpt lat="43.93984" lon="0.27219">
        <ele>137</ele>
        <time>2022-08-17T13:35:58Z</time>
      </trkpt>
      <trkpt lat="43.93989" lon="0.27215">
        <ele>137</ele>
        <time>2022-08-17T13:36:02Z</time>
      </trkpt>
      <trkpt lat="43.94005" lon="0.27204">
        <ele>138</ele>
        <time>2022-08-17T13:36:24Z</time>
      </trkpt>
      <trkpt lat="43.94009" lon="0.272">
        <ele>139</ele>
        <time>2022-08-17T13:36:28Z</time>
      </trkpt>
      <trkpt lat="43.94013" lon="0.27198">
        <ele>138</ele>
        <time>2022-08-17T13:36:32Z</time>
      </trkpt>
      <trkpt lat="43.94017" lon="0.27195">
        <ele>139</ele>
        <time>2022-08-17T13:36:54Z</time>
      </trkpt>
      <trkpt lat="43.94021" lon="0.27191">
        <ele>140</ele>
        <time>2022-08-17T13:36:59Z</time>
      </trkpt>
      <trkpt lat="43.94026" lon="0.27188">
        <ele>140</ele>
        <time>2022-08-17T13:37:03Z</time>
      </trkpt>
      <trkpt lat="43.94034" lon="0.27181">
        <ele>139</ele>
        <time>2022-08-17T13:37:11Z</time>
      </trkpt>
      <trkpt lat="43.94039" lon="0.27177">
        <ele>139</ele>
        <time>2022-08-17T13:37:15Z</time>
      </trkpt>
      <trkpt lat="43.94042" lon="0.27172">
        <ele>139</ele>
        <time>2022-08-17T13:37:19Z</time>
      </trkpt>
      <trkpt lat="43.94044" lon="0.27166">
        <ele>139</ele>
        <time>2022-08-17T13:37:23Z</time>
      </trkpt>
      <trkpt lat="43.94045" lon="0.27153">
        <ele>139</ele>
        <time>2022-08-17T13:37:31Z</time>
      </trkpt>
      <trkpt lat="43.94044" lon="0.27147">
        <ele>139</ele>
        <time>2022-08-17T13:37:35Z</time>
      </trkpt>
      <trkpt lat="43.94046" lon="0.27133">
        <ele>140</ele>
        <time>2022-08-17T13:37:44Z</time>
      </trkpt>
      <trkpt lat="43.94046" lon="0.27126">
        <ele>140</ele>
        <time>2022-08-17T13:37:48Z</time>
      </trkpt>
      <trkpt lat="43.94046" lon="0.2712">
        <ele>139</ele>
        <time>2022-08-17T13:37:52Z</time>
      </trkpt>
      <trkpt lat="43.94046" lon="0.27098">
        <ele>139</ele>
        <time>2022-08-17T13:38:07Z</time>
      </trkpt>
      <trkpt lat="43.94046" lon="0.27091">
        <ele>140</ele>
        <time>2022-08-17T13:38:12Z</time>
      </trkpt>
      <trkpt lat="43.94047" lon="0.27078">
        <ele>139</ele>
        <time>2022-08-17T13:38:20Z</time>
      </trkpt>
      <trkpt lat="43.94048" lon="0.27071">
        <ele>140</ele>
        <time>2022-08-17T13:38:24Z</time>
      </trkpt>
      <trkpt lat="43.94048" lon="0.27054">
        <ele>140</ele>
        <time>2022-08-17T13:38:36Z</time>
      </trkpt>
      <trkpt lat="43.94048" lon="0.27048">
        <ele>141</ele>
        <time>2022-08-17T13:38:39Z</time>
      </trkpt>
      <trkpt lat="43.94048" lon="0.27041">
        <ele>141</ele>
        <time>2022-08-17T13:38:43Z</time>
      </trkpt>
      <trkpt lat="43.94049" lon="0.27035">
        <ele>140</ele>
        <time>2022-08-17T13:38:47Z</time>
      </trkpt>
      <trkpt lat="43.9405" lon="0.2702">
        <ele>140</ele>
        <time>2022-08-17T13:38:56Z</time>
      </trkpt>
      <trkpt lat="43.94051" lon="0.27014">
        <ele>140</ele>
        <time>2022-08-17T13:39:00Z</time>
      </trkpt>
      <trkpt lat="43.94052" lon="0.26966">
        <ele>140</ele>
        <time>2022-08-17T13:39:29Z</time>
      </trkpt>
      <trkpt lat="43.94056" lon="0.26962">
        <ele>139</ele>
        <time>2022-08-17T13:39:37Z</time>
      </trkpt>
      <trkpt lat="43.94088" lon="0.2697">
        <ele>142</ele>
        <time>2022-08-17T13:40:08Z</time>
      </trkpt>
      <trkpt lat="43.94093" lon="0.26971">
        <ele>142</ele>
        <time>2022-08-17T13:40:12Z</time>
      </trkpt>
      <trkpt lat="43.94097" lon="0.26973">
        <ele>142</ele>
        <time>2022-08-17T13:40:16Z</time>
      </trkpt>
      <trkpt lat="43.94122" lon="0.26981">
        <ele>145</ele>
        <time>2022-08-17T13:40:49Z</time>
      </trkpt>
      <trkpt lat="43.94161" lon="0.2699">
        <ele>149</ele>
        <time>2022-08-17T13:41:26Z</time>
      </trkpt>
      <trkpt lat="43.94174" lon="0.26995">
        <ele>150</ele>
        <time>2022-08-17T13:41:42Z</time>
      </trkpt>
      <trkpt lat="43.94194" lon="0.27012">
        <ele>156</ele>
        <time>2022-08-17T13:42:15Z</time>
      </trkpt>
      <trkpt lat="43.94187" lon="0.27008">
        <ele>155</ele>
        <time>2022-08-17T13:42:59Z</time>
      </trkpt>
      <trkpt lat="43.94186" lon="0.26999">
        <ele>153</ele>
        <time>2022-08-17T13:43:30Z</time>
      </trkpt>
      <trkpt lat="43.94191" lon="0.26992">
        <ele>153</ele>
        <time>2022-08-17T13:43:48Z</time>
      </trkpt>
      <trkpt lat="43.94196" lon="0.26992">
        <ele>155</ele>
        <time>2022-08-17T13:44:06Z</time>
      </trkpt>
      <trkpt lat="43.94188" lon="0.27">
        <ele>154</ele>
        <time>2022-08-17T13:44:24Z</time>
      </trkpt>
      <trkpt lat="43.94182" lon="0.27002">
        <ele>152</ele>
        <time>2022-08-17T13:45:00Z</time>
      </trkpt>
      <trkpt lat="43.94181" lon="0.27006">
        <ele>152</ele>
        <time>2022-08-17T13:49:56Z</time>
      </trkpt>
      <trkpt lat="43.94178" lon="0.26997">
        <ele>152</ele>
        <time>2022-08-17T13:50:26Z</time>
      </trkpt>
      <trkpt lat="43.9418" lon="0.26996">
        <ele>152</ele>
        <time>2022-08-17T13:51:09Z</time>
      </trkpt>
      <trkpt lat="43.94172" lon="0.26994">
        <ele>152</ele>
        <time>2022-08-17T13:51:17Z</time>
      </trkpt>
      <trkpt lat="43.94162" lon="0.26991">
        <ele>151</ele>
        <time>2022-08-17T13:51:26Z</time>
      </trkpt>
      <trkpt lat="43.94158" lon="0.26989">
        <ele>151</ele>
        <time>2022-08-17T13:51:30Z</time>
      </trkpt>
      <trkpt lat="43.94148" lon="0.26988">
        <ele>149</ele>
        <time>2022-08-17T13:51:39Z</time>
      </trkpt>
      <trkpt lat="43.94138" lon="0.26981">
        <ele>148</ele>
        <time>2022-08-17T13:51:47Z</time>
      </trkpt>
      <trkpt lat="43.94133" lon="0.2698">
        <ele>148</ele>
        <time>2022-08-17T13:51:51Z</time>
      </trkpt>
      <trkpt lat="43.94128" lon="0.26979">
        <ele>147</ele>
        <time>2022-08-17T13:51:56Z</time>
      </trkpt>
      <trkpt lat="43.94108" lon="0.26973">
        <ele>146</ele>
        <time>2022-08-17T13:52:14Z</time>
      </trkpt>
      <trkpt lat="43.94098" lon="0.2697">
        <ele>145</ele>
        <time>2022-08-17T13:52:23Z</time>
      </trkpt>
      <trkpt lat="43.94092" lon="0.26969">
        <ele>144</ele>
        <time>2022-08-17T13:52:27Z</time>
      </trkpt>
      <trkpt lat="43.94077" lon="0.26963">
        <ele>143</ele>
        <time>2022-08-17T13:52:39Z</time>
      </trkpt>
      <trkpt lat="43.94057" lon="0.26955">
        <ele>142</ele>
        <time>2022-08-17T13:52:57Z</time>
      </trkpt>
      <trkpt lat="43.94054" lon="0.26949">
        <ele>142</ele>
        <time>2022-08-17T13:53:01Z</time>
      </trkpt>
      <trkpt lat="43.94052" lon="0.26942">
        <ele>142</ele>
        <time>2022-08-17T13:53:04Z</time>
      </trkpt>
      <trkpt lat="43.94052" lon="0.26935">
        <ele>142</ele>
        <time>2022-08-17T13:53:08Z</time>
      </trkpt>
      <trkpt lat="43.94051" lon="0.26928">
        <ele>142</ele>
        <time>2022-08-17T13:53:12Z</time>
      </trkpt>
      <trkpt lat="43.9405" lon="0.26921">
        <ele>142</ele>
        <time>2022-08-17T13:53:16Z</time>
      </trkpt>
      <trkpt lat="43.94049" lon="0.26906">
        <ele>141</ele>
        <time>2022-08-17T13:53:25Z</time>
      </trkpt>
      <trkpt lat="43.94049" lon="0.26898">
        <ele>142</ele>
        <time>2022-08-17T13:53:30Z</time>
      </trkpt>
      <trkpt lat="43.94048" lon="0.26877">
        <ele>142</ele>
        <time>2022-08-17T13:53:42Z</time>
      </trkpt>
      <trkpt lat="43.9405" lon="0.26864">
        <ele>141</ele>
        <time>2022-08-17T13:54:05Z</time>
      </trkpt>
      <trkpt lat="43.9405" lon="0.26857">
        <ele>141</ele>
        <time>2022-08-17T13:54:09Z</time>
      </trkpt>
      <trkpt lat="43.94051" lon="0.26851">
        <ele>141</ele>
        <time>2022-08-17T13:54:13Z</time>
      </trkpt>
      <trkpt lat="43.9405" lon="0.26844">
        <ele>141</ele>
        <time>2022-08-17T13:54:17Z</time>
      </trkpt>
      <trkpt lat="43.9405" lon="0.2683">
        <ele>143</ele>
        <time>2022-08-17T13:54:26Z</time>
      </trkpt>
      <trkpt lat="43.94049" lon="0.26823">
        <ele>143</ele>
        <time>2022-08-17T13:54:30Z</time>
      </trkpt>
      <trkpt lat="43.94048" lon="0.26802">
        <ele>143</ele>
        <time>2022-08-17T13:54:42Z</time>
      </trkpt>
      <trkpt lat="43.94049" lon="0.26788">
        <ele>144</ele>
        <time>2022-08-17T13:54:51Z</time>
      </trkpt>
      <trkpt lat="43.94047" lon="0.26771">
        <ele>143</ele>
        <time>2022-08-17T13:55:04Z</time>
      </trkpt>
      <trkpt lat="43.94046" lon="0.26763">
        <ele>144</ele>
        <time>2022-08-17T13:55:08Z</time>
      </trkpt>
      <trkpt lat="43.94048" lon="0.2675">
        <ele>145</ele>
        <time>2022-08-17T13:55:16Z</time>
      </trkpt>
      <trkpt lat="43.9405" lon="0.26744">
        <ele>144</ele>
        <time>2022-08-17T13:55:21Z</time>
      </trkpt>
      <trkpt lat="43.94052" lon="0.26737">
        <ele>145</ele>
        <time>2022-08-17T13:55:25Z</time>
      </trkpt>
      <trkpt lat="43.94053" lon="0.26722">
        <ele>145</ele>
        <time>2022-08-17T13:55:33Z</time>
      </trkpt>
      <trkpt lat="43.94066" lon="0.26668">
        <ele>149</ele>
        <time>2022-08-17T13:56:05Z</time>
      </trkpt>
      <trkpt lat="43.94067" lon="0.2666">
        <ele>149</ele>
        <time>2022-08-17T13:56:09Z</time>
      </trkpt>
      <trkpt lat="43.94071" lon="0.26648">
        <ele>150</ele>
        <time>2022-08-17T13:56:17Z</time>
      </trkpt>
      <trkpt lat="43.94075" lon="0.26626">
        <ele>151</ele>
        <time>2022-08-17T13:56:31Z</time>
      </trkpt>
      <trkpt lat="43.94077" lon="0.2662">
        <ele>152</ele>
        <time>2022-08-17T13:56:35Z</time>
      </trkpt>
      <trkpt lat="43.94077" lon="0.26613">
        <ele>152</ele>
        <time>2022-08-17T13:56:39Z</time>
      </trkpt>
      <trkpt lat="43.94084" lon="0.26563">
        <ele>155</ele>
        <time>2022-08-17T13:57:10Z</time>
      </trkpt>
      <trkpt lat="43.94088" lon="0.26508">
        <ele>157</ele>
        <time>2022-08-17T13:57:45Z</time>
      </trkpt>
      <trkpt lat="43.94089" lon="0.26486">
        <ele>158</ele>
        <time>2022-08-17T13:57:57Z</time>
      </trkpt>
      <trkpt lat="43.94093" lon="0.26444">
        <ele>159</ele>
        <time>2022-08-17T13:58:20Z</time>
      </trkpt>
      <trkpt lat="43.94093" lon="0.26437">
        <ele>159</ele>
        <time>2022-08-17T13:58:23Z</time>
      </trkpt>
      <trkpt lat="43.94092" lon="0.2643">
        <ele>159</ele>
        <time>2022-08-17T13:58:27Z</time>
      </trkpt>
      <trkpt lat="43.94095" lon="0.26365">
        <ele>162</ele>
        <time>2022-08-17T13:58:59Z</time>
      </trkpt>
      <trkpt lat="43.94097" lon="0.26329">
        <ele>163</ele>
        <time>2022-08-17T13:59:20Z</time>
      </trkpt>
      <trkpt lat="43.94097" lon="0.26319">
        <ele>163</ele>
        <time>2022-08-17T13:59:27Z</time>
      </trkpt>
      <trkpt lat="43.94098" lon="0.26313">
        <ele>163</ele>
        <time>2022-08-17T13:59:30Z</time>
      </trkpt>
      <trkpt lat="43.94098" lon="0.26306">
        <ele>163</ele>
        <time>2022-08-17T13:59:34Z</time>
      </trkpt>
      <trkpt lat="43.94097" lon="0.26299">
        <ele>163</ele>
        <time>2022-08-17T13:59:38Z</time>
      </trkpt>
      <trkpt lat="43.94096" lon="0.26283">
        <ele>163</ele>
        <time>2022-08-17T13:59:46Z</time>
      </trkpt>
      <trkpt lat="43.94095" lon="0.26276">
        <ele>164</ele>
        <time>2022-08-17T13:59:50Z</time>
      </trkpt>
      <trkpt lat="43.94095" lon="0.26263">
        <ele>164</ele>
        <time>2022-08-17T13:59:58Z</time>
      </trkpt>
      <trkpt lat="43.94095" lon="0.26241">
        <ele>164</ele>
        <time>2022-08-17T14:00:11Z</time>
      </trkpt>
      <trkpt lat="43.94094" lon="0.26213">
        <ele>164</ele>
        <time>2022-08-17T14:00:27Z</time>
      </trkpt>
      <trkpt lat="43.94095" lon="0.262">
        <ele>164</ele>
        <time>2022-08-17T14:00:34Z</time>
      </trkpt>
      <trkpt lat="43.941" lon="0.26165">
        <ele>164</ele>
        <time>2022-08-17T14:00:53Z</time>
      </trkpt>
      <trkpt lat="43.94103" lon="0.26144">
        <ele>164</ele>
        <time>2022-08-17T14:01:05Z</time>
      </trkpt>
      <trkpt lat="43.94104" lon="0.26137">
        <ele>164</ele>
        <time>2022-08-17T14:01:09Z</time>
      </trkpt>
      <trkpt lat="43.94105" lon="0.26131">
        <ele>164</ele>
        <time>2022-08-17T14:01:12Z</time>
      </trkpt>
      <trkpt lat="43.94111" lon="0.2612">
        <ele>163</ele>
        <time>2022-08-17T14:01:20Z</time>
      </trkpt>
      <trkpt lat="43.94116" lon="0.26108">
        <ele>164</ele>
        <time>2022-08-17T14:01:28Z</time>
      </trkpt>
      <trkpt lat="43.94118" lon="0.26101">
        <ele>164</ele>
        <time>2022-08-17T14:01:33Z</time>
      </trkpt>
      <trkpt lat="43.94123" lon="0.26082">
        <ele>164</ele>
        <time>2022-08-17T14:01:45Z</time>
      </trkpt>
      <trkpt lat="43.94126" lon="0.26075">
        <ele>164</ele>
        <time>2022-08-17T14:01:49Z</time>
      </trkpt>
      <trkpt lat="43.94137" lon="0.26049">
        <ele>164</ele>
        <time>2022-08-17T14:02:05Z</time>
      </trkpt>
      <trkpt lat="43.9414" lon="0.26044">
        <ele>164</ele>
        <time>2022-08-17T14:02:09Z</time>
      </trkpt>
      <trkpt lat="43.94147" lon="0.26026">
        <ele>164</ele>
        <time>2022-08-17T14:02:20Z</time>
      </trkpt>
      <trkpt lat="43.9415" lon="0.2602">
        <ele>164</ele>
        <time>2022-08-17T14:02:24Z</time>
      </trkpt>
      <trkpt lat="43.94154" lon="0.26007">
        <ele>164</ele>
        <time>2022-08-17T14:02:32Z</time>
      </trkpt>
      <trkpt lat="43.94157" lon="0.26">
        <ele>163</ele>
        <time>2022-08-17T14:02:36Z</time>
      </trkpt>
      <trkpt lat="43.94161" lon="0.25987">
        <ele>164</ele>
        <time>2022-08-17T14:02:44Z</time>
      </trkpt>
      <trkpt lat="43.94165" lon="0.25975">
        <ele>163</ele>
        <time>2022-08-17T14:02:51Z</time>
      </trkpt>
      <trkpt lat="43.9417" lon="0.25962">
        <ele>163</ele>
        <time>2022-08-17T14:02:58Z</time>
      </trkpt>
      <trkpt lat="43.94172" lon="0.25956">
        <ele>163</ele>
        <time>2022-08-17T14:03:02Z</time>
      </trkpt>
      <trkpt lat="43.94181" lon="0.25931">
        <ele>162</ele>
        <time>2022-08-17T14:03:17Z</time>
      </trkpt>
      <trkpt lat="43.94183" lon="0.25925">
        <ele>162</ele>
        <time>2022-08-17T14:03:20Z</time>
      </trkpt>
      <trkpt lat="43.94187" lon="0.25914">
        <ele>162</ele>
        <time>2022-08-17T14:03:27Z</time>
      </trkpt>
      <trkpt lat="43.94194" lon="0.25896">
        <ele>163</ele>
        <time>2022-08-17T14:03:39Z</time>
      </trkpt>
      <trkpt lat="43.94196" lon="0.2589">
        <ele>163</ele>
        <time>2022-08-17T14:03:43Z</time>
      </trkpt>
      <trkpt lat="43.94199" lon="0.25884">
        <ele>163</ele>
        <time>2022-08-17T14:03:47Z</time>
      </trkpt>
      <trkpt lat="43.94203" lon="0.2587">
        <ele>162</ele>
        <time>2022-08-17T14:03:55Z</time>
      </trkpt>
      <trkpt lat="43.94207" lon="0.25857">
        <ele>162</ele>
        <time>2022-08-17T14:04:03Z</time>
      </trkpt>
      <trkpt lat="43.94209" lon="0.2585">
        <ele>162</ele>
        <time>2022-08-17T14:04:07Z</time>
      </trkpt>
      <trkpt lat="43.94217" lon="0.25823">
        <ele>161</ele>
        <time>2022-08-17T14:04:23Z</time>
      </trkpt>
      <trkpt lat="43.94221" lon="0.25809">
        <ele>162</ele>
        <time>2022-08-17T14:04:31Z</time>
      </trkpt>
      <trkpt lat="43.94225" lon="0.25794">
        <ele>162</ele>
        <time>2022-08-17T14:04:40Z</time>
      </trkpt>
      <trkpt lat="43.94228" lon="0.25789">
        <ele>161</ele>
        <time>2022-08-17T14:04:44Z</time>
      </trkpt>
      <trkpt lat="43.94232" lon="0.25774">
        <ele>160</ele>
        <time>2022-08-17T14:04:53Z</time>
      </trkpt>
      <trkpt lat="43.94234" lon="0.25767">
        <ele>161</ele>
        <time>2022-08-17T14:04:57Z</time>
      </trkpt>
      <trkpt lat="43.9424" lon="0.25747">
        <ele>160</ele>
        <time>2022-08-17T14:05:08Z</time>
      </trkpt>
      <trkpt lat="43.94243" lon="0.25742">
        <ele>160</ele>
        <time>2022-08-17T14:05:11Z</time>
      </trkpt>
      <trkpt lat="43.94247" lon="0.2573">
        <ele>160</ele>
        <time>2022-08-17T14:05:18Z</time>
      </trkpt>
      <trkpt lat="43.94253" lon="0.25709">
        <ele>158</ele>
        <time>2022-08-17T14:05:30Z</time>
      </trkpt>
      <trkpt lat="43.94262" lon="0.25676">
        <ele>160</ele>
        <time>2022-08-17T14:05:49Z</time>
      </trkpt>
      <trkpt lat="43.94263" lon="0.2567">
        <ele>160</ele>
        <time>2022-08-17T14:05:53Z</time>
      </trkpt>
      <trkpt lat="43.94264" lon="0.25662">
        <ele>160</ele>
        <time>2022-08-17T14:05:57Z</time>
      </trkpt>
      <trkpt lat="43.94266" lon="0.25641">
        <ele>159</ele>
        <time>2022-08-17T14:06:09Z</time>
      </trkpt>
      <trkpt lat="43.94268" lon="0.25635">
        <ele>160</ele>
        <time>2022-08-17T14:06:13Z</time>
      </trkpt>
      <trkpt lat="43.9427" lon="0.2563">
        <ele>159</ele>
        <time>2022-08-17T14:06:16Z</time>
      </trkpt>
      <trkpt lat="43.94271" lon="0.25622">
        <ele>159</ele>
        <time>2022-08-17T14:06:20Z</time>
      </trkpt>
      <trkpt lat="43.94274" lon="0.25614">
        <ele>159</ele>
        <time>2022-08-17T14:06:25Z</time>
      </trkpt>
      <trkpt lat="43.94275" lon="0.25609">
        <ele>160</ele>
        <time>2022-08-17T14:06:29Z</time>
      </trkpt>
      <trkpt lat="43.9428" lon="0.25595">
        <ele>159</ele>
        <time>2022-08-17T14:06:37Z</time>
      </trkpt>
      <trkpt lat="43.94285" lon="0.25581">
        <ele>160</ele>
        <time>2022-08-17T14:06:47Z</time>
      </trkpt>
      <trkpt lat="43.94287" lon="0.25573">
        <ele>160</ele>
        <time>2022-08-17T14:06:51Z</time>
      </trkpt>
      <trkpt lat="43.94288" lon="0.25567">
        <ele>160</ele>
        <time>2022-08-17T14:06:55Z</time>
      </trkpt>
      <trkpt lat="43.94305" lon="0.25516">
        <ele>159</ele>
        <time>2022-08-17T14:07:28Z</time>
      </trkpt>
      <trkpt lat="43.9431" lon="0.25503">
        <ele>158</ele>
        <time>2022-08-17T14:07:36Z</time>
      </trkpt>
      <trkpt lat="43.94311" lon="0.25497">
        <ele>158</ele>
        <time>2022-08-17T14:07:39Z</time>
      </trkpt>
      <trkpt lat="43.94316" lon="0.25484">
        <ele>158</ele>
        <time>2022-08-17T14:07:47Z</time>
      </trkpt>
      <trkpt lat="43.9432" lon="0.25471">
        <ele>158</ele>
        <time>2022-08-17T14:07:55Z</time>
      </trkpt>
      <trkpt lat="43.94322" lon="0.25463">
        <ele>158</ele>
        <time>2022-08-17T14:07:59Z</time>
      </trkpt>
      <trkpt lat="43.94323" lon="0.25457">
        <ele>158</ele>
        <time>2022-08-17T14:08:03Z</time>
      </trkpt>
      <trkpt lat="43.94326" lon="0.2545">
        <ele>158</ele>
        <time>2022-08-17T14:08:07Z</time>
      </trkpt>
      <trkpt lat="43.94326" lon="0.25443">
        <ele>158</ele>
        <time>2022-08-17T14:08:10Z</time>
      </trkpt>
      <trkpt lat="43.94329" lon="0.25437">
        <ele>157</ele>
        <time>2022-08-17T14:08:14Z</time>
      </trkpt>
      <trkpt lat="43.9433" lon="0.25429">
        <ele>157</ele>
        <time>2022-08-17T14:08:18Z</time>
      </trkpt>
      <trkpt lat="43.94333" lon="0.25423">
        <ele>157</ele>
        <time>2022-08-17T14:08:22Z</time>
      </trkpt>
      <trkpt lat="43.94333" lon="0.25417">
        <ele>157</ele>
        <time>2022-08-17T14:08:26Z</time>
      </trkpt>
      <trkpt lat="43.94336" lon="0.2541">
        <ele>157</ele>
        <time>2022-08-17T14:08:30Z</time>
      </trkpt>
      <trkpt lat="43.94339" lon="0.25399">
        <ele>157</ele>
        <time>2022-08-17T14:08:37Z</time>
      </trkpt>
      <trkpt lat="43.94341" lon="0.25389">
        <ele>158</ele>
        <time>2022-08-17T14:08:45Z</time>
      </trkpt>
      <trkpt lat="43.94345" lon="0.25377">
        <ele>156</ele>
        <time>2022-08-17T14:08:52Z</time>
      </trkpt>
      <trkpt lat="43.94347" lon="0.25371">
        <ele>156</ele>
        <time>2022-08-17T14:08:56Z</time>
      </trkpt>
      <trkpt lat="43.94348" lon="0.25363">
        <ele>157</ele>
        <time>2022-08-17T14:09:00Z</time>
      </trkpt>
      <trkpt lat="43.94349" lon="0.25357">
        <ele>157</ele>
        <time>2022-08-17T14:09:04Z</time>
      </trkpt>
      <trkpt lat="43.94351" lon="0.2535">
        <ele>157</ele>
        <time>2022-08-17T14:09:08Z</time>
      </trkpt>
      <trkpt lat="43.94351" lon="0.25341">
        <ele>156</ele>
        <time>2022-08-17T14:09:19Z</time>
      </trkpt>
      <trkpt lat="43.94352" lon="0.25335">
        <ele>157</ele>
        <time>2022-08-17T14:09:23Z</time>
      </trkpt>
      <trkpt lat="43.94354" lon="0.25328">
        <ele>157</ele>
        <time>2022-08-17T14:09:27Z</time>
      </trkpt>
      <trkpt lat="43.94355" lon="0.25321">
        <ele>157</ele>
        <time>2022-08-17T14:09:31Z</time>
      </trkpt>
      <trkpt lat="43.94356" lon="0.25315">
        <ele>157</ele>
        <time>2022-08-17T14:09:35Z</time>
      </trkpt>
      <trkpt lat="43.9436" lon="0.25304">
        <ele>157</ele>
        <time>2022-08-17T14:09:42Z</time>
      </trkpt>
      <trkpt lat="43.94363" lon="0.25297">
        <ele>157</ele>
        <time>2022-08-17T14:09:46Z</time>
      </trkpt>
      <trkpt lat="43.94364" lon="0.2529">
        <ele>157</ele>
        <time>2022-08-17T14:09:50Z</time>
      </trkpt>
      <trkpt lat="43.94372" lon="0.25274">
        <ele>158</ele>
        <time>2022-08-17T14:10:02Z</time>
      </trkpt>
      <trkpt lat="43.94375" lon="0.25268">
        <ele>159</ele>
        <time>2022-08-17T14:10:06Z</time>
      </trkpt>
      <trkpt lat="43.94378" lon="0.25263">
        <ele>159</ele>
        <time>2022-08-17T14:10:10Z</time>
      </trkpt>
      <trkpt lat="43.94381" lon="0.25256">
        <ele>159</ele>
        <time>2022-08-17T14:10:14Z</time>
      </trkpt>
      <trkpt lat="43.94394" lon="0.25229">
        <ele>159</ele>
        <time>2022-08-17T14:10:32Z</time>
      </trkpt>
      <trkpt lat="43.94396" lon="0.25223">
        <ele>160</ele>
        <time>2022-08-17T14:10:36Z</time>
      </trkpt>
      <trkpt lat="43.94399" lon="0.25217">
        <ele>160</ele>
        <time>2022-08-17T14:10:39Z</time>
      </trkpt>
      <trkpt lat="43.94404" lon="0.25205">
        <ele>159</ele>
        <time>2022-08-17T14:10:47Z</time>
      </trkpt>
      <trkpt lat="43.94406" lon="0.25199">
        <ele>159</ele>
        <time>2022-08-17T14:10:51Z</time>
      </trkpt>
      <trkpt lat="43.94414" lon="0.2518">
        <ele>157</ele>
        <time>2022-08-17T14:11:03Z</time>
      </trkpt>
      <trkpt lat="43.94417" lon="0.25173">
        <ele>157</ele>
        <time>2022-08-17T14:11:07Z</time>
      </trkpt>
      <trkpt lat="43.94422" lon="0.25162">
        <ele>158</ele>
        <time>2022-08-17T14:11:15Z</time>
      </trkpt>
      <trkpt lat="43.9443" lon="0.25151">
        <ele>158</ele>
        <time>2022-08-17T14:11:23Z</time>
      </trkpt>
      <trkpt lat="43.94433" lon="0.25146">
        <ele>158</ele>
        <time>2022-08-17T14:11:27Z</time>
      </trkpt>
      <trkpt lat="43.94437" lon="0.25141">
        <ele>158</ele>
        <time>2022-08-17T14:11:31Z</time>
      </trkpt>
      <trkpt lat="43.94452" lon="0.25123">
        <ele>156</ele>
        <time>2022-08-17T14:11:47Z</time>
      </trkpt>
      <trkpt lat="43.9446" lon="0.25116">
        <ele>156</ele>
        <time>2022-08-17T14:11:54Z</time>
      </trkpt>
      <trkpt lat="43.94465" lon="0.25111">
        <ele>156</ele>
        <time>2022-08-17T14:11:59Z</time>
      </trkpt>
      <trkpt lat="43.94502" lon="0.2508">
        <ele>157</ele>
        <time>2022-08-17T14:12:31Z</time>
      </trkpt>
      <trkpt lat="43.94506" lon="0.25077">
        <ele>157</ele>
        <time>2022-08-17T14:12:35Z</time>
      </trkpt>
      <trkpt lat="43.94511" lon="0.25073">
        <ele>157</ele>
        <time>2022-08-17T14:12:39Z</time>
      </trkpt>
      <trkpt lat="43.94516" lon="0.25068">
        <ele>157</ele>
        <time>2022-08-17T14:12:43Z</time>
      </trkpt>
      <trkpt lat="43.94525" lon="0.25063">
        <ele>156</ele>
        <time>2022-08-17T14:12:51Z</time>
      </trkpt>
      <trkpt lat="43.94539" lon="0.25052">
        <ele>157</ele>
        <time>2022-08-17T14:13:03Z</time>
      </trkpt>
      <trkpt lat="43.94547" lon="0.25044">
        <ele>157</ele>
        <time>2022-08-17T14:13:11Z</time>
      </trkpt>
      <trkpt lat="43.94566" lon="0.25029">
        <ele>157</ele>
        <time>2022-08-17T14:13:27Z</time>
      </trkpt>
      <trkpt lat="43.94598" lon="0.24997">
        <ele>158</ele>
        <time>2022-08-17T14:13:58Z</time>
      </trkpt>
      <trkpt lat="43.94626" lon="0.24969">
        <ele>158</ele>
        <time>2022-08-17T14:14:26Z</time>
      </trkpt>
      <trkpt lat="43.94629" lon="0.24963">
        <ele>158</ele>
        <time>2022-08-17T14:14:30Z</time>
      </trkpt>
      <trkpt lat="43.94642" lon="0.24952">
        <ele>157</ele>
        <time>2022-08-17T14:14:42Z</time>
      </trkpt>
      <trkpt lat="43.94659" lon="0.24932">
        <ele>157</ele>
        <time>2022-08-17T14:14:58Z</time>
      </trkpt>
      <trkpt lat="43.94663" lon="0.24928">
        <ele>157</ele>
        <time>2022-08-17T14:15:03Z</time>
      </trkpt>
      <trkpt lat="43.94679" lon="0.2491">
        <ele>157</ele>
        <time>2022-08-17T14:15:19Z</time>
      </trkpt>
      <trkpt lat="43.94682" lon="0.24905">
        <ele>158</ele>
        <time>2022-08-17T14:15:23Z</time>
      </trkpt>
      <trkpt lat="43.9469" lon="0.24895">
        <ele>157</ele>
        <time>2022-08-17T14:15:32Z</time>
      </trkpt>
      <trkpt lat="43.94704" lon="0.24877">
        <ele>157</ele>
        <time>2022-08-17T14:15:46Z</time>
      </trkpt>
      <trkpt lat="43.94711" lon="0.24865">
        <ele>157</ele>
        <time>2022-08-17T14:15:54Z</time>
      </trkpt>
      <trkpt lat="43.94729" lon="0.24839">
        <ele>158</ele>
        <time>2022-08-17T14:16:17Z</time>
      </trkpt>
      <trkpt lat="43.94736" lon="0.24825">
        <ele>158</ele>
        <time>2022-08-17T14:16:27Z</time>
      </trkpt>
      <trkpt lat="43.9474" lon="0.24819">
        <ele>157</ele>
        <time>2022-08-17T14:16:32Z</time>
      </trkpt>
      <trkpt lat="43.94744" lon="0.24814">
        <ele>157</ele>
        <time>2022-08-17T14:16:36Z</time>
      </trkpt>
      <trkpt lat="43.94747" lon="0.24809">
        <ele>157</ele>
        <time>2022-08-17T14:16:40Z</time>
      </trkpt>
      <trkpt lat="43.94776" lon="0.24779">
        <ele>157</ele>
        <time>2022-08-17T14:17:05Z</time>
      </trkpt>
      <trkpt lat="43.94779" lon="0.24776">
        <ele>157</ele>
        <time>2022-08-17T14:17:09Z</time>
      </trkpt>
      <trkpt lat="43.94784" lon="0.24772">
        <ele>157</ele>
        <time>2022-08-17T14:17:13Z</time>
      </trkpt>
      <trkpt lat="43.94791" lon="0.24765">
        <ele>156</ele>
        <time>2022-08-17T14:17:21Z</time>
      </trkpt>
      <trkpt lat="43.94798" lon="0.24757">
        <ele>156</ele>
        <time>2022-08-17T14:17:29Z</time>
      </trkpt>
      <trkpt lat="43.94821" lon="0.24731">
        <ele>155</ele>
        <time>2022-08-17T14:17:54Z</time>
      </trkpt>
      <trkpt lat="43.94824" lon="0.24727">
        <ele>155</ele>
        <time>2022-08-17T14:18:08Z</time>
      </trkpt>
      <trkpt lat="43.94829" lon="0.24722">
        <ele>155</ele>
        <time>2022-08-17T14:18:12Z</time>
      </trkpt>
      <trkpt lat="43.94832" lon="0.24717">
        <ele>155</ele>
        <time>2022-08-17T14:18:16Z</time>
      </trkpt>
      <trkpt lat="43.94843" lon="0.24703">
        <ele>155</ele>
        <time>2022-08-17T14:18:28Z</time>
      </trkpt>
      <trkpt lat="43.94847" lon="0.24699">
        <ele>155</ele>
        <time>2022-08-17T14:18:32Z</time>
      </trkpt>
      <trkpt lat="43.94851" lon="0.24694">
        <ele>155</ele>
        <time>2022-08-17T14:18:36Z</time>
      </trkpt>
      <trkpt lat="43.94853" lon="0.24689">
        <ele>154</ele>
        <time>2022-08-17T14:18:40Z</time>
      </trkpt>
      <trkpt lat="43.9486" lon="0.24678">
        <ele>155</ele>
        <time>2022-08-17T14:18:48Z</time>
      </trkpt>
      <trkpt lat="43.94863" lon="0.24673">
        <ele>155</ele>
        <time>2022-08-17T14:18:52Z</time>
      </trkpt>
      <trkpt lat="43.9487" lon="0.24662">
        <ele>155</ele>
        <time>2022-08-17T14:19:01Z</time>
      </trkpt>
      <trkpt lat="43.94873" lon="0.24657">
        <ele>156</ele>
        <time>2022-08-17T14:19:05Z</time>
      </trkpt>
      <trkpt lat="43.94877" lon="0.24652">
        <ele>156</ele>
        <time>2022-08-17T14:19:09Z</time>
      </trkpt>
      <trkpt lat="43.94883" lon="0.2464">
        <ele>156</ele>
        <time>2022-08-17T14:19:17Z</time>
      </trkpt>
      <trkpt lat="43.94886" lon="0.24633">
        <ele>156</ele>
        <time>2022-08-17T14:19:21Z</time>
      </trkpt>
      <trkpt lat="43.94888" lon="0.24627">
        <ele>156</ele>
        <time>2022-08-17T14:19:25Z</time>
      </trkpt>
      <trkpt lat="43.94891" lon="0.24622">
        <ele>156</ele>
        <time>2022-08-17T14:19:29Z</time>
      </trkpt>
      <trkpt lat="43.94899" lon="0.24612">
        <ele>156</ele>
        <time>2022-08-17T14:19:37Z</time>
      </trkpt>
      <trkpt lat="43.94908" lon="0.24594">
        <ele>156</ele>
        <time>2022-08-17T14:19:50Z</time>
      </trkpt>
      <trkpt lat="43.94912" lon="0.24589">
        <ele>155</ele>
        <time>2022-08-17T14:19:54Z</time>
      </trkpt>
      <trkpt lat="43.94915" lon="0.24583">
        <ele>155</ele>
        <time>2022-08-17T14:19:57Z</time>
      </trkpt>
      <trkpt lat="43.94927" lon="0.24561">
        <ele>154</ele>
        <time>2022-08-17T14:20:14Z</time>
      </trkpt>
      <trkpt lat="43.94938" lon="0.24545">
        <ele>154</ele>
        <time>2022-08-17T14:20:26Z</time>
      </trkpt>
      <trkpt lat="43.94964" lon="0.24495">
        <ele>153</ele>
        <time>2022-08-17T14:21:00Z</time>
      </trkpt>
      <trkpt lat="43.94968" lon="0.24482">
        <ele>153</ele>
        <time>2022-08-17T14:21:08Z</time>
      </trkpt>
      <trkpt lat="43.94972" lon="0.24469">
        <ele>152</ele>
        <time>2022-08-17T14:21:16Z</time>
      </trkpt>
      <trkpt lat="43.94974" lon="0.24464">
        <ele>151</ele>
        <time>2022-08-17T14:21:20Z</time>
      </trkpt>
      <trkpt lat="43.94978" lon="0.24458">
        <ele>151</ele>
        <time>2022-08-17T14:21:24Z</time>
      </trkpt>
      <trkpt lat="43.94979" lon="0.24451">
        <ele>151</ele>
        <time>2022-08-17T14:21:28Z</time>
      </trkpt>
      <trkpt lat="43.9498" lon="0.24445">
        <ele>151</ele>
        <time>2022-08-17T14:21:31Z</time>
      </trkpt>
      <trkpt lat="43.94982" lon="0.24438">
        <ele>151</ele>
        <time>2022-08-17T14:21:35Z</time>
      </trkpt>
      <trkpt lat="43.94983" lon="0.24431">
        <ele>150</ele>
        <time>2022-08-17T14:21:39Z</time>
      </trkpt>
      <trkpt lat="43.94986" lon="0.24417">
        <ele>150</ele>
        <time>2022-08-17T14:21:46Z</time>
      </trkpt>
      <trkpt lat="43.9499" lon="0.24402">
        <ele>150</ele>
        <time>2022-08-17T14:21:56Z</time>
      </trkpt>
      <trkpt lat="43.94992" lon="0.24391">
        <ele>148</ele>
        <time>2022-08-17T14:23:03Z</time>
      </trkpt>
      <trkpt lat="43.94993" lon="0.24384">
        <ele>148</ele>
        <time>2022-08-17T14:23:07Z</time>
      </trkpt>
      <trkpt lat="43.94999" lon="0.24356">
        <ele>147</ele>
        <time>2022-08-17T14:23:23Z</time>
      </trkpt>
      <trkpt lat="43.95006" lon="0.24323">
        <ele>146</ele>
        <time>2022-08-17T14:23:41Z</time>
      </trkpt>
      <trkpt lat="43.95008" lon="0.24317">
        <ele>147</ele>
        <time>2022-08-17T14:23:45Z</time>
      </trkpt>
      <trkpt lat="43.95021" lon="0.24265">
        <ele>145</ele>
        <time>2022-08-17T14:24:16Z</time>
      </trkpt>
      <trkpt lat="43.95022" lon="0.24259">
        <ele>145</ele>
        <time>2022-08-17T14:24:20Z</time>
      </trkpt>
      <trkpt lat="43.95024" lon="0.24252">
        <ele>146</ele>
        <time>2022-08-17T14:24:24Z</time>
      </trkpt>
      <trkpt lat="43.95026" lon="0.24247">
        <ele>146</ele>
        <time>2022-08-17T14:24:28Z</time>
      </trkpt>
      <trkpt lat="43.95028" lon="0.24241">
        <ele>146</ele>
        <time>2022-08-17T14:24:32Z</time>
      </trkpt>
      <trkpt lat="43.95041" lon="0.24187">
        <ele>145</ele>
        <time>2022-08-17T14:25:05Z</time>
      </trkpt>
      <trkpt lat="43.95043" lon="0.24179">
        <ele>145</ele>
        <time>2022-08-17T14:25:10Z</time>
      </trkpt>
      <trkpt lat="43.95035" lon="0.24123">
        <ele>144</ele>
        <time>2022-08-17T14:25:42Z</time>
      </trkpt>
      <trkpt lat="43.9503" lon="0.24087">
        <ele>142</ele>
        <time>2022-08-17T14:26:01Z</time>
      </trkpt>
      <trkpt lat="43.95028" lon="0.24077">
        <ele>141</ele>
        <time>2022-08-17T14:26:08Z</time>
      </trkpt>
      <trkpt lat="43.95019" lon="0.24045">
        <ele>140</ele>
        <time>2022-08-17T14:26:25Z</time>
      </trkpt>
      <trkpt lat="43.95019" lon="0.24038">
        <ele>139</ele>
        <time>2022-08-17T14:26:29Z</time>
      </trkpt>
      <trkpt lat="43.95006" lon="0.24002">
        <ele>136</ele>
        <time>2022-08-17T14:26:51Z</time>
      </trkpt>
      <trkpt lat="43.95003" lon="0.23997">
        <ele>136</ele>
        <time>2022-08-17T14:26:55Z</time>
      </trkpt>
      <trkpt lat="43.94997" lon="0.23972">
        <ele>134</ele>
        <time>2022-08-17T14:27:08Z</time>
      </trkpt>
      <trkpt lat="43.94996" lon="0.23931">
        <ele>131</ele>
        <time>2022-08-17T14:27:27Z</time>
      </trkpt>
      <trkpt lat="43.94997" lon="0.23924">
        <ele>131</ele>
        <time>2022-08-17T14:27:30Z</time>
      </trkpt>
      <trkpt lat="43.94995" lon="0.23886">
        <ele>129</ele>
        <time>2022-08-17T14:27:50Z</time>
      </trkpt>
      <trkpt lat="43.94997" lon="0.23879">
        <ele>129</ele>
        <time>2022-08-17T14:27:54Z</time>
      </trkpt>
      <trkpt lat="43.94995" lon="0.23872">
        <ele>128</ele>
        <time>2022-08-17T14:27:58Z</time>
      </trkpt>
      <trkpt lat="43.94999" lon="0.23826">
        <ele>125</ele>
        <time>2022-08-17T14:28:32Z</time>
      </trkpt>
      <trkpt lat="43.95" lon="0.23802">
        <ele>123</ele>
        <time>2022-08-17T14:28:45Z</time>
      </trkpt>
      <trkpt lat="43.94998" lon="0.23788">
        <ele>122</ele>
        <time>2022-08-17T14:28:52Z</time>
      </trkpt>
      <trkpt lat="43.94999" lon="0.23782">
        <ele>121</ele>
        <time>2022-08-17T14:28:56Z</time>
      </trkpt>
      <trkpt lat="43.94997" lon="0.23756">
        <ele>118</ele>
        <time>2022-08-17T14:29:28Z</time>
      </trkpt>
      <trkpt lat="43.94991" lon="0.23704">
        <ele>115</ele>
        <time>2022-08-17T14:29:53Z</time>
      </trkpt>
      <trkpt lat="43.94989" lon="0.23698">
        <ele>115</ele>
        <time>2022-08-17T14:29:56Z</time>
      </trkpt>
      <trkpt lat="43.94991" lon="0.2369">
        <ele>115</ele>
        <time>2022-08-17T14:30:00Z</time>
      </trkpt>
      <trkpt lat="43.94991" lon="0.23682">
        <ele>114</ele>
        <time>2022-08-17T14:30:04Z</time>
      </trkpt>
      <trkpt lat="43.94989" lon="0.23667">
        <ele>114</ele>
        <time>2022-08-17T14:30:16Z</time>
      </trkpt>
      <trkpt lat="43.9499" lon="0.2366">
        <ele>113</ele>
        <time>2022-08-17T14:30:22Z</time>
      </trkpt>
      <trkpt lat="43.94986" lon="0.23628">
        <ele>109</ele>
        <time>2022-08-17T14:30:47Z</time>
      </trkpt>
      <trkpt lat="43.9499" lon="0.23593">
        <ele>106</ele>
        <time>2022-08-17T14:31:19Z</time>
      </trkpt>
      <trkpt lat="43.94989" lon="0.23586">
        <ele>105</ele>
        <time>2022-08-17T14:31:23Z</time>
      </trkpt>
      <trkpt lat="43.94992" lon="0.23574">
        <ele>105</ele>
        <time>2022-08-17T14:31:30Z</time>
      </trkpt>
      <trkpt lat="43.94994" lon="0.23567">
        <ele>105</ele>
        <time>2022-08-17T14:31:33Z</time>
      </trkpt>
      <trkpt lat="43.94994" lon="0.23561">
        <ele>105</ele>
        <time>2022-08-17T14:31:36Z</time>
      </trkpt>
      <trkpt lat="43.94994" lon="0.23547">
        <ele>104</ele>
        <time>2022-08-17T14:31:44Z</time>
      </trkpt>
      <trkpt lat="43.94995" lon="0.23541">
        <ele>104</ele>
        <time>2022-08-17T14:31:48Z</time>
      </trkpt>
      <trkpt lat="43.94996" lon="0.23534">
        <ele>103</ele>
        <time>2022-08-17T14:31:52Z</time>
      </trkpt>
      <trkpt lat="43.95001" lon="0.23498">
        <ele>102</ele>
        <time>2022-08-17T14:32:32Z</time>
      </trkpt>
      <trkpt lat="43.95003" lon="0.23485">
        <ele>102</ele>
        <time>2022-08-17T14:32:41Z</time>
      </trkpt>
      <trkpt lat="43.95007" lon="0.23471">
        <ele>101</ele>
        <time>2022-08-17T14:32:50Z</time>
      </trkpt>
      <trkpt lat="43.95007" lon="0.23463">
        <ele>101</ele>
        <time>2022-08-17T14:32:54Z</time>
      </trkpt>
      <trkpt lat="43.9501" lon="0.2345">
        <ele>101</ele>
        <time>2022-08-17T14:33:03Z</time>
      </trkpt>
      <trkpt lat="43.95011" lon="0.23443">
        <ele>101</ele>
        <time>2022-08-17T14:33:08Z</time>
      </trkpt>
      <trkpt lat="43.95011" lon="0.23426">
        <ele>102</ele>
        <time>2022-08-17T14:33:20Z</time>
      </trkpt>
      <trkpt lat="43.9501" lon="0.23419">
        <ele>102</ele>
        <time>2022-08-17T14:33:24Z</time>
      </trkpt>
      <trkpt lat="43.9501" lon="0.23412">
        <ele>102</ele>
        <time>2022-08-17T14:33:28Z</time>
      </trkpt>
      <trkpt lat="43.95013" lon="0.23381">
        <ele>103</ele>
        <time>2022-08-17T14:34:00Z</time>
      </trkpt>
      <trkpt lat="43.95014" lon="0.23356">
        <ele>104</ele>
        <time>2022-08-17T14:34:15Z</time>
      </trkpt>
      <trkpt lat="43.95012" lon="0.23342">
        <ele>105</ele>
        <time>2022-08-17T14:34:23Z</time>
      </trkpt>
      <trkpt lat="43.95012" lon="0.23334">
        <ele>105</ele>
        <time>2022-08-17T14:34:28Z</time>
      </trkpt>
      <trkpt lat="43.9501" lon="0.23301">
        <ele>107</ele>
        <time>2022-08-17T14:34:49Z</time>
      </trkpt>
      <trkpt lat="43.95014" lon="0.23265">
        <ele>111</ele>
        <time>2022-08-17T14:35:27Z</time>
      </trkpt>
      <trkpt lat="43.95015" lon="0.2323">
        <ele>116</ele>
        <time>2022-08-17T14:36:16Z</time>
      </trkpt>
      <trkpt lat="43.95016" lon="0.23214">
        <ele>116</ele>
        <time>2022-08-17T14:36:32Z</time>
      </trkpt>
      <trkpt lat="43.95019" lon="0.232">
        <ele>117</ele>
        <time>2022-08-17T14:36:40Z</time>
      </trkpt>
      <trkpt lat="43.9502" lon="0.23168">
        <ele>119</ele>
        <time>2022-08-17T14:37:12Z</time>
      </trkpt>
      <trkpt lat="43.95019" lon="0.23161">
        <ele>120</ele>
        <time>2022-08-17T14:37:16Z</time>
      </trkpt>
      <trkpt lat="43.95023" lon="0.23129">
        <ele>122</ele>
        <time>2022-08-17T14:37:40Z</time>
      </trkpt>
      <trkpt lat="43.95024" lon="0.23097">
        <ele>125</ele>
        <time>2022-08-17T14:38:13Z</time>
      </trkpt>
      <trkpt lat="43.95027" lon="0.23092">
        <ele>127</ele>
        <time>2022-08-17T14:38:18Z</time>
      </trkpt>
      <trkpt lat="43.95028" lon="0.23086">
        <ele>127</ele>
        <time>2022-08-17T14:38:22Z</time>
      </trkpt>
      <trkpt lat="43.95027" lon="0.23078">
        <ele>127</ele>
        <time>2022-08-17T14:38:26Z</time>
      </trkpt>
      <trkpt lat="43.95031" lon="0.2304">
        <ele>129</ele>
        <time>2022-08-17T14:38:59Z</time>
      </trkpt>
      <trkpt lat="43.95031" lon="0.2299">
        <ele>133</ele>
        <time>2022-08-17T14:39:33Z</time>
      </trkpt>
      <trkpt lat="43.95031" lon="0.22984">
        <ele>133</ele>
        <time>2022-08-17T14:39:37Z</time>
      </trkpt>
      <trkpt lat="43.95031" lon="0.22976">
        <ele>134</ele>
        <time>2022-08-17T14:39:42Z</time>
      </trkpt>
      <trkpt lat="43.95032" lon="0.22968">
        <ele>134</ele>
        <time>2022-08-17T14:39:48Z</time>
      </trkpt>
      <trkpt lat="43.95031" lon="0.22956">
        <ele>135</ele>
        <time>2022-08-17T14:39:56Z</time>
      </trkpt>
      <trkpt lat="43.95032" lon="0.22948">
        <ele>134</ele>
        <time>2022-08-17T14:40:00Z</time>
      </trkpt>
      <trkpt lat="43.95032" lon="0.22942">
        <ele>134</ele>
        <time>2022-08-17T14:40:04Z</time>
      </trkpt>
      <trkpt lat="43.95032" lon="0.22928">
        <ele>135</ele>
        <time>2022-08-17T14:40:12Z</time>
      </trkpt>
      <trkpt lat="43.95031" lon="0.22921">
        <ele>135</ele>
        <time>2022-08-17T14:40:16Z</time>
      </trkpt>
      <trkpt lat="43.95031" lon="0.22913">
        <ele>136</ele>
        <time>2022-08-17T14:40:21Z</time>
      </trkpt>
      <trkpt lat="43.95032" lon="0.22906">
        <ele>136</ele>
        <time>2022-08-17T14:40:25Z</time>
      </trkpt>
      <trkpt lat="43.95032" lon="0.229">
        <ele>136</ele>
        <time>2022-08-17T14:40:29Z</time>
      </trkpt>
      <trkpt lat="43.95032" lon="0.22892">
        <ele>136</ele>
        <time>2022-08-17T14:40:34Z</time>
      </trkpt>
      <trkpt lat="43.95031" lon="0.22878">
        <ele>136</ele>
        <time>2022-08-17T14:40:42Z</time>
      </trkpt>
      <trkpt lat="43.95032" lon="0.22858">
        <ele>136</ele>
        <time>2022-08-17T14:40:54Z</time>
      </trkpt>
      <trkpt lat="43.95034" lon="0.2283">
        <ele>136</ele>
        <time>2022-08-17T14:41:10Z</time>
      </trkpt>
      <trkpt lat="43.95037" lon="0.22816">
        <ele>135</ele>
        <time>2022-08-17T14:41:18Z</time>
      </trkpt>
      <trkpt lat="43.95039" lon="0.22802">
        <ele>135</ele>
        <time>2022-08-17T14:41:26Z</time>
      </trkpt>
      <trkpt lat="43.95046" lon="0.22768">
        <ele>135</ele>
        <time>2022-08-17T14:41:46Z</time>
      </trkpt>
      <trkpt lat="43.95048" lon="0.22754">
        <ele>137</ele>
        <time>2022-08-17T14:41:54Z</time>
      </trkpt>
      <trkpt lat="43.95061" lon="0.22702">
        <ele>136</ele>
        <time>2022-08-17T14:42:26Z</time>
      </trkpt>
      <trkpt lat="43.95063" lon="0.22689">
        <ele>136</ele>
        <time>2022-08-17T14:42:34Z</time>
      </trkpt>
      <trkpt lat="43.95066" lon="0.22675">
        <ele>136</ele>
        <time>2022-08-17T14:42:42Z</time>
      </trkpt>
      <trkpt lat="43.9507" lon="0.22662">
        <ele>136</ele>
        <time>2022-08-17T14:42:50Z</time>
      </trkpt>
      <trkpt lat="43.9508" lon="0.2261">
        <ele>135</ele>
        <time>2022-08-17T14:43:26Z</time>
      </trkpt>
      <trkpt lat="43.95081" lon="0.22602">
        <ele>136</ele>
        <time>2022-08-17T14:43:30Z</time>
      </trkpt>
      <trkpt lat="43.95093" lon="0.22561">
        <ele>137</ele>
        <time>2022-08-17T14:43:58Z</time>
      </trkpt>
      <trkpt lat="43.95097" lon="0.22538">
        <ele>138</ele>
        <time>2022-08-17T14:44:14Z</time>
      </trkpt>
      <trkpt lat="43.95101" lon="0.2253">
        <ele>140</ele>
        <time>2022-08-17T14:44:58Z</time>
      </trkpt>
      <trkpt lat="43.95102" lon="0.22523">
        <ele>140</ele>
        <time>2022-08-17T14:45:04Z</time>
      </trkpt>
      <trkpt lat="43.95102" lon="0.22515">
        <ele>141</ele>
        <time>2022-08-17T14:45:09Z</time>
      </trkpt>
      <trkpt lat="43.95105" lon="0.225">
        <ele>142</ele>
        <time>2022-08-17T14:45:19Z</time>
      </trkpt>
      <trkpt lat="43.95108" lon="0.22494">
        <ele>143</ele>
        <time>2022-08-17T14:45:24Z</time>
      </trkpt>
      <trkpt lat="43.95108" lon="0.22472">
        <ele>144</ele>
        <time>2022-08-17T14:45:41Z</time>
      </trkpt>
      <trkpt lat="43.95106" lon="0.22463">
        <ele>145</ele>
        <time>2022-08-17T14:45:49Z</time>
      </trkpt>
      <trkpt lat="43.9508" lon="0.22465">
        <ele>147</ele>
        <time>2022-08-17T14:46:15Z</time>
      </trkpt>
      <trkpt lat="43.95074" lon="0.22463">
        <ele>148</ele>
        <time>2022-08-17T14:46:21Z</time>
      </trkpt>
      <trkpt lat="43.95042" lon="0.22445">
        <ele>151</ele>
        <time>2022-08-17T14:46:55Z</time>
      </trkpt>
      <trkpt lat="43.95034" lon="0.22438">
        <ele>151</ele>
        <time>2022-08-17T14:47:06Z</time>
      </trkpt>
      <trkpt lat="43.95029" lon="0.22432">
        <ele>152</ele>
        <time>2022-08-17T14:47:13Z</time>
      </trkpt>
      <trkpt lat="43.95021" lon="0.22421">
        <ele>153</ele>
        <time>2022-08-17T14:47:26Z</time>
      </trkpt>
      <trkpt lat="43.95014" lon="0.22408">
        <ele>153</ele>
        <time>2022-08-17T14:47:34Z</time>
      </trkpt>
      <trkpt lat="43.95" lon="0.22387">
        <ele>155</ele>
        <time>2022-08-17T14:47:55Z</time>
      </trkpt>
      <trkpt lat="43.9499" lon="0.22362">
        <ele>156</ele>
        <time>2022-08-17T14:48:12Z</time>
      </trkpt>
      <trkpt lat="43.94986" lon="0.22353">
        <ele>157</ele>
        <time>2022-08-17T14:48:20Z</time>
      </trkpt>
      <trkpt lat="43.94984" lon="0.22347">
        <ele>157</ele>
        <time>2022-08-17T14:48:24Z</time>
      </trkpt>
      <trkpt lat="43.94978" lon="0.22335">
        <ele>157</ele>
        <time>2022-08-17T14:48:33Z</time>
      </trkpt>
      <trkpt lat="43.94977" lon="0.22328">
        <ele>157</ele>
        <time>2022-08-17T14:48:36Z</time>
      </trkpt>
      <trkpt lat="43.94958" lon="0.22278">
        <ele>158</ele>
        <time>2022-08-17T14:49:09Z</time>
      </trkpt>
      <trkpt lat="43.94955" lon="0.22262">
        <ele>158</ele>
        <time>2022-08-17T14:49:25Z</time>
      </trkpt>
      <trkpt lat="43.94955" lon="0.22253">
        <ele>158</ele>
        <time>2022-08-17T14:49:33Z</time>
      </trkpt>
      <trkpt lat="43.94951" lon="0.2224">
        <ele>158</ele>
        <time>2022-08-17T14:49:41Z</time>
      </trkpt>
      <trkpt lat="43.94943" lon="0.22189">
        <ele>159</ele>
        <time>2022-08-17T14:50:12Z</time>
      </trkpt>
      <trkpt lat="43.94943" lon="0.22181">
        <ele>160</ele>
        <time>2022-08-17T14:50:17Z</time>
      </trkpt>
      <trkpt lat="43.94941" lon="0.22138">
        <ele>161</ele>
        <time>2022-08-17T14:50:43Z</time>
      </trkpt>
      <trkpt lat="43.9493" lon="0.22089">
        <ele>161</ele>
        <time>2022-08-17T14:51:13Z</time>
      </trkpt>
      <trkpt lat="43.9493" lon="0.22082">
        <ele>162</ele>
        <time>2022-08-17T14:51:18Z</time>
      </trkpt>
      <trkpt lat="43.94923" lon="0.22056">
        <ele>162</ele>
        <time>2022-08-17T14:51:36Z</time>
      </trkpt>
      <trkpt lat="43.94922" lon="0.22046">
        <ele>163</ele>
        <time>2022-08-17T14:51:44Z</time>
      </trkpt>
      <trkpt lat="43.9492" lon="0.22039">
        <ele>163</ele>
        <time>2022-08-17T14:51:49Z</time>
      </trkpt>
      <trkpt lat="43.9492" lon="0.22033">
        <ele>163</ele>
        <time>2022-08-17T14:51:53Z</time>
      </trkpt>
      <trkpt lat="43.94908" lon="0.21979">
        <ele>163</ele>
        <time>2022-08-17T14:52:26Z</time>
      </trkpt>
      <trkpt lat="43.94904" lon="0.21959">
        <ele>164</ele>
        <time>2022-08-17T14:52:37Z</time>
      </trkpt>
      <trkpt lat="43.94901" lon="0.21947">
        <ele>164</ele>
        <time>2022-08-17T14:52:49Z</time>
      </trkpt>
      <trkpt lat="43.94898" lon="0.2194">
        <ele>165</ele>
        <time>2022-08-17T14:52:55Z</time>
      </trkpt>
      <trkpt lat="43.94888" lon="0.21885">
        <ele>167</ele>
        <time>2022-08-17T14:53:29Z</time>
      </trkpt>
      <trkpt lat="43.94882" lon="0.21848">
        <ele>168</ele>
        <time>2022-08-17T14:53:52Z</time>
      </trkpt>
      <trkpt lat="43.94881" lon="0.21837">
        <ele>167</ele>
        <time>2022-08-17T14:54:01Z</time>
      </trkpt>
      <trkpt lat="43.94879" lon="0.2183">
        <ele>167</ele>
        <time>2022-08-17T14:54:06Z</time>
      </trkpt>
      <trkpt lat="43.94878" lon="0.21816">
        <ele>167</ele>
        <time>2022-08-17T14:54:14Z</time>
      </trkpt>
      <trkpt lat="43.94879" lon="0.21809">
        <ele>166</ele>
        <time>2022-08-17T14:54:18Z</time>
      </trkpt>
      <trkpt lat="43.94878" lon="0.21802">
        <ele>166</ele>
        <time>2022-08-17T14:54:22Z</time>
      </trkpt>
      <trkpt lat="43.94877" lon="0.21752">
        <ele>165</ele>
        <time>2022-08-17T14:54:46Z</time>
      </trkpt>
      <trkpt lat="43.94876" lon="0.21746">
        <ele>165</ele>
        <time>2022-08-17T14:54:49Z</time>
      </trkpt>
      <trkpt lat="43.94873" lon="0.21733">
        <ele>164</ele>
        <time>2022-08-17T14:54:55Z</time>
      </trkpt>
      <trkpt lat="43.94872" lon="0.21711">
        <ele>163</ele>
        <time>2022-08-17T14:55:12Z</time>
      </trkpt>
      <trkpt lat="43.94871" lon="0.21686">
        <ele>162</ele>
        <time>2022-08-17T14:55:25Z</time>
      </trkpt>
      <trkpt lat="43.9487" lon="0.2168">
        <ele>162</ele>
        <time>2022-08-17T14:55:29Z</time>
      </trkpt>
      <trkpt lat="43.9487" lon="0.21673">
        <ele>161</ele>
        <time>2022-08-17T14:55:33Z</time>
      </trkpt>
      <trkpt lat="43.94875" lon="0.21645">
        <ele>160</ele>
        <time>2022-08-17T14:55:50Z</time>
      </trkpt>
      <trkpt lat="43.94879" lon="0.21632">
        <ele>159</ele>
        <time>2022-08-17T14:55:58Z</time>
      </trkpt>
      <trkpt lat="43.94888" lon="0.21579">
        <ele>157</ele>
        <time>2022-08-17T14:56:28Z</time>
      </trkpt>
      <trkpt lat="43.94891" lon="0.21568">
        <ele>157</ele>
        <time>2022-08-17T14:56:36Z</time>
      </trkpt>
      <trkpt lat="43.94892" lon="0.2156">
        <ele>157</ele>
        <time>2022-08-17T14:56:40Z</time>
      </trkpt>
      <trkpt lat="43.94894" lon="0.21525">
        <ele>155</ele>
        <time>2022-08-17T14:57:00Z</time>
      </trkpt>
      <trkpt lat="43.94896" lon="0.21519">
        <ele>155</ele>
        <time>2022-08-17T14:57:04Z</time>
      </trkpt>
      <trkpt lat="43.94901" lon="0.21506">
        <ele>154</ele>
        <time>2022-08-17T14:57:12Z</time>
      </trkpt>
      <trkpt lat="43.94903" lon="0.21499">
        <ele>154</ele>
        <time>2022-08-17T14:57:16Z</time>
      </trkpt>
      <trkpt lat="43.94905" lon="0.21494">
        <ele>153</ele>
        <time>2022-08-17T14:57:19Z</time>
      </trkpt>
      <trkpt lat="43.9492" lon="0.21443">
        <ele>150</ele>
        <time>2022-08-17T14:57:52Z</time>
      </trkpt>
      <trkpt lat="43.94922" lon="0.21438">
        <ele>150</ele>
        <time>2022-08-17T14:57:57Z</time>
      </trkpt>
      <trkpt lat="43.94924" lon="0.21433">
        <ele>150</ele>
        <time>2022-08-17T14:58:02Z</time>
      </trkpt>
      <trkpt lat="43.94925" lon="0.21424">
        <ele>150</ele>
        <time>2022-08-17T14:58:21Z</time>
      </trkpt>
      <trkpt lat="43.94924" lon="0.21417">
        <ele>149</ele>
        <time>2022-08-17T14:58:24Z</time>
      </trkpt>
      <trkpt lat="43.94923" lon="0.21412">
        <ele>149</ele>
        <time>2022-08-17T14:58:28Z</time>
      </trkpt>
      <trkpt lat="43.94933" lon="0.21381">
        <ele>147</ele>
        <time>2022-08-17T14:58:43Z</time>
      </trkpt>
      <trkpt lat="43.94933" lon="0.21375">
        <ele>147</ele>
        <time>2022-08-17T14:58:46Z</time>
      </trkpt>
      <trkpt lat="43.94935" lon="0.21369">
        <ele>147</ele>
        <time>2022-08-17T14:58:49Z</time>
      </trkpt>
      <trkpt lat="43.9494" lon="0.21349">
        <ele>146</ele>
        <time>2022-08-17T14:58:59Z</time>
      </trkpt>
      <trkpt lat="43.94942" lon="0.21344">
        <ele>146</ele>
        <time>2022-08-17T14:59:02Z</time>
      </trkpt>
      <trkpt lat="43.94944" lon="0.21331">
        <ele>145</ele>
        <time>2022-08-17T14:59:09Z</time>
      </trkpt>
      <trkpt lat="43.94945" lon="0.21324">
        <ele>145</ele>
        <time>2022-08-17T14:59:13Z</time>
      </trkpt>
      <trkpt lat="43.94961" lon="0.21266">
        <ele>142</ele>
        <time>2022-08-17T14:59:44Z</time>
      </trkpt>
      <trkpt lat="43.94962" lon="0.21259">
        <ele>142</ele>
        <time>2022-08-17T14:59:48Z</time>
      </trkpt>
      <trkpt lat="43.94979" lon="0.21215">
        <ele>139</ele>
        <time>2022-08-17T15:00:24Z</time>
      </trkpt>
      <trkpt lat="43.9499" lon="0.21182">
        <ele>137</ele>
        <time>2022-08-17T15:00:49Z</time>
      </trkpt>
      <trkpt lat="43.9499" lon="0.21176">
        <ele>137</ele>
        <time>2022-08-17T15:00:53Z</time>
      </trkpt>
      <trkpt lat="43.94992" lon="0.21169">
        <ele>137</ele>
        <time>2022-08-17T15:00:57Z</time>
      </trkpt>
      <trkpt lat="43.94994" lon="0.21162">
        <ele>136</ele>
        <time>2022-08-17T15:01:02Z</time>
      </trkpt>
      <trkpt lat="43.95" lon="0.2115">
        <ele>136</ele>
        <time>2022-08-17T15:01:13Z</time>
      </trkpt>
      <trkpt lat="43.95001" lon="0.21144">
        <ele>136</ele>
        <time>2022-08-17T15:01:16Z</time>
      </trkpt>
      <trkpt lat="43.95004" lon="0.21129">
        <ele>135</ele>
        <time>2022-08-17T15:01:24Z</time>
      </trkpt>
      <trkpt lat="43.95002" lon="0.21124">
        <ele>136</ele>
        <time>2022-08-17T15:02:15Z</time>
      </trkpt>
      <trkpt lat="43.95004" lon="0.21118">
        <ele>136</ele>
        <time>2022-08-17T15:02:19Z</time>
      </trkpt>
      <trkpt lat="43.95019" lon="0.2107">
        <ele>135</ele>
        <time>2022-08-17T15:02:52Z</time>
      </trkpt>
      <trkpt lat="43.95033" lon="0.21024">
        <ele>135</ele>
        <time>2022-08-17T15:03:20Z</time>
      </trkpt>
      <trkpt lat="43.95034" lon="0.21018">
        <ele>135</ele>
        <time>2022-08-17T15:03:25Z</time>
      </trkpt>
      <trkpt lat="43.9504" lon="0.20999">
        <ele>135</ele>
        <time>2022-08-17T15:03:37Z</time>
      </trkpt>
      <trkpt lat="43.95045" lon="0.20987">
        <ele>136</ele>
        <time>2022-08-17T15:03:45Z</time>
      </trkpt>
      <trkpt lat="43.95046" lon="0.2098">
        <ele>136</ele>
        <time>2022-08-17T15:03:49Z</time>
      </trkpt>
      <trkpt lat="43.95048" lon="0.20975">
        <ele>136</ele>
        <time>2022-08-17T15:03:53Z</time>
      </trkpt>
      <trkpt lat="43.95049" lon="0.20969">
        <ele>135</ele>
        <time>2022-08-17T15:03:57Z</time>
      </trkpt>
      <trkpt lat="43.95053" lon="0.20967">
        <ele>136</ele>
        <time>2022-08-17T15:04:12Z</time>
      </trkpt>
      <trkpt lat="43.95051" lon="0.2096">
        <ele>135</ele>
        <time>2022-08-17T15:04:18Z</time>
      </trkpt>
      <trkpt lat="43.95049" lon="0.20945">
        <ele>135</ele>
        <time>2022-08-17T15:04:26Z</time>
      </trkpt>
      <trkpt lat="43.95045" lon="0.20938">
        <ele>134</ele>
        <time>2022-08-17T15:04:33Z</time>
      </trkpt>
      <trkpt lat="43.95045" lon="0.20932">
        <ele>134</ele>
        <time>2022-08-17T15:04:37Z</time>
      </trkpt>
      <trkpt lat="43.95044" lon="0.20926">
        <ele>134</ele>
        <time>2022-08-17T15:04:40Z</time>
      </trkpt>
      <trkpt lat="43.9504" lon="0.20919">
        <ele>134</ele>
        <time>2022-08-17T15:04:45Z</time>
      </trkpt>
      <trkpt lat="43.95039" lon="0.20913">
        <ele>134</ele>
        <time>2022-08-17T15:04:48Z</time>
      </trkpt>
      <trkpt lat="43.95036" lon="0.20903">
        <ele>134</ele>
        <time>2022-08-17T15:05:09Z</time>
      </trkpt>
      <trkpt lat="43.95034" lon="0.20898">
        <ele>134</ele>
        <time>2022-08-17T15:05:13Z</time>
      </trkpt>
      <trkpt lat="43.95026" lon="0.20873">
        <ele>133</ele>
        <time>2022-08-17T15:05:29Z</time>
      </trkpt>
      <trkpt lat="43.95022" lon="0.2086">
        <ele>133</ele>
        <time>2022-08-17T15:05:37Z</time>
      </trkpt>
      <trkpt lat="43.95006" lon="0.20808">
        <ele>131</ele>
        <time>2022-08-17T15:06:09Z</time>
      </trkpt>
      <trkpt lat="43.94996" lon="0.20761">
        <ele>130</ele>
        <time>2022-08-17T15:06:38Z</time>
      </trkpt>
      <trkpt lat="43.94996" lon="0.20751">
        <ele>129</ele>
        <time>2022-08-17T15:06:52Z</time>
      </trkpt>
      <trkpt lat="43.94995" lon="0.20741">
        <ele>130</ele>
        <time>2022-08-17T15:07:17Z</time>
      </trkpt>
      <trkpt lat="43.94994" lon="0.20734">
        <ele>129</ele>
        <time>2022-08-17T15:07:22Z</time>
      </trkpt>
      <trkpt lat="43.94989" lon="0.20698">
        <ele>128</ele>
        <time>2022-08-17T15:07:45Z</time>
      </trkpt>
      <trkpt lat="43.9499" lon="0.2069">
        <ele>128</ele>
        <time>2022-08-17T15:07:50Z</time>
      </trkpt>
      <trkpt lat="43.94989" lon="0.20684">
        <ele>128</ele>
        <time>2022-08-17T15:07:54Z</time>
      </trkpt>
      <trkpt lat="43.94989" lon="0.20676">
        <ele>127</ele>
        <time>2022-08-17T15:07:59Z</time>
      </trkpt>
      <trkpt lat="43.94988" lon="0.2067">
        <ele>127</ele>
        <time>2022-08-17T15:08:03Z</time>
      </trkpt>
      <trkpt lat="43.94987" lon="0.20662">
        <ele>128</ele>
        <time>2022-08-17T15:08:07Z</time>
      </trkpt>
      <trkpt lat="43.94985" lon="0.20647">
        <ele>128</ele>
        <time>2022-08-17T15:08:15Z</time>
      </trkpt>
      <trkpt lat="43.94984" lon="0.2064">
        <ele>127</ele>
        <time>2022-08-17T15:08:19Z</time>
      </trkpt>
      <trkpt lat="43.94983" lon="0.20632">
        <ele>127</ele>
        <time>2022-08-17T15:08:24Z</time>
      </trkpt>
      <trkpt lat="43.94983" lon="0.20624">
        <ele>127</ele>
        <time>2022-08-17T15:08:28Z</time>
      </trkpt>
      <trkpt lat="43.94987" lon="0.20619">
        <ele>126</ele>
        <time>2022-08-17T15:08:31Z</time>
      </trkpt>
      <trkpt lat="43.94988" lon="0.20613">
        <ele>126</ele>
        <time>2022-08-17T15:08:35Z</time>
      </trkpt>
      <trkpt lat="43.94984" lon="0.20591">
        <ele>126</ele>
        <time>2022-08-17T15:08:47Z</time>
      </trkpt>
      <trkpt lat="43.94978" lon="0.20571">
        <ele>126</ele>
        <time>2022-08-17T15:08:59Z</time>
      </trkpt>
      <trkpt lat="43.94979" lon="0.2056">
        <ele>125</ele>
        <time>2022-08-17T15:09:06Z</time>
      </trkpt>
      <trkpt lat="43.94979" lon="0.20546">
        <ele>125</ele>
        <time>2022-08-17T15:09:15Z</time>
      </trkpt>
      <trkpt lat="43.94977" lon="0.20539">
        <ele>125</ele>
        <time>2022-08-17T15:09:19Z</time>
      </trkpt>
      <trkpt lat="43.94976" lon="0.20533">
        <ele>125</ele>
        <time>2022-08-17T15:09:23Z</time>
      </trkpt>
      <trkpt lat="43.94976" lon="0.20489">
        <ele>125</ele>
        <time>2022-08-17T15:09:55Z</time>
      </trkpt>
      <trkpt lat="43.94975" lon="0.20434">
        <ele>125</ele>
        <time>2022-08-17T15:10:27Z</time>
      </trkpt>
      <trkpt lat="43.94975" lon="0.20419">
        <ele>125</ele>
        <time>2022-08-17T15:10:35Z</time>
      </trkpt>
      <trkpt lat="43.9497" lon="0.2039">
        <ele>124</ele>
        <time>2022-08-17T15:10:53Z</time>
      </trkpt>
      <trkpt lat="43.94971" lon="0.20373">
        <ele>123</ele>
        <time>2022-08-17T15:11:02Z</time>
      </trkpt>
      <trkpt lat="43.94975" lon="0.20367">
        <ele>123</ele>
        <time>2022-08-17T15:11:05Z</time>
      </trkpt>
      <trkpt lat="43.94978" lon="0.20362">
        <ele>123</ele>
        <time>2022-08-17T15:11:09Z</time>
      </trkpt>
      <trkpt lat="43.94978" lon="0.20354">
        <ele>123</ele>
        <time>2022-08-17T15:11:14Z</time>
      </trkpt>
      <trkpt lat="43.94978" lon="0.20348">
        <ele>123</ele>
        <time>2022-08-17T15:11:18Z</time>
      </trkpt>
      <trkpt lat="43.94975" lon="0.20315">
        <ele>122</ele>
        <time>2022-08-17T15:11:36Z</time>
      </trkpt>
      <trkpt lat="43.94975" lon="0.20306">
        <ele>123</ele>
        <time>2022-08-17T15:11:41Z</time>
      </trkpt>
      <trkpt lat="43.94975" lon="0.20287">
        <ele>122</ele>
        <time>2022-08-17T15:11:51Z</time>
      </trkpt>
      <trkpt lat="43.94978" lon="0.20271">
        <ele>122</ele>
        <time>2022-08-17T15:11:59Z</time>
      </trkpt>
      <trkpt lat="43.94973" lon="0.20263">
        <ele>123</ele>
        <time>2022-08-17T15:12:06Z</time>
      </trkpt>
      <trkpt lat="43.94973" lon="0.20254">
        <ele>123</ele>
        <time>2022-08-17T15:12:10Z</time>
      </trkpt>
      <trkpt lat="43.94967" lon="0.20238">
        <ele>123</ele>
        <time>2022-08-17T15:12:20Z</time>
      </trkpt>
      <trkpt lat="43.94967" lon="0.20225">
        <ele>123</ele>
        <time>2022-08-17T15:12:27Z</time>
      </trkpt>
      <trkpt lat="43.94971" lon="0.20219">
        <ele>123</ele>
        <time>2022-08-17T15:12:30Z</time>
      </trkpt>
      <trkpt lat="43.94972" lon="0.20213">
        <ele>123</ele>
        <time>2022-08-17T15:12:34Z</time>
      </trkpt>
      <trkpt lat="43.94973" lon="0.2019">
        <ele>123</ele>
        <time>2022-08-17T15:12:46Z</time>
      </trkpt>
      <trkpt lat="43.94968" lon="0.2015">
        <ele>123</ele>
        <time>2022-08-17T15:13:11Z</time>
      </trkpt>
      <trkpt lat="43.9497" lon="0.20142">
        <ele>124</ele>
        <time>2022-08-17T15:13:15Z</time>
      </trkpt>
      <trkpt lat="43.94972" lon="0.20125">
        <ele>123</ele>
        <time>2022-08-17T15:13:24Z</time>
      </trkpt>
      <trkpt lat="43.94973" lon="0.20117">
        <ele>123</ele>
        <time>2022-08-17T15:13:28Z</time>
      </trkpt>
      <trkpt lat="43.94961" lon="0.20087">
        <ele>123</ele>
        <time>2022-08-17T15:13:52Z</time>
      </trkpt>
      <trkpt lat="43.94961" lon="0.20075">
        <ele>123</ele>
        <time>2022-08-17T15:14:01Z</time>
      </trkpt>
      <trkpt lat="43.94964" lon="0.20064">
        <ele>122</ele>
        <time>2022-08-17T15:14:16Z</time>
      </trkpt>
      <trkpt lat="43.94966" lon="0.20051">
        <ele>119</ele>
        <time>2022-08-17T15:18:32Z</time>
      </trkpt>
      <trkpt lat="43.94968" lon="0.20021">
        <ele>119</ele>
        <time>2022-08-17T15:18:57Z</time>
      </trkpt>
      <trkpt lat="43.94966" lon="0.20009">
        <ele>119</ele>
        <time>2022-08-17T15:19:07Z</time>
      </trkpt>
      <trkpt lat="43.9497" lon="0.19965">
        <ele>120</ele>
        <time>2022-08-17T15:19:37Z</time>
      </trkpt>
      <trkpt lat="43.94968" lon="0.19957">
        <ele>120</ele>
        <time>2022-08-17T15:19:42Z</time>
      </trkpt>
      <trkpt lat="43.9497" lon="0.19947">
        <ele>120</ele>
        <time>2022-08-17T15:19:51Z</time>
      </trkpt>
      <trkpt lat="43.94951" lon="0.19935">
        <ele>120</ele>
        <time>2022-08-17T15:34:15Z</time>
      </trkpt>
      <trkpt lat="43.94995" lon="0.20037">
        <ele>121</ele>
        <time>2022-08-18T06:21:11Z</time>
      </trkpt>
      <trkpt lat="43.94994" lon="0.20037">
        <ele>121</ele>
        <time>2022-08-18T06:21:12Z</time>
      </trkpt>
      <trkpt lat="43.94971" lon="0.2005">
        <ele>121</ele>
        <time>2022-08-18T06:21:40Z</time>
      </trkpt>
      <trkpt lat="43.94965" lon="0.20053">
        <ele>120</ele>
        <time>2022-08-18T06:21:52Z</time>
      </trkpt>
      <trkpt lat="43.94958" lon="0.20049">
        <ele>120</ele>
        <time>2022-08-18T06:21:58Z</time>
      </trkpt>
      <trkpt lat="43.94947" lon="0.20047">
        <ele>118</ele>
        <time>2022-08-18T06:22:07Z</time>
      </trkpt>
      <trkpt lat="43.94947" lon="0.20038">
        <ele>117</ele>
        <time>2022-08-18T06:22:14Z</time>
      </trkpt>
      <trkpt lat="43.94948" lon="0.20023">
        <ele>116</ele>
        <time>2022-08-18T06:22:23Z</time>
      </trkpt>
      <trkpt lat="43.94944" lon="0.2">
        <ele>114</ele>
        <time>2022-08-18T06:22:36Z</time>
      </trkpt>
      <trkpt lat="43.9494" lon="0.1999">
        <ele>114</ele>
        <time>2022-08-18T06:22:42Z</time>
      </trkpt>
      <trkpt lat="43.9494" lon="0.19982">
        <ele>114</ele>
        <time>2022-08-18T06:22:46Z</time>
      </trkpt>
      <trkpt lat="43.94938" lon="0.19976">
        <ele>113</ele>
        <time>2022-08-18T06:22:50Z</time>
      </trkpt>
      <trkpt lat="43.94933" lon="0.19931">
        <ele>112</ele>
        <time>2022-08-18T06:23:17Z</time>
      </trkpt>
      <trkpt lat="43.94929" lon="0.19911">
        <ele>112</ele>
        <time>2022-08-18T06:23:28Z</time>
      </trkpt>
      <trkpt lat="43.9493" lon="0.19903">
        <ele>112</ele>
        <time>2022-08-18T06:23:33Z</time>
      </trkpt>
      <trkpt lat="43.94929" lon="0.19897">
        <ele>112</ele>
        <time>2022-08-18T06:23:36Z</time>
      </trkpt>
      <trkpt lat="43.9493" lon="0.19891">
        <ele>112</ele>
        <time>2022-08-18T06:23:40Z</time>
      </trkpt>
      <trkpt lat="43.94932" lon="0.19862">
        <ele>113</ele>
        <time>2022-08-18T06:23:57Z</time>
      </trkpt>
      <trkpt lat="43.94934" lon="0.19855">
        <ele>113</ele>
        <time>2022-08-18T06:24:01Z</time>
      </trkpt>
      <trkpt lat="43.94937" lon="0.19849">
        <ele>113</ele>
        <time>2022-08-18T06:24:05Z</time>
      </trkpt>
      <trkpt lat="43.94939" lon="0.19841">
        <ele>113</ele>
        <time>2022-08-18T06:24:10Z</time>
      </trkpt>
      <trkpt lat="43.94941" lon="0.19834">
        <ele>113</ele>
        <time>2022-08-18T06:24:15Z</time>
      </trkpt>
      <trkpt lat="43.94949" lon="0.19823">
        <ele>113</ele>
        <time>2022-08-18T06:24:23Z</time>
      </trkpt>
      <trkpt lat="43.94954" lon="0.19819">
        <ele>113</ele>
        <time>2022-08-18T06:24:28Z</time>
      </trkpt>
      <trkpt lat="43.94964" lon="0.19818">
        <ele>113</ele>
        <time>2022-08-18T06:24:35Z</time>
      </trkpt>
      <trkpt lat="43.94974" lon="0.19819">
        <ele>113</ele>
        <time>2022-08-18T06:24:43Z</time>
      </trkpt>
      <trkpt lat="43.95004" lon="0.19834">
        <ele>113</ele>
        <time>2022-08-18T06:25:08Z</time>
      </trkpt>
      <trkpt lat="43.95002" lon="0.19821">
        <ele>111</ele>
        <time>2022-08-18T06:25:20Z</time>
      </trkpt>
      <trkpt lat="43.94979" lon="0.19788">
        <ele>107</ele>
        <time>2022-08-18T06:25:49Z</time>
      </trkpt>
      <trkpt lat="43.9496" lon="0.19775">
        <ele>104</ele>
        <time>2022-08-18T06:26:05Z</time>
      </trkpt>
      <trkpt lat="43.94954" lon="0.19774">
        <ele>103</ele>
        <time>2022-08-18T06:26:10Z</time>
      </trkpt>
      <trkpt lat="43.9494" lon="0.19778">
        <ele>100</ele>
        <time>2022-08-18T06:26:23Z</time>
      </trkpt>
      <trkpt lat="43.94922" lon="0.19799">
        <ele>96</ele>
        <time>2022-08-18T06:26:44Z</time>
      </trkpt>
      <trkpt lat="43.94916" lon="0.19798">
        <ele>95</ele>
        <time>2022-08-18T06:26:49Z</time>
      </trkpt>
      <trkpt lat="43.94913" lon="0.19791">
        <ele>95</ele>
        <time>2022-08-18T06:26:53Z</time>
      </trkpt>
      <trkpt lat="43.94924" lon="0.19768">
        <ele>95</ele>
        <time>2022-08-18T06:27:12Z</time>
      </trkpt>
      <trkpt lat="43.94931" lon="0.1976">
        <ele>94</ele>
        <time>2022-08-18T06:27:20Z</time>
      </trkpt>
      <trkpt lat="43.94922" lon="0.1976">
        <ele>92</ele>
        <time>2022-08-18T06:27:32Z</time>
      </trkpt>
      <trkpt lat="43.94889" lon="0.19787">
        <ele>87</ele>
        <time>2022-08-18T06:27:59Z</time>
      </trkpt>
      <trkpt lat="43.94885" lon="0.19793">
        <ele>87</ele>
        <time>2022-08-18T06:28:04Z</time>
      </trkpt>
      <trkpt lat="43.9488" lon="0.19797">
        <ele>87</ele>
        <time>2022-08-18T06:28:08Z</time>
      </trkpt>
      <trkpt lat="43.94853" lon="0.19839">
        <ele>86</ele>
        <time>2022-08-18T06:28:41Z</time>
      </trkpt>
      <trkpt lat="43.94845" lon="0.19847">
        <ele>86</ele>
        <time>2022-08-18T06:28:49Z</time>
      </trkpt>
      <trkpt lat="43.94837" lon="0.19854">
        <ele>87</ele>
        <time>2022-08-18T06:28:55Z</time>
      </trkpt>
      <trkpt lat="43.94817" lon="0.19858">
        <ele>87</ele>
        <time>2022-08-18T06:29:12Z</time>
      </trkpt>
      <trkpt lat="43.94811" lon="0.1986">
        <ele>87</ele>
        <time>2022-08-18T06:29:17Z</time>
      </trkpt>
      <trkpt lat="43.94778" lon="0.19864">
        <ele>90</ele>
        <time>2022-08-18T06:29:42Z</time>
      </trkpt>
      <trkpt lat="43.94772" lon="0.19867">
        <ele>91</ele>
        <time>2022-08-18T06:29:46Z</time>
      </trkpt>
      <trkpt lat="43.94761" lon="0.1987">
        <ele>91</ele>
        <time>2022-08-18T06:29:55Z</time>
      </trkpt>
      <trkpt lat="43.94749" lon="0.19875">
        <ele>91</ele>
        <time>2022-08-18T06:30:06Z</time>
      </trkpt>
      <trkpt lat="43.94739" lon="0.19879">
        <ele>91</ele>
        <time>2022-08-18T06:30:14Z</time>
      </trkpt>
      <trkpt lat="43.94721" lon="0.19882">
        <ele>91</ele>
        <time>2022-08-18T06:30:27Z</time>
      </trkpt>
      <trkpt lat="43.9469" lon="0.19879">
        <ele>91</ele>
        <time>2022-08-18T06:30:49Z</time>
      </trkpt>
      <trkpt lat="43.9468" lon="0.19882">
        <ele>90</ele>
        <time>2022-08-18T06:31:00Z</time>
      </trkpt>
      <trkpt lat="43.94636" lon="0.19889">
        <ele>89</ele>
        <time>2022-08-18T06:31:34Z</time>
      </trkpt>
      <trkpt lat="43.94622" lon="0.19889">
        <ele>89</ele>
        <time>2022-08-18T06:31:44Z</time>
      </trkpt>
      <trkpt lat="43.94616" lon="0.19892">
        <ele>89</ele>
        <time>2022-08-18T06:31:50Z</time>
      </trkpt>
      <trkpt lat="43.94572" lon="0.199">
        <ele>89</ele>
        <time>2022-08-18T06:32:23Z</time>
      </trkpt>
      <trkpt lat="43.94566" lon="0.19902">
        <ele>89</ele>
        <time>2022-08-18T06:32:27Z</time>
      </trkpt>
      <trkpt lat="43.94554" lon="0.19901">
        <ele>89</ele>
        <time>2022-08-18T06:32:36Z</time>
      </trkpt>
      <trkpt lat="43.94513" lon="0.19915">
        <ele>89</ele>
        <time>2022-08-18T06:33:08Z</time>
      </trkpt>
      <trkpt lat="43.94478" lon="0.1993">
        <ele>89</ele>
        <time>2022-08-18T06:33:35Z</time>
      </trkpt>
      <trkpt lat="43.94463" lon="0.19938">
        <ele>88</ele>
        <time>2022-08-18T06:33:49Z</time>
      </trkpt>
      <trkpt lat="43.94445" lon="0.19939">
        <ele>89</ele>
        <time>2022-08-18T06:34:03Z</time>
      </trkpt>
      <trkpt lat="43.94435" lon="0.19936">
        <ele>89</ele>
        <time>2022-08-18T06:34:11Z</time>
      </trkpt>
      <trkpt lat="43.94423" lon="0.19938">
        <ele>89</ele>
        <time>2022-08-18T06:34:19Z</time>
      </trkpt>
      <trkpt lat="43.94399" lon="0.19931">
        <ele>90</ele>
        <time>2022-08-18T06:34:38Z</time>
      </trkpt>
      <trkpt lat="43.94377" lon="0.19927">
        <ele>91</ele>
        <time>2022-08-18T06:34:54Z</time>
      </trkpt>
      <trkpt lat="43.94368" lon="0.1992">
        <ele>91</ele>
        <time>2022-08-18T06:35:01Z</time>
      </trkpt>
      <trkpt lat="43.94347" lon="0.19913">
        <ele>92</ele>
        <time>2022-08-18T06:35:17Z</time>
      </trkpt>
      <trkpt lat="43.94338" lon="0.19904">
        <ele>93</ele>
        <time>2022-08-18T06:35:26Z</time>
      </trkpt>
      <trkpt lat="43.94327" lon="0.19903">
        <ele>93</ele>
        <time>2022-08-18T06:35:34Z</time>
      </trkpt>
      <trkpt lat="43.94287" lon="0.19889">
        <ele>95</ele>
        <time>2022-08-18T06:36:07Z</time>
      </trkpt>
      <trkpt lat="43.94281" lon="0.19888">
        <ele>95</ele>
        <time>2022-08-18T06:36:11Z</time>
      </trkpt>
      <trkpt lat="43.94271" lon="0.19885">
        <ele>94</ele>
        <time>2022-08-18T06:36:19Z</time>
      </trkpt>
      <trkpt lat="43.94266" lon="0.19885">
        <ele>94</ele>
        <time>2022-08-18T06:36:22Z</time>
      </trkpt>
      <trkpt lat="43.94239" lon="0.1988">
        <ele>92</ele>
        <time>2022-08-18T06:36:44Z</time>
      </trkpt>
      <trkpt lat="43.9422" lon="0.19869">
        <ele>91</ele>
        <time>2022-08-18T06:37:00Z</time>
      </trkpt>
      <trkpt lat="43.94215" lon="0.19867">
        <ele>91</ele>
        <time>2022-08-18T06:37:04Z</time>
      </trkpt>
      <trkpt lat="43.94196" lon="0.19853">
        <ele>90</ele>
        <time>2022-08-18T06:37:19Z</time>
      </trkpt>
      <trkpt lat="43.94191" lon="0.19851">
        <ele>90</ele>
        <time>2022-08-18T06:37:23Z</time>
      </trkpt>
      <trkpt lat="43.94186" lon="0.19846">
        <ele>90</ele>
        <time>2022-08-18T06:37:27Z</time>
      </trkpt>
      <trkpt lat="43.94172" lon="0.19837">
        <ele>89</ele>
        <time>2022-08-18T06:37:39Z</time>
      </trkpt>
      <trkpt lat="43.94158" lon="0.19826">
        <ele>89</ele>
        <time>2022-08-18T06:37:51Z</time>
      </trkpt>
      <trkpt lat="43.94153" lon="0.19824">
        <ele>88</ele>
        <time>2022-08-18T06:37:56Z</time>
      </trkpt>
      <trkpt lat="43.94118" lon="0.19795">
        <ele>86</ele>
        <time>2022-08-18T06:38:30Z</time>
      </trkpt>
      <trkpt lat="43.94098" lon="0.19777">
        <ele>86</ele>
        <time>2022-08-18T06:38:49Z</time>
      </trkpt>
      <trkpt lat="43.94082" lon="0.19752">
        <ele>88</ele>
        <time>2022-08-18T06:39:06Z</time>
      </trkpt>
      <trkpt lat="43.9408" lon="0.19745">
        <ele>88</ele>
        <time>2022-08-18T06:39:11Z</time>
      </trkpt>
      <trkpt lat="43.94065" lon="0.19716">
        <ele>91</ele>
        <time>2022-08-18T06:39:32Z</time>
      </trkpt>
      <trkpt lat="43.94061" lon="0.19711">
        <ele>91</ele>
        <time>2022-08-18T06:39:36Z</time>
      </trkpt>
      <trkpt lat="43.94058" lon="0.19706">
        <ele>91</ele>
        <time>2022-08-18T06:39:40Z</time>
      </trkpt>
      <trkpt lat="43.94045" lon="0.19684">
        <ele>90</ele>
        <time>2022-08-18T06:39:56Z</time>
      </trkpt>
      <trkpt lat="43.9404" lon="0.19681">
        <ele>90</ele>
        <time>2022-08-18T06:40:01Z</time>
      </trkpt>
      <trkpt lat="43.94035" lon="0.19675">
        <ele>89</ele>
        <time>2022-08-18T06:40:07Z</time>
      </trkpt>
      <trkpt lat="43.94024" lon="0.19668">
        <ele>89</ele>
        <time>2022-08-18T06:40:15Z</time>
      </trkpt>
      <trkpt lat="43.93987" lon="0.19658">
        <ele>89</ele>
        <time>2022-08-18T06:40:42Z</time>
      </trkpt>
      <trkpt lat="43.93981" lon="0.19658">
        <ele>89</ele>
        <time>2022-08-18T06:40:47Z</time>
      </trkpt>
      <trkpt lat="43.93969" lon="0.19655">
        <ele>90</ele>
        <time>2022-08-18T06:40:56Z</time>
      </trkpt>
      <trkpt lat="43.93929" lon="0.19646">
        <ele>91</ele>
        <time>2022-08-18T06:41:27Z</time>
      </trkpt>
      <trkpt lat="43.93912" lon="0.19644">
        <ele>90</ele>
        <time>2022-08-18T06:41:42Z</time>
      </trkpt>
      <trkpt lat="43.93879" lon="0.19634">
        <ele>90</ele>
        <time>2022-08-18T06:42:06Z</time>
      </trkpt>
      <trkpt lat="43.93874" lon="0.19634">
        <ele>90</ele>
        <time>2022-08-18T06:42:10Z</time>
      </trkpt>
      <trkpt lat="43.93869" lon="0.19632">
        <ele>90</ele>
        <time>2022-08-18T06:42:15Z</time>
      </trkpt>
      <trkpt lat="43.93864" lon="0.19632">
        <ele>90</ele>
        <time>2022-08-18T06:42:19Z</time>
      </trkpt>
      <trkpt lat="43.9384" lon="0.19622">
        <ele>90</ele>
        <time>2022-08-18T06:42:38Z</time>
      </trkpt>
      <trkpt lat="43.93828" lon="0.19619">
        <ele>91</ele>
        <time>2022-08-18T06:42:47Z</time>
      </trkpt>
      <trkpt lat="43.9382" lon="0.19618">
        <ele>92</ele>
        <time>2022-08-18T06:42:55Z</time>
      </trkpt>
      <trkpt lat="43.93803" lon="0.19612">
        <ele>93</ele>
        <time>2022-08-18T06:43:07Z</time>
      </trkpt>
      <trkpt lat="43.93781" lon="0.19605">
        <ele>92</ele>
        <time>2022-08-18T06:43:25Z</time>
      </trkpt>
      <trkpt lat="43.93771" lon="0.196">
        <ele>92</ele>
        <time>2022-08-18T06:43:32Z</time>
      </trkpt>
      <trkpt lat="43.93766" lon="0.19599">
        <ele>92</ele>
        <time>2022-08-18T06:43:36Z</time>
      </trkpt>
      <trkpt lat="43.93752" lon="0.19592">
        <ele>92</ele>
        <time>2022-08-18T06:43:49Z</time>
      </trkpt>
      <trkpt lat="43.9372" lon="0.19585">
        <ele>91</ele>
        <time>2022-08-18T06:44:45Z</time>
      </trkpt>
      <trkpt lat="43.93702" lon="0.19582">
        <ele>91</ele>
        <time>2022-08-18T06:45:07Z</time>
      </trkpt>
      <trkpt lat="43.93697" lon="0.1958">
        <ele>90</ele>
        <time>2022-08-18T06:45:13Z</time>
      </trkpt>
      <trkpt lat="43.93686" lon="0.19577">
        <ele>90</ele>
        <time>2022-08-18T06:45:21Z</time>
      </trkpt>
      <trkpt lat="43.93645" lon="0.19578">
        <ele>91</ele>
        <time>2022-08-18T06:45:53Z</time>
      </trkpt>
      <trkpt lat="43.93622" lon="0.19579">
        <ele>91</ele>
        <time>2022-08-18T06:46:10Z</time>
      </trkpt>
      <trkpt lat="43.93617" lon="0.1958">
        <ele>91</ele>
        <time>2022-08-18T06:46:15Z</time>
      </trkpt>
      <trkpt lat="43.93606" lon="0.19581">
        <ele>91</ele>
        <time>2022-08-18T06:46:23Z</time>
      </trkpt>
      <trkpt lat="43.936" lon="0.19583">
        <ele>91</ele>
        <time>2022-08-18T06:46:29Z</time>
      </trkpt>
      <trkpt lat="43.93556" lon="0.19584">
        <ele>91</ele>
        <time>2022-08-18T06:47:01Z</time>
      </trkpt>
      <trkpt lat="43.93517" lon="0.19588">
        <ele>91</ele>
        <time>2022-08-18T06:47:32Z</time>
      </trkpt>
      <trkpt lat="43.93506" lon="0.19591">
        <ele>91</ele>
        <time>2022-08-18T06:47:41Z</time>
      </trkpt>
      <trkpt lat="43.93493" lon="0.19598">
        <ele>92</ele>
        <time>2022-08-18T06:47:52Z</time>
      </trkpt>
      <trkpt lat="43.9345" lon="0.196">
        <ele>92</ele>
        <time>2022-08-18T06:48:27Z</time>
      </trkpt>
      <trkpt lat="43.93445" lon="0.19599">
        <ele>92</ele>
        <time>2022-08-18T06:48:32Z</time>
      </trkpt>
      <trkpt lat="43.93424" lon="0.19597">
        <ele>90</ele>
        <time>2022-08-18T06:48:48Z</time>
      </trkpt>
      <trkpt lat="43.93419" lon="0.19601">
        <ele>90</ele>
        <time>2022-08-18T06:48:53Z</time>
      </trkpt>
      <trkpt lat="43.93403" lon="0.19602">
        <ele>90</ele>
        <time>2022-08-18T06:49:06Z</time>
      </trkpt>
      <trkpt lat="43.93398" lon="0.196">
        <ele>90</ele>
        <time>2022-08-18T06:49:10Z</time>
      </trkpt>
      <trkpt lat="43.93387" lon="0.19602">
        <ele>90</ele>
        <time>2022-08-18T06:49:18Z</time>
      </trkpt>
      <trkpt lat="43.93362" lon="0.19621">
        <ele>92</ele>
        <time>2022-08-18T06:49:40Z</time>
      </trkpt>
      <trkpt lat="43.93317" lon="0.19626">
        <ele>93</ele>
        <time>2022-08-18T06:50:15Z</time>
      </trkpt>
      <trkpt lat="43.93302" lon="0.19625">
        <ele>91</ele>
        <time>2022-08-18T06:50:27Z</time>
      </trkpt>
      <trkpt lat="43.93286" lon="0.1962">
        <ele>91</ele>
        <time>2022-08-18T06:50:42Z</time>
      </trkpt>
      <trkpt lat="43.93281" lon="0.19622">
        <ele>91</ele>
        <time>2022-08-18T06:50:46Z</time>
      </trkpt>
      <trkpt lat="43.93238" lon="0.19614">
        <ele>91</ele>
        <time>2022-08-18T06:51:18Z</time>
      </trkpt>
      <trkpt lat="43.93196" lon="0.19609">
        <ele>92</ele>
        <time>2022-08-18T06:51:51Z</time>
      </trkpt>
      <trkpt lat="43.9319" lon="0.19607">
        <ele>92</ele>
        <time>2022-08-18T06:51:54Z</time>
      </trkpt>
      <trkpt lat="43.93173" lon="0.19608">
        <ele>93</ele>
        <time>2022-08-18T06:52:08Z</time>
      </trkpt>
      <trkpt lat="43.93167" lon="0.19605">
        <ele>93</ele>
        <time>2022-08-18T06:52:13Z</time>
      </trkpt>
      <trkpt lat="43.93156" lon="0.19606">
        <ele>93</ele>
        <time>2022-08-18T06:52:21Z</time>
      </trkpt>
      <trkpt lat="43.93138" lon="0.19602">
        <ele>94</ele>
        <time>2022-08-18T06:52:35Z</time>
      </trkpt>
      <trkpt lat="43.93133" lon="0.196">
        <ele>94</ele>
        <time>2022-08-18T06:52:38Z</time>
      </trkpt>
      <trkpt lat="43.93124" lon="0.19593">
        <ele>94</ele>
        <time>2022-08-18T06:52:48Z</time>
      </trkpt>
      <trkpt lat="43.93119" lon="0.19592">
        <ele>93</ele>
        <time>2022-08-18T06:52:52Z</time>
      </trkpt>
      <trkpt lat="43.93084" lon="0.19555">
        <ele>90</ele>
        <time>2022-08-18T06:53:24Z</time>
      </trkpt>
      <trkpt lat="43.93073" lon="0.19538">
        <ele>90</ele>
        <time>2022-08-18T06:53:40Z</time>
      </trkpt>
      <trkpt lat="43.93068" lon="0.19539">
        <ele>90</ele>
        <time>2022-08-18T06:53:44Z</time>
      </trkpt>
      <trkpt lat="43.93063" lon="0.1954">
        <ele>90</ele>
        <time>2022-08-18T06:53:49Z</time>
      </trkpt>
      <trkpt lat="43.93027" lon="0.19544">
        <ele>92</ele>
        <time>2022-08-18T06:54:23Z</time>
      </trkpt>
      <trkpt lat="43.92994" lon="0.19549">
        <ele>94</ele>
        <time>2022-08-18T06:54:54Z</time>
      </trkpt>
      <trkpt lat="43.92977" lon="0.19552">
        <ele>95</ele>
        <time>2022-08-18T06:55:08Z</time>
      </trkpt>
      <trkpt lat="43.92972" lon="0.19551">
        <ele>95</ele>
        <time>2022-08-18T06:55:12Z</time>
      </trkpt>
      <trkpt lat="43.92933" lon="0.1956">
        <ele>98</ele>
        <time>2022-08-18T06:55:42Z</time>
      </trkpt>
      <trkpt lat="43.92927" lon="0.19561">
        <ele>98</ele>
        <time>2022-08-18T06:55:45Z</time>
      </trkpt>
      <trkpt lat="43.92912" lon="0.19562">
        <ele>99</ele>
        <time>2022-08-18T06:55:59Z</time>
      </trkpt>
      <trkpt lat="43.92901" lon="0.19566">
        <ele>99</ele>
        <time>2022-08-18T06:56:07Z</time>
      </trkpt>
      <trkpt lat="43.9288" lon="0.19566">
        <ele>99</ele>
        <time>2022-08-18T06:56:23Z</time>
      </trkpt>
      <trkpt lat="43.92836" lon="0.19556">
        <ele>102</ele>
        <time>2022-08-18T06:56:58Z</time>
      </trkpt>
      <trkpt lat="43.92793" lon="0.19552">
        <ele>105</ele>
        <time>2022-08-18T06:57:30Z</time>
      </trkpt>
      <trkpt lat="43.92783" lon="0.19552">
        <ele>105</ele>
        <time>2022-08-18T06:57:38Z</time>
      </trkpt>
      <trkpt lat="43.92778" lon="0.19553">
        <ele>106</ele>
        <time>2022-08-18T06:57:42Z</time>
      </trkpt>
      <trkpt lat="43.92772" lon="0.19551">
        <ele>106</ele>
        <time>2022-08-18T06:57:46Z</time>
      </trkpt>
      <trkpt lat="43.92767" lon="0.19552">
        <ele>106</ele>
        <time>2022-08-18T06:57:51Z</time>
      </trkpt>
      <trkpt lat="43.92757" lon="0.19547">
        <ele>106</ele>
        <time>2022-08-18T06:58:00Z</time>
      </trkpt>
      <trkpt lat="43.92739" lon="0.19541">
        <ele>108</ele>
        <time>2022-08-18T06:58:16Z</time>
      </trkpt>
      <trkpt lat="43.92724" lon="0.19544">
        <ele>109</ele>
        <time>2022-08-18T06:58:30Z</time>
      </trkpt>
      <trkpt lat="43.92719" lon="0.19546">
        <ele>109</ele>
        <time>2022-08-18T06:58:34Z</time>
      </trkpt>
      <trkpt lat="43.92689" lon="0.19582">
        <ele>110</ele>
        <time>2022-08-18T06:59:06Z</time>
      </trkpt>
      <trkpt lat="43.92685" lon="0.19587">
        <ele>111</ele>
        <time>2022-08-18T06:59:11Z</time>
      </trkpt>
      <trkpt lat="43.92665" lon="0.19597">
        <ele>110</ele>
        <time>2022-08-18T06:59:27Z</time>
      </trkpt>
      <trkpt lat="43.92622" lon="0.19616">
        <ele>104</ele>
        <time>2022-08-18T06:59:58Z</time>
      </trkpt>
      <trkpt lat="43.92613" lon="0.1962">
        <ele>103</ele>
        <time>2022-08-18T07:00:08Z</time>
      </trkpt>
      <trkpt lat="43.92603" lon="0.1962">
        <ele>103</ele>
        <time>2022-08-18T07:00:16Z</time>
      </trkpt>
      <trkpt lat="43.92565" lon="0.19637">
        <ele>102</ele>
        <time>2022-08-18T07:00:48Z</time>
      </trkpt>
      <trkpt lat="43.92541" lon="0.19651">
        <ele>102</ele>
        <time>2022-08-18T07:01:10Z</time>
      </trkpt>
      <trkpt lat="43.9252" lon="0.1966">
        <ele>103</ele>
        <time>2022-08-18T07:01:24Z</time>
      </trkpt>
      <trkpt lat="43.92515" lon="0.19663">
        <ele>103</ele>
        <time>2022-08-18T07:01:28Z</time>
      </trkpt>
      <trkpt lat="43.92475" lon="0.19683">
        <ele>103</ele>
        <time>2022-08-18T07:02:00Z</time>
      </trkpt>
      <trkpt lat="43.92471" lon="0.19687">
        <ele>103</ele>
        <time>2022-08-18T07:02:04Z</time>
      </trkpt>
      <trkpt lat="43.9246" lon="0.19691">
        <ele>103</ele>
        <time>2022-08-18T07:02:12Z</time>
      </trkpt>
      <trkpt lat="43.9245" lon="0.19698">
        <ele>103</ele>
        <time>2022-08-18T07:02:22Z</time>
      </trkpt>
      <trkpt lat="43.92407" lon="0.1972">
        <ele>103</ele>
        <time>2022-08-18T07:02:54Z</time>
      </trkpt>
      <trkpt lat="43.92372" lon="0.1974">
        <ele>103</ele>
        <time>2022-08-18T07:03:28Z</time>
      </trkpt>
      <trkpt lat="43.92367" lon="0.19744">
        <ele>103</ele>
        <time>2022-08-18T07:03:31Z</time>
      </trkpt>
      <trkpt lat="43.92362" lon="0.19751">
        <ele>103</ele>
        <time>2022-08-18T07:03:36Z</time>
      </trkpt>
      <trkpt lat="43.92357" lon="0.19753">
        <ele>103</ele>
        <time>2022-08-18T07:03:40Z</time>
      </trkpt>
      <trkpt lat="43.92323" lon="0.19788">
        <ele>103</ele>
        <time>2022-08-18T07:04:14Z</time>
      </trkpt>
      <trkpt lat="43.92301" lon="0.19817">
        <ele>103</ele>
        <time>2022-08-18T07:04:37Z</time>
      </trkpt>
      <trkpt lat="43.92288" lon="0.19832">
        <ele>103</ele>
        <time>2022-08-18T07:04:50Z</time>
      </trkpt>
      <trkpt lat="43.92259" lon="0.1988">
        <ele>103</ele>
        <time>2022-08-18T07:05:25Z</time>
      </trkpt>
      <trkpt lat="43.92252" lon="0.19897">
        <ele>103</ele>
        <time>2022-08-18T07:05:37Z</time>
      </trkpt>
      <trkpt lat="43.92248" lon="0.19901">
        <ele>103</ele>
        <time>2022-08-18T07:05:41Z</time>
      </trkpt>
      <trkpt lat="43.92242" lon="0.19918">
        <ele>103</ele>
        <time>2022-08-18T07:05:53Z</time>
      </trkpt>
      <trkpt lat="43.92239" lon="0.19923">
        <ele>103</ele>
        <time>2022-08-18T07:05:57Z</time>
      </trkpt>
      <trkpt lat="43.92249" lon="0.19928">
        <ele>103</ele>
        <time>2022-08-18T07:06:28Z</time>
      </trkpt>
      <trkpt lat="43.92244" lon="0.19937">
        <ele>103</ele>
        <time>2022-08-18T07:06:35Z</time>
      </trkpt>
      <trkpt lat="43.92218" lon="0.19983">
        <ele>103</ele>
        <time>2022-08-18T07:07:07Z</time>
      </trkpt>
      <trkpt lat="43.92204" lon="0.20013">
        <ele>103</ele>
        <time>2022-08-18T07:07:27Z</time>
      </trkpt>
      <trkpt lat="43.92202" lon="0.20021">
        <ele>103</ele>
        <time>2022-08-18T07:07:31Z</time>
      </trkpt>
      <trkpt lat="43.92192" lon="0.20043">
        <ele>103</ele>
        <time>2022-08-18T07:07:45Z</time>
      </trkpt>
      <trkpt lat="43.9219" lon="0.20051">
        <ele>103</ele>
        <time>2022-08-18T07:07:51Z</time>
      </trkpt>
      <trkpt lat="43.92185" lon="0.20055">
        <ele>103</ele>
        <time>2022-08-18T07:07:56Z</time>
      </trkpt>
      <trkpt lat="43.92175" lon="0.20087">
        <ele>103</ele>
        <time>2022-08-18T07:08:17Z</time>
      </trkpt>
      <trkpt lat="43.92157" lon="0.20123">
        <ele>104</ele>
        <time>2022-08-18T07:08:48Z</time>
      </trkpt>
      <trkpt lat="43.92133" lon="0.20167">
        <ele>104</ele>
        <time>2022-08-18T07:09:25Z</time>
      </trkpt>
      <trkpt lat="43.92129" lon="0.20175">
        <ele>104</ele>
        <time>2022-08-18T07:09:31Z</time>
      </trkpt>
      <trkpt lat="43.92096" lon="0.2022">
        <ele>104</ele>
        <time>2022-08-18T07:10:05Z</time>
      </trkpt>
      <trkpt lat="43.9206" lon="0.2026">
        <ele>104</ele>
        <time>2022-08-18T07:10:40Z</time>
      </trkpt>
      <trkpt lat="43.92047" lon="0.2027">
        <ele>103</ele>
        <time>2022-08-18T07:10:54Z</time>
      </trkpt>
      <trkpt lat="43.92039" lon="0.20278">
        <ele>103</ele>
        <time>2022-08-18T07:11:01Z</time>
      </trkpt>
      <trkpt lat="43.92031" lon="0.20284">
        <ele>103</ele>
        <time>2022-08-18T07:11:09Z</time>
      </trkpt>
      <trkpt lat="43.92028" lon="0.20289">
        <ele>103</ele>
        <time>2022-08-18T07:11:13Z</time>
      </trkpt>
      <trkpt lat="43.92025" lon="0.20294">
        <ele>103</ele>
        <time>2022-08-18T07:11:18Z</time>
      </trkpt>
      <trkpt lat="43.92027" lon="0.20291">
        <ele>103</ele>
        <time>2022-08-18T07:11:43Z</time>
      </trkpt>
      <trkpt lat="43.92031" lon="0.20293">
        <ele>103</ele>
        <time>2022-08-18T07:11:47Z</time>
      </trkpt>
      <trkpt lat="43.92036" lon="0.20293">
        <ele>103</ele>
        <time>2022-08-18T07:11:51Z</time>
      </trkpt>
      <trkpt lat="43.92041" lon="0.20293">
        <ele>102</ele>
        <time>2022-08-18T07:11:56Z</time>
      </trkpt>
      <trkpt lat="43.92046" lon="0.20294">
        <ele>101</ele>
        <time>2022-08-18T07:12:00Z</time>
      </trkpt>
      <trkpt lat="43.92053" lon="0.2029">
        <ele>100</ele>
        <time>2022-08-18T07:12:12Z</time>
      </trkpt>
      <trkpt lat="43.92056" lon="0.20276">
        <ele>99</ele>
        <time>2022-08-18T07:12:22Z</time>
      </trkpt>
      <trkpt lat="43.92056" lon="0.20268">
        <ele>99</ele>
        <time>2022-08-18T07:12:27Z</time>
      </trkpt>
      <trkpt lat="43.92071" lon="0.20211">
        <ele>95</ele>
        <time>2022-08-18T07:13:02Z</time>
      </trkpt>
      <trkpt lat="43.92073" lon="0.20152">
        <ele>92</ele>
        <time>2022-08-18T07:13:35Z</time>
      </trkpt>
      <trkpt lat="43.92076" lon="0.20106">
        <ele>91</ele>
        <time>2022-08-18T07:14:05Z</time>
      </trkpt>
      <trkpt lat="43.92078" lon="0.20099">
        <ele>91</ele>
        <time>2022-08-18T07:14:10Z</time>
      </trkpt>
      <trkpt lat="43.92079" lon="0.20091">
        <ele>91</ele>
        <time>2022-08-18T07:14:14Z</time>
      </trkpt>
      <trkpt lat="43.92078" lon="0.20085">
        <ele>91</ele>
        <time>2022-08-18T07:14:21Z</time>
      </trkpt>
      <trkpt lat="43.92079" lon="0.20077">
        <ele>91</ele>
        <time>2022-08-18T07:14:26Z</time>
      </trkpt>
      <trkpt lat="43.92078" lon="0.20068">
        <ele>90</ele>
        <time>2022-08-18T07:14:33Z</time>
      </trkpt>
      <trkpt lat="43.92083" lon="0.20019">
        <ele>90</ele>
        <time>2022-08-18T07:15:04Z</time>
      </trkpt>
      <trkpt lat="43.92083" lon="0.20006">
        <ele>90</ele>
        <time>2022-08-18T07:15:12Z</time>
      </trkpt>
      <trkpt lat="43.92086" lon="0.19992">
        <ele>90</ele>
        <time>2022-08-18T07:15:20Z</time>
      </trkpt>
      <trkpt lat="43.92086" lon="0.19986">
        <ele>90</ele>
        <time>2022-08-18T07:15:24Z</time>
      </trkpt>
      <trkpt lat="43.92086" lon="0.19979">
        <ele>90</ele>
        <time>2022-08-18T07:15:29Z</time>
      </trkpt>
      <trkpt lat="43.92088" lon="0.19957">
        <ele>89</ele>
        <time>2022-08-18T07:15:42Z</time>
      </trkpt>
      <trkpt lat="43.9209" lon="0.19933">
        <ele>89</ele>
        <time>2022-08-18T07:15:56Z</time>
      </trkpt>
      <trkpt lat="43.92093" lon="0.19878">
        <ele>89</ele>
        <time>2022-08-18T07:16:28Z</time>
      </trkpt>
      <trkpt lat="43.92096" lon="0.19821">
        <ele>89</ele>
        <time>2022-08-18T07:17:00Z</time>
      </trkpt>
      <trkpt lat="43.92096" lon="0.19814">
        <ele>89</ele>
        <time>2022-08-18T07:17:04Z</time>
      </trkpt>
      <trkpt lat="43.92098" lon="0.19806">
        <ele>89</ele>
        <time>2022-08-18T07:17:09Z</time>
      </trkpt>
      <trkpt lat="43.92098" lon="0.19785">
        <ele>88</ele>
        <time>2022-08-18T07:17:20Z</time>
      </trkpt>
      <trkpt lat="43.92101" lon="0.19764">
        <ele>89</ele>
        <time>2022-08-18T07:17:33Z</time>
      </trkpt>
      <trkpt lat="43.92103" lon="0.19756">
        <ele>89</ele>
        <time>2022-08-18T07:17:38Z</time>
      </trkpt>
      <trkpt lat="43.92103" lon="0.19742">
        <ele>89</ele>
        <time>2022-08-18T07:17:46Z</time>
      </trkpt>
      <trkpt lat="43.92107" lon="0.19698">
        <ele>89</ele>
        <time>2022-08-18T07:18:10Z</time>
      </trkpt>
      <trkpt lat="43.92107" lon="0.19691">
        <ele>89</ele>
        <time>2022-08-18T07:18:15Z</time>
      </trkpt>
      <trkpt lat="43.92109" lon="0.19676">
        <ele>89</ele>
        <time>2022-08-18T07:18:23Z</time>
      </trkpt>
      <trkpt lat="43.92109" lon="0.19669">
        <ele>89</ele>
        <time>2022-08-18T07:18:26Z</time>
      </trkpt>
      <trkpt lat="43.9211" lon="0.19654">
        <ele>89</ele>
        <time>2022-08-18T07:18:35Z</time>
      </trkpt>
      <trkpt lat="43.92111" lon="0.19632">
        <ele>89</ele>
        <time>2022-08-18T07:18:47Z</time>
      </trkpt>
      <trkpt lat="43.92113" lon="0.19609">
        <ele>89</ele>
        <time>2022-08-18T07:18:59Z</time>
      </trkpt>
      <trkpt lat="43.92113" lon="0.19601">
        <ele>89</ele>
        <time>2022-08-18T07:19:03Z</time>
      </trkpt>
      <trkpt lat="43.92115" lon="0.19587">
        <ele>89</ele>
        <time>2022-08-18T07:19:11Z</time>
      </trkpt>
      <trkpt lat="43.92116" lon="0.19559">
        <ele>90</ele>
        <time>2022-08-18T07:19:27Z</time>
      </trkpt>
      <trkpt lat="43.92114" lon="0.19553">
        <ele>90</ele>
        <time>2022-08-18T07:19:31Z</time>
      </trkpt>
      <trkpt lat="43.92104" lon="0.19535">
        <ele>91</ele>
        <time>2022-08-18T07:19:47Z</time>
      </trkpt>
      <trkpt lat="43.92075" lon="0.195">
        <ele>94</ele>
        <time>2022-08-18T07:20:18Z</time>
      </trkpt>
      <trkpt lat="43.92071" lon="0.19495">
        <ele>94</ele>
        <time>2022-08-18T07:20:22Z</time>
      </trkpt>
      <trkpt lat="43.92067" lon="0.19493">
        <ele>94</ele>
        <time>2022-08-18T07:20:25Z</time>
      </trkpt>
      <trkpt lat="43.92038" lon="0.19459">
        <ele>99</ele>
        <time>2022-08-18T07:20:59Z</time>
      </trkpt>
      <trkpt lat="43.92011" lon="0.19431">
        <ele>103</ele>
        <time>2022-08-18T07:21:33Z</time>
      </trkpt>
      <trkpt lat="43.92003" lon="0.19419">
        <ele>104</ele>
        <time>2022-08-18T07:21:44Z</time>
      </trkpt>
      <trkpt lat="43.91998" lon="0.19415">
        <ele>105</ele>
        <time>2022-08-18T07:21:49Z</time>
      </trkpt>
      <trkpt lat="43.9199" lon="0.19397">
        <ele>107</ele>
        <time>2022-08-18T07:22:01Z</time>
      </trkpt>
      <trkpt lat="43.91984" lon="0.19377">
        <ele>108</ele>
        <time>2022-08-18T07:22:16Z</time>
      </trkpt>
      <trkpt lat="43.91971" lon="0.19354">
        <ele>109</ele>
        <time>2022-08-18T07:22:34Z</time>
      </trkpt>
      <trkpt lat="43.91967" lon="0.19351">
        <ele>109</ele>
        <time>2022-08-18T07:22:38Z</time>
      </trkpt>
      <trkpt lat="43.91925" lon="0.19359">
        <ele>109</ele>
        <time>2022-08-18T07:23:12Z</time>
      </trkpt>
      <trkpt lat="43.91881" lon="0.1936">
        <ele>108</ele>
        <time>2022-08-18T07:23:46Z</time>
      </trkpt>
      <trkpt lat="43.91852" lon="0.19362">
        <ele>108</ele>
        <time>2022-08-18T07:24:10Z</time>
      </trkpt>
      <trkpt lat="43.91849" lon="0.19356">
        <ele>108</ele>
        <time>2022-08-18T07:24:16Z</time>
      </trkpt>
      <trkpt lat="43.91847" lon="0.19349">
        <ele>108</ele>
        <time>2022-08-18T07:24:20Z</time>
      </trkpt>
      <trkpt lat="43.91846" lon="0.19336">
        <ele>108</ele>
        <time>2022-08-18T07:24:28Z</time>
      </trkpt>
      <trkpt lat="43.91845" lon="0.19329">
        <ele>108</ele>
        <time>2022-08-18T07:24:32Z</time>
      </trkpt>
      <trkpt lat="43.91837" lon="0.19277">
        <ele>111</ele>
        <time>2022-08-18T07:25:03Z</time>
      </trkpt>
      <trkpt lat="43.91834" lon="0.19265">
        <ele>112</ele>
        <time>2022-08-18T07:25:10Z</time>
      </trkpt>
      <trkpt lat="43.9183" lon="0.19237">
        <ele>113</ele>
        <time>2022-08-18T07:25:27Z</time>
      </trkpt>
      <trkpt lat="43.9183" lon="0.1923">
        <ele>113</ele>
        <time>2022-08-18T07:25:32Z</time>
      </trkpt>
      <trkpt lat="43.91828" lon="0.19217">
        <ele>113</ele>
        <time>2022-08-18T07:25:40Z</time>
      </trkpt>
      <trkpt lat="43.91825" lon="0.19211">
        <ele>114</ele>
        <time>2022-08-18T07:25:45Z</time>
      </trkpt>
      <trkpt lat="43.91823" lon="0.19187">
        <ele>115</ele>
        <time>2022-08-18T07:26:00Z</time>
      </trkpt>
      <trkpt lat="43.91821" lon="0.19173">
        <ele>115</ele>
        <time>2022-08-18T07:26:09Z</time>
      </trkpt>
      <trkpt lat="43.91821" lon="0.19165">
        <ele>116</ele>
        <time>2022-08-18T07:26:14Z</time>
      </trkpt>
      <trkpt lat="43.91821" lon="0.19158">
        <ele>116</ele>
        <time>2022-08-18T07:26:20Z</time>
      </trkpt>
      <trkpt lat="43.91822" lon="0.19151">
        <ele>117</ele>
        <time>2022-08-18T07:26:33Z</time>
      </trkpt>
      <trkpt lat="43.91828" lon="0.19144">
        <ele>114</ele>
        <time>2022-08-18T07:27:23Z</time>
      </trkpt>
      <trkpt lat="43.91825" lon="0.19137">
        <ele>118</ele>
        <time>2022-08-18T07:28:08Z</time>
      </trkpt>
      <trkpt lat="43.9182" lon="0.19106">
        <ele>119</ele>
        <time>2022-08-18T07:28:42Z</time>
      </trkpt>
      <trkpt lat="43.91817" lon="0.191">
        <ele>120</ele>
        <time>2022-08-18T07:29:07Z</time>
      </trkpt>
      <trkpt lat="43.91815" lon="0.19093">
        <ele>120</ele>
        <time>2022-08-18T07:29:12Z</time>
      </trkpt>
      <trkpt lat="43.91818" lon="0.19047">
        <ele>122</ele>
        <time>2022-08-18T07:29:43Z</time>
      </trkpt>
      <trkpt lat="43.91819" lon="0.18997">
        <ele>122</ele>
        <time>2022-08-18T07:30:18Z</time>
      </trkpt>
      <trkpt lat="43.91819" lon="0.1899">
        <ele>122</ele>
        <time>2022-08-18T07:30:22Z</time>
      </trkpt>
      <trkpt lat="43.91818" lon="0.18984">
        <ele>123</ele>
        <time>2022-08-18T07:30:27Z</time>
      </trkpt>
      <trkpt lat="43.91815" lon="0.1897">
        <ele>124</ele>
        <time>2022-08-18T07:30:38Z</time>
      </trkpt>
      <trkpt lat="43.91814" lon="0.18961">
        <ele>124</ele>
        <time>2022-08-18T07:30:45Z</time>
      </trkpt>
      <trkpt lat="43.9181" lon="0.18925">
        <ele>125</ele>
        <time>2022-08-18T07:31:05Z</time>
      </trkpt>
      <trkpt lat="43.91811" lon="0.18917">
        <ele>125</ele>
        <time>2022-08-18T07:31:10Z</time>
      </trkpt>
      <trkpt lat="43.91806" lon="0.18883">
        <ele>125</ele>
        <time>2022-08-18T07:31:32Z</time>
      </trkpt>
      <trkpt lat="43.91808" lon="0.18875">
        <ele>126</ele>
        <time>2022-08-18T07:31:42Z</time>
      </trkpt>
      <trkpt lat="43.91812" lon="0.18871">
        <ele>125</ele>
        <time>2022-08-18T07:32:00Z</time>
      </trkpt>
      <trkpt lat="43.91808" lon="0.18867">
        <ele>126</ele>
        <time>2022-08-18T07:32:48Z</time>
      </trkpt>
      <trkpt lat="43.91804" lon="0.1886">
        <ele>126</ele>
        <time>2022-08-18T07:33:05Z</time>
      </trkpt>
      <trkpt lat="43.9181" lon="0.18858">
        <ele>126</ele>
        <time>2022-08-18T07:33:35Z</time>
      </trkpt>
      <trkpt lat="43.91808" lon="0.18857">
        <ele>126</ele>
        <time>2022-08-18T07:34:48Z</time>
      </trkpt>
      <trkpt lat="43.91808" lon="0.18847">
        <ele>126</ele>
        <time>2022-08-18T07:35:53Z</time>
      </trkpt>
      <trkpt lat="43.918" lon="0.18802">
        <ele>128</ele>
        <time>2022-08-18T07:36:26Z</time>
      </trkpt>
      <trkpt lat="43.91796" lon="0.18775">
        <ele>128</ele>
        <time>2022-08-18T07:36:45Z</time>
      </trkpt>
      <trkpt lat="43.91792" lon="0.18749">
        <ele>127</ele>
        <time>2022-08-18T07:37:03Z</time>
      </trkpt>
      <trkpt lat="43.91789" lon="0.18743">
        <ele>127</ele>
        <time>2022-08-18T07:37:09Z</time>
      </trkpt>
      <trkpt lat="43.91786" lon="0.18737">
        <ele>127</ele>
        <time>2022-08-18T07:37:13Z</time>
      </trkpt>
      <trkpt lat="43.91788" lon="0.18726">
        <ele>127</ele>
        <time>2022-08-18T07:37:25Z</time>
      </trkpt>
      <trkpt lat="43.91795" lon="0.18669">
        <ele>128</ele>
        <time>2022-08-18T07:37:57Z</time>
      </trkpt>
      <trkpt lat="43.91799" lon="0.18648">
        <ele>129</ele>
        <time>2022-08-18T07:38:09Z</time>
      </trkpt>
      <trkpt lat="43.91802" lon="0.18634">
        <ele>129</ele>
        <time>2022-08-18T07:38:17Z</time>
      </trkpt>
      <trkpt lat="43.91809" lon="0.18578">
        <ele>130</ele>
        <time>2022-08-18T07:38:49Z</time>
      </trkpt>
      <trkpt lat="43.91814" lon="0.18545">
        <ele>131</ele>
        <time>2022-08-18T07:39:10Z</time>
      </trkpt>
      <trkpt lat="43.91812" lon="0.18539">
        <ele>131</ele>
        <time>2022-08-18T07:39:15Z</time>
      </trkpt>
      <trkpt lat="43.91809" lon="0.18534">
        <ele>131</ele>
        <time>2022-08-18T07:39:19Z</time>
      </trkpt>
      <trkpt lat="43.91797" lon="0.1852">
        <ele>131</ele>
        <time>2022-08-18T07:39:33Z</time>
      </trkpt>
      <trkpt lat="43.91793" lon="0.18514">
        <ele>131</ele>
        <time>2022-08-18T07:39:38Z</time>
      </trkpt>
      <trkpt lat="43.91765" lon="0.18476">
        <ele>132</ele>
        <time>2022-08-18T07:40:12Z</time>
      </trkpt>
      <trkpt lat="43.91761" lon="0.18472">
        <ele>132</ele>
        <time>2022-08-18T07:40:16Z</time>
      </trkpt>
      <trkpt lat="43.91753" lon="0.18458">
        <ele>132</ele>
        <time>2022-08-18T07:40:28Z</time>
      </trkpt>
      <trkpt lat="43.91725" lon="0.1842">
        <ele>133</ele>
        <time>2022-08-18T07:41:03Z</time>
      </trkpt>
      <trkpt lat="43.917" lon="0.18386">
        <ele>134</ele>
        <time>2022-08-18T07:41:34Z</time>
      </trkpt>
      <trkpt lat="43.91672" lon="0.18348">
        <ele>136</ele>
        <time>2022-08-18T07:42:07Z</time>
      </trkpt>
      <trkpt lat="43.91665" lon="0.18337">
        <ele>136</ele>
        <time>2022-08-18T07:42:16Z</time>
      </trkpt>
      <trkpt lat="43.91643" lon="0.18309">
        <ele>138</ele>
        <time>2022-08-18T07:42:47Z</time>
      </trkpt>
      <trkpt lat="43.91631" lon="0.18298">
        <ele>139</ele>
        <time>2022-08-18T07:43:02Z</time>
      </trkpt>
      <trkpt lat="43.9162" lon="0.18296">
        <ele>140</ele>
        <time>2022-08-18T07:43:13Z</time>
      </trkpt>
      <trkpt lat="43.91612" lon="0.1829">
        <ele>141</ele>
        <time>2022-08-18T07:43:23Z</time>
      </trkpt>
      <trkpt lat="43.91579" lon="0.18264">
        <ele>142</ele>
        <time>2022-08-18T07:43:55Z</time>
      </trkpt>
      <trkpt lat="43.91559" lon="0.18253">
        <ele>144</ele>
        <time>2022-08-18T07:44:13Z</time>
      </trkpt>
      <trkpt lat="43.91554" lon="0.18252">
        <ele>143</ele>
        <time>2022-08-18T07:44:17Z</time>
      </trkpt>
      <trkpt lat="43.91544" lon="0.18243">
        <ele>144</ele>
        <time>2022-08-18T07:46:28Z</time>
      </trkpt>
      <trkpt lat="43.91529" lon="0.18224">
        <ele>144</ele>
        <time>2022-08-18T07:46:45Z</time>
      </trkpt>
      <trkpt lat="43.91507" lon="0.18177">
        <ele>142</ele>
        <time>2022-08-18T07:47:20Z</time>
      </trkpt>
      <trkpt lat="43.91488" lon="0.18131">
        <ele>141</ele>
        <time>2022-08-18T07:47:51Z</time>
      </trkpt>
      <trkpt lat="43.91483" lon="0.18113">
        <ele>140</ele>
        <time>2022-08-18T07:48:01Z</time>
      </trkpt>
      <trkpt lat="43.91474" lon="0.18097">
        <ele>140</ele>
        <time>2022-08-18T07:48:13Z</time>
      </trkpt>
      <trkpt lat="43.91456" lon="0.18049">
        <ele>140</ele>
        <time>2022-08-18T07:48:44Z</time>
      </trkpt>
      <trkpt lat="43.91439" lon="0.18008">
        <ele>141</ele>
        <time>2022-08-18T07:49:14Z</time>
      </trkpt>
      <trkpt lat="43.91437" lon="0.18003">
        <ele>141</ele>
        <time>2022-08-18T07:49:18Z</time>
      </trkpt>
      <trkpt lat="43.91429" lon="0.17986">
        <ele>141</ele>
        <time>2022-08-18T07:49:33Z</time>
      </trkpt>
      <trkpt lat="43.91401" lon="0.17948">
        <ele>142</ele>
        <time>2022-08-18T07:50:06Z</time>
      </trkpt>
      <trkpt lat="43.91395" lon="0.17937">
        <ele>142</ele>
        <time>2022-08-18T07:50:14Z</time>
      </trkpt>
      <trkpt lat="43.91369" lon="0.1791">
        <ele>143</ele>
        <time>2022-08-18T07:50:44Z</time>
      </trkpt>
      <trkpt lat="43.91363" lon="0.17898">
        <ele>143</ele>
        <time>2022-08-18T07:50:56Z</time>
      </trkpt>
      <trkpt lat="43.91355" lon="0.17904">
        <ele>143</ele>
        <time>2022-08-18T07:51:09Z</time>
      </trkpt>
      <trkpt lat="43.91354" lon="0.17895">
        <ele>143</ele>
        <time>2022-08-18T07:51:31Z</time>
      </trkpt>
      <trkpt lat="43.9135" lon="0.17888">
        <ele>144</ele>
        <time>2022-08-18T07:51:51Z</time>
      </trkpt>
      <trkpt lat="43.91346" lon="0.17883">
        <ele>144</ele>
        <time>2022-08-18T07:51:56Z</time>
      </trkpt>
      <trkpt lat="43.91341" lon="0.17878">
        <ele>144</ele>
        <time>2022-08-18T07:52:01Z</time>
      </trkpt>
      <trkpt lat="43.91338" lon="0.17872">
        <ele>145</ele>
        <time>2022-08-18T07:52:05Z</time>
      </trkpt>
      <trkpt lat="43.91312" lon="0.17844">
        <ele>146</ele>
        <time>2022-08-18T07:52:36Z</time>
      </trkpt>
      <trkpt lat="43.91309" lon="0.1784">
        <ele>146</ele>
        <time>2022-08-18T07:52:40Z</time>
      </trkpt>
      <trkpt lat="43.91296" lon="0.17829">
        <ele>147</ele>
        <time>2022-08-18T07:52:52Z</time>
      </trkpt>
      <trkpt lat="43.91265" lon="0.17791">
        <ele>148</ele>
        <time>2022-08-18T07:53:24Z</time>
      </trkpt>
      <trkpt lat="43.91244" lon="0.17763">
        <ele>149</ele>
        <time>2022-08-18T07:53:48Z</time>
      </trkpt>
      <trkpt lat="43.91239" lon="0.1776">
        <ele>148</ele>
        <time>2022-08-18T07:53:53Z</time>
      </trkpt>
      <trkpt lat="43.91227" lon="0.17744">
        <ele>148</ele>
        <time>2022-08-18T07:54:38Z</time>
      </trkpt>
      <trkpt lat="43.91219" lon="0.17733">
        <ele>148</ele>
        <time>2022-08-18T07:54:47Z</time>
      </trkpt>
      <trkpt lat="43.91203" lon="0.17716">
        <ele>148</ele>
        <time>2022-08-18T07:55:03Z</time>
      </trkpt>
      <trkpt lat="43.91196" lon="0.17705">
        <ele>148</ele>
        <time>2022-08-18T07:55:12Z</time>
      </trkpt>
      <trkpt lat="43.91189" lon="0.1768">
        <ele>147</ele>
        <time>2022-08-18T07:55:30Z</time>
      </trkpt>
      <trkpt lat="43.91184" lon="0.17646">
        <ele>147</ele>
        <time>2022-08-18T07:55:57Z</time>
      </trkpt>
      <trkpt lat="43.91182" lon="0.1764">
        <ele>147</ele>
        <time>2022-08-18T07:56:01Z</time>
      </trkpt>
      <trkpt lat="43.9118" lon="0.17615">
        <ele>146</ele>
        <time>2022-08-18T07:56:16Z</time>
      </trkpt>
      <trkpt lat="43.91186" lon="0.17571">
        <ele>146</ele>
        <time>2022-08-18T07:56:49Z</time>
      </trkpt>
      <trkpt lat="43.91185" lon="0.17557">
        <ele>146</ele>
        <time>2022-08-18T07:56:58Z</time>
      </trkpt>
      <trkpt lat="43.91184" lon="0.17551">
        <ele>146</ele>
        <time>2022-08-18T07:57:02Z</time>
      </trkpt>
      <trkpt lat="43.91185" lon="0.17543">
        <ele>146</ele>
        <time>2022-08-18T07:57:06Z</time>
      </trkpt>
      <trkpt lat="43.91184" lon="0.17536">
        <ele>146</ele>
        <time>2022-08-18T07:57:10Z</time>
      </trkpt>
      <trkpt lat="43.91187" lon="0.17508">
        <ele>146</ele>
        <time>2022-08-18T07:57:26Z</time>
      </trkpt>
      <trkpt lat="43.91186" lon="0.175">
        <ele>146</ele>
        <time>2022-08-18T07:57:30Z</time>
      </trkpt>
      <trkpt lat="43.91187" lon="0.17494">
        <ele>146</ele>
        <time>2022-08-18T07:57:34Z</time>
      </trkpt>
      <trkpt lat="43.91189" lon="0.17487">
        <ele>146</ele>
        <time>2022-08-18T07:57:39Z</time>
      </trkpt>
      <trkpt lat="43.91189" lon="0.17478">
        <ele>145</ele>
        <time>2022-08-18T07:57:49Z</time>
      </trkpt>
      <trkpt lat="43.91187" lon="0.17456">
        <ele>144</ele>
        <time>2022-08-18T07:58:02Z</time>
      </trkpt>
      <trkpt lat="43.91187" lon="0.17435">
        <ele>144</ele>
        <time>2022-08-18T07:58:13Z</time>
      </trkpt>
      <trkpt lat="43.91189" lon="0.17429">
        <ele>145</ele>
        <time>2022-08-18T07:58:35Z</time>
      </trkpt>
      <trkpt lat="43.91187" lon="0.17402">
        <ele>144</ele>
        <time>2022-08-18T07:58:50Z</time>
      </trkpt>
      <trkpt lat="43.91188" lon="0.17382">
        <ele>144</ele>
        <time>2022-08-18T07:59:02Z</time>
      </trkpt>
      <trkpt lat="43.91187" lon="0.17348">
        <ele>144</ele>
        <time>2022-08-18T07:59:33Z</time>
      </trkpt>
      <trkpt lat="43.91185" lon="0.17328">
        <ele>144</ele>
        <time>2022-08-18T07:59:45Z</time>
      </trkpt>
      <trkpt lat="43.91185" lon="0.17312">
        <ele>145</ele>
        <time>2022-08-18T07:59:55Z</time>
      </trkpt>
      <trkpt lat="43.91184" lon="0.17296">
        <ele>145</ele>
        <time>2022-08-18T08:00:05Z</time>
      </trkpt>
      <trkpt lat="43.91184" lon="0.17284">
        <ele>145</ele>
        <time>2022-08-18T08:00:13Z</time>
      </trkpt>
      <trkpt lat="43.91178" lon="0.17233">
        <ele>146</ele>
        <time>2022-08-18T08:00:44Z</time>
      </trkpt>
      <trkpt lat="43.91164" lon="0.17181">
        <ele>148</ele>
        <time>2022-08-18T08:01:18Z</time>
      </trkpt>
      <trkpt lat="43.91156" lon="0.17149">
        <ele>149</ele>
        <time>2022-08-18T08:01:39Z</time>
      </trkpt>
      <trkpt lat="43.91153" lon="0.17135">
        <ele>150</ele>
        <time>2022-08-18T08:01:57Z</time>
      </trkpt>
      <trkpt lat="43.91151" lon="0.17123">
        <ele>151</ele>
        <time>2022-08-18T08:02:06Z</time>
      </trkpt>
      <trkpt lat="43.91141" lon="0.17079">
        <ele>153</ele>
        <time>2022-08-18T08:02:34Z</time>
      </trkpt>
      <trkpt lat="43.91139" lon="0.17072">
        <ele>152</ele>
        <time>2022-08-18T08:02:39Z</time>
      </trkpt>
      <trkpt lat="43.91129" lon="0.17036">
        <ele>153</ele>
        <time>2022-08-18T08:03:08Z</time>
      </trkpt>
      <trkpt lat="43.91129" lon="0.17029">
        <ele>153</ele>
        <time>2022-08-18T08:03:12Z</time>
      </trkpt>
      <trkpt lat="43.91124" lon="0.17011">
        <ele>152</ele>
        <time>2022-08-18T08:03:23Z</time>
      </trkpt>
      <trkpt lat="43.91122" lon="0.16999">
        <ele>153</ele>
        <time>2022-08-18T08:03:31Z</time>
      </trkpt>
      <trkpt lat="43.9112" lon="0.16993">
        <ele>153</ele>
        <time>2022-08-18T08:03:36Z</time>
      </trkpt>
      <trkpt lat="43.91116" lon="0.16962">
        <ele>153</ele>
        <time>2022-08-18T08:03:57Z</time>
      </trkpt>
      <trkpt lat="43.91115" lon="0.16956">
        <ele>153</ele>
        <time>2022-08-18T08:04:01Z</time>
      </trkpt>
      <trkpt lat="43.91114" lon="0.16947">
        <ele>153</ele>
        <time>2022-08-18T08:04:09Z</time>
      </trkpt>
      <trkpt lat="43.91114" lon="0.16941">
        <ele>154</ele>
        <time>2022-08-18T08:04:14Z</time>
      </trkpt>
      <trkpt lat="43.91112" lon="0.16931">
        <ele>154</ele>
        <time>2022-08-18T08:04:25Z</time>
      </trkpt>
      <trkpt lat="43.91108" lon="0.16919">
        <ele>153</ele>
        <time>2022-08-18T08:04:37Z</time>
      </trkpt>
      <trkpt lat="43.9111" lon="0.16912">
        <ele>153</ele>
        <time>2022-08-18T08:04:41Z</time>
      </trkpt>
      <trkpt lat="43.91113" lon="0.169">
        <ele>153</ele>
        <time>2022-08-18T08:05:01Z</time>
      </trkpt>
      <trkpt lat="43.91112" lon="0.16887">
        <ele>153</ele>
        <time>2022-08-18T08:05:13Z</time>
      </trkpt>
      <trkpt lat="43.9111" lon="0.16857">
        <ele>155</ele>
        <time>2022-08-18T08:05:38Z</time>
      </trkpt>
      <trkpt lat="43.91109" lon="0.16846">
        <ele>156</ele>
        <time>2022-08-18T08:05:48Z</time>
      </trkpt>
      <trkpt lat="43.91103" lon="0.16843">
        <ele>157</ele>
        <time>2022-08-18T08:05:56Z</time>
      </trkpt>
      <trkpt lat="43.91098" lon="0.16842">
        <ele>157</ele>
        <time>2022-08-18T08:06:00Z</time>
      </trkpt>
      <trkpt lat="43.9109" lon="0.16833">
        <ele>156</ele>
        <time>2022-08-18T08:06:08Z</time>
      </trkpt>
      <trkpt lat="43.91083" lon="0.16823">
        <ele>156</ele>
        <time>2022-08-18T08:06:17Z</time>
      </trkpt>
      <trkpt lat="43.91059" lon="0.16774">
        <ele>155</ele>
        <time>2022-08-18T08:06:54Z</time>
      </trkpt>
      <trkpt lat="43.91048" lon="0.16755">
        <ele>155</ele>
        <time>2022-08-18T08:07:13Z</time>
      </trkpt>
      <trkpt lat="43.91026" lon="0.16715">
        <ele>157</ele>
        <time>2022-08-18T08:07:47Z</time>
      </trkpt>
      <trkpt lat="43.91021" lon="0.16704">
        <ele>157</ele>
        <time>2022-08-18T08:07:54Z</time>
      </trkpt>
      <trkpt lat="43.91014" lon="0.16694">
        <ele>157</ele>
        <time>2022-08-18T08:08:02Z</time>
      </trkpt>
      <trkpt lat="43.90992" lon="0.1665">
        <ele>157</ele>
        <time>2022-08-18T08:08:34Z</time>
      </trkpt>
      <trkpt lat="43.90973" lon="0.16614">
        <ele>157</ele>
        <time>2022-08-18T08:09:05Z</time>
      </trkpt>
      <trkpt lat="43.90965" lon="0.16597">
        <ele>157</ele>
        <time>2022-08-18T08:09:17Z</time>
      </trkpt>
      <trkpt lat="43.90962" lon="0.16592">
        <ele>157</ele>
        <time>2022-08-18T08:09:22Z</time>
      </trkpt>
      <trkpt lat="43.90962" lon="0.16585">
        <ele>157</ele>
        <time>2022-08-18T08:09:27Z</time>
      </trkpt>
      <trkpt lat="43.90966" lon="0.1658">
        <ele>158</ele>
        <time>2022-08-18T08:09:32Z</time>
      </trkpt>
      <trkpt lat="43.90969" lon="0.16571">
        <ele>159</ele>
        <time>2022-08-18T08:09:40Z</time>
      </trkpt>
      <trkpt lat="43.90975" lon="0.16568">
        <ele>160</ele>
        <time>2022-08-18T08:09:48Z</time>
      </trkpt>
      <trkpt lat="43.90988" lon="0.16568">
        <ele>160</ele>
        <time>2022-08-18T08:10:02Z</time>
      </trkpt>
      <trkpt lat="43.91" lon="0.16567">
        <ele>161</ele>
        <time>2022-08-18T08:10:15Z</time>
      </trkpt>
      <trkpt lat="43.91033" lon="0.16573">
        <ele>161</ele>
        <time>2022-08-18T08:10:41Z</time>
      </trkpt>
      <trkpt lat="43.91055" lon="0.16573">
        <ele>161</ele>
        <time>2022-08-18T08:10:58Z</time>
      </trkpt>
      <trkpt lat="43.9107" lon="0.16576">
        <ele>160</ele>
        <time>2022-08-18T08:11:10Z</time>
      </trkpt>
      <trkpt lat="43.91081" lon="0.16576">
        <ele>160</ele>
        <time>2022-08-18T08:11:18Z</time>
      </trkpt>
      <trkpt lat="43.91092" lon="0.16577">
        <ele>160</ele>
        <time>2022-08-18T08:11:27Z</time>
      </trkpt>
      <trkpt lat="43.91099" lon="0.16576">
        <ele>160</ele>
        <time>2022-08-18T08:11:34Z</time>
      </trkpt>
      <trkpt lat="43.91102" lon="0.1657">
        <ele>160</ele>
        <time>2022-08-18T08:11:38Z</time>
      </trkpt>
      <trkpt lat="43.91105" lon="0.16565">
        <ele>160</ele>
        <time>2022-08-18T08:11:43Z</time>
      </trkpt>
      <trkpt lat="43.9111" lon="0.16563">
        <ele>160</ele>
        <time>2022-08-18T08:11:48Z</time>
      </trkpt>
      <trkpt lat="43.91115" lon="0.16564">
        <ele>160</ele>
        <time>2022-08-18T08:11:53Z</time>
      </trkpt>
      <trkpt lat="43.91114" lon="0.16564">
        <ele>160</ele>
        <time>2022-08-18T08:12:13Z</time>
      </trkpt>
      <trkpt lat="43.9111" lon="0.16564">
        <ele>161</ele>
        <time>2022-08-18T08:12:17Z</time>
      </trkpt>
      <trkpt lat="43.91105" lon="0.16562">
        <ele>161</ele>
        <time>2022-08-18T08:12:21Z</time>
      </trkpt>
      <trkpt lat="43.91101" lon="0.16559">
        <ele>160</ele>
        <time>2022-08-18T08:12:25Z</time>
      </trkpt>
      <trkpt lat="43.91099" lon="0.16553">
        <ele>160</ele>
        <time>2022-08-18T08:12:31Z</time>
      </trkpt>
      <trkpt lat="43.91099" lon="0.16546">
        <ele>160</ele>
        <time>2022-08-18T08:12:35Z</time>
      </trkpt>
      <trkpt lat="43.91105" lon="0.16513">
        <ele>160</ele>
        <time>2022-08-18T08:12:56Z</time>
      </trkpt>
      <trkpt lat="43.91106" lon="0.16499">
        <ele>160</ele>
        <time>2022-08-18T08:13:04Z</time>
      </trkpt>
      <trkpt lat="43.91108" lon="0.16486">
        <ele>160</ele>
        <time>2022-08-18T08:13:12Z</time>
      </trkpt>
      <trkpt lat="43.91108" lon="0.1648">
        <ele>160</ele>
        <time>2022-08-18T08:13:16Z</time>
      </trkpt>
      <trkpt lat="43.91108" lon="0.16473">
        <ele>160</ele>
        <time>2022-08-18T08:13:20Z</time>
      </trkpt>
      <trkpt lat="43.91113" lon="0.16423">
        <ele>160</ele>
        <time>2022-08-18T08:13:48Z</time>
      </trkpt>
      <trkpt lat="43.91115" lon="0.16417">
        <ele>160</ele>
        <time>2022-08-18T08:13:52Z</time>
      </trkpt>
      <trkpt lat="43.9112" lon="0.16362">
        <ele>159</ele>
        <time>2022-08-18T08:14:24Z</time>
      </trkpt>
      <trkpt lat="43.91122" lon="0.16356">
        <ele>159</ele>
        <time>2022-08-18T08:14:28Z</time>
      </trkpt>
      <trkpt lat="43.91126" lon="0.16347">
        <ele>159</ele>
        <time>2022-08-18T08:14:37Z</time>
      </trkpt>
      <trkpt lat="43.91125" lon="0.1634">
        <ele>159</ele>
        <time>2022-08-18T08:14:41Z</time>
      </trkpt>
      <trkpt lat="43.91129" lon="0.16314">
        <ele>159</ele>
        <time>2022-08-18T08:14:58Z</time>
      </trkpt>
      <trkpt lat="43.91132" lon="0.16308">
        <ele>159</ele>
        <time>2022-08-18T08:15:02Z</time>
      </trkpt>
      <trkpt lat="43.91142" lon="0.16303">
        <ele>158</ele>
        <time>2022-08-18T08:15:10Z</time>
      </trkpt>
      <trkpt lat="43.91144" lon="0.16298">
        <ele>157</ele>
        <time>2022-08-18T08:15:15Z</time>
      </trkpt>
      <trkpt lat="43.91139" lon="0.1629">
        <ele>158</ele>
        <time>2022-08-18T08:15:33Z</time>
      </trkpt>
      <trkpt lat="43.91134" lon="0.16292">
        <ele>158</ele>
        <time>2022-08-18T08:15:36Z</time>
      </trkpt>
      <trkpt lat="43.91128" lon="0.16289">
        <ele>158</ele>
        <time>2022-08-18T08:15:42Z</time>
      </trkpt>
      <trkpt lat="43.9113" lon="0.16232">
        <ele>153</ele>
        <time>2022-08-18T08:16:14Z</time>
      </trkpt>
      <trkpt lat="43.91131" lon="0.16212">
        <ele>151</ele>
        <time>2022-08-18T08:16:26Z</time>
      </trkpt>
      <trkpt lat="43.91134" lon="0.16191">
        <ele>150</ele>
        <time>2022-08-18T08:16:39Z</time>
      </trkpt>
      <trkpt lat="43.91137" lon="0.16139">
        <ele>145</ele>
        <time>2022-08-18T08:17:10Z</time>
      </trkpt>
      <trkpt lat="43.91141" lon="0.16116">
        <ele>144</ele>
        <time>2022-08-18T08:17:24Z</time>
      </trkpt>
      <trkpt lat="43.91137" lon="0.16055">
        <ele>142</ele>
        <time>2022-08-18T08:17:58Z</time>
      </trkpt>
      <trkpt lat="43.91128" lon="0.16006">
        <ele>141</ele>
        <time>2022-08-18T08:18:30Z</time>
      </trkpt>
      <trkpt lat="43.91127" lon="0.15998">
        <ele>141</ele>
        <time>2022-08-18T08:18:35Z</time>
      </trkpt>
      <trkpt lat="43.91113" lon="0.15941">
        <ele>139</ele>
        <time>2022-08-18T08:19:10Z</time>
      </trkpt>
      <trkpt lat="43.9111" lon="0.15927">
        <ele>139</ele>
        <time>2022-08-18T08:19:18Z</time>
      </trkpt>
      <trkpt lat="43.91108" lon="0.15921">
        <ele>139</ele>
        <time>2022-08-18T08:19:22Z</time>
      </trkpt>
      <trkpt lat="43.91106" lon="0.15905">
        <ele>138</ele>
        <time>2022-08-18T08:19:32Z</time>
      </trkpt>
      <trkpt lat="43.91105" lon="0.15898">
        <ele>138</ele>
        <time>2022-08-18T08:19:36Z</time>
      </trkpt>
      <trkpt lat="43.91108" lon="0.15888">
        <ele>138</ele>
        <time>2022-08-18T08:19:43Z</time>
      </trkpt>
      <trkpt lat="43.91107" lon="0.1588">
        <ele>138</ele>
        <time>2022-08-18T08:19:47Z</time>
      </trkpt>
      <trkpt lat="43.91111" lon="0.15841">
        <ele>137</ele>
        <time>2022-08-18T08:20:18Z</time>
      </trkpt>
      <trkpt lat="43.91112" lon="0.15827">
        <ele>136</ele>
        <time>2022-08-18T08:20:26Z</time>
      </trkpt>
      <trkpt lat="43.91117" lon="0.15782">
        <ele>136</ele>
        <time>2022-08-18T08:20:55Z</time>
      </trkpt>
      <trkpt lat="43.91119" lon="0.15754">
        <ele>135</ele>
        <time>2022-08-18T08:21:11Z</time>
      </trkpt>
      <trkpt lat="43.91121" lon="0.15741">
        <ele>135</ele>
        <time>2022-08-18T08:21:19Z</time>
      </trkpt>
      <trkpt lat="43.91128" lon="0.15696">
        <ele>135</ele>
        <time>2022-08-18T08:21:46Z</time>
      </trkpt>
      <trkpt lat="43.91125" lon="0.15688">
        <ele>135</ele>
        <time>2022-08-18T08:22:00Z</time>
      </trkpt>
      <trkpt lat="43.911" lon="0.15679">
        <ele>133</ele>
        <time>2022-08-18T08:22:31Z</time>
      </trkpt>
      <trkpt lat="43.9109" lon="0.15676">
        <ele>133</ele>
        <time>2022-08-18T08:22:39Z</time>
      </trkpt>
      <trkpt lat="43.91068" lon="0.15666">
        <ele>133</ele>
        <time>2022-08-18T08:22:59Z</time>
      </trkpt>
      <trkpt lat="43.91065" lon="0.15662">
        <ele>133</ele>
        <time>2022-08-18T08:23:03Z</time>
      </trkpt>
      <trkpt lat="43.91059" lon="0.15661">
        <ele>134</ele>
        <time>2022-08-18T08:23:07Z</time>
      </trkpt>
      <trkpt lat="43.91044" lon="0.15659">
        <ele>134</ele>
        <time>2022-08-18T08:23:20Z</time>
      </trkpt>
      <trkpt lat="43.91019" lon="0.15647">
        <ele>134</ele>
        <time>2022-08-18T08:23:57Z</time>
      </trkpt>
      <trkpt lat="43.91005" lon="0.15641">
        <ele>133</ele>
        <time>2022-08-18T08:24:10Z</time>
      </trkpt>
      <trkpt lat="43.91014" lon="0.15644">
        <ele>133</ele>
        <time>2022-08-18T08:24:21Z</time>
      </trkpt>
      <trkpt lat="43.91053" lon="0.15659">
        <ele>134</ele>
        <time>2022-08-18T08:24:52Z</time>
      </trkpt>
      <trkpt lat="43.91069" lon="0.15662">
        <ele>134</ele>
        <time>2022-08-18T08:25:03Z</time>
      </trkpt>
      <trkpt lat="43.91083" lon="0.15671">
        <ele>133</ele>
        <time>2022-08-18T08:25:15Z</time>
      </trkpt>
      <trkpt lat="43.91088" lon="0.15674">
        <ele>133</ele>
        <time>2022-08-18T08:25:19Z</time>
      </trkpt>
      <trkpt lat="43.91093" lon="0.15674">
        <ele>133</ele>
        <time>2022-08-18T08:25:23Z</time>
      </trkpt>
      <trkpt lat="43.91127" lon="0.15688">
        <ele>134</ele>
        <time>2022-08-18T08:25:54Z</time>
      </trkpt>
      <trkpt lat="43.91132" lon="0.15689">
        <ele>134</ele>
        <time>2022-08-18T08:25:58Z</time>
      </trkpt>
      <trkpt lat="43.91136" lon="0.15683">
        <ele>134</ele>
        <time>2022-08-18T08:26:03Z</time>
      </trkpt>
      <trkpt lat="43.91153" lon="0.15657">
        <ele>134</ele>
        <time>2022-08-18T08:26:26Z</time>
      </trkpt>
      <trkpt lat="43.91169" lon="0.15616">
        <ele>131</ele>
        <time>2022-08-18T08:26:52Z</time>
      </trkpt>
      <trkpt lat="43.91171" lon="0.15601">
        <ele>131</ele>
        <time>2022-08-18T08:27:02Z</time>
      </trkpt>
      <trkpt lat="43.91173" lon="0.15594">
        <ele>131</ele>
        <time>2022-08-18T08:27:06Z</time>
      </trkpt>
      <trkpt lat="43.91172" lon="0.15586">
        <ele>131</ele>
        <time>2022-08-18T08:27:11Z</time>
      </trkpt>
      <trkpt lat="43.91169" lon="0.15579">
        <ele>130</ele>
        <time>2022-08-18T08:27:16Z</time>
      </trkpt>
      <trkpt lat="43.91164" lon="0.15576">
        <ele>130</ele>
        <time>2022-08-18T08:27:22Z</time>
      </trkpt>
      <trkpt lat="43.91156" lon="0.1557">
        <ele>130</ele>
        <time>2022-08-18T08:27:30Z</time>
      </trkpt>
      <trkpt lat="43.91144" lon="0.15563">
        <ele>129</ele>
        <time>2022-08-18T08:27:39Z</time>
      </trkpt>
      <trkpt lat="43.91117" lon="0.15541">
        <ele>129</ele>
        <time>2022-08-18T08:28:04Z</time>
      </trkpt>
      <trkpt lat="43.91099" lon="0.15525">
        <ele>129</ele>
        <time>2022-08-18T08:28:22Z</time>
      </trkpt>
      <trkpt lat="43.91062" lon="0.15499">
        <ele>128</ele>
        <time>2022-08-18T08:28:56Z</time>
      </trkpt>
      <trkpt lat="43.91043" lon="0.15486">
        <ele>128</ele>
        <time>2022-08-18T08:29:13Z</time>
      </trkpt>
      <trkpt lat="43.91039" lon="0.15482">
        <ele>128</ele>
        <time>2022-08-18T08:29:17Z</time>
      </trkpt>
      <trkpt lat="43.91034" lon="0.15477">
        <ele>127</ele>
        <time>2022-08-18T08:29:22Z</time>
      </trkpt>
      <trkpt lat="43.91" lon="0.15455">
        <ele>127</ele>
        <time>2022-08-18T08:29:53Z</time>
      </trkpt>
      <trkpt lat="43.90986" lon="0.15446">
        <ele>127</ele>
        <time>2022-08-18T08:30:06Z</time>
      </trkpt>
      <trkpt lat="43.90968" lon="0.15431">
        <ele>127</ele>
        <time>2022-08-18T08:30:22Z</time>
      </trkpt>
      <trkpt lat="43.90962" lon="0.15432">
        <ele>127</ele>
        <time>2022-08-18T08:30:30Z</time>
      </trkpt>
      <trkpt lat="43.90958" lon="0.15436">
        <ele>128</ele>
        <time>2022-08-18T08:30:42Z</time>
      </trkpt>
      <trkpt lat="43.90957" lon="0.15443">
        <ele>128</ele>
        <time>2022-08-18T08:30:48Z</time>
      </trkpt>
      <trkpt lat="43.90948" lon="0.15465">
        <ele>129</ele>
        <time>2022-08-18T08:31:04Z</time>
      </trkpt>
      <trkpt lat="43.90941" lon="0.15475">
        <ele>130</ele>
        <time>2022-08-18T08:31:14Z</time>
      </trkpt>
      <trkpt lat="43.90939" lon="0.15482">
        <ele>130</ele>
        <time>2022-08-18T08:31:23Z</time>
      </trkpt>
      <trkpt lat="43.90935" lon="0.15488">
        <ele>131</ele>
        <time>2022-08-18T08:31:34Z</time>
      </trkpt>
      <trkpt lat="43.90932" lon="0.15497">
        <ele>131</ele>
        <time>2022-08-18T08:31:45Z</time>
      </trkpt>
      <trkpt lat="43.90911" lon="0.15537">
        <ele>134</ele>
        <time>2022-08-18T08:32:16Z</time>
      </trkpt>
      <trkpt lat="43.90891" lon="0.15581">
        <ele>135</ele>
        <time>2022-08-18T08:32:48Z</time>
      </trkpt>
      <trkpt lat="43.90887" lon="0.15586">
        <ele>135</ele>
        <time>2022-08-18T08:32:52Z</time>
      </trkpt>
      <trkpt lat="43.90881" lon="0.15584">
        <ele>135</ele>
        <time>2022-08-18T08:32:56Z</time>
      </trkpt>
      <trkpt lat="43.90853" lon="0.15569">
        <ele>133</ele>
        <time>2022-08-18T08:33:20Z</time>
      </trkpt>
      <trkpt lat="43.90849" lon="0.15566">
        <ele>133</ele>
        <time>2022-08-18T08:33:24Z</time>
      </trkpt>
      <trkpt lat="43.90844" lon="0.15561">
        <ele>133</ele>
        <time>2022-08-18T08:33:34Z</time>
      </trkpt>
      <trkpt lat="43.90836" lon="0.15551">
        <ele>133</ele>
        <time>2022-08-18T08:33:56Z</time>
      </trkpt>
      <trkpt lat="43.90825" lon="0.15535">
        <ele>132</ele>
        <time>2022-08-18T08:34:10Z</time>
      </trkpt>
      <trkpt lat="43.90788" lon="0.15507">
        <ele>133</ele>
        <time>2022-08-18T08:34:44Z</time>
      </trkpt>
      <trkpt lat="43.90767" lon="0.15495">
        <ele>134</ele>
        <time>2022-08-18T08:35:02Z</time>
      </trkpt>
      <trkpt lat="43.90756" lon="0.15489">
        <ele>135</ele>
        <time>2022-08-18T08:35:15Z</time>
      </trkpt>
      <trkpt lat="43.9072" lon="0.15483">
        <ele>138</ele>
        <time>2022-08-18T08:35:48Z</time>
      </trkpt>
      <trkpt lat="43.90714" lon="0.15482">
        <ele>139</ele>
        <time>2022-08-18T08:35:59Z</time>
      </trkpt>
      <trkpt lat="43.90709" lon="0.15481">
        <ele>139</ele>
        <time>2022-08-18T08:36:05Z</time>
      </trkpt>
      <trkpt lat="43.90679" lon="0.15476">
        <ele>140</ele>
        <time>2022-08-18T08:36:32Z</time>
      </trkpt>
      <trkpt lat="43.90671" lon="0.15473">
        <ele>140</ele>
        <time>2022-08-18T08:36:43Z</time>
      </trkpt>
      <trkpt lat="43.90658" lon="0.15469">
        <ele>140</ele>
        <time>2022-08-18T08:37:01Z</time>
      </trkpt>
      <trkpt lat="43.90653" lon="0.15465">
        <ele>140</ele>
        <time>2022-08-18T08:37:05Z</time>
      </trkpt>
      <trkpt lat="43.90648" lon="0.15464">
        <ele>141</ele>
        <time>2022-08-18T08:37:10Z</time>
      </trkpt>
      <trkpt lat="43.90643" lon="0.15462">
        <ele>142</ele>
        <time>2022-08-18T08:37:31Z</time>
      </trkpt>
      <trkpt lat="43.90629" lon="0.15456">
        <ele>143</ele>
        <time>2022-08-18T08:38:18Z</time>
      </trkpt>
      <trkpt lat="43.90624" lon="0.15455">
        <ele>143</ele>
        <time>2022-08-18T08:38:21Z</time>
      </trkpt>
      <trkpt lat="43.90599" lon="0.15454">
        <ele>146</ele>
        <time>2022-08-18T08:38:46Z</time>
      </trkpt>
      <trkpt lat="43.90585" lon="0.1545">
        <ele>147</ele>
        <time>2022-08-18T08:38:58Z</time>
      </trkpt>
      <trkpt lat="43.90571" lon="0.15447">
        <ele>148</ele>
        <time>2022-08-18T08:39:09Z</time>
      </trkpt>
      <trkpt lat="43.90543" lon="0.15431">
        <ele>151</ele>
        <time>2022-08-18T08:39:42Z</time>
      </trkpt>
      <trkpt lat="43.90519" lon="0.15419">
        <ele>154</ele>
        <time>2022-08-18T08:40:06Z</time>
      </trkpt>
      <trkpt lat="43.90505" lon="0.15417">
        <ele>156</ele>
        <time>2022-08-18T08:40:17Z</time>
      </trkpt>
      <trkpt lat="43.90481" lon="0.1542">
        <ele>159</ele>
        <time>2022-08-18T08:40:45Z</time>
      </trkpt>
      <trkpt lat="43.90475" lon="0.15419">
        <ele>159</ele>
        <time>2022-08-18T08:40:51Z</time>
      </trkpt>
      <trkpt lat="43.90471" lon="0.15423">
        <ele>159</ele>
        <time>2022-08-18T08:42:20Z</time>
      </trkpt>
      <trkpt lat="43.90471" lon="0.15422">
        <ele>158</ele>
        <time>2022-08-18T08:43:13Z</time>
      </trkpt>
      <trkpt lat="43.90471" lon="0.15423">
        <ele>158</ele>
        <time>2022-08-18T08:47:01Z</time>
      </trkpt>
      <trkpt lat="43.90474" lon="0.15413">
        <ele>158</ele>
        <time>2022-08-18T08:47:55Z</time>
      </trkpt>
      <trkpt lat="43.90473" lon="0.15421">
        <ele>157</ele>
        <time>2022-08-18T08:52:36Z</time>
      </trkpt>
      <trkpt lat="43.9047" lon="0.15424">
        <ele>158</ele>
        <time>2022-08-18T09:19:50Z</time>
      </trkpt>
      <trkpt lat="43.90476" lon="0.15428">
        <ele>158</ele>
        <time>2022-08-18T09:23:38Z</time>
      </trkpt>
      <trkpt lat="43.90471" lon="0.15431">
        <ele>158</ele>
        <time>2022-08-18T09:23:44Z</time>
      </trkpt>
      <trkpt lat="43.90473" lon="0.15422">
        <ele>159</ele>
        <time>2022-08-18T09:25:40Z</time>
      </trkpt>
      <trkpt lat="43.90467" lon="0.15418">
        <ele>158</ele>
        <time>2022-08-18T09:28:06Z</time>
      </trkpt>
      <trkpt lat="43.90461" lon="0.15418">
        <ele>158</ele>
        <time>2022-08-18T09:28:12Z</time>
      </trkpt>
      <trkpt lat="43.90454" lon="0.15421">
        <ele>158</ele>
        <time>2022-08-18T09:28:20Z</time>
      </trkpt>
      <trkpt lat="43.90449" lon="0.15424">
        <ele>158</ele>
        <time>2022-08-18T09:28:33Z</time>
      </trkpt>
      <trkpt lat="43.90443" lon="0.15435">
        <ele>158</ele>
        <time>2022-08-18T09:28:44Z</time>
      </trkpt>
      <trkpt lat="43.90435" lon="0.15462">
        <ele>159</ele>
        <time>2022-08-18T09:29:07Z</time>
      </trkpt>
      <trkpt lat="43.90436" lon="0.15454">
        <ele>160</ele>
        <time>2022-08-18T09:29:14Z</time>
      </trkpt>
      <trkpt lat="43.90443" lon="0.1541">
        <ele>156</ele>
        <time>2022-08-18T09:29:46Z</time>
      </trkpt>
      <trkpt lat="43.90443" lon="0.15403">
        <ele>156</ele>
        <time>2022-08-18T09:29:53Z</time>
      </trkpt>
      <trkpt lat="43.90441" lon="0.15389">
        <ele>155</ele>
        <time>2022-08-18T09:30:04Z</time>
      </trkpt>
      <trkpt lat="43.90436" lon="0.15372">
        <ele>153</ele>
        <time>2022-08-18T09:30:20Z</time>
      </trkpt>
      <trkpt lat="43.90433" lon="0.15369">
        <ele>152</ele>
        <time>2022-08-18T09:30:32Z</time>
      </trkpt>
      <trkpt lat="43.90436" lon="0.15364">
        <ele>152</ele>
        <time>2022-08-18T09:31:01Z</time>
      </trkpt>
      <trkpt lat="43.90443" lon="0.1536">
        <ele>152</ele>
        <time>2022-08-18T09:31:13Z</time>
      </trkpt>
      <trkpt lat="43.90447" lon="0.15355">
        <ele>151</ele>
        <time>2022-08-18T09:31:18Z</time>
      </trkpt>
      <trkpt lat="43.90451" lon="0.15358">
        <ele>150</ele>
        <time>2022-08-18T09:32:09Z</time>
      </trkpt>
      <trkpt lat="43.90462" lon="0.15353">
        <ele>149</ele>
        <time>2022-08-18T09:32:17Z</time>
      </trkpt>
      <trkpt lat="43.90465" lon="0.15348">
        <ele>148</ele>
        <time>2022-08-18T09:32:22Z</time>
      </trkpt>
      <trkpt lat="43.90465" lon="0.15331">
        <ele>147</ele>
        <time>2022-08-18T09:32:33Z</time>
      </trkpt>
      <trkpt lat="43.90461" lon="0.15321">
        <ele>146</ele>
        <time>2022-08-18T09:33:03Z</time>
      </trkpt>
      <trkpt lat="43.90463" lon="0.15307">
        <ele>144</ele>
        <time>2022-08-18T09:33:13Z</time>
      </trkpt>
      <trkpt lat="43.90461" lon="0.15299">
        <ele>143</ele>
        <time>2022-08-18T09:33:24Z</time>
      </trkpt>
      <trkpt lat="43.90462" lon="0.15285">
        <ele>142</ele>
        <time>2022-08-18T09:33:34Z</time>
      </trkpt>
      <trkpt lat="43.90457" lon="0.15261">
        <ele>139</ele>
        <time>2022-08-18T09:33:47Z</time>
      </trkpt>
      <trkpt lat="43.90456" lon="0.1524">
        <ele>136</ele>
        <time>2022-08-18T09:34:01Z</time>
      </trkpt>
      <trkpt lat="43.90457" lon="0.15234">
        <ele>135</ele>
        <time>2022-08-18T09:34:05Z</time>
      </trkpt>
      <trkpt lat="43.90453" lon="0.15221">
        <ele>133</ele>
        <time>2022-08-18T09:34:14Z</time>
      </trkpt>
      <trkpt lat="43.90452" lon="0.15213">
        <ele>132</ele>
        <time>2022-08-18T09:34:19Z</time>
      </trkpt>
      <trkpt lat="43.90443" lon="0.15173">
        <ele>127</ele>
        <time>2022-08-18T09:34:45Z</time>
      </trkpt>
      <trkpt lat="43.9044" lon="0.15167">
        <ele>126</ele>
        <time>2022-08-18T09:34:50Z</time>
      </trkpt>
      <trkpt lat="43.90431" lon="0.1516">
        <ele>125</ele>
        <time>2022-08-18T09:34:58Z</time>
      </trkpt>
      <trkpt lat="43.90407" lon="0.15153">
        <ele>123</ele>
        <time>2022-08-18T09:35:18Z</time>
      </trkpt>
      <trkpt lat="43.90401" lon="0.15139">
        <ele>122</ele>
        <time>2022-08-18T09:35:30Z</time>
      </trkpt>
      <trkpt lat="43.90397" lon="0.15133">
        <ele>121</ele>
        <time>2022-08-18T09:36:03Z</time>
      </trkpt>
      <trkpt lat="43.90388" lon="0.1513">
        <ele>120</ele>
        <time>2022-08-18T09:36:35Z</time>
      </trkpt>
      <trkpt lat="43.90358" lon="0.15123">
        <ele>120</ele>
        <time>2022-08-18T09:37:00Z</time>
      </trkpt>
      <trkpt lat="43.90353" lon="0.15124">
        <ele>120</ele>
        <time>2022-08-18T09:37:04Z</time>
      </trkpt>
      <trkpt lat="43.90321" lon="0.15112">
        <ele>120</ele>
        <time>2022-08-18T09:37:32Z</time>
      </trkpt>
      <trkpt lat="43.90306" lon="0.15106">
        <ele>120</ele>
        <time>2022-08-18T09:37:45Z</time>
      </trkpt>
      <trkpt lat="43.90284" lon="0.15101">
        <ele>120</ele>
        <time>2022-08-18T09:38:00Z</time>
      </trkpt>
      <trkpt lat="43.90273" lon="0.15095">
        <ele>120</ele>
        <time>2022-08-18T09:38:09Z</time>
      </trkpt>
      <trkpt lat="43.90259" lon="0.15085">
        <ele>120</ele>
        <time>2022-08-18T09:38:22Z</time>
      </trkpt>
      <trkpt lat="43.90254" lon="0.15083">
        <ele>120</ele>
        <time>2022-08-18T09:38:27Z</time>
      </trkpt>
      <trkpt lat="43.9024" lon="0.15071">
        <ele>120</ele>
        <time>2022-08-18T09:38:39Z</time>
      </trkpt>
      <trkpt lat="43.90229" lon="0.15065">
        <ele>120</ele>
        <time>2022-08-18T09:38:48Z</time>
      </trkpt>
      <trkpt lat="43.90211" lon="0.15051">
        <ele>120</ele>
        <time>2022-08-18T09:39:03Z</time>
      </trkpt>
      <trkpt lat="43.90206" lon="0.15049">
        <ele>120</ele>
        <time>2022-08-18T09:39:07Z</time>
      </trkpt>
      <trkpt lat="43.90174" lon="0.1502">
        <ele>121</ele>
        <time>2022-08-18T09:39:38Z</time>
      </trkpt>
      <trkpt lat="43.90169" lon="0.15017">
        <ele>121</ele>
        <time>2022-08-18T09:39:43Z</time>
      </trkpt>
      <trkpt lat="43.90165" lon="0.15012">
        <ele>121</ele>
        <time>2022-08-18T09:39:47Z</time>
      </trkpt>
      <trkpt lat="43.90162" lon="0.15005">
        <ele>121</ele>
        <time>2022-08-18T09:39:51Z</time>
      </trkpt>
      <trkpt lat="43.90135" lon="0.14972">
        <ele>121</ele>
        <time>2022-08-18T09:40:22Z</time>
      </trkpt>
      <trkpt lat="43.90124" lon="0.14958">
        <ele>121</ele>
        <time>2022-08-18T09:40:46Z</time>
      </trkpt>
      <trkpt lat="43.90116" lon="0.14954">
        <ele>121</ele>
        <time>2022-08-18T09:41:04Z</time>
      </trkpt>
      <trkpt lat="43.90114" lon="0.14944">
        <ele>121</ele>
        <time>2022-08-18T09:41:18Z</time>
      </trkpt>
      <trkpt lat="43.90106" lon="0.14931">
        <ele>121</ele>
        <time>2022-08-18T09:41:29Z</time>
      </trkpt>
      <trkpt lat="43.90101" lon="0.14927">
        <ele>121</ele>
        <time>2022-08-18T09:41:34Z</time>
      </trkpt>
      <trkpt lat="43.90097" lon="0.14922">
        <ele>121</ele>
        <time>2022-08-18T09:41:38Z</time>
      </trkpt>
      <trkpt lat="43.90091" lon="0.14915">
        <ele>122</ele>
        <time>2022-08-18T09:41:49Z</time>
      </trkpt>
      <trkpt lat="43.90082" lon="0.1489">
        <ele>122</ele>
        <time>2022-08-18T09:42:06Z</time>
      </trkpt>
      <trkpt lat="43.90078" lon="0.14884">
        <ele>122</ele>
        <time>2022-08-18T09:42:11Z</time>
      </trkpt>
      <trkpt lat="43.90074" lon="0.14881">
        <ele>122</ele>
        <time>2022-08-18T09:42:14Z</time>
      </trkpt>
      <trkpt lat="43.90065" lon="0.14855">
        <ele>123</ele>
        <time>2022-08-18T09:42:33Z</time>
      </trkpt>
      <trkpt lat="43.90039" lon="0.14806">
        <ele>124</ele>
        <time>2022-08-18T09:43:06Z</time>
      </trkpt>
      <trkpt lat="43.90036" lon="0.148">
        <ele>124</ele>
        <time>2022-08-18T09:43:10Z</time>
      </trkpt>
      <trkpt lat="43.90034" lon="0.14794">
        <ele>124</ele>
        <time>2022-08-18T09:43:14Z</time>
      </trkpt>
      <trkpt lat="43.90034" lon="0.14786">
        <ele>124</ele>
        <time>2022-08-18T09:43:19Z</time>
      </trkpt>
      <trkpt lat="43.90028" lon="0.14778">
        <ele>124</ele>
        <time>2022-08-18T09:43:39Z</time>
      </trkpt>
      <trkpt lat="43.90028" lon="0.14767">
        <ele>124</ele>
        <time>2022-08-18T09:43:50Z</time>
      </trkpt>
      <trkpt lat="43.90021" lon="0.14755">
        <ele>124</ele>
        <time>2022-08-18T09:44:01Z</time>
      </trkpt>
      <trkpt lat="43.90017" lon="0.1474">
        <ele>124</ele>
        <time>2022-08-18T09:44:21Z</time>
      </trkpt>
      <trkpt lat="43.90019" lon="0.14733">
        <ele>125</ele>
        <time>2022-08-18T09:44:33Z</time>
      </trkpt>
      <trkpt lat="43.90012" lon="0.14726">
        <ele>124</ele>
        <time>2022-08-18T09:44:46Z</time>
      </trkpt>
      <trkpt lat="43.90009" lon="0.14716">
        <ele>124</ele>
        <time>2022-08-18T09:44:57Z</time>
      </trkpt>
      <trkpt lat="43.90005" lon="0.14685">
        <ele>125</ele>
        <time>2022-08-18T09:45:18Z</time>
      </trkpt>
      <trkpt lat="43.90002" lon="0.14679">
        <ele>125</ele>
        <time>2022-08-18T09:45:24Z</time>
      </trkpt>
      <trkpt lat="43.90001" lon="0.1467">
        <ele>125</ele>
        <time>2022-08-18T09:45:30Z</time>
      </trkpt>
      <trkpt lat="43.90002" lon="0.14663">
        <ele>125</ele>
        <time>2022-08-18T09:45:34Z</time>
      </trkpt>
      <trkpt lat="43.89993" lon="0.14608">
        <ele>125</ele>
        <time>2022-08-18T09:46:05Z</time>
      </trkpt>
      <trkpt lat="43.89993" lon="0.146">
        <ele>125</ele>
        <time>2022-08-18T09:46:09Z</time>
      </trkpt>
      <trkpt lat="43.8999" lon="0.14593">
        <ele>125</ele>
        <time>2022-08-18T09:46:15Z</time>
      </trkpt>
      <trkpt lat="43.8999" lon="0.14584">
        <ele>125</ele>
        <time>2022-08-18T09:46:20Z</time>
      </trkpt>
      <trkpt lat="43.89992" lon="0.14576">
        <ele>125</ele>
        <time>2022-08-18T09:46:25Z</time>
      </trkpt>
      <trkpt lat="43.89988" lon="0.14551">
        <ele>125</ele>
        <time>2022-08-18T09:46:39Z</time>
      </trkpt>
      <trkpt lat="43.89985" lon="0.14537">
        <ele>125</ele>
        <time>2022-08-18T09:46:47Z</time>
      </trkpt>
      <trkpt lat="43.89984" lon="0.14529">
        <ele>125</ele>
        <time>2022-08-18T09:46:51Z</time>
      </trkpt>
      <trkpt lat="43.89985" lon="0.14508">
        <ele>125</ele>
        <time>2022-08-18T09:47:04Z</time>
      </trkpt>
      <trkpt lat="43.89981" lon="0.14491">
        <ele>125</ele>
        <time>2022-08-18T09:47:15Z</time>
      </trkpt>
      <trkpt lat="43.89981" lon="0.14475">
        <ele>125</ele>
        <time>2022-08-18T09:47:22Z</time>
      </trkpt>
      <trkpt lat="43.89976" lon="0.14438">
        <ele>125</ele>
        <time>2022-08-18T09:47:45Z</time>
      </trkpt>
      <trkpt lat="43.89974" lon="0.14432">
        <ele>125</ele>
        <time>2022-08-18T09:47:49Z</time>
      </trkpt>
      <trkpt lat="43.89975" lon="0.14425">
        <ele>125</ele>
        <time>2022-08-18T09:47:54Z</time>
      </trkpt>
      <trkpt lat="43.89976" lon="0.14415">
        <ele>125</ele>
        <time>2022-08-18T09:48:01Z</time>
      </trkpt>
      <trkpt lat="43.89973" lon="0.14407">
        <ele>125</ele>
        <time>2022-08-18T09:48:08Z</time>
      </trkpt>
      <trkpt lat="43.8997" lon="0.14402">
        <ele>125</ele>
        <time>2022-08-18T09:48:13Z</time>
      </trkpt>
      <trkpt lat="43.89971" lon="0.14388">
        <ele>125</ele>
        <time>2022-08-18T09:48:27Z</time>
      </trkpt>
      <trkpt lat="43.8997" lon="0.14381">
        <ele>125</ele>
        <time>2022-08-18T09:48:32Z</time>
      </trkpt>
      <trkpt lat="43.8997" lon="0.1436">
        <ele>125</ele>
        <time>2022-08-18T09:48:46Z</time>
      </trkpt>
      <trkpt lat="43.89965" lon="0.14358">
        <ele>124</ele>
        <time>2022-08-18T09:49:01Z</time>
      </trkpt>
      <trkpt lat="43.89966" lon="0.14349">
        <ele>124</ele>
        <time>2022-08-18T09:49:18Z</time>
      </trkpt>
      <trkpt lat="43.89965" lon="0.14338">
        <ele>124</ele>
        <time>2022-08-18T09:49:30Z</time>
      </trkpt>
      <trkpt lat="43.89966" lon="0.14329">
        <ele>124</ele>
        <time>2022-08-18T09:49:38Z</time>
      </trkpt>
      <trkpt lat="43.8996" lon="0.14305">
        <ele>124</ele>
        <time>2022-08-18T09:49:57Z</time>
      </trkpt>
      <trkpt lat="43.89958" lon="0.14282">
        <ele>125</ele>
        <time>2022-08-18T09:50:11Z</time>
      </trkpt>
      <trkpt lat="43.89959" lon="0.14275">
        <ele>125</ele>
        <time>2022-08-18T09:50:16Z</time>
      </trkpt>
      <trkpt lat="43.89956" lon="0.14261">
        <ele>125</ele>
        <time>2022-08-18T09:50:24Z</time>
      </trkpt>
      <trkpt lat="43.89954" lon="0.14227">
        <ele>125</ele>
        <time>2022-08-18T09:50:44Z</time>
      </trkpt>
      <trkpt lat="43.89948" lon="0.1418">
        <ele>125</ele>
        <time>2022-08-18T09:51:10Z</time>
      </trkpt>
      <trkpt lat="43.89948" lon="0.14151">
        <ele>124</ele>
        <time>2022-08-18T09:51:27Z</time>
      </trkpt>
      <trkpt lat="43.89944" lon="0.14139">
        <ele>124</ele>
        <time>2022-08-18T09:51:34Z</time>
      </trkpt>
      <trkpt lat="43.8994" lon="0.14097">
        <ele>124</ele>
        <time>2022-08-18T09:51:57Z</time>
      </trkpt>
      <trkpt lat="43.89938" lon="0.14086">
        <ele>125</ele>
        <time>2022-08-18T09:52:10Z</time>
      </trkpt>
      <trkpt lat="43.89937" lon="0.14057">
        <ele>125</ele>
        <time>2022-08-18T09:52:25Z</time>
      </trkpt>
      <trkpt lat="43.89936" lon="0.14043">
        <ele>125</ele>
        <time>2022-08-18T09:52:33Z</time>
      </trkpt>
      <trkpt lat="43.89932" lon="0.14015">
        <ele>125</ele>
        <time>2022-08-18T09:52:50Z</time>
      </trkpt>
      <trkpt lat="43.89932" lon="0.14006">
        <ele>125</ele>
        <time>2022-08-18T09:52:55Z</time>
      </trkpt>
      <trkpt lat="43.89929" lon="0.13987">
        <ele>125</ele>
        <time>2022-08-18T09:53:07Z</time>
      </trkpt>
      <trkpt lat="43.89933" lon="0.13978">
        <ele>124</ele>
        <time>2022-08-18T09:53:36Z</time>
      </trkpt>
      <trkpt lat="43.89926" lon="0.13943">
        <ele>124</ele>
        <time>2022-08-18T09:54:10Z</time>
      </trkpt>
      <trkpt lat="43.89926" lon="0.13934">
        <ele>125</ele>
        <time>2022-08-18T09:54:16Z</time>
      </trkpt>
      <trkpt lat="43.89924" lon="0.13927">
        <ele>124</ele>
        <time>2022-08-18T09:54:21Z</time>
      </trkpt>
      <trkpt lat="43.89924" lon="0.13921">
        <ele>124</ele>
        <time>2022-08-18T09:54:25Z</time>
      </trkpt>
      <trkpt lat="43.89922" lon="0.139">
        <ele>124</ele>
        <time>2022-08-18T09:54:38Z</time>
      </trkpt>
      <trkpt lat="43.89921" lon="0.13893">
        <ele>124</ele>
        <time>2022-08-18T09:54:42Z</time>
      </trkpt>
      <trkpt lat="43.89914" lon="0.13837">
        <ele>124</ele>
        <time>2022-08-18T09:55:14Z</time>
      </trkpt>
      <trkpt lat="43.89914" lon="0.1383">
        <ele>124</ele>
        <time>2022-08-18T09:55:18Z</time>
      </trkpt>
      <trkpt lat="43.89909" lon="0.13784">
        <ele>124</ele>
        <time>2022-08-18T09:55:49Z</time>
      </trkpt>
      <trkpt lat="43.89908" lon="0.13777">
        <ele>125</ele>
        <time>2022-08-18T09:55:53Z</time>
      </trkpt>
      <trkpt lat="43.89906" lon="0.13747">
        <ele>123</ele>
        <time>2022-08-18T09:56:11Z</time>
      </trkpt>
      <trkpt lat="43.89902" lon="0.13718">
        <ele>124</ele>
        <time>2022-08-18T09:56:28Z</time>
      </trkpt>
      <trkpt lat="43.89901" lon="0.13703">
        <ele>123</ele>
        <time>2022-08-18T09:56:37Z</time>
      </trkpt>
      <trkpt lat="43.89898" lon="0.13686">
        <ele>124</ele>
        <time>2022-08-18T09:56:48Z</time>
      </trkpt>
      <trkpt lat="43.89898" lon="0.13625">
        <ele>124</ele>
        <time>2022-08-18T09:57:23Z</time>
      </trkpt>
      <trkpt lat="43.89896" lon="0.13575">
        <ele>125</ele>
        <time>2022-08-18T09:57:55Z</time>
      </trkpt>
      <trkpt lat="43.89896" lon="0.13567">
        <ele>125</ele>
        <time>2022-08-18T09:57:59Z</time>
      </trkpt>
      <trkpt lat="43.89898" lon="0.13561">
        <ele>125</ele>
        <time>2022-08-18T09:58:02Z</time>
      </trkpt>
      <trkpt lat="43.89899" lon="0.13553">
        <ele>125</ele>
        <time>2022-08-18T09:58:06Z</time>
      </trkpt>
      <trkpt lat="43.89897" lon="0.13545">
        <ele>125</ele>
        <time>2022-08-18T09:58:10Z</time>
      </trkpt>
      <trkpt lat="43.89896" lon="0.1351">
        <ele>125</ele>
        <time>2022-08-18T09:58:31Z</time>
      </trkpt>
      <trkpt lat="43.89894" lon="0.13503">
        <ele>125</ele>
        <time>2022-08-18T09:58:35Z</time>
      </trkpt>
      <trkpt lat="43.89896" lon="0.13497">
        <ele>125</ele>
        <time>2022-08-18T09:58:43Z</time>
      </trkpt>
      <trkpt lat="43.89898" lon="0.13485">
        <ele>125</ele>
        <time>2022-08-18T09:58:54Z</time>
      </trkpt>
      <trkpt lat="43.89895" lon="0.13434">
        <ele>126</ele>
        <time>2022-08-18T09:59:25Z</time>
      </trkpt>
      <trkpt lat="43.8989" lon="0.13374">
        <ele>127</ele>
        <time>2022-08-18T10:00:02Z</time>
      </trkpt>
      <trkpt lat="43.89879" lon="0.13322">
        <ele>128</ele>
        <time>2022-08-18T10:00:34Z</time>
      </trkpt>
      <trkpt lat="43.89877" lon="0.13314">
        <ele>128</ele>
        <time>2022-08-18T10:00:39Z</time>
      </trkpt>
      <trkpt lat="43.89875" lon="0.13299">
        <ele>128</ele>
        <time>2022-08-18T10:00:48Z</time>
      </trkpt>
      <trkpt lat="43.89867" lon="0.13282">
        <ele>128</ele>
        <time>2022-08-18T10:01:00Z</time>
      </trkpt>
      <trkpt lat="43.89865" lon="0.13268">
        <ele>128</ele>
        <time>2022-08-18T10:01:07Z</time>
      </trkpt>
      <trkpt lat="43.89857" lon="0.13249">
        <ele>128</ele>
        <time>2022-08-18T10:01:19Z</time>
      </trkpt>
      <trkpt lat="43.89854" lon="0.13235">
        <ele>128</ele>
        <time>2022-08-18T10:01:27Z</time>
      </trkpt>
      <trkpt lat="43.89851" lon="0.13227">
        <ele>128</ele>
        <time>2022-08-18T10:01:31Z</time>
      </trkpt>
      <trkpt lat="43.89838" lon="0.13182">
        <ele>128</ele>
        <time>2022-08-18T10:02:04Z</time>
      </trkpt>
      <trkpt lat="43.89815" lon="0.13135">
        <ele>130</ele>
        <time>2022-08-18T10:02:36Z</time>
      </trkpt>
      <trkpt lat="43.89798" lon="0.13106">
        <ele>130</ele>
        <time>2022-08-18T10:02:56Z</time>
      </trkpt>
      <trkpt lat="43.89794" lon="0.13103">
        <ele>130</ele>
        <time>2022-08-18T10:03:01Z</time>
      </trkpt>
      <trkpt lat="43.89779" lon="0.1308">
        <ele>131</ele>
        <time>2022-08-18T10:03:17Z</time>
      </trkpt>
      <trkpt lat="43.89753" lon="0.13045">
        <ele>131</ele>
        <time>2022-08-18T10:03:49Z</time>
      </trkpt>
      <trkpt lat="43.89721" lon="0.13011">
        <ele>132</ele>
        <time>2022-08-18T10:04:20Z</time>
      </trkpt>
      <trkpt lat="43.89712" lon="0.12999">
        <ele>131</ele>
        <time>2022-08-18T10:04:28Z</time>
      </trkpt>
      <trkpt lat="43.89709" lon="0.12994">
        <ele>132</ele>
        <time>2022-08-18T10:04:32Z</time>
      </trkpt>
      <trkpt lat="43.89675" lon="0.12951">
        <ele>132</ele>
        <time>2022-08-18T10:05:07Z</time>
      </trkpt>
      <trkpt lat="43.89643" lon="0.12912">
        <ele>133</ele>
        <time>2022-08-18T10:05:41Z</time>
      </trkpt>
      <trkpt lat="43.8963" lon="0.12897">
        <ele>134</ele>
        <time>2022-08-18T10:05:55Z</time>
      </trkpt>
      <trkpt lat="43.89622" lon="0.1289">
        <ele>134</ele>
        <time>2022-08-18T10:06:01Z</time>
      </trkpt>
      <trkpt lat="43.89589" lon="0.12849">
        <ele>135</ele>
        <time>2022-08-18T10:06:35Z</time>
      </trkpt>
      <trkpt lat="43.89575" lon="0.12834">
        <ele>135</ele>
        <time>2022-08-18T10:06:47Z</time>
      </trkpt>
      <trkpt lat="43.8957" lon="0.12831">
        <ele>135</ele>
        <time>2022-08-18T10:06:51Z</time>
      </trkpt>
      <trkpt lat="43.89541" lon="0.12797">
        <ele>135</ele>
        <time>2022-08-18T10:07:21Z</time>
      </trkpt>
      <trkpt lat="43.89531" lon="0.12783">
        <ele>135</ele>
        <time>2022-08-18T10:07:32Z</time>
      </trkpt>
      <trkpt lat="43.89526" lon="0.1278">
        <ele>135</ele>
        <time>2022-08-18T10:07:36Z</time>
      </trkpt>
      <trkpt lat="43.89513" lon="0.12764">
        <ele>135</ele>
        <time>2022-08-18T10:07:48Z</time>
      </trkpt>
      <trkpt lat="43.89495" lon="0.12738">
        <ele>137</ele>
        <time>2022-08-18T10:08:20Z</time>
      </trkpt>
      <trkpt lat="43.89475" lon="0.12712">
        <ele>137</ele>
        <time>2022-08-18T10:08:43Z</time>
      </trkpt>
      <trkpt lat="43.89468" lon="0.12704">
        <ele>137</ele>
        <time>2022-08-18T10:08:51Z</time>
      </trkpt>
      <trkpt lat="43.89432" lon="0.12667">
        <ele>138</ele>
        <time>2022-08-18T10:09:24Z</time>
      </trkpt>
      <trkpt lat="43.89427" lon="0.12664">
        <ele>138</ele>
        <time>2022-08-18T10:09:28Z</time>
      </trkpt>
      <trkpt lat="43.89423" lon="0.12659">
        <ele>138</ele>
        <time>2022-08-18T10:09:32Z</time>
      </trkpt>
      <trkpt lat="43.89418" lon="0.12657">
        <ele>138</ele>
        <time>2022-08-18T10:09:37Z</time>
      </trkpt>
      <trkpt lat="43.89408" lon="0.12646">
        <ele>138</ele>
        <time>2022-08-18T10:09:47Z</time>
      </trkpt>
      <trkpt lat="43.89394" lon="0.12627">
        <ele>139</ele>
        <time>2022-08-18T10:10:18Z</time>
      </trkpt>
      <trkpt lat="43.89367" lon="0.12592">
        <ele>139</ele>
        <time>2022-08-18T10:10:48Z</time>
      </trkpt>
      <trkpt lat="43.89363" lon="0.12588">
        <ele>139</ele>
        <time>2022-08-18T10:10:52Z</time>
      </trkpt>
      <trkpt lat="43.89355" lon="0.12577">
        <ele>139</ele>
        <time>2022-08-18T10:11:01Z</time>
      </trkpt>
      <trkpt lat="43.89347" lon="0.12567">
        <ele>139</ele>
        <time>2022-08-18T10:11:11Z</time>
      </trkpt>
      <trkpt lat="43.89342" lon="0.1256">
        <ele>139</ele>
        <time>2022-08-18T10:11:17Z</time>
      </trkpt>
      <trkpt lat="43.89338" lon="0.12557">
        <ele>139</ele>
        <time>2022-08-18T10:11:21Z</time>
      </trkpt>
      <trkpt lat="43.89332" lon="0.12548">
        <ele>139</ele>
        <time>2022-08-18T10:11:28Z</time>
      </trkpt>
      <trkpt lat="43.89327" lon="0.12541">
        <ele>140</ele>
        <time>2022-08-18T10:11:34Z</time>
      </trkpt>
      <trkpt lat="43.89306" lon="0.12517">
        <ele>139</ele>
        <time>2022-08-18T10:12:07Z</time>
      </trkpt>
      <trkpt lat="43.89299" lon="0.12502">
        <ele>139</ele>
        <time>2022-08-18T10:12:17Z</time>
      </trkpt>
      <trkpt lat="43.89289" lon="0.12494">
        <ele>138</ele>
        <time>2022-08-18T10:12:26Z</time>
      </trkpt>
      <trkpt lat="43.89285" lon="0.12488">
        <ele>138</ele>
        <time>2022-08-18T10:12:31Z</time>
      </trkpt>
      <trkpt lat="43.8928" lon="0.12484">
        <ele>138</ele>
        <time>2022-08-18T10:12:35Z</time>
      </trkpt>
      <trkpt lat="43.89259" lon="0.12448">
        <ele>138</ele>
        <time>2022-08-18T10:13:02Z</time>
      </trkpt>
      <trkpt lat="43.89241" lon="0.12427">
        <ele>138</ele>
        <time>2022-08-18T10:13:20Z</time>
      </trkpt>
      <trkpt lat="43.89219" lon="0.12389">
        <ele>139</ele>
        <time>2022-08-18T10:13:49Z</time>
      </trkpt>
      <trkpt lat="43.89214" lon="0.12386">
        <ele>139</ele>
        <time>2022-08-18T10:13:53Z</time>
      </trkpt>
      <trkpt lat="43.89206" lon="0.12369">
        <ele>139</ele>
        <time>2022-08-18T10:14:05Z</time>
      </trkpt>
      <trkpt lat="43.89194" lon="0.12355">
        <ele>139</ele>
        <time>2022-08-18T10:14:18Z</time>
      </trkpt>
      <trkpt lat="43.89164" lon="0.12312">
        <ele>140</ele>
        <time>2022-08-18T10:14:50Z</time>
      </trkpt>
      <trkpt lat="43.8916" lon="0.12307">
        <ele>140</ele>
        <time>2022-08-18T10:14:54Z</time>
      </trkpt>
      <trkpt lat="43.89157" lon="0.123">
        <ele>140</ele>
        <time>2022-08-18T10:14:59Z</time>
      </trkpt>
      <trkpt lat="43.89131" lon="0.1226">
        <ele>140</ele>
        <time>2022-08-18T10:15:32Z</time>
      </trkpt>
      <trkpt lat="43.8911" lon="0.1223">
        <ele>140</ele>
        <time>2022-08-18T10:16:01Z</time>
      </trkpt>
      <trkpt lat="43.89097" lon="0.12207">
        <ele>139</ele>
        <time>2022-08-18T10:16:18Z</time>
      </trkpt>
      <trkpt lat="43.89081" lon="0.12185">
        <ele>139</ele>
        <time>2022-08-18T10:16:39Z</time>
      </trkpt>
      <trkpt lat="43.89069" lon="0.12161">
        <ele>140</ele>
        <time>2022-08-18T10:16:56Z</time>
      </trkpt>
      <trkpt lat="43.89065" lon="0.12157">
        <ele>140</ele>
        <time>2022-08-18T10:17:00Z</time>
      </trkpt>
      <trkpt lat="43.89048" lon="0.12125">
        <ele>139</ele>
        <time>2022-08-18T10:17:23Z</time>
      </trkpt>
      <trkpt lat="43.89021" lon="0.12077">
        <ele>140</ele>
        <time>2022-08-18T10:17:57Z</time>
      </trkpt>
      <trkpt lat="43.88997" lon="0.12036">
        <ele>141</ele>
        <time>2022-08-18T10:18:29Z</time>
      </trkpt>
      <trkpt lat="43.88975" lon="0.11995">
        <ele>142</ele>
        <time>2022-08-18T10:19:00Z</time>
      </trkpt>
      <trkpt lat="43.88952" lon="0.11949">
        <ele>142</ele>
        <time>2022-08-18T10:19:31Z</time>
      </trkpt>
      <trkpt lat="43.88949" lon="0.11943">
        <ele>142</ele>
        <time>2022-08-18T10:19:35Z</time>
      </trkpt>
      <trkpt lat="43.88944" lon="0.11931">
        <ele>142</ele>
        <time>2022-08-18T10:19:44Z</time>
      </trkpt>
      <trkpt lat="43.8894" lon="0.11925">
        <ele>142</ele>
        <time>2022-08-18T10:19:48Z</time>
      </trkpt>
      <trkpt lat="43.88931" lon="0.11909">
        <ele>142</ele>
        <time>2022-08-18T10:20:01Z</time>
      </trkpt>
      <trkpt lat="43.88926" lon="0.11895">
        <ele>142</ele>
        <time>2022-08-18T10:20:10Z</time>
      </trkpt>
      <trkpt lat="43.88904" lon="0.11852">
        <ele>143</ele>
        <time>2022-08-18T10:20:40Z</time>
      </trkpt>
      <trkpt lat="43.88888" lon="0.1182">
        <ele>143</ele>
        <time>2022-08-18T10:21:02Z</time>
      </trkpt>
      <trkpt lat="43.88882" lon="0.11806">
        <ele>143</ele>
        <time>2022-08-18T10:21:13Z</time>
      </trkpt>
      <trkpt lat="43.8888" lon="0.11792">
        <ele>142</ele>
        <time>2022-08-18T10:21:23Z</time>
      </trkpt>
      <trkpt lat="43.88875" lon="0.11788">
        <ele>142</ele>
        <time>2022-08-18T10:21:33Z</time>
      </trkpt>
      <trkpt lat="43.88872" lon="0.11782">
        <ele>142</ele>
        <time>2022-08-18T10:21:36Z</time>
      </trkpt>
      <trkpt lat="43.88871" lon="0.11777">
        <ele>142</ele>
        <time>2022-08-18T10:21:39Z</time>
      </trkpt>
      <trkpt lat="43.88868" lon="0.11771">
        <ele>142</ele>
        <time>2022-08-18T10:21:43Z</time>
      </trkpt>
      <trkpt lat="43.88864" lon="0.11761">
        <ele>143</ele>
        <time>2022-08-18T10:21:50Z</time>
      </trkpt>
      <trkpt lat="43.88861" lon="0.11756">
        <ele>143</ele>
        <time>2022-08-18T10:21:54Z</time>
      </trkpt>
      <trkpt lat="43.88855" lon="0.11744">
        <ele>143</ele>
        <time>2022-08-18T10:22:03Z</time>
      </trkpt>
      <trkpt lat="43.88837" lon="0.11705">
        <ele>144</ele>
        <time>2022-08-18T10:22:33Z</time>
      </trkpt>
      <trkpt lat="43.88831" lon="0.11693">
        <ele>144</ele>
        <time>2022-08-18T10:22:41Z</time>
      </trkpt>
      <trkpt lat="43.88829" lon="0.11686">
        <ele>144</ele>
        <time>2022-08-18T10:22:44Z</time>
      </trkpt>
      <trkpt lat="43.88826" lon="0.11682">
        <ele>144</ele>
        <time>2022-08-18T10:22:48Z</time>
      </trkpt>
      <trkpt lat="43.88813" lon="0.11648">
        <ele>145</ele>
        <time>2022-08-18T10:23:10Z</time>
      </trkpt>
      <trkpt lat="43.88807" lon="0.11637">
        <ele>145</ele>
        <time>2022-08-18T10:23:17Z</time>
      </trkpt>
      <trkpt lat="43.888" lon="0.11614">
        <ele>146</ele>
        <time>2022-08-18T10:23:56Z</time>
      </trkpt>
      <trkpt lat="43.88796" lon="0.11607">
        <ele>146</ele>
        <time>2022-08-18T10:24:04Z</time>
      </trkpt>
      <trkpt lat="43.88792" lon="0.116">
        <ele>146</ele>
        <time>2022-08-18T10:24:11Z</time>
      </trkpt>
      <trkpt lat="43.88775" lon="0.11555">
        <ele>147</ele>
        <time>2022-08-18T10:24:42Z</time>
      </trkpt>
      <trkpt lat="43.88755" lon="0.1151">
        <ele>148</ele>
        <time>2022-08-18T10:25:15Z</time>
      </trkpt>
      <trkpt lat="43.88753" lon="0.11503">
        <ele>147</ele>
        <time>2022-08-18T10:25:20Z</time>
      </trkpt>
      <trkpt lat="43.8875" lon="0.11496">
        <ele>147</ele>
        <time>2022-08-18T10:25:24Z</time>
      </trkpt>
      <trkpt lat="43.88748" lon="0.11484">
        <ele>148</ele>
        <time>2022-08-18T10:26:04Z</time>
      </trkpt>
      <trkpt lat="43.88728" lon="0.11433">
        <ele>149</ele>
        <time>2022-08-18T10:26:36Z</time>
      </trkpt>
      <trkpt lat="43.88712" lon="0.11385">
        <ele>150</ele>
        <time>2022-08-18T10:27:08Z</time>
      </trkpt>
      <trkpt lat="43.88708" lon="0.11372">
        <ele>150</ele>
        <time>2022-08-18T10:27:16Z</time>
      </trkpt>
      <trkpt lat="43.88702" lon="0.11352">
        <ele>150</ele>
        <time>2022-08-18T10:27:33Z</time>
      </trkpt>
      <trkpt lat="43.88699" lon="0.11345">
        <ele>150</ele>
        <time>2022-08-18T10:27:38Z</time>
      </trkpt>
      <trkpt lat="43.88689" lon="0.11311">
        <ele>150</ele>
        <time>2022-08-18T10:27:59Z</time>
      </trkpt>
      <trkpt lat="43.88688" lon="0.11305">
        <ele>150</ele>
        <time>2022-08-18T10:28:04Z</time>
      </trkpt>
      <trkpt lat="43.8868" lon="0.11273">
        <ele>150</ele>
        <time>2022-08-18T10:28:35Z</time>
      </trkpt>
      <trkpt lat="43.8868" lon="0.11277">
        <ele>150</ele>
        <time>2022-08-18T10:29:51Z</time>
      </trkpt>
      <trkpt lat="43.88681" lon="0.11284">
        <ele>149</ele>
        <time>2022-08-18T10:31:04Z</time>
      </trkpt>
      <trkpt lat="43.88674" lon="0.11296">
        <ele>149</ele>
        <time>2022-08-18T10:31:42Z</time>
      </trkpt>
      <trkpt lat="43.88678" lon="0.11298">
        <ele>149</ele>
        <time>2022-08-18T10:32:10Z</time>
      </trkpt>
      <trkpt lat="43.88679" lon="0.11283">
        <ele>149</ele>
        <time>2022-08-18T10:32:43Z</time>
      </trkpt>
      <trkpt lat="43.88682" lon="0.11279">
        <ele>149</ele>
        <time>2022-08-18T10:33:40Z</time>
      </trkpt>
      <trkpt lat="43.88684" lon="0.11282">
        <ele>150</ele>
        <time>2022-08-18T10:49:26Z</time>
      </trkpt>
      <trkpt lat="43.88682" lon="0.11285">
        <ele>150</ele>
        <time>2022-08-18T10:51:00Z</time>
      </trkpt>
      <trkpt lat="43.88687" lon="0.11274">
        <ele>150</ele>
        <time>2022-08-18T10:51:53Z</time>
      </trkpt>
      <trkpt lat="43.88682" lon="0.11272">
        <ele>150</ele>
        <time>2022-08-18T10:52:43Z</time>
      </trkpt>
      <trkpt lat="43.8868" lon="0.11266">
        <ele>150</ele>
        <time>2022-08-18T10:53:31Z</time>
      </trkpt>
      <trkpt lat="43.88682" lon="0.11279">
        <ele>150</ele>
        <time>2022-08-18T10:54:30Z</time>
      </trkpt>
      <trkpt lat="43.88683" lon="0.11282">
        <ele>150</ele>
        <time>2022-08-18T10:56:43Z</time>
      </trkpt>
      <trkpt lat="43.88684" lon="0.11275">
        <ele>149</ele>
        <time>2022-08-18T10:57:18Z</time>
      </trkpt>
      <trkpt lat="43.88684" lon="0.11271">
        <ele>150</ele>
        <time>2022-08-18T10:57:32Z</time>
      </trkpt>
      <trkpt lat="43.8868" lon="0.11265">
        <ele>150</ele>
        <time>2022-08-18T11:01:37Z</time>
      </trkpt>
      <trkpt lat="43.88676" lon="0.11255">
        <ele>150</ele>
        <time>2022-08-18T11:01:59Z</time>
      </trkpt>
      <trkpt lat="43.88674" lon="0.11246">
        <ele>150</ele>
        <time>2022-08-18T11:02:06Z</time>
      </trkpt>
      <trkpt lat="43.88665" lon="0.11221">
        <ele>150</ele>
        <time>2022-08-18T11:02:23Z</time>
      </trkpt>
      <trkpt lat="43.88654" lon="0.11174">
        <ele>151</ele>
        <time>2022-08-18T11:02:54Z</time>
      </trkpt>
      <trkpt lat="43.88643" lon="0.11118">
        <ele>152</ele>
        <time>2022-08-18T11:03:27Z</time>
      </trkpt>
      <trkpt lat="43.88631" lon="0.11063">
        <ele>153</ele>
        <time>2022-08-18T11:03:59Z</time>
      </trkpt>
      <trkpt lat="43.88624" lon="0.11027">
        <ele>154</ele>
        <time>2022-08-18T11:04:20Z</time>
      </trkpt>
      <trkpt lat="43.88617" lon="0.10978">
        <ele>154</ele>
        <time>2022-08-18T11:04:49Z</time>
      </trkpt>
      <trkpt lat="43.88606" lon="0.10923">
        <ele>155</ele>
        <time>2022-08-18T11:05:22Z</time>
      </trkpt>
      <trkpt lat="43.88599" lon="0.1088">
        <ele>155</ele>
        <time>2022-08-18T11:05:45Z</time>
      </trkpt>
      <trkpt lat="43.88598" lon="0.10873">
        <ele>155</ele>
        <time>2022-08-18T11:05:50Z</time>
      </trkpt>
      <trkpt lat="43.88589" lon="0.10819">
        <ele>155</ele>
        <time>2022-08-18T11:06:18Z</time>
      </trkpt>
      <trkpt lat="43.88574" lon="0.10765">
        <ele>155</ele>
        <time>2022-08-18T11:06:51Z</time>
      </trkpt>
      <trkpt lat="43.88561" lon="0.10732">
        <ele>155</ele>
        <time>2022-08-18T11:07:11Z</time>
      </trkpt>
      <trkpt lat="43.88559" lon="0.10725">
        <ele>155</ele>
        <time>2022-08-18T11:07:15Z</time>
      </trkpt>
      <trkpt lat="43.88545" lon="0.10694">
        <ele>155</ele>
        <time>2022-08-18T11:07:36Z</time>
      </trkpt>
      <trkpt lat="43.88518" lon="0.10655">
        <ele>154</ele>
        <time>2022-08-18T11:08:07Z</time>
      </trkpt>
      <trkpt lat="43.88485" lon="0.10615">
        <ele>154</ele>
        <time>2022-08-18T11:08:40Z</time>
      </trkpt>
      <trkpt lat="43.88446" lon="0.10582">
        <ele>153</ele>
        <time>2022-08-18T11:09:14Z</time>
      </trkpt>
      <trkpt lat="43.88405" lon="0.10565">
        <ele>153</ele>
        <time>2022-08-18T11:09:48Z</time>
      </trkpt>
      <trkpt lat="43.884" lon="0.10563">
        <ele>153</ele>
        <time>2022-08-18T11:09:52Z</time>
      </trkpt>
      <trkpt lat="43.88384" lon="0.10557">
        <ele>153</ele>
        <time>2022-08-18T11:10:04Z</time>
      </trkpt>
      <trkpt lat="43.88379" lon="0.10557">
        <ele>153</ele>
        <time>2022-08-18T11:10:08Z</time>
      </trkpt>
      <trkpt lat="43.88345" lon="0.10546">
        <ele>153</ele>
        <time>2022-08-18T11:10:33Z</time>
      </trkpt>
      <trkpt lat="43.8833" lon="0.10545">
        <ele>153</ele>
        <time>2022-08-18T11:10:46Z</time>
      </trkpt>
      <trkpt lat="43.88324" lon="0.10547">
        <ele>153</ele>
        <time>2022-08-18T11:10:50Z</time>
      </trkpt>
      <trkpt lat="43.88314" lon="0.10547">
        <ele>153</ele>
        <time>2022-08-18T11:10:57Z</time>
      </trkpt>
      <trkpt lat="43.88304" lon="0.10549">
        <ele>152</ele>
        <time>2022-08-18T11:11:04Z</time>
      </trkpt>
      <trkpt lat="43.883" lon="0.10552">
        <ele>152</ele>
        <time>2022-08-18T11:11:08Z</time>
      </trkpt>
      <trkpt lat="43.88294" lon="0.10552">
        <ele>152</ele>
        <time>2022-08-18T11:11:13Z</time>
      </trkpt>
      <trkpt lat="43.88257" lon="0.10562">
        <ele>151</ele>
        <time>2022-08-18T11:11:44Z</time>
      </trkpt>
      <trkpt lat="43.88213" lon="0.10577">
        <ele>150</ele>
        <time>2022-08-18T11:12:18Z</time>
      </trkpt>
      <trkpt lat="43.88208" lon="0.10577">
        <ele>150</ele>
        <time>2022-08-18T11:12:22Z</time>
      </trkpt>
      <trkpt lat="43.88183" lon="0.10584">
        <ele>150</ele>
        <time>2022-08-18T11:12:40Z</time>
      </trkpt>
      <trkpt lat="43.88141" lon="0.10592">
        <ele>148</ele>
        <time>2022-08-18T11:13:12Z</time>
      </trkpt>
      <trkpt lat="43.88102" lon="0.10602">
        <ele>148</ele>
        <time>2022-08-18T11:13:43Z</time>
      </trkpt>
      <trkpt lat="43.88081" lon="0.10609">
        <ele>147</ele>
        <time>2022-08-18T11:14:00Z</time>
      </trkpt>
      <trkpt lat="43.88075" lon="0.1061">
        <ele>147</ele>
        <time>2022-08-18T11:14:03Z</time>
      </trkpt>
      <trkpt lat="43.88036" lon="0.10622">
        <ele>146</ele>
        <time>2022-08-18T11:14:34Z</time>
      </trkpt>
      <trkpt lat="43.87993" lon="0.10634">
        <ele>146</ele>
        <time>2022-08-18T11:15:07Z</time>
      </trkpt>
      <trkpt lat="43.87959" lon="0.10646">
        <ele>145</ele>
        <time>2022-08-18T11:15:34Z</time>
      </trkpt>
      <trkpt lat="43.87939" lon="0.10649">
        <ele>145</ele>
        <time>2022-08-18T11:15:49Z</time>
      </trkpt>
      <trkpt lat="43.87899" lon="0.10665">
        <ele>144</ele>
        <time>2022-08-18T11:16:22Z</time>
      </trkpt>
      <trkpt lat="43.87889" lon="0.10667">
        <ele>144</ele>
        <time>2022-08-18T11:16:30Z</time>
      </trkpt>
      <trkpt lat="43.87866" lon="0.10675">
        <ele>144</ele>
        <time>2022-08-18T11:16:53Z</time>
      </trkpt>
      <trkpt lat="43.87827" lon="0.10685">
        <ele>143</ele>
        <time>2022-08-18T11:17:24Z</time>
      </trkpt>
      <trkpt lat="43.87813" lon="0.10686">
        <ele>143</ele>
        <time>2022-08-18T11:17:36Z</time>
      </trkpt>
      <trkpt lat="43.87808" lon="0.10688">
        <ele>143</ele>
        <time>2022-08-18T11:17:40Z</time>
      </trkpt>
      <trkpt lat="43.87801" lon="0.10687">
        <ele>143</ele>
        <time>2022-08-18T11:17:44Z</time>
      </trkpt>
      <trkpt lat="43.87785" lon="0.1069">
        <ele>142</ele>
        <time>2022-08-18T11:17:56Z</time>
      </trkpt>
      <trkpt lat="43.87775" lon="0.10688">
        <ele>143</ele>
        <time>2022-08-18T11:18:05Z</time>
      </trkpt>
      <trkpt lat="43.8777" lon="0.10688">
        <ele>143</ele>
        <time>2022-08-18T11:18:09Z</time>
      </trkpt>
      <trkpt lat="43.87765" lon="0.10688">
        <ele>142</ele>
        <time>2022-08-18T11:18:13Z</time>
      </trkpt>
      <trkpt lat="43.87757" lon="0.1069">
        <ele>142</ele>
        <time>2022-08-18T11:18:21Z</time>
      </trkpt>
      <trkpt lat="43.87752" lon="0.1069">
        <ele>143</ele>
        <time>2022-08-18T11:18:25Z</time>
      </trkpt>
      <trkpt lat="43.87742" lon="0.10694">
        <ele>142</ele>
        <time>2022-08-18T11:18:32Z</time>
      </trkpt>
      <trkpt lat="43.87732" lon="0.10694">
        <ele>143</ele>
        <time>2022-08-18T11:18:40Z</time>
      </trkpt>
      <trkpt lat="43.87727" lon="0.10695">
        <ele>143</ele>
        <time>2022-08-18T11:18:44Z</time>
      </trkpt>
      <trkpt lat="43.87721" lon="0.10697">
        <ele>143</ele>
        <time>2022-08-18T11:18:48Z</time>
      </trkpt>
      <trkpt lat="43.8771" lon="0.10698">
        <ele>143</ele>
        <time>2022-08-18T11:18:57Z</time>
      </trkpt>
      <trkpt lat="43.877" lon="0.107">
        <ele>142</ele>
        <time>2022-08-18T11:19:05Z</time>
      </trkpt>
      <trkpt lat="43.87657" lon="0.1071">
        <ele>142</ele>
        <time>2022-08-18T11:19:40Z</time>
      </trkpt>
      <trkpt lat="43.87631" lon="0.10717">
        <ele>142</ele>
        <time>2022-08-18T11:20:01Z</time>
      </trkpt>
      <trkpt lat="43.87621" lon="0.10717">
        <ele>142</ele>
        <time>2022-08-18T11:20:09Z</time>
      </trkpt>
      <trkpt lat="43.87615" lon="0.1072">
        <ele>142</ele>
        <time>2022-08-18T11:20:13Z</time>
      </trkpt>
      <trkpt lat="43.8761" lon="0.10724">
        <ele>142</ele>
        <time>2022-08-18T11:20:17Z</time>
      </trkpt>
      <trkpt lat="43.87571" lon="0.10741">
        <ele>142</ele>
        <time>2022-08-18T11:20:48Z</time>
      </trkpt>
      <trkpt lat="43.87531" lon="0.10761">
        <ele>141</ele>
        <time>2022-08-18T11:21:23Z</time>
      </trkpt>
      <trkpt lat="43.87526" lon="0.10763">
        <ele>141</ele>
        <time>2022-08-18T11:21:27Z</time>
      </trkpt>
      <trkpt lat="43.87486" lon="0.10786">
        <ele>141</ele>
        <time>2022-08-18T11:22:01Z</time>
      </trkpt>
      <trkpt lat="43.87469" lon="0.10792">
        <ele>141</ele>
        <time>2022-08-18T11:22:14Z</time>
      </trkpt>
      <trkpt lat="43.87431" lon="0.10816">
        <ele>140</ele>
        <time>2022-08-18T11:22:44Z</time>
      </trkpt>
      <trkpt lat="43.87412" lon="0.10827">
        <ele>140</ele>
        <time>2022-08-18T11:23:00Z</time>
      </trkpt>
      <trkpt lat="43.87408" lon="0.10828">
        <ele>140</ele>
        <time>2022-08-18T11:23:03Z</time>
      </trkpt>
      <trkpt lat="43.87392" lon="0.10835">
        <ele>139</ele>
        <time>2022-08-18T11:23:17Z</time>
      </trkpt>
      <trkpt lat="43.87387" lon="0.10837">
        <ele>140</ele>
        <time>2022-08-18T11:23:21Z</time>
      </trkpt>
      <trkpt lat="43.87383" lon="0.10839">
        <ele>140</ele>
        <time>2022-08-18T11:23:25Z</time>
      </trkpt>
      <trkpt lat="43.87378" lon="0.10841">
        <ele>139</ele>
        <time>2022-08-18T11:23:29Z</time>
      </trkpt>
      <trkpt lat="43.87337" lon="0.10853">
        <ele>138</ele>
        <time>2022-08-18T11:24:02Z</time>
      </trkpt>
      <trkpt lat="43.87333" lon="0.10852">
        <ele>138</ele>
        <time>2022-08-18T11:24:06Z</time>
      </trkpt>
      <trkpt lat="43.87307" lon="0.10858">
        <ele>137</ele>
        <time>2022-08-18T11:24:27Z</time>
      </trkpt>
      <trkpt lat="43.87267" lon="0.10857">
        <ele>137</ele>
        <time>2022-08-18T11:24:58Z</time>
      </trkpt>
      <trkpt lat="43.87251" lon="0.10856">
        <ele>136</ele>
        <time>2022-08-18T11:25:12Z</time>
      </trkpt>
      <trkpt lat="43.87209" lon="0.10847">
        <ele>136</ele>
        <time>2022-08-18T11:25:45Z</time>
      </trkpt>
      <trkpt lat="43.87196" lon="0.1084">
        <ele>136</ele>
        <time>2022-08-18T11:25:58Z</time>
      </trkpt>
      <trkpt lat="43.87173" lon="0.10832">
        <ele>135</ele>
        <time>2022-08-18T11:26:34Z</time>
      </trkpt>
      <trkpt lat="43.87165" lon="0.10829">
        <ele>135</ele>
        <time>2022-08-18T11:26:44Z</time>
      </trkpt>
      <trkpt lat="43.8716" lon="0.10828">
        <ele>135</ele>
        <time>2022-08-18T11:26:48Z</time>
      </trkpt>
      <trkpt lat="43.8715" lon="0.10823">
        <ele>134</ele>
        <time>2022-08-18T11:26:56Z</time>
      </trkpt>
      <trkpt lat="43.87145" lon="0.10822">
        <ele>134</ele>
        <time>2022-08-18T11:26:59Z</time>
      </trkpt>
      <trkpt lat="43.87112" lon="0.10805">
        <ele>134</ele>
        <time>2022-08-18T11:27:31Z</time>
      </trkpt>
      <trkpt lat="43.87107" lon="0.10804">
        <ele>133</ele>
        <time>2022-08-18T11:27:35Z</time>
      </trkpt>
      <trkpt lat="43.87065" lon="0.10785">
        <ele>132</ele>
        <time>2022-08-18T11:28:07Z</time>
      </trkpt>
      <trkpt lat="43.87028" lon="0.10765">
        <ele>132</ele>
        <time>2022-08-18T11:28:38Z</time>
      </trkpt>
      <trkpt lat="43.86993" lon="0.10747">
        <ele>132</ele>
        <time>2022-08-18T11:29:08Z</time>
      </trkpt>
      <trkpt lat="43.86973" lon="0.10738">
        <ele>132</ele>
        <time>2022-08-18T11:29:25Z</time>
      </trkpt>
      <trkpt lat="43.86957" lon="0.1073">
        <ele>132</ele>
        <time>2022-08-18T11:30:00Z</time>
      </trkpt>
      <trkpt lat="43.86945" lon="0.10724">
        <ele>133</ele>
        <time>2022-08-18T11:30:11Z</time>
      </trkpt>
      <trkpt lat="43.86932" lon="0.10721">
        <ele>133</ele>
        <time>2022-08-18T11:30:23Z</time>
      </trkpt>
      <trkpt lat="43.8692" lon="0.10715">
        <ele>133</ele>
        <time>2022-08-18T11:30:34Z</time>
      </trkpt>
      <trkpt lat="43.86909" lon="0.10713">
        <ele>133</ele>
        <time>2022-08-18T11:30:43Z</time>
      </trkpt>
      <trkpt lat="43.86904" lon="0.10709">
        <ele>133</ele>
        <time>2022-08-18T11:30:48Z</time>
      </trkpt>
      <trkpt lat="43.86881" lon="0.10698">
        <ele>134</ele>
        <time>2022-08-18T11:31:08Z</time>
      </trkpt>
      <trkpt lat="43.86864" lon="0.10688">
        <ele>134</ele>
        <time>2022-08-18T11:31:22Z</time>
      </trkpt>
      <trkpt lat="43.86859" lon="0.10688">
        <ele>134</ele>
        <time>2022-08-18T11:31:26Z</time>
      </trkpt>
      <trkpt lat="43.86838" lon="0.10675">
        <ele>135</ele>
        <time>2022-08-18T11:31:44Z</time>
      </trkpt>
      <trkpt lat="43.86798" lon="0.10659">
        <ele>136</ele>
        <time>2022-08-18T11:32:17Z</time>
      </trkpt>
      <trkpt lat="43.86794" lon="0.10657">
        <ele>136</ele>
        <time>2022-08-18T11:32:21Z</time>
      </trkpt>
      <trkpt lat="43.86779" lon="0.10647">
        <ele>136</ele>
        <time>2022-08-18T11:32:34Z</time>
      </trkpt>
      <trkpt lat="43.8676" lon="0.1064">
        <ele>137</ele>
        <time>2022-08-18T11:32:48Z</time>
      </trkpt>
      <trkpt lat="43.86749" lon="0.10633">
        <ele>137</ele>
        <time>2022-08-18T11:32:58Z</time>
      </trkpt>
      <trkpt lat="43.86744" lon="0.10631">
        <ele>137</ele>
        <time>2022-08-18T11:33:03Z</time>
      </trkpt>
      <trkpt lat="43.86726" lon="0.10623">
        <ele>138</ele>
        <time>2022-08-18T11:33:19Z</time>
      </trkpt>
      <trkpt lat="43.86714" lon="0.10617">
        <ele>138</ele>
        <time>2022-08-18T11:33:44Z</time>
      </trkpt>
      <trkpt lat="43.86684" lon="0.10603">
        <ele>139</ele>
        <time>2022-08-18T11:34:13Z</time>
      </trkpt>
      <trkpt lat="43.86644" lon="0.10593">
        <ele>139</ele>
        <time>2022-08-18T11:34:47Z</time>
      </trkpt>
      <trkpt lat="43.86604" lon="0.10588">
        <ele>139</ele>
        <time>2022-08-18T11:35:19Z</time>
      </trkpt>
      <trkpt lat="43.86587" lon="0.10585">
        <ele>139</ele>
        <time>2022-08-18T11:35:30Z</time>
      </trkpt>
      <trkpt lat="43.86551" lon="0.1059">
        <ele>139</ele>
        <time>2022-08-18T11:36:02Z</time>
      </trkpt>
      <trkpt lat="43.86536" lon="0.10593">
        <ele>140</ele>
        <time>2022-08-18T11:36:14Z</time>
      </trkpt>
      <trkpt lat="43.86526" lon="0.10593">
        <ele>140</ele>
        <time>2022-08-18T11:36:23Z</time>
      </trkpt>
      <trkpt lat="43.86489" lon="0.10606">
        <ele>140</ele>
        <time>2022-08-18T11:36:53Z</time>
      </trkpt>
      <trkpt lat="43.86462" lon="0.10624">
        <ele>140</ele>
        <time>2022-08-18T11:37:13Z</time>
      </trkpt>
      <trkpt lat="43.86459" lon="0.10628">
        <ele>140</ele>
        <time>2022-08-18T11:37:17Z</time>
      </trkpt>
      <trkpt lat="43.86446" lon="0.10634">
        <ele>140</ele>
        <time>2022-08-18T11:37:29Z</time>
      </trkpt>
      <trkpt lat="43.86441" lon="0.10635">
        <ele>140</ele>
        <time>2022-08-18T11:37:33Z</time>
      </trkpt>
      <trkpt lat="43.86419" lon="0.10652">
        <ele>140</ele>
        <time>2022-08-18T11:37:53Z</time>
      </trkpt>
      <trkpt lat="43.86409" lon="0.10655">
        <ele>140</ele>
        <time>2022-08-18T11:38:03Z</time>
      </trkpt>
      <trkpt lat="43.86389" lon="0.1067">
        <ele>140</ele>
        <time>2022-08-18T11:38:23Z</time>
      </trkpt>
      <trkpt lat="43.86386" lon="0.10675">
        <ele>140</ele>
        <time>2022-08-18T11:38:27Z</time>
      </trkpt>
      <trkpt lat="43.86381" lon="0.10678">
        <ele>140</ele>
        <time>2022-08-18T11:38:31Z</time>
      </trkpt>
      <trkpt lat="43.86378" lon="0.10682">
        <ele>140</ele>
        <time>2022-08-18T11:38:35Z</time>
      </trkpt>
      <trkpt lat="43.86374" lon="0.10685">
        <ele>141</ele>
        <time>2022-08-18T11:38:46Z</time>
      </trkpt>
      <trkpt lat="43.86369" lon="0.10693">
        <ele>141</ele>
        <time>2022-08-18T11:39:33Z</time>
      </trkpt>
      <trkpt lat="43.86339" lon="0.1073">
        <ele>141</ele>
        <time>2022-08-18T11:40:05Z</time>
      </trkpt>
      <trkpt lat="43.86332" lon="0.1074">
        <ele>141</ele>
        <time>2022-08-18T11:40:13Z</time>
      </trkpt>
      <trkpt lat="43.86324" lon="0.10747">
        <ele>141</ele>
        <time>2022-08-18T11:40:21Z</time>
      </trkpt>
      <trkpt lat="43.86318" lon="0.1075">
        <ele>141</ele>
        <time>2022-08-18T11:40:25Z</time>
      </trkpt>
      <trkpt lat="43.86315" lon="0.10752">
        <ele>141</ele>
        <time>2022-08-18T11:40:30Z</time>
      </trkpt>
      <trkpt lat="43.8631" lon="0.10753">
        <ele>141</ele>
        <time>2022-08-18T11:40:34Z</time>
      </trkpt>
      <trkpt lat="43.86306" lon="0.1075">
        <ele>141</ele>
        <time>2022-08-18T11:40:38Z</time>
      </trkpt>
      <trkpt lat="43.86299" lon="0.10749">
        <ele>142</ele>
        <time>2022-08-18T11:40:44Z</time>
      </trkpt>
      <trkpt lat="43.86288" lon="0.10746">
        <ele>142</ele>
        <time>2022-08-18T11:40:52Z</time>
      </trkpt>
      <trkpt lat="43.86278" lon="0.1074">
        <ele>142</ele>
        <time>2022-08-18T11:41:00Z</time>
      </trkpt>
      <trkpt lat="43.86275" lon="0.10734">
        <ele>143</ele>
        <time>2022-08-18T11:41:04Z</time>
      </trkpt>
      <trkpt lat="43.86271" lon="0.10729">
        <ele>143</ele>
        <time>2022-08-18T11:41:08Z</time>
      </trkpt>
      <trkpt lat="43.86267" lon="0.10726">
        <ele>142</ele>
        <time>2022-08-18T11:41:12Z</time>
      </trkpt>
      <trkpt lat="43.86258" lon="0.1072">
        <ele>143</ele>
        <time>2022-08-18T11:41:20Z</time>
      </trkpt>
      <trkpt lat="43.86253" lon="0.10719">
        <ele>143</ele>
        <time>2022-08-18T11:41:24Z</time>
      </trkpt>
      <trkpt lat="43.86249" lon="0.10715">
        <ele>143</ele>
        <time>2022-08-18T11:41:29Z</time>
      </trkpt>
      <trkpt lat="43.86243" lon="0.10713">
        <ele>143</ele>
        <time>2022-08-18T11:41:34Z</time>
      </trkpt>
      <trkpt lat="43.86233" lon="0.10701">
        <ele>144</ele>
        <time>2022-08-18T11:41:47Z</time>
      </trkpt>
      <trkpt lat="43.86222" lon="0.10688">
        <ele>145</ele>
        <time>2022-08-18T11:41:58Z</time>
      </trkpt>
      <trkpt lat="43.86214" lon="0.10678">
        <ele>145</ele>
        <time>2022-08-18T11:42:07Z</time>
      </trkpt>
      <trkpt lat="43.86205" lon="0.10662">
        <ele>146</ele>
        <time>2022-08-18T11:42:19Z</time>
      </trkpt>
      <trkpt lat="43.86203" lon="0.10655">
        <ele>146</ele>
        <time>2022-08-18T11:42:23Z</time>
      </trkpt>
      <trkpt lat="43.86197" lon="0.10648">
        <ele>147</ele>
        <time>2022-08-18T11:42:30Z</time>
      </trkpt>
      <trkpt lat="43.86187" lon="0.1062">
        <ele>147</ele>
        <time>2022-08-18T11:42:48Z</time>
      </trkpt>
      <trkpt lat="43.8618" lon="0.10608">
        <ele>148</ele>
        <time>2022-08-18T11:42:56Z</time>
      </trkpt>
      <trkpt lat="43.86174" lon="0.10597">
        <ele>149</ele>
        <time>2022-08-18T11:43:16Z</time>
      </trkpt>
      <trkpt lat="43.8617" lon="0.10588">
        <ele>148</ele>
        <time>2022-08-18T11:43:24Z</time>
      </trkpt>
      <trkpt lat="43.86168" lon="0.10577">
        <ele>149</ele>
        <time>2022-08-18T11:43:33Z</time>
      </trkpt>
      <trkpt lat="43.86164" lon="0.10568">
        <ele>149</ele>
        <time>2022-08-18T11:43:39Z</time>
      </trkpt>
      <trkpt lat="43.8616" lon="0.10562">
        <ele>149</ele>
        <time>2022-08-18T11:43:44Z</time>
      </trkpt>
      <trkpt lat="43.86156" lon="0.10541">
        <ele>150</ele>
        <time>2022-08-18T11:43:59Z</time>
      </trkpt>
      <trkpt lat="43.86155" lon="0.10533">
        <ele>150</ele>
        <time>2022-08-18T11:44:04Z</time>
      </trkpt>
      <trkpt lat="43.86147" lon="0.10502">
        <ele>151</ele>
        <time>2022-08-18T11:44:26Z</time>
      </trkpt>
      <trkpt lat="43.86142" lon="0.10468">
        <ele>152</ele>
        <time>2022-08-18T11:44:47Z</time>
      </trkpt>
      <trkpt lat="43.8613" lon="0.10418">
        <ele>153</ele>
        <time>2022-08-18T11:45:18Z</time>
      </trkpt>
      <trkpt lat="43.86125" lon="0.10389">
        <ele>154</ele>
        <time>2022-08-18T11:45:36Z</time>
      </trkpt>
      <trkpt lat="43.86123" lon="0.10383">
        <ele>155</ele>
        <time>2022-08-18T11:45:41Z</time>
      </trkpt>
      <trkpt lat="43.86121" lon="0.10375">
        <ele>155</ele>
        <time>2022-08-18T11:45:46Z</time>
      </trkpt>
      <trkpt lat="43.8612" lon="0.10366">
        <ele>156</ele>
        <time>2022-08-18T11:46:13Z</time>
      </trkpt>
      <trkpt lat="43.86115" lon="0.10359">
        <ele>156</ele>
        <time>2022-08-18T11:46:23Z</time>
      </trkpt>
      <trkpt lat="43.86117" lon="0.10347">
        <ele>157</ele>
        <time>2022-08-18T11:46:42Z</time>
      </trkpt>
      <trkpt lat="43.86112" lon="0.10325">
        <ele>158</ele>
        <time>2022-08-18T11:46:55Z</time>
      </trkpt>
      <trkpt lat="43.86107" lon="0.10315">
        <ele>158</ele>
        <time>2022-08-18T11:47:02Z</time>
      </trkpt>
      <trkpt lat="43.86108" lon="0.10298">
        <ele>158</ele>
        <time>2022-08-18T11:47:11Z</time>
      </trkpt>
      <trkpt lat="43.8611" lon="0.10289">
        <ele>159</ele>
        <time>2022-08-18T11:47:18Z</time>
      </trkpt>
      <trkpt lat="43.86106" lon="0.10253">
        <ele>161</ele>
        <time>2022-08-18T11:47:44Z</time>
      </trkpt>
      <trkpt lat="43.86105" lon="0.10241">
        <ele>161</ele>
        <time>2022-08-18T11:47:53Z</time>
      </trkpt>
      <trkpt lat="43.86099" lon="0.10225">
        <ele>161</ele>
        <time>2022-08-18T11:48:05Z</time>
      </trkpt>
      <trkpt lat="43.86097" lon="0.10212">
        <ele>161</ele>
        <time>2022-08-18T11:48:14Z</time>
      </trkpt>
      <trkpt lat="43.86092" lon="0.10203">
        <ele>161</ele>
        <time>2022-08-18T11:48:30Z</time>
      </trkpt>
      <trkpt lat="43.86091" lon="0.10195">
        <ele>161</ele>
        <time>2022-08-18T11:48:41Z</time>
      </trkpt>
      <trkpt lat="43.8609" lon="0.10189">
        <ele>162</ele>
        <time>2022-08-18T11:49:33Z</time>
      </trkpt>
      <trkpt lat="43.86091" lon="0.10179">
        <ele>162</ele>
        <time>2022-08-18T11:50:50Z</time>
      </trkpt>
      <trkpt lat="43.8609" lon="0.10165">
        <ele>162</ele>
        <time>2022-08-18T11:51:07Z</time>
      </trkpt>
      <trkpt lat="43.86091" lon="0.10143">
        <ele>163</ele>
        <time>2022-08-18T11:51:24Z</time>
      </trkpt>
      <trkpt lat="43.86086" lon="0.10118">
        <ele>164</ele>
        <time>2022-08-18T11:51:39Z</time>
      </trkpt>
      <trkpt lat="43.8608" lon="0.10109">
        <ele>164</ele>
        <time>2022-08-18T11:51:46Z</time>
      </trkpt>
      <trkpt lat="43.86078" lon="0.10101">
        <ele>164</ele>
        <time>2022-08-18T11:51:54Z</time>
      </trkpt>
      <trkpt lat="43.86083" lon="0.10098">
        <ele>164</ele>
        <time>2022-08-18T11:51:59Z</time>
      </trkpt>
      <trkpt lat="43.86082" lon="0.1009">
        <ele>163</ele>
        <time>2022-08-18T11:52:08Z</time>
      </trkpt>
      <trkpt lat="43.86077" lon="0.10085">
        <ele>163</ele>
        <time>2022-08-18T11:52:22Z</time>
      </trkpt>
      <trkpt lat="43.86076" lon="0.10074">
        <ele>163</ele>
        <time>2022-08-18T11:52:34Z</time>
      </trkpt>
      <trkpt lat="43.86075" lon="0.10066">
        <ele>163</ele>
        <time>2022-08-18T11:52:41Z</time>
      </trkpt>
      <trkpt lat="43.86074" lon="0.1006">
        <ele>163</ele>
        <time>2022-08-18T11:52:44Z</time>
      </trkpt>
      <trkpt lat="43.86072" lon="0.10053">
        <ele>163</ele>
        <time>2022-08-18T11:52:49Z</time>
      </trkpt>
      <trkpt lat="43.86069" lon="0.10046">
        <ele>163</ele>
        <time>2022-08-18T11:52:53Z</time>
      </trkpt>
      <trkpt lat="43.86066" lon="0.10042">
        <ele>162</ele>
        <time>2022-08-18T11:52:58Z</time>
      </trkpt>
      <trkpt lat="43.86064" lon="0.10042">
        <ele>164</ele>
        <time>2022-08-18T11:55:25Z</time>
      </trkpt>
      <trkpt lat="43.86065" lon="0.10037">
        <ele>163</ele>
        <time>2022-08-18T11:59:54Z</time>
      </trkpt>
      <trkpt lat="43.86068" lon="0.10055">
        <ele>164</ele>
        <time>2022-08-18T12:05:31Z</time>
      </trkpt>
      <trkpt lat="43.8607" lon="0.10049">
        <ele>163</ele>
        <time>2022-08-18T12:07:22Z</time>
      </trkpt>
      <trkpt lat="43.8607" lon="0.10048">
        <ele>163</ele>
        <time>2022-08-18T12:09:34Z</time>
      </trkpt>
      <trkpt lat="43.86074" lon="0.1005">
        <ele>163</ele>
        <time>2022-08-18T12:18:16Z</time>
      </trkpt>
      <trkpt lat="43.86073" lon="0.10041">
        <ele>163</ele>
        <time>2022-08-18T12:18:57Z</time>
      </trkpt>
      <trkpt lat="43.86075" lon="0.10034">
        <ele>163</ele>
        <time>2022-08-18T12:19:14Z</time>
      </trkpt>
      <trkpt lat="43.8607" lon="0.10033">
        <ele>163</ele>
        <time>2022-08-18T12:19:56Z</time>
      </trkpt>
      <trkpt lat="43.86066" lon="0.10029">
        <ele>163</ele>
        <time>2022-08-18T12:20:07Z</time>
      </trkpt>
      <trkpt lat="43.8606" lon="0.10026">
        <ele>163</ele>
        <time>2022-08-18T12:20:43Z</time>
      </trkpt>
      <trkpt lat="43.8606" lon="0.10018">
        <ele>163</ele>
        <time>2022-08-18T12:20:53Z</time>
      </trkpt>
      <trkpt lat="43.86059" lon="0.10011">
        <ele>162</ele>
        <time>2022-08-18T12:20:58Z</time>
      </trkpt>
      <trkpt lat="43.8606" lon="0.10003">
        <ele>162</ele>
        <time>2022-08-18T12:21:04Z</time>
      </trkpt>
      <trkpt lat="43.86059" lon="0.09996">
        <ele>162</ele>
        <time>2022-08-18T12:21:08Z</time>
      </trkpt>
      <trkpt lat="43.86056" lon="0.09987">
        <ele>161</ele>
        <time>2022-08-18T12:21:15Z</time>
      </trkpt>
      <trkpt lat="43.86055" lon="0.09979">
        <ele>161</ele>
        <time>2022-08-18T12:21:20Z</time>
      </trkpt>
      <trkpt lat="43.86052" lon="0.0997">
        <ele>161</ele>
        <time>2022-08-18T12:21:28Z</time>
      </trkpt>
      <trkpt lat="43.8605" lon="0.09963">
        <ele>160</ele>
        <time>2022-08-18T12:21:32Z</time>
      </trkpt>
      <trkpt lat="43.86047" lon="0.09953">
        <ele>160</ele>
        <time>2022-08-18T12:21:39Z</time>
      </trkpt>
      <trkpt lat="43.86044" lon="0.09948">
        <ele>160</ele>
        <time>2022-08-18T12:21:43Z</time>
      </trkpt>
      <trkpt lat="43.86039" lon="0.09942">
        <ele>159</ele>
        <time>2022-08-18T12:21:49Z</time>
      </trkpt>
      <trkpt lat="43.86038" lon="0.09934">
        <ele>159</ele>
        <time>2022-08-18T12:21:54Z</time>
      </trkpt>
      <trkpt lat="43.86035" lon="0.09929">
        <ele>159</ele>
        <time>2022-08-18T12:22:05Z</time>
      </trkpt>
      <trkpt lat="43.86029" lon="0.09924">
        <ele>158</ele>
        <time>2022-08-18T12:22:31Z</time>
      </trkpt>
      <trkpt lat="43.86023" lon="0.09927">
        <ele>158</ele>
        <time>2022-08-18T12:22:36Z</time>
      </trkpt>
      <trkpt lat="43.86013" lon="0.09924">
        <ele>157</ele>
        <time>2022-08-18T12:22:44Z</time>
      </trkpt>
      <trkpt lat="43.86004" lon="0.09927">
        <ele>157</ele>
        <time>2022-08-18T12:22:53Z</time>
      </trkpt>
      <trkpt lat="43.85995" lon="0.09934">
        <ele>157</ele>
        <time>2022-08-18T12:23:03Z</time>
      </trkpt>
      <trkpt lat="43.85991" lon="0.09943">
        <ele>158</ele>
        <time>2022-08-18T12:23:17Z</time>
      </trkpt>
      <trkpt lat="43.85985" lon="0.09945">
        <ele>158</ele>
        <time>2022-08-18T12:23:24Z</time>
      </trkpt>
      <trkpt lat="43.85981" lon="0.09944">
        <ele>158</ele>
        <time>2022-08-18T12:23:28Z</time>
      </trkpt>
      <trkpt lat="43.85976" lon="0.0994">
        <ele>158</ele>
        <time>2022-08-18T12:23:33Z</time>
      </trkpt>
      <trkpt lat="43.85971" lon="0.09941">
        <ele>158</ele>
        <time>2022-08-18T12:23:37Z</time>
      </trkpt>
      <trkpt lat="43.85965" lon="0.09943">
        <ele>158</ele>
        <time>2022-08-18T12:23:42Z</time>
      </trkpt>
      <trkpt lat="43.85952" lon="0.09954">
        <ele>158</ele>
        <time>2022-08-18T12:23:56Z</time>
      </trkpt>
      <trkpt lat="43.85942" lon="0.09946">
        <ele>158</ele>
        <time>2022-08-18T12:24:04Z</time>
      </trkpt>
      <trkpt lat="43.85936" lon="0.09945">
        <ele>158</ele>
        <time>2022-08-18T12:24:09Z</time>
      </trkpt>
      <trkpt lat="43.8593" lon="0.09936">
        <ele>158</ele>
        <time>2022-08-18T12:24:18Z</time>
      </trkpt>
      <trkpt lat="43.85931" lon="0.09927">
        <ele>158</ele>
        <time>2022-08-18T12:24:26Z</time>
      </trkpt>
      <trkpt lat="43.85929" lon="0.0992">
        <ele>158</ele>
        <time>2022-08-18T12:24:30Z</time>
      </trkpt>
      <trkpt lat="43.85919" lon="0.09895">
        <ele>158</ele>
        <time>2022-08-18T12:24:49Z</time>
      </trkpt>
      <trkpt lat="43.85912" lon="0.0987">
        <ele>158</ele>
        <time>2022-08-18T12:25:05Z</time>
      </trkpt>
      <trkpt lat="43.85906" lon="0.0986">
        <ele>157</ele>
        <time>2022-08-18T12:25:13Z</time>
      </trkpt>
      <trkpt lat="43.85906" lon="0.09847">
        <ele>157</ele>
        <time>2022-08-18T12:25:21Z</time>
      </trkpt>
      <trkpt lat="43.85904" lon="0.09842">
        <ele>157</ele>
        <time>2022-08-18T12:25:25Z</time>
      </trkpt>
      <trkpt lat="43.85901" lon="0.09835">
        <ele>157</ele>
        <time>2022-08-18T12:25:30Z</time>
      </trkpt>
      <trkpt lat="43.85899" lon="0.09829">
        <ele>157</ele>
        <time>2022-08-18T12:25:34Z</time>
      </trkpt>
      <trkpt lat="43.85896" lon="0.09823">
        <ele>157</ele>
        <time>2022-08-18T12:25:38Z</time>
      </trkpt>
      <trkpt lat="43.85892" lon="0.09819">
        <ele>157</ele>
        <time>2022-08-18T12:25:43Z</time>
      </trkpt>
      <trkpt lat="43.85879" lon="0.09794">
        <ele>157</ele>
        <time>2022-08-18T12:26:05Z</time>
      </trkpt>
      <trkpt lat="43.85876" lon="0.09779">
        <ele>156</ele>
        <time>2022-08-18T12:26:17Z</time>
      </trkpt>
      <trkpt lat="43.85866" lon="0.09756">
        <ele>156</ele>
        <time>2022-08-18T12:26:33Z</time>
      </trkpt>
      <trkpt lat="43.85864" lon="0.09749">
        <ele>155</ele>
        <time>2022-08-18T12:26:37Z</time>
      </trkpt>
      <trkpt lat="43.85853" lon="0.09717">
        <ele>155</ele>
        <time>2022-08-18T12:26:59Z</time>
      </trkpt>
      <trkpt lat="43.85847" lon="0.09706">
        <ele>154</ele>
        <time>2022-08-18T12:27:08Z</time>
      </trkpt>
      <trkpt lat="43.85844" lon="0.09692">
        <ele>153</ele>
        <time>2022-08-18T12:27:18Z</time>
      </trkpt>
      <trkpt lat="43.85842" lon="0.09686">
        <ele>153</ele>
        <time>2022-08-18T12:27:22Z</time>
      </trkpt>
      <trkpt lat="43.85839" lon="0.09681">
        <ele>153</ele>
        <time>2022-08-18T12:27:26Z</time>
      </trkpt>
      <trkpt lat="43.85831" lon="0.09674">
        <ele>152</ele>
        <time>2022-08-18T12:27:35Z</time>
      </trkpt>
      <trkpt lat="43.85831" lon="0.09668">
        <ele>152</ele>
        <time>2022-08-18T12:27:39Z</time>
      </trkpt>
      <trkpt lat="43.85828" lon="0.0966">
        <ele>152</ele>
        <time>2022-08-18T12:27:45Z</time>
      </trkpt>
      <trkpt lat="43.85825" lon="0.09652">
        <ele>152</ele>
        <time>2022-08-18T12:27:51Z</time>
      </trkpt>
      <trkpt lat="43.85822" lon="0.09646">
        <ele>152</ele>
        <time>2022-08-18T12:27:56Z</time>
      </trkpt>
      <trkpt lat="43.8582" lon="0.0964">
        <ele>152</ele>
        <time>2022-08-18T12:28:00Z</time>
      </trkpt>
      <trkpt lat="43.8581" lon="0.09615">
        <ele>151</ele>
        <time>2022-08-18T12:28:20Z</time>
      </trkpt>
      <trkpt lat="43.85808" lon="0.09609">
        <ele>152</ele>
        <time>2022-08-18T12:28:24Z</time>
      </trkpt>
      <trkpt lat="43.85807" lon="0.09603">
        <ele>152</ele>
        <time>2022-08-18T12:28:28Z</time>
      </trkpt>
      <trkpt lat="43.85788" lon="0.09559">
        <ele>152</ele>
        <time>2022-08-18T12:29:04Z</time>
      </trkpt>
      <trkpt lat="43.85786" lon="0.09552">
        <ele>152</ele>
        <time>2022-08-18T12:29:08Z</time>
      </trkpt>
      <trkpt lat="43.85778" lon="0.09536">
        <ele>153</ele>
        <time>2022-08-18T12:29:28Z</time>
      </trkpt>
      <trkpt lat="43.85764" lon="0.09491">
        <ele>155</ele>
        <time>2022-08-18T12:30:03Z</time>
      </trkpt>
      <trkpt lat="43.85765" lon="0.09485">
        <ele>156</ele>
        <time>2022-08-18T12:30:08Z</time>
      </trkpt>
      <trkpt lat="43.8577" lon="0.09479">
        <ele>156</ele>
        <time>2022-08-18T12:30:15Z</time>
      </trkpt>
      <trkpt lat="43.85777" lon="0.09529">
        <ele>152</ele>
        <time>2022-08-19T06:04:32Z</time>
      </trkpt>
      <trkpt lat="43.85774" lon="0.09537">
        <ele>152</ele>
        <time>2022-08-19T06:04:55Z</time>
      </trkpt>
      <trkpt lat="43.85754" lon="0.09544">
        <ele>152</ele>
        <time>2022-08-19T06:05:12Z</time>
      </trkpt>
      <trkpt lat="43.85752" lon="0.0955">
        <ele>152</ele>
        <time>2022-08-19T06:05:17Z</time>
      </trkpt>
      <trkpt lat="43.85753" lon="0.09556">
        <ele>152</ele>
        <time>2022-08-19T06:05:21Z</time>
      </trkpt>
      <trkpt lat="43.85767" lon="0.09596">
        <ele>150</ele>
        <time>2022-08-19T06:05:50Z</time>
      </trkpt>
      <trkpt lat="43.8577" lon="0.09607">
        <ele>149</ele>
        <time>2022-08-19T06:05:58Z</time>
      </trkpt>
      <trkpt lat="43.85773" lon="0.09618">
        <ele>149</ele>
        <time>2022-08-19T06:06:05Z</time>
      </trkpt>
      <trkpt lat="43.85776" lon="0.09624">
        <ele>149</ele>
        <time>2022-08-19T06:06:09Z</time>
      </trkpt>
      <trkpt lat="43.85788" lon="0.09661">
        <ele>148</ele>
        <time>2022-08-19T06:06:34Z</time>
      </trkpt>
      <trkpt lat="43.85786" lon="0.09669">
        <ele>148</ele>
        <time>2022-08-19T06:06:39Z</time>
      </trkpt>
      <trkpt lat="43.85783" lon="0.09674">
        <ele>149</ele>
        <time>2022-08-19T06:06:43Z</time>
      </trkpt>
      <trkpt lat="43.85769" lon="0.09679">
        <ele>149</ele>
        <time>2022-08-19T06:07:17Z</time>
      </trkpt>
      <trkpt lat="43.85761" lon="0.09685">
        <ele>149</ele>
        <time>2022-08-19T06:07:27Z</time>
      </trkpt>
      <trkpt lat="43.85757" lon="0.09686">
        <ele>149</ele>
        <time>2022-08-19T06:07:31Z</time>
      </trkpt>
      <trkpt lat="43.85752" lon="0.09687">
        <ele>149</ele>
        <time>2022-08-19T06:07:35Z</time>
      </trkpt>
      <trkpt lat="43.85724" lon="0.09702">
        <ele>148</ele>
        <time>2022-08-19T06:07:59Z</time>
      </trkpt>
      <trkpt lat="43.85719" lon="0.09701">
        <ele>148</ele>
        <time>2022-08-19T06:08:03Z</time>
      </trkpt>
      <trkpt lat="43.85714" lon="0.09699">
        <ele>148</ele>
        <time>2022-08-19T06:08:08Z</time>
      </trkpt>
      <trkpt lat="43.85702" lon="0.09684">
        <ele>148</ele>
        <time>2022-08-19T06:08:25Z</time>
      </trkpt>
      <trkpt lat="43.85688" lon="0.09674">
        <ele>148</ele>
        <time>2022-08-19T06:08:37Z</time>
      </trkpt>
      <trkpt lat="43.85676" lon="0.09662">
        <ele>149</ele>
        <time>2022-08-19T06:08:49Z</time>
      </trkpt>
      <trkpt lat="43.85649" lon="0.09644">
        <ele>149</ele>
        <time>2022-08-19T06:09:23Z</time>
      </trkpt>
      <trkpt lat="43.85645" lon="0.09641">
        <ele>149</ele>
        <time>2022-08-19T06:09:27Z</time>
      </trkpt>
      <trkpt lat="43.8564" lon="0.0964">
        <ele>149</ele>
        <time>2022-08-19T06:09:31Z</time>
      </trkpt>
      <trkpt lat="43.85636" lon="0.0964">
        <ele>150</ele>
        <time>2022-08-19T06:09:34Z</time>
      </trkpt>
      <trkpt lat="43.85631" lon="0.09636">
        <ele>150</ele>
        <time>2022-08-19T06:09:39Z</time>
      </trkpt>
      <trkpt lat="43.85607" lon="0.09591">
        <ele>150</ele>
        <time>2022-08-19T06:10:12Z</time>
      </trkpt>
      <trkpt lat="43.85597" lon="0.09575">
        <ele>150</ele>
        <time>2022-08-19T06:10:23Z</time>
      </trkpt>
      <trkpt lat="43.85589" lon="0.09558">
        <ele>150</ele>
        <time>2022-08-19T06:10:35Z</time>
      </trkpt>
      <trkpt lat="43.85581" lon="0.09547">
        <ele>150</ele>
        <time>2022-08-19T06:10:44Z</time>
      </trkpt>
      <trkpt lat="43.85574" lon="0.09536">
        <ele>150</ele>
        <time>2022-08-19T06:10:53Z</time>
      </trkpt>
      <trkpt lat="43.85573" lon="0.09529">
        <ele>150</ele>
        <time>2022-08-19T06:10:58Z</time>
      </trkpt>
      <trkpt lat="43.85552" lon="0.09488">
        <ele>151</ele>
        <time>2022-08-19T06:11:31Z</time>
      </trkpt>
      <trkpt lat="43.85532" lon="0.09444">
        <ele>152</ele>
        <time>2022-08-19T06:12:02Z</time>
      </trkpt>
      <trkpt lat="43.85524" lon="0.09431">
        <ele>152</ele>
        <time>2022-08-19T06:12:12Z</time>
      </trkpt>
      <trkpt lat="43.85519" lon="0.09427">
        <ele>152</ele>
        <time>2022-08-19T06:12:16Z</time>
      </trkpt>
      <trkpt lat="43.85516" lon="0.09421">
        <ele>152</ele>
        <time>2022-08-19T06:12:20Z</time>
      </trkpt>
      <trkpt lat="43.85491" lon="0.09396">
        <ele>153</ele>
        <time>2022-08-19T06:12:44Z</time>
      </trkpt>
      <trkpt lat="43.85486" lon="0.09387">
        <ele>154</ele>
        <time>2022-08-19T06:12:53Z</time>
      </trkpt>
      <trkpt lat="43.85476" lon="0.09377">
        <ele>154</ele>
        <time>2022-08-19T06:13:06Z</time>
      </trkpt>
      <trkpt lat="43.85471" lon="0.09371">
        <ele>155</ele>
        <time>2022-08-19T06:13:12Z</time>
      </trkpt>
      <trkpt lat="43.8546" lon="0.09362">
        <ele>156</ele>
        <time>2022-08-19T06:13:22Z</time>
      </trkpt>
      <trkpt lat="43.85437" lon="0.09331">
        <ele>159</ele>
        <time>2022-08-19T06:13:49Z</time>
      </trkpt>
      <trkpt lat="43.85434" lon="0.09325">
        <ele>159</ele>
        <time>2022-08-19T06:13:53Z</time>
      </trkpt>
      <trkpt lat="43.8543" lon="0.09321">
        <ele>159</ele>
        <time>2022-08-19T06:13:56Z</time>
      </trkpt>
      <trkpt lat="43.8542" lon="0.093">
        <ele>160</ele>
        <time>2022-08-19T06:14:10Z</time>
      </trkpt>
      <trkpt lat="43.85408" lon="0.09257">
        <ele>162</ele>
        <time>2022-08-19T06:14:37Z</time>
      </trkpt>
      <trkpt lat="43.85408" lon="0.09249">
        <ele>162</ele>
        <time>2022-08-19T06:14:42Z</time>
      </trkpt>
      <trkpt lat="43.85392" lon="0.09209">
        <ele>163</ele>
        <time>2022-08-19T06:15:10Z</time>
      </trkpt>
      <trkpt lat="43.85391" lon="0.09202">
        <ele>164</ele>
        <time>2022-08-19T06:15:15Z</time>
      </trkpt>
      <trkpt lat="43.85386" lon="0.09188">
        <ele>164</ele>
        <time>2022-08-19T06:15:23Z</time>
      </trkpt>
      <trkpt lat="43.85375" lon="0.09132">
        <ele>166</ele>
        <time>2022-08-19T06:15:56Z</time>
      </trkpt>
      <trkpt lat="43.85358" lon="0.09078">
        <ele>166</ele>
        <time>2022-08-19T06:16:31Z</time>
      </trkpt>
      <trkpt lat="43.85352" lon="0.09057">
        <ele>167</ele>
        <time>2022-08-19T06:16:43Z</time>
      </trkpt>
      <trkpt lat="43.85344" lon="0.0902">
        <ele>167</ele>
        <time>2022-08-19T06:17:05Z</time>
      </trkpt>
      <trkpt lat="43.85341" lon="0.09015">
        <ele>168</ele>
        <time>2022-08-19T06:17:09Z</time>
      </trkpt>
      <trkpt lat="43.8534" lon="0.09007">
        <ele>168</ele>
        <time>2022-08-19T06:17:14Z</time>
      </trkpt>
      <trkpt lat="43.85337" lon="0.09">
        <ele>168</ele>
        <time>2022-08-19T06:17:17Z</time>
      </trkpt>
      <trkpt lat="43.85334" lon="0.08986">
        <ele>168</ele>
        <time>2022-08-19T06:17:25Z</time>
      </trkpt>
      <trkpt lat="43.85324" lon="0.08969">
        <ele>168</ele>
        <time>2022-08-19T06:17:38Z</time>
      </trkpt>
      <trkpt lat="43.85315" lon="0.08956">
        <ele>168</ele>
        <time>2022-08-19T06:17:48Z</time>
      </trkpt>
      <trkpt lat="43.85312" lon="0.0895">
        <ele>168</ele>
        <time>2022-08-19T06:17:52Z</time>
      </trkpt>
      <trkpt lat="43.85285" lon="0.08915">
        <ele>169</ele>
        <time>2022-08-19T06:18:21Z</time>
      </trkpt>
      <trkpt lat="43.85276" lon="0.08907">
        <ele>169</ele>
        <time>2022-08-19T06:18:29Z</time>
      </trkpt>
      <trkpt lat="43.85265" lon="0.0889">
        <ele>169</ele>
        <time>2022-08-19T06:18:41Z</time>
      </trkpt>
      <trkpt lat="43.85263" lon="0.08883">
        <ele>169</ele>
        <time>2022-08-19T06:18:46Z</time>
      </trkpt>
      <trkpt lat="43.85239" lon="0.0884">
        <ele>170</ele>
        <time>2022-08-19T06:19:17Z</time>
      </trkpt>
      <trkpt lat="43.8521" lon="0.08797">
        <ele>170</ele>
        <time>2022-08-19T06:19:47Z</time>
      </trkpt>
      <trkpt lat="43.85202" lon="0.08787">
        <ele>171</ele>
        <time>2022-08-19T06:19:55Z</time>
      </trkpt>
      <trkpt lat="43.85192" lon="0.08772">
        <ele>171</ele>
        <time>2022-08-19T06:20:05Z</time>
      </trkpt>
      <trkpt lat="43.85187" lon="0.08767">
        <ele>172</ele>
        <time>2022-08-19T06:20:09Z</time>
      </trkpt>
      <trkpt lat="43.85172" lon="0.08746">
        <ele>173</ele>
        <time>2022-08-19T06:20:26Z</time>
      </trkpt>
      <trkpt lat="43.85161" lon="0.0873">
        <ele>173</ele>
        <time>2022-08-19T06:20:40Z</time>
      </trkpt>
      <trkpt lat="43.85144" lon="0.08702">
        <ele>175</ele>
        <time>2022-08-19T06:21:03Z</time>
      </trkpt>
      <trkpt lat="43.85139" lon="0.08696">
        <ele>176</ele>
        <time>2022-08-19T06:21:07Z</time>
      </trkpt>
      <trkpt lat="43.85136" lon="0.08692">
        <ele>177</ele>
        <time>2022-08-19T06:21:11Z</time>
      </trkpt>
      <trkpt lat="43.85128" lon="0.08681">
        <ele>177</ele>
        <time>2022-08-19T06:21:21Z</time>
      </trkpt>
      <trkpt lat="43.85123" lon="0.08676">
        <ele>177</ele>
        <time>2022-08-19T06:21:26Z</time>
      </trkpt>
      <trkpt lat="43.85093" lon="0.08636">
        <ele>179</ele>
        <time>2022-08-19T06:21:57Z</time>
      </trkpt>
      <trkpt lat="43.85085" lon="0.08627">
        <ele>180</ele>
        <time>2022-08-19T06:22:05Z</time>
      </trkpt>
      <trkpt lat="43.85082" lon="0.08623">
        <ele>180</ele>
        <time>2022-08-19T06:22:09Z</time>
      </trkpt>
      <trkpt lat="43.85078" lon="0.08609">
        <ele>180</ele>
        <time>2022-08-19T06:22:17Z</time>
      </trkpt>
      <trkpt lat="43.85076" lon="0.08594">
        <ele>180</ele>
        <time>2022-08-19T06:22:25Z</time>
      </trkpt>
      <trkpt lat="43.85073" lon="0.08589">
        <ele>180</ele>
        <time>2022-08-19T06:22:29Z</time>
      </trkpt>
      <trkpt lat="43.85042" lon="0.08546">
        <ele>178</ele>
        <time>2022-08-19T06:23:00Z</time>
      </trkpt>
      <trkpt lat="43.85021" lon="0.08519">
        <ele>177</ele>
        <time>2022-08-19T06:23:19Z</time>
      </trkpt>
      <trkpt lat="43.85017" lon="0.08507">
        <ele>177</ele>
        <time>2022-08-19T06:23:25Z</time>
      </trkpt>
      <trkpt lat="43.85017" lon="0.08484">
        <ele>177</ele>
        <time>2022-08-19T06:23:36Z</time>
      </trkpt>
      <trkpt lat="43.85019" lon="0.08479">
        <ele>176</ele>
        <time>2022-08-19T06:23:39Z</time>
      </trkpt>
      <trkpt lat="43.85029" lon="0.08463">
        <ele>175</ele>
        <time>2022-08-19T06:23:49Z</time>
      </trkpt>
      <trkpt lat="43.85034" lon="0.08459">
        <ele>175</ele>
        <time>2022-08-19T06:23:53Z</time>
      </trkpt>
      <trkpt lat="43.85028" lon="0.08452">
        <ele>174</ele>
        <time>2022-08-19T06:24:01Z</time>
      </trkpt>
      <trkpt lat="43.85023" lon="0.08449">
        <ele>174</ele>
        <time>2022-08-19T06:24:05Z</time>
      </trkpt>
      <trkpt lat="43.85019" lon="0.08446">
        <ele>175</ele>
        <time>2022-08-19T06:24:09Z</time>
      </trkpt>
      <trkpt lat="43.85005" lon="0.08438">
        <ele>176</ele>
        <time>2022-08-19T06:24:23Z</time>
      </trkpt>
      <trkpt lat="43.85" lon="0.08433">
        <ele>176</ele>
        <time>2022-08-19T06:24:28Z</time>
      </trkpt>
      <trkpt lat="43.84963" lon="0.08407">
        <ele>179</ele>
        <time>2022-08-19T06:25:00Z</time>
      </trkpt>
      <trkpt lat="43.8496" lon="0.08403">
        <ele>179</ele>
        <time>2022-08-19T06:25:04Z</time>
      </trkpt>
      <trkpt lat="43.84958" lon="0.08392">
        <ele>180</ele>
        <time>2022-08-19T06:25:12Z</time>
      </trkpt>
      <trkpt lat="43.84959" lon="0.08385">
        <ele>180</ele>
        <time>2022-08-19T06:25:16Z</time>
      </trkpt>
      <trkpt lat="43.84958" lon="0.08363">
        <ele>180</ele>
        <time>2022-08-19T06:25:28Z</time>
      </trkpt>
      <trkpt lat="43.8496" lon="0.0835">
        <ele>179</ele>
        <time>2022-08-19T06:25:35Z</time>
      </trkpt>
      <trkpt lat="43.84959" lon="0.08341">
        <ele>179</ele>
        <time>2022-08-19T06:25:41Z</time>
      </trkpt>
      <trkpt lat="43.84951" lon="0.08316">
        <ele>177</ele>
        <time>2022-08-19T06:25:55Z</time>
      </trkpt>
      <trkpt lat="43.84941" lon="0.08265">
        <ele>175</ele>
        <time>2022-08-19T06:26:27Z</time>
      </trkpt>
      <trkpt lat="43.84928" lon="0.08202">
        <ele>170</ele>
        <time>2022-08-19T06:26:59Z</time>
      </trkpt>
      <trkpt lat="43.84923" lon="0.08166">
        <ele>168</ele>
        <time>2022-08-19T06:27:18Z</time>
      </trkpt>
      <trkpt lat="43.84925" lon="0.08132">
        <ele>167</ele>
        <time>2022-08-19T06:27:38Z</time>
      </trkpt>
      <trkpt lat="43.84933" lon="0.08077">
        <ele>165</ele>
        <time>2022-08-19T06:28:09Z</time>
      </trkpt>
      <trkpt lat="43.84939" lon="0.08049">
        <ele>165</ele>
        <time>2022-08-19T06:28:25Z</time>
      </trkpt>
      <trkpt lat="43.84942" lon="0.08044">
        <ele>164</ele>
        <time>2022-08-19T06:28:29Z</time>
      </trkpt>
      <trkpt lat="43.84949" lon="0.08002">
        <ele>164</ele>
        <time>2022-08-19T06:28:52Z</time>
      </trkpt>
      <trkpt lat="43.84955" lon="0.07989">
        <ele>163</ele>
        <time>2022-08-19T06:29:00Z</time>
      </trkpt>
      <trkpt lat="43.84955" lon="0.07982">
        <ele>163</ele>
        <time>2022-08-19T06:29:04Z</time>
      </trkpt>
      <trkpt lat="43.84925" lon="0.07944">
        <ele>167</ele>
        <time>2022-08-19T06:29:36Z</time>
      </trkpt>
      <trkpt lat="43.84914" lon="0.07931">
        <ele>168</ele>
        <time>2022-08-19T06:29:48Z</time>
      </trkpt>
      <trkpt lat="43.8491" lon="0.07928">
        <ele>169</ele>
        <time>2022-08-19T06:29:51Z</time>
      </trkpt>
      <trkpt lat="43.84895" lon="0.07907">
        <ele>170</ele>
        <time>2022-08-19T06:30:05Z</time>
      </trkpt>
      <trkpt lat="43.84863" lon="0.07879">
        <ele>174</ele>
        <time>2022-08-19T06:30:36Z</time>
      </trkpt>
      <trkpt lat="43.84829" lon="0.0785">
        <ele>176</ele>
        <time>2022-08-19T06:31:07Z</time>
      </trkpt>
      <trkpt lat="43.84825" lon="0.07845">
        <ele>177</ele>
        <time>2022-08-19T06:31:11Z</time>
      </trkpt>
      <trkpt lat="43.84814" lon="0.07839">
        <ele>177</ele>
        <time>2022-08-19T06:31:19Z</time>
      </trkpt>
      <trkpt lat="43.8481" lon="0.07833">
        <ele>178</ele>
        <time>2022-08-19T06:31:24Z</time>
      </trkpt>
      <trkpt lat="43.84787" lon="0.07817">
        <ele>178</ele>
        <time>2022-08-19T06:31:45Z</time>
      </trkpt>
      <trkpt lat="43.84761" lon="0.07785">
        <ele>176</ele>
        <time>2022-08-19T06:32:12Z</time>
      </trkpt>
      <trkpt lat="43.84736" lon="0.07744">
        <ele>173</ele>
        <time>2022-08-19T06:32:38Z</time>
      </trkpt>
      <trkpt lat="43.84731" lon="0.07731">
        <ele>172</ele>
        <time>2022-08-19T06:32:45Z</time>
      </trkpt>
      <trkpt lat="43.84725" lon="0.07718">
        <ele>172</ele>
        <time>2022-08-19T06:32:53Z</time>
      </trkpt>
      <trkpt lat="43.84721" lon="0.07704">
        <ele>171</ele>
        <time>2022-08-19T06:33:01Z</time>
      </trkpt>
      <trkpt lat="43.84697" lon="0.07674">
        <ele>169</ele>
        <time>2022-08-19T06:33:25Z</time>
      </trkpt>
      <trkpt lat="43.84665" lon="0.07641">
        <ele>167</ele>
        <time>2022-08-19T06:33:59Z</time>
      </trkpt>
      <trkpt lat="43.84657" lon="0.0763">
        <ele>167</ele>
        <time>2022-08-19T06:34:08Z</time>
      </trkpt>
      <trkpt lat="43.84622" lon="0.07601">
        <ele>165</ele>
        <time>2022-08-19T06:34:39Z</time>
      </trkpt>
      <trkpt lat="43.84587" lon="0.07575">
        <ele>164</ele>
        <time>2022-08-19T06:35:11Z</time>
      </trkpt>
      <trkpt lat="43.84551" lon="0.07547">
        <ele>163</ele>
        <time>2022-08-19T06:35:44Z</time>
      </trkpt>
      <trkpt lat="43.84546" lon="0.07544">
        <ele>163</ele>
        <time>2022-08-19T06:35:48Z</time>
      </trkpt>
      <trkpt lat="43.84534" lon="0.07529">
        <ele>163</ele>
        <time>2022-08-19T06:36:00Z</time>
      </trkpt>
      <trkpt lat="43.84527" lon="0.07517">
        <ele>163</ele>
        <time>2022-08-19T06:36:08Z</time>
      </trkpt>
      <trkpt lat="43.84508" lon="0.07504">
        <ele>164</ele>
        <time>2022-08-19T06:36:22Z</time>
      </trkpt>
      <trkpt lat="43.84494" lon="0.07497">
        <ele>164</ele>
        <time>2022-08-19T06:36:32Z</time>
      </trkpt>
      <trkpt lat="43.84482" lon="0.07485">
        <ele>164</ele>
        <time>2022-08-19T06:36:44Z</time>
      </trkpt>
      <trkpt lat="43.84473" lon="0.07477">
        <ele>164</ele>
        <time>2022-08-19T06:36:52Z</time>
      </trkpt>
      <trkpt lat="43.84432" lon="0.07454">
        <ele>163</ele>
        <time>2022-08-19T06:37:26Z</time>
      </trkpt>
      <trkpt lat="43.84407" lon="0.07443">
        <ele>163</ele>
        <time>2022-08-19T06:37:48Z</time>
      </trkpt>
      <trkpt lat="43.84382" lon="0.07401">
        <ele>162</ele>
        <time>2022-08-19T06:38:20Z</time>
      </trkpt>
      <trkpt lat="43.84359" lon="0.0736">
        <ele>161</ele>
        <time>2022-08-19T06:38:48Z</time>
      </trkpt>
      <trkpt lat="43.8435" lon="0.07339">
        <ele>159</ele>
        <time>2022-08-19T06:39:03Z</time>
      </trkpt>
      <trkpt lat="43.84332" lon="0.07312">
        <ele>155</ele>
        <time>2022-08-19T06:39:26Z</time>
      </trkpt>
      <trkpt lat="43.84299" lon="0.07273">
        <ele>152</ele>
        <time>2022-08-19T06:40:00Z</time>
      </trkpt>
      <trkpt lat="43.84285" lon="0.07262">
        <ele>151</ele>
        <time>2022-08-19T06:40:13Z</time>
      </trkpt>
      <trkpt lat="43.84276" lon="0.07251">
        <ele>151</ele>
        <time>2022-08-19T06:40:21Z</time>
      </trkpt>
      <trkpt lat="43.84248" lon="0.07219">
        <ele>147</ele>
        <time>2022-08-19T06:40:46Z</time>
      </trkpt>
      <trkpt lat="43.84246" lon="0.07213">
        <ele>146</ele>
        <time>2022-08-19T06:40:49Z</time>
      </trkpt>
      <trkpt lat="43.84246" lon="0.07206">
        <ele>146</ele>
        <time>2022-08-19T06:40:52Z</time>
      </trkpt>
      <trkpt lat="43.84256" lon="0.07165">
        <ele>146</ele>
        <time>2022-08-19T06:41:16Z</time>
      </trkpt>
      <trkpt lat="43.84259" lon="0.07159">
        <ele>145</ele>
        <time>2022-08-19T06:41:20Z</time>
      </trkpt>
      <trkpt lat="43.8426" lon="0.07143">
        <ele>144</ele>
        <time>2022-08-19T06:41:29Z</time>
      </trkpt>
      <trkpt lat="43.84262" lon="0.07136">
        <ele>143</ele>
        <time>2022-08-19T06:41:33Z</time>
      </trkpt>
      <trkpt lat="43.84256" lon="0.07132">
        <ele>142</ele>
        <time>2022-08-19T06:41:42Z</time>
      </trkpt>
      <trkpt lat="43.84254" lon="0.07125">
        <ele>141</ele>
        <time>2022-08-19T06:41:47Z</time>
      </trkpt>
      <trkpt lat="43.84254" lon="0.07116">
        <ele>141</ele>
        <time>2022-08-19T06:41:51Z</time>
      </trkpt>
      <trkpt lat="43.8425" lon="0.07103">
        <ele>138</ele>
        <time>2022-08-19T06:41:58Z</time>
      </trkpt>
      <trkpt lat="43.84247" lon="0.07096">
        <ele>137</ele>
        <time>2022-08-19T06:42:04Z</time>
      </trkpt>
      <trkpt lat="43.8424" lon="0.07088">
        <ele>136</ele>
        <time>2022-08-19T06:42:15Z</time>
      </trkpt>
      <trkpt lat="43.84226" lon="0.07081">
        <ele>136</ele>
        <time>2022-08-19T06:42:27Z</time>
      </trkpt>
      <trkpt lat="43.8421" lon="0.0708">
        <ele>135</ele>
        <time>2022-08-19T06:42:38Z</time>
      </trkpt>
      <trkpt lat="43.84169" lon="0.07068">
        <ele>134</ele>
        <time>2022-08-19T06:43:10Z</time>
      </trkpt>
      <trkpt lat="43.84148" lon="0.07061">
        <ele>133</ele>
        <time>2022-08-19T06:43:26Z</time>
      </trkpt>
      <trkpt lat="43.84144" lon="0.07056">
        <ele>133</ele>
        <time>2022-08-19T06:43:30Z</time>
      </trkpt>
      <trkpt lat="43.84138" lon="0.07053">
        <ele>133</ele>
        <time>2022-08-19T06:43:34Z</time>
      </trkpt>
      <trkpt lat="43.84135" lon="0.07048">
        <ele>133</ele>
        <time>2022-08-19T06:43:38Z</time>
      </trkpt>
      <trkpt lat="43.8413" lon="0.07035">
        <ele>133</ele>
        <time>2022-08-19T06:43:46Z</time>
      </trkpt>
      <trkpt lat="43.84111" lon="0.07008">
        <ele>135</ele>
        <time>2022-08-19T06:44:06Z</time>
      </trkpt>
      <trkpt lat="43.84088" lon="0.06967">
        <ele>134</ele>
        <time>2022-08-19T06:44:33Z</time>
      </trkpt>
      <trkpt lat="43.84084" lon="0.06963">
        <ele>134</ele>
        <time>2022-08-19T06:44:37Z</time>
      </trkpt>
      <trkpt lat="43.84056" lon="0.06918">
        <ele>131</ele>
        <time>2022-08-19T06:45:07Z</time>
      </trkpt>
      <trkpt lat="43.84026" lon="0.06873">
        <ele>130</ele>
        <time>2022-08-19T06:45:39Z</time>
      </trkpt>
      <trkpt lat="43.84001" lon="0.06826">
        <ele>128</ele>
        <time>2022-08-19T06:46:10Z</time>
      </trkpt>
      <trkpt lat="43.83994" lon="0.06806">
        <ele>128</ele>
        <time>2022-08-19T06:46:22Z</time>
      </trkpt>
      <trkpt lat="43.83995" lon="0.06799">
        <ele>128</ele>
        <time>2022-08-19T06:46:26Z</time>
      </trkpt>
      <trkpt lat="43.83992" lon="0.0677">
        <ele>128</ele>
        <time>2022-08-19T06:46:41Z</time>
      </trkpt>
      <trkpt lat="43.84002" lon="0.06737">
        <ele>128</ele>
        <time>2022-08-19T06:46:58Z</time>
      </trkpt>
      <trkpt lat="43.84013" lon="0.06723">
        <ele>128</ele>
        <time>2022-08-19T06:47:09Z</time>
      </trkpt>
      <trkpt lat="43.84015" lon="0.06717">
        <ele>128</ele>
        <time>2022-08-19T06:47:12Z</time>
      </trkpt>
      <trkpt lat="43.84018" lon="0.06712">
        <ele>128</ele>
        <time>2022-08-19T06:47:16Z</time>
      </trkpt>
      <trkpt lat="43.84021" lon="0.06708">
        <ele>128</ele>
        <time>2022-08-19T06:47:20Z</time>
      </trkpt>
      <trkpt lat="43.84024" lon="0.06693">
        <ele>128</ele>
        <time>2022-08-19T06:47:28Z</time>
      </trkpt>
      <trkpt lat="43.84027" lon="0.06636">
        <ele>128</ele>
        <time>2022-08-19T06:47:59Z</time>
      </trkpt>
      <trkpt lat="43.84029" lon="0.06629">
        <ele>128</ele>
        <time>2022-08-19T06:48:03Z</time>
      </trkpt>
      <trkpt lat="43.84029" lon="0.06622">
        <ele>128</ele>
        <time>2022-08-19T06:48:07Z</time>
      </trkpt>
      <trkpt lat="43.84027" lon="0.06616">
        <ele>128</ele>
        <time>2022-08-19T06:48:12Z</time>
      </trkpt>
      <trkpt lat="43.84025" lon="0.06609">
        <ele>128</ele>
        <time>2022-08-19T06:48:18Z</time>
      </trkpt>
      <trkpt lat="43.84016" lon="0.06603">
        <ele>128</ele>
        <time>2022-08-19T06:48:28Z</time>
      </trkpt>
      <trkpt lat="43.83996" lon="0.06593">
        <ele>128</ele>
        <time>2022-08-19T06:48:45Z</time>
      </trkpt>
      <trkpt lat="43.83991" lon="0.0659">
        <ele>128</ele>
        <time>2022-08-19T06:48:49Z</time>
      </trkpt>
      <trkpt lat="43.83981" lon="0.06585">
        <ele>128</ele>
        <time>2022-08-19T06:48:58Z</time>
      </trkpt>
      <trkpt lat="43.83976" lon="0.0658">
        <ele>128</ele>
        <time>2022-08-19T06:49:02Z</time>
      </trkpt>
      <trkpt lat="43.83966" lon="0.06575">
        <ele>128</ele>
        <time>2022-08-19T06:49:09Z</time>
      </trkpt>
      <trkpt lat="43.83961" lon="0.06571">
        <ele>128</ele>
        <time>2022-08-19T06:49:13Z</time>
      </trkpt>
      <trkpt lat="43.83956" lon="0.06569">
        <ele>128</ele>
        <time>2022-08-19T06:49:17Z</time>
      </trkpt>
      <trkpt lat="43.83952" lon="0.06565">
        <ele>128</ele>
        <time>2022-08-19T06:49:21Z</time>
      </trkpt>
      <trkpt lat="43.83921" lon="0.06549">
        <ele>131</ele>
        <time>2022-08-19T06:49:46Z</time>
      </trkpt>
      <trkpt lat="43.83906" lon="0.06536">
        <ele>133</ele>
        <time>2022-08-19T06:50:00Z</time>
      </trkpt>
      <trkpt lat="43.83889" lon="0.06528">
        <ele>137</ele>
        <time>2022-08-19T06:50:18Z</time>
      </trkpt>
      <trkpt lat="43.83883" lon="0.06529">
        <ele>137</ele>
        <time>2022-08-19T06:50:22Z</time>
      </trkpt>
      <trkpt lat="43.83869" lon="0.06522">
        <ele>140</ele>
        <time>2022-08-19T06:50:35Z</time>
      </trkpt>
      <trkpt lat="43.83854" lon="0.06518">
        <ele>141</ele>
        <time>2022-08-19T06:50:47Z</time>
      </trkpt>
      <trkpt lat="43.8385" lon="0.06515">
        <ele>141</ele>
        <time>2022-08-19T06:50:51Z</time>
      </trkpt>
      <trkpt lat="43.83846" lon="0.06505">
        <ele>142</ele>
        <time>2022-08-19T06:50:58Z</time>
      </trkpt>
      <trkpt lat="43.83839" lon="0.065">
        <ele>143</ele>
        <time>2022-08-19T06:51:05Z</time>
      </trkpt>
      <trkpt lat="43.83824" lon="0.06475">
        <ele>145</ele>
        <time>2022-08-19T06:51:25Z</time>
      </trkpt>
      <trkpt lat="43.83799" lon="0.06429">
        <ele>147</ele>
        <time>2022-08-19T06:51:59Z</time>
      </trkpt>
      <trkpt lat="43.83796" lon="0.06423">
        <ele>147</ele>
        <time>2022-08-19T06:52:03Z</time>
      </trkpt>
      <trkpt lat="43.8379" lon="0.06417">
        <ele>147</ele>
        <time>2022-08-19T06:52:18Z</time>
      </trkpt>
      <trkpt lat="43.83771" lon="0.06394">
        <ele>149</ele>
        <time>2022-08-19T06:52:42Z</time>
      </trkpt>
      <trkpt lat="43.83765" lon="0.06391">
        <ele>149</ele>
        <time>2022-08-19T06:52:45Z</time>
      </trkpt>
      <trkpt lat="43.83761" lon="0.06386">
        <ele>149</ele>
        <time>2022-08-19T06:52:50Z</time>
      </trkpt>
      <trkpt lat="43.83747" lon="0.06376">
        <ele>150</ele>
        <time>2022-08-19T06:53:03Z</time>
      </trkpt>
      <trkpt lat="43.83741" lon="0.06375">
        <ele>150</ele>
        <time>2022-08-19T06:53:07Z</time>
      </trkpt>
      <trkpt lat="43.83719" lon="0.06353">
        <ele>151</ele>
        <time>2022-08-19T06:53:29Z</time>
      </trkpt>
      <trkpt lat="43.83714" lon="0.06351">
        <ele>151</ele>
        <time>2022-08-19T06:53:33Z</time>
      </trkpt>
      <trkpt lat="43.83699" lon="0.06334">
        <ele>152</ele>
        <time>2022-08-19T06:53:51Z</time>
      </trkpt>
      <trkpt lat="43.83693" lon="0.06332">
        <ele>152</ele>
        <time>2022-08-19T06:53:56Z</time>
      </trkpt>
      <trkpt lat="43.83663" lon="0.06296">
        <ele>152</ele>
        <time>2022-08-19T06:54:27Z</time>
      </trkpt>
      <trkpt lat="43.8365" lon="0.0628">
        <ele>152</ele>
        <time>2022-08-19T06:54:41Z</time>
      </trkpt>
      <trkpt lat="43.8363" lon="0.0625">
        <ele>153</ele>
        <time>2022-08-19T06:55:02Z</time>
      </trkpt>
      <trkpt lat="43.83625" lon="0.06246">
        <ele>153</ele>
        <time>2022-08-19T06:55:07Z</time>
      </trkpt>
      <trkpt lat="43.83615" lon="0.06236">
        <ele>155</ele>
        <time>2022-08-19T06:55:19Z</time>
      </trkpt>
      <trkpt lat="43.83604" lon="0.06228">
        <ele>155</ele>
        <time>2022-08-19T06:55:30Z</time>
      </trkpt>
      <trkpt lat="43.83601" lon="0.06219">
        <ele>155</ele>
        <time>2022-08-19T06:55:40Z</time>
      </trkpt>
      <trkpt lat="43.83578" lon="0.06199">
        <ele>156</ele>
        <time>2022-08-19T06:56:04Z</time>
      </trkpt>
      <trkpt lat="43.83546" lon="0.06174">
        <ele>157</ele>
        <time>2022-08-19T06:56:31Z</time>
      </trkpt>
      <trkpt lat="43.83525" lon="0.06148">
        <ele>158</ele>
        <time>2022-08-19T06:57:02Z</time>
      </trkpt>
      <trkpt lat="43.83518" lon="0.06137">
        <ele>159</ele>
        <time>2022-08-19T06:57:11Z</time>
      </trkpt>
      <trkpt lat="43.83492" lon="0.06113">
        <ele>161</ele>
        <time>2022-08-19T06:57:35Z</time>
      </trkpt>
      <trkpt lat="43.83476" lon="0.06091">
        <ele>163</ele>
        <time>2022-08-19T06:57:53Z</time>
      </trkpt>
      <trkpt lat="43.8347" lon="0.06088">
        <ele>164</ele>
        <time>2022-08-19T06:57:58Z</time>
      </trkpt>
      <trkpt lat="43.83443" lon="0.06049">
        <ele>167</ele>
        <time>2022-08-19T06:58:31Z</time>
      </trkpt>
      <trkpt lat="43.83439" lon="0.06045">
        <ele>167</ele>
        <time>2022-08-19T06:58:35Z</time>
      </trkpt>
      <trkpt lat="43.83428" lon="0.06037">
        <ele>166</ele>
        <time>2022-08-19T06:58:48Z</time>
      </trkpt>
      <trkpt lat="43.83394" lon="0.05988">
        <ele>162</ele>
        <time>2022-08-19T06:59:24Z</time>
      </trkpt>
      <trkpt lat="43.83368" lon="0.05943">
        <ele>161</ele>
        <time>2022-08-19T06:59:55Z</time>
      </trkpt>
      <trkpt lat="43.83332" lon="0.05901">
        <ele>159</ele>
        <time>2022-08-19T07:00:30Z</time>
      </trkpt>
      <trkpt lat="43.83302" lon="0.05862">
        <ele>159</ele>
        <time>2022-08-19T07:01:01Z</time>
      </trkpt>
      <trkpt lat="43.83287" lon="0.05849">
        <ele>159</ele>
        <time>2022-08-19T07:01:13Z</time>
      </trkpt>
      <trkpt lat="43.83283" lon="0.05842">
        <ele>159</ele>
        <time>2022-08-19T07:01:18Z</time>
      </trkpt>
      <trkpt lat="43.83278" lon="0.05839">
        <ele>159</ele>
        <time>2022-08-19T07:01:22Z</time>
      </trkpt>
      <trkpt lat="43.83255" lon="0.0581">
        <ele>159</ele>
        <time>2022-08-19T07:01:44Z</time>
      </trkpt>
      <trkpt lat="43.83227" lon="0.05777">
        <ele>164</ele>
        <time>2022-08-19T07:02:14Z</time>
      </trkpt>
      <trkpt lat="43.83221" lon="0.05773">
        <ele>165</ele>
        <time>2022-08-19T07:02:18Z</time>
      </trkpt>
      <trkpt lat="43.83211" lon="0.05762">
        <ele>165</ele>
        <time>2022-08-19T07:02:26Z</time>
      </trkpt>
      <trkpt lat="43.83207" lon="0.05753">
        <ele>166</ele>
        <time>2022-08-19T07:02:31Z</time>
      </trkpt>
      <trkpt lat="43.83206" lon="0.05745">
        <ele>166</ele>
        <time>2022-08-19T07:02:36Z</time>
      </trkpt>
      <trkpt lat="43.83208" lon="0.05737">
        <ele>167</ele>
        <time>2022-08-19T07:02:42Z</time>
      </trkpt>
      <trkpt lat="43.83201" lon="0.05719">
        <ele>168</ele>
        <time>2022-08-19T07:02:55Z</time>
      </trkpt>
      <trkpt lat="43.83189" lon="0.05702">
        <ele>170</ele>
        <time>2022-08-19T07:03:09Z</time>
      </trkpt>
      <trkpt lat="43.83155" lon="0.05669">
        <ele>174</ele>
        <time>2022-08-19T07:03:43Z</time>
      </trkpt>
      <trkpt lat="43.8315" lon="0.05668">
        <ele>174</ele>
        <time>2022-08-19T07:03:47Z</time>
      </trkpt>
      <trkpt lat="43.83145" lon="0.0567">
        <ele>175</ele>
        <time>2022-08-19T07:03:52Z</time>
      </trkpt>
      <trkpt lat="43.83142" lon="0.05677">
        <ele>175</ele>
        <time>2022-08-19T07:03:57Z</time>
      </trkpt>
      <trkpt lat="43.83134" lon="0.05684">
        <ele>176</ele>
        <time>2022-08-19T07:04:05Z</time>
      </trkpt>
      <trkpt lat="43.83128" lon="0.05694">
        <ele>176</ele>
        <time>2022-08-19T07:04:10Z</time>
      </trkpt>
      <trkpt lat="43.831" lon="0.05735">
        <ele>177</ele>
        <time>2022-08-19T07:04:42Z</time>
      </trkpt>
      <trkpt lat="43.83078" lon="0.05764">
        <ele>178</ele>
        <time>2022-08-19T07:05:07Z</time>
      </trkpt>
      <trkpt lat="43.83074" lon="0.05766">
        <ele>178</ele>
        <time>2022-08-19T07:05:11Z</time>
      </trkpt>
      <trkpt lat="43.83063" lon="0.05749">
        <ele>178</ele>
        <time>2022-08-19T07:05:23Z</time>
      </trkpt>
      <trkpt lat="43.83052" lon="0.05682">
        <ele>176</ele>
        <time>2022-08-19T07:05:55Z</time>
      </trkpt>
      <trkpt lat="43.83048" lon="0.05664">
        <ele>176</ele>
        <time>2022-08-19T07:06:04Z</time>
      </trkpt>
      <trkpt lat="43.83048" lon="0.05658">
        <ele>176</ele>
        <time>2022-08-19T07:06:07Z</time>
      </trkpt>
      <trkpt lat="43.83046" lon="0.0565">
        <ele>176</ele>
        <time>2022-08-19T07:06:11Z</time>
      </trkpt>
      <trkpt lat="43.83045" lon="0.05643">
        <ele>176</ele>
        <time>2022-08-19T07:06:15Z</time>
      </trkpt>
      <trkpt lat="43.83044" lon="0.05629">
        <ele>176</ele>
        <time>2022-08-19T07:06:23Z</time>
      </trkpt>
      <trkpt lat="43.83038" lon="0.05587">
        <ele>176</ele>
        <time>2022-08-19T07:06:48Z</time>
      </trkpt>
      <trkpt lat="43.83039" lon="0.05579">
        <ele>175</ele>
        <time>2022-08-19T07:06:52Z</time>
      </trkpt>
      <trkpt lat="43.83032" lon="0.05522">
        <ele>175</ele>
        <time>2022-08-19T07:07:24Z</time>
      </trkpt>
      <trkpt lat="43.83029" lon="0.05501">
        <ele>175</ele>
        <time>2022-08-19T07:07:35Z</time>
      </trkpt>
      <trkpt lat="43.83028" lon="0.05493">
        <ele>174</ele>
        <time>2022-08-19T07:07:39Z</time>
      </trkpt>
      <trkpt lat="43.83027" lon="0.05486">
        <ele>174</ele>
        <time>2022-08-19T07:07:43Z</time>
      </trkpt>
      <trkpt lat="43.83026" lon="0.05478">
        <ele>174</ele>
        <time>2022-08-19T07:07:47Z</time>
      </trkpt>
      <trkpt lat="43.83026" lon="0.05471">
        <ele>174</ele>
        <time>2022-08-19T07:07:51Z</time>
      </trkpt>
      <trkpt lat="43.83022" lon="0.05438">
        <ele>173</ele>
        <time>2022-08-19T07:08:08Z</time>
      </trkpt>
      <trkpt lat="43.83022" lon="0.05408">
        <ele>172</ele>
        <time>2022-08-19T07:08:20Z</time>
      </trkpt>
      <trkpt lat="43.83031" lon="0.05341">
        <ele>169</ele>
        <time>2022-08-19T07:08:51Z</time>
      </trkpt>
      <trkpt lat="43.83043" lon="0.05302">
        <ele>169</ele>
        <time>2022-08-19T07:09:12Z</time>
      </trkpt>
      <trkpt lat="43.83051" lon="0.05284">
        <ele>168</ele>
        <time>2022-08-19T07:09:24Z</time>
      </trkpt>
      <trkpt lat="43.83053" lon="0.05277">
        <ele>168</ele>
        <time>2022-08-19T07:09:28Z</time>
      </trkpt>
      <trkpt lat="43.83056" lon="0.05272">
        <ele>168</ele>
        <time>2022-08-19T07:09:31Z</time>
      </trkpt>
      <trkpt lat="43.83058" lon="0.05265">
        <ele>167</ele>
        <time>2022-08-19T07:09:35Z</time>
      </trkpt>
      <trkpt lat="43.83073" lon="0.05241">
        <ele>166</ele>
        <time>2022-08-19T07:09:51Z</time>
      </trkpt>
      <trkpt lat="43.83076" lon="0.05234">
        <ele>166</ele>
        <time>2022-08-19T07:09:54Z</time>
      </trkpt>
      <trkpt lat="43.83077" lon="0.05226">
        <ele>166</ele>
        <time>2022-08-19T07:09:58Z</time>
      </trkpt>
      <trkpt lat="43.83094" lon="0.05195">
        <ele>165</ele>
        <time>2022-08-19T07:10:18Z</time>
      </trkpt>
      <trkpt lat="43.83095" lon="0.05189">
        <ele>165</ele>
        <time>2022-08-19T07:10:21Z</time>
      </trkpt>
      <trkpt lat="43.83106" lon="0.05166">
        <ele>164</ele>
        <time>2022-08-19T07:10:35Z</time>
      </trkpt>
      <trkpt lat="43.83112" lon="0.05156">
        <ele>164</ele>
        <time>2022-08-19T07:10:41Z</time>
      </trkpt>
      <trkpt lat="43.83117" lon="0.05146">
        <ele>163</ele>
        <time>2022-08-19T07:10:47Z</time>
      </trkpt>
      <trkpt lat="43.83121" lon="0.0514">
        <ele>163</ele>
        <time>2022-08-19T07:10:51Z</time>
      </trkpt>
      <trkpt lat="43.83123" lon="0.05135">
        <ele>163</ele>
        <time>2022-08-19T07:10:54Z</time>
      </trkpt>
      <trkpt lat="43.83149" lon="0.05087">
        <ele>162</ele>
        <time>2022-08-19T07:11:26Z</time>
      </trkpt>
      <trkpt lat="43.83159" lon="0.05069">
        <ele>161</ele>
        <time>2022-08-19T07:11:38Z</time>
      </trkpt>
      <trkpt lat="43.8318" lon="0.05038">
        <ele>160</ele>
        <time>2022-08-19T07:12:03Z</time>
      </trkpt>
      <trkpt lat="43.83193" lon="0.05015">
        <ele>160</ele>
        <time>2022-08-19T07:12:19Z</time>
      </trkpt>
      <trkpt lat="43.83225" lon="0.04967">
        <ele>159</ele>
        <time>2022-08-19T07:12:52Z</time>
      </trkpt>
      <trkpt lat="43.83259" lon="0.04922">
        <ele>159</ele>
        <time>2022-08-19T07:13:25Z</time>
      </trkpt>
      <trkpt lat="43.83289" lon="0.04883">
        <ele>159</ele>
        <time>2022-08-19T07:13:56Z</time>
      </trkpt>
      <trkpt lat="43.83325" lon="0.04839">
        <ele>160</ele>
        <time>2022-08-19T07:14:29Z</time>
      </trkpt>
      <trkpt lat="43.83344" lon="0.04817">
        <ele>160</ele>
        <time>2022-08-19T07:14:49Z</time>
      </trkpt>
      <trkpt lat="43.83345" lon="0.04811">
        <ele>161</ele>
        <time>2022-08-19T07:15:08Z</time>
      </trkpt>
      <trkpt lat="43.83334" lon="0.04809">
        <ele>161</ele>
        <time>2022-08-19T07:15:16Z</time>
      </trkpt>
      <trkpt lat="43.83326" lon="0.04798">
        <ele>162</ele>
        <time>2022-08-19T07:15:24Z</time>
      </trkpt>
      <trkpt lat="43.83305" lon="0.04768">
        <ele>160</ele>
        <time>2022-08-19T07:15:47Z</time>
      </trkpt>
      <trkpt lat="43.83299" lon="0.04756">
        <ele>159</ele>
        <time>2022-08-19T07:15:55Z</time>
      </trkpt>
      <trkpt lat="43.83292" lon="0.04747">
        <ele>159</ele>
        <time>2022-08-19T07:16:01Z</time>
      </trkpt>
      <trkpt lat="43.83284" lon="0.04731">
        <ele>157</ele>
        <time>2022-08-19T07:16:09Z</time>
      </trkpt>
      <trkpt lat="43.83283" lon="0.04725">
        <ele>157</ele>
        <time>2022-08-19T07:16:12Z</time>
      </trkpt>
      <trkpt lat="43.83281" lon="0.04719">
        <ele>156</ele>
        <time>2022-08-19T07:16:15Z</time>
      </trkpt>
      <trkpt lat="43.83278" lon="0.04714">
        <ele>156</ele>
        <time>2022-08-19T07:16:18Z</time>
      </trkpt>
      <trkpt lat="43.8327" lon="0.04706">
        <ele>155</ele>
        <time>2022-08-19T07:16:25Z</time>
      </trkpt>
      <trkpt lat="43.83268" lon="0.047">
        <ele>154</ele>
        <time>2022-08-19T07:16:28Z</time>
      </trkpt>
      <trkpt lat="43.83264" lon="0.04696">
        <ele>154</ele>
        <time>2022-08-19T07:16:31Z</time>
      </trkpt>
      <trkpt lat="43.8326" lon="0.04694">
        <ele>154</ele>
        <time>2022-08-19T07:16:34Z</time>
      </trkpt>
      <trkpt lat="43.83257" lon="0.04687">
        <ele>153</ele>
        <time>2022-08-19T07:16:38Z</time>
      </trkpt>
      <trkpt lat="43.83254" lon="0.04683">
        <ele>153</ele>
        <time>2022-08-19T07:16:41Z</time>
      </trkpt>
      <trkpt lat="43.83227" lon="0.04639">
        <ele>149</ele>
        <time>2022-08-19T07:17:10Z</time>
      </trkpt>
      <trkpt lat="43.83223" lon="0.04636">
        <ele>149</ele>
        <time>2022-08-19T07:17:13Z</time>
      </trkpt>
      <trkpt lat="43.83213" lon="0.04615">
        <ele>146</ele>
        <time>2022-08-19T07:17:25Z</time>
      </trkpt>
      <trkpt lat="43.83205" lon="0.04608">
        <ele>146</ele>
        <time>2022-08-19T07:17:31Z</time>
      </trkpt>
      <trkpt lat="43.83202" lon="0.04594">
        <ele>145</ele>
        <time>2022-08-19T07:17:38Z</time>
      </trkpt>
      <trkpt lat="43.83202" lon="0.04587">
        <ele>145</ele>
        <time>2022-08-19T07:17:42Z</time>
      </trkpt>
      <trkpt lat="43.83201" lon="0.04581">
        <ele>144</ele>
        <time>2022-08-19T07:17:45Z</time>
      </trkpt>
      <trkpt lat="43.83193" lon="0.04572">
        <ele>143</ele>
        <time>2022-08-19T07:17:53Z</time>
      </trkpt>
      <trkpt lat="43.8319" lon="0.04565">
        <ele>143</ele>
        <time>2022-08-19T07:17:57Z</time>
      </trkpt>
      <trkpt lat="43.8319" lon="0.04558">
        <ele>142</ele>
        <time>2022-08-19T07:18:00Z</time>
      </trkpt>
      <trkpt lat="43.83184" lon="0.04546">
        <ele>141</ele>
        <time>2022-08-19T07:18:08Z</time>
      </trkpt>
      <trkpt lat="43.83178" lon="0.04534">
        <ele>139</ele>
        <time>2022-08-19T07:18:16Z</time>
      </trkpt>
      <trkpt lat="43.83173" lon="0.04532">
        <ele>139</ele>
        <time>2022-08-19T07:18:19Z</time>
      </trkpt>
      <trkpt lat="43.83169" lon="0.04531">
        <ele>138</ele>
        <time>2022-08-19T07:18:23Z</time>
      </trkpt>
      <trkpt lat="43.83162" lon="0.04522">
        <ele>137</ele>
        <time>2022-08-19T07:18:31Z</time>
      </trkpt>
      <trkpt lat="43.8314" lon="0.04505">
        <ele>134</ele>
        <time>2022-08-19T07:18:51Z</time>
      </trkpt>
      <trkpt lat="43.83116" lon="0.04497">
        <ele>134</ele>
        <time>2022-08-19T07:19:17Z</time>
      </trkpt>
      <trkpt lat="43.83112" lon="0.04494">
        <ele>133</ele>
        <time>2022-08-19T07:19:22Z</time>
      </trkpt>
      <trkpt lat="43.83107" lon="0.04493">
        <ele>133</ele>
        <time>2022-08-19T07:19:26Z</time>
      </trkpt>
      <trkpt lat="43.831" lon="0.04496">
        <ele>134</ele>
        <time>2022-08-19T07:19:33Z</time>
      </trkpt>
      <trkpt lat="43.83087" lon="0.04508">
        <ele>135</ele>
        <time>2022-08-19T07:19:46Z</time>
      </trkpt>
      <trkpt lat="43.8305" lon="0.04511">
        <ele>138</ele>
        <time>2022-08-19T07:20:15Z</time>
      </trkpt>
      <trkpt lat="43.83045" lon="0.0451">
        <ele>139</ele>
        <time>2022-08-19T07:20:19Z</time>
      </trkpt>
      <trkpt lat="43.83035" lon="0.0451">
        <ele>140</ele>
        <time>2022-08-19T07:20:27Z</time>
      </trkpt>
      <trkpt lat="43.83025" lon="0.04507">
        <ele>141</ele>
        <time>2022-08-19T07:20:37Z</time>
      </trkpt>
      <trkpt lat="43.8302" lon="0.04506">
        <ele>142</ele>
        <time>2022-08-19T07:20:41Z</time>
      </trkpt>
      <trkpt lat="43.8298" lon="0.04491">
        <ele>144</ele>
        <time>2022-08-19T07:21:14Z</time>
      </trkpt>
      <trkpt lat="43.82975" lon="0.04488">
        <ele>145</ele>
        <time>2022-08-19T07:21:19Z</time>
      </trkpt>
      <trkpt lat="43.8297" lon="0.04488">
        <ele>145</ele>
        <time>2022-08-19T07:21:23Z</time>
      </trkpt>
      <trkpt lat="43.82932" lon="0.0447">
        <ele>147</ele>
        <time>2022-08-19T07:21:56Z</time>
      </trkpt>
      <trkpt lat="43.82919" lon="0.04461">
        <ele>148</ele>
        <time>2022-08-19T07:22:08Z</time>
      </trkpt>
      <trkpt lat="43.82914" lon="0.04459">
        <ele>148</ele>
        <time>2022-08-19T07:22:12Z</time>
      </trkpt>
      <trkpt lat="43.82878" lon="0.04436">
        <ele>153</ele>
        <time>2022-08-19T07:22:44Z</time>
      </trkpt>
      <trkpt lat="43.82842" lon="0.04418">
        <ele>156</ele>
        <time>2022-08-19T07:23:14Z</time>
      </trkpt>
      <trkpt lat="43.82804" lon="0.044">
        <ele>159</ele>
        <time>2022-08-19T07:23:47Z</time>
      </trkpt>
      <trkpt lat="43.82794" lon="0.04393">
        <ele>160</ele>
        <time>2022-08-19T07:23:58Z</time>
      </trkpt>
      <trkpt lat="43.82786" lon="0.04392">
        <ele>159</ele>
        <time>2022-08-19T07:24:18Z</time>
      </trkpt>
      <trkpt lat="43.82747" lon="0.04375">
        <ele>158</ele>
        <time>2022-08-19T07:24:49Z</time>
      </trkpt>
      <trkpt lat="43.82706" lon="0.04367">
        <ele>157</ele>
        <time>2022-08-19T07:25:21Z</time>
      </trkpt>
      <trkpt lat="43.827" lon="0.04365">
        <ele>157</ele>
        <time>2022-08-19T07:25:25Z</time>
      </trkpt>
      <trkpt lat="43.82686" lon="0.04363">
        <ele>157</ele>
        <time>2022-08-19T07:25:36Z</time>
      </trkpt>
      <trkpt lat="43.82682" lon="0.04361">
        <ele>157</ele>
        <time>2022-08-19T07:25:40Z</time>
      </trkpt>
      <trkpt lat="43.82656" lon="0.0436">
        <ele>157</ele>
        <time>2022-08-19T07:26:00Z</time>
      </trkpt>
      <trkpt lat="43.82651" lon="0.04358">
        <ele>157</ele>
        <time>2022-08-19T07:26:03Z</time>
      </trkpt>
      <trkpt lat="43.8261" lon="0.0436">
        <ele>157</ele>
        <time>2022-08-19T07:26:34Z</time>
      </trkpt>
      <trkpt lat="43.82577" lon="0.0436">
        <ele>158</ele>
        <time>2022-08-19T07:26:57Z</time>
      </trkpt>
      <trkpt lat="43.82572" lon="0.04358">
        <ele>159</ele>
        <time>2022-08-19T07:27:01Z</time>
      </trkpt>
      <trkpt lat="43.82566" lon="0.04359">
        <ele>159</ele>
        <time>2022-08-19T07:27:05Z</time>
      </trkpt>
      <trkpt lat="43.82546" lon="0.04355">
        <ele>160</ele>
        <time>2022-08-19T07:27:22Z</time>
      </trkpt>
      <trkpt lat="43.82535" lon="0.04355">
        <ele>160</ele>
        <time>2022-08-19T07:27:30Z</time>
      </trkpt>
      <trkpt lat="43.82515" lon="0.04348">
        <ele>161</ele>
        <time>2022-08-19T07:27:45Z</time>
      </trkpt>
      <trkpt lat="43.82485" lon="0.04352">
        <ele>162</ele>
        <time>2022-08-19T07:28:17Z</time>
      </trkpt>
      <trkpt lat="43.82448" lon="0.0436">
        <ele>164</ele>
        <time>2022-08-19T07:28:48Z</time>
      </trkpt>
      <trkpt lat="43.82406" lon="0.04371">
        <ele>166</ele>
        <time>2022-08-19T07:29:20Z</time>
      </trkpt>
      <trkpt lat="43.82401" lon="0.04372">
        <ele>166</ele>
        <time>2022-08-19T07:29:25Z</time>
      </trkpt>
      <trkpt lat="43.82392" lon="0.04378">
        <ele>166</ele>
        <time>2022-08-19T07:29:32Z</time>
      </trkpt>
      <trkpt lat="43.82387" lon="0.04378">
        <ele>167</ele>
        <time>2022-08-19T07:29:36Z</time>
      </trkpt>
      <trkpt lat="43.82383" lon="0.0438">
        <ele>167</ele>
        <time>2022-08-19T07:29:40Z</time>
      </trkpt>
      <trkpt lat="43.82381" lon="0.04385">
        <ele>167</ele>
        <time>2022-08-19T07:30:06Z</time>
      </trkpt>
      <trkpt lat="43.82378" lon="0.04378">
        <ele>167</ele>
        <time>2022-08-19T07:30:58Z</time>
      </trkpt>
      <trkpt lat="43.8237" lon="0.04373">
        <ele>167</ele>
        <time>2022-08-19T07:31:29Z</time>
      </trkpt>
      <trkpt lat="43.82334" lon="0.04361">
        <ele>165</ele>
        <time>2022-08-19T07:32:02Z</time>
      </trkpt>
      <trkpt lat="43.82298" lon="0.04339">
        <ele>163</ele>
        <time>2022-08-19T07:32:33Z</time>
      </trkpt>
      <trkpt lat="43.82293" lon="0.04337">
        <ele>163</ele>
        <time>2022-08-19T07:32:37Z</time>
      </trkpt>
      <trkpt lat="43.8229" lon="0.04332">
        <ele>163</ele>
        <time>2022-08-19T07:32:40Z</time>
      </trkpt>
      <trkpt lat="43.82285" lon="0.0433">
        <ele>162</ele>
        <time>2022-08-19T07:32:44Z</time>
      </trkpt>
      <trkpt lat="43.82276" lon="0.04327">
        <ele>161</ele>
        <time>2022-08-19T07:32:51Z</time>
      </trkpt>
      <trkpt lat="43.82273" lon="0.04322">
        <ele>160</ele>
        <time>2022-08-19T07:32:55Z</time>
      </trkpt>
      <trkpt lat="43.82264" lon="0.04316">
        <ele>159</ele>
        <time>2022-08-19T07:33:02Z</time>
      </trkpt>
      <trkpt lat="43.82261" lon="0.04311">
        <ele>158</ele>
        <time>2022-08-19T07:33:05Z</time>
      </trkpt>
      <trkpt lat="43.82252" lon="0.04306">
        <ele>157</ele>
        <time>2022-08-19T07:33:11Z</time>
      </trkpt>
      <trkpt lat="43.82229" lon="0.04283">
        <ele>155</ele>
        <time>2022-08-19T07:33:29Z</time>
      </trkpt>
      <trkpt lat="43.82223" lon="0.04282">
        <ele>154</ele>
        <time>2022-08-19T07:33:33Z</time>
      </trkpt>
      <trkpt lat="43.82193" lon="0.04254">
        <ele>149</ele>
        <time>2022-08-19T07:33:59Z</time>
      </trkpt>
      <trkpt lat="43.82187" lon="0.04243">
        <ele>148</ele>
        <time>2022-08-19T07:34:06Z</time>
      </trkpt>
      <trkpt lat="43.8216" lon="0.04211">
        <ele>144</ele>
        <time>2022-08-19T07:34:36Z</time>
      </trkpt>
      <trkpt lat="43.82138" lon="0.04173">
        <ele>143</ele>
        <time>2022-08-19T07:35:04Z</time>
      </trkpt>
      <trkpt lat="43.82104" lon="0.04138">
        <ele>138</ele>
        <time>2022-08-19T07:35:37Z</time>
      </trkpt>
      <trkpt lat="43.82074" lon="0.041">
        <ele>136</ele>
        <time>2022-08-19T07:36:09Z</time>
      </trkpt>
      <trkpt lat="43.82042" lon="0.04063">
        <ele>136</ele>
        <time>2022-08-19T07:36:41Z</time>
      </trkpt>
      <trkpt lat="43.82025" lon="0.04046">
        <ele>135</ele>
        <time>2022-08-19T07:36:57Z</time>
      </trkpt>
      <trkpt lat="43.82011" lon="0.04023">
        <ele>134</ele>
        <time>2022-08-19T07:37:13Z</time>
      </trkpt>
      <trkpt lat="43.82002" lon="0.04004">
        <ele>133</ele>
        <time>2022-08-19T07:37:25Z</time>
      </trkpt>
      <trkpt lat="43.82001" lon="0.03996">
        <ele>133</ele>
        <time>2022-08-19T07:37:29Z</time>
      </trkpt>
      <trkpt lat="43.81996" lon="0.03983">
        <ele>133</ele>
        <time>2022-08-19T07:37:37Z</time>
      </trkpt>
      <trkpt lat="43.81994" lon="0.03976">
        <ele>133</ele>
        <time>2022-08-19T07:37:41Z</time>
      </trkpt>
      <trkpt lat="43.81974" lon="0.03927">
        <ele>132</ele>
        <time>2022-08-19T07:38:13Z</time>
      </trkpt>
      <trkpt lat="43.81968" lon="0.03914">
        <ele>131</ele>
        <time>2022-08-19T07:38:21Z</time>
      </trkpt>
      <trkpt lat="43.81964" lon="0.0391">
        <ele>131</ele>
        <time>2022-08-19T07:38:25Z</time>
      </trkpt>
      <trkpt lat="43.81961" lon="0.03906">
        <ele>131</ele>
        <time>2022-08-19T07:38:29Z</time>
      </trkpt>
      <trkpt lat="43.81958" lon="0.03899">
        <ele>131</ele>
        <time>2022-08-19T07:38:33Z</time>
      </trkpt>
      <trkpt lat="43.8193" lon="0.03858">
        <ele>130</ele>
        <time>2022-08-19T07:39:09Z</time>
      </trkpt>
      <trkpt lat="43.81921" lon="0.0385">
        <ele>129</ele>
        <time>2022-08-19T07:39:15Z</time>
      </trkpt>
      <trkpt lat="43.81918" lon="0.03843">
        <ele>129</ele>
        <time>2022-08-19T07:39:19Z</time>
      </trkpt>
      <trkpt lat="43.81885" lon="0.03799">
        <ele>129</ele>
        <time>2022-08-19T07:39:51Z</time>
      </trkpt>
      <trkpt lat="43.81864" lon="0.03747">
        <ele>128</ele>
        <time>2022-08-19T07:40:22Z</time>
      </trkpt>
      <trkpt lat="43.81861" lon="0.03741">
        <ele>127</ele>
        <time>2022-08-19T07:40:27Z</time>
      </trkpt>
      <trkpt lat="43.81856" lon="0.03728">
        <ele>127</ele>
        <time>2022-08-19T07:40:35Z</time>
      </trkpt>
      <trkpt lat="43.81834" lon="0.03676">
        <ele>125</ele>
        <time>2022-08-19T07:41:08Z</time>
      </trkpt>
      <trkpt lat="43.81813" lon="0.03623">
        <ele>124</ele>
        <time>2022-08-19T07:41:41Z</time>
      </trkpt>
      <trkpt lat="43.81792" lon="0.03566">
        <ele>123</ele>
        <time>2022-08-19T07:42:15Z</time>
      </trkpt>
      <trkpt lat="43.81784" lon="0.03554">
        <ele>122</ele>
        <time>2022-08-19T07:42:23Z</time>
      </trkpt>
      <trkpt lat="43.81775" lon="0.03551">
        <ele>123</ele>
        <time>2022-08-19T07:43:32Z</time>
      </trkpt>
      <trkpt lat="43.81765" lon="0.03554">
        <ele>123</ele>
        <time>2022-08-19T07:43:39Z</time>
      </trkpt>
      <trkpt lat="43.81724" lon="0.03554">
        <ele>123</ele>
        <time>2022-08-19T07:44:10Z</time>
      </trkpt>
      <trkpt lat="43.81694" lon="0.03556">
        <ele>123</ele>
        <time>2022-08-19T07:44:40Z</time>
      </trkpt>
      <trkpt lat="43.81691" lon="0.03558">
        <ele>123</ele>
        <time>2022-08-19T07:44:55Z</time>
      </trkpt>
      <trkpt lat="43.81684" lon="0.03559">
        <ele>123</ele>
        <time>2022-08-19T07:45:48Z</time>
      </trkpt>
      <trkpt lat="43.81675" lon="0.03563">
        <ele>123</ele>
        <time>2022-08-19T07:45:54Z</time>
      </trkpt>
      <trkpt lat="43.81665" lon="0.03563">
        <ele>123</ele>
        <time>2022-08-19T07:46:02Z</time>
      </trkpt>
      <trkpt lat="43.81625" lon="0.03579">
        <ele>126</ele>
        <time>2022-08-19T07:46:34Z</time>
      </trkpt>
      <trkpt lat="43.81612" lon="0.03586">
        <ele>127</ele>
        <time>2022-08-19T07:46:45Z</time>
      </trkpt>
      <trkpt lat="43.81607" lon="0.03587">
        <ele>127</ele>
        <time>2022-08-19T07:46:49Z</time>
      </trkpt>
      <trkpt lat="43.81593" lon="0.03597">
        <ele>128</ele>
        <time>2022-08-19T07:47:02Z</time>
      </trkpt>
      <trkpt lat="43.81588" lon="0.03598">
        <ele>128</ele>
        <time>2022-08-19T07:47:07Z</time>
      </trkpt>
      <trkpt lat="43.81551" lon="0.03621">
        <ele>132</ele>
        <time>2022-08-19T07:47:38Z</time>
      </trkpt>
      <trkpt lat="43.81511" lon="0.03632">
        <ele>135</ele>
        <time>2022-08-19T07:48:11Z</time>
      </trkpt>
      <trkpt lat="43.81505" lon="0.03634">
        <ele>136</ele>
        <time>2022-08-19T07:48:15Z</time>
      </trkpt>
      <trkpt lat="43.81471" lon="0.03626">
        <ele>138</ele>
        <time>2022-08-19T07:48:42Z</time>
      </trkpt>
      <trkpt lat="43.81466" lon="0.03622">
        <ele>139</ele>
        <time>2022-08-19T07:48:47Z</time>
      </trkpt>
      <trkpt lat="43.81426" lon="0.03614">
        <ele>142</ele>
        <time>2022-08-19T07:49:19Z</time>
      </trkpt>
      <trkpt lat="43.81404" lon="0.0361">
        <ele>143</ele>
        <time>2022-08-19T07:49:37Z</time>
      </trkpt>
      <trkpt lat="43.81374" lon="0.03602">
        <ele>144</ele>
        <time>2022-08-19T07:49:59Z</time>
      </trkpt>
      <trkpt lat="43.81368" lon="0.03602">
        <ele>144</ele>
        <time>2022-08-19T07:50:03Z</time>
      </trkpt>
      <trkpt lat="43.81325" lon="0.03611">
        <ele>145</ele>
        <time>2022-08-19T07:50:35Z</time>
      </trkpt>
      <trkpt lat="43.81283" lon="0.03619">
        <ele>146</ele>
        <time>2022-08-19T07:51:06Z</time>
      </trkpt>
      <trkpt lat="43.81272" lon="0.03619">
        <ele>146</ele>
        <time>2022-08-19T07:51:14Z</time>
      </trkpt>
      <trkpt lat="43.81257" lon="0.03623">
        <ele>147</ele>
        <time>2022-08-19T07:51:25Z</time>
      </trkpt>
      <trkpt lat="43.81252" lon="0.03625">
        <ele>147</ele>
        <time>2022-08-19T07:51:29Z</time>
      </trkpt>
      <trkpt lat="43.81206" lon="0.03633">
        <ele>149</ele>
        <time>2022-08-19T07:52:03Z</time>
      </trkpt>
      <trkpt lat="43.8118" lon="0.03638">
        <ele>150</ele>
        <time>2022-08-19T07:52:23Z</time>
      </trkpt>
      <trkpt lat="43.81175" lon="0.03638">
        <ele>150</ele>
        <time>2022-08-19T07:52:27Z</time>
      </trkpt>
      <trkpt lat="43.8117" lon="0.03641">
        <ele>151</ele>
        <time>2022-08-19T07:52:30Z</time>
      </trkpt>
      <trkpt lat="43.81154" lon="0.03643">
        <ele>151</ele>
        <time>2022-08-19T07:52:42Z</time>
      </trkpt>
      <trkpt lat="43.8115" lon="0.03644">
        <ele>151</ele>
        <time>2022-08-19T07:52:46Z</time>
      </trkpt>
      <trkpt lat="43.81145" lon="0.03644">
        <ele>152</ele>
        <time>2022-08-19T07:52:49Z</time>
      </trkpt>
      <trkpt lat="43.81141" lon="0.03646">
        <ele>152</ele>
        <time>2022-08-19T07:52:52Z</time>
      </trkpt>
      <trkpt lat="43.81094" lon="0.03654">
        <ele>153</ele>
        <time>2022-08-19T07:53:25Z</time>
      </trkpt>
      <trkpt lat="43.81079" lon="0.03655">
        <ele>153</ele>
        <time>2022-08-19T07:53:37Z</time>
      </trkpt>
      <trkpt lat="43.81074" lon="0.03656">
        <ele>153</ele>
        <time>2022-08-19T07:53:41Z</time>
      </trkpt>
      <trkpt lat="43.81054" lon="0.03661">
        <ele>154</ele>
        <time>2022-08-19T07:53:55Z</time>
      </trkpt>
      <trkpt lat="43.81038" lon="0.03664">
        <ele>153</ele>
        <time>2022-08-19T07:54:07Z</time>
      </trkpt>
      <trkpt lat="43.80991" lon="0.03679">
        <ele>153</ele>
        <time>2022-08-19T07:54:41Z</time>
      </trkpt>
      <trkpt lat="43.80973" lon="0.03688">
        <ele>153</ele>
        <time>2022-08-19T07:54:55Z</time>
      </trkpt>
      <trkpt lat="43.80961" lon="0.03697">
        <ele>153</ele>
        <time>2022-08-19T07:55:05Z</time>
      </trkpt>
      <trkpt lat="43.80931" lon="0.03709">
        <ele>153</ele>
        <time>2022-08-19T07:55:27Z</time>
      </trkpt>
      <trkpt lat="43.80917" lon="0.03716">
        <ele>152</ele>
        <time>2022-08-19T07:55:39Z</time>
      </trkpt>
      <trkpt lat="43.80907" lon="0.0372">
        <ele>152</ele>
        <time>2022-08-19T07:55:47Z</time>
      </trkpt>
      <trkpt lat="43.80902" lon="0.03723">
        <ele>152</ele>
        <time>2022-08-19T07:55:50Z</time>
      </trkpt>
      <trkpt lat="43.80897" lon="0.03724">
        <ele>152</ele>
        <time>2022-08-19T07:55:53Z</time>
      </trkpt>
      <trkpt lat="43.80878" lon="0.03734">
        <ele>153</ele>
        <time>2022-08-19T07:56:08Z</time>
      </trkpt>
      <trkpt lat="43.80874" lon="0.03735">
        <ele>153</ele>
        <time>2022-08-19T07:56:11Z</time>
      </trkpt>
      <trkpt lat="43.80833" lon="0.03757">
        <ele>154</ele>
        <time>2022-08-19T07:56:44Z</time>
      </trkpt>
      <trkpt lat="43.8081" lon="0.0377">
        <ele>155</ele>
        <time>2022-08-19T07:57:01Z</time>
      </trkpt>
      <trkpt lat="43.80806" lon="0.03773">
        <ele>155</ele>
        <time>2022-08-19T07:57:05Z</time>
      </trkpt>
      <trkpt lat="43.80766" lon="0.03793">
        <ele>155</ele>
        <time>2022-08-19T07:57:36Z</time>
      </trkpt>
      <trkpt lat="43.80747" lon="0.03804">
        <ele>154</ele>
        <time>2022-08-19T07:57:52Z</time>
      </trkpt>
      <trkpt lat="43.80741" lon="0.03804">
        <ele>154</ele>
        <time>2022-08-19T07:57:56Z</time>
      </trkpt>
      <trkpt lat="43.80706" lon="0.03809">
        <ele>151</ele>
        <time>2022-08-19T07:58:24Z</time>
      </trkpt>
      <trkpt lat="43.80701" lon="0.03811">
        <ele>151</ele>
        <time>2022-08-19T07:58:28Z</time>
      </trkpt>
      <trkpt lat="43.80677" lon="0.03821">
        <ele>149</ele>
        <time>2022-08-19T07:58:47Z</time>
      </trkpt>
      <trkpt lat="43.80672" lon="0.03821">
        <ele>149</ele>
        <time>2022-08-19T07:58:51Z</time>
      </trkpt>
      <trkpt lat="43.80661" lon="0.03826">
        <ele>148</ele>
        <time>2022-08-19T07:58:59Z</time>
      </trkpt>
      <trkpt lat="43.80652" lon="0.03827">
        <ele>147</ele>
        <time>2022-08-19T07:59:08Z</time>
      </trkpt>
      <trkpt lat="43.80641" lon="0.03831">
        <ele>146</ele>
        <time>2022-08-19T07:59:17Z</time>
      </trkpt>
      <trkpt lat="43.80605" lon="0.0384">
        <ele>144</ele>
        <time>2022-08-19T07:59:47Z</time>
      </trkpt>
      <trkpt lat="43.80601" lon="0.0384">
        <ele>143</ele>
        <time>2022-08-19T07:59:50Z</time>
      </trkpt>
      <trkpt lat="43.80567" lon="0.03831">
        <ele>141</ele>
        <time>2022-08-19T08:00:20Z</time>
      </trkpt>
      <trkpt lat="43.80544" lon="0.03819">
        <ele>140</ele>
        <time>2022-08-19T08:00:40Z</time>
      </trkpt>
      <trkpt lat="43.80535" lon="0.03816">
        <ele>139</ele>
        <time>2022-08-19T08:00:46Z</time>
      </trkpt>
      <trkpt lat="43.80531" lon="0.03814">
        <ele>139</ele>
        <time>2022-08-19T08:00:49Z</time>
      </trkpt>
      <trkpt lat="43.80487" lon="0.03799">
        <ele>137</ele>
        <time>2022-08-19T08:01:21Z</time>
      </trkpt>
      <trkpt lat="43.80455" lon="0.03795">
        <ele>136</ele>
        <time>2022-08-19T08:01:44Z</time>
      </trkpt>
      <trkpt lat="43.80416" lon="0.03804">
        <ele>136</ele>
        <time>2022-08-19T08:02:17Z</time>
      </trkpt>
      <trkpt lat="43.80407" lon="0.03809">
        <ele>136</ele>
        <time>2022-08-19T08:02:26Z</time>
      </trkpt>
      <trkpt lat="43.80403" lon="0.03812">
        <ele>136</ele>
        <time>2022-08-19T08:02:30Z</time>
      </trkpt>
      <trkpt lat="43.804" lon="0.03817">
        <ele>136</ele>
        <time>2022-08-19T08:02:35Z</time>
      </trkpt>
      <trkpt lat="43.80394" lon="0.0382">
        <ele>136</ele>
        <time>2022-08-19T08:02:40Z</time>
      </trkpt>
      <trkpt lat="43.80377" lon="0.03836">
        <ele>136</ele>
        <time>2022-08-19T08:02:57Z</time>
      </trkpt>
      <trkpt lat="43.80374" lon="0.03842">
        <ele>136</ele>
        <time>2022-08-19T08:03:01Z</time>
      </trkpt>
      <trkpt lat="43.80352" lon="0.03861">
        <ele>136</ele>
        <time>2022-08-19T08:03:20Z</time>
      </trkpt>
      <trkpt lat="43.80342" lon="0.03878">
        <ele>136</ele>
        <time>2022-08-19T08:03:32Z</time>
      </trkpt>
      <trkpt lat="43.80334" lon="0.03886">
        <ele>136</ele>
        <time>2022-08-19T08:03:39Z</time>
      </trkpt>
      <trkpt lat="43.80325" lon="0.03902">
        <ele>135</ele>
        <time>2022-08-19T08:03:49Z</time>
      </trkpt>
      <trkpt lat="43.80321" lon="0.03906">
        <ele>135</ele>
        <time>2022-08-19T08:03:52Z</time>
      </trkpt>
      <trkpt lat="43.80293" lon="0.03957">
        <ele>134</ele>
        <time>2022-08-19T08:04:25Z</time>
      </trkpt>
      <trkpt lat="43.80291" lon="0.03964">
        <ele>134</ele>
        <time>2022-08-19T08:04:29Z</time>
      </trkpt>
      <trkpt lat="43.80287" lon="0.03969">
        <ele>134</ele>
        <time>2022-08-19T08:04:33Z</time>
      </trkpt>
      <trkpt lat="43.80281" lon="0.03981">
        <ele>133</ele>
        <time>2022-08-19T08:04:43Z</time>
      </trkpt>
      <trkpt lat="43.8028" lon="0.03987">
        <ele>133</ele>
        <time>2022-08-19T08:04:47Z</time>
      </trkpt>
      <trkpt lat="43.80274" lon="0.03991">
        <ele>134</ele>
        <time>2022-08-19T08:04:53Z</time>
      </trkpt>
      <trkpt lat="43.8027" lon="0.03996">
        <ele>134</ele>
        <time>2022-08-19T08:04:58Z</time>
      </trkpt>
      <trkpt lat="43.80264" lon="0.04007">
        <ele>134</ele>
        <time>2022-08-19T08:05:07Z</time>
      </trkpt>
      <trkpt lat="43.80259" lon="0.04011">
        <ele>134</ele>
        <time>2022-08-19T08:05:11Z</time>
      </trkpt>
      <trkpt lat="43.80256" lon="0.04017">
        <ele>134</ele>
        <time>2022-08-19T08:05:15Z</time>
      </trkpt>
      <trkpt lat="43.80223" lon="0.04041">
        <ele>134</ele>
        <time>2022-08-19T08:05:44Z</time>
      </trkpt>
      <trkpt lat="43.8022" lon="0.04047">
        <ele>134</ele>
        <time>2022-08-19T08:05:48Z</time>
      </trkpt>
      <trkpt lat="43.80195" lon="0.04068">
        <ele>134</ele>
        <time>2022-08-19T08:06:12Z</time>
      </trkpt>
      <trkpt lat="43.80191" lon="0.04072">
        <ele>134</ele>
        <time>2022-08-19T08:06:16Z</time>
      </trkpt>
      <trkpt lat="43.80173" lon="0.04085">
        <ele>134</ele>
        <time>2022-08-19T08:06:31Z</time>
      </trkpt>
      <trkpt lat="43.80165" lon="0.04093">
        <ele>134</ele>
        <time>2022-08-19T08:06:40Z</time>
      </trkpt>
      <trkpt lat="43.80162" lon="0.04098">
        <ele>134</ele>
        <time>2022-08-19T08:06:44Z</time>
      </trkpt>
      <trkpt lat="43.80158" lon="0.041">
        <ele>134</ele>
        <time>2022-08-19T08:06:48Z</time>
      </trkpt>
      <trkpt lat="43.80154" lon="0.04104">
        <ele>135</ele>
        <time>2022-08-19T08:06:52Z</time>
      </trkpt>
      <trkpt lat="43.80139" lon="0.04115">
        <ele>135</ele>
        <time>2022-08-19T08:07:04Z</time>
      </trkpt>
      <trkpt lat="43.80135" lon="0.04121">
        <ele>135</ele>
        <time>2022-08-19T08:07:18Z</time>
      </trkpt>
      <trkpt lat="43.8013" lon="0.04124">
        <ele>135</ele>
        <time>2022-08-19T08:07:22Z</time>
      </trkpt>
      <trkpt lat="43.80125" lon="0.04126">
        <ele>135</ele>
        <time>2022-08-19T08:07:26Z</time>
      </trkpt>
      <trkpt lat="43.80109" lon="0.04144">
        <ele>135</ele>
        <time>2022-08-19T08:07:44Z</time>
      </trkpt>
      <trkpt lat="43.801" lon="0.04151">
        <ele>135</ele>
        <time>2022-08-19T08:07:53Z</time>
      </trkpt>
      <trkpt lat="43.80097" lon="0.04157">
        <ele>135</ele>
        <time>2022-08-19T08:07:58Z</time>
      </trkpt>
      <trkpt lat="43.80086" lon="0.04162">
        <ele>135</ele>
        <time>2022-08-19T08:08:30Z</time>
      </trkpt>
      <trkpt lat="43.80072" lon="0.04167">
        <ele>136</ele>
        <time>2022-08-19T08:08:48Z</time>
      </trkpt>
      <trkpt lat="43.80068" lon="0.04172">
        <ele>136</ele>
        <time>2022-08-19T08:09:31Z</time>
      </trkpt>
      <trkpt lat="43.80066" lon="0.04182">
        <ele>136</ele>
        <time>2022-08-19T08:09:43Z</time>
      </trkpt>
      <trkpt lat="43.80072" lon="0.04185">
        <ele>136</ele>
        <time>2022-08-19T08:09:53Z</time>
      </trkpt>
      <trkpt lat="43.80082" lon="0.04186">
        <ele>136</ele>
        <time>2022-08-19T08:10:02Z</time>
      </trkpt>
      <trkpt lat="43.80077" lon="0.04189">
        <ele>136</ele>
        <time>2022-08-19T08:10:29Z</time>
      </trkpt>
      <trkpt lat="43.80062" lon="0.042">
        <ele>137</ele>
        <time>2022-08-19T08:10:51Z</time>
      </trkpt>
      <trkpt lat="43.80057" lon="0.04204">
        <ele>137</ele>
        <time>2022-08-19T08:10:56Z</time>
      </trkpt>
      <trkpt lat="43.80046" lon="0.04208">
        <ele>137</ele>
        <time>2022-08-19T08:11:05Z</time>
      </trkpt>
      <trkpt lat="43.80038" lon="0.04213">
        <ele>137</ele>
        <time>2022-08-19T08:11:12Z</time>
      </trkpt>
      <trkpt lat="43.80028" lon="0.04217">
        <ele>137</ele>
        <time>2022-08-19T08:11:21Z</time>
      </trkpt>
      <trkpt lat="43.80024" lon="0.04221">
        <ele>137</ele>
        <time>2022-08-19T08:11:26Z</time>
      </trkpt>
      <trkpt lat="43.80022" lon="0.04226">
        <ele>138</ele>
        <time>2022-08-19T08:11:31Z</time>
      </trkpt>
      <trkpt lat="43.80017" lon="0.04229">
        <ele>138</ele>
        <time>2022-08-19T08:11:34Z</time>
      </trkpt>
      <trkpt lat="43.80007" lon="0.04233">
        <ele>138</ele>
        <time>2022-08-19T08:11:47Z</time>
      </trkpt>
      <trkpt lat="43.80004" lon="0.04245">
        <ele>140</ele>
        <time>2022-08-19T08:12:12Z</time>
      </trkpt>
      <trkpt lat="43.79999" lon="0.0426">
        <ele>141</ele>
        <time>2022-08-19T08:12:24Z</time>
      </trkpt>
      <trkpt lat="43.79994" lon="0.04266">
        <ele>141</ele>
        <time>2022-08-19T08:12:31Z</time>
      </trkpt>
      <trkpt lat="43.79989" lon="0.04268">
        <ele>141</ele>
        <time>2022-08-19T08:12:36Z</time>
      </trkpt>
      <trkpt lat="43.79984" lon="0.04267">
        <ele>141</ele>
        <time>2022-08-19T08:12:59Z</time>
      </trkpt>
      <trkpt lat="43.79986" lon="0.04277">
        <ele>141</ele>
        <time>2022-08-19T08:14:08Z</time>
      </trkpt>
      <trkpt lat="43.79987" lon="0.04276">
        <ele>141</ele>
        <time>2022-08-19T08:15:37Z</time>
      </trkpt>
      <trkpt lat="43.79987" lon="0.04282">
        <ele>141</ele>
        <time>2022-08-19T08:19:41Z</time>
      </trkpt>
      <trkpt lat="43.79987" lon="0.04273">
        <ele>141</ele>
        <time>2022-08-19T08:34:56Z</time>
      </trkpt>
      <trkpt lat="43.79987" lon="0.04274">
        <ele>141</ele>
        <time>2022-08-19T08:41:41Z</time>
      </trkpt>
      <trkpt lat="43.79987" lon="0.04276">
        <ele>141</ele>
        <time>2022-08-19T08:45:13Z</time>
      </trkpt>
      <trkpt lat="43.79994" lon="0.04278">
        <ele>141</ele>
        <time>2022-08-19T08:46:22Z</time>
      </trkpt>
      <trkpt lat="43.79997" lon="0.04283">
        <ele>141</ele>
        <time>2022-08-19T08:46:27Z</time>
      </trkpt>
      <trkpt lat="43.80008" lon="0.04319">
        <ele>141</ele>
        <time>2022-08-19T08:46:50Z</time>
      </trkpt>
      <trkpt lat="43.80011" lon="0.04324">
        <ele>141</ele>
        <time>2022-08-19T08:46:54Z</time>
      </trkpt>
      <trkpt lat="43.80012" lon="0.04331">
        <ele>141</ele>
        <time>2022-08-19T08:46:59Z</time>
      </trkpt>
      <trkpt lat="43.8001" lon="0.04338">
        <ele>141</ele>
        <time>2022-08-19T08:47:04Z</time>
      </trkpt>
      <trkpt lat="43.80006" lon="0.04344">
        <ele>141</ele>
        <time>2022-08-19T08:47:09Z</time>
      </trkpt>
      <trkpt lat="43.80001" lon="0.04345">
        <ele>142</ele>
        <time>2022-08-19T08:47:13Z</time>
      </trkpt>
      <trkpt lat="43.80001" lon="0.04352">
        <ele>142</ele>
        <time>2022-08-19T08:47:18Z</time>
      </trkpt>
      <trkpt lat="43.80001" lon="0.04358">
        <ele>142</ele>
        <time>2022-08-19T08:47:22Z</time>
      </trkpt>
      <trkpt lat="43.80003" lon="0.0437">
        <ele>142</ele>
        <time>2022-08-19T08:47:32Z</time>
      </trkpt>
      <trkpt lat="43.79997" lon="0.04366">
        <ele>141</ele>
        <time>2022-08-19T08:52:03Z</time>
      </trkpt>
      <trkpt lat="43.79998" lon="0.04359">
        <ele>141</ele>
        <time>2022-08-19T08:52:08Z</time>
      </trkpt>
      <trkpt lat="43.79998" lon="0.04348">
        <ele>141</ele>
        <time>2022-08-19T08:52:17Z</time>
      </trkpt>
      <trkpt lat="43.8" lon="0.04342">
        <ele>140</ele>
        <time>2022-08-19T08:52:21Z</time>
      </trkpt>
      <trkpt lat="43.80008" lon="0.04332">
        <ele>140</ele>
        <time>2022-08-19T08:52:30Z</time>
      </trkpt>
      <trkpt lat="43.80009" lon="0.04325">
        <ele>140</ele>
        <time>2022-08-19T08:52:35Z</time>
      </trkpt>
      <trkpt lat="43.80003" lon="0.04311">
        <ele>140</ele>
        <time>2022-08-19T08:52:47Z</time>
      </trkpt>
      <trkpt lat="43.79999" lon="0.04294">
        <ele>140</ele>
        <time>2022-08-19T08:53:01Z</time>
      </trkpt>
      <trkpt lat="43.79999" lon="0.04287">
        <ele>140</ele>
        <time>2022-08-19T08:53:05Z</time>
      </trkpt>
      <trkpt lat="43.79997" lon="0.04281">
        <ele>140</ele>
        <time>2022-08-19T08:53:09Z</time>
      </trkpt>
      <trkpt lat="43.79994" lon="0.04268">
        <ele>141</ele>
        <time>2022-08-19T08:53:16Z</time>
      </trkpt>
      <trkpt lat="43.79991" lon="0.04248">
        <ele>141</ele>
        <time>2022-08-19T08:53:30Z</time>
      </trkpt>
      <trkpt lat="43.79987" lon="0.04243">
        <ele>141</ele>
        <time>2022-08-19T08:53:34Z</time>
      </trkpt>
      <trkpt lat="43.79985" lon="0.04236">
        <ele>141</ele>
        <time>2022-08-19T08:53:39Z</time>
      </trkpt>
      <trkpt lat="43.79984" lon="0.04229">
        <ele>140</ele>
        <time>2022-08-19T08:53:44Z</time>
      </trkpt>
      <trkpt lat="43.79971" lon="0.04188">
        <ele>140</ele>
        <time>2022-08-19T08:54:15Z</time>
      </trkpt>
      <trkpt lat="43.79967" lon="0.04169">
        <ele>140</ele>
        <time>2022-08-19T08:54:26Z</time>
      </trkpt>
      <trkpt lat="43.79963" lon="0.04161">
        <ele>140</ele>
        <time>2022-08-19T08:54:33Z</time>
      </trkpt>
      <trkpt lat="43.79955" lon="0.04142">
        <ele>140</ele>
        <time>2022-08-19T08:54:46Z</time>
      </trkpt>
      <trkpt lat="43.79956" lon="0.04131">
        <ele>140</ele>
        <time>2022-08-19T08:55:18Z</time>
      </trkpt>
      <trkpt lat="43.79954" lon="0.04123">
        <ele>140</ele>
        <time>2022-08-19T08:55:30Z</time>
      </trkpt>
      <trkpt lat="43.79951" lon="0.04107">
        <ele>140</ele>
        <time>2022-08-19T08:57:46Z</time>
      </trkpt>
      <trkpt lat="43.79938" lon="0.04079">
        <ele>139</ele>
        <time>2022-08-19T08:58:10Z</time>
      </trkpt>
      <trkpt lat="43.79933" lon="0.04071">
        <ele>139</ele>
        <time>2022-08-19T08:58:16Z</time>
      </trkpt>
      <trkpt lat="43.79921" lon="0.04057">
        <ele>138</ele>
        <time>2022-08-19T08:58:39Z</time>
      </trkpt>
      <trkpt lat="43.79915" lon="0.04055">
        <ele>138</ele>
        <time>2022-08-19T08:58:43Z</time>
      </trkpt>
      <trkpt lat="43.79904" lon="0.04052">
        <ele>136</ele>
        <time>2022-08-19T08:58:54Z</time>
      </trkpt>
      <trkpt lat="43.79894" lon="0.04043">
        <ele>135</ele>
        <time>2022-08-19T08:59:04Z</time>
      </trkpt>
      <trkpt lat="43.79886" lon="0.04033">
        <ele>133</ele>
        <time>2022-08-19T08:59:16Z</time>
      </trkpt>
      <trkpt lat="43.79878" lon="0.04025">
        <ele>132</ele>
        <time>2022-08-19T08:59:25Z</time>
      </trkpt>
      <trkpt lat="43.7986" lon="0.04">
        <ele>130</ele>
        <time>2022-08-19T08:59:58Z</time>
      </trkpt>
      <trkpt lat="43.79854" lon="0.03994">
        <ele>129</ele>
        <time>2022-08-19T09:00:05Z</time>
      </trkpt>
      <trkpt lat="43.79831" lon="0.03964">
        <ele>126</ele>
        <time>2022-08-19T09:00:32Z</time>
      </trkpt>
      <trkpt lat="43.79826" lon="0.0396">
        <ele>126</ele>
        <time>2022-08-19T09:00:36Z</time>
      </trkpt>
      <trkpt lat="43.79819" lon="0.03959">
        <ele>125</ele>
        <time>2022-08-19T09:00:40Z</time>
      </trkpt>
      <trkpt lat="43.7981" lon="0.03949">
        <ele>125</ele>
        <time>2022-08-19T09:00:49Z</time>
      </trkpt>
      <trkpt lat="43.79804" lon="0.03938">
        <ele>125</ele>
        <time>2022-08-19T09:00:58Z</time>
      </trkpt>
      <trkpt lat="43.79796" lon="0.03912">
        <ele>125</ele>
        <time>2022-08-19T09:01:15Z</time>
      </trkpt>
      <trkpt lat="43.79789" lon="0.03896">
        <ele>124</ele>
        <time>2022-08-19T09:01:27Z</time>
      </trkpt>
      <trkpt lat="43.79785" lon="0.0388">
        <ele>124</ele>
        <time>2022-08-19T09:01:39Z</time>
      </trkpt>
      <trkpt lat="43.79778" lon="0.03865">
        <ele>123</ele>
        <time>2022-08-19T09:01:51Z</time>
      </trkpt>
      <trkpt lat="43.79776" lon="0.03858">
        <ele>123</ele>
        <time>2022-08-19T09:01:55Z</time>
      </trkpt>
      <trkpt lat="43.79768" lon="0.03847">
        <ele>123</ele>
        <time>2022-08-19T09:02:03Z</time>
      </trkpt>
      <trkpt lat="43.79752" lon="0.03805">
        <ele>122</ele>
        <time>2022-08-19T09:02:33Z</time>
      </trkpt>
      <trkpt lat="43.79738" lon="0.03766">
        <ele>121</ele>
        <time>2022-08-19T09:03:01Z</time>
      </trkpt>
      <trkpt lat="43.79736" lon="0.03759">
        <ele>121</ele>
        <time>2022-08-19T09:03:06Z</time>
      </trkpt>
      <trkpt lat="43.79729" lon="0.03741">
        <ele>121</ele>
        <time>2022-08-19T09:03:18Z</time>
      </trkpt>
      <trkpt lat="43.79726" lon="0.03735">
        <ele>121</ele>
        <time>2022-08-19T09:03:22Z</time>
      </trkpt>
      <trkpt lat="43.79714" lon="0.03713">
        <ele>121</ele>
        <time>2022-08-19T09:03:37Z</time>
      </trkpt>
      <trkpt lat="43.79709" lon="0.03701">
        <ele>120</ele>
        <time>2022-08-19T09:03:45Z</time>
      </trkpt>
      <trkpt lat="43.797" lon="0.03676">
        <ele>120</ele>
        <time>2022-08-19T09:04:01Z</time>
      </trkpt>
      <trkpt lat="43.79691" lon="0.03642">
        <ele>120</ele>
        <time>2022-08-19T09:04:25Z</time>
      </trkpt>
      <trkpt lat="43.7968" lon="0.03618">
        <ele>120</ele>
        <time>2022-08-19T09:04:41Z</time>
      </trkpt>
      <trkpt lat="43.79678" lon="0.0361">
        <ele>121</ele>
        <time>2022-08-19T09:04:46Z</time>
      </trkpt>
      <trkpt lat="43.79673" lon="0.03596">
        <ele>121</ele>
        <time>2022-08-19T09:04:55Z</time>
      </trkpt>
      <trkpt lat="43.79669" lon="0.03591">
        <ele>121</ele>
        <time>2022-08-19T09:04:59Z</time>
      </trkpt>
      <trkpt lat="43.79663" lon="0.03571">
        <ele>120</ele>
        <time>2022-08-19T09:05:11Z</time>
      </trkpt>
      <trkpt lat="43.79653" lon="0.03552">
        <ele>120</ele>
        <time>2022-08-19T09:05:22Z</time>
      </trkpt>
      <trkpt lat="43.79637" lon="0.03506">
        <ele>120</ele>
        <time>2022-08-19T09:05:53Z</time>
      </trkpt>
      <trkpt lat="43.79617" lon="0.03459">
        <ele>120</ele>
        <time>2022-08-19T09:06:26Z</time>
      </trkpt>
      <trkpt lat="43.79615" lon="0.03453">
        <ele>121</ele>
        <time>2022-08-19T09:06:31Z</time>
      </trkpt>
      <trkpt lat="43.79605" lon="0.03435">
        <ele>121</ele>
        <time>2022-08-19T09:06:43Z</time>
      </trkpt>
      <trkpt lat="43.79593" lon="0.03395">
        <ele>121</ele>
        <time>2022-08-19T09:07:07Z</time>
      </trkpt>
      <trkpt lat="43.79584" lon="0.03376">
        <ele>122</ele>
        <time>2022-08-19T09:07:19Z</time>
      </trkpt>
      <trkpt lat="43.79582" lon="0.03369">
        <ele>122</ele>
        <time>2022-08-19T09:07:23Z</time>
      </trkpt>
      <trkpt lat="43.79577" lon="0.03351">
        <ele>122</ele>
        <time>2022-08-19T09:07:35Z</time>
      </trkpt>
      <trkpt lat="43.79565" lon="0.03326">
        <ele>123</ele>
        <time>2022-08-19T09:07:52Z</time>
      </trkpt>
      <trkpt lat="43.7955" lon="0.03294">
        <ele>123</ele>
        <time>2022-08-19T09:08:15Z</time>
      </trkpt>
      <trkpt lat="43.79547" lon="0.03289">
        <ele>123</ele>
        <time>2022-08-19T09:08:19Z</time>
      </trkpt>
      <trkpt lat="43.79544" lon="0.03283">
        <ele>123</ele>
        <time>2022-08-19T09:08:23Z</time>
      </trkpt>
      <trkpt lat="43.79536" lon="0.03273">
        <ele>123</ele>
        <time>2022-08-19T09:08:31Z</time>
      </trkpt>
      <trkpt lat="43.79532" lon="0.03268">
        <ele>123</ele>
        <time>2022-08-19T09:08:35Z</time>
      </trkpt>
      <trkpt lat="43.79509" lon="0.03223">
        <ele>123</ele>
        <time>2022-08-19T09:09:07Z</time>
      </trkpt>
      <trkpt lat="43.79507" lon="0.03217">
        <ele>123</ele>
        <time>2022-08-19T09:09:11Z</time>
      </trkpt>
      <trkpt lat="43.79504" lon="0.03211">
        <ele>123</ele>
        <time>2022-08-19T09:09:15Z</time>
      </trkpt>
      <trkpt lat="43.79501" lon="0.03206">
        <ele>123</ele>
        <time>2022-08-19T09:09:19Z</time>
      </trkpt>
      <trkpt lat="43.79498" lon="0.03201">
        <ele>122</ele>
        <time>2022-08-19T09:09:23Z</time>
      </trkpt>
      <trkpt lat="43.79494" lon="0.03196">
        <ele>122</ele>
        <time>2022-08-19T09:09:27Z</time>
      </trkpt>
      <trkpt lat="43.79489" lon="0.03185">
        <ele>123</ele>
        <time>2022-08-19T09:09:35Z</time>
      </trkpt>
      <trkpt lat="43.79486" lon="0.0318">
        <ele>123</ele>
        <time>2022-08-19T09:09:39Z</time>
      </trkpt>
      <trkpt lat="43.7948" lon="0.03176">
        <ele>123</ele>
        <time>2022-08-19T09:09:46Z</time>
      </trkpt>
      <trkpt lat="43.79475" lon="0.03178">
        <ele>122</ele>
        <time>2022-08-19T09:09:51Z</time>
      </trkpt>
      <trkpt lat="43.79466" lon="0.03187">
        <ele>122</ele>
        <time>2022-08-19T09:09:59Z</time>
      </trkpt>
      <trkpt lat="43.7946" lon="0.03197">
        <ele>122</ele>
        <time>2022-08-19T09:10:07Z</time>
      </trkpt>
      <trkpt lat="43.79455" lon="0.03209">
        <ele>122</ele>
        <time>2022-08-19T09:10:14Z</time>
      </trkpt>
      <trkpt lat="43.79429" lon="0.03244">
        <ele>123</ele>
        <time>2022-08-19T09:10:42Z</time>
      </trkpt>
      <trkpt lat="43.79424" lon="0.03248">
        <ele>123</ele>
        <time>2022-08-19T09:10:47Z</time>
      </trkpt>
      <trkpt lat="43.79421" lon="0.03252">
        <ele>123</ele>
        <time>2022-08-19T09:10:51Z</time>
      </trkpt>
      <trkpt lat="43.79417" lon="0.03255">
        <ele>123</ele>
        <time>2022-08-19T09:10:54Z</time>
      </trkpt>
      <trkpt lat="43.79399" lon="0.0326">
        <ele>123</ele>
        <time>2022-08-19T09:11:09Z</time>
      </trkpt>
      <trkpt lat="43.79381" lon="0.03248">
        <ele>122</ele>
        <time>2022-08-19T09:11:25Z</time>
      </trkpt>
      <trkpt lat="43.79376" lon="0.03244">
        <ele>122</ele>
        <time>2022-08-19T09:11:29Z</time>
      </trkpt>
      <trkpt lat="43.79372" lon="0.03241">
        <ele>122</ele>
        <time>2022-08-19T09:11:34Z</time>
      </trkpt>
      <trkpt lat="43.79334" lon="0.0321">
        <ele>121</ele>
        <time>2022-08-19T09:12:07Z</time>
      </trkpt>
      <trkpt lat="43.79294" lon="0.03184">
        <ele>121</ele>
        <time>2022-08-19T09:12:43Z</time>
      </trkpt>
      <trkpt lat="43.79256" lon="0.0316">
        <ele>120</ele>
        <time>2022-08-19T09:13:15Z</time>
      </trkpt>
      <trkpt lat="43.79242" lon="0.03152">
        <ele>120</ele>
        <time>2022-08-19T09:13:26Z</time>
      </trkpt>
      <trkpt lat="43.79202" lon="0.03134">
        <ele>121</ele>
        <time>2022-08-19T09:13:58Z</time>
      </trkpt>
      <trkpt lat="43.79196" lon="0.03132">
        <ele>121</ele>
        <time>2022-08-19T09:14:03Z</time>
      </trkpt>
      <trkpt lat="43.79154" lon="0.03112">
        <ele>122</ele>
        <time>2022-08-19T09:14:37Z</time>
      </trkpt>
      <trkpt lat="43.79118" lon="0.03096">
        <ele>121</ele>
        <time>2022-08-19T09:15:07Z</time>
      </trkpt>
      <trkpt lat="43.79081" lon="0.03089">
        <ele>121</ele>
        <time>2022-08-19T09:15:38Z</time>
      </trkpt>
      <trkpt lat="43.79076" lon="0.03089">
        <ele>121</ele>
        <time>2022-08-19T09:15:42Z</time>
      </trkpt>
      <trkpt lat="43.79071" lon="0.03093">
        <ele>120</ele>
        <time>2022-08-19T09:16:16Z</time>
      </trkpt>
      <trkpt lat="43.7906" lon="0.03096">
        <ele>120</ele>
        <time>2022-08-19T09:16:24Z</time>
      </trkpt>
      <trkpt lat="43.79055" lon="0.03096">
        <ele>121</ele>
        <time>2022-08-19T09:16:29Z</time>
      </trkpt>
      <trkpt lat="43.7905" lon="0.03095">
        <ele>120</ele>
        <time>2022-08-19T09:16:33Z</time>
      </trkpt>
      <trkpt lat="43.7905" lon="0.03088">
        <ele>121</ele>
        <time>2022-08-19T09:16:47Z</time>
      </trkpt>
      <trkpt lat="43.79045" lon="0.03094">
        <ele>120</ele>
        <time>2022-08-19T09:16:59Z</time>
      </trkpt>
      <trkpt lat="43.79036" lon="0.031">
        <ele>121</ele>
        <time>2022-08-19T09:17:29Z</time>
      </trkpt>
      <trkpt lat="43.79014" lon="0.03103">
        <ele>120</ele>
        <time>2022-08-19T09:17:47Z</time>
      </trkpt>
      <trkpt lat="43.79009" lon="0.03105">
        <ele>120</ele>
        <time>2022-08-19T09:17:51Z</time>
      </trkpt>
      <trkpt lat="43.78968" lon="0.0312">
        <ele>121</ele>
        <time>2022-08-19T09:18:25Z</time>
      </trkpt>
      <trkpt lat="43.78958" lon="0.03124">
        <ele>121</ele>
        <time>2022-08-19T09:18:33Z</time>
      </trkpt>
      <trkpt lat="43.78932" lon="0.03147">
        <ele>121</ele>
        <time>2022-08-19T09:18:58Z</time>
      </trkpt>
      <trkpt lat="43.78921" lon="0.03161">
        <ele>121</ele>
        <time>2022-08-19T09:19:10Z</time>
      </trkpt>
      <trkpt lat="43.78916" lon="0.03165">
        <ele>121</ele>
        <time>2022-08-19T09:19:15Z</time>
      </trkpt>
      <trkpt lat="43.78888" lon="0.03207">
        <ele>121</ele>
        <time>2022-08-19T09:19:48Z</time>
      </trkpt>
      <trkpt lat="43.78859" lon="0.0325">
        <ele>121</ele>
        <time>2022-08-19T09:20:19Z</time>
      </trkpt>
      <trkpt lat="43.78831" lon="0.03292">
        <ele>121</ele>
        <time>2022-08-19T09:20:53Z</time>
      </trkpt>
      <trkpt lat="43.78817" lon="0.03313">
        <ele>122</ele>
        <time>2022-08-19T09:21:10Z</time>
      </trkpt>
      <trkpt lat="43.78803" lon="0.03323">
        <ele>122</ele>
        <time>2022-08-19T09:21:24Z</time>
      </trkpt>
      <trkpt lat="43.78787" lon="0.03328">
        <ele>123</ele>
        <time>2022-08-19T09:21:37Z</time>
      </trkpt>
      <trkpt lat="43.78782" lon="0.03326">
        <ele>123</ele>
        <time>2022-08-19T09:21:42Z</time>
      </trkpt>
      <trkpt lat="43.78778" lon="0.03324">
        <ele>123</ele>
        <time>2022-08-19T09:21:46Z</time>
      </trkpt>
      <trkpt lat="43.78771" lon="0.03327">
        <ele>124</ele>
        <time>2022-08-19T09:21:53Z</time>
      </trkpt>
      <trkpt lat="43.78759" lon="0.03328">
        <ele>126</ele>
        <time>2022-08-19T09:22:04Z</time>
      </trkpt>
      <trkpt lat="43.78748" lon="0.03331">
        <ele>125</ele>
        <time>2022-08-19T09:22:12Z</time>
      </trkpt>
      <trkpt lat="43.78733" lon="0.03335">
        <ele>126</ele>
        <time>2022-08-19T09:22:25Z</time>
      </trkpt>
      <trkpt lat="43.78717" lon="0.03334">
        <ele>126</ele>
        <time>2022-08-19T09:22:39Z</time>
      </trkpt>
      <trkpt lat="43.78712" lon="0.03336">
        <ele>126</ele>
        <time>2022-08-19T09:22:43Z</time>
      </trkpt>
      <trkpt lat="43.78703" lon="0.03342">
        <ele>127</ele>
        <time>2022-08-19T09:22:51Z</time>
      </trkpt>
      <trkpt lat="43.78699" lon="0.03344">
        <ele>127</ele>
        <time>2022-08-19T09:22:55Z</time>
      </trkpt>
      <trkpt lat="43.78658" lon="0.03355">
        <ele>128</ele>
        <time>2022-08-19T09:23:28Z</time>
      </trkpt>
      <trkpt lat="43.78653" lon="0.03356">
        <ele>128</ele>
        <time>2022-08-19T09:23:32Z</time>
      </trkpt>
      <trkpt lat="43.78633" lon="0.03359">
        <ele>129</ele>
        <time>2022-08-19T09:23:49Z</time>
      </trkpt>
      <trkpt lat="43.78613" lon="0.03354">
        <ele>129</ele>
        <time>2022-08-19T09:24:07Z</time>
      </trkpt>
      <trkpt lat="43.786" lon="0.03336">
        <ele>130</ele>
        <time>2022-08-19T09:24:23Z</time>
      </trkpt>
      <trkpt lat="43.78579" lon="0.03316">
        <ele>132</ele>
        <time>2022-08-19T09:24:44Z</time>
      </trkpt>
      <trkpt lat="43.78576" lon="0.03311">
        <ele>133</ele>
        <time>2022-08-19T09:24:48Z</time>
      </trkpt>
      <trkpt lat="43.78573" lon="0.03305">
        <ele>133</ele>
        <time>2022-08-19T09:24:52Z</time>
      </trkpt>
      <trkpt lat="43.7856" lon="0.0329">
        <ele>134</ele>
        <time>2022-08-19T09:25:06Z</time>
      </trkpt>
      <trkpt lat="43.78556" lon="0.03286">
        <ele>135</ele>
        <time>2022-08-19T09:25:12Z</time>
      </trkpt>
      <trkpt lat="43.78551" lon="0.03285">
        <ele>136</ele>
        <time>2022-08-19T09:25:17Z</time>
      </trkpt>
      <trkpt lat="43.78532" lon="0.0327">
        <ele>138</ele>
        <time>2022-08-19T09:25:44Z</time>
      </trkpt>
      <trkpt lat="43.78527" lon="0.03269">
        <ele>138</ele>
        <time>2022-08-19T09:25:48Z</time>
      </trkpt>
      <trkpt lat="43.78523" lon="0.03264">
        <ele>138</ele>
        <time>2022-08-19T09:25:52Z</time>
      </trkpt>
      <trkpt lat="43.78505" lon="0.03249">
        <ele>140</ele>
        <time>2022-08-19T09:26:16Z</time>
      </trkpt>
      <trkpt lat="43.78473" lon="0.03226">
        <ele>144</ele>
        <time>2022-08-19T09:26:47Z</time>
      </trkpt>
      <trkpt lat="43.78441" lon="0.032">
        <ele>146</ele>
        <time>2022-08-19T09:27:18Z</time>
      </trkpt>
      <trkpt lat="43.78413" lon="0.03188">
        <ele>148</ele>
        <time>2022-08-19T09:27:43Z</time>
      </trkpt>
      <trkpt lat="43.78409" lon="0.03184">
        <ele>149</ele>
        <time>2022-08-19T09:27:47Z</time>
      </trkpt>
      <trkpt lat="43.78398" lon="0.03171">
        <ele>150</ele>
        <time>2022-08-19T09:27:58Z</time>
      </trkpt>
      <trkpt lat="43.78388" lon="0.03165">
        <ele>151</ele>
        <time>2022-08-19T09:28:07Z</time>
      </trkpt>
      <trkpt lat="43.78356" lon="0.03133">
        <ele>152</ele>
        <time>2022-08-19T09:28:38Z</time>
      </trkpt>
      <trkpt lat="43.78352" lon="0.03131">
        <ele>153</ele>
        <time>2022-08-19T09:28:42Z</time>
      </trkpt>
      <trkpt lat="43.78319" lon="0.0309">
        <ele>154</ele>
        <time>2022-08-19T09:29:15Z</time>
      </trkpt>
      <trkpt lat="43.78312" lon="0.03081">
        <ele>154</ele>
        <time>2022-08-19T09:29:23Z</time>
      </trkpt>
      <trkpt lat="43.7828" lon="0.03044">
        <ele>152</ele>
        <time>2022-08-19T09:29:56Z</time>
      </trkpt>
      <trkpt lat="43.78276" lon="0.03038">
        <ele>151</ele>
        <time>2022-08-19T09:30:01Z</time>
      </trkpt>
      <trkpt lat="43.78268" lon="0.03028">
        <ele>151</ele>
        <time>2022-08-19T09:30:09Z</time>
      </trkpt>
      <trkpt lat="43.78262" lon="0.03025">
        <ele>151</ele>
        <time>2022-08-19T09:30:14Z</time>
      </trkpt>
      <trkpt lat="43.78248" lon="0.03009">
        <ele>153</ele>
        <time>2022-08-19T09:30:28Z</time>
      </trkpt>
      <trkpt lat="43.78245" lon="0.03003">
        <ele>153</ele>
        <time>2022-08-19T09:30:33Z</time>
      </trkpt>
      <trkpt lat="43.7824" lon="0.02999">
        <ele>153</ele>
        <time>2022-08-19T09:30:37Z</time>
      </trkpt>
      <trkpt lat="43.78238" lon="0.02994">
        <ele>154</ele>
        <time>2022-08-19T09:30:41Z</time>
      </trkpt>
      <trkpt lat="43.78237" lon="0.02987">
        <ele>154</ele>
        <time>2022-08-19T09:30:45Z</time>
      </trkpt>
      <trkpt lat="43.78235" lon="0.02968">
        <ele>154</ele>
        <time>2022-08-19T09:30:56Z</time>
      </trkpt>
      <trkpt lat="43.78242" lon="0.02927">
        <ele>154</ele>
        <time>2022-08-19T09:31:19Z</time>
      </trkpt>
      <trkpt lat="43.78253" lon="0.02886">
        <ele>153</ele>
        <time>2022-08-19T09:31:42Z</time>
      </trkpt>
      <trkpt lat="43.78253" lon="0.02872">
        <ele>153</ele>
        <time>2022-08-19T09:31:50Z</time>
      </trkpt>
      <trkpt lat="43.78257" lon="0.02813">
        <ele>151</ele>
        <time>2022-08-19T09:32:23Z</time>
      </trkpt>
      <trkpt lat="43.78264" lon="0.02771">
        <ele>149</ele>
        <time>2022-08-19T09:32:47Z</time>
      </trkpt>
      <trkpt lat="43.78267" lon="0.02765">
        <ele>148</ele>
        <time>2022-08-19T09:32:51Z</time>
      </trkpt>
      <trkpt lat="43.78273" lon="0.02736">
        <ele>146</ele>
        <time>2022-08-19T09:33:07Z</time>
      </trkpt>
      <trkpt lat="43.78275" lon="0.02724">
        <ele>146</ele>
        <time>2022-08-19T09:33:13Z</time>
      </trkpt>
      <trkpt lat="43.78288" lon="0.02665">
        <ele>144</ele>
        <time>2022-08-19T09:33:44Z</time>
      </trkpt>
      <trkpt lat="43.78289" lon="0.02659">
        <ele>143</ele>
        <time>2022-08-19T09:33:47Z</time>
      </trkpt>
      <trkpt lat="43.78289" lon="0.02653">
        <ele>143</ele>
        <time>2022-08-19T09:33:50Z</time>
      </trkpt>
      <trkpt lat="43.78284" lon="0.02641">
        <ele>144</ele>
        <time>2022-08-19T09:33:57Z</time>
      </trkpt>
      <trkpt lat="43.78281" lon="0.02635">
        <ele>144</ele>
        <time>2022-08-19T09:34:01Z</time>
      </trkpt>
      <trkpt lat="43.78281" lon="0.02627">
        <ele>144</ele>
        <time>2022-08-19T09:34:05Z</time>
      </trkpt>
      <trkpt lat="43.78279" lon="0.0262">
        <ele>144</ele>
        <time>2022-08-19T09:34:09Z</time>
      </trkpt>
      <trkpt lat="43.78275" lon="0.02615">
        <ele>144</ele>
        <time>2022-08-19T09:34:13Z</time>
      </trkpt>
      <trkpt lat="43.78271" lon="0.02615">
        <ele>144</ele>
        <time>2022-08-19T09:34:17Z</time>
      </trkpt>
      <trkpt lat="43.78264" lon="0.02615">
        <ele>144</ele>
        <time>2022-08-19T09:34:23Z</time>
      </trkpt>
      <trkpt lat="43.7825" lon="0.02611">
        <ele>144</ele>
        <time>2022-08-19T09:34:36Z</time>
      </trkpt>
      <trkpt lat="43.78245" lon="0.0261">
        <ele>145</ele>
        <time>2022-08-19T09:34:40Z</time>
      </trkpt>
      <trkpt lat="43.78227" lon="0.02603">
        <ele>145</ele>
        <time>2022-08-19T09:34:56Z</time>
      </trkpt>
      <trkpt lat="43.7822" lon="0.02603">
        <ele>145</ele>
        <time>2022-08-19T09:35:00Z</time>
      </trkpt>
      <trkpt lat="43.78203" lon="0.02598">
        <ele>145</ele>
        <time>2022-08-19T09:35:15Z</time>
      </trkpt>
      <trkpt lat="43.78194" lon="0.02595">
        <ele>144</ele>
        <time>2022-08-19T09:35:23Z</time>
      </trkpt>
      <trkpt lat="43.78169" lon="0.02587">
        <ele>143</ele>
        <time>2022-08-19T09:35:43Z</time>
      </trkpt>
      <trkpt lat="43.78165" lon="0.02583">
        <ele>143</ele>
        <time>2022-08-19T09:35:47Z</time>
      </trkpt>
      <trkpt lat="43.78163" lon="0.02576">
        <ele>142</ele>
        <time>2022-08-19T09:35:52Z</time>
      </trkpt>
      <trkpt lat="43.78165" lon="0.02548">
        <ele>141</ele>
        <time>2022-08-19T09:36:08Z</time>
      </trkpt>
      <trkpt lat="43.78166" lon="0.02541">
        <ele>142</ele>
        <time>2022-08-19T09:36:12Z</time>
      </trkpt>
      <trkpt lat="43.78165" lon="0.02533">
        <ele>142</ele>
        <time>2022-08-19T09:36:16Z</time>
      </trkpt>
      <trkpt lat="43.78168" lon="0.02507">
        <ele>142</ele>
        <time>2022-08-19T09:36:32Z</time>
      </trkpt>
      <trkpt lat="43.78167" lon="0.025">
        <ele>142</ele>
        <time>2022-08-19T09:36:36Z</time>
      </trkpt>
      <trkpt lat="43.78167" lon="0.02492">
        <ele>142</ele>
        <time>2022-08-19T09:36:40Z</time>
      </trkpt>
      <trkpt lat="43.78169" lon="0.02486">
        <ele>141</ele>
        <time>2022-08-19T09:36:44Z</time>
      </trkpt>
      <trkpt lat="43.7817" lon="0.02472">
        <ele>142</ele>
        <time>2022-08-19T09:36:52Z</time>
      </trkpt>
      <trkpt lat="43.7817" lon="0.02465">
        <ele>142</ele>
        <time>2022-08-19T09:36:56Z</time>
      </trkpt>
      <trkpt lat="43.78173" lon="0.02451">
        <ele>142</ele>
        <time>2022-08-19T09:37:04Z</time>
      </trkpt>
      <trkpt lat="43.78171" lon="0.02423">
        <ele>143</ele>
        <time>2022-08-19T09:37:20Z</time>
      </trkpt>
      <trkpt lat="43.78168" lon="0.02417">
        <ele>142</ele>
        <time>2022-08-19T09:37:24Z</time>
      </trkpt>
      <trkpt lat="43.78163" lon="0.02414">
        <ele>142</ele>
        <time>2022-08-19T09:37:28Z</time>
      </trkpt>
      <trkpt lat="43.78137" lon="0.0241">
        <ele>140</ele>
        <time>2022-08-19T09:37:49Z</time>
      </trkpt>
      <trkpt lat="43.78121" lon="0.02405">
        <ele>140</ele>
        <time>2022-08-19T09:38:02Z</time>
      </trkpt>
      <trkpt lat="43.78084" lon="0.02396">
        <ele>138</ele>
        <time>2022-08-19T09:38:33Z</time>
      </trkpt>
      <trkpt lat="43.78068" lon="0.02393">
        <ele>137</ele>
        <time>2022-08-19T09:38:46Z</time>
      </trkpt>
      <trkpt lat="43.78059" lon="0.02392">
        <ele>137</ele>
        <time>2022-08-19T09:38:53Z</time>
      </trkpt>
      <trkpt lat="43.78054" lon="0.02392">
        <ele>137</ele>
        <time>2022-08-19T09:38:57Z</time>
      </trkpt>
      <trkpt lat="43.78033" lon="0.0238">
        <ele>136</ele>
        <time>2022-08-19T09:39:15Z</time>
      </trkpt>
      <trkpt lat="43.7803" lon="0.02374">
        <ele>135</ele>
        <time>2022-08-19T09:39:19Z</time>
      </trkpt>
      <trkpt lat="43.78033" lon="0.02361">
        <ele>136</ele>
        <time>2022-08-19T09:39:27Z</time>
      </trkpt>
      <trkpt lat="43.78033" lon="0.02353">
        <ele>136</ele>
        <time>2022-08-19T09:39:31Z</time>
      </trkpt>
      <trkpt lat="43.78037" lon="0.02319">
        <ele>137</ele>
        <time>2022-08-19T09:39:52Z</time>
      </trkpt>
      <trkpt lat="43.78039" lon="0.02313">
        <ele>137</ele>
        <time>2022-08-19T09:39:56Z</time>
      </trkpt>
      <trkpt lat="43.78036" lon="0.02306">
        <ele>138</ele>
        <time>2022-08-19T09:40:46Z</time>
      </trkpt>
      <trkpt lat="43.78043" lon="0.0227">
        <ele>139</ele>
        <time>2022-08-19T09:41:18Z</time>
      </trkpt>
      <trkpt lat="43.78046" lon="0.02263">
        <ele>139</ele>
        <time>2022-08-19T09:41:22Z</time>
      </trkpt>
      <trkpt lat="43.78045" lon="0.02256">
        <ele>139</ele>
        <time>2022-08-19T09:41:27Z</time>
      </trkpt>
      <trkpt lat="43.78057" lon="0.02201">
        <ele>138</ele>
        <time>2022-08-19T09:41:59Z</time>
      </trkpt>
      <trkpt lat="43.78069" lon="0.02144">
        <ele>138</ele>
        <time>2022-08-19T09:42:31Z</time>
      </trkpt>
      <trkpt lat="43.78073" lon="0.0213">
        <ele>138</ele>
        <time>2022-08-19T09:42:39Z</time>
      </trkpt>
      <trkpt lat="43.78077" lon="0.02118">
        <ele>137</ele>
        <time>2022-08-19T09:42:47Z</time>
      </trkpt>
      <trkpt lat="43.78078" lon="0.02111">
        <ele>137</ele>
        <time>2022-08-19T09:42:51Z</time>
      </trkpt>
      <trkpt lat="43.78083" lon="0.02092">
        <ele>136</ele>
        <time>2022-08-19T09:43:03Z</time>
      </trkpt>
      <trkpt lat="43.78085" lon="0.02078">
        <ele>135</ele>
        <time>2022-08-19T09:43:11Z</time>
      </trkpt>
      <trkpt lat="43.78089" lon="0.02066">
        <ele>135</ele>
        <time>2022-08-19T09:43:19Z</time>
      </trkpt>
      <trkpt lat="43.78091" lon="0.02061">
        <ele>135</ele>
        <time>2022-08-19T09:43:22Z</time>
      </trkpt>
      <trkpt lat="43.78095" lon="0.02044">
        <ele>134</ele>
        <time>2022-08-19T09:44:18Z</time>
      </trkpt>
      <trkpt lat="43.78097" lon="0.02039">
        <ele>134</ele>
        <time>2022-08-19T09:44:22Z</time>
      </trkpt>
      <trkpt lat="43.78109" lon="0.01994">
        <ele>133</ele>
        <time>2022-08-19T09:44:51Z</time>
      </trkpt>
      <trkpt lat="43.7811" lon="0.01981">
        <ele>133</ele>
        <time>2022-08-19T09:44:59Z</time>
      </trkpt>
      <trkpt lat="43.78109" lon="0.01975">
        <ele>133</ele>
        <time>2022-08-19T09:45:03Z</time>
      </trkpt>
      <trkpt lat="43.78118" lon="0.01918">
        <ele>133</ele>
        <time>2022-08-19T09:45:35Z</time>
      </trkpt>
      <trkpt lat="43.78128" lon="0.01878">
        <ele>131</ele>
        <time>2022-08-19T09:45:59Z</time>
      </trkpt>
      <trkpt lat="43.78131" lon="0.01873">
        <ele>131</ele>
        <time>2022-08-19T09:46:02Z</time>
      </trkpt>
      <trkpt lat="43.78136" lon="0.01869">
        <ele>130</ele>
        <time>2022-08-19T09:46:07Z</time>
      </trkpt>
      <trkpt lat="43.78139" lon="0.01863">
        <ele>130</ele>
        <time>2022-08-19T09:46:11Z</time>
      </trkpt>
      <trkpt lat="43.78143" lon="0.01859">
        <ele>130</ele>
        <time>2022-08-19T09:46:15Z</time>
      </trkpt>
      <trkpt lat="43.78157" lon="0.01813">
        <ele>131</ele>
        <time>2022-08-19T09:46:46Z</time>
      </trkpt>
      <trkpt lat="43.7816" lon="0.01806">
        <ele>131</ele>
        <time>2022-08-19T09:46:51Z</time>
      </trkpt>
      <trkpt lat="43.78168" lon="0.01759">
        <ele>129</ele>
        <time>2022-08-19T09:47:22Z</time>
      </trkpt>
      <trkpt lat="43.78172" lon="0.01738">
        <ele>129</ele>
        <time>2022-08-19T09:47:34Z</time>
      </trkpt>
      <trkpt lat="43.78187" lon="0.01688">
        <ele>128</ele>
        <time>2022-08-19T09:48:05Z</time>
      </trkpt>
      <trkpt lat="43.78189" lon="0.01674">
        <ele>128</ele>
        <time>2022-08-19T09:48:14Z</time>
      </trkpt>
      <trkpt lat="43.78188" lon="0.01667">
        <ele>128</ele>
        <time>2022-08-19T09:48:19Z</time>
      </trkpt>
      <trkpt lat="43.78188" lon="0.0166">
        <ele>129</ele>
        <time>2022-08-19T09:48:23Z</time>
      </trkpt>
      <trkpt lat="43.78189" lon="0.01654">
        <ele>129</ele>
        <time>2022-08-19T09:48:27Z</time>
      </trkpt>
      <trkpt lat="43.78192" lon="0.01646">
        <ele>130</ele>
        <time>2022-08-19T09:48:33Z</time>
      </trkpt>
      <trkpt lat="43.78208" lon="0.01621">
        <ele>130</ele>
        <time>2022-08-19T09:48:58Z</time>
      </trkpt>
      <trkpt lat="43.7821" lon="0.01613">
        <ele>130</ele>
        <time>2022-08-19T09:49:04Z</time>
      </trkpt>
      <trkpt lat="43.78218" lon="0.016">
        <ele>131</ele>
        <time>2022-08-19T09:49:12Z</time>
      </trkpt>
      <trkpt lat="43.78222" lon="0.01582">
        <ele>131</ele>
        <time>2022-08-19T09:49:24Z</time>
      </trkpt>
      <trkpt lat="43.78222" lon="0.01575">
        <ele>131</ele>
        <time>2022-08-19T09:49:29Z</time>
      </trkpt>
      <trkpt lat="43.78222" lon="0.01568">
        <ele>132</ele>
        <time>2022-08-19T09:49:33Z</time>
      </trkpt>
      <trkpt lat="43.78223" lon="0.01561">
        <ele>132</ele>
        <time>2022-08-19T09:49:41Z</time>
      </trkpt>
      <trkpt lat="43.78229" lon="0.01557">
        <ele>133</ele>
        <time>2022-08-19T09:49:59Z</time>
      </trkpt>
      <trkpt lat="43.78238" lon="0.01556">
        <ele>134</ele>
        <time>2022-08-19T09:50:12Z</time>
      </trkpt>
      <trkpt lat="43.78235" lon="0.01557">
        <ele>134</ele>
        <time>2022-08-19T09:50:53Z</time>
      </trkpt>
      <trkpt lat="43.78229" lon="0.01561">
        <ele>133</ele>
        <time>2022-08-19T09:50:59Z</time>
      </trkpt>
      <trkpt lat="43.78225" lon="0.01563">
        <ele>133</ele>
        <time>2022-08-19T09:51:09Z</time>
      </trkpt>
      <trkpt lat="43.7822" lon="0.01554">
        <ele>133</ele>
        <time>2022-08-19T09:51:18Z</time>
      </trkpt>
      <trkpt lat="43.78224" lon="0.01557">
        <ele>133</ele>
        <time>2022-08-19T10:01:06Z</time>
      </trkpt>
      <trkpt lat="43.78222" lon="0.01554">
        <ele>133</ele>
        <time>2022-08-19T10:03:22Z</time>
      </trkpt>
      <trkpt lat="43.78223" lon="0.0155">
        <ele>133</ele>
        <time>2022-08-19T10:06:13Z</time>
      </trkpt>
      <trkpt lat="43.78222" lon="0.01552">
        <ele>133</ele>
        <time>2022-08-19T10:07:38Z</time>
      </trkpt>
      <trkpt lat="43.78222" lon="0.01557">
        <ele>133</ele>
        <time>2022-08-19T10:20:10Z</time>
      </trkpt>
      <trkpt lat="43.78233" lon="0.01553">
        <ele>133</ele>
        <time>2022-08-19T10:20:53Z</time>
      </trkpt>
      <trkpt lat="43.78221" lon="0.01549">
        <ele>133</ele>
        <time>2022-08-19T10:21:18Z</time>
      </trkpt>
      <trkpt lat="43.78219" lon="0.01556">
        <ele>133</ele>
        <time>2022-08-19T10:21:27Z</time>
      </trkpt>
      <trkpt lat="43.78224" lon="0.01556">
        <ele>133</ele>
        <time>2022-08-19T10:21:39Z</time>
      </trkpt>
      <trkpt lat="43.78225" lon="0.01563">
        <ele>133</ele>
        <time>2022-08-19T10:22:09Z</time>
      </trkpt>
      <trkpt lat="43.7822" lon="0.01564">
        <ele>133</ele>
        <time>2022-08-19T10:23:34Z</time>
      </trkpt>
      <trkpt lat="43.78221" lon="0.01557">
        <ele>133</ele>
        <time>2022-08-19T10:24:16Z</time>
      </trkpt>
      <trkpt lat="43.78229" lon="0.01555">
        <ele>134</ele>
        <time>2022-08-19T10:26:28Z</time>
      </trkpt>
      <trkpt lat="43.7824" lon="0.01558">
        <ele>134</ele>
        <time>2022-08-19T10:27:58Z</time>
      </trkpt>
      <trkpt lat="43.78236" lon="0.01553">
        <ele>135</ele>
        <time>2022-08-19T10:28:55Z</time>
      </trkpt>
      <trkpt lat="43.7823" lon="0.01557">
        <ele>133</ele>
        <time>2022-08-19T10:30:06Z</time>
      </trkpt>
      <trkpt lat="43.78226" lon="0.01564">
        <ele>133</ele>
        <time>2022-08-19T10:30:18Z</time>
      </trkpt>
      <trkpt lat="43.78224" lon="0.0156">
        <ele>133</ele>
        <time>2022-08-19T10:32:40Z</time>
      </trkpt>
      <trkpt lat="43.78223" lon="0.01553">
        <ele>133</ele>
        <time>2022-08-19T10:33:24Z</time>
      </trkpt>
      <trkpt lat="43.78223" lon="0.01546">
        <ele>133</ele>
        <time>2022-08-19T10:36:58Z</time>
      </trkpt>
      <trkpt lat="43.78223" lon="0.0155">
        <ele>133</ele>
        <time>2022-08-19T10:41:35Z</time>
      </trkpt>
      <trkpt lat="43.78218" lon="0.01557">
        <ele>133</ele>
        <time>2022-08-19T10:42:16Z</time>
      </trkpt>
      <trkpt lat="43.78219" lon="0.01551">
        <ele>132</ele>
        <time>2022-08-19T10:44:18Z</time>
      </trkpt>
      <trkpt lat="43.78223" lon="0.01556">
        <ele>133</ele>
        <time>2022-08-19T10:45:14Z</time>
      </trkpt>
      <trkpt lat="43.78218" lon="0.01558">
        <ele>132</ele>
        <time>2022-08-19T10:45:49Z</time>
      </trkpt>
      <trkpt lat="43.78217" lon="0.01553">
        <ele>132</ele>
        <time>2022-08-19T10:55:04Z</time>
      </trkpt>
      <trkpt lat="43.78223" lon="0.01558">
        <ele>132</ele>
        <time>2022-08-19T10:56:22Z</time>
      </trkpt>
      <trkpt lat="43.7822" lon="0.01557">
        <ele>132</ele>
        <time>2022-08-19T10:56:55Z</time>
      </trkpt>
      <trkpt lat="43.78219" lon="0.0155">
        <ele>133</ele>
        <time>2022-08-19T10:57:05Z</time>
      </trkpt>
      <trkpt lat="43.7822" lon="0.0155">
        <ele>133</ele>
        <time>2022-08-19T10:59:49Z</time>
      </trkpt>
      <trkpt lat="43.7822" lon="0.01544">
        <ele>133</ele>
        <time>2022-08-19T11:00:03Z</time>
      </trkpt>
      <trkpt lat="43.78223" lon="0.01539">
        <ele>132</ele>
        <time>2022-08-19T11:00:39Z</time>
      </trkpt>
      <trkpt lat="43.7822" lon="0.01541">
        <ele>132</ele>
        <time>2022-08-19T11:01:01Z</time>
      </trkpt>
      <trkpt lat="43.78214" lon="0.01525">
        <ele>132</ele>
        <time>2022-08-19T11:01:32Z</time>
      </trkpt>
      <trkpt lat="43.78213" lon="0.01519">
        <ele>132</ele>
        <time>2022-08-19T11:01:37Z</time>
      </trkpt>
      <trkpt lat="43.78212" lon="0.01507">
        <ele>132</ele>
        <time>2022-08-19T11:01:50Z</time>
      </trkpt>
      <trkpt lat="43.78207" lon="0.01493">
        <ele>131</ele>
        <time>2022-08-19T11:02:11Z</time>
      </trkpt>
      <trkpt lat="43.78205" lon="0.01478">
        <ele>130</ele>
        <time>2022-08-19T11:02:21Z</time>
      </trkpt>
      <trkpt lat="43.78189" lon="0.01456">
        <ele>131</ele>
        <time>2022-08-19T11:02:45Z</time>
      </trkpt>
      <trkpt lat="43.78182" lon="0.01447">
        <ele>130</ele>
        <time>2022-08-19T11:02:55Z</time>
      </trkpt>
      <trkpt lat="43.78179" lon="0.01441">
        <ele>130</ele>
        <time>2022-08-19T11:02:59Z</time>
      </trkpt>
      <trkpt lat="43.78174" lon="0.01416">
        <ele>129</ele>
        <time>2022-08-19T11:03:20Z</time>
      </trkpt>
      <trkpt lat="43.78171" lon="0.01412">
        <ele>129</ele>
        <time>2022-08-19T11:03:25Z</time>
      </trkpt>
      <trkpt lat="43.78165" lon="0.01397">
        <ele>127</ele>
        <time>2022-08-19T11:03:42Z</time>
      </trkpt>
      <trkpt lat="43.78164" lon="0.01389">
        <ele>127</ele>
        <time>2022-08-19T11:03:46Z</time>
      </trkpt>
      <trkpt lat="43.78162" lon="0.01377">
        <ele>126</ele>
        <time>2022-08-19T11:04:14Z</time>
      </trkpt>
      <trkpt lat="43.78157" lon="0.01365">
        <ele>125</ele>
        <time>2022-08-19T11:04:22Z</time>
      </trkpt>
      <trkpt lat="43.78155" lon="0.01355">
        <ele>124</ele>
        <time>2022-08-19T11:04:29Z</time>
      </trkpt>
      <trkpt lat="43.78148" lon="0.01346">
        <ele>123</ele>
        <time>2022-08-19T11:04:37Z</time>
      </trkpt>
      <trkpt lat="43.78146" lon="0.0134">
        <ele>123</ele>
        <time>2022-08-19T11:04:41Z</time>
      </trkpt>
      <trkpt lat="43.78143" lon="0.0131">
        <ele>121</ele>
        <time>2022-08-19T11:05:00Z</time>
      </trkpt>
      <trkpt lat="43.78143" lon="0.01303">
        <ele>121</ele>
        <time>2022-08-19T11:05:04Z</time>
      </trkpt>
      <trkpt lat="43.78141" lon="0.01296">
        <ele>121</ele>
        <time>2022-08-19T11:05:08Z</time>
      </trkpt>
      <trkpt lat="43.78141" lon="0.01289">
        <ele>120</ele>
        <time>2022-08-19T11:05:12Z</time>
      </trkpt>
      <trkpt lat="43.78143" lon="0.01281">
        <ele>120</ele>
        <time>2022-08-19T11:05:15Z</time>
      </trkpt>
      <trkpt lat="43.78145" lon="0.01275">
        <ele>120</ele>
        <time>2022-08-19T11:05:19Z</time>
      </trkpt>
      <trkpt lat="43.78149" lon="0.01269">
        <ele>120</ele>
        <time>2022-08-19T11:05:24Z</time>
      </trkpt>
      <trkpt lat="43.7816" lon="0.01266">
        <ele>120</ele>
        <time>2022-08-19T11:05:34Z</time>
      </trkpt>
      <trkpt lat="43.78164" lon="0.01262">
        <ele>119</ele>
        <time>2022-08-19T11:05:38Z</time>
      </trkpt>
      <trkpt lat="43.78171" lon="0.0126">
        <ele>119</ele>
        <time>2022-08-19T11:05:47Z</time>
      </trkpt>
      <trkpt lat="43.78177" lon="0.01258">
        <ele>120</ele>
        <time>2022-08-19T11:05:52Z</time>
      </trkpt>
      <trkpt lat="43.78193" lon="0.0126">
        <ele>122</ele>
        <time>2022-08-19T11:06:05Z</time>
      </trkpt>
      <trkpt lat="43.78201" lon="0.0126">
        <ele>122</ele>
        <time>2022-08-19T11:06:11Z</time>
      </trkpt>
      <trkpt lat="43.78206" lon="0.01262">
        <ele>122</ele>
        <time>2022-08-19T11:06:14Z</time>
      </trkpt>
      <trkpt lat="43.7823" lon="0.01275">
        <ele>123</ele>
        <time>2022-08-19T11:06:38Z</time>
      </trkpt>
      <trkpt lat="43.78239" lon="0.01273">
        <ele>122</ele>
        <time>2022-08-19T11:06:46Z</time>
      </trkpt>
      <trkpt lat="43.78244" lon="0.0127">
        <ele>122</ele>
        <time>2022-08-19T11:06:51Z</time>
      </trkpt>
      <trkpt lat="43.78261" lon="0.01256">
        <ele>123</ele>
        <time>2022-08-19T11:07:07Z</time>
      </trkpt>
      <trkpt lat="43.78264" lon="0.0125">
        <ele>123</ele>
        <time>2022-08-19T11:07:11Z</time>
      </trkpt>
      <trkpt lat="43.78265" lon="0.01244">
        <ele>123</ele>
        <time>2022-08-19T11:07:15Z</time>
      </trkpt>
      <trkpt lat="43.78264" lon="0.01229">
        <ele>124</ele>
        <time>2022-08-19T11:07:28Z</time>
      </trkpt>
      <trkpt lat="43.78267" lon="0.01213">
        <ele>125</ele>
        <time>2022-08-19T11:07:37Z</time>
      </trkpt>
      <trkpt lat="43.78275" lon="0.01188">
        <ele>125</ele>
        <time>2022-08-19T11:07:54Z</time>
      </trkpt>
      <trkpt lat="43.78276" lon="0.01182">
        <ele>125</ele>
        <time>2022-08-19T11:07:58Z</time>
      </trkpt>
      <trkpt lat="43.78278" lon="0.01176">
        <ele>125</ele>
        <time>2022-08-19T11:08:03Z</time>
      </trkpt>
      <trkpt lat="43.7828" lon="0.0117">
        <ele>125</ele>
        <time>2022-08-19T11:08:07Z</time>
      </trkpt>
      <trkpt lat="43.78287" lon="0.0113">
        <ele>127</ele>
        <time>2022-08-19T11:08:32Z</time>
      </trkpt>
      <trkpt lat="43.78295" lon="0.01112">
        <ele>128</ele>
        <time>2022-08-19T11:08:45Z</time>
      </trkpt>
      <trkpt lat="43.78296" lon="0.01104">
        <ele>128</ele>
        <time>2022-08-19T11:08:50Z</time>
      </trkpt>
      <trkpt lat="43.78297" lon="0.01098">
        <ele>129</ele>
        <time>2022-08-19T11:08:54Z</time>
      </trkpt>
      <trkpt lat="43.78295" lon="0.01091">
        <ele>130</ele>
        <time>2022-08-19T11:08:59Z</time>
      </trkpt>
      <trkpt lat="43.78289" lon="0.01083">
        <ele>131</ele>
        <time>2022-08-19T11:10:05Z</time>
      </trkpt>
      <trkpt lat="43.78268" lon="0.0104">
        <ele>135</ele>
        <time>2022-08-19T11:10:40Z</time>
      </trkpt>
      <trkpt lat="43.7826" lon="0.01031">
        <ele>135</ele>
        <time>2022-08-19T11:10:49Z</time>
      </trkpt>
      <trkpt lat="43.78257" lon="0.01027">
        <ele>135</ele>
        <time>2022-08-19T11:10:53Z</time>
      </trkpt>
      <trkpt lat="43.78244" lon="0.01003">
        <ele>136</ele>
        <time>2022-08-19T11:11:12Z</time>
      </trkpt>
      <trkpt lat="43.7824" lon="0.00996">
        <ele>137</ele>
        <time>2022-08-19T11:11:46Z</time>
      </trkpt>
      <trkpt lat="43.78235" lon="0.00993">
        <ele>137</ele>
        <time>2022-08-19T11:11:52Z</time>
      </trkpt>
      <trkpt lat="43.78227" lon="0.00986">
        <ele>137</ele>
        <time>2022-08-19T11:12:00Z</time>
      </trkpt>
      <trkpt lat="43.78192" lon="0.00975">
        <ele>136</ele>
        <time>2022-08-19T11:12:32Z</time>
      </trkpt>
      <trkpt lat="43.7817" lon="0.00969">
        <ele>136</ele>
        <time>2022-08-19T11:12:50Z</time>
      </trkpt>
      <trkpt lat="43.78155" lon="0.00963">
        <ele>136</ele>
        <time>2022-08-19T11:13:02Z</time>
      </trkpt>
      <trkpt lat="43.78127" lon="0.00954">
        <ele>136</ele>
        <time>2022-08-19T11:13:26Z</time>
      </trkpt>
      <trkpt lat="43.78108" lon="0.00945">
        <ele>135</ele>
        <time>2022-08-19T11:13:42Z</time>
      </trkpt>
      <trkpt lat="43.78069" lon="0.00933">
        <ele>135</ele>
        <time>2022-08-19T11:14:15Z</time>
      </trkpt>
      <trkpt lat="43.78033" lon="0.00923">
        <ele>135</ele>
        <time>2022-08-19T11:14:48Z</time>
      </trkpt>
      <trkpt lat="43.77994" lon="0.00915">
        <ele>134</ele>
        <time>2022-08-19T11:15:21Z</time>
      </trkpt>
      <trkpt lat="43.77985" lon="0.00914">
        <ele>134</ele>
        <time>2022-08-19T11:15:29Z</time>
      </trkpt>
      <trkpt lat="43.77971" lon="0.00909">
        <ele>134</ele>
        <time>2022-08-19T11:15:41Z</time>
      </trkpt>
      <trkpt lat="43.77961" lon="0.00908">
        <ele>134</ele>
        <time>2022-08-19T11:15:48Z</time>
      </trkpt>
      <trkpt lat="43.77955" lon="0.00908">
        <ele>133</ele>
        <time>2022-08-19T11:15:52Z</time>
      </trkpt>
      <trkpt lat="43.7795" lon="0.00907">
        <ele>133</ele>
        <time>2022-08-19T11:15:56Z</time>
      </trkpt>
      <trkpt lat="43.77941" lon="0.00901">
        <ele>133</ele>
        <time>2022-08-19T11:16:19Z</time>
      </trkpt>
      <trkpt lat="43.77931" lon="0.00899">
        <ele>133</ele>
        <time>2022-08-19T11:16:27Z</time>
      </trkpt>
      <trkpt lat="43.77926" lon="0.00898">
        <ele>133</ele>
        <time>2022-08-19T11:16:31Z</time>
      </trkpt>
      <trkpt lat="43.77889" lon="0.00878">
        <ele>133</ele>
        <time>2022-08-19T11:17:05Z</time>
      </trkpt>
      <trkpt lat="43.77855" lon="0.00853">
        <ele>133</ele>
        <time>2022-08-19T11:17:37Z</time>
      </trkpt>
      <trkpt lat="43.7785" lon="0.00849">
        <ele>133</ele>
        <time>2022-08-19T11:17:41Z</time>
      </trkpt>
      <trkpt lat="43.77842" lon="0.00843">
        <ele>133</ele>
        <time>2022-08-19T11:17:49Z</time>
      </trkpt>
      <trkpt lat="43.77833" lon="0.00837">
        <ele>132</ele>
        <time>2022-08-19T11:17:57Z</time>
      </trkpt>
      <trkpt lat="43.77796" lon="0.00811">
        <ele>129</ele>
        <time>2022-08-19T11:18:30Z</time>
      </trkpt>
      <trkpt lat="43.77768" lon="0.008">
        <ele>126</ele>
        <time>2022-08-19T11:18:54Z</time>
      </trkpt>
      <trkpt lat="43.77728" lon="0.008">
        <ele>123</ele>
        <time>2022-08-19T11:19:25Z</time>
      </trkpt>
      <trkpt lat="43.77717" lon="0.00801">
        <ele>122</ele>
        <time>2022-08-19T11:19:33Z</time>
      </trkpt>
      <trkpt lat="43.77693" lon="0.00793">
        <ele>120</ele>
        <time>2022-08-19T11:19:52Z</time>
      </trkpt>
      <trkpt lat="43.77686" lon="0.00785">
        <ele>119</ele>
        <time>2022-08-19T11:20:00Z</time>
      </trkpt>
      <trkpt lat="43.77673" lon="0.00777">
        <ele>118</ele>
        <time>2022-08-19T11:20:12Z</time>
      </trkpt>
      <trkpt lat="43.77668" lon="0.00775">
        <ele>118</ele>
        <time>2022-08-19T11:20:17Z</time>
      </trkpt>
      <trkpt lat="43.77663" lon="0.00769">
        <ele>117</ele>
        <time>2022-08-19T11:20:53Z</time>
      </trkpt>
      <trkpt lat="43.77661" lon="0.00763">
        <ele>116</ele>
        <time>2022-08-19T11:20:56Z</time>
      </trkpt>
      <trkpt lat="43.77659" lon="0.00757">
        <ele>116</ele>
        <time>2022-08-19T11:21:01Z</time>
      </trkpt>
      <trkpt lat="43.77653" lon="0.0076">
        <ele>114</ele>
        <time>2022-08-19T11:21:56Z</time>
      </trkpt>
      <trkpt lat="43.77649" lon="0.00759">
        <ele>114</ele>
        <time>2022-08-19T11:22:00Z</time>
      </trkpt>
      <trkpt lat="43.77616" lon="0.00737">
        <ele>109</ele>
        <time>2022-08-19T11:22:33Z</time>
      </trkpt>
      <trkpt lat="43.77605" lon="0.00723">
        <ele>108</ele>
        <time>2022-08-19T11:22:45Z</time>
      </trkpt>
      <trkpt lat="43.77574" lon="0.00701">
        <ele>104</ele>
        <time>2022-08-19T11:23:14Z</time>
      </trkpt>
      <trkpt lat="43.77569" lon="0.00699">
        <ele>104</ele>
        <time>2022-08-19T11:23:18Z</time>
      </trkpt>
      <trkpt lat="43.77533" lon="0.00673">
        <ele>102</ele>
        <time>2022-08-19T11:23:53Z</time>
      </trkpt>
      <trkpt lat="43.77529" lon="0.00671">
        <ele>102</ele>
        <time>2022-08-19T11:23:57Z</time>
      </trkpt>
      <trkpt lat="43.77525" lon="0.00666">
        <ele>102</ele>
        <time>2022-08-19T11:24:02Z</time>
      </trkpt>
      <trkpt lat="43.77522" lon="0.00661">
        <ele>102</ele>
        <time>2022-08-19T11:24:13Z</time>
      </trkpt>
      <trkpt lat="43.77514" lon="0.00658">
        <ele>101</ele>
        <time>2022-08-19T11:25:00Z</time>
      </trkpt>
      <trkpt lat="43.77513" lon="0.00652">
        <ele>100</ele>
        <time>2022-08-19T11:25:30Z</time>
      </trkpt>
      <trkpt lat="43.77509" lon="0.0065">
        <ele>100</ele>
        <time>2022-08-19T11:25:33Z</time>
      </trkpt>
      <trkpt lat="43.77503" lon="0.00641">
        <ele>100</ele>
        <time>2022-08-19T11:25:47Z</time>
      </trkpt>
      <trkpt lat="43.7751" lon="0.00629">
        <ele>101</ele>
        <time>2022-08-19T11:26:00Z</time>
      </trkpt>
      <trkpt lat="43.77513" lon="0.00624">
        <ele>101</ele>
        <time>2022-08-19T11:26:04Z</time>
      </trkpt>
      <trkpt lat="43.77524" lon="0.0061">
        <ele>101</ele>
        <time>2022-08-19T11:26:27Z</time>
      </trkpt>
      <trkpt lat="43.77527" lon="0.00606">
        <ele>100</ele>
        <time>2022-08-19T11:26:31Z</time>
      </trkpt>
      <trkpt lat="43.77531" lon="0.00601">
        <ele>100</ele>
        <time>2022-08-19T11:26:35Z</time>
      </trkpt>
      <trkpt lat="43.77536" lon="0.00591">
        <ele>100</ele>
        <time>2022-08-19T11:26:43Z</time>
      </trkpt>
      <trkpt lat="43.77537" lon="0.00584">
        <ele>100</ele>
        <time>2022-08-19T11:26:47Z</time>
      </trkpt>
      <trkpt lat="43.77534" lon="0.00561">
        <ele>100</ele>
        <time>2022-08-19T11:27:00Z</time>
      </trkpt>
      <trkpt lat="43.77535" lon="0.00534">
        <ele>100</ele>
        <time>2022-08-19T11:27:17Z</time>
      </trkpt>
      <trkpt lat="43.77538" lon="0.00522">
        <ele>100</ele>
        <time>2022-08-19T11:27:25Z</time>
      </trkpt>
      <trkpt lat="43.77538" lon="0.00507">
        <ele>100</ele>
        <time>2022-08-19T11:27:34Z</time>
      </trkpt>
      <trkpt lat="43.77533" lon="0.00484">
        <ele>99</ele>
        <time>2022-08-19T11:27:49Z</time>
      </trkpt>
      <trkpt lat="43.77514" lon="0.00436">
        <ele>100</ele>
        <time>2022-08-19T11:28:22Z</time>
      </trkpt>
      <trkpt lat="43.77498" lon="0.00396">
        <ele>99</ele>
        <time>2022-08-19T11:28:52Z</time>
      </trkpt>
      <trkpt lat="43.77493" lon="0.00391">
        <ele>100</ele>
        <time>2022-08-19T11:29:11Z</time>
      </trkpt>
      <trkpt lat="43.77491" lon="0.00381">
        <ele>100</ele>
        <time>2022-08-19T11:29:21Z</time>
      </trkpt>
      <trkpt lat="43.77481" lon="0.00355">
        <ele>99</ele>
        <time>2022-08-19T11:29:41Z</time>
      </trkpt>
      <trkpt lat="43.77476" lon="0.00338">
        <ele>99</ele>
        <time>2022-08-19T11:29:54Z</time>
      </trkpt>
      <trkpt lat="43.77464" lon="0.00298">
        <ele>99</ele>
        <time>2022-08-19T11:30:20Z</time>
      </trkpt>
      <trkpt lat="43.77462" lon="0.00286">
        <ele>99</ele>
        <time>2022-08-19T11:30:28Z</time>
      </trkpt>
      <trkpt lat="43.77462" lon="0.00272">
        <ele>99</ele>
        <time>2022-08-19T11:30:36Z</time>
      </trkpt>
      <trkpt lat="43.77463" lon="0.00265">
        <ele>100</ele>
        <time>2022-08-19T11:30:41Z</time>
      </trkpt>
      <trkpt lat="43.77461" lon="0.00255">
        <ele>100</ele>
        <time>2022-08-19T11:30:50Z</time>
      </trkpt>
      <trkpt lat="43.7744" lon="0.00237">
        <ele>103</ele>
        <time>2022-08-19T11:31:23Z</time>
      </trkpt>
      <trkpt lat="43.77421" lon="0.00224">
        <ele>104</ele>
        <time>2022-08-19T11:31:51Z</time>
      </trkpt>
      <trkpt lat="43.77416" lon="0.00222">
        <ele>105</ele>
        <time>2022-08-19T11:31:57Z</time>
      </trkpt>
      <trkpt lat="43.77411" lon="0.00218">
        <ele>105</ele>
        <time>2022-08-19T11:32:02Z</time>
      </trkpt>
      <trkpt lat="43.77408" lon="0.00213">
        <ele>106</ele>
        <time>2022-08-19T11:32:27Z</time>
      </trkpt>
      <trkpt lat="43.77399" lon="0.00213">
        <ele>107</ele>
        <time>2022-08-19T11:32:37Z</time>
      </trkpt>
      <trkpt lat="43.77381" lon="0.00221">
        <ele>110</ele>
        <time>2022-08-19T11:33:40Z</time>
      </trkpt>
      <trkpt lat="43.77372" lon="0.0023">
        <ele>111</ele>
        <time>2022-08-19T11:33:52Z</time>
      </trkpt>
      <trkpt lat="43.77369" lon="0.00236">
        <ele>110</ele>
        <time>2022-08-19T11:34:01Z</time>
      </trkpt>
      <trkpt lat="43.77362" lon="0.00242">
        <ele>110</ele>
        <time>2022-08-19T11:34:12Z</time>
      </trkpt>
      <trkpt lat="43.77351" lon="0.00256">
        <ele>108</ele>
        <time>2022-08-19T11:34:24Z</time>
      </trkpt>
      <trkpt lat="43.77348" lon="0.00259">
        <ele>108</ele>
        <time>2022-08-19T11:34:28Z</time>
      </trkpt>
      <trkpt lat="43.77338" lon="0.00263">
        <ele>109</ele>
        <time>2022-08-19T11:34:36Z</time>
      </trkpt>
      <trkpt lat="43.77328" lon="0.00261">
        <ele>110</ele>
        <time>2022-08-19T11:34:46Z</time>
      </trkpt>
      <trkpt lat="43.77305" lon="0.00248">
        <ele>113</ele>
        <time>2022-08-19T11:35:12Z</time>
      </trkpt>
      <trkpt lat="43.77299" lon="0.00243">
        <ele>114</ele>
        <time>2022-08-19T11:35:20Z</time>
      </trkpt>
      <trkpt lat="43.77287" lon="0.00241">
        <ele>116</ele>
        <time>2022-08-19T11:35:33Z</time>
      </trkpt>
      <trkpt lat="43.77283" lon="0.00238">
        <ele>116</ele>
        <time>2022-08-19T11:35:38Z</time>
      </trkpt>
      <trkpt lat="43.77279" lon="0.00233">
        <ele>117</ele>
        <time>2022-08-19T11:35:43Z</time>
      </trkpt>
      <trkpt lat="43.77266" lon="0.00223">
        <ele>120</ele>
        <time>2022-08-19T11:36:00Z</time>
      </trkpt>
      <trkpt lat="43.77243" lon="0.00191">
        <ele>125</ele>
        <time>2022-08-19T11:36:34Z</time>
      </trkpt>
      <trkpt lat="43.77236" lon="0.00184">
        <ele>126</ele>
        <time>2022-08-19T11:36:43Z</time>
      </trkpt>
      <trkpt lat="43.77221" lon="0.00154">
        <ele>129</ele>
        <time>2022-08-19T11:37:07Z</time>
      </trkpt>
      <trkpt lat="43.77213" lon="0.00142">
        <ele>131</ele>
        <time>2022-08-19T11:37:22Z</time>
      </trkpt>
      <trkpt lat="43.77203" lon="0.00119">
        <ele>133</ele>
        <time>2022-08-19T11:37:45Z</time>
      </trkpt>
      <trkpt lat="43.77199" lon="0.00115">
        <ele>133</ele>
        <time>2022-08-19T11:37:50Z</time>
      </trkpt>
      <trkpt lat="43.77179" lon="0.00088">
        <ele>136</ele>
        <time>2022-08-19T11:38:24Z</time>
      </trkpt>
      <trkpt lat="43.77159" lon="0.00057">
        <ele>141</ele>
        <time>2022-08-19T11:38:59Z</time>
      </trkpt>
      <trkpt lat="43.77143" lon="0.00047">
        <ele>141</ele>
        <time>2022-08-19T11:39:16Z</time>
      </trkpt>
      <trkpt lat="43.77138" lon="0.00044">
        <ele>141</ele>
        <time>2022-08-19T11:39:21Z</time>
      </trkpt>
      <trkpt lat="43.77134" lon="0.00046">
        <ele>141</ele>
        <time>2022-08-19T11:39:25Z</time>
      </trkpt>
      <trkpt lat="43.7712" lon="0.00057">
        <ele>141</ele>
        <time>2022-08-19T11:39:38Z</time>
      </trkpt>
      <trkpt lat="43.77115" lon="0.00058">
        <ele>141</ele>
        <time>2022-08-19T11:39:42Z</time>
      </trkpt>
      <trkpt lat="43.77101" lon="0.00067">
        <ele>140</ele>
        <time>2022-08-19T11:39:55Z</time>
      </trkpt>
      <trkpt lat="43.77092" lon="0.00071">
        <ele>140</ele>
        <time>2022-08-19T11:40:04Z</time>
      </trkpt>
      <trkpt lat="43.77087" lon="0.00075">
        <ele>140</ele>
        <time>2022-08-19T11:40:09Z</time>
      </trkpt>
      <trkpt lat="43.77073" lon="0.0008">
        <ele>139</ele>
        <time>2022-08-19T11:40:22Z</time>
      </trkpt>
      <trkpt lat="43.77069" lon="0.00084">
        <ele>139</ele>
        <time>2022-08-19T11:40:26Z</time>
      </trkpt>
      <trkpt lat="43.77054" lon="0.0009">
        <ele>139</ele>
        <time>2022-08-19T11:40:39Z</time>
      </trkpt>
      <trkpt lat="43.7705" lon="0.00093">
        <ele>138</ele>
        <time>2022-08-19T11:40:43Z</time>
      </trkpt>
      <trkpt lat="43.77035" lon="0.00098">
        <ele>138</ele>
        <time>2022-08-19T11:40:56Z</time>
      </trkpt>
      <trkpt lat="43.77031" lon="0.00093">
        <ele>138</ele>
        <time>2022-08-19T11:41:00Z</time>
      </trkpt>
      <trkpt lat="43.77016" lon="0.0005">
        <ele>140</ele>
        <time>2022-08-19T11:41:32Z</time>
      </trkpt>
      <trkpt lat="43.77004" lon="0.00027">
        <ele>140</ele>
        <time>2022-08-19T11:41:49Z</time>
      </trkpt>
      <trkpt lat="43.7699" lon="-0.00018">
        <ele>138</ele>
        <time>2022-08-19T11:42:20Z</time>
      </trkpt>
      <trkpt lat="43.76984" lon="-0.00037">
        <ele>137</ele>
        <time>2022-08-19T11:42:32Z</time>
      </trkpt>
      <trkpt lat="43.76977" lon="-0.0005">
        <ele>137</ele>
        <time>2022-08-19T11:42:43Z</time>
      </trkpt>
      <trkpt lat="43.76964" lon="-0.0006">
        <ele>137</ele>
        <time>2022-08-19T11:42:56Z</time>
      </trkpt>
      <trkpt lat="43.76925" lon="-0.00072">
        <ele>138</ele>
        <time>2022-08-19T11:43:30Z</time>
      </trkpt>
      <trkpt lat="43.76916" lon="-0.00077">
        <ele>139</ele>
        <time>2022-08-19T11:43:39Z</time>
      </trkpt>
      <trkpt lat="43.76901" lon="-0.00089">
        <ele>139</ele>
        <time>2022-08-19T11:43:55Z</time>
      </trkpt>
      <trkpt lat="43.76897" lon="-0.00092">
        <ele>139</ele>
        <time>2022-08-19T11:43:59Z</time>
      </trkpt>
      <trkpt lat="43.7689" lon="-0.001">
        <ele>139</ele>
        <time>2022-08-19T11:44:08Z</time>
      </trkpt>
      <trkpt lat="43.76885" lon="-0.00104">
        <ele>139</ele>
        <time>2022-08-19T11:44:13Z</time>
      </trkpt>
      <trkpt lat="43.76882" lon="-0.00109">
        <ele>138</ele>
        <time>2022-08-19T11:44:18Z</time>
      </trkpt>
      <trkpt lat="43.76878" lon="-0.00117">
        <ele>138</ele>
        <time>2022-08-19T11:44:27Z</time>
      </trkpt>
      <trkpt lat="43.76853" lon="-0.00131">
        <ele>132</ele>
        <time>2022-08-19T11:44:56Z</time>
      </trkpt>
      <trkpt lat="43.76827" lon="-0.00155">
        <ele>127</ele>
        <time>2022-08-19T11:45:29Z</time>
      </trkpt>
      <trkpt lat="43.76821" lon="-0.00157">
        <ele>125</ele>
        <time>2022-08-19T11:45:34Z</time>
      </trkpt>
      <trkpt lat="43.76811" lon="-0.00173">
        <ele>124</ele>
        <time>2022-08-19T11:45:46Z</time>
      </trkpt>
      <trkpt lat="43.76779" lon="-0.00205">
        <ele>121</ele>
        <time>2022-08-19T11:46:19Z</time>
      </trkpt>
      <trkpt lat="43.7675" lon="-0.00234">
        <ele>117</ele>
        <time>2022-08-19T11:46:49Z</time>
      </trkpt>
      <trkpt lat="43.76741" lon="-0.00241">
        <ele>116</ele>
        <time>2022-08-19T11:46:57Z</time>
      </trkpt>
      <trkpt lat="43.76737" lon="-0.00243">
        <ele>115</ele>
        <time>2022-08-19T11:47:01Z</time>
      </trkpt>
      <trkpt lat="43.76728" lon="-0.00254">
        <ele>114</ele>
        <time>2022-08-19T11:47:10Z</time>
      </trkpt>
      <trkpt lat="43.76724" lon="-0.00257">
        <ele>114</ele>
        <time>2022-08-19T11:47:14Z</time>
      </trkpt>
      <trkpt lat="43.7672" lon="-0.00262">
        <ele>113</ele>
        <time>2022-08-19T11:47:17Z</time>
      </trkpt>
      <trkpt lat="43.76703" lon="-0.0028">
        <ele>111</ele>
        <time>2022-08-19T11:47:47Z</time>
      </trkpt>
      <trkpt lat="43.76692" lon="-0.00311">
        <ele>109</ele>
        <time>2022-08-19T11:48:06Z</time>
      </trkpt>
      <trkpt lat="43.76683" lon="-0.00365">
        <ele>106</ele>
        <time>2022-08-19T11:48:39Z</time>
      </trkpt>
      <trkpt lat="43.76674" lon="-0.0041">
        <ele>104</ele>
        <time>2022-08-19T11:49:11Z</time>
      </trkpt>
      <trkpt lat="43.7665" lon="-0.00453">
        <ele>104</ele>
        <time>2022-08-19T11:49:44Z</time>
      </trkpt>
      <trkpt lat="43.76633" lon="-0.00477">
        <ele>103</ele>
        <time>2022-08-19T11:50:05Z</time>
      </trkpt>
      <trkpt lat="43.76631" lon="-0.00483">
        <ele>103</ele>
        <time>2022-08-19T11:50:10Z</time>
      </trkpt>
      <trkpt lat="43.76627" lon="-0.0049">
        <ele>103</ele>
        <time>2022-08-19T11:50:17Z</time>
      </trkpt>
      <trkpt lat="43.76624" lon="-0.00496">
        <ele>103</ele>
        <time>2022-08-19T11:50:22Z</time>
      </trkpt>
      <trkpt lat="43.76621" lon="-0.005">
        <ele>103</ele>
        <time>2022-08-19T11:50:27Z</time>
      </trkpt>
      <trkpt lat="43.76621" lon="-0.00507">
        <ele>102</ele>
        <time>2022-08-19T11:50:31Z</time>
      </trkpt>
      <trkpt lat="43.7662" lon="-0.00514">
        <ele>102</ele>
        <time>2022-08-19T11:50:36Z</time>
      </trkpt>
      <trkpt lat="43.76621" lon="-0.00529">
        <ele>102</ele>
        <time>2022-08-19T11:50:44Z</time>
      </trkpt>
      <trkpt lat="43.76626" lon="-0.00553">
        <ele>102</ele>
        <time>2022-08-19T11:51:04Z</time>
      </trkpt>
      <trkpt lat="43.76626" lon="-0.00562">
        <ele>102</ele>
        <time>2022-08-19T11:51:29Z</time>
      </trkpt>
      <trkpt lat="43.76624" lon="-0.00567">
        <ele>102</ele>
        <time>2022-08-19T11:51:33Z</time>
      </trkpt>
      <trkpt lat="43.76626" lon="-0.00591">
        <ele>102</ele>
        <time>2022-08-19T11:51:50Z</time>
      </trkpt>
      <trkpt lat="43.76628" lon="-0.00598">
        <ele>102</ele>
        <time>2022-08-19T11:51:56Z</time>
      </trkpt>
      <trkpt lat="43.76629" lon="-0.00606">
        <ele>103</ele>
        <time>2022-08-19T11:52:01Z</time>
      </trkpt>
      <trkpt lat="43.76634" lon="-0.00645">
        <ele>104</ele>
        <time>2022-08-19T11:52:24Z</time>
      </trkpt>
      <trkpt lat="43.76634" lon="-0.00684">
        <ele>105</ele>
        <time>2022-08-19T11:53:20Z</time>
      </trkpt>
      <trkpt lat="43.76629" lon="-0.00748">
        <ele>107</ele>
        <time>2022-08-19T11:53:55Z</time>
      </trkpt>
      <trkpt lat="43.76628" lon="-0.00763">
        <ele>108</ele>
        <time>2022-08-19T11:54:03Z</time>
      </trkpt>
      <trkpt lat="43.76628" lon="-0.0077">
        <ele>108</ele>
        <time>2022-08-19T11:54:07Z</time>
      </trkpt>
      <trkpt lat="43.76627" lon="-0.00777">
        <ele>109</ele>
        <time>2022-08-19T11:54:11Z</time>
      </trkpt>
      <trkpt lat="43.76624" lon="-0.0083">
        <ele>111</ele>
        <time>2022-08-19T11:54:43Z</time>
      </trkpt>
      <trkpt lat="43.76624" lon="-0.00837">
        <ele>111</ele>
        <time>2022-08-19T11:54:47Z</time>
      </trkpt>
      <trkpt lat="43.76621" lon="-0.00857">
        <ele>112</ele>
        <time>2022-08-19T11:54:59Z</time>
      </trkpt>
      <trkpt lat="43.76617" lon="-0.00906">
        <ele>115</ele>
        <time>2022-08-19T11:55:30Z</time>
      </trkpt>
      <trkpt lat="43.76617" lon="-0.0092">
        <ele>115</ele>
        <time>2022-08-19T11:55:38Z</time>
      </trkpt>
      <trkpt lat="43.7661" lon="-0.00974">
        <ele>118</ele>
        <time>2022-08-19T11:56:11Z</time>
      </trkpt>
      <trkpt lat="43.76609" lon="-0.00987">
        <ele>119</ele>
        <time>2022-08-19T11:56:19Z</time>
      </trkpt>
      <trkpt lat="43.76607" lon="-0.00999">
        <ele>119</ele>
        <time>2022-08-19T11:56:35Z</time>
      </trkpt>
      <trkpt lat="43.76603" lon="-0.01026">
        <ele>120</ele>
        <time>2022-08-19T11:56:57Z</time>
      </trkpt>
      <trkpt lat="43.76584" lon="-0.01072">
        <ele>122</ele>
        <time>2022-08-19T11:57:28Z</time>
      </trkpt>
      <trkpt lat="43.76576" lon="-0.01105">
        <ele>124</ele>
        <time>2022-08-19T11:57:49Z</time>
      </trkpt>
      <trkpt lat="43.76573" lon="-0.01111">
        <ele>124</ele>
        <time>2022-08-19T11:57:53Z</time>
      </trkpt>
      <trkpt lat="43.76565" lon="-0.01161">
        <ele>126</ele>
        <time>2022-08-19T11:58:25Z</time>
      </trkpt>
      <trkpt lat="43.76556" lon="-0.01216">
        <ele>127</ele>
        <time>2022-08-19T11:58:57Z</time>
      </trkpt>
      <trkpt lat="43.76548" lon="-0.01272">
        <ele>127</ele>
        <time>2022-08-19T11:59:30Z</time>
      </trkpt>
      <trkpt lat="43.76542" lon="-0.01318">
        <ele>125</ele>
        <time>2022-08-19T12:00:11Z</time>
      </trkpt>
      <trkpt lat="43.76543" lon="-0.01324">
        <ele>125</ele>
        <time>2022-08-19T12:00:14Z</time>
      </trkpt>
      <trkpt lat="43.7654" lon="-0.01338">
        <ele>125</ele>
        <time>2022-08-19T12:00:22Z</time>
      </trkpt>
      <trkpt lat="43.76533" lon="-0.01392">
        <ele>125</ele>
        <time>2022-08-19T12:00:55Z</time>
      </trkpt>
      <trkpt lat="43.7653" lon="-0.01436">
        <ele>125</ele>
        <time>2022-08-19T12:01:22Z</time>
      </trkpt>
      <trkpt lat="43.76527" lon="-0.01443">
        <ele>126</ele>
        <time>2022-08-19T12:01:26Z</time>
      </trkpt>
      <trkpt lat="43.76523" lon="-0.01497">
        <ele>128</ele>
        <time>2022-08-19T12:01:58Z</time>
      </trkpt>
      <trkpt lat="43.76517" lon="-0.01527">
        <ele>129</ele>
        <time>2022-08-19T12:02:17Z</time>
      </trkpt>
      <trkpt lat="43.76513" lon="-0.0157">
        <ele>130</ele>
        <time>2022-08-19T12:02:49Z</time>
      </trkpt>
      <trkpt lat="43.76507" lon="-0.01598">
        <ele>132</ele>
        <time>2022-08-19T12:03:06Z</time>
      </trkpt>
      <trkpt lat="43.76505" lon="-0.01604">
        <ele>132</ele>
        <time>2022-08-19T12:03:10Z</time>
      </trkpt>
      <trkpt lat="43.76503" lon="-0.01609">
        <ele>132</ele>
        <time>2022-08-19T12:03:13Z</time>
      </trkpt>
      <trkpt lat="43.76496" lon="-0.01637">
        <ele>133</ele>
        <time>2022-08-19T12:03:30Z</time>
      </trkpt>
      <trkpt lat="43.76494" lon="-0.01664">
        <ele>134</ele>
        <time>2022-08-19T12:03:47Z</time>
      </trkpt>
      <trkpt lat="43.76495" lon="-0.01675">
        <ele>135</ele>
        <time>2022-08-19T12:03:55Z</time>
      </trkpt>
      <trkpt lat="43.76491" lon="-0.01698">
        <ele>136</ele>
        <time>2022-08-19T12:04:09Z</time>
      </trkpt>
      <trkpt lat="43.76489" lon="-0.01705">
        <ele>137</ele>
        <time>2022-08-19T12:04:13Z</time>
      </trkpt>
      <trkpt lat="43.76489" lon="-0.01712">
        <ele>137</ele>
        <time>2022-08-19T12:04:18Z</time>
      </trkpt>
      <trkpt lat="43.76484" lon="-0.01744">
        <ele>138</ele>
        <time>2022-08-19T12:04:38Z</time>
      </trkpt>
      <trkpt lat="43.76482" lon="-0.01749">
        <ele>138</ele>
        <time>2022-08-19T12:04:48Z</time>
      </trkpt>
      <trkpt lat="43.76476" lon="-0.0175">
        <ele>137</ele>
        <time>2022-08-19T12:04:52Z</time>
      </trkpt>
      <trkpt lat="43.76456" lon="-0.01756">
        <ele>137</ele>
        <time>2022-08-19T12:05:09Z</time>
      </trkpt>
      <trkpt lat="43.76431" lon="-0.01756">
        <ele>137</ele>
        <time>2022-08-19T12:05:31Z</time>
      </trkpt>
      <trkpt lat="43.76426" lon="-0.01754">
        <ele>137</ele>
        <time>2022-08-19T12:05:35Z</time>
      </trkpt>
      <trkpt lat="43.76422" lon="-0.01752">
        <ele>137</ele>
        <time>2022-08-19T12:05:40Z</time>
      </trkpt>
      <trkpt lat="43.76418" lon="-0.01751">
        <ele>137</ele>
        <time>2022-08-19T12:05:56Z</time>
      </trkpt>
      <trkpt lat="43.76402" lon="-0.01753">
        <ele>136</ele>
        <time>2022-08-19T12:06:15Z</time>
      </trkpt>
      <trkpt lat="43.76365" lon="-0.01768">
        <ele>133</ele>
        <time>2022-08-19T12:06:48Z</time>
      </trkpt>
      <trkpt lat="43.76351" lon="-0.01772">
        <ele>133</ele>
        <time>2022-08-19T12:07:00Z</time>
      </trkpt>
      <trkpt lat="43.76346" lon="-0.01776">
        <ele>132</ele>
        <time>2022-08-19T12:07:06Z</time>
      </trkpt>
      <trkpt lat="43.76348" lon="-0.01786">
        <ele>132</ele>
        <time>2022-08-19T12:07:27Z</time>
      </trkpt>
      <trkpt lat="43.76348" lon="-0.01794">
        <ele>131</ele>
        <time>2022-08-19T12:07:32Z</time>
      </trkpt>
      <trkpt lat="43.76351" lon="-0.018">
        <ele>130</ele>
        <time>2022-08-19T12:07:35Z</time>
      </trkpt>
      <trkpt lat="43.76359" lon="-0.01848">
        <ele>126</ele>
        <time>2022-08-19T12:08:01Z</time>
      </trkpt>
      <trkpt lat="43.76349" lon="-0.01903">
        <ele>119</ele>
        <time>2022-08-19T12:08:32Z</time>
      </trkpt>
      <trkpt lat="43.76347" lon="-0.01909">
        <ele>118</ele>
        <time>2022-08-19T12:08:36Z</time>
      </trkpt>
      <trkpt lat="43.76347" lon="-0.01916">
        <ele>117</ele>
        <time>2022-08-19T12:08:40Z</time>
      </trkpt>
      <trkpt lat="43.76343" lon="-0.01928">
        <ele>115</ele>
        <time>2022-08-19T12:08:48Z</time>
      </trkpt>
      <trkpt lat="43.76338" lon="-0.01972">
        <ele>109</ele>
        <time>2022-08-19T12:09:19Z</time>
      </trkpt>
      <trkpt lat="43.76332" lon="-0.01993">
        <ele>105</ele>
        <time>2022-08-19T12:09:36Z</time>
      </trkpt>
      <trkpt lat="43.76331" lon="-0.02006">
        <ele>104</ele>
        <time>2022-08-19T12:09:45Z</time>
      </trkpt>
      <trkpt lat="43.76327" lon="-0.02025">
        <ele>102</ele>
        <time>2022-08-19T12:09:58Z</time>
      </trkpt>
      <trkpt lat="43.76326" lon="-0.02032">
        <ele>102</ele>
        <time>2022-08-19T12:10:02Z</time>
      </trkpt>
      <trkpt lat="43.76323" lon="-0.02041">
        <ele>101</ele>
        <time>2022-08-19T12:10:11Z</time>
      </trkpt>
      <trkpt lat="43.7632" lon="-0.02047">
        <ele>101</ele>
        <time>2022-08-19T12:10:15Z</time>
      </trkpt>
      <trkpt lat="43.76318" lon="-0.02054">
        <ele>101</ele>
        <time>2022-08-19T12:10:19Z</time>
      </trkpt>
      <trkpt lat="43.76311" lon="-0.02065">
        <ele>100</ele>
        <time>2022-08-19T12:10:28Z</time>
      </trkpt>
      <trkpt lat="43.76313" lon="-0.02073">
        <ele>99</ele>
        <time>2022-08-19T12:10:46Z</time>
      </trkpt>
      <trkpt lat="43.76318" lon="-0.02076">
        <ele>98</ele>
        <time>2022-08-19T12:10:50Z</time>
      </trkpt>
      <trkpt lat="43.76328" lon="-0.0208">
        <ele>98</ele>
        <time>2022-08-19T12:11:00Z</time>
      </trkpt>
      <trkpt lat="43.76332" lon="-0.02081">
        <ele>97</ele>
        <time>2022-08-19T12:11:04Z</time>
      </trkpt>
      <trkpt lat="43.76338" lon="-0.02086">
        <ele>98</ele>
        <time>2022-08-19T12:11:18Z</time>
      </trkpt>
      <trkpt lat="43.76372" lon="-0.02098">
        <ele>98</ele>
        <time>2022-08-19T12:11:50Z</time>
      </trkpt>
      <trkpt lat="43.76377" lon="-0.021">
        <ele>98</ele>
        <time>2022-08-19T12:11:53Z</time>
      </trkpt>
      <trkpt lat="43.76382" lon="-0.02101">
        <ele>98</ele>
        <time>2022-08-19T12:11:58Z</time>
      </trkpt>
      <trkpt lat="43.76396" lon="-0.02105">
        <ele>99</ele>
        <time>2022-08-19T12:12:10Z</time>
      </trkpt>
      <trkpt lat="43.76419" lon="-0.02111">
        <ele>99</ele>
        <time>2022-08-19T12:12:32Z</time>
      </trkpt>
      <trkpt lat="43.76423" lon="-0.02113">
        <ele>99</ele>
        <time>2022-08-19T12:12:36Z</time>
      </trkpt>
      <trkpt lat="43.76429" lon="-0.02117">
        <ele>99</ele>
        <time>2022-08-19T12:12:40Z</time>
      </trkpt>
      <trkpt lat="43.76438" lon="-0.0212">
        <ele>100</ele>
        <time>2022-08-19T12:12:48Z</time>
      </trkpt>
      <trkpt lat="43.76445" lon="-0.02125">
        <ele>100</ele>
        <time>2022-08-19T12:12:56Z</time>
      </trkpt>
      <trkpt lat="43.7645" lon="-0.02127">
        <ele>100</ele>
        <time>2022-08-19T12:13:01Z</time>
      </trkpt>
      <trkpt lat="43.76457" lon="-0.02137">
        <ele>100</ele>
        <time>2022-08-19T12:13:09Z</time>
      </trkpt>
      <trkpt lat="43.76461" lon="-0.0214">
        <ele>100</ele>
        <time>2022-08-19T12:13:14Z</time>
      </trkpt>
      <trkpt lat="43.76466" lon="-0.02141">
        <ele>100</ele>
        <time>2022-08-19T12:13:19Z</time>
      </trkpt>
      <trkpt lat="43.76471" lon="-0.02147">
        <ele>100</ele>
        <time>2022-08-19T12:13:28Z</time>
      </trkpt>
      <trkpt lat="43.76478" lon="-0.02176">
        <ele>99</ele>
        <time>2022-08-19T12:13:47Z</time>
      </trkpt>
      <trkpt lat="43.76478" lon="-0.02184">
        <ele>98</ele>
        <time>2022-08-19T12:13:55Z</time>
      </trkpt>
      <trkpt lat="43.76482" lon="-0.02214">
        <ele>97</ele>
        <time>2022-08-19T12:14:13Z</time>
      </trkpt>
      <trkpt lat="43.76482" lon="-0.0225">
        <ele>97</ele>
        <time>2022-08-19T12:14:36Z</time>
      </trkpt>
      <trkpt lat="43.76482" lon="-0.02257">
        <ele>97</ele>
        <time>2022-08-19T12:14:41Z</time>
      </trkpt>
      <trkpt lat="43.76481" lon="-0.02274">
        <ele>97</ele>
        <time>2022-08-19T12:14:54Z</time>
      </trkpt>
      <trkpt lat="43.76484" lon="-0.02285">
        <ele>96</ele>
        <time>2022-08-19T12:15:06Z</time>
      </trkpt>
      <trkpt lat="43.76484" lon="-0.02292">
        <ele>97</ele>
        <time>2022-08-19T12:15:10Z</time>
      </trkpt>
      <trkpt lat="43.76485" lon="-0.02298">
        <ele>96</ele>
        <time>2022-08-19T12:15:14Z</time>
      </trkpt>
      <trkpt lat="43.76471" lon="-0.02337">
        <ele>95</ele>
        <time>2022-08-19T12:15:45Z</time>
      </trkpt>
      <trkpt lat="43.76469" lon="-0.02346">
        <ele>95</ele>
        <time>2022-08-19T12:16:02Z</time>
      </trkpt>
      <trkpt lat="43.76464" lon="-0.02358">
        <ele>95</ele>
        <time>2022-08-19T12:16:12Z</time>
      </trkpt>
      <trkpt lat="43.76462" lon="-0.02364">
        <ele>95</ele>
        <time>2022-08-19T12:16:16Z</time>
      </trkpt>
      <trkpt lat="43.76458" lon="-0.02372">
        <ele>95</ele>
        <time>2022-08-19T12:16:22Z</time>
      </trkpt>
      <trkpt lat="43.76451" lon="-0.02404">
        <ele>94</ele>
        <time>2022-08-19T12:16:42Z</time>
      </trkpt>
      <trkpt lat="43.76448" lon="-0.02411">
        <ele>94</ele>
        <time>2022-08-19T12:16:46Z</time>
      </trkpt>
      <trkpt lat="43.76433" lon="-0.02461">
        <ele>94</ele>
        <time>2022-08-19T12:17:19Z</time>
      </trkpt>
      <trkpt lat="43.7643" lon="-0.02468">
        <ele>94</ele>
        <time>2022-08-19T12:17:23Z</time>
      </trkpt>
      <trkpt lat="43.76427" lon="-0.02475">
        <ele>94</ele>
        <time>2022-08-19T12:17:28Z</time>
      </trkpt>
      <trkpt lat="43.76424" lon="-0.02479">
        <ele>93</ele>
        <time>2022-08-19T12:17:31Z</time>
      </trkpt>
      <trkpt lat="43.76409" lon="-0.02526">
        <ele>93</ele>
        <time>2022-08-19T12:18:02Z</time>
      </trkpt>
      <trkpt lat="43.76393" lon="-0.02575">
        <ele>93</ele>
        <time>2022-08-19T12:18:35Z</time>
      </trkpt>
      <trkpt lat="43.7639" lon="-0.02582">
        <ele>93</ele>
        <time>2022-08-19T12:18:39Z</time>
      </trkpt>
      <trkpt lat="43.76385" lon="-0.02597">
        <ele>93</ele>
        <time>2022-08-19T12:18:50Z</time>
      </trkpt>
      <trkpt lat="43.76383" lon="-0.02602">
        <ele>93</ele>
        <time>2022-08-19T12:19:04Z</time>
      </trkpt>
      <trkpt lat="43.76378" lon="-0.02609">
        <ele>93</ele>
        <time>2022-08-19T12:19:16Z</time>
      </trkpt>
      <trkpt lat="43.76376" lon="-0.02622">
        <ele>93</ele>
        <time>2022-08-19T12:19:26Z</time>
      </trkpt>
      <trkpt lat="43.76371" lon="-0.02635">
        <ele>93</ele>
        <time>2022-08-19T12:19:41Z</time>
      </trkpt>
      <trkpt lat="43.76369" lon="-0.02648">
        <ele>93</ele>
        <time>2022-08-19T12:19:50Z</time>
      </trkpt>
      <trkpt lat="43.76365" lon="-0.02661">
        <ele>93</ele>
        <time>2022-08-19T12:19:58Z</time>
      </trkpt>
      <trkpt lat="43.76363" lon="-0.02668">
        <ele>94</ele>
        <time>2022-08-19T12:20:03Z</time>
      </trkpt>
      <trkpt lat="43.76348" lon="-0.02714">
        <ele>94</ele>
        <time>2022-08-19T12:20:35Z</time>
      </trkpt>
      <trkpt lat="43.76334" lon="-0.02755">
        <ele>94</ele>
        <time>2022-08-19T12:21:07Z</time>
      </trkpt>
      <trkpt lat="43.7633" lon="-0.02775">
        <ele>95</ele>
        <time>2022-08-19T12:21:19Z</time>
      </trkpt>
      <trkpt lat="43.76327" lon="-0.0278">
        <ele>95</ele>
        <time>2022-08-19T12:21:23Z</time>
      </trkpt>
      <trkpt lat="43.76323" lon="-0.02784">
        <ele>95</ele>
        <time>2022-08-19T12:21:27Z</time>
      </trkpt>
      <trkpt lat="43.76319" lon="-0.02799">
        <ele>96</ele>
        <time>2022-08-19T12:21:37Z</time>
      </trkpt>
      <trkpt lat="43.76314" lon="-0.02805">
        <ele>96</ele>
        <time>2022-08-19T12:21:42Z</time>
      </trkpt>
      <trkpt lat="43.76314" lon="-0.02812">
        <ele>96</ele>
        <time>2022-08-19T12:21:47Z</time>
      </trkpt>
      <trkpt lat="43.76294" lon="-0.02858">
        <ele>97</ele>
        <time>2022-08-19T12:22:20Z</time>
      </trkpt>
      <trkpt lat="43.76263" lon="-0.02896">
        <ele>98</ele>
        <time>2022-08-19T12:22:54Z</time>
      </trkpt>
      <trkpt lat="43.76259" lon="-0.029">
        <ele>98</ele>
        <time>2022-08-19T12:22:57Z</time>
      </trkpt>
      <trkpt lat="43.76255" lon="-0.02902">
        <ele>98</ele>
        <time>2022-08-19T12:23:01Z</time>
      </trkpt>
      <trkpt lat="43.76224" lon="-0.02939">
        <ele>99</ele>
        <time>2022-08-19T12:23:34Z</time>
      </trkpt>
      <trkpt lat="43.76221" lon="-0.02944">
        <ele>99</ele>
        <time>2022-08-19T12:23:38Z</time>
      </trkpt>
      <trkpt lat="43.76217" lon="-0.02949">
        <ele>98</ele>
        <time>2022-08-19T12:23:42Z</time>
      </trkpt>
      <trkpt lat="43.76214" lon="-0.02954">
        <ele>99</ele>
        <time>2022-08-19T12:23:47Z</time>
      </trkpt>
      <trkpt lat="43.76211" lon="-0.02959">
        <ele>99</ele>
        <time>2022-08-19T12:23:51Z</time>
      </trkpt>
      <trkpt lat="43.76207" lon="-0.02962">
        <ele>98</ele>
        <time>2022-08-19T12:23:55Z</time>
      </trkpt>
      <trkpt lat="43.76185" lon="-0.02994">
        <ele>98</ele>
        <time>2022-08-19T12:24:23Z</time>
      </trkpt>
      <trkpt lat="43.76178" lon="-0.02998">
        <ele>98</ele>
        <time>2022-08-19T12:24:30Z</time>
      </trkpt>
      <trkpt lat="43.76181" lon="-0.03006">
        <ele>98</ele>
        <time>2022-08-19T12:24:36Z</time>
      </trkpt>
      <trkpt lat="43.76185" lon="-0.03009">
        <ele>97</ele>
        <time>2022-08-19T12:24:40Z</time>
      </trkpt>
      <trkpt lat="43.76195" lon="-0.03026">
        <ele>97</ele>
        <time>2022-08-19T12:24:51Z</time>
      </trkpt>
      <trkpt lat="43.76208" lon="-0.03033">
        <ele>97</ele>
        <time>2022-08-19T12:25:02Z</time>
      </trkpt>
      <trkpt lat="43.76213" lon="-0.03036">
        <ele>97</ele>
        <time>2022-08-19T12:25:06Z</time>
      </trkpt>
      <trkpt lat="43.76238" lon="-0.03039">
        <ele>96</ele>
        <time>2022-08-19T12:25:27Z</time>
      </trkpt>
      <trkpt lat="43.76259" lon="-0.03054">
        <ele>96</ele>
        <time>2022-08-19T12:25:48Z</time>
      </trkpt>
      <trkpt lat="43.76268" lon="-0.03058">
        <ele>95</ele>
        <time>2022-08-19T12:25:56Z</time>
      </trkpt>
      <trkpt lat="43.76284" lon="-0.03073">
        <ele>95</ele>
        <time>2022-08-19T12:26:12Z</time>
      </trkpt>
      <trkpt lat="43.76318" lon="-0.0309">
        <ele>95</ele>
        <time>2022-08-19T12:26:43Z</time>
      </trkpt>
      <trkpt lat="43.76328" lon="-0.03095">
        <ele>95</ele>
        <time>2022-08-19T12:26:51Z</time>
      </trkpt>
      <trkpt lat="43.76336" lon="-0.03103">
        <ele>95</ele>
        <time>2022-08-19T12:26:59Z</time>
      </trkpt>
      <trkpt lat="43.7634" lon="-0.03106">
        <ele>95</ele>
        <time>2022-08-19T12:27:03Z</time>
      </trkpt>
      <trkpt lat="43.76353" lon="-0.03118">
        <ele>95</ele>
        <time>2022-08-19T12:27:16Z</time>
      </trkpt>
      <trkpt lat="43.76359" lon="-0.03127">
        <ele>95</ele>
        <time>2022-08-19T12:27:30Z</time>
      </trkpt>
      <trkpt lat="43.7636" lon="-0.03133">
        <ele>95</ele>
        <time>2022-08-19T12:27:34Z</time>
      </trkpt>
      <trkpt lat="43.76364" lon="-0.03137">
        <ele>95</ele>
        <time>2022-08-19T12:27:38Z</time>
      </trkpt>
      <trkpt lat="43.76373" lon="-0.03139">
        <ele>95</ele>
        <time>2022-08-19T12:27:46Z</time>
      </trkpt>
      <trkpt lat="43.76408" lon="-0.03162">
        <ele>95</ele>
        <time>2022-08-19T12:28:19Z</time>
      </trkpt>
      <trkpt lat="43.76418" lon="-0.03166">
        <ele>96</ele>
        <time>2022-08-19T12:28:28Z</time>
      </trkpt>
      <trkpt lat="43.76428" lon="-0.0317">
        <ele>95</ele>
        <time>2022-08-19T12:28:36Z</time>
      </trkpt>
      <trkpt lat="43.76438" lon="-0.03176">
        <ele>95</ele>
        <time>2022-08-19T12:28:45Z</time>
      </trkpt>
      <trkpt lat="43.76443" lon="-0.03178">
        <ele>95</ele>
        <time>2022-08-19T12:28:50Z</time>
      </trkpt>
      <trkpt lat="43.76447" lon="-0.03181">
        <ele>95</ele>
        <time>2022-08-19T12:28:54Z</time>
      </trkpt>
      <trkpt lat="43.76454" lon="-0.03183">
        <ele>95</ele>
        <time>2022-08-19T12:29:00Z</time>
      </trkpt>
      <trkpt lat="43.76459" lon="-0.03185">
        <ele>96</ele>
        <time>2022-08-19T12:29:04Z</time>
      </trkpt>
      <trkpt lat="43.76474" lon="-0.03189">
        <ele>95</ele>
        <time>2022-08-19T12:29:17Z</time>
      </trkpt>
      <trkpt lat="43.76476" lon="-0.03194">
        <ele>95</ele>
        <time>2022-08-19T12:29:21Z</time>
      </trkpt>
      <trkpt lat="43.76477" lon="-0.03201">
        <ele>96</ele>
        <time>2022-08-19T12:29:25Z</time>
      </trkpt>
      <trkpt lat="43.76483" lon="-0.03213">
        <ele>96</ele>
        <time>2022-08-19T12:29:35Z</time>
      </trkpt>
      <trkpt lat="43.76484" lon="-0.0322">
        <ele>96</ele>
        <time>2022-08-19T12:29:40Z</time>
      </trkpt>
      <trkpt lat="43.7649" lon="-0.03274">
        <ele>96</ele>
        <time>2022-08-19T12:30:13Z</time>
      </trkpt>
      <trkpt lat="43.76491" lon="-0.03281">
        <ele>96</ele>
        <time>2022-08-19T12:30:18Z</time>
      </trkpt>
      <trkpt lat="43.76491" lon="-0.03295">
        <ele>96</ele>
        <time>2022-08-19T12:30:28Z</time>
      </trkpt>
      <trkpt lat="43.7649" lon="-0.03304">
        <ele>96</ele>
        <time>2022-08-19T12:30:49Z</time>
      </trkpt>
      <trkpt lat="43.76494" lon="-0.03309">
        <ele>96</ele>
        <time>2022-08-19T12:30:54Z</time>
      </trkpt>
      <trkpt lat="43.76498" lon="-0.03308">
        <ele>96</ele>
        <time>2022-08-19T12:30:58Z</time>
      </trkpt>
      <trkpt lat="43.76503" lon="-0.03308">
        <ele>96</ele>
        <time>2022-08-19T12:31:03Z</time>
      </trkpt>
      <trkpt lat="43.76511" lon="-0.03306">
        <ele>95</ele>
        <time>2022-08-19T12:31:16Z</time>
      </trkpt>
      <trkpt lat="43.76516" lon="-0.03309">
        <ele>96</ele>
        <time>2022-08-19T12:31:25Z</time>
      </trkpt>
      <trkpt lat="43.76521" lon="-0.03323">
        <ele>95</ele>
        <time>2022-08-19T12:31:57Z</time>
      </trkpt>
      <trkpt lat="43.76523" lon="-0.03313">
        <ele>95</ele>
        <time>2022-08-19T12:34:06Z</time>
      </trkpt>
      <trkpt lat="43.76519" lon="-0.03317">
        <ele>96</ele>
        <time>2022-08-19T12:37:04Z</time>
      </trkpt>
      <trkpt lat="43.7652" lon="-0.03328">
        <ele>95</ele>
        <time>2022-08-19T12:38:19Z</time>
      </trkpt>
      <trkpt lat="43.76527" lon="-0.03331">
        <ele>96</ele>
        <time>2022-08-19T12:38:36Z</time>
      </trkpt>
      <trkpt lat="43.76526" lon="-0.03331">
        <ele>95</ele>
        <time>2022-08-19T12:40:04Z</time>
      </trkpt>
      <trkpt lat="43.76525" lon="-0.03327">
        <ele>95</ele>
        <time>2022-08-19T12:53:47Z</time>
      </trkpt>
      <trkpt lat="43.76518" lon="-0.03312">
        <ele>95</ele>
        <time>2022-08-19T12:57:03Z</time>
      </trkpt>
      <trkpt lat="43.76516" lon="-0.03304">
        <ele>95</ele>
        <time>2022-08-19T12:57:08Z</time>
      </trkpt>
      <trkpt lat="43.76522" lon="-0.03304">
        <ele>95</ele>
        <time>2022-08-19T12:57:21Z</time>
      </trkpt>
      <trkpt lat="43.76521" lon="-0.03306">
        <ele>96</ele>
        <time>2022-08-19T12:57:54Z</time>
      </trkpt>
      <trkpt lat="43.76516" lon="-0.03302">
        <ele>96</ele>
        <time>2022-08-19T12:59:27Z</time>
      </trkpt>
      <trkpt lat="43.76516" lon="-0.03305">
        <ele>95</ele>
        <time>2022-08-19T13:00:11Z</time>
      </trkpt>
      <trkpt lat="43.76516" lon="-0.03301">
        <ele>96</ele>
        <time>2022-08-19T13:01:42Z</time>
      </trkpt>
      <trkpt lat="43.76519" lon="-0.03295">
        <ele>96</ele>
        <time>2022-08-19T13:01:58Z</time>
      </trkpt>
      <trkpt lat="43.76524" lon="-0.03298">
        <ele>95</ele>
        <time>2022-08-19T13:02:13Z</time>
      </trkpt>
      <trkpt lat="43.76528" lon="-0.03305">
        <ele>95</ele>
        <time>2022-08-19T13:02:23Z</time>
      </trkpt>
      <trkpt lat="43.76531" lon="-0.03312">
        <ele>95</ele>
        <time>2022-08-19T13:02:33Z</time>
      </trkpt>
      <trkpt lat="43.76534" lon="-0.03308">
        <ele>95</ele>
        <time>2022-08-19T13:03:19Z</time>
      </trkpt>
      <trkpt lat="43.76528" lon="-0.03302">
        <ele>95</ele>
        <time>2022-08-19T13:03:37Z</time>
      </trkpt>
      <trkpt lat="43.7652" lon="-0.03304">
        <ele>95</ele>
        <time>2022-08-19T13:04:24Z</time>
      </trkpt>
      <trkpt lat="43.76516" lon="-0.03305">
        <ele>95</ele>
        <time>2022-08-19T13:04:36Z</time>
      </trkpt>
      <trkpt lat="43.76515" lon="-0.03306">
        <ele>95</ele>
        <time>2022-08-19T13:05:56Z</time>
      </trkpt>
      <trkpt lat="43.76513" lon="-0.03303">
        <ele>95</ele>
        <time>2022-08-19T13:06:42Z</time>
      </trkpt>
      <trkpt lat="43.76496" lon="-0.03303">
        <ele>95</ele>
        <time>2022-08-20T06:18:35Z</time>
      </trkpt>
      <trkpt lat="43.76488" lon="-0.0331">
        <ele>95</ele>
        <time>2022-08-20T06:19:03Z</time>
      </trkpt>
      <trkpt lat="43.76483" lon="-0.03316">
        <ele>95</ele>
        <time>2022-08-20T06:19:11Z</time>
      </trkpt>
      <trkpt lat="43.76479" lon="-0.03325">
        <ele>95</ele>
        <time>2022-08-20T06:19:17Z</time>
      </trkpt>
      <trkpt lat="43.76474" lon="-0.03338">
        <ele>95</ele>
        <time>2022-08-20T06:19:28Z</time>
      </trkpt>
      <trkpt lat="43.76462" lon="-0.03357">
        <ele>96</ele>
        <time>2022-08-20T06:19:50Z</time>
      </trkpt>
      <trkpt lat="43.76451" lon="-0.03366">
        <ele>95</ele>
        <time>2022-08-20T06:20:04Z</time>
      </trkpt>
      <trkpt lat="43.76423" lon="-0.03391">
        <ele>96</ele>
        <time>2022-08-20T06:20:37Z</time>
      </trkpt>
      <trkpt lat="43.76394" lon="-0.03406">
        <ele>97</ele>
        <time>2022-08-20T06:21:02Z</time>
      </trkpt>
      <trkpt lat="43.76383" lon="-0.03409">
        <ele>97</ele>
        <time>2022-08-20T06:21:11Z</time>
      </trkpt>
      <trkpt lat="43.76364" lon="-0.03418">
        <ele>97</ele>
        <time>2022-08-20T06:21:27Z</time>
      </trkpt>
      <trkpt lat="43.76354" lon="-0.03421">
        <ele>97</ele>
        <time>2022-08-20T06:21:35Z</time>
      </trkpt>
      <trkpt lat="43.76346" lon="-0.03427">
        <ele>97</ele>
        <time>2022-08-20T06:21:43Z</time>
      </trkpt>
      <trkpt lat="43.76311" lon="-0.03431">
        <ele>98</ele>
        <time>2022-08-20T06:22:10Z</time>
      </trkpt>
      <trkpt lat="43.76306" lon="-0.0343">
        <ele>98</ele>
        <time>2022-08-20T06:22:14Z</time>
      </trkpt>
      <trkpt lat="43.7629" lon="-0.03431">
        <ele>98</ele>
        <time>2022-08-20T06:22:26Z</time>
      </trkpt>
      <trkpt lat="43.76285" lon="-0.03431">
        <ele>98</ele>
        <time>2022-08-20T06:22:31Z</time>
      </trkpt>
      <trkpt lat="43.76281" lon="-0.03428">
        <ele>98</ele>
        <time>2022-08-20T06:22:36Z</time>
      </trkpt>
      <trkpt lat="43.76276" lon="-0.03427">
        <ele>98</ele>
        <time>2022-08-20T06:22:40Z</time>
      </trkpt>
      <trkpt lat="43.76272" lon="-0.03425">
        <ele>98</ele>
        <time>2022-08-20T06:22:45Z</time>
      </trkpt>
      <trkpt lat="43.7627" lon="-0.03417">
        <ele>98</ele>
        <time>2022-08-20T06:22:50Z</time>
      </trkpt>
      <trkpt lat="43.76268" lon="-0.03411">
        <ele>98</ele>
        <time>2022-08-20T06:22:54Z</time>
      </trkpt>
      <trkpt lat="43.76261" lon="-0.03399">
        <ele>98</ele>
        <time>2022-08-20T06:23:02Z</time>
      </trkpt>
      <trkpt lat="43.76259" lon="-0.03387">
        <ele>97</ele>
        <time>2022-08-20T06:23:09Z</time>
      </trkpt>
      <trkpt lat="43.76256" lon="-0.03381">
        <ele>97</ele>
        <time>2022-08-20T06:23:14Z</time>
      </trkpt>
      <trkpt lat="43.76255" lon="-0.03375">
        <ele>97</ele>
        <time>2022-08-20T06:23:17Z</time>
      </trkpt>
      <trkpt lat="43.76247" lon="-0.03316">
        <ele>97</ele>
        <time>2022-08-20T06:23:50Z</time>
      </trkpt>
      <trkpt lat="43.76244" lon="-0.03295">
        <ele>97</ele>
        <time>2022-08-20T06:24:02Z</time>
      </trkpt>
      <trkpt lat="43.76241" lon="-0.03259">
        <ele>98</ele>
        <time>2022-08-20T06:24:23Z</time>
      </trkpt>
      <trkpt lat="43.76238" lon="-0.03247">
        <ele>98</ele>
        <time>2022-08-20T06:24:31Z</time>
      </trkpt>
      <trkpt lat="43.76236" lon="-0.03226">
        <ele>98</ele>
        <time>2022-08-20T06:24:43Z</time>
      </trkpt>
      <trkpt lat="43.76227" lon="-0.03216">
        <ele>98</ele>
        <time>2022-08-20T06:24:51Z</time>
      </trkpt>
      <trkpt lat="43.76222" lon="-0.03215">
        <ele>98</ele>
        <time>2022-08-20T06:24:55Z</time>
      </trkpt>
      <trkpt lat="43.76217" lon="-0.03216">
        <ele>98</ele>
        <time>2022-08-20T06:24:59Z</time>
      </trkpt>
      <trkpt lat="43.76202" lon="-0.03221">
        <ele>98</ele>
        <time>2022-08-20T06:25:11Z</time>
      </trkpt>
      <trkpt lat="43.76197" lon="-0.03221">
        <ele>98</ele>
        <time>2022-08-20T06:25:15Z</time>
      </trkpt>
      <trkpt lat="43.76155" lon="-0.03235">
        <ele>98</ele>
        <time>2022-08-20T06:25:49Z</time>
      </trkpt>
      <trkpt lat="43.7615" lon="-0.03237">
        <ele>98</ele>
        <time>2022-08-20T06:25:53Z</time>
      </trkpt>
      <trkpt lat="43.76139" lon="-0.03237">
        <ele>98</ele>
        <time>2022-08-20T06:26:02Z</time>
      </trkpt>
      <trkpt lat="43.76107" lon="-0.03257">
        <ele>99</ele>
        <time>2022-08-20T06:26:31Z</time>
      </trkpt>
      <trkpt lat="43.76102" lon="-0.03262">
        <ele>99</ele>
        <time>2022-08-20T06:26:34Z</time>
      </trkpt>
      <trkpt lat="43.76098" lon="-0.03263">
        <ele>99</ele>
        <time>2022-08-20T06:26:37Z</time>
      </trkpt>
      <trkpt lat="43.76064" lon="-0.03235">
        <ele>99</ele>
        <time>2022-08-20T06:27:10Z</time>
      </trkpt>
      <trkpt lat="43.76055" lon="-0.03227">
        <ele>99</ele>
        <time>2022-08-20T06:27:18Z</time>
      </trkpt>
      <trkpt lat="43.7605" lon="-0.03224">
        <ele>100</ele>
        <time>2022-08-20T06:27:22Z</time>
      </trkpt>
      <trkpt lat="43.7601" lon="-0.03211">
        <ele>101</ele>
        <time>2022-08-20T06:27:54Z</time>
      </trkpt>
      <trkpt lat="43.75989" lon="-0.03204">
        <ele>102</ele>
        <time>2022-08-20T06:28:09Z</time>
      </trkpt>
      <trkpt lat="43.75983" lon="-0.03205">
        <ele>102</ele>
        <time>2022-08-20T06:28:16Z</time>
      </trkpt>
      <trkpt lat="43.75977" lon="-0.03213">
        <ele>102</ele>
        <time>2022-08-20T06:28:22Z</time>
      </trkpt>
      <trkpt lat="43.75962" lon="-0.03223">
        <ele>103</ele>
        <time>2022-08-20T06:28:36Z</time>
      </trkpt>
      <trkpt lat="43.75957" lon="-0.0323">
        <ele>103</ele>
        <time>2022-08-20T06:28:41Z</time>
      </trkpt>
      <trkpt lat="43.75954" lon="-0.03236">
        <ele>103</ele>
        <time>2022-08-20T06:28:45Z</time>
      </trkpt>
      <trkpt lat="43.75925" lon="-0.03261">
        <ele>103</ele>
        <time>2022-08-20T06:29:15Z</time>
      </trkpt>
      <trkpt lat="43.75921" lon="-0.03266">
        <ele>103</ele>
        <time>2022-08-20T06:29:19Z</time>
      </trkpt>
      <trkpt lat="43.75907" lon="-0.03278">
        <ele>104</ele>
        <time>2022-08-20T06:29:34Z</time>
      </trkpt>
      <trkpt lat="43.759" lon="-0.03292">
        <ele>102</ele>
        <time>2022-08-20T06:31:44Z</time>
      </trkpt>
      <trkpt lat="43.75896" lon="-0.03298">
        <ele>102</ele>
        <time>2022-08-20T06:31:52Z</time>
      </trkpt>
      <trkpt lat="43.75879" lon="-0.03315">
        <ele>103</ele>
        <time>2022-08-20T06:32:13Z</time>
      </trkpt>
      <trkpt lat="43.75873" lon="-0.03322">
        <ele>103</ele>
        <time>2022-08-20T06:32:21Z</time>
      </trkpt>
      <trkpt lat="43.75842" lon="-0.03355">
        <ele>104</ele>
        <time>2022-08-20T06:32:54Z</time>
      </trkpt>
      <trkpt lat="43.75827" lon="-0.03377">
        <ele>105</ele>
        <time>2022-08-20T06:33:09Z</time>
      </trkpt>
      <trkpt lat="43.75821" lon="-0.03393">
        <ele>105</ele>
        <time>2022-08-20T06:33:19Z</time>
      </trkpt>
      <trkpt lat="43.75811" lon="-0.03406">
        <ele>105</ele>
        <time>2022-08-20T06:33:28Z</time>
      </trkpt>
      <trkpt lat="43.75804" lon="-0.03408">
        <ele>105</ele>
        <time>2022-08-20T06:33:33Z</time>
      </trkpt>
      <trkpt lat="43.75797" lon="-0.03421">
        <ele>106</ele>
        <time>2022-08-20T06:33:44Z</time>
      </trkpt>
      <trkpt lat="43.75786" lon="-0.03427">
        <ele>106</ele>
        <time>2022-08-20T06:33:53Z</time>
      </trkpt>
      <trkpt lat="43.75777" lon="-0.03435">
        <ele>106</ele>
        <time>2022-08-20T06:34:02Z</time>
      </trkpt>
      <trkpt lat="43.75765" lon="-0.03458">
        <ele>107</ele>
        <time>2022-08-20T06:34:16Z</time>
      </trkpt>
      <trkpt lat="43.75761" lon="-0.03463">
        <ele>107</ele>
        <time>2022-08-20T06:34:19Z</time>
      </trkpt>
      <trkpt lat="43.7575" lon="-0.03488">
        <ele>108</ele>
        <time>2022-08-20T06:34:35Z</time>
      </trkpt>
      <trkpt lat="43.75735" lon="-0.03544">
        <ele>109</ele>
        <time>2022-08-20T06:35:08Z</time>
      </trkpt>
      <trkpt lat="43.7573" lon="-0.03549">
        <ele>109</ele>
        <time>2022-08-20T06:35:17Z</time>
      </trkpt>
      <trkpt lat="43.75726" lon="-0.03554">
        <ele>109</ele>
        <time>2022-08-20T06:35:22Z</time>
      </trkpt>
      <trkpt lat="43.75715" lon="-0.03583">
        <ele>109</ele>
        <time>2022-08-20T06:35:43Z</time>
      </trkpt>
      <trkpt lat="43.75714" lon="-0.03606">
        <ele>110</ele>
        <time>2022-08-20T06:36:00Z</time>
      </trkpt>
      <trkpt lat="43.75729" lon="-0.03613">
        <ele>111</ele>
        <time>2022-08-20T06:36:16Z</time>
      </trkpt>
      <trkpt lat="43.75733" lon="-0.03624">
        <ele>111</ele>
        <time>2022-08-20T06:36:22Z</time>
      </trkpt>
      <trkpt lat="43.75732" lon="-0.03662">
        <ele>112</ele>
        <time>2022-08-20T06:36:46Z</time>
      </trkpt>
      <trkpt lat="43.7574" lon="-0.03685">
        <ele>113</ele>
        <time>2022-08-20T06:36:59Z</time>
      </trkpt>
      <trkpt lat="43.75738" lon="-0.03691">
        <ele>114</ele>
        <time>2022-08-20T06:37:03Z</time>
      </trkpt>
      <trkpt lat="43.75734" lon="-0.03695">
        <ele>114</ele>
        <time>2022-08-20T06:37:07Z</time>
      </trkpt>
      <trkpt lat="43.75733" lon="-0.03702">
        <ele>114</ele>
        <time>2022-08-20T06:37:11Z</time>
      </trkpt>
      <trkpt lat="43.75733" lon="-0.03709">
        <ele>114</ele>
        <time>2022-08-20T06:37:15Z</time>
      </trkpt>
      <trkpt lat="43.75734" lon="-0.03731">
        <ele>115</ele>
        <time>2022-08-20T06:37:28Z</time>
      </trkpt>
      <trkpt lat="43.75732" lon="-0.03784">
        <ele>118</ele>
        <time>2022-08-20T06:37:56Z</time>
      </trkpt>
      <trkpt lat="43.75729" lon="-0.03791">
        <ele>118</ele>
        <time>2022-08-20T06:38:03Z</time>
      </trkpt>
      <trkpt lat="43.75726" lon="-0.03836">
        <ele>121</ele>
        <time>2022-08-20T06:38:31Z</time>
      </trkpt>
      <trkpt lat="43.75728" lon="-0.03853">
        <ele>122</ele>
        <time>2022-08-20T06:38:43Z</time>
      </trkpt>
      <trkpt lat="43.75729" lon="-0.03885">
        <ele>123</ele>
        <time>2022-08-20T06:39:01Z</time>
      </trkpt>
      <trkpt lat="43.7573" lon="-0.03893">
        <ele>123</ele>
        <time>2022-08-20T06:39:05Z</time>
      </trkpt>
      <trkpt lat="43.75728" lon="-0.03906">
        <ele>124</ele>
        <time>2022-08-20T06:39:13Z</time>
      </trkpt>
      <trkpt lat="43.75729" lon="-0.03913">
        <ele>125</ele>
        <time>2022-08-20T06:39:17Z</time>
      </trkpt>
      <trkpt lat="43.75729" lon="-0.0392">
        <ele>125</ele>
        <time>2022-08-20T06:39:21Z</time>
      </trkpt>
      <trkpt lat="43.75729" lon="-0.03972">
        <ele>128</ele>
        <time>2022-08-20T06:39:54Z</time>
      </trkpt>
      <trkpt lat="43.75729" lon="-0.04025">
        <ele>132</ele>
        <time>2022-08-20T06:40:29Z</time>
      </trkpt>
      <trkpt lat="43.75727" lon="-0.04031">
        <ele>132</ele>
        <time>2022-08-20T06:40:32Z</time>
      </trkpt>
      <trkpt lat="43.75728" lon="-0.04042">
        <ele>133</ele>
        <time>2022-08-20T06:40:40Z</time>
      </trkpt>
      <trkpt lat="43.75728" lon="-0.04049">
        <ele>133</ele>
        <time>2022-08-20T06:40:44Z</time>
      </trkpt>
      <trkpt lat="43.75729" lon="-0.04056">
        <ele>134</ele>
        <time>2022-08-20T06:40:49Z</time>
      </trkpt>
      <trkpt lat="43.75724" lon="-0.04086">
        <ele>136</ele>
        <time>2022-08-20T06:41:07Z</time>
      </trkpt>
      <trkpt lat="43.75724" lon="-0.04101">
        <ele>137</ele>
        <time>2022-08-20T06:41:17Z</time>
      </trkpt>
      <trkpt lat="43.75725" lon="-0.04116">
        <ele>138</ele>
        <time>2022-08-20T06:41:27Z</time>
      </trkpt>
      <trkpt lat="43.75724" lon="-0.04125">
        <ele>139</ele>
        <time>2022-08-20T06:41:33Z</time>
      </trkpt>
      <trkpt lat="43.75726" lon="-0.04146">
        <ele>140</ele>
        <time>2022-08-20T06:41:46Z</time>
      </trkpt>
      <trkpt lat="43.75724" lon="-0.04203">
        <ele>141</ele>
        <time>2022-08-20T06:42:19Z</time>
      </trkpt>
      <trkpt lat="43.75726" lon="-0.04223">
        <ele>142</ele>
        <time>2022-08-20T06:42:31Z</time>
      </trkpt>
      <trkpt lat="43.75731" lon="-0.04228">
        <ele>142</ele>
        <time>2022-08-20T06:42:37Z</time>
      </trkpt>
      <trkpt lat="43.75733" lon="-0.04234">
        <ele>142</ele>
        <time>2022-08-20T06:42:41Z</time>
      </trkpt>
      <trkpt lat="43.75732" lon="-0.04294">
        <ele>144</ele>
        <time>2022-08-20T06:43:14Z</time>
      </trkpt>
      <trkpt lat="43.75731" lon="-0.04351">
        <ele>145</ele>
        <time>2022-08-20T06:43:46Z</time>
      </trkpt>
      <trkpt lat="43.7573" lon="-0.04373">
        <ele>145</ele>
        <time>2022-08-20T06:43:58Z</time>
      </trkpt>
      <trkpt lat="43.75732" lon="-0.0438">
        <ele>145</ele>
        <time>2022-08-20T06:44:03Z</time>
      </trkpt>
      <trkpt lat="43.75731" lon="-0.04433">
        <ele>145</ele>
        <time>2022-08-20T06:44:34Z</time>
      </trkpt>
      <trkpt lat="43.75728" lon="-0.04489">
        <ele>146</ele>
        <time>2022-08-20T06:45:05Z</time>
      </trkpt>
      <trkpt lat="43.75728" lon="-0.04524">
        <ele>147</ele>
        <time>2022-08-20T06:45:25Z</time>
      </trkpt>
      <trkpt lat="43.75728" lon="-0.04554">
        <ele>147</ele>
        <time>2022-08-20T06:45:41Z</time>
      </trkpt>
      <trkpt lat="43.75728" lon="-0.04609">
        <ele>148</ele>
        <time>2022-08-20T06:46:11Z</time>
      </trkpt>
      <trkpt lat="43.75721" lon="-0.04652">
        <ele>149</ele>
        <time>2022-08-20T06:46:38Z</time>
      </trkpt>
      <trkpt lat="43.75696" lon="-0.047">
        <ele>149</ele>
        <time>2022-08-20T06:47:11Z</time>
      </trkpt>
      <trkpt lat="43.75679" lon="-0.04738">
        <ele>149</ele>
        <time>2022-08-20T06:47:35Z</time>
      </trkpt>
      <trkpt lat="43.75674" lon="-0.04749">
        <ele>149</ele>
        <time>2022-08-20T06:47:43Z</time>
      </trkpt>
      <trkpt lat="43.7567" lon="-0.04755">
        <ele>149</ele>
        <time>2022-08-20T06:47:48Z</time>
      </trkpt>
      <trkpt lat="43.75649" lon="-0.04804">
        <ele>148</ele>
        <time>2022-08-20T06:48:19Z</time>
      </trkpt>
      <trkpt lat="43.75631" lon="-0.04843">
        <ele>148</ele>
        <time>2022-08-20T06:48:44Z</time>
      </trkpt>
      <trkpt lat="43.7563" lon="-0.04849">
        <ele>148</ele>
        <time>2022-08-20T06:48:48Z</time>
      </trkpt>
      <trkpt lat="43.75629" lon="-0.04858">
        <ele>148</ele>
        <time>2022-08-20T06:48:53Z</time>
      </trkpt>
      <trkpt lat="43.75629" lon="-0.04864">
        <ele>148</ele>
        <time>2022-08-20T06:48:58Z</time>
      </trkpt>
      <trkpt lat="43.75632" lon="-0.04871">
        <ele>147</ele>
        <time>2022-08-20T06:49:03Z</time>
      </trkpt>
      <trkpt lat="43.75633" lon="-0.04878">
        <ele>147</ele>
        <time>2022-08-20T06:49:07Z</time>
      </trkpt>
      <trkpt lat="43.75632" lon="-0.04901">
        <ele>145</ele>
        <time>2022-08-20T06:49:28Z</time>
      </trkpt>
      <trkpt lat="43.75634" lon="-0.04919">
        <ele>145</ele>
        <time>2022-08-20T06:49:38Z</time>
      </trkpt>
      <trkpt lat="43.75637" lon="-0.04926">
        <ele>145</ele>
        <time>2022-08-20T06:49:42Z</time>
      </trkpt>
      <trkpt lat="43.7564" lon="-0.04975">
        <ele>145</ele>
        <time>2022-08-20T06:50:07Z</time>
      </trkpt>
      <trkpt lat="43.75643" lon="-0.04981">
        <ele>145</ele>
        <time>2022-08-20T06:50:12Z</time>
      </trkpt>
      <trkpt lat="43.75644" lon="-0.05007">
        <ele>145</ele>
        <time>2022-08-20T06:50:33Z</time>
      </trkpt>
      <trkpt lat="43.75648" lon="-0.05013">
        <ele>145</ele>
        <time>2022-08-20T06:50:41Z</time>
      </trkpt>
      <trkpt lat="43.75651" lon="-0.05027">
        <ele>145</ele>
        <time>2022-08-20T06:50:50Z</time>
      </trkpt>
      <trkpt lat="43.75652" lon="-0.05033">
        <ele>145</ele>
        <time>2022-08-20T06:50:54Z</time>
      </trkpt>
      <trkpt lat="43.75662" lon="-0.05082">
        <ele>146</ele>
        <time>2022-08-20T06:51:23Z</time>
      </trkpt>
      <trkpt lat="43.75665" lon="-0.05088">
        <ele>146</ele>
        <time>2022-08-20T06:51:27Z</time>
      </trkpt>
      <trkpt lat="43.75667" lon="-0.05101">
        <ele>146</ele>
        <time>2022-08-20T06:51:35Z</time>
      </trkpt>
      <trkpt lat="43.75666" lon="-0.05138">
        <ele>146</ele>
        <time>2022-08-20T06:51:55Z</time>
      </trkpt>
      <trkpt lat="43.75658" lon="-0.05159">
        <ele>147</ele>
        <time>2022-08-20T06:52:07Z</time>
      </trkpt>
      <trkpt lat="43.75655" lon="-0.05164">
        <ele>147</ele>
        <time>2022-08-20T06:52:10Z</time>
      </trkpt>
      <trkpt lat="43.75639" lon="-0.0522">
        <ele>148</ele>
        <time>2022-08-20T06:52:45Z</time>
      </trkpt>
      <trkpt lat="43.75628" lon="-0.05275">
        <ele>149</ele>
        <time>2022-08-20T06:53:17Z</time>
      </trkpt>
      <trkpt lat="43.75621" lon="-0.05332">
        <ele>150</ele>
        <time>2022-08-20T06:53:49Z</time>
      </trkpt>
      <trkpt lat="43.7562" lon="-0.05367">
        <ele>149</ele>
        <time>2022-08-20T06:54:09Z</time>
      </trkpt>
      <trkpt lat="43.75624" lon="-0.05389">
        <ele>149</ele>
        <time>2022-08-20T06:54:20Z</time>
      </trkpt>
      <trkpt lat="43.75623" lon="-0.05396">
        <ele>149</ele>
        <time>2022-08-20T06:54:24Z</time>
      </trkpt>
      <trkpt lat="43.75625" lon="-0.05416">
        <ele>149</ele>
        <time>2022-08-20T06:54:36Z</time>
      </trkpt>
      <trkpt lat="43.75631" lon="-0.05433">
        <ele>149</ele>
        <time>2022-08-20T06:54:47Z</time>
      </trkpt>
      <trkpt lat="43.75633" lon="-0.0544">
        <ele>148</ele>
        <time>2022-08-20T06:54:53Z</time>
      </trkpt>
      <trkpt lat="43.75635" lon="-0.05447">
        <ele>148</ele>
        <time>2022-08-20T06:54:57Z</time>
      </trkpt>
      <trkpt lat="43.75634" lon="-0.05453">
        <ele>148</ele>
        <time>2022-08-20T06:55:11Z</time>
      </trkpt>
      <trkpt lat="43.75638" lon="-0.05465">
        <ele>148</ele>
        <time>2022-08-20T06:55:40Z</time>
      </trkpt>
      <trkpt lat="43.75641" lon="-0.05474">
        <ele>148</ele>
        <time>2022-08-20T06:55:46Z</time>
      </trkpt>
      <trkpt lat="43.75644" lon="-0.05479">
        <ele>148</ele>
        <time>2022-08-20T06:55:50Z</time>
      </trkpt>
      <trkpt lat="43.75661" lon="-0.05528">
        <ele>147</ele>
        <time>2022-08-20T06:56:20Z</time>
      </trkpt>
      <trkpt lat="43.75663" lon="-0.05532">
        <ele>146</ele>
        <time>2022-08-20T06:56:24Z</time>
      </trkpt>
      <trkpt lat="43.75669" lon="-0.05552">
        <ele>145</ele>
        <time>2022-08-20T06:56:36Z</time>
      </trkpt>
      <trkpt lat="43.75669" lon="-0.05558">
        <ele>145</ele>
        <time>2022-08-20T06:56:39Z</time>
      </trkpt>
      <trkpt lat="43.75681" lon="-0.05589">
        <ele>143</ele>
        <time>2022-08-20T06:57:00Z</time>
      </trkpt>
      <trkpt lat="43.75684" lon="-0.05594">
        <ele>143</ele>
        <time>2022-08-20T06:57:04Z</time>
      </trkpt>
      <trkpt lat="43.75697" lon="-0.05631">
        <ele>143</ele>
        <time>2022-08-20T06:57:26Z</time>
      </trkpt>
      <trkpt lat="43.75698" lon="-0.05648">
        <ele>142</ele>
        <time>2022-08-20T06:57:35Z</time>
      </trkpt>
      <trkpt lat="43.75702" lon="-0.05662">
        <ele>142</ele>
        <time>2022-08-20T06:57:44Z</time>
      </trkpt>
      <trkpt lat="43.75707" lon="-0.05723">
        <ele>139</ele>
        <time>2022-08-20T06:58:18Z</time>
      </trkpt>
      <trkpt lat="43.75707" lon="-0.05731">
        <ele>139</ele>
        <time>2022-08-20T06:58:21Z</time>
      </trkpt>
      <trkpt lat="43.75716" lon="-0.05779">
        <ele>138</ele>
        <time>2022-08-20T06:58:49Z</time>
      </trkpt>
      <trkpt lat="43.75716" lon="-0.058">
        <ele>137</ele>
        <time>2022-08-20T06:59:01Z</time>
      </trkpt>
      <trkpt lat="43.75718" lon="-0.05806">
        <ele>137</ele>
        <time>2022-08-20T06:59:06Z</time>
      </trkpt>
      <trkpt lat="43.75725" lon="-0.0586">
        <ele>135</ele>
        <time>2022-08-20T06:59:37Z</time>
      </trkpt>
      <trkpt lat="43.75729" lon="-0.05892">
        <ele>133</ele>
        <time>2022-08-20T06:59:55Z</time>
      </trkpt>
      <trkpt lat="43.75738" lon="-0.05919">
        <ele>131</ele>
        <time>2022-08-20T07:00:12Z</time>
      </trkpt>
      <trkpt lat="43.75735" lon="-0.05953">
        <ele>129</ele>
        <time>2022-08-20T07:00:27Z</time>
      </trkpt>
      <trkpt lat="43.75736" lon="-0.05961">
        <ele>129</ele>
        <time>2022-08-20T07:00:31Z</time>
      </trkpt>
      <trkpt lat="43.75737" lon="-0.05968">
        <ele>129</ele>
        <time>2022-08-20T07:00:36Z</time>
      </trkpt>
      <trkpt lat="43.75736" lon="-0.05976">
        <ele>128</ele>
        <time>2022-08-20T07:00:40Z</time>
      </trkpt>
      <trkpt lat="43.75737" lon="-0.06034">
        <ele>129</ele>
        <time>2022-08-20T07:01:13Z</time>
      </trkpt>
      <trkpt lat="43.75736" lon="-0.06057">
        <ele>129</ele>
        <time>2022-08-20T07:01:31Z</time>
      </trkpt>
      <trkpt lat="43.75738" lon="-0.06064">
        <ele>129</ele>
        <time>2022-08-20T07:01:36Z</time>
      </trkpt>
      <trkpt lat="43.75736" lon="-0.06089">
        <ele>130</ele>
        <time>2022-08-20T07:01:50Z</time>
      </trkpt>
      <trkpt lat="43.75736" lon="-0.06113">
        <ele>128</ele>
        <time>2022-08-20T07:02:04Z</time>
      </trkpt>
      <trkpt lat="43.75735" lon="-0.06122">
        <ele>127</ele>
        <time>2022-08-20T07:02:08Z</time>
      </trkpt>
      <trkpt lat="43.75735" lon="-0.06129">
        <ele>126</ele>
        <time>2022-08-20T07:02:12Z</time>
      </trkpt>
      <trkpt lat="43.75737" lon="-0.06143">
        <ele>125</ele>
        <time>2022-08-20T07:02:20Z</time>
      </trkpt>
      <trkpt lat="43.75735" lon="-0.06181">
        <ele>121</ele>
        <time>2022-08-20T07:02:37Z</time>
      </trkpt>
      <trkpt lat="43.75733" lon="-0.06187">
        <ele>121</ele>
        <time>2022-08-20T07:02:40Z</time>
      </trkpt>
      <trkpt lat="43.75728" lon="-0.06244">
        <ele>117</ele>
        <time>2022-08-20T07:03:08Z</time>
      </trkpt>
      <trkpt lat="43.7573" lon="-0.06251">
        <ele>116</ele>
        <time>2022-08-20T07:03:13Z</time>
      </trkpt>
      <trkpt lat="43.7573" lon="-0.06258">
        <ele>116</ele>
        <time>2022-08-20T07:03:17Z</time>
      </trkpt>
      <trkpt lat="43.7574" lon="-0.06281">
        <ele>112</ele>
        <time>2022-08-20T07:03:40Z</time>
      </trkpt>
      <trkpt lat="43.7574" lon="-0.06288">
        <ele>111</ele>
        <time>2022-08-20T07:03:45Z</time>
      </trkpt>
      <trkpt lat="43.75739" lon="-0.06295">
        <ele>110</ele>
        <time>2022-08-20T07:03:49Z</time>
      </trkpt>
      <trkpt lat="43.75736" lon="-0.06304">
        <ele>108</ele>
        <time>2022-08-20T07:03:57Z</time>
      </trkpt>
      <trkpt lat="43.75735" lon="-0.06319">
        <ele>107</ele>
        <time>2022-08-20T07:04:08Z</time>
      </trkpt>
      <trkpt lat="43.75735" lon="-0.06327">
        <ele>106</ele>
        <time>2022-08-20T07:04:14Z</time>
      </trkpt>
      <trkpt lat="43.75748" lon="-0.06345">
        <ele>105</ele>
        <time>2022-08-20T07:04:30Z</time>
      </trkpt>
      <trkpt lat="43.75773" lon="-0.06343">
        <ele>104</ele>
        <time>2022-08-20T07:04:48Z</time>
      </trkpt>
      <trkpt lat="43.75779" lon="-0.06348">
        <ele>104</ele>
        <time>2022-08-20T07:04:53Z</time>
      </trkpt>
      <trkpt lat="43.75786" lon="-0.06348">
        <ele>104</ele>
        <time>2022-08-20T07:04:58Z</time>
      </trkpt>
      <trkpt lat="43.75804" lon="-0.06344">
        <ele>104</ele>
        <time>2022-08-20T07:05:12Z</time>
      </trkpt>
      <trkpt lat="43.75842" lon="-0.06357">
        <ele>105</ele>
        <time>2022-08-20T07:05:43Z</time>
      </trkpt>
      <trkpt lat="43.75856" lon="-0.06365">
        <ele>105</ele>
        <time>2022-08-20T07:05:58Z</time>
      </trkpt>
      <trkpt lat="43.75874" lon="-0.06367">
        <ele>106</ele>
        <time>2022-08-20T07:06:10Z</time>
      </trkpt>
      <trkpt lat="43.7588" lon="-0.06371">
        <ele>106</ele>
        <time>2022-08-20T07:06:15Z</time>
      </trkpt>
      <trkpt lat="43.75884" lon="-0.06376">
        <ele>106</ele>
        <time>2022-08-20T07:06:20Z</time>
      </trkpt>
      <trkpt lat="43.7589" lon="-0.06379">
        <ele>105</ele>
        <time>2022-08-20T07:06:24Z</time>
      </trkpt>
      <trkpt lat="43.75894" lon="-0.06384">
        <ele>105</ele>
        <time>2022-08-20T07:06:28Z</time>
      </trkpt>
      <trkpt lat="43.759" lon="-0.06386">
        <ele>105</ele>
        <time>2022-08-20T07:06:33Z</time>
      </trkpt>
      <trkpt lat="43.75905" lon="-0.0639">
        <ele>105</ele>
        <time>2022-08-20T07:06:38Z</time>
      </trkpt>
      <trkpt lat="43.75909" lon="-0.06395">
        <ele>104</ele>
        <time>2022-08-20T07:06:43Z</time>
      </trkpt>
      <trkpt lat="43.75918" lon="-0.06403">
        <ele>104</ele>
        <time>2022-08-20T07:06:50Z</time>
      </trkpt>
      <trkpt lat="43.75924" lon="-0.06405">
        <ele>104</ele>
        <time>2022-08-20T07:06:55Z</time>
      </trkpt>
      <trkpt lat="43.75929" lon="-0.0641">
        <ele>103</ele>
        <time>2022-08-20T07:07:00Z</time>
      </trkpt>
      <trkpt lat="43.75932" lon="-0.06418">
        <ele>103</ele>
        <time>2022-08-20T07:07:06Z</time>
      </trkpt>
      <trkpt lat="43.75937" lon="-0.06424">
        <ele>103</ele>
        <time>2022-08-20T07:07:10Z</time>
      </trkpt>
      <trkpt lat="43.75942" lon="-0.06424">
        <ele>103</ele>
        <time>2022-08-20T07:07:14Z</time>
      </trkpt>
      <trkpt lat="43.75972" lon="-0.0638">
        <ele>103</ele>
        <time>2022-08-20T07:07:46Z</time>
      </trkpt>
      <trkpt lat="43.75993" lon="-0.06355">
        <ele>104</ele>
        <time>2022-08-20T07:08:08Z</time>
      </trkpt>
      <trkpt lat="43.75998" lon="-0.0635">
        <ele>103</ele>
        <time>2022-08-20T07:08:12Z</time>
      </trkpt>
      <trkpt lat="43.76008" lon="-0.06347">
        <ele>104</ele>
        <time>2022-08-20T07:08:20Z</time>
      </trkpt>
      <trkpt lat="43.76031" lon="-0.06345">
        <ele>104</ele>
        <time>2022-08-20T07:08:39Z</time>
      </trkpt>
      <trkpt lat="43.7602" lon="-0.06402">
        <ele>104</ele>
        <time>2022-08-20T07:09:11Z</time>
      </trkpt>
      <trkpt lat="43.7601" lon="-0.06453">
        <ele>103</ele>
        <time>2022-08-20T07:09:42Z</time>
      </trkpt>
      <trkpt lat="43.76006" lon="-0.06481">
        <ele>103</ele>
        <time>2022-08-20T07:09:58Z</time>
      </trkpt>
      <trkpt lat="43.76001" lon="-0.06481">
        <ele>103</ele>
        <time>2022-08-20T07:10:31Z</time>
      </trkpt>
      <trkpt lat="43.76" lon="-0.06504">
        <ele>102</ele>
        <time>2022-08-20T07:10:49Z</time>
      </trkpt>
      <trkpt lat="43.75989" lon="-0.06531">
        <ele>102</ele>
        <time>2022-08-20T07:11:06Z</time>
      </trkpt>
      <trkpt lat="43.7596" lon="-0.06572">
        <ele>101</ele>
        <time>2022-08-20T07:11:38Z</time>
      </trkpt>
      <trkpt lat="43.75945" lon="-0.06602">
        <ele>102</ele>
        <time>2022-08-20T07:11:58Z</time>
      </trkpt>
      <trkpt lat="43.75938" lon="-0.06659">
        <ele>105</ele>
        <time>2022-08-20T07:12:31Z</time>
      </trkpt>
      <trkpt lat="43.75936" lon="-0.06672">
        <ele>106</ele>
        <time>2022-08-20T07:12:39Z</time>
      </trkpt>
      <trkpt lat="43.75938" lon="-0.0668">
        <ele>106</ele>
        <time>2022-08-20T07:12:43Z</time>
      </trkpt>
      <trkpt lat="43.75931" lon="-0.06735">
        <ele>110</ele>
        <time>2022-08-20T07:13:15Z</time>
      </trkpt>
      <trkpt lat="43.75931" lon="-0.06742">
        <ele>110</ele>
        <time>2022-08-20T07:13:19Z</time>
      </trkpt>
      <trkpt lat="43.75929" lon="-0.06757">
        <ele>111</ele>
        <time>2022-08-20T07:13:40Z</time>
      </trkpt>
      <trkpt lat="43.75927" lon="-0.06777">
        <ele>110</ele>
        <time>2022-08-20T07:13:52Z</time>
      </trkpt>
      <trkpt lat="43.75923" lon="-0.06826">
        <ele>106</ele>
        <time>2022-08-20T07:14:17Z</time>
      </trkpt>
      <trkpt lat="43.75921" lon="-0.06832">
        <ele>105</ele>
        <time>2022-08-20T07:14:20Z</time>
      </trkpt>
      <trkpt lat="43.75919" lon="-0.06852">
        <ele>104</ele>
        <time>2022-08-20T07:14:30Z</time>
      </trkpt>
      <trkpt lat="43.75923" lon="-0.06864">
        <ele>104</ele>
        <time>2022-08-20T07:14:39Z</time>
      </trkpt>
      <trkpt lat="43.75925" lon="-0.06871">
        <ele>104</ele>
        <time>2022-08-20T07:14:43Z</time>
      </trkpt>
      <trkpt lat="43.75926" lon="-0.06878">
        <ele>104</ele>
        <time>2022-08-20T07:14:48Z</time>
      </trkpt>
      <trkpt lat="43.75924" lon="-0.06885">
        <ele>104</ele>
        <time>2022-08-20T07:14:52Z</time>
      </trkpt>
      <trkpt lat="43.75917" lon="-0.06896">
        <ele>104</ele>
        <time>2022-08-20T07:15:00Z</time>
      </trkpt>
      <trkpt lat="43.75912" lon="-0.06899">
        <ele>105</ele>
        <time>2022-08-20T07:15:05Z</time>
      </trkpt>
      <trkpt lat="43.75888" lon="-0.06928">
        <ele>106</ele>
        <time>2022-08-20T07:15:30Z</time>
      </trkpt>
      <trkpt lat="43.75881" lon="-0.06948">
        <ele>108</ele>
        <time>2022-08-20T07:15:44Z</time>
      </trkpt>
      <trkpt lat="43.75878" lon="-0.06956">
        <ele>109</ele>
        <time>2022-08-20T07:15:50Z</time>
      </trkpt>
      <trkpt lat="43.75874" lon="-0.06996">
        <ele>113</ele>
        <time>2022-08-20T07:16:16Z</time>
      </trkpt>
      <trkpt lat="43.75875" lon="-0.07007">
        <ele>115</ele>
        <time>2022-08-20T07:16:39Z</time>
      </trkpt>
      <trkpt lat="43.75873" lon="-0.07016">
        <ele>116</ele>
        <time>2022-08-20T07:16:44Z</time>
      </trkpt>
      <trkpt lat="43.7587" lon="-0.0705">
        <ele>119</ele>
        <time>2022-08-20T07:17:11Z</time>
      </trkpt>
      <trkpt lat="43.75868" lon="-0.07058">
        <ele>119</ele>
        <time>2022-08-20T07:17:16Z</time>
      </trkpt>
      <trkpt lat="43.75864" lon="-0.07096">
        <ele>124</ele>
        <time>2022-08-20T07:17:49Z</time>
      </trkpt>
      <trkpt lat="43.75859" lon="-0.07143">
        <ele>128</ele>
        <time>2022-08-20T07:18:30Z</time>
      </trkpt>
      <trkpt lat="43.75858" lon="-0.0716">
        <ele>129</ele>
        <time>2022-08-20T07:18:43Z</time>
      </trkpt>
      <trkpt lat="43.75853" lon="-0.0717">
        <ele>130</ele>
        <time>2022-08-20T07:19:00Z</time>
      </trkpt>
      <trkpt lat="43.75854" lon="-0.07184">
        <ele>130</ele>
        <time>2022-08-20T07:19:10Z</time>
      </trkpt>
      <trkpt lat="43.75843" lon="-0.07218">
        <ele>132</ele>
        <time>2022-08-20T07:19:31Z</time>
      </trkpt>
      <trkpt lat="43.75842" lon="-0.07231">
        <ele>133</ele>
        <time>2022-08-20T07:19:38Z</time>
      </trkpt>
      <trkpt lat="43.75826" lon="-0.07281">
        <ele>135</ele>
        <time>2022-08-20T07:20:11Z</time>
      </trkpt>
      <trkpt lat="43.7581" lon="-0.07331">
        <ele>137</ele>
        <time>2022-08-20T07:20:43Z</time>
      </trkpt>
      <trkpt lat="43.75806" lon="-0.0735">
        <ele>138</ele>
        <time>2022-08-20T07:20:55Z</time>
      </trkpt>
      <trkpt lat="43.75806" lon="-0.07357">
        <ele>138</ele>
        <time>2022-08-20T07:20:59Z</time>
      </trkpt>
      <trkpt lat="43.75798" lon="-0.07384">
        <ele>139</ele>
        <time>2022-08-20T07:21:15Z</time>
      </trkpt>
      <trkpt lat="43.75797" lon="-0.0739">
        <ele>140</ele>
        <time>2022-08-20T07:21:25Z</time>
      </trkpt>
      <trkpt lat="43.75796" lon="-0.07398">
        <ele>141</ele>
        <time>2022-08-20T07:21:48Z</time>
      </trkpt>
      <trkpt lat="43.7578" lon="-0.07445">
        <ele>143</ele>
        <time>2022-08-20T07:22:21Z</time>
      </trkpt>
      <trkpt lat="43.75774" lon="-0.07463">
        <ele>144</ele>
        <time>2022-08-20T07:22:34Z</time>
      </trkpt>
      <trkpt lat="43.75772" lon="-0.07472">
        <ele>143</ele>
        <time>2022-08-20T07:22:46Z</time>
      </trkpt>
      <trkpt lat="43.75771" lon="-0.07478">
        <ele>143</ele>
        <time>2022-08-20T07:22:50Z</time>
      </trkpt>
      <trkpt lat="43.75775" lon="-0.07484">
        <ele>143</ele>
        <time>2022-08-20T07:22:55Z</time>
      </trkpt>
      <trkpt lat="43.75779" lon="-0.07488">
        <ele>143</ele>
        <time>2022-08-20T07:22:59Z</time>
      </trkpt>
      <trkpt lat="43.7579" lon="-0.07502">
        <ele>143</ele>
        <time>2022-08-20T07:23:11Z</time>
      </trkpt>
      <trkpt lat="43.75815" lon="-0.07538">
        <ele>142</ele>
        <time>2022-08-20T07:23:42Z</time>
      </trkpt>
      <trkpt lat="43.75832" lon="-0.07575">
        <ele>142</ele>
        <time>2022-08-20T07:24:05Z</time>
      </trkpt>
      <trkpt lat="43.75836" lon="-0.07595">
        <ele>142</ele>
        <time>2022-08-20T07:24:18Z</time>
      </trkpt>
      <trkpt lat="43.75836" lon="-0.07607">
        <ele>141</ele>
        <time>2022-08-20T07:24:26Z</time>
      </trkpt>
      <trkpt lat="43.75832" lon="-0.07627">
        <ele>140</ele>
        <time>2022-08-20T07:24:40Z</time>
      </trkpt>
      <trkpt lat="43.75832" lon="-0.07641">
        <ele>139</ele>
        <time>2022-08-20T07:24:48Z</time>
      </trkpt>
      <trkpt lat="43.75824" lon="-0.07693">
        <ele>135</ele>
        <time>2022-08-20T07:25:19Z</time>
      </trkpt>
      <trkpt lat="43.75822" lon="-0.07701">
        <ele>135</ele>
        <time>2022-08-20T07:25:23Z</time>
      </trkpt>
      <trkpt lat="43.75819" lon="-0.07707">
        <ele>134</ele>
        <time>2022-08-20T07:25:27Z</time>
      </trkpt>
      <trkpt lat="43.75818" lon="-0.07715">
        <ele>134</ele>
        <time>2022-08-20T07:25:32Z</time>
      </trkpt>
      <trkpt lat="43.75816" lon="-0.07721">
        <ele>134</ele>
        <time>2022-08-20T07:25:35Z</time>
      </trkpt>
      <trkpt lat="43.75812" lon="-0.07727">
        <ele>133</ele>
        <time>2022-08-20T07:25:39Z</time>
      </trkpt>
      <trkpt lat="43.75795" lon="-0.07784">
        <ele>131</ele>
        <time>2022-08-20T07:26:13Z</time>
      </trkpt>
      <trkpt lat="43.75789" lon="-0.07796">
        <ele>130</ele>
        <time>2022-08-20T07:26:22Z</time>
      </trkpt>
      <trkpt lat="43.75786" lon="-0.07805">
        <ele>130</ele>
        <time>2022-08-20T07:26:29Z</time>
      </trkpt>
      <trkpt lat="43.75781" lon="-0.07816">
        <ele>129</ele>
        <time>2022-08-20T07:26:37Z</time>
      </trkpt>
      <trkpt lat="43.75777" lon="-0.07828">
        <ele>128</ele>
        <time>2022-08-20T07:26:45Z</time>
      </trkpt>
      <trkpt lat="43.75765" lon="-0.07882">
        <ele>124</ele>
        <time>2022-08-20T07:27:17Z</time>
      </trkpt>
      <trkpt lat="43.75753" lon="-0.07935">
        <ele>119</ele>
        <time>2022-08-20T07:27:48Z</time>
      </trkpt>
      <trkpt lat="43.75741" lon="-0.07989">
        <ele>114</ele>
        <time>2022-08-20T07:28:20Z</time>
      </trkpt>
      <trkpt lat="43.75735" lon="-0.08023">
        <ele>111</ele>
        <time>2022-08-20T07:28:41Z</time>
      </trkpt>
      <trkpt lat="43.75736" lon="-0.08028">
        <ele>110</ele>
        <time>2022-08-20T07:29:04Z</time>
      </trkpt>
      <trkpt lat="43.75732" lon="-0.08044">
        <ele>110</ele>
        <time>2022-08-20T07:29:34Z</time>
      </trkpt>
      <trkpt lat="43.75725" lon="-0.08094">
        <ele>105</ele>
        <time>2022-08-20T07:30:04Z</time>
      </trkpt>
      <trkpt lat="43.75721" lon="-0.08151">
        <ele>99</ele>
        <time>2022-08-20T07:30:38Z</time>
      </trkpt>
      <trkpt lat="43.75725" lon="-0.08189">
        <ele>96</ele>
        <time>2022-08-20T07:31:00Z</time>
      </trkpt>
      <trkpt lat="43.7572" lon="-0.08217">
        <ele>95</ele>
        <time>2022-08-20T07:31:16Z</time>
      </trkpt>
      <trkpt lat="43.75708" lon="-0.08273">
        <ele>94</ele>
        <time>2022-08-20T07:31:49Z</time>
      </trkpt>
      <trkpt lat="43.75701" lon="-0.08315">
        <ele>93</ele>
        <time>2022-08-20T07:32:15Z</time>
      </trkpt>
      <trkpt lat="43.75697" lon="-0.08321">
        <ele>93</ele>
        <time>2022-08-20T07:32:19Z</time>
      </trkpt>
      <trkpt lat="43.75693" lon="-0.08321">
        <ele>93</ele>
        <time>2022-08-20T07:32:29Z</time>
      </trkpt>
      <trkpt lat="43.75687" lon="-0.08319">
        <ele>93</ele>
        <time>2022-08-20T07:32:33Z</time>
      </trkpt>
      <trkpt lat="43.75683" lon="-0.08319">
        <ele>93</ele>
        <time>2022-08-20T07:32:38Z</time>
      </trkpt>
      <trkpt lat="43.75642" lon="-0.08316">
        <ele>93</ele>
        <time>2022-08-20T07:33:10Z</time>
      </trkpt>
      <trkpt lat="43.75637" lon="-0.08316">
        <ele>93</ele>
        <time>2022-08-20T07:33:14Z</time>
      </trkpt>
      <trkpt lat="43.75616" lon="-0.08315">
        <ele>93</ele>
        <time>2022-08-20T07:33:30Z</time>
      </trkpt>
      <trkpt lat="43.75612" lon="-0.08314">
        <ele>93</ele>
        <time>2022-08-20T07:33:35Z</time>
      </trkpt>
      <trkpt lat="43.75607" lon="-0.08313">
        <ele>93</ele>
        <time>2022-08-20T07:33:39Z</time>
      </trkpt>
      <trkpt lat="43.75571" lon="-0.08286">
        <ele>94</ele>
        <time>2022-08-20T07:34:12Z</time>
      </trkpt>
      <trkpt lat="43.75565" lon="-0.08282">
        <ele>94</ele>
        <time>2022-08-20T07:34:16Z</time>
      </trkpt>
      <trkpt lat="43.75561" lon="-0.08278">
        <ele>94</ele>
        <time>2022-08-20T07:34:20Z</time>
      </trkpt>
      <trkpt lat="43.75523" lon="-0.0827">
        <ele>95</ele>
        <time>2022-08-20T07:34:52Z</time>
      </trkpt>
      <trkpt lat="43.75495" lon="-0.08264">
        <ele>96</ele>
        <time>2022-08-20T07:35:16Z</time>
      </trkpt>
      <trkpt lat="43.75489" lon="-0.08267">
        <ele>97</ele>
        <time>2022-08-20T07:35:21Z</time>
      </trkpt>
      <trkpt lat="43.75485" lon="-0.08274">
        <ele>97</ele>
        <time>2022-08-20T07:35:27Z</time>
      </trkpt>
      <trkpt lat="43.75483" lon="-0.08281">
        <ele>97</ele>
        <time>2022-08-20T07:35:31Z</time>
      </trkpt>
      <trkpt lat="43.75473" lon="-0.08291">
        <ele>97</ele>
        <time>2022-08-20T07:35:41Z</time>
      </trkpt>
      <trkpt lat="43.75449" lon="-0.08306">
        <ele>97</ele>
        <time>2022-08-20T07:36:02Z</time>
      </trkpt>
      <trkpt lat="43.7543" lon="-0.08313">
        <ele>96</ele>
        <time>2022-08-20T07:36:18Z</time>
      </trkpt>
      <trkpt lat="43.75415" lon="-0.08323">
        <ele>96</ele>
        <time>2022-08-20T07:36:30Z</time>
      </trkpt>
      <trkpt lat="43.75405" lon="-0.08327">
        <ele>96</ele>
        <time>2022-08-20T07:36:39Z</time>
      </trkpt>
      <trkpt lat="43.75395" lon="-0.08333">
        <ele>95</ele>
        <time>2022-08-20T07:36:47Z</time>
      </trkpt>
      <trkpt lat="43.7539" lon="-0.08335">
        <ele>95</ele>
        <time>2022-08-20T07:36:52Z</time>
      </trkpt>
      <trkpt lat="43.75352" lon="-0.08354">
        <ele>95</ele>
        <time>2022-08-20T07:37:24Z</time>
      </trkpt>
      <trkpt lat="43.75324" lon="-0.08366">
        <ele>95</ele>
        <time>2022-08-20T07:37:50Z</time>
      </trkpt>
      <trkpt lat="43.7532" lon="-0.08368">
        <ele>95</ele>
        <time>2022-08-20T07:37:54Z</time>
      </trkpt>
      <trkpt lat="43.75311" lon="-0.08374">
        <ele>95</ele>
        <time>2022-08-20T07:38:02Z</time>
      </trkpt>
      <trkpt lat="43.75273" lon="-0.08393">
        <ele>95</ele>
        <time>2022-08-20T07:38:34Z</time>
      </trkpt>
      <trkpt lat="43.75235" lon="-0.08412">
        <ele>95</ele>
        <time>2022-08-20T07:39:07Z</time>
      </trkpt>
      <trkpt lat="43.75226" lon="-0.08416">
        <ele>95</ele>
        <time>2022-08-20T07:39:15Z</time>
      </trkpt>
      <trkpt lat="43.75208" lon="-0.08427">
        <ele>95</ele>
        <time>2022-08-20T07:39:31Z</time>
      </trkpt>
      <trkpt lat="43.75203" lon="-0.08428">
        <ele>95</ele>
        <time>2022-08-20T07:39:35Z</time>
      </trkpt>
      <trkpt lat="43.75189" lon="-0.08437">
        <ele>95</ele>
        <time>2022-08-20T07:39:47Z</time>
      </trkpt>
      <trkpt lat="43.75151" lon="-0.08455">
        <ele>95</ele>
        <time>2022-08-20T07:40:20Z</time>
      </trkpt>
      <trkpt lat="43.75112" lon="-0.08473">
        <ele>95</ele>
        <time>2022-08-20T07:40:53Z</time>
      </trkpt>
      <trkpt lat="43.75087" lon="-0.08485">
        <ele>95</ele>
        <time>2022-08-20T07:41:16Z</time>
      </trkpt>
      <trkpt lat="43.75081" lon="-0.08486">
        <ele>95</ele>
        <time>2022-08-20T07:41:21Z</time>
      </trkpt>
      <trkpt lat="43.75072" lon="-0.08492">
        <ele>96</ele>
        <time>2022-08-20T07:41:28Z</time>
      </trkpt>
      <trkpt lat="43.75071" lon="-0.085">
        <ele>96</ele>
        <time>2022-08-20T07:41:33Z</time>
      </trkpt>
      <trkpt lat="43.75074" lon="-0.08544">
        <ele>96</ele>
        <time>2022-08-20T07:41:59Z</time>
      </trkpt>
      <trkpt lat="43.75074" lon="-0.08575">
        <ele>96</ele>
        <time>2022-08-20T07:42:15Z</time>
      </trkpt>
      <trkpt lat="43.75078" lon="-0.08627">
        <ele>96</ele>
        <time>2022-08-20T07:42:46Z</time>
      </trkpt>
      <trkpt lat="43.75078" lon="-0.08659">
        <ele>95</ele>
        <time>2022-08-20T07:43:35Z</time>
      </trkpt>
      <trkpt lat="43.7508" lon="-0.08715">
        <ele>95</ele>
        <time>2022-08-20T07:44:07Z</time>
      </trkpt>
      <trkpt lat="43.7508" lon="-0.08722">
        <ele>95</ele>
        <time>2022-08-20T07:44:12Z</time>
      </trkpt>
      <trkpt lat="43.75071" lon="-0.08731">
        <ele>95</ele>
        <time>2022-08-20T07:44:22Z</time>
      </trkpt>
      <trkpt lat="43.75066" lon="-0.08732">
        <ele>95</ele>
        <time>2022-08-20T07:44:25Z</time>
      </trkpt>
      <trkpt lat="43.75066" lon="-0.08739">
        <ele>95</ele>
        <time>2022-08-20T07:44:29Z</time>
      </trkpt>
      <trkpt lat="43.75066" lon="-0.08746">
        <ele>95</ele>
        <time>2022-08-20T07:44:33Z</time>
      </trkpt>
      <trkpt lat="43.75067" lon="-0.08761">
        <ele>95</ele>
        <time>2022-08-20T07:44:40Z</time>
      </trkpt>
      <trkpt lat="43.75067" lon="-0.08768">
        <ele>96</ele>
        <time>2022-08-20T07:44:44Z</time>
      </trkpt>
      <trkpt lat="43.7507" lon="-0.08821">
        <ele>97</ele>
        <time>2022-08-20T07:45:28Z</time>
      </trkpt>
      <trkpt lat="43.75069" lon="-0.0883">
        <ele>97</ele>
        <time>2022-08-20T07:45:39Z</time>
      </trkpt>
      <trkpt lat="43.75071" lon="-0.08867">
        <ele>98</ele>
        <time>2022-08-20T07:46:11Z</time>
      </trkpt>
      <trkpt lat="43.75071" lon="-0.08922">
        <ele>98</ele>
        <time>2022-08-20T07:46:42Z</time>
      </trkpt>
      <trkpt lat="43.75072" lon="-0.08977">
        <ele>99</ele>
        <time>2022-08-20T07:47:15Z</time>
      </trkpt>
      <trkpt lat="43.75072" lon="-0.08991">
        <ele>100</ele>
        <time>2022-08-20T07:47:24Z</time>
      </trkpt>
      <trkpt lat="43.75073" lon="-0.09004">
        <ele>101</ele>
        <time>2022-08-20T07:47:33Z</time>
      </trkpt>
      <trkpt lat="43.75073" lon="-0.09012">
        <ele>101</ele>
        <time>2022-08-20T07:47:37Z</time>
      </trkpt>
      <trkpt lat="43.75075" lon="-0.09019">
        <ele>101</ele>
        <time>2022-08-20T07:47:42Z</time>
      </trkpt>
      <trkpt lat="43.75072" lon="-0.09028">
        <ele>101</ele>
        <time>2022-08-20T07:47:49Z</time>
      </trkpt>
      <trkpt lat="43.75072" lon="-0.09079">
        <ele>102</ele>
        <time>2022-08-20T07:48:20Z</time>
      </trkpt>
      <trkpt lat="43.75074" lon="-0.09086">
        <ele>102</ele>
        <time>2022-08-20T07:48:24Z</time>
      </trkpt>
      <trkpt lat="43.75072" lon="-0.09114">
        <ele>102</ele>
        <time>2022-08-20T07:48:41Z</time>
      </trkpt>
      <trkpt lat="43.7507" lon="-0.09128">
        <ele>102</ele>
        <time>2022-08-20T07:48:50Z</time>
      </trkpt>
      <trkpt lat="43.75057" lon="-0.0915">
        <ele>102</ele>
        <time>2022-08-20T07:49:03Z</time>
      </trkpt>
      <trkpt lat="43.75056" lon="-0.09156">
        <ele>103</ele>
        <time>2022-08-20T07:49:08Z</time>
      </trkpt>
      <trkpt lat="43.75056" lon="-0.09163">
        <ele>103</ele>
        <time>2022-08-20T07:49:12Z</time>
      </trkpt>
      <trkpt lat="43.75056" lon="-0.09176">
        <ele>104</ele>
        <time>2022-08-20T07:49:20Z</time>
      </trkpt>
      <trkpt lat="43.75059" lon="-0.09183">
        <ele>103</ele>
        <time>2022-08-20T07:49:26Z</time>
      </trkpt>
      <trkpt lat="43.75066" lon="-0.09192">
        <ele>103</ele>
        <time>2022-08-20T07:49:35Z</time>
      </trkpt>
      <trkpt lat="43.7507" lon="-0.09199">
        <ele>103</ele>
        <time>2022-08-20T07:49:39Z</time>
      </trkpt>
      <trkpt lat="43.75071" lon="-0.09205">
        <ele>103</ele>
        <time>2022-08-20T07:49:44Z</time>
      </trkpt>
      <trkpt lat="43.75071" lon="-0.09235">
        <ele>104</ele>
        <time>2022-08-20T07:50:02Z</time>
      </trkpt>
      <trkpt lat="43.7507" lon="-0.09242">
        <ele>104</ele>
        <time>2022-08-20T07:50:06Z</time>
      </trkpt>
      <trkpt lat="43.7507" lon="-0.09301">
        <ele>105</ele>
        <time>2022-08-20T07:50:38Z</time>
      </trkpt>
      <trkpt lat="43.75069" lon="-0.09316">
        <ele>106</ele>
        <time>2022-08-20T07:50:46Z</time>
      </trkpt>
      <trkpt lat="43.75067" lon="-0.09326">
        <ele>106</ele>
        <time>2022-08-20T07:50:52Z</time>
      </trkpt>
      <trkpt lat="43.75071" lon="-0.09376">
        <ele>107</ele>
        <time>2022-08-20T07:51:21Z</time>
      </trkpt>
      <trkpt lat="43.75069" lon="-0.09404">
        <ele>109</ele>
        <time>2022-08-20T07:51:39Z</time>
      </trkpt>
      <trkpt lat="43.7507" lon="-0.09413">
        <ele>109</ele>
        <time>2022-08-20T07:51:45Z</time>
      </trkpt>
      <trkpt lat="43.75071" lon="-0.0942">
        <ele>109</ele>
        <time>2022-08-20T07:51:49Z</time>
      </trkpt>
      <trkpt lat="43.75069" lon="-0.09426">
        <ele>109</ele>
        <time>2022-08-20T07:51:53Z</time>
      </trkpt>
      <trkpt lat="43.75063" lon="-0.09429">
        <ele>109</ele>
        <time>2022-08-20T07:52:01Z</time>
      </trkpt>
      <trkpt lat="43.75026" lon="-0.09419">
        <ele>109</ele>
        <time>2022-08-20T07:52:30Z</time>
      </trkpt>
      <trkpt lat="43.75015" lon="-0.09413">
        <ele>109</ele>
        <time>2022-08-20T07:52:38Z</time>
      </trkpt>
      <trkpt lat="43.74979" lon="-0.09405">
        <ele>109</ele>
        <time>2022-08-20T07:53:09Z</time>
      </trkpt>
      <trkpt lat="43.74938" lon="-0.09393">
        <ele>108</ele>
        <time>2022-08-20T07:53:42Z</time>
      </trkpt>
      <trkpt lat="43.74933" lon="-0.0939">
        <ele>108</ele>
        <time>2022-08-20T07:53:46Z</time>
      </trkpt>
      <trkpt lat="43.74928" lon="-0.0939">
        <ele>109</ele>
        <time>2022-08-20T07:53:50Z</time>
      </trkpt>
      <trkpt lat="43.74901" lon="-0.0938">
        <ele>109</ele>
        <time>2022-08-20T07:54:12Z</time>
      </trkpt>
      <trkpt lat="43.74859" lon="-0.09368">
        <ele>108</ele>
        <time>2022-08-20T07:54:46Z</time>
      </trkpt>
      <trkpt lat="43.74818" lon="-0.09356">
        <ele>108</ele>
        <time>2022-08-20T07:55:20Z</time>
      </trkpt>
      <trkpt lat="43.74813" lon="-0.09354">
        <ele>108</ele>
        <time>2022-08-20T07:55:23Z</time>
      </trkpt>
      <trkpt lat="43.74797" lon="-0.09352">
        <ele>107</ele>
        <time>2022-08-20T07:55:37Z</time>
      </trkpt>
      <trkpt lat="43.74754" lon="-0.09338">
        <ele>105</ele>
        <time>2022-08-20T07:56:15Z</time>
      </trkpt>
      <trkpt lat="43.74714" lon="-0.09327">
        <ele>104</ele>
        <time>2022-08-20T07:56:48Z</time>
      </trkpt>
      <trkpt lat="43.74709" lon="-0.09328">
        <ele>104</ele>
        <time>2022-08-20T07:56:51Z</time>
      </trkpt>
      <trkpt lat="43.74699" lon="-0.09331">
        <ele>104</ele>
        <time>2022-08-20T07:57:01Z</time>
      </trkpt>
      <trkpt lat="43.74694" lon="-0.09331">
        <ele>104</ele>
        <time>2022-08-20T07:57:05Z</time>
      </trkpt>
      <trkpt lat="43.74677" lon="-0.09339">
        <ele>104</ele>
        <time>2022-08-20T07:57:19Z</time>
      </trkpt>
      <trkpt lat="43.74665" lon="-0.09342">
        <ele>104</ele>
        <time>2022-08-20T07:57:27Z</time>
      </trkpt>
      <trkpt lat="43.74643" lon="-0.09354">
        <ele>103</ele>
        <time>2022-08-20T07:57:47Z</time>
      </trkpt>
      <trkpt lat="43.74638" lon="-0.09359">
        <ele>103</ele>
        <time>2022-08-20T07:57:52Z</time>
      </trkpt>
      <trkpt lat="43.74635" lon="-0.09364">
        <ele>102</ele>
        <time>2022-08-20T07:57:56Z</time>
      </trkpt>
      <trkpt lat="43.74629" lon="-0.09379">
        <ele>101</ele>
        <time>2022-08-20T07:58:07Z</time>
      </trkpt>
      <trkpt lat="43.74621" lon="-0.09389">
        <ele>101</ele>
        <time>2022-08-20T07:58:15Z</time>
      </trkpt>
      <trkpt lat="43.74614" lon="-0.09401">
        <ele>101</ele>
        <time>2022-08-20T07:58:24Z</time>
      </trkpt>
      <trkpt lat="43.74597" lon="-0.09419">
        <ele>100</ele>
        <time>2022-08-20T07:58:41Z</time>
      </trkpt>
      <trkpt lat="43.74587" lon="-0.09422">
        <ele>100</ele>
        <time>2022-08-20T07:58:48Z</time>
      </trkpt>
      <trkpt lat="43.74576" lon="-0.094">
        <ele>100</ele>
        <time>2022-08-20T07:59:07Z</time>
      </trkpt>
      <trkpt lat="43.74574" lon="-0.09385">
        <ele>100</ele>
        <time>2022-08-20T07:59:17Z</time>
      </trkpt>
      <trkpt lat="43.74562" lon="-0.09349">
        <ele>100</ele>
        <time>2022-08-20T07:59:36Z</time>
      </trkpt>
      <trkpt lat="43.74551" lon="-0.09295">
        <ele>100</ele>
        <time>2022-08-20T08:00:10Z</time>
      </trkpt>
      <trkpt lat="43.74547" lon="-0.09283">
        <ele>100</ele>
        <time>2022-08-20T08:00:18Z</time>
      </trkpt>
      <trkpt lat="43.74543" lon="-0.09274">
        <ele>100</ele>
        <time>2022-08-20T08:00:25Z</time>
      </trkpt>
      <trkpt lat="43.7454" lon="-0.09268">
        <ele>100</ele>
        <time>2022-08-20T08:00:29Z</time>
      </trkpt>
      <trkpt lat="43.74515" lon="-0.09227">
        <ele>99</ele>
        <time>2022-08-20T08:01:00Z</time>
      </trkpt>
      <trkpt lat="43.74506" lon="-0.09212">
        <ele>99</ele>
        <time>2022-08-20T08:01:12Z</time>
      </trkpt>
      <trkpt lat="43.74493" lon="-0.092">
        <ele>99</ele>
        <time>2022-08-20T08:01:24Z</time>
      </trkpt>
      <trkpt lat="43.74488" lon="-0.09198">
        <ele>99</ele>
        <time>2022-08-20T08:01:28Z</time>
      </trkpt>
      <trkpt lat="43.7448" lon="-0.09199">
        <ele>98</ele>
        <time>2022-08-20T08:01:37Z</time>
      </trkpt>
      <trkpt lat="43.74477" lon="-0.09206">
        <ele>98</ele>
        <time>2022-08-20T08:01:42Z</time>
      </trkpt>
      <trkpt lat="43.74465" lon="-0.09258">
        <ele>99</ele>
        <time>2022-08-20T08:02:15Z</time>
      </trkpt>
      <trkpt lat="43.74462" lon="-0.09271">
        <ele>99</ele>
        <time>2022-08-20T08:02:23Z</time>
      </trkpt>
      <trkpt lat="43.74459" lon="-0.09276">
        <ele>100</ele>
        <time>2022-08-20T08:02:28Z</time>
      </trkpt>
      <trkpt lat="43.74454" lon="-0.09279">
        <ele>100</ele>
        <time>2022-08-20T08:02:32Z</time>
      </trkpt>
      <trkpt lat="43.74449" lon="-0.09277">
        <ele>100</ele>
        <time>2022-08-20T08:02:37Z</time>
      </trkpt>
      <trkpt lat="43.74444" lon="-0.09272">
        <ele>100</ele>
        <time>2022-08-20T08:02:42Z</time>
      </trkpt>
      <trkpt lat="43.74415" lon="-0.09235">
        <ele>101</ele>
        <time>2022-08-20T08:03:15Z</time>
      </trkpt>
      <trkpt lat="43.74407" lon="-0.09226">
        <ele>100</ele>
        <time>2022-08-20T08:03:23Z</time>
      </trkpt>
      <trkpt lat="43.74402" lon="-0.09221">
        <ele>101</ele>
        <time>2022-08-20T08:03:28Z</time>
      </trkpt>
      <trkpt lat="43.74376" lon="-0.09188">
        <ele>100</ele>
        <time>2022-08-20T08:04:01Z</time>
      </trkpt>
      <trkpt lat="43.74351" lon="-0.09156">
        <ele>100</ele>
        <time>2022-08-20T08:04:30Z</time>
      </trkpt>
      <trkpt lat="43.74342" lon="-0.09148">
        <ele>100</ele>
        <time>2022-08-20T08:04:39Z</time>
      </trkpt>
      <trkpt lat="43.74336" lon="-0.09146">
        <ele>100</ele>
        <time>2022-08-20T08:04:44Z</time>
      </trkpt>
      <trkpt lat="43.74331" lon="-0.09149">
        <ele>100</ele>
        <time>2022-08-20T08:04:48Z</time>
      </trkpt>
      <trkpt lat="43.74326" lon="-0.09156">
        <ele>100</ele>
        <time>2022-08-20T08:04:58Z</time>
      </trkpt>
      <trkpt lat="43.74323" lon="-0.09162">
        <ele>100</ele>
        <time>2022-08-20T08:05:02Z</time>
      </trkpt>
      <trkpt lat="43.74321" lon="-0.09183">
        <ele>101</ele>
        <time>2022-08-20T08:05:17Z</time>
      </trkpt>
      <trkpt lat="43.74313" lon="-0.09214">
        <ele>102</ele>
        <time>2022-08-20T08:05:48Z</time>
      </trkpt>
      <trkpt lat="43.74307" lon="-0.09233">
        <ele>102</ele>
        <time>2022-08-20T08:05:59Z</time>
      </trkpt>
      <trkpt lat="43.74302" lon="-0.09244">
        <ele>102</ele>
        <time>2022-08-20T08:06:06Z</time>
      </trkpt>
      <trkpt lat="43.74288" lon="-0.09292">
        <ele>103</ele>
        <time>2022-08-20T08:06:40Z</time>
      </trkpt>
      <trkpt lat="43.74282" lon="-0.09322">
        <ele>104</ele>
        <time>2022-08-20T08:06:58Z</time>
      </trkpt>
      <trkpt lat="43.74278" lon="-0.09363">
        <ele>105</ele>
        <time>2022-08-20T08:07:23Z</time>
      </trkpt>
      <trkpt lat="43.74261" lon="-0.09416">
        <ele>106</ele>
        <time>2022-08-20T08:07:56Z</time>
      </trkpt>
      <trkpt lat="43.74246" lon="-0.09447">
        <ele>106</ele>
        <time>2022-08-20T08:08:15Z</time>
      </trkpt>
      <trkpt lat="43.74228" lon="-0.09497">
        <ele>107</ele>
        <time>2022-08-20T08:08:48Z</time>
      </trkpt>
      <trkpt lat="43.7422" lon="-0.09519">
        <ele>108</ele>
        <time>2022-08-20T08:09:04Z</time>
      </trkpt>
      <trkpt lat="43.74208" lon="-0.09541">
        <ele>109</ele>
        <time>2022-08-20T08:09:20Z</time>
      </trkpt>
      <trkpt lat="43.742" lon="-0.09549">
        <ele>110</ele>
        <time>2022-08-20T08:09:28Z</time>
      </trkpt>
      <trkpt lat="43.74197" lon="-0.09555">
        <ele>110</ele>
        <time>2022-08-20T08:09:33Z</time>
      </trkpt>
      <trkpt lat="43.74175" lon="-0.09582">
        <ele>112</ele>
        <time>2022-08-20T08:09:58Z</time>
      </trkpt>
      <trkpt lat="43.74171" lon="-0.09588">
        <ele>112</ele>
        <time>2022-08-20T08:10:03Z</time>
      </trkpt>
      <trkpt lat="43.74169" lon="-0.09594">
        <ele>112</ele>
        <time>2022-08-20T08:10:06Z</time>
      </trkpt>
      <trkpt lat="43.74168" lon="-0.096">
        <ele>112</ele>
        <time>2022-08-20T08:10:11Z</time>
      </trkpt>
      <trkpt lat="43.74165" lon="-0.09609">
        <ele>113</ele>
        <time>2022-08-20T08:10:29Z</time>
      </trkpt>
      <trkpt lat="43.74168" lon="-0.09614">
        <ele>113</ele>
        <time>2022-08-20T08:10:33Z</time>
      </trkpt>
      <trkpt lat="43.74172" lon="-0.09621">
        <ele>113</ele>
        <time>2022-08-20T08:10:38Z</time>
      </trkpt>
      <trkpt lat="43.74174" lon="-0.09629">
        <ele>113</ele>
        <time>2022-08-20T08:10:43Z</time>
      </trkpt>
      <trkpt lat="43.74176" lon="-0.09635">
        <ele>114</ele>
        <time>2022-08-20T08:10:48Z</time>
      </trkpt>
      <trkpt lat="43.74175" lon="-0.09651">
        <ele>114</ele>
        <time>2022-08-20T08:10:58Z</time>
      </trkpt>
      <trkpt lat="43.7417" lon="-0.09665">
        <ele>115</ele>
        <time>2022-08-20T08:11:08Z</time>
      </trkpt>
      <trkpt lat="43.74161" lon="-0.09684">
        <ele>116</ele>
        <time>2022-08-20T08:11:23Z</time>
      </trkpt>
      <trkpt lat="43.74159" lon="-0.09692">
        <ele>117</ele>
        <time>2022-08-20T08:11:30Z</time>
      </trkpt>
      <trkpt lat="43.74157" lon="-0.09714">
        <ele>118</ele>
        <time>2022-08-20T08:11:45Z</time>
      </trkpt>
      <trkpt lat="43.74159" lon="-0.09724">
        <ele>118</ele>
        <time>2022-08-20T08:11:52Z</time>
      </trkpt>
      <trkpt lat="43.74164" lon="-0.09739">
        <ele>119</ele>
        <time>2022-08-20T08:12:02Z</time>
      </trkpt>
      <trkpt lat="43.74166" lon="-0.09748">
        <ele>120</ele>
        <time>2022-08-20T08:12:09Z</time>
      </trkpt>
      <trkpt lat="43.74174" lon="-0.09777">
        <ele>120</ele>
        <time>2022-08-20T08:12:33Z</time>
      </trkpt>
      <trkpt lat="43.7417" lon="-0.09812">
        <ele>122</ele>
        <time>2022-08-20T08:12:55Z</time>
      </trkpt>
      <trkpt lat="43.74168" lon="-0.0982">
        <ele>122</ele>
        <time>2022-08-20T08:12:59Z</time>
      </trkpt>
      <trkpt lat="43.74164" lon="-0.09866">
        <ele>124</ele>
        <time>2022-08-20T08:13:32Z</time>
      </trkpt>
      <trkpt lat="43.74168" lon="-0.09895">
        <ele>126</ele>
        <time>2022-08-20T08:13:52Z</time>
      </trkpt>
      <trkpt lat="43.7417" lon="-0.09904">
        <ele>126</ele>
        <time>2022-08-20T08:13:59Z</time>
      </trkpt>
      <trkpt lat="43.74175" lon="-0.09912">
        <ele>127</ele>
        <time>2022-08-20T08:14:05Z</time>
      </trkpt>
      <trkpt lat="43.74177" lon="-0.09928">
        <ele>128</ele>
        <time>2022-08-20T08:14:18Z</time>
      </trkpt>
      <trkpt lat="43.74183" lon="-0.09948">
        <ele>130</ele>
        <time>2022-08-20T08:14:49Z</time>
      </trkpt>
      <trkpt lat="43.74188" lon="-0.09963">
        <ele>131</ele>
        <time>2022-08-20T08:15:01Z</time>
      </trkpt>
      <trkpt lat="43.74186" lon="-0.0997">
        <ele>131</ele>
        <time>2022-08-20T08:15:08Z</time>
      </trkpt>
      <trkpt lat="43.74185" lon="-0.09968">
        <ele>130</ele>
        <time>2022-08-20T08:18:00Z</time>
      </trkpt>
      <trkpt lat="43.74189" lon="-0.09963">
        <ele>130</ele>
        <time>2022-08-20T08:18:06Z</time>
      </trkpt>
      <trkpt lat="43.74193" lon="-0.09967">
        <ele>131</ele>
        <time>2022-08-20T08:18:10Z</time>
      </trkpt>
      <trkpt lat="43.74212" lon="-0.09996">
        <ele>131</ele>
        <time>2022-08-20T08:18:33Z</time>
      </trkpt>
      <trkpt lat="43.74217" lon="-0.10006">
        <ele>131</ele>
        <time>2022-08-20T08:18:42Z</time>
      </trkpt>
      <trkpt lat="43.7422" lon="-0.10018">
        <ele>130</ele>
        <time>2022-08-20T08:18:54Z</time>
      </trkpt>
      <trkpt lat="43.7425" lon="-0.10053">
        <ele>128</ele>
        <time>2022-08-20T08:19:27Z</time>
      </trkpt>
      <trkpt lat="43.74254" lon="-0.10061">
        <ele>128</ele>
        <time>2022-08-20T08:19:33Z</time>
      </trkpt>
      <trkpt lat="43.74264" lon="-0.10093">
        <ele>129</ele>
        <time>2022-08-20T08:19:52Z</time>
      </trkpt>
      <trkpt lat="43.74269" lon="-0.10099">
        <ele>129</ele>
        <time>2022-08-20T08:20:08Z</time>
      </trkpt>
      <trkpt lat="43.74272" lon="-0.10108">
        <ele>129</ele>
        <time>2022-08-20T08:20:14Z</time>
      </trkpt>
      <trkpt lat="43.74288" lon="-0.10134">
        <ele>130</ele>
        <time>2022-08-20T08:20:35Z</time>
      </trkpt>
      <trkpt lat="43.74293" lon="-0.10139">
        <ele>130</ele>
        <time>2022-08-20T08:20:39Z</time>
      </trkpt>
      <trkpt lat="43.74316" lon="-0.10178">
        <ele>130</ele>
        <time>2022-08-20T08:21:09Z</time>
      </trkpt>
      <trkpt lat="43.74336" lon="-0.10207">
        <ele>131</ele>
        <time>2022-08-20T08:21:30Z</time>
      </trkpt>
      <trkpt lat="43.74337" lon="-0.10221">
        <ele>132</ele>
        <time>2022-08-20T08:21:40Z</time>
      </trkpt>
      <trkpt lat="43.74327" lon="-0.10262">
        <ele>132</ele>
        <time>2022-08-20T08:22:05Z</time>
      </trkpt>
      <trkpt lat="43.74306" lon="-0.10305">
        <ele>133</ele>
        <time>2022-08-20T08:22:37Z</time>
      </trkpt>
      <trkpt lat="43.74298" lon="-0.10318">
        <ele>134</ele>
        <time>2022-08-20T08:22:46Z</time>
      </trkpt>
      <trkpt lat="43.74298" lon="-0.10325">
        <ele>134</ele>
        <time>2022-08-20T08:22:57Z</time>
      </trkpt>
      <trkpt lat="43.74295" lon="-0.10331">
        <ele>134</ele>
        <time>2022-08-20T08:23:04Z</time>
      </trkpt>
      <trkpt lat="43.74286" lon="-0.1036">
        <ele>134</ele>
        <time>2022-08-20T08:23:27Z</time>
      </trkpt>
      <trkpt lat="43.7429" lon="-0.10368">
        <ele>134</ele>
        <time>2022-08-20T08:23:34Z</time>
      </trkpt>
      <trkpt lat="43.74297" lon="-0.10365">
        <ele>134</ele>
        <time>2022-08-20T08:23:48Z</time>
      </trkpt>
      <trkpt lat="43.74301" lon="-0.1036">
        <ele>134</ele>
        <time>2022-08-20T08:23:52Z</time>
      </trkpt>
      <trkpt lat="43.74309" lon="-0.10357">
        <ele>134</ele>
        <time>2022-08-20T08:23:58Z</time>
      </trkpt>
      <trkpt lat="43.74314" lon="-0.10354">
        <ele>134</ele>
        <time>2022-08-20T08:24:08Z</time>
      </trkpt>
      <trkpt lat="43.7432" lon="-0.10353">
        <ele>134</ele>
        <time>2022-08-20T08:24:14Z</time>
      </trkpt>
      <trkpt lat="43.74321" lon="-0.10353">
        <ele>133</ele>
        <time>2022-08-20T08:38:19Z</time>
      </trkpt>
      <trkpt lat="43.74319" lon="-0.1035">
        <ele>133</ele>
        <time>2022-08-20T08:46:48Z</time>
      </trkpt>
      <trkpt lat="43.74319" lon="-0.10351">
        <ele>133</ele>
        <time>2022-08-20T08:49:27Z</time>
      </trkpt>
      <trkpt lat="43.74316" lon="-0.10354">
        <ele>132</ele>
        <time>2022-08-20T08:50:53Z</time>
      </trkpt>
      <trkpt lat="43.74309" lon="-0.10356">
        <ele>132</ele>
        <time>2022-08-20T08:51:00Z</time>
      </trkpt>
      <trkpt lat="43.74305" lon="-0.1036">
        <ele>132</ele>
        <time>2022-08-20T08:51:05Z</time>
      </trkpt>
      <trkpt lat="43.74296" lon="-0.10365">
        <ele>132</ele>
        <time>2022-08-20T08:51:25Z</time>
      </trkpt>
      <trkpt lat="43.74291" lon="-0.10371">
        <ele>132</ele>
        <time>2022-08-20T08:51:33Z</time>
      </trkpt>
      <trkpt lat="43.74278" lon="-0.10383">
        <ele>132</ele>
        <time>2022-08-20T08:51:47Z</time>
      </trkpt>
      <trkpt lat="43.74274" lon="-0.10391">
        <ele>132</ele>
        <time>2022-08-20T08:51:55Z</time>
      </trkpt>
      <trkpt lat="43.74277" lon="-0.10398">
        <ele>132</ele>
        <time>2022-08-20T08:52:17Z</time>
      </trkpt>
      <trkpt lat="43.7428" lon="-0.10404">
        <ele>133</ele>
        <time>2022-08-20T08:52:36Z</time>
      </trkpt>
      <trkpt lat="43.74286" lon="-0.10416">
        <ele>133</ele>
        <time>2022-08-20T08:52:45Z</time>
      </trkpt>
      <trkpt lat="43.74292" lon="-0.10419">
        <ele>132</ele>
        <time>2022-08-20T08:53:00Z</time>
      </trkpt>
      <trkpt lat="43.74296" lon="-0.10424">
        <ele>132</ele>
        <time>2022-08-20T08:53:05Z</time>
      </trkpt>
      <trkpt lat="43.74309" lon="-0.10442">
        <ele>133</ele>
        <time>2022-08-20T08:53:30Z</time>
      </trkpt>
      <trkpt lat="43.74313" lon="-0.10447">
        <ele>132</ele>
        <time>2022-08-20T08:53:35Z</time>
      </trkpt>
      <trkpt lat="43.74321" lon="-0.10457">
        <ele>132</ele>
        <time>2022-08-20T08:53:43Z</time>
      </trkpt>
      <trkpt lat="43.74325" lon="-0.10463">
        <ele>132</ele>
        <time>2022-08-20T08:53:47Z</time>
      </trkpt>
      <trkpt lat="43.74346" lon="-0.10486">
        <ele>131</ele>
        <time>2022-08-20T08:54:08Z</time>
      </trkpt>
      <trkpt lat="43.74353" lon="-0.10497">
        <ele>132</ele>
        <time>2022-08-20T08:54:16Z</time>
      </trkpt>
      <trkpt lat="43.74375" lon="-0.10526">
        <ele>132</ele>
        <time>2022-08-20T08:54:40Z</time>
      </trkpt>
      <trkpt lat="43.74379" lon="-0.10528">
        <ele>132</ele>
        <time>2022-08-20T08:54:43Z</time>
      </trkpt>
      <trkpt lat="43.74392" lon="-0.10543">
        <ele>132</ele>
        <time>2022-08-20T08:54:55Z</time>
      </trkpt>
      <trkpt lat="43.74396" lon="-0.10546">
        <ele>131</ele>
        <time>2022-08-20T08:54:59Z</time>
      </trkpt>
      <trkpt lat="43.74404" lon="-0.10556">
        <ele>131</ele>
        <time>2022-08-20T08:55:07Z</time>
      </trkpt>
      <trkpt lat="43.74407" lon="-0.10561">
        <ele>132</ele>
        <time>2022-08-20T08:55:12Z</time>
      </trkpt>
      <trkpt lat="43.74438" lon="-0.10595">
        <ele>131</ele>
        <time>2022-08-20T08:55:43Z</time>
      </trkpt>
      <trkpt lat="43.74465" lon="-0.10629">
        <ele>131</ele>
        <time>2022-08-20T08:56:14Z</time>
      </trkpt>
      <trkpt lat="43.74478" lon="-0.10643">
        <ele>130</ele>
        <time>2022-08-20T08:56:28Z</time>
      </trkpt>
      <trkpt lat="43.74479" lon="-0.1065">
        <ele>130</ele>
        <time>2022-08-20T08:56:33Z</time>
      </trkpt>
      <trkpt lat="43.74472" lon="-0.10659">
        <ele>130</ele>
        <time>2022-08-20T08:56:41Z</time>
      </trkpt>
      <trkpt lat="43.74438" lon="-0.10684">
        <ele>131</ele>
        <time>2022-08-20T08:57:27Z</time>
      </trkpt>
      <trkpt lat="43.74435" lon="-0.10689">
        <ele>131</ele>
        <time>2022-08-20T08:58:00Z</time>
      </trkpt>
      <trkpt lat="43.74431" lon="-0.10692">
        <ele>131</ele>
        <time>2022-08-20T08:58:06Z</time>
      </trkpt>
      <trkpt lat="43.74419" lon="-0.10708">
        <ele>131</ele>
        <time>2022-08-20T08:58:19Z</time>
      </trkpt>
      <trkpt lat="43.74416" lon="-0.10714">
        <ele>131</ele>
        <time>2022-08-20T08:58:23Z</time>
      </trkpt>
      <trkpt lat="43.74416" lon="-0.10721">
        <ele>131</ele>
        <time>2022-08-20T08:58:27Z</time>
      </trkpt>
      <trkpt lat="43.74421" lon="-0.10755">
        <ele>131</ele>
        <time>2022-08-20T08:58:46Z</time>
      </trkpt>
      <trkpt lat="43.74425" lon="-0.10769">
        <ele>131</ele>
        <time>2022-08-20T08:58:54Z</time>
      </trkpt>
      <trkpt lat="43.74425" lon="-0.10776">
        <ele>130</ele>
        <time>2022-08-20T08:58:57Z</time>
      </trkpt>
      <trkpt lat="43.74427" lon="-0.10782">
        <ele>131</ele>
        <time>2022-08-20T08:59:00Z</time>
      </trkpt>
      <trkpt lat="43.7443" lon="-0.10809">
        <ele>131</ele>
        <time>2022-08-20T08:59:16Z</time>
      </trkpt>
      <trkpt lat="43.7444" lon="-0.10863">
        <ele>130</ele>
        <time>2022-08-20T08:59:47Z</time>
      </trkpt>
      <trkpt lat="43.74441" lon="-0.1087">
        <ele>130</ele>
        <time>2022-08-20T08:59:51Z</time>
      </trkpt>
      <trkpt lat="43.74442" lon="-0.10877">
        <ele>130</ele>
        <time>2022-08-20T08:59:55Z</time>
      </trkpt>
      <trkpt lat="43.74446" lon="-0.10899">
        <ele>130</ele>
        <time>2022-08-20T09:00:07Z</time>
      </trkpt>
      <trkpt lat="43.74459" lon="-0.10937">
        <ele>129</ele>
        <time>2022-08-20T09:00:31Z</time>
      </trkpt>
      <trkpt lat="43.74465" lon="-0.10949">
        <ele>129</ele>
        <time>2022-08-20T09:00:39Z</time>
      </trkpt>
      <trkpt lat="43.74476" lon="-0.10974">
        <ele>128</ele>
        <time>2022-08-20T09:00:55Z</time>
      </trkpt>
      <trkpt lat="43.74499" lon="-0.11019">
        <ele>127</ele>
        <time>2022-08-20T09:01:26Z</time>
      </trkpt>
      <trkpt lat="43.74499" lon="-0.11024">
        <ele>127</ele>
        <time>2022-08-20T09:01:37Z</time>
      </trkpt>
      <trkpt lat="43.74503" lon="-0.11032">
        <ele>127</ele>
        <time>2022-08-20T09:02:04Z</time>
      </trkpt>
      <trkpt lat="43.74521" lon="-0.11067">
        <ele>126</ele>
        <time>2022-08-20T09:02:30Z</time>
      </trkpt>
      <trkpt lat="43.74524" lon="-0.11073">
        <ele>125</ele>
        <time>2022-08-20T09:02:34Z</time>
      </trkpt>
      <trkpt lat="43.74524" lon="-0.1108">
        <ele>125</ele>
        <time>2022-08-20T09:02:39Z</time>
      </trkpt>
      <trkpt lat="43.74523" lon="-0.11094">
        <ele>125</ele>
        <time>2022-08-20T09:02:49Z</time>
      </trkpt>
      <trkpt lat="43.74504" lon="-0.11142">
        <ele>124</ele>
        <time>2022-08-20T09:03:21Z</time>
      </trkpt>
      <trkpt lat="43.74495" lon="-0.1115">
        <ele>123</ele>
        <time>2022-08-20T09:03:29Z</time>
      </trkpt>
      <trkpt lat="43.74493" lon="-0.1116">
        <ele>123</ele>
        <time>2022-08-20T09:03:37Z</time>
      </trkpt>
      <trkpt lat="43.74484" lon="-0.11178">
        <ele>122</ele>
        <time>2022-08-20T09:03:50Z</time>
      </trkpt>
      <trkpt lat="43.74475" lon="-0.11186">
        <ele>121</ele>
        <time>2022-08-20T09:03:59Z</time>
      </trkpt>
      <trkpt lat="43.7443" lon="-0.11209">
        <ele>122</ele>
        <time>2022-08-20T09:04:32Z</time>
      </trkpt>
      <trkpt lat="43.74426" lon="-0.11213">
        <ele>122</ele>
        <time>2022-08-20T09:04:36Z</time>
      </trkpt>
      <trkpt lat="43.74422" lon="-0.11215">
        <ele>122</ele>
        <time>2022-08-20T09:04:40Z</time>
      </trkpt>
      <trkpt lat="43.74386" lon="-0.11247">
        <ele>120</ele>
        <time>2022-08-20T09:05:13Z</time>
      </trkpt>
      <trkpt lat="43.74352" lon="-0.11275">
        <ele>118</ele>
        <time>2022-08-20T09:05:45Z</time>
      </trkpt>
      <trkpt lat="43.74315" lon="-0.11303">
        <ele>115</ele>
        <time>2022-08-20T09:06:18Z</time>
      </trkpt>
      <trkpt lat="43.74301" lon="-0.11309">
        <ele>114</ele>
        <time>2022-08-20T09:06:31Z</time>
      </trkpt>
      <trkpt lat="43.74291" lon="-0.11309">
        <ele>114</ele>
        <time>2022-08-20T09:06:39Z</time>
      </trkpt>
      <trkpt lat="43.74282" lon="-0.11304">
        <ele>113</ele>
        <time>2022-08-20T09:06:47Z</time>
      </trkpt>
      <trkpt lat="43.74273" lon="-0.11296">
        <ele>113</ele>
        <time>2022-08-20T09:06:55Z</time>
      </trkpt>
      <trkpt lat="43.74266" lon="-0.11286">
        <ele>113</ele>
        <time>2022-08-20T09:07:03Z</time>
      </trkpt>
      <trkpt lat="43.74257" lon="-0.11267">
        <ele>114</ele>
        <time>2022-08-20T09:07:16Z</time>
      </trkpt>
      <trkpt lat="43.74253" lon="-0.11263">
        <ele>113</ele>
        <time>2022-08-20T09:07:20Z</time>
      </trkpt>
      <trkpt lat="43.7425" lon="-0.11257">
        <ele>113</ele>
        <time>2022-08-20T09:07:24Z</time>
      </trkpt>
      <trkpt lat="43.74241" lon="-0.11251">
        <ele>114</ele>
        <time>2022-08-20T09:07:31Z</time>
      </trkpt>
      <trkpt lat="43.74236" lon="-0.11246">
        <ele>113</ele>
        <time>2022-08-20T09:08:09Z</time>
      </trkpt>
      <trkpt lat="43.74232" lon="-0.11241">
        <ele>114</ele>
        <time>2022-08-20T09:08:15Z</time>
      </trkpt>
      <trkpt lat="43.74228" lon="-0.11238">
        <ele>113</ele>
        <time>2022-08-20T09:08:19Z</time>
      </trkpt>
      <trkpt lat="43.74224" lon="-0.11233">
        <ele>113</ele>
        <time>2022-08-20T09:08:24Z</time>
      </trkpt>
      <trkpt lat="43.74216" lon="-0.11222">
        <ele>113</ele>
        <time>2022-08-20T09:08:34Z</time>
      </trkpt>
      <trkpt lat="43.7421" lon="-0.1121">
        <ele>113</ele>
        <time>2022-08-20T09:08:42Z</time>
      </trkpt>
      <trkpt lat="43.74202" lon="-0.11202">
        <ele>113</ele>
        <time>2022-08-20T09:08:50Z</time>
      </trkpt>
      <trkpt lat="43.74192" lon="-0.11194">
        <ele>114</ele>
        <time>2022-08-20T09:08:58Z</time>
      </trkpt>
      <trkpt lat="43.74183" lon="-0.11194">
        <ele>114</ele>
        <time>2022-08-20T09:09:04Z</time>
      </trkpt>
      <trkpt lat="43.74173" lon="-0.11199">
        <ele>114</ele>
        <time>2022-08-20T09:09:12Z</time>
      </trkpt>
      <trkpt lat="43.74162" lon="-0.11214">
        <ele>116</ele>
        <time>2022-08-20T09:09:26Z</time>
      </trkpt>
      <trkpt lat="43.74156" lon="-0.11217">
        <ele>117</ele>
        <time>2022-08-20T09:09:30Z</time>
      </trkpt>
      <trkpt lat="43.74135" lon="-0.11238">
        <ele>120</ele>
        <time>2022-08-20T09:09:54Z</time>
      </trkpt>
      <trkpt lat="43.74106" lon="-0.11264">
        <ele>124</ele>
        <time>2022-08-20T09:10:24Z</time>
      </trkpt>
      <trkpt lat="43.74083" lon="-0.11282">
        <ele>126</ele>
        <time>2022-08-20T09:10:46Z</time>
      </trkpt>
      <trkpt lat="43.74051" lon="-0.11311">
        <ele>129</ele>
        <time>2022-08-20T09:11:19Z</time>
      </trkpt>
      <trkpt lat="43.74047" lon="-0.11314">
        <ele>129</ele>
        <time>2022-08-20T09:11:23Z</time>
      </trkpt>
      <trkpt lat="43.74044" lon="-0.11319">
        <ele>129</ele>
        <time>2022-08-20T09:11:27Z</time>
      </trkpt>
      <trkpt lat="43.74042" lon="-0.11324">
        <ele>129</ele>
        <time>2022-08-20T09:11:31Z</time>
      </trkpt>
      <trkpt lat="43.74041" lon="-0.11339">
        <ele>130</ele>
        <time>2022-08-20T09:11:40Z</time>
      </trkpt>
      <trkpt lat="43.7404" lon="-0.11381">
        <ele>130</ele>
        <time>2022-08-20T09:12:05Z</time>
      </trkpt>
      <trkpt lat="43.74039" lon="-0.11388">
        <ele>130</ele>
        <time>2022-08-20T09:12:09Z</time>
      </trkpt>
      <trkpt lat="43.74033" lon="-0.11399">
        <ele>130</ele>
        <time>2022-08-20T09:12:17Z</time>
      </trkpt>
      <trkpt lat="43.74009" lon="-0.11404">
        <ele>131</ele>
        <time>2022-08-20T09:12:38Z</time>
      </trkpt>
      <trkpt lat="43.73968" lon="-0.11407">
        <ele>132</ele>
        <time>2022-08-20T09:13:10Z</time>
      </trkpt>
      <trkpt lat="43.73939" lon="-0.11409">
        <ele>132</ele>
        <time>2022-08-20T09:13:34Z</time>
      </trkpt>
      <trkpt lat="43.73929" lon="-0.11409">
        <ele>132</ele>
        <time>2022-08-20T09:13:42Z</time>
      </trkpt>
      <trkpt lat="43.7392" lon="-0.11416">
        <ele>132</ele>
        <time>2022-08-20T09:13:50Z</time>
      </trkpt>
      <trkpt lat="43.73907" lon="-0.11438">
        <ele>132</ele>
        <time>2022-08-20T09:14:05Z</time>
      </trkpt>
      <trkpt lat="43.73905" lon="-0.11444">
        <ele>132</ele>
        <time>2022-08-20T09:14:09Z</time>
      </trkpt>
      <trkpt lat="43.73901" lon="-0.11449">
        <ele>131</ele>
        <time>2022-08-20T09:14:14Z</time>
      </trkpt>
      <trkpt lat="43.73899" lon="-0.11456">
        <ele>132</ele>
        <time>2022-08-20T09:14:29Z</time>
      </trkpt>
      <trkpt lat="43.73876" lon="-0.11499">
        <ele>130</ele>
        <time>2022-08-20T09:15:02Z</time>
      </trkpt>
      <trkpt lat="43.7387" lon="-0.11509">
        <ele>130</ele>
        <time>2022-08-20T09:15:10Z</time>
      </trkpt>
      <trkpt lat="43.73847" lon="-0.11548">
        <ele>127</ele>
        <time>2022-08-20T09:15:41Z</time>
      </trkpt>
      <trkpt lat="43.73832" lon="-0.11577">
        <ele>126</ele>
        <time>2022-08-20T09:16:02Z</time>
      </trkpt>
      <trkpt lat="43.73827" lon="-0.11581">
        <ele>126</ele>
        <time>2022-08-20T09:16:07Z</time>
      </trkpt>
      <trkpt lat="43.73822" lon="-0.11584">
        <ele>125</ele>
        <time>2022-08-20T09:16:12Z</time>
      </trkpt>
      <trkpt lat="43.73814" lon="-0.11592">
        <ele>125</ele>
        <time>2022-08-20T09:16:20Z</time>
      </trkpt>
      <trkpt lat="43.73796" lon="-0.11612">
        <ele>126</ele>
        <time>2022-08-20T09:16:37Z</time>
      </trkpt>
      <trkpt lat="43.73787" lon="-0.11629">
        <ele>126</ele>
        <time>2022-08-20T09:16:49Z</time>
      </trkpt>
      <trkpt lat="43.73783" lon="-0.11633">
        <ele>126</ele>
        <time>2022-08-20T09:16:53Z</time>
      </trkpt>
      <trkpt lat="43.7378" lon="-0.1164">
        <ele>126</ele>
        <time>2022-08-20T09:16:57Z</time>
      </trkpt>
      <trkpt lat="43.73773" lon="-0.1165">
        <ele>126</ele>
        <time>2022-08-20T09:17:05Z</time>
      </trkpt>
      <trkpt lat="43.73769" lon="-0.11657">
        <ele>126</ele>
        <time>2022-08-20T09:17:09Z</time>
      </trkpt>
      <trkpt lat="43.73765" lon="-0.11678">
        <ele>126</ele>
        <time>2022-08-20T09:17:21Z</time>
      </trkpt>
      <trkpt lat="43.73757" lon="-0.11686">
        <ele>125</ele>
        <time>2022-08-20T09:17:29Z</time>
      </trkpt>
      <trkpt lat="43.73744" lon="-0.11692">
        <ele>124</ele>
        <time>2022-08-20T09:17:42Z</time>
      </trkpt>
      <trkpt lat="43.73726" lon="-0.11694">
        <ele>123</ele>
        <time>2022-08-20T09:17:56Z</time>
      </trkpt>
      <trkpt lat="43.73689" lon="-0.11708">
        <ele>117</ele>
        <time>2022-08-20T09:18:27Z</time>
      </trkpt>
      <trkpt lat="43.73684" lon="-0.11709">
        <ele>117</ele>
        <time>2022-08-20T09:18:30Z</time>
      </trkpt>
      <trkpt lat="43.73674" lon="-0.11715">
        <ele>115</ele>
        <time>2022-08-20T09:18:40Z</time>
      </trkpt>
      <trkpt lat="43.73668" lon="-0.11719">
        <ele>113</ele>
        <time>2022-08-20T09:18:46Z</time>
      </trkpt>
      <trkpt lat="43.73651" lon="-0.11738">
        <ele>111</ele>
        <time>2022-08-20T09:19:02Z</time>
      </trkpt>
      <trkpt lat="43.73646" lon="-0.1174">
        <ele>110</ele>
        <time>2022-08-20T09:19:06Z</time>
      </trkpt>
      <trkpt lat="43.73641" lon="-0.11737">
        <ele>110</ele>
        <time>2022-08-20T09:19:15Z</time>
      </trkpt>
      <trkpt lat="43.73639" lon="-0.1173">
        <ele>110</ele>
        <time>2022-08-20T09:19:26Z</time>
      </trkpt>
      <trkpt lat="43.73635" lon="-0.11711">
        <ele>109</ele>
        <time>2022-08-20T09:19:41Z</time>
      </trkpt>
      <trkpt lat="43.73635" lon="-0.11704">
        <ele>109</ele>
        <time>2022-08-20T09:19:46Z</time>
      </trkpt>
      <trkpt lat="43.73633" lon="-0.11699">
        <ele>109</ele>
        <time>2022-08-20T09:19:51Z</time>
      </trkpt>
      <trkpt lat="43.73632" lon="-0.11692">
        <ele>109</ele>
        <time>2022-08-20T09:19:55Z</time>
      </trkpt>
      <trkpt lat="43.73631" lon="-0.11684">
        <ele>109</ele>
        <time>2022-08-20T09:19:59Z</time>
      </trkpt>
      <trkpt lat="43.73629" lon="-0.11675">
        <ele>110</ele>
        <time>2022-08-20T09:20:05Z</time>
      </trkpt>
      <trkpt lat="43.73627" lon="-0.11668">
        <ele>110</ele>
        <time>2022-08-20T09:20:10Z</time>
      </trkpt>
      <trkpt lat="43.73621" lon="-0.11646">
        <ele>110</ele>
        <time>2022-08-20T09:20:23Z</time>
      </trkpt>
      <trkpt lat="43.73615" lon="-0.11634">
        <ele>110</ele>
        <time>2022-08-20T09:20:32Z</time>
      </trkpt>
      <trkpt lat="43.73609" lon="-0.11613">
        <ele>110</ele>
        <time>2022-08-20T09:20:44Z</time>
      </trkpt>
      <trkpt lat="43.73606" lon="-0.11607">
        <ele>110</ele>
        <time>2022-08-20T09:20:48Z</time>
      </trkpt>
      <trkpt lat="43.73605" lon="-0.11594">
        <ele>109</ele>
        <time>2022-08-20T09:20:55Z</time>
      </trkpt>
      <trkpt lat="43.73602" lon="-0.11581">
        <ele>109</ele>
        <time>2022-08-20T09:21:03Z</time>
      </trkpt>
      <trkpt lat="43.736" lon="-0.11575">
        <ele>109</ele>
        <time>2022-08-20T09:21:07Z</time>
      </trkpt>
      <trkpt lat="43.73594" lon="-0.11575">
        <ele>109</ele>
        <time>2022-08-20T09:21:12Z</time>
      </trkpt>
      <trkpt lat="43.7359" lon="-0.11579">
        <ele>109</ele>
        <time>2022-08-20T09:21:17Z</time>
      </trkpt>
      <trkpt lat="43.73586" lon="-0.11584">
        <ele>108</ele>
        <time>2022-08-20T09:21:22Z</time>
      </trkpt>
      <trkpt lat="43.73582" lon="-0.11589">
        <ele>108</ele>
        <time>2022-08-20T09:21:26Z</time>
      </trkpt>
      <trkpt lat="43.7358" lon="-0.11601">
        <ele>108</ele>
        <time>2022-08-20T09:21:35Z</time>
      </trkpt>
      <trkpt lat="43.73568" lon="-0.11629">
        <ele>108</ele>
        <time>2022-08-20T09:21:54Z</time>
      </trkpt>
      <trkpt lat="43.73566" lon="-0.11654">
        <ele>108</ele>
        <time>2022-08-20T09:22:06Z</time>
      </trkpt>
      <trkpt lat="43.73562" lon="-0.11659">
        <ele>107</ele>
        <time>2022-08-20T09:22:11Z</time>
      </trkpt>
      <trkpt lat="43.73549" lon="-0.11677">
        <ele>110</ele>
        <time>2022-08-20T09:22:29Z</time>
      </trkpt>
      <trkpt lat="43.73522" lon="-0.11702">
        <ele>114</ele>
        <time>2022-08-20T09:23:01Z</time>
      </trkpt>
      <trkpt lat="43.73504" lon="-0.11717">
        <ele>116</ele>
        <time>2022-08-20T09:23:27Z</time>
      </trkpt>
      <trkpt lat="43.73476" lon="-0.11733">
        <ele>119</ele>
        <time>2022-08-20T09:23:58Z</time>
      </trkpt>
      <trkpt lat="43.73463" lon="-0.1174">
        <ele>120</ele>
        <time>2022-08-20T09:24:13Z</time>
      </trkpt>
      <trkpt lat="43.73457" lon="-0.11745">
        <ele>120</ele>
        <time>2022-08-20T09:24:17Z</time>
      </trkpt>
      <trkpt lat="43.73451" lon="-0.11746">
        <ele>120</ele>
        <time>2022-08-20T09:24:22Z</time>
      </trkpt>
      <trkpt lat="43.73438" lon="-0.11754">
        <ele>121</ele>
        <time>2022-08-20T09:24:37Z</time>
      </trkpt>
      <trkpt lat="43.73413" lon="-0.11776">
        <ele>125</ele>
        <time>2022-08-20T09:25:07Z</time>
      </trkpt>
      <trkpt lat="43.734" lon="-0.11789">
        <ele>126</ele>
        <time>2022-08-20T09:25:20Z</time>
      </trkpt>
      <trkpt lat="43.73395" lon="-0.11791">
        <ele>126</ele>
        <time>2022-08-20T09:25:25Z</time>
      </trkpt>
      <trkpt lat="43.73374" lon="-0.1179">
        <ele>126</ele>
        <time>2022-08-20T09:25:43Z</time>
      </trkpt>
      <trkpt lat="43.73356" lon="-0.11797">
        <ele>127</ele>
        <time>2022-08-20T09:25:59Z</time>
      </trkpt>
      <trkpt lat="43.73345" lon="-0.11791">
        <ele>127</ele>
        <time>2022-08-20T09:26:08Z</time>
      </trkpt>
      <trkpt lat="43.73336" lon="-0.11795">
        <ele>128</ele>
        <time>2022-08-20T09:26:16Z</time>
      </trkpt>
      <trkpt lat="43.73331" lon="-0.11796">
        <ele>128</ele>
        <time>2022-08-20T09:26:20Z</time>
      </trkpt>
      <trkpt lat="43.73326" lon="-0.11801">
        <ele>128</ele>
        <time>2022-08-20T09:26:25Z</time>
      </trkpt>
      <trkpt lat="43.73315" lon="-0.11806">
        <ele>129</ele>
        <time>2022-08-20T09:26:33Z</time>
      </trkpt>
      <trkpt lat="43.733" lon="-0.11818">
        <ele>130</ele>
        <time>2022-08-20T09:26:46Z</time>
      </trkpt>
      <trkpt lat="43.73289" lon="-0.11823">
        <ele>131</ele>
        <time>2022-08-20T09:26:56Z</time>
      </trkpt>
      <trkpt lat="43.73281" lon="-0.11823">
        <ele>132</ele>
        <time>2022-08-20T09:27:03Z</time>
      </trkpt>
      <trkpt lat="43.73264" lon="-0.11819">
        <ele>133</ele>
        <time>2022-08-20T09:27:18Z</time>
      </trkpt>
      <trkpt lat="43.73259" lon="-0.11821">
        <ele>133</ele>
        <time>2022-08-20T09:27:23Z</time>
      </trkpt>
      <trkpt lat="43.73246" lon="-0.11839">
        <ele>134</ele>
        <time>2022-08-20T09:27:34Z</time>
      </trkpt>
      <trkpt lat="43.73244" lon="-0.11845">
        <ele>134</ele>
        <time>2022-08-20T09:27:38Z</time>
      </trkpt>
      <trkpt lat="43.73242" lon="-0.11861">
        <ele>134</ele>
        <time>2022-08-20T09:27:46Z</time>
      </trkpt>
      <trkpt lat="43.73247" lon="-0.11917">
        <ele>135</ele>
        <time>2022-08-20T09:28:17Z</time>
      </trkpt>
      <trkpt lat="43.73247" lon="-0.11924">
        <ele>135</ele>
        <time>2022-08-20T09:28:21Z</time>
      </trkpt>
      <trkpt lat="43.73247" lon="-0.11937">
        <ele>136</ele>
        <time>2022-08-20T09:28:30Z</time>
      </trkpt>
      <trkpt lat="43.73243" lon="-0.11952">
        <ele>136</ele>
        <time>2022-08-20T09:28:39Z</time>
      </trkpt>
      <trkpt lat="43.73242" lon="-0.11965">
        <ele>136</ele>
        <time>2022-08-20T09:28:47Z</time>
      </trkpt>
      <trkpt lat="43.73236" lon="-0.11985">
        <ele>136</ele>
        <time>2022-08-20T09:28:59Z</time>
      </trkpt>
      <trkpt lat="43.73233" lon="-0.1199">
        <ele>136</ele>
        <time>2022-08-20T09:29:02Z</time>
      </trkpt>
      <trkpt lat="43.7323" lon="-0.11996">
        <ele>136</ele>
        <time>2022-08-20T09:29:06Z</time>
      </trkpt>
      <trkpt lat="43.73224" lon="-0.12009">
        <ele>136</ele>
        <time>2022-08-20T09:29:15Z</time>
      </trkpt>
      <trkpt lat="43.73224" lon="-0.1203">
        <ele>136</ele>
        <time>2022-08-20T09:29:28Z</time>
      </trkpt>
      <trkpt lat="43.73219" lon="-0.12042">
        <ele>136</ele>
        <time>2022-08-20T09:29:36Z</time>
      </trkpt>
      <trkpt lat="43.73216" lon="-0.12047">
        <ele>136</ele>
        <time>2022-08-20T09:29:39Z</time>
      </trkpt>
      <trkpt lat="43.73208" lon="-0.12066">
        <ele>137</ele>
        <time>2022-08-20T09:29:51Z</time>
      </trkpt>
      <trkpt lat="43.73206" lon="-0.12072">
        <ele>136</ele>
        <time>2022-08-20T09:29:55Z</time>
      </trkpt>
      <trkpt lat="43.73204" lon="-0.12079">
        <ele>136</ele>
        <time>2022-08-20T09:30:00Z</time>
      </trkpt>
      <trkpt lat="43.73187" lon="-0.12104">
        <ele>137</ele>
        <time>2022-08-20T09:30:19Z</time>
      </trkpt>
      <trkpt lat="43.73181" lon="-0.12115">
        <ele>137</ele>
        <time>2022-08-20T09:30:27Z</time>
      </trkpt>
      <trkpt lat="43.73176" lon="-0.12118">
        <ele>136</ele>
        <time>2022-08-20T09:30:32Z</time>
      </trkpt>
      <trkpt lat="43.73161" lon="-0.12129">
        <ele>136</ele>
        <time>2022-08-20T09:30:45Z</time>
      </trkpt>
      <trkpt lat="43.73158" lon="-0.12135">
        <ele>136</ele>
        <time>2022-08-20T09:30:50Z</time>
      </trkpt>
      <trkpt lat="43.73145" lon="-0.1216">
        <ele>136</ele>
        <time>2022-08-20T09:31:04Z</time>
      </trkpt>
      <trkpt lat="43.7313" lon="-0.12203">
        <ele>136</ele>
        <time>2022-08-20T09:31:34Z</time>
      </trkpt>
      <trkpt lat="43.73121" lon="-0.12231">
        <ele>136</ele>
        <time>2022-08-20T09:31:50Z</time>
      </trkpt>
      <trkpt lat="43.73117" lon="-0.12238">
        <ele>135</ele>
        <time>2022-08-20T09:31:55Z</time>
      </trkpt>
      <trkpt lat="43.73111" lon="-0.12259">
        <ele>135</ele>
        <time>2022-08-20T09:32:08Z</time>
      </trkpt>
      <trkpt lat="43.73108" lon="-0.12273">
        <ele>135</ele>
        <time>2022-08-20T09:32:17Z</time>
      </trkpt>
      <trkpt lat="43.73106" lon="-0.12279">
        <ele>136</ele>
        <time>2022-08-20T09:32:21Z</time>
      </trkpt>
      <trkpt lat="43.73096" lon="-0.12331">
        <ele>136</ele>
        <time>2022-08-20T09:32:52Z</time>
      </trkpt>
      <trkpt lat="43.73092" lon="-0.12345">
        <ele>136</ele>
        <time>2022-08-20T09:33:00Z</time>
      </trkpt>
      <trkpt lat="43.73092" lon="-0.12354">
        <ele>136</ele>
        <time>2022-08-20T09:33:04Z</time>
      </trkpt>
      <trkpt lat="43.73113" lon="-0.12375">
        <ele>135</ele>
        <time>2022-08-20T09:33:24Z</time>
      </trkpt>
      <trkpt lat="43.73118" lon="-0.12378">
        <ele>135</ele>
        <time>2022-08-20T09:33:28Z</time>
      </trkpt>
      <trkpt lat="43.73123" lon="-0.12383">
        <ele>134</ele>
        <time>2022-08-20T09:33:33Z</time>
      </trkpt>
      <trkpt lat="43.73133" lon="-0.12388">
        <ele>133</ele>
        <time>2022-08-20T09:33:41Z</time>
      </trkpt>
      <trkpt lat="43.73152" lon="-0.12405">
        <ele>132</ele>
        <time>2022-08-20T09:33:57Z</time>
      </trkpt>
      <trkpt lat="43.73157" lon="-0.12409">
        <ele>133</ele>
        <time>2022-08-20T09:34:01Z</time>
      </trkpt>
      <trkpt lat="43.7316" lon="-0.12414">
        <ele>133</ele>
        <time>2022-08-20T09:34:05Z</time>
      </trkpt>
      <trkpt lat="43.73163" lon="-0.12423">
        <ele>132</ele>
        <time>2022-08-20T09:34:12Z</time>
      </trkpt>
      <trkpt lat="43.73159" lon="-0.12436">
        <ele>132</ele>
        <time>2022-08-20T09:34:20Z</time>
      </trkpt>
      <trkpt lat="43.73156" lon="-0.1244">
        <ele>132</ele>
        <time>2022-08-20T09:34:24Z</time>
      </trkpt>
      <trkpt lat="43.73136" lon="-0.12491">
        <ele>134</ele>
        <time>2022-08-20T09:34:58Z</time>
      </trkpt>
      <trkpt lat="43.73117" lon="-0.12541">
        <ele>136</ele>
        <time>2022-08-20T09:35:29Z</time>
      </trkpt>
      <trkpt lat="43.7311" lon="-0.12559">
        <ele>137</ele>
        <time>2022-08-20T09:35:42Z</time>
      </trkpt>
      <trkpt lat="43.73106" lon="-0.12565">
        <ele>137</ele>
        <time>2022-08-20T09:35:46Z</time>
      </trkpt>
      <trkpt lat="43.731" lon="-0.12584">
        <ele>137</ele>
        <time>2022-08-20T09:35:59Z</time>
      </trkpt>
      <trkpt lat="43.73084" lon="-0.1262">
        <ele>137</ele>
        <time>2022-08-20T09:36:24Z</time>
      </trkpt>
      <trkpt lat="43.73066" lon="-0.12663">
        <ele>137</ele>
        <time>2022-08-20T09:36:53Z</time>
      </trkpt>
      <trkpt lat="43.73053" lon="-0.12693">
        <ele>137</ele>
        <time>2022-08-20T09:37:12Z</time>
      </trkpt>
      <trkpt lat="43.7304" lon="-0.12731">
        <ele>139</ele>
        <time>2022-08-20T09:37:36Z</time>
      </trkpt>
      <trkpt lat="43.73037" lon="-0.12737">
        <ele>139</ele>
        <time>2022-08-20T09:37:40Z</time>
      </trkpt>
      <trkpt lat="43.73031" lon="-0.12756">
        <ele>140</ele>
        <time>2022-08-20T09:37:52Z</time>
      </trkpt>
      <trkpt lat="43.7301" lon="-0.12803">
        <ele>139</ele>
        <time>2022-08-20T09:38:24Z</time>
      </trkpt>
      <trkpt lat="43.73009" lon="-0.1281">
        <ele>139</ele>
        <time>2022-08-20T09:38:29Z</time>
      </trkpt>
      <trkpt lat="43.73005" lon="-0.12817">
        <ele>138</ele>
        <time>2022-08-20T09:39:01Z</time>
      </trkpt>
      <trkpt lat="43.73002" lon="-0.12823">
        <ele>139</ele>
        <time>2022-08-20T09:39:05Z</time>
      </trkpt>
      <trkpt lat="43.72998" lon="-0.12834">
        <ele>138</ele>
        <time>2022-08-20T09:39:13Z</time>
      </trkpt>
      <trkpt lat="43.72979" lon="-0.12882">
        <ele>138</ele>
        <time>2022-08-20T09:39:44Z</time>
      </trkpt>
      <trkpt lat="43.72967" lon="-0.12911">
        <ele>139</ele>
        <time>2022-08-20T09:40:04Z</time>
      </trkpt>
      <trkpt lat="43.7295" lon="-0.12949">
        <ele>139</ele>
        <time>2022-08-20T09:40:36Z</time>
      </trkpt>
      <trkpt lat="43.72944" lon="-0.12964">
        <ele>140</ele>
        <time>2022-08-20T09:40:50Z</time>
      </trkpt>
      <trkpt lat="43.72938" lon="-0.12971">
        <ele>141</ele>
        <time>2022-08-20T09:41:08Z</time>
      </trkpt>
      <trkpt lat="43.72918" lon="-0.12955">
        <ele>142</ele>
        <time>2022-08-20T09:41:28Z</time>
      </trkpt>
      <trkpt lat="43.72914" lon="-0.12952">
        <ele>142</ele>
        <time>2022-08-20T09:41:32Z</time>
      </trkpt>
      <trkpt lat="43.72889" lon="-0.12933">
        <ele>145</ele>
        <time>2022-08-20T09:41:56Z</time>
      </trkpt>
      <trkpt lat="43.72885" lon="-0.12931">
        <ele>145</ele>
        <time>2022-08-20T09:42:00Z</time>
      </trkpt>
      <trkpt lat="43.72873" lon="-0.12919">
        <ele>147</ele>
        <time>2022-08-20T09:42:13Z</time>
      </trkpt>
      <trkpt lat="43.72865" lon="-0.12916">
        <ele>148</ele>
        <time>2022-08-20T09:42:21Z</time>
      </trkpt>
      <trkpt lat="43.72859" lon="-0.12921">
        <ele>150</ele>
        <time>2022-08-20T09:42:41Z</time>
      </trkpt>
      <trkpt lat="43.72856" lon="-0.12951">
        <ele>152</ele>
        <time>2022-08-20T09:43:13Z</time>
      </trkpt>
      <trkpt lat="43.7285" lon="-0.12995">
        <ele>154</ele>
        <time>2022-08-20T09:43:38Z</time>
      </trkpt>
      <trkpt lat="43.72849" lon="-0.13007">
        <ele>154</ele>
        <time>2022-08-20T09:43:46Z</time>
      </trkpt>
      <trkpt lat="43.72846" lon="-0.1306">
        <ele>155</ele>
        <time>2022-08-20T09:44:18Z</time>
      </trkpt>
      <trkpt lat="43.72845" lon="-0.13088">
        <ele>155</ele>
        <time>2022-08-20T09:44:34Z</time>
      </trkpt>
      <trkpt lat="43.72843" lon="-0.13129">
        <ele>154</ele>
        <time>2022-08-20T09:44:58Z</time>
      </trkpt>
      <trkpt lat="43.72843" lon="-0.13136">
        <ele>154</ele>
        <time>2022-08-20T09:45:02Z</time>
      </trkpt>
      <trkpt lat="43.72843" lon="-0.13143">
        <ele>154</ele>
        <time>2022-08-20T09:45:06Z</time>
      </trkpt>
      <trkpt lat="43.7284" lon="-0.13197">
        <ele>153</ele>
        <time>2022-08-20T09:45:38Z</time>
      </trkpt>
      <trkpt lat="43.72839" lon="-0.13232">
        <ele>153</ele>
        <time>2022-08-20T09:45:59Z</time>
      </trkpt>
      <trkpt lat="43.7284" lon="-0.13238">
        <ele>153</ele>
        <time>2022-08-20T09:46:03Z</time>
      </trkpt>
      <trkpt lat="43.72836" lon="-0.13295">
        <ele>152</ele>
        <time>2022-08-20T09:46:35Z</time>
      </trkpt>
      <trkpt lat="43.72829" lon="-0.13351">
        <ele>153</ele>
        <time>2022-08-20T09:47:09Z</time>
      </trkpt>
      <trkpt lat="43.72827" lon="-0.13363">
        <ele>153</ele>
        <time>2022-08-20T09:47:17Z</time>
      </trkpt>
      <trkpt lat="43.72823" lon="-0.1338">
        <ele>154</ele>
        <time>2022-08-20T09:47:34Z</time>
      </trkpt>
      <trkpt lat="43.72821" lon="-0.13391">
        <ele>155</ele>
        <time>2022-08-20T09:47:42Z</time>
      </trkpt>
      <trkpt lat="43.72818" lon="-0.13417">
        <ele>155</ele>
        <time>2022-08-20T09:48:04Z</time>
      </trkpt>
      <trkpt lat="43.72816" lon="-0.13426">
        <ele>155</ele>
        <time>2022-08-20T09:48:10Z</time>
      </trkpt>
      <trkpt lat="43.72814" lon="-0.13431">
        <ele>155</ele>
        <time>2022-08-20T09:48:14Z</time>
      </trkpt>
      <trkpt lat="43.72811" lon="-0.13447">
        <ele>155</ele>
        <time>2022-08-20T09:48:25Z</time>
      </trkpt>
      <trkpt lat="43.72802" lon="-0.13475">
        <ele>156</ele>
        <time>2022-08-20T09:48:44Z</time>
      </trkpt>
      <trkpt lat="43.72799" lon="-0.1349">
        <ele>157</ele>
        <time>2022-08-20T09:48:54Z</time>
      </trkpt>
      <trkpt lat="43.728" lon="-0.13505">
        <ele>157</ele>
        <time>2022-08-20T09:49:03Z</time>
      </trkpt>
      <trkpt lat="43.72795" lon="-0.13519">
        <ele>157</ele>
        <time>2022-08-20T09:49:11Z</time>
      </trkpt>
      <trkpt lat="43.72788" lon="-0.13528">
        <ele>158</ele>
        <time>2022-08-20T09:49:21Z</time>
      </trkpt>
      <trkpt lat="43.72783" lon="-0.13532">
        <ele>159</ele>
        <time>2022-08-20T09:49:26Z</time>
      </trkpt>
      <trkpt lat="43.72773" lon="-0.13536">
        <ele>159</ele>
        <time>2022-08-20T09:49:36Z</time>
      </trkpt>
      <trkpt lat="43.72766" lon="-0.13565">
        <ele>161</ele>
        <time>2022-08-20T09:49:57Z</time>
      </trkpt>
      <trkpt lat="43.72765" lon="-0.13595">
        <ele>162</ele>
        <time>2022-08-20T09:50:19Z</time>
      </trkpt>
      <trkpt lat="43.72764" lon="-0.13602">
        <ele>162</ele>
        <time>2022-08-20T09:50:23Z</time>
      </trkpt>
      <trkpt lat="43.72763" lon="-0.1363">
        <ele>164</ele>
        <time>2022-08-20T09:50:41Z</time>
      </trkpt>
      <trkpt lat="43.72764" lon="-0.13637">
        <ele>164</ele>
        <time>2022-08-20T09:50:46Z</time>
      </trkpt>
      <trkpt lat="43.72761" lon="-0.13652">
        <ele>164</ele>
        <time>2022-08-20T09:50:55Z</time>
      </trkpt>
      <trkpt lat="43.72761" lon="-0.13658">
        <ele>164</ele>
        <time>2022-08-20T09:50:59Z</time>
      </trkpt>
      <trkpt lat="43.72761" lon="-0.13703">
        <ele>164</ele>
        <time>2022-08-20T09:51:32Z</time>
      </trkpt>
      <trkpt lat="43.72758" lon="-0.13708">
        <ele>164</ele>
        <time>2022-08-20T09:51:36Z</time>
      </trkpt>
      <trkpt lat="43.72754" lon="-0.13713">
        <ele>164</ele>
        <time>2022-08-20T09:51:41Z</time>
      </trkpt>
      <trkpt lat="43.72749" lon="-0.13714">
        <ele>163</ele>
        <time>2022-08-20T09:51:46Z</time>
      </trkpt>
      <trkpt lat="43.72734" lon="-0.13712">
        <ele>162</ele>
        <time>2022-08-20T09:52:00Z</time>
      </trkpt>
      <trkpt lat="43.7272" lon="-0.13713">
        <ele>161</ele>
        <time>2022-08-20T09:52:12Z</time>
      </trkpt>
      <trkpt lat="43.72715" lon="-0.13713">
        <ele>161</ele>
        <time>2022-08-20T09:52:23Z</time>
      </trkpt>
      <trkpt lat="43.72706" lon="-0.13718">
        <ele>161</ele>
        <time>2022-08-20T09:52:30Z</time>
      </trkpt>
      <trkpt lat="43.7268" lon="-0.13741">
        <ele>160</ele>
        <time>2022-08-20T09:52:57Z</time>
      </trkpt>
      <trkpt lat="43.72674" lon="-0.13743">
        <ele>160</ele>
        <time>2022-08-20T09:53:11Z</time>
      </trkpt>
      <trkpt lat="43.72643" lon="-0.13765">
        <ele>158</ele>
        <time>2022-08-20T09:53:45Z</time>
      </trkpt>
      <trkpt lat="43.72608" lon="-0.13789">
        <ele>155</ele>
        <time>2022-08-20T09:54:18Z</time>
      </trkpt>
      <trkpt lat="43.72577" lon="-0.13808">
        <ele>154</ele>
        <time>2022-08-20T09:54:47Z</time>
      </trkpt>
      <trkpt lat="43.72568" lon="-0.13816">
        <ele>154</ele>
        <time>2022-08-20T09:54:55Z</time>
      </trkpt>
      <trkpt lat="43.7253" lon="-0.13831">
        <ele>152</ele>
        <time>2022-08-20T09:55:27Z</time>
      </trkpt>
      <trkpt lat="43.72491" lon="-0.13839">
        <ele>151</ele>
        <time>2022-08-20T09:55:59Z</time>
      </trkpt>
      <trkpt lat="43.72454" lon="-0.13844">
        <ele>150</ele>
        <time>2022-08-20T09:56:31Z</time>
      </trkpt>
      <trkpt lat="43.72444" lon="-0.13847">
        <ele>150</ele>
        <time>2022-08-20T09:56:39Z</time>
      </trkpt>
      <trkpt lat="43.72439" lon="-0.13848">
        <ele>150</ele>
        <time>2022-08-20T09:56:43Z</time>
      </trkpt>
      <trkpt lat="43.72434" lon="-0.13845">
        <ele>149</ele>
        <time>2022-08-20T09:56:48Z</time>
      </trkpt>
      <trkpt lat="43.72429" lon="-0.13844">
        <ele>150</ele>
        <time>2022-08-20T09:57:20Z</time>
      </trkpt>
      <trkpt lat="43.72427" lon="-0.13834">
        <ele>150</ele>
        <time>2022-08-20T09:57:32Z</time>
      </trkpt>
      <trkpt lat="43.72426" lon="-0.13835">
        <ele>150</ele>
        <time>2022-08-20T09:58:04Z</time>
      </trkpt>
      <trkpt lat="43.72427" lon="-0.13841">
        <ele>150</ele>
        <time>2022-08-20T09:58:07Z</time>
      </trkpt>
      <trkpt lat="43.72432" lon="-0.13854">
        <ele>149</ele>
        <time>2022-08-20T09:58:15Z</time>
      </trkpt>
      <trkpt lat="43.72433" lon="-0.1386">
        <ele>149</ele>
        <time>2022-08-20T09:58:19Z</time>
      </trkpt>
      <trkpt lat="43.72429" lon="-0.1387">
        <ele>148</ele>
        <time>2022-08-20T09:58:26Z</time>
      </trkpt>
      <trkpt lat="43.72426" lon="-0.13874">
        <ele>148</ele>
        <time>2022-08-20T09:58:30Z</time>
      </trkpt>
      <trkpt lat="43.724" lon="-0.13886">
        <ele>147</ele>
        <time>2022-08-20T09:58:50Z</time>
      </trkpt>
      <trkpt lat="43.72395" lon="-0.13887">
        <ele>147</ele>
        <time>2022-08-20T09:58:54Z</time>
      </trkpt>
      <trkpt lat="43.7239" lon="-0.13891">
        <ele>147</ele>
        <time>2022-08-20T09:58:59Z</time>
      </trkpt>
      <trkpt lat="43.72384" lon="-0.13892">
        <ele>147</ele>
        <time>2022-08-20T09:59:04Z</time>
      </trkpt>
      <trkpt lat="43.72341" lon="-0.13916">
        <ele>145</ele>
        <time>2022-08-20T09:59:38Z</time>
      </trkpt>
      <trkpt lat="43.72305" lon="-0.13943">
        <ele>145</ele>
        <time>2022-08-20T10:00:11Z</time>
      </trkpt>
      <trkpt lat="43.72298" lon="-0.13949">
        <ele>145</ele>
        <time>2022-08-20T10:00:54Z</time>
      </trkpt>
      <trkpt lat="43.7229" lon="-0.13958">
        <ele>144</ele>
        <time>2022-08-20T10:01:02Z</time>
      </trkpt>
      <trkpt lat="43.72281" lon="-0.13966">
        <ele>144</ele>
        <time>2022-08-20T10:01:10Z</time>
      </trkpt>
      <trkpt lat="43.72255" lon="-0.13991">
        <ele>145</ele>
        <time>2022-08-20T10:01:34Z</time>
      </trkpt>
      <trkpt lat="43.72245" lon="-0.13997">
        <ele>145</ele>
        <time>2022-08-20T10:01:42Z</time>
      </trkpt>
      <trkpt lat="43.72205" lon="-0.14016">
        <ele>143</ele>
        <time>2022-08-20T10:02:14Z</time>
      </trkpt>
      <trkpt lat="43.72169" lon="-0.14037">
        <ele>143</ele>
        <time>2022-08-20T10:02:46Z</time>
      </trkpt>
      <trkpt lat="43.72136" lon="-0.14057">
        <ele>143</ele>
        <time>2022-08-20T10:03:13Z</time>
      </trkpt>
      <trkpt lat="43.72104" lon="-0.14078">
        <ele>141</ele>
        <time>2022-08-20T10:03:40Z</time>
      </trkpt>
      <trkpt lat="43.72099" lon="-0.14081">
        <ele>141</ele>
        <time>2022-08-20T10:03:44Z</time>
      </trkpt>
      <trkpt lat="43.72062" lon="-0.14105">
        <ele>140</ele>
        <time>2022-08-20T10:04:15Z</time>
      </trkpt>
      <trkpt lat="43.72044" lon="-0.14117">
        <ele>141</ele>
        <time>2022-08-20T10:04:31Z</time>
      </trkpt>
      <trkpt lat="43.72039" lon="-0.14121">
        <ele>140</ele>
        <time>2022-08-20T10:04:35Z</time>
      </trkpt>
      <trkpt lat="43.72003" lon="-0.14146">
        <ele>142</ele>
        <time>2022-08-20T10:05:06Z</time>
      </trkpt>
      <trkpt lat="43.71964" lon="-0.14169">
        <ele>143</ele>
        <time>2022-08-20T10:05:39Z</time>
      </trkpt>
      <trkpt lat="43.71928" lon="-0.14193">
        <ele>139</ele>
        <time>2022-08-20T10:06:11Z</time>
      </trkpt>
      <trkpt lat="43.7189" lon="-0.14216">
        <ele>136</ele>
        <time>2022-08-20T10:06:44Z</time>
      </trkpt>
      <trkpt lat="43.71885" lon="-0.1422">
        <ele>136</ele>
        <time>2022-08-20T10:06:48Z</time>
      </trkpt>
      <trkpt lat="43.71867" lon="-0.14245">
        <ele>135</ele>
        <time>2022-08-20T10:07:09Z</time>
      </trkpt>
      <trkpt lat="43.71848" lon="-0.14298">
        <ele>135</ele>
        <time>2022-08-20T10:07:43Z</time>
      </trkpt>
      <trkpt lat="43.71842" lon="-0.14317">
        <ele>136</ele>
        <time>2022-08-20T10:07:55Z</time>
      </trkpt>
      <trkpt lat="43.71826" lon="-0.14355">
        <ele>137</ele>
        <time>2022-08-20T10:08:18Z</time>
      </trkpt>
      <trkpt lat="43.71808" lon="-0.14407">
        <ele>138</ele>
        <time>2022-08-20T10:08:49Z</time>
      </trkpt>
      <trkpt lat="43.71793" lon="-0.14437">
        <ele>139</ele>
        <time>2022-08-20T10:09:09Z</time>
      </trkpt>
      <trkpt lat="43.7179" lon="-0.14441">
        <ele>139</ele>
        <time>2022-08-20T10:09:13Z</time>
      </trkpt>
      <trkpt lat="43.71761" lon="-0.14477">
        <ele>140</ele>
        <time>2022-08-20T10:09:44Z</time>
      </trkpt>
      <trkpt lat="43.71757" lon="-0.14482">
        <ele>141</ele>
        <time>2022-08-20T10:09:48Z</time>
      </trkpt>
      <trkpt lat="43.71753" lon="-0.14486">
        <ele>141</ele>
        <time>2022-08-20T10:09:52Z</time>
      </trkpt>
      <trkpt lat="43.71749" lon="-0.14491">
        <ele>141</ele>
        <time>2022-08-20T10:09:56Z</time>
      </trkpt>
      <trkpt lat="43.71718" lon="-0.14526">
        <ele>141</ele>
        <time>2022-08-20T10:10:27Z</time>
      </trkpt>
      <trkpt lat="43.71701" lon="-0.14545">
        <ele>141</ele>
        <time>2022-08-20T10:10:44Z</time>
      </trkpt>
      <trkpt lat="43.71684" lon="-0.14561">
        <ele>140</ele>
        <time>2022-08-20T10:11:00Z</time>
      </trkpt>
      <trkpt lat="43.71668" lon="-0.14576">
        <ele>139</ele>
        <time>2022-08-20T10:11:16Z</time>
      </trkpt>
      <trkpt lat="43.7166" lon="-0.14585">
        <ele>138</ele>
        <time>2022-08-20T10:11:24Z</time>
      </trkpt>
      <trkpt lat="43.71642" lon="-0.14597">
        <ele>137</ele>
        <time>2022-08-20T10:11:40Z</time>
      </trkpt>
      <trkpt lat="43.71627" lon="-0.14599">
        <ele>136</ele>
        <time>2022-08-20T10:11:51Z</time>
      </trkpt>
      <trkpt lat="43.71596" lon="-0.14597">
        <ele>135</ele>
        <time>2022-08-20T10:12:16Z</time>
      </trkpt>
      <trkpt lat="43.71591" lon="-0.14599">
        <ele>134</ele>
        <time>2022-08-20T10:12:21Z</time>
      </trkpt>
      <trkpt lat="43.71586" lon="-0.14604">
        <ele>134</ele>
        <time>2022-08-20T10:12:24Z</time>
      </trkpt>
      <trkpt lat="43.71576" lon="-0.1461">
        <ele>134</ele>
        <time>2022-08-20T10:12:33Z</time>
      </trkpt>
      <trkpt lat="43.71549" lon="-0.14634">
        <ele>134</ele>
        <time>2022-08-20T10:12:57Z</time>
      </trkpt>
      <trkpt lat="43.71527" lon="-0.14665">
        <ele>135</ele>
        <time>2022-08-20T10:13:22Z</time>
      </trkpt>
      <trkpt lat="43.71522" lon="-0.14668">
        <ele>135</ele>
        <time>2022-08-20T10:13:26Z</time>
      </trkpt>
      <trkpt lat="43.71515" lon="-0.14678">
        <ele>135</ele>
        <time>2022-08-20T10:13:34Z</time>
      </trkpt>
      <trkpt lat="43.71492" lon="-0.14699">
        <ele>138</ele>
        <time>2022-08-20T10:13:55Z</time>
      </trkpt>
      <trkpt lat="43.7149" lon="-0.14705">
        <ele>138</ele>
        <time>2022-08-20T10:13:59Z</time>
      </trkpt>
      <trkpt lat="43.71485" lon="-0.14712">
        <ele>139</ele>
        <time>2022-08-20T10:14:05Z</time>
      </trkpt>
      <trkpt lat="43.71451" lon="-0.14741">
        <ele>141</ele>
        <time>2022-08-20T10:14:37Z</time>
      </trkpt>
      <trkpt lat="43.71445" lon="-0.14745">
        <ele>141</ele>
        <time>2022-08-20T10:14:42Z</time>
      </trkpt>
      <trkpt lat="43.71408" lon="-0.14771">
        <ele>140</ele>
        <time>2022-08-20T10:15:15Z</time>
      </trkpt>
      <trkpt lat="43.71398" lon="-0.14773">
        <ele>139</ele>
        <time>2022-08-20T10:15:25Z</time>
      </trkpt>
      <trkpt lat="43.71361" lon="-0.14793">
        <ele>137</ele>
        <time>2022-08-20T10:15:52Z</time>
      </trkpt>
      <trkpt lat="43.71337" lon="-0.14814">
        <ele>136</ele>
        <time>2022-08-20T10:16:17Z</time>
      </trkpt>
      <trkpt lat="43.7133" lon="-0.14824">
        <ele>136</ele>
        <time>2022-08-20T10:16:25Z</time>
      </trkpt>
      <trkpt lat="43.71298" lon="-0.14857">
        <ele>136</ele>
        <time>2022-08-20T10:16:58Z</time>
      </trkpt>
      <trkpt lat="43.71276" lon="-0.14876">
        <ele>137</ele>
        <time>2022-08-20T10:17:18Z</time>
      </trkpt>
      <trkpt lat="43.71272" lon="-0.14879">
        <ele>138</ele>
        <time>2022-08-20T10:17:22Z</time>
      </trkpt>
      <trkpt lat="43.71258" lon="-0.14889">
        <ele>138</ele>
        <time>2022-08-20T10:17:35Z</time>
      </trkpt>
      <trkpt lat="43.7122" lon="-0.14908">
        <ele>140</ele>
        <time>2022-08-20T10:18:07Z</time>
      </trkpt>
      <trkpt lat="43.71215" lon="-0.14911">
        <ele>140</ele>
        <time>2022-08-20T10:18:11Z</time>
      </trkpt>
      <trkpt lat="43.712" lon="-0.14917">
        <ele>140</ele>
        <time>2022-08-20T10:18:22Z</time>
      </trkpt>
      <trkpt lat="43.71195" lon="-0.14919">
        <ele>140</ele>
        <time>2022-08-20T10:18:26Z</time>
      </trkpt>
      <trkpt lat="43.71155" lon="-0.14928">
        <ele>140</ele>
        <time>2022-08-20T10:18:57Z</time>
      </trkpt>
      <trkpt lat="43.71118" lon="-0.14932">
        <ele>140</ele>
        <time>2022-08-20T10:19:25Z</time>
      </trkpt>
      <trkpt lat="43.71113" lon="-0.14932">
        <ele>140</ele>
        <time>2022-08-20T10:19:29Z</time>
      </trkpt>
      <trkpt lat="43.71092" lon="-0.14936">
        <ele>140</ele>
        <time>2022-08-20T10:19:44Z</time>
      </trkpt>
      <trkpt lat="43.71083" lon="-0.14935">
        <ele>141</ele>
        <time>2022-08-20T10:19:51Z</time>
      </trkpt>
      <trkpt lat="43.71042" lon="-0.14942">
        <ele>140</ele>
        <time>2022-08-20T10:20:23Z</time>
      </trkpt>
      <trkpt lat="43.71" lon="-0.14948">
        <ele>140</ele>
        <time>2022-08-20T10:20:57Z</time>
      </trkpt>
      <trkpt lat="43.7099" lon="-0.1495">
        <ele>140</ele>
        <time>2022-08-20T10:21:04Z</time>
      </trkpt>
      <trkpt lat="43.7098" lon="-0.14949">
        <ele>139</ele>
        <time>2022-08-20T10:21:12Z</time>
      </trkpt>
      <trkpt lat="43.70975" lon="-0.1495">
        <ele>139</ele>
        <time>2022-08-20T10:21:16Z</time>
      </trkpt>
      <trkpt lat="43.70933" lon="-0.14955">
        <ele>139</ele>
        <time>2022-08-20T10:21:49Z</time>
      </trkpt>
      <trkpt lat="43.70902" lon="-0.14957">
        <ele>139</ele>
        <time>2022-08-20T10:22:13Z</time>
      </trkpt>
      <trkpt lat="43.70885" lon="-0.14952">
        <ele>139</ele>
        <time>2022-08-20T10:22:27Z</time>
      </trkpt>
      <trkpt lat="43.70865" lon="-0.14938">
        <ele>140</ele>
        <time>2022-08-20T10:22:45Z</time>
      </trkpt>
      <trkpt lat="43.70857" lon="-0.14928">
        <ele>140</ele>
        <time>2022-08-20T10:22:55Z</time>
      </trkpt>
      <trkpt lat="43.70852" lon="-0.14924">
        <ele>140</ele>
        <time>2022-08-20T10:23:01Z</time>
      </trkpt>
      <trkpt lat="43.70845" lon="-0.14914">
        <ele>140</ele>
        <time>2022-08-20T10:23:08Z</time>
      </trkpt>
      <trkpt lat="43.70837" lon="-0.14905">
        <ele>140</ele>
        <time>2022-08-20T10:23:16Z</time>
      </trkpt>
      <trkpt lat="43.70833" lon="-0.14902">
        <ele>140</ele>
        <time>2022-08-20T10:23:20Z</time>
      </trkpt>
      <trkpt lat="43.70803" lon="-0.14869">
        <ele>137</ele>
        <time>2022-08-20T10:23:52Z</time>
      </trkpt>
      <trkpt lat="43.70779" lon="-0.14843">
        <ele>137</ele>
        <time>2022-08-20T10:24:15Z</time>
      </trkpt>
      <trkpt lat="43.7077" lon="-0.14835">
        <ele>137</ele>
        <time>2022-08-20T10:24:22Z</time>
      </trkpt>
      <trkpt lat="43.70762" lon="-0.14825">
        <ele>136</ele>
        <time>2022-08-20T10:24:30Z</time>
      </trkpt>
      <trkpt lat="43.70758" lon="-0.1482">
        <ele>136</ele>
        <time>2022-08-20T10:24:35Z</time>
      </trkpt>
      <trkpt lat="43.70723" lon="-0.14802">
        <ele>134</ele>
        <time>2022-08-20T10:25:04Z</time>
      </trkpt>
      <trkpt lat="43.70711" lon="-0.14788">
        <ele>134</ele>
        <time>2022-08-20T10:25:15Z</time>
      </trkpt>
      <trkpt lat="43.70706" lon="-0.14785">
        <ele>133</ele>
        <time>2022-08-20T10:25:19Z</time>
      </trkpt>
      <trkpt lat="43.70692" lon="-0.14774">
        <ele>133</ele>
        <time>2022-08-20T10:25:31Z</time>
      </trkpt>
      <trkpt lat="43.70688" lon="-0.1477">
        <ele>132</ele>
        <time>2022-08-20T10:25:36Z</time>
      </trkpt>
      <trkpt lat="43.70657" lon="-0.14741">
        <ele>130</ele>
        <time>2022-08-20T10:26:07Z</time>
      </trkpt>
      <trkpt lat="43.70625" lon="-0.14719">
        <ele>128</ele>
        <time>2022-08-20T10:26:35Z</time>
      </trkpt>
      <trkpt lat="43.70623" lon="-0.14714">
        <ele>128</ele>
        <time>2022-08-20T10:26:39Z</time>
      </trkpt>
      <trkpt lat="43.70619" lon="-0.14711">
        <ele>128</ele>
        <time>2022-08-20T10:26:44Z</time>
      </trkpt>
      <trkpt lat="43.70618" lon="-0.14704">
        <ele>127</ele>
        <time>2022-08-20T10:26:48Z</time>
      </trkpt>
      <trkpt lat="43.7062" lon="-0.14697">
        <ele>128</ele>
        <time>2022-08-20T10:26:52Z</time>
      </trkpt>
      <trkpt lat="43.70639" lon="-0.1466">
        <ele>130</ele>
        <time>2022-08-20T10:27:19Z</time>
      </trkpt>
      <trkpt lat="43.70642" lon="-0.14651">
        <ele>130</ele>
        <time>2022-08-20T10:27:26Z</time>
      </trkpt>
      <trkpt lat="43.70649" lon="-0.14639">
        <ele>131</ele>
        <time>2022-08-20T10:27:36Z</time>
      </trkpt>
      <trkpt lat="43.70656" lon="-0.14629">
        <ele>132</ele>
        <time>2022-08-20T10:27:45Z</time>
      </trkpt>
      <trkpt lat="43.70659" lon="-0.14622">
        <ele>132</ele>
        <time>2022-08-20T10:27:49Z</time>
      </trkpt>
      <trkpt lat="43.70659" lon="-0.14616">
        <ele>132</ele>
        <time>2022-08-20T10:27:54Z</time>
      </trkpt>
      <trkpt lat="43.70656" lon="-0.14611">
        <ele>133</ele>
        <time>2022-08-20T10:28:07Z</time>
      </trkpt>
      <trkpt lat="43.70654" lon="-0.14602">
        <ele>133</ele>
        <time>2022-08-20T10:28:12Z</time>
      </trkpt>
      <trkpt lat="43.70651" lon="-0.14599">
        <ele>132</ele>
        <time>2022-08-20T10:28:16Z</time>
      </trkpt>
      <trkpt lat="43.70646" lon="-0.14592">
        <ele>132</ele>
        <time>2022-08-20T10:28:22Z</time>
      </trkpt>
      <trkpt lat="43.70641" lon="-0.14589">
        <ele>133</ele>
        <time>2022-08-20T10:28:26Z</time>
      </trkpt>
      <trkpt lat="43.70632" lon="-0.14578">
        <ele>132</ele>
        <time>2022-08-20T10:28:37Z</time>
      </trkpt>
      <trkpt lat="43.70628" lon="-0.14574">
        <ele>132</ele>
        <time>2022-08-20T10:28:42Z</time>
      </trkpt>
      <trkpt lat="43.70628" lon="-0.14578">
        <ele>129</ele>
        <time>2022-08-20T10:54:17Z</time>
      </trkpt>
      <trkpt lat="43.70623" lon="-0.14574">
        <ele>129</ele>
        <time>2022-08-20T10:55:57Z</time>
      </trkpt>
      <trkpt lat="43.70625" lon="-0.14571">
        <ele>129</ele>
        <time>2022-08-20T11:03:18Z</time>
      </trkpt>
      <trkpt lat="43.70629" lon="-0.1458">
        <ele>128</ele>
        <time>2022-08-20T11:07:16Z</time>
      </trkpt>
      <trkpt lat="43.70634" lon="-0.14582">
        <ele>129</ele>
        <time>2022-08-20T11:07:21Z</time>
      </trkpt>
      <trkpt lat="43.70637" lon="-0.14588">
        <ele>129</ele>
        <time>2022-08-20T11:07:28Z</time>
      </trkpt>
      <trkpt lat="43.70636" lon="-0.14595">
        <ele>129</ele>
        <time>2022-08-20T11:07:36Z</time>
      </trkpt>
      <trkpt lat="43.70637" lon="-0.1459">
        <ele>130</ele>
        <time>2022-08-20T11:09:08Z</time>
      </trkpt>
      <trkpt lat="43.70632" lon="-0.14585">
        <ele>130</ele>
        <time>2022-08-20T11:09:19Z</time>
      </trkpt>
      <trkpt lat="43.7063" lon="-0.14578">
        <ele>130</ele>
        <time>2022-08-20T11:09:23Z</time>
      </trkpt>
      <trkpt lat="43.70631" lon="-0.14581">
        <ele>128</ele>
        <time>2022-08-20T11:14:29Z</time>
      </trkpt>
      <trkpt lat="43.70645" lon="-0.14591">
        <ele>129</ele>
        <time>2022-08-20T11:14:49Z</time>
      </trkpt>
      <trkpt lat="43.70648" lon="-0.14596">
        <ele>129</ele>
        <time>2022-08-20T11:14:54Z</time>
      </trkpt>
      <trkpt lat="43.70653" lon="-0.14593">
        <ele>130</ele>
        <time>2022-08-20T11:14:58Z</time>
      </trkpt>
      <trkpt lat="43.70657" lon="-0.14589">
        <ele>129</ele>
        <time>2022-08-20T11:15:02Z</time>
      </trkpt>
      <trkpt lat="43.70656" lon="-0.1458">
        <ele>129</ele>
        <time>2022-08-20T11:15:11Z</time>
      </trkpt>
      <trkpt lat="43.70656" lon="-0.14582">
        <ele>130</ele>
        <time>2022-08-20T11:15:46Z</time>
      </trkpt>
      <trkpt lat="43.70659" lon="-0.14593">
        <ele>129</ele>
        <time>2022-08-20T11:15:57Z</time>
      </trkpt>
      <trkpt lat="43.70658" lon="-0.146">
        <ele>129</ele>
        <time>2022-08-20T11:16:03Z</time>
      </trkpt>
      <trkpt lat="43.70657" lon="-0.14607">
        <ele>129</ele>
        <time>2022-08-20T11:16:08Z</time>
      </trkpt>
      <trkpt lat="43.70656" lon="-0.14617">
        <ele>129</ele>
        <time>2022-08-20T11:16:22Z</time>
      </trkpt>
      <trkpt lat="43.70654" lon="-0.14622">
        <ele>129</ele>
        <time>2022-08-20T11:16:25Z</time>
      </trkpt>
      <trkpt lat="43.70651" lon="-0.14628">
        <ele>129</ele>
        <time>2022-08-20T11:16:28Z</time>
      </trkpt>
      <trkpt lat="43.70648" lon="-0.14633">
        <ele>129</ele>
        <time>2022-08-20T11:16:32Z</time>
      </trkpt>
      <trkpt lat="43.70641" lon="-0.14652">
        <ele>128</ele>
        <time>2022-08-20T11:16:45Z</time>
      </trkpt>
      <trkpt lat="43.70637" lon="-0.14657">
        <ele>128</ele>
        <time>2022-08-20T11:16:50Z</time>
      </trkpt>
      <trkpt lat="43.70635" lon="-0.14664">
        <ele>127</ele>
        <time>2022-08-20T11:16:54Z</time>
      </trkpt>
      <trkpt lat="43.70627" lon="-0.14671">
        <ele>126</ele>
        <time>2022-08-20T11:17:04Z</time>
      </trkpt>
      <trkpt lat="43.70625" lon="-0.14677">
        <ele>126</ele>
        <time>2022-08-20T11:17:08Z</time>
      </trkpt>
      <trkpt lat="43.70618" lon="-0.14688">
        <ele>126</ele>
        <time>2022-08-20T11:17:17Z</time>
      </trkpt>
      <trkpt lat="43.70613" lon="-0.14702">
        <ele>125</ele>
        <time>2022-08-20T11:17:25Z</time>
      </trkpt>
      <trkpt lat="43.70614" lon="-0.14708">
        <ele>125</ele>
        <time>2022-08-20T11:17:29Z</time>
      </trkpt>
      <trkpt lat="43.70616" lon="-0.14714">
        <ele>125</ele>
        <time>2022-08-20T11:17:32Z</time>
      </trkpt>
      <trkpt lat="43.70621" lon="-0.14719">
        <ele>125</ele>
        <time>2022-08-20T11:17:35Z</time>
      </trkpt>
      <trkpt lat="43.70626" lon="-0.14722">
        <ele>126</ele>
        <time>2022-08-20T11:17:39Z</time>
      </trkpt>
      <trkpt lat="43.7064" lon="-0.14736">
        <ele>127</ele>
        <time>2022-08-20T11:17:51Z</time>
      </trkpt>
      <trkpt lat="43.70645" lon="-0.14738">
        <ele>127</ele>
        <time>2022-08-20T11:17:55Z</time>
      </trkpt>
      <trkpt lat="43.70662" lon="-0.14751">
        <ele>128</ele>
        <time>2022-08-20T11:18:11Z</time>
      </trkpt>
      <trkpt lat="43.70667" lon="-0.14753">
        <ele>129</ele>
        <time>2022-08-20T11:18:15Z</time>
      </trkpt>
      <trkpt lat="43.70702" lon="-0.14785">
        <ele>132</ele>
        <time>2022-08-20T11:18:49Z</time>
      </trkpt>
      <trkpt lat="43.70706" lon="-0.14788">
        <ele>132</ele>
        <time>2022-08-20T11:18:53Z</time>
      </trkpt>
      <trkpt lat="43.70719" lon="-0.14803">
        <ele>133</ele>
        <time>2022-08-20T11:19:08Z</time>
      </trkpt>
      <trkpt lat="43.70744" lon="-0.14824">
        <ele>136</ele>
        <time>2022-08-20T11:19:32Z</time>
      </trkpt>
      <trkpt lat="43.70749" lon="-0.14826">
        <ele>136</ele>
        <time>2022-08-20T11:19:36Z</time>
      </trkpt>
      <trkpt lat="43.70756" lon="-0.14829">
        <ele>136</ele>
        <time>2022-08-20T11:19:40Z</time>
      </trkpt>
      <trkpt lat="43.7076" lon="-0.14834">
        <ele>136</ele>
        <time>2022-08-20T11:19:44Z</time>
      </trkpt>
      <trkpt lat="43.70766" lon="-0.14837">
        <ele>137</ele>
        <time>2022-08-20T11:19:48Z</time>
      </trkpt>
      <trkpt lat="43.70782" lon="-0.14855">
        <ele>137</ele>
        <time>2022-08-20T11:20:03Z</time>
      </trkpt>
      <trkpt lat="43.70786" lon="-0.14863">
        <ele>137</ele>
        <time>2022-08-20T11:20:09Z</time>
      </trkpt>
      <trkpt lat="43.70791" lon="-0.14867">
        <ele>137</ele>
        <time>2022-08-20T11:20:14Z</time>
      </trkpt>
      <trkpt lat="43.70822" lon="-0.14895">
        <ele>138</ele>
        <time>2022-08-20T11:20:45Z</time>
      </trkpt>
      <trkpt lat="43.70826" lon="-0.14899">
        <ele>138</ele>
        <time>2022-08-20T11:20:49Z</time>
      </trkpt>
      <trkpt lat="43.70835" lon="-0.1491">
        <ele>139</ele>
        <time>2022-08-20T11:20:58Z</time>
      </trkpt>
      <trkpt lat="43.70837" lon="-0.14916">
        <ele>139</ele>
        <time>2022-08-20T11:21:02Z</time>
      </trkpt>
      <trkpt lat="43.70853" lon="-0.14933">
        <ele>140</ele>
        <time>2022-08-20T11:21:18Z</time>
      </trkpt>
      <trkpt lat="43.70858" lon="-0.14936">
        <ele>140</ele>
        <time>2022-08-20T11:21:23Z</time>
      </trkpt>
      <trkpt lat="43.70871" lon="-0.14949">
        <ele>140</ele>
        <time>2022-08-20T11:21:37Z</time>
      </trkpt>
      <trkpt lat="43.70873" lon="-0.14956">
        <ele>140</ele>
        <time>2022-08-20T11:21:41Z</time>
      </trkpt>
      <trkpt lat="43.70869" lon="-0.14961">
        <ele>140</ele>
        <time>2022-08-20T11:21:45Z</time>
      </trkpt>
      <trkpt lat="43.70845" lon="-0.14965">
        <ele>142</ele>
        <time>2022-08-20T11:22:06Z</time>
      </trkpt>
      <trkpt lat="43.7084" lon="-0.14968">
        <ele>143</ele>
        <time>2022-08-20T11:22:13Z</time>
      </trkpt>
      <trkpt lat="43.70836" lon="-0.14981">
        <ele>144</ele>
        <time>2022-08-20T11:22:39Z</time>
      </trkpt>
      <trkpt lat="43.70834" lon="-0.14991">
        <ele>145</ele>
        <time>2022-08-20T11:22:47Z</time>
      </trkpt>
      <trkpt lat="43.70834" lon="-0.14998">
        <ele>145</ele>
        <time>2022-08-20T11:22:51Z</time>
      </trkpt>
      <trkpt lat="43.70835" lon="-0.15004">
        <ele>146</ele>
        <time>2022-08-20T11:22:55Z</time>
      </trkpt>
      <trkpt lat="43.70835" lon="-0.15024">
        <ele>146</ele>
        <time>2022-08-20T11:23:05Z</time>
      </trkpt>
      <trkpt lat="43.7084" lon="-0.1508">
        <ele>145</ele>
        <time>2022-08-20T11:23:38Z</time>
      </trkpt>
      <trkpt lat="43.70839" lon="-0.1513">
        <ele>144</ele>
        <time>2022-08-20T11:24:05Z</time>
      </trkpt>
      <trkpt lat="43.70837" lon="-0.15145">
        <ele>144</ele>
        <time>2022-08-20T11:24:14Z</time>
      </trkpt>
      <trkpt lat="43.70835" lon="-0.15151">
        <ele>144</ele>
        <time>2022-08-20T11:24:18Z</time>
      </trkpt>
      <trkpt lat="43.70831" lon="-0.15156">
        <ele>144</ele>
        <time>2022-08-20T11:24:22Z</time>
      </trkpt>
      <trkpt lat="43.70823" lon="-0.15167">
        <ele>145</ele>
        <time>2022-08-20T11:24:32Z</time>
      </trkpt>
      <trkpt lat="43.70819" lon="-0.15173">
        <ele>145</ele>
        <time>2022-08-20T11:24:37Z</time>
      </trkpt>
      <trkpt lat="43.70813" lon="-0.15175">
        <ele>145</ele>
        <time>2022-08-20T11:24:42Z</time>
      </trkpt>
      <trkpt lat="43.70809" lon="-0.15178">
        <ele>145</ele>
        <time>2022-08-20T11:24:45Z</time>
      </trkpt>
      <trkpt lat="43.70792" lon="-0.152">
        <ele>145</ele>
        <time>2022-08-20T11:25:03Z</time>
      </trkpt>
      <trkpt lat="43.70764" lon="-0.15247">
        <ele>145</ele>
        <time>2022-08-20T11:25:34Z</time>
      </trkpt>
      <trkpt lat="43.70743" lon="-0.15293">
        <ele>145</ele>
        <time>2022-08-20T11:26:07Z</time>
      </trkpt>
      <trkpt lat="43.70718" lon="-0.15342">
        <ele>146</ele>
        <time>2022-08-20T11:26:40Z</time>
      </trkpt>
      <trkpt lat="43.70694" lon="-0.15387">
        <ele>146</ele>
        <time>2022-08-20T11:27:12Z</time>
      </trkpt>
      <trkpt lat="43.70667" lon="-0.15418">
        <ele>145</ele>
        <time>2022-08-20T11:27:41Z</time>
      </trkpt>
      <trkpt lat="43.70631" lon="-0.15446">
        <ele>142</ele>
        <time>2022-08-20T11:28:13Z</time>
      </trkpt>
      <trkpt lat="43.70627" lon="-0.15452">
        <ele>142</ele>
        <time>2022-08-20T11:28:17Z</time>
      </trkpt>
      <trkpt lat="43.70613" lon="-0.15461">
        <ele>141</ele>
        <time>2022-08-20T11:28:27Z</time>
      </trkpt>
      <trkpt lat="43.70572" lon="-0.15472">
        <ele>140</ele>
        <time>2022-08-20T11:29:00Z</time>
      </trkpt>
      <trkpt lat="43.70567" lon="-0.15474">
        <ele>140</ele>
        <time>2022-08-20T11:29:04Z</time>
      </trkpt>
      <trkpt lat="43.70561" lon="-0.15473">
        <ele>140</ele>
        <time>2022-08-20T11:29:09Z</time>
      </trkpt>
      <trkpt lat="43.70546" lon="-0.15478">
        <ele>140</ele>
        <time>2022-08-20T11:29:21Z</time>
      </trkpt>
      <trkpt lat="43.70541" lon="-0.1548">
        <ele>140</ele>
        <time>2022-08-20T11:29:26Z</time>
      </trkpt>
      <trkpt lat="43.70525" lon="-0.15481">
        <ele>141</ele>
        <time>2022-08-20T11:29:38Z</time>
      </trkpt>
      <trkpt lat="43.70484" lon="-0.15496">
        <ele>141</ele>
        <time>2022-08-20T11:30:09Z</time>
      </trkpt>
      <trkpt lat="43.70446" lon="-0.15513">
        <ele>140</ele>
        <time>2022-08-20T11:30:42Z</time>
      </trkpt>
      <trkpt lat="43.70407" lon="-0.15528">
        <ele>138</ele>
        <time>2022-08-20T11:31:15Z</time>
      </trkpt>
      <trkpt lat="43.7037" lon="-0.15545">
        <ele>135</ele>
        <time>2022-08-20T11:31:48Z</time>
      </trkpt>
      <trkpt lat="43.70331" lon="-0.15564">
        <ele>132</ele>
        <time>2022-08-20T11:32:19Z</time>
      </trkpt>
      <trkpt lat="43.70312" lon="-0.15575">
        <ele>130</ele>
        <time>2022-08-20T11:32:35Z</time>
      </trkpt>
      <trkpt lat="43.70295" lon="-0.15585">
        <ele>128</ele>
        <time>2022-08-20T11:32:51Z</time>
      </trkpt>
      <trkpt lat="43.70255" lon="-0.15601">
        <ele>126</ele>
        <time>2022-08-20T11:33:23Z</time>
      </trkpt>
      <trkpt lat="43.70251" lon="-0.15604">
        <ele>126</ele>
        <time>2022-08-20T11:33:27Z</time>
      </trkpt>
      <trkpt lat="43.70241" lon="-0.15607">
        <ele>125</ele>
        <time>2022-08-20T11:33:35Z</time>
      </trkpt>
      <trkpt lat="43.70216" lon="-0.15623">
        <ele>124</ele>
        <time>2022-08-20T11:33:59Z</time>
      </trkpt>
      <trkpt lat="43.70185" lon="-0.15635">
        <ele>121</ele>
        <time>2022-08-20T11:34:25Z</time>
      </trkpt>
      <trkpt lat="43.70152" lon="-0.15656">
        <ele>117</ele>
        <time>2022-08-20T11:34:50Z</time>
      </trkpt>
      <trkpt lat="43.70149" lon="-0.1566">
        <ele>116</ele>
        <time>2022-08-20T11:34:54Z</time>
      </trkpt>
      <trkpt lat="43.70146" lon="-0.15665">
        <ele>116</ele>
        <time>2022-08-20T11:34:58Z</time>
      </trkpt>
      <trkpt lat="43.70143" lon="-0.15671">
        <ele>115</ele>
        <time>2022-08-20T11:35:03Z</time>
      </trkpt>
      <trkpt lat="43.70143" lon="-0.15677">
        <ele>115</ele>
        <time>2022-08-20T11:35:07Z</time>
      </trkpt>
      <trkpt lat="43.70145" lon="-0.1572">
        <ele>112</ele>
        <time>2022-08-20T11:35:32Z</time>
      </trkpt>
      <trkpt lat="43.7014" lon="-0.15781">
        <ele>109</ele>
        <time>2022-08-20T11:36:07Z</time>
      </trkpt>
      <trkpt lat="43.70138" lon="-0.158">
        <ele>108</ele>
        <time>2022-08-20T11:36:18Z</time>
      </trkpt>
      <trkpt lat="43.70138" lon="-0.15814">
        <ele>108</ele>
        <time>2022-08-20T11:36:26Z</time>
      </trkpt>
      <trkpt lat="43.70133" lon="-0.15842">
        <ele>107</ele>
        <time>2022-08-20T11:36:42Z</time>
      </trkpt>
      <trkpt lat="43.70131" lon="-0.15848">
        <ele>107</ele>
        <time>2022-08-20T11:36:46Z</time>
      </trkpt>
      <trkpt lat="43.70123" lon="-0.15856">
        <ele>106</ele>
        <time>2022-08-20T11:36:54Z</time>
      </trkpt>
      <trkpt lat="43.70097" lon="-0.15876">
        <ele>106</ele>
        <time>2022-08-20T11:37:19Z</time>
      </trkpt>
      <trkpt lat="43.70063" lon="-0.15893">
        <ele>106</ele>
        <time>2022-08-20T11:37:46Z</time>
      </trkpt>
      <trkpt lat="43.70051" lon="-0.15907">
        <ele>106</ele>
        <time>2022-08-20T11:37:58Z</time>
      </trkpt>
      <trkpt lat="43.70048" lon="-0.15912">
        <ele>106</ele>
        <time>2022-08-20T11:38:01Z</time>
      </trkpt>
      <trkpt lat="43.70046" lon="-0.15918">
        <ele>106</ele>
        <time>2022-08-20T11:38:05Z</time>
      </trkpt>
      <trkpt lat="43.70026" lon="-0.1595">
        <ele>106</ele>
        <time>2022-08-20T11:38:29Z</time>
      </trkpt>
      <trkpt lat="43.70022" lon="-0.15953">
        <ele>106</ele>
        <time>2022-08-20T11:38:34Z</time>
      </trkpt>
      <trkpt lat="43.70017" lon="-0.15954">
        <ele>106</ele>
        <time>2022-08-20T11:38:38Z</time>
      </trkpt>
      <trkpt lat="43.70012" lon="-0.15953">
        <ele>106</ele>
        <time>2022-08-20T11:38:43Z</time>
      </trkpt>
      <trkpt lat="43.70007" lon="-0.15959">
        <ele>106</ele>
        <time>2022-08-20T11:38:56Z</time>
      </trkpt>
      <trkpt lat="43.70002" lon="-0.15961">
        <ele>106</ele>
        <time>2022-08-20T11:39:00Z</time>
      </trkpt>
      <trkpt lat="43.69989" lon="-0.15963">
        <ele>106</ele>
        <time>2022-08-20T11:39:11Z</time>
      </trkpt>
      <trkpt lat="43.69955" lon="-0.1598">
        <ele>106</ele>
        <time>2022-08-20T11:39:42Z</time>
      </trkpt>
      <trkpt lat="43.6995" lon="-0.15983">
        <ele>105</ele>
        <time>2022-08-20T11:39:46Z</time>
      </trkpt>
      <trkpt lat="43.69912" lon="-0.16003">
        <ele>105</ele>
        <time>2022-08-20T11:40:18Z</time>
      </trkpt>
      <trkpt lat="43.69886" lon="-0.16015">
        <ele>105</ele>
        <time>2022-08-20T11:40:42Z</time>
      </trkpt>
      <trkpt lat="43.69861" lon="-0.1603">
        <ele>105</ele>
        <time>2022-08-20T11:41:03Z</time>
      </trkpt>
      <trkpt lat="43.6985" lon="-0.16035">
        <ele>105</ele>
        <time>2022-08-20T11:41:12Z</time>
      </trkpt>
      <trkpt lat="43.69841" lon="-0.16043">
        <ele>105</ele>
        <time>2022-08-20T11:41:19Z</time>
      </trkpt>
      <trkpt lat="43.69829" lon="-0.16051">
        <ele>105</ele>
        <time>2022-08-20T11:41:37Z</time>
      </trkpt>
      <trkpt lat="43.69812" lon="-0.16067">
        <ele>105</ele>
        <time>2022-08-20T11:41:54Z</time>
      </trkpt>
      <trkpt lat="43.69807" lon="-0.1607">
        <ele>105</ele>
        <time>2022-08-20T11:41:58Z</time>
      </trkpt>
      <trkpt lat="43.69784" lon="-0.16084">
        <ele>104</ele>
        <time>2022-08-20T11:42:19Z</time>
      </trkpt>
      <trkpt lat="43.6978" lon="-0.16088">
        <ele>104</ele>
        <time>2022-08-20T11:42:23Z</time>
      </trkpt>
      <trkpt lat="43.69775" lon="-0.1609">
        <ele>104</ele>
        <time>2022-08-20T11:42:27Z</time>
      </trkpt>
      <trkpt lat="43.69741" lon="-0.16122">
        <ele>103</ele>
        <time>2022-08-20T11:42:57Z</time>
      </trkpt>
      <trkpt lat="43.69712" lon="-0.16163">
        <ele>104</ele>
        <time>2022-08-20T11:43:31Z</time>
      </trkpt>
      <trkpt lat="43.69703" lon="-0.16177">
        <ele>104</ele>
        <time>2022-08-20T11:43:43Z</time>
      </trkpt>
      <trkpt lat="43.69687" lon="-0.16195">
        <ele>103</ele>
        <time>2022-08-20T11:43:59Z</time>
      </trkpt>
      <trkpt lat="43.69665" lon="-0.16228">
        <ele>103</ele>
        <time>2022-08-20T11:44:26Z</time>
      </trkpt>
      <trkpt lat="43.69652" lon="-0.16241">
        <ele>103</ele>
        <time>2022-08-20T11:44:39Z</time>
      </trkpt>
      <trkpt lat="43.69649" lon="-0.16247">
        <ele>103</ele>
        <time>2022-08-20T11:44:43Z</time>
      </trkpt>
      <trkpt lat="43.69623" lon="-0.16276">
        <ele>103</ele>
        <time>2022-08-20T11:45:16Z</time>
      </trkpt>
      <trkpt lat="43.69588" lon="-0.16305">
        <ele>102</ele>
        <time>2022-08-20T11:45:51Z</time>
      </trkpt>
      <trkpt lat="43.69575" lon="-0.16314">
        <ele>102</ele>
        <time>2022-08-20T11:46:03Z</time>
      </trkpt>
      <trkpt lat="43.69572" lon="-0.16319">
        <ele>102</ele>
        <time>2022-08-20T11:46:07Z</time>
      </trkpt>
      <trkpt lat="43.69568" lon="-0.16324">
        <ele>102</ele>
        <time>2022-08-20T11:46:11Z</time>
      </trkpt>
      <trkpt lat="43.69536" lon="-0.16352">
        <ele>102</ele>
        <time>2022-08-20T11:46:42Z</time>
      </trkpt>
      <trkpt lat="43.695" lon="-0.16377">
        <ele>102</ele>
        <time>2022-08-20T11:47:13Z</time>
      </trkpt>
      <trkpt lat="43.69497" lon="-0.16384">
        <ele>102</ele>
        <time>2022-08-20T11:47:18Z</time>
      </trkpt>
      <trkpt lat="43.69495" lon="-0.1639">
        <ele>102</ele>
        <time>2022-08-20T11:47:22Z</time>
      </trkpt>
      <trkpt lat="43.69488" lon="-0.16407">
        <ele>102</ele>
        <time>2022-08-20T11:47:34Z</time>
      </trkpt>
      <trkpt lat="43.69487" lon="-0.16414">
        <ele>101</ele>
        <time>2022-08-20T11:47:38Z</time>
      </trkpt>
      <trkpt lat="43.69484" lon="-0.1642">
        <ele>101</ele>
        <time>2022-08-20T11:47:42Z</time>
      </trkpt>
      <trkpt lat="43.69482" lon="-0.16426">
        <ele>102</ele>
        <time>2022-08-20T11:47:47Z</time>
      </trkpt>
      <trkpt lat="43.69477" lon="-0.16446">
        <ele>102</ele>
        <time>2022-08-20T11:47:59Z</time>
      </trkpt>
      <trkpt lat="43.69476" lon="-0.16453">
        <ele>102</ele>
        <time>2022-08-20T11:48:04Z</time>
      </trkpt>
      <trkpt lat="43.69468" lon="-0.16469">
        <ele>102</ele>
        <time>2022-08-20T11:48:15Z</time>
      </trkpt>
      <trkpt lat="43.69451" lon="-0.1652">
        <ele>101</ele>
        <time>2022-08-20T11:48:47Z</time>
      </trkpt>
      <trkpt lat="43.69449" lon="-0.16525">
        <ele>101</ele>
        <time>2022-08-20T11:48:51Z</time>
      </trkpt>
      <trkpt lat="43.69444" lon="-0.16538">
        <ele>101</ele>
        <time>2022-08-20T11:48:59Z</time>
      </trkpt>
      <trkpt lat="43.69427" lon="-0.16588">
        <ele>101</ele>
        <time>2022-08-20T11:49:31Z</time>
      </trkpt>
      <trkpt lat="43.69423" lon="-0.166">
        <ele>101</ele>
        <time>2022-08-20T11:49:39Z</time>
      </trkpt>
      <trkpt lat="43.69417" lon="-0.16611">
        <ele>101</ele>
        <time>2022-08-20T11:49:47Z</time>
      </trkpt>
      <trkpt lat="43.694" lon="-0.1666">
        <ele>101</ele>
        <time>2022-08-20T11:50:18Z</time>
      </trkpt>
      <trkpt lat="43.69389" lon="-0.16713">
        <ele>101</ele>
        <time>2022-08-20T11:50:52Z</time>
      </trkpt>
      <trkpt lat="43.69382" lon="-0.16768">
        <ele>101</ele>
        <time>2022-08-20T11:51:25Z</time>
      </trkpt>
      <trkpt lat="43.69377" lon="-0.16817">
        <ele>101</ele>
        <time>2022-08-20T11:51:54Z</time>
      </trkpt>
      <trkpt lat="43.69375" lon="-0.16823">
        <ele>101</ele>
        <time>2022-08-20T11:51:59Z</time>
      </trkpt>
      <trkpt lat="43.6937" lon="-0.16877">
        <ele>101</ele>
        <time>2022-08-20T11:52:31Z</time>
      </trkpt>
      <trkpt lat="43.69364" lon="-0.16932">
        <ele>100</ele>
        <time>2022-08-20T11:53:05Z</time>
      </trkpt>
      <trkpt lat="43.6936" lon="-0.16968">
        <ele>100</ele>
        <time>2022-08-20T11:53:26Z</time>
      </trkpt>
      <trkpt lat="43.69359" lon="-0.16973">
        <ele>100</ele>
        <time>2022-08-20T11:53:30Z</time>
      </trkpt>
      <trkpt lat="43.69357" lon="-0.17002">
        <ele>100</ele>
        <time>2022-08-20T11:53:48Z</time>
      </trkpt>
      <trkpt lat="43.69355" lon="-0.17009">
        <ele>100</ele>
        <time>2022-08-20T11:53:52Z</time>
      </trkpt>
      <trkpt lat="43.69355" lon="-0.17024">
        <ele>100</ele>
        <time>2022-08-20T11:54:01Z</time>
      </trkpt>
      <trkpt lat="43.69348" lon="-0.17066">
        <ele>99</ele>
        <time>2022-08-20T11:54:29Z</time>
      </trkpt>
      <trkpt lat="43.69332" lon="-0.17105">
        <ele>99</ele>
        <time>2022-08-20T11:54:54Z</time>
      </trkpt>
      <trkpt lat="43.69328" lon="-0.1711">
        <ele>99</ele>
        <time>2022-08-20T11:54:59Z</time>
      </trkpt>
      <trkpt lat="43.69323" lon="-0.17127">
        <ele>99</ele>
        <time>2022-08-20T11:55:22Z</time>
      </trkpt>
      <trkpt lat="43.693" lon="-0.17173">
        <ele>99</ele>
        <time>2022-08-20T11:55:55Z</time>
      </trkpt>
      <trkpt lat="43.69276" lon="-0.17207">
        <ele>98</ele>
        <time>2022-08-20T11:56:25Z</time>
      </trkpt>
      <trkpt lat="43.69271" lon="-0.17211">
        <ele>98</ele>
        <time>2022-08-20T11:56:30Z</time>
      </trkpt>
      <trkpt lat="43.69254" lon="-0.17234">
        <ele>98</ele>
        <time>2022-08-20T11:56:49Z</time>
      </trkpt>
      <trkpt lat="43.69246" lon="-0.17241">
        <ele>98</ele>
        <time>2022-08-20T11:56:57Z</time>
      </trkpt>
      <trkpt lat="43.69238" lon="-0.17249">
        <ele>98</ele>
        <time>2022-08-20T11:57:05Z</time>
      </trkpt>
      <trkpt lat="43.69234" lon="-0.17253">
        <ele>98</ele>
        <time>2022-08-20T11:57:08Z</time>
      </trkpt>
      <trkpt lat="43.69213" lon="-0.1727">
        <ele>98</ele>
        <time>2022-08-20T11:57:28Z</time>
      </trkpt>
      <trkpt lat="43.69209" lon="-0.17274">
        <ele>98</ele>
        <time>2022-08-20T11:57:32Z</time>
      </trkpt>
      <trkpt lat="43.69173" lon="-0.17299">
        <ele>98</ele>
        <time>2022-08-20T11:58:04Z</time>
      </trkpt>
      <trkpt lat="43.69165" lon="-0.17305">
        <ele>98</ele>
        <time>2022-08-20T11:58:12Z</time>
      </trkpt>
      <trkpt lat="43.69155" lon="-0.17312">
        <ele>98</ele>
        <time>2022-08-20T11:58:22Z</time>
      </trkpt>
      <trkpt lat="43.69151" lon="-0.17316">
        <ele>98</ele>
        <time>2022-08-20T11:58:26Z</time>
      </trkpt>
      <trkpt lat="43.69146" lon="-0.17318">
        <ele>98</ele>
        <time>2022-08-20T11:58:30Z</time>
      </trkpt>
      <trkpt lat="43.69142" lon="-0.17322">
        <ele>98</ele>
        <time>2022-08-20T11:58:34Z</time>
      </trkpt>
      <trkpt lat="43.69124" lon="-0.17332">
        <ele>98</ele>
        <time>2022-08-20T11:58:50Z</time>
      </trkpt>
      <trkpt lat="43.6912" lon="-0.17337">
        <ele>98</ele>
        <time>2022-08-20T11:58:54Z</time>
      </trkpt>
      <trkpt lat="43.69087" lon="-0.17363">
        <ele>98</ele>
        <time>2022-08-20T11:59:25Z</time>
      </trkpt>
      <trkpt lat="43.69051" lon="-0.1739">
        <ele>98</ele>
        <time>2022-08-20T11:59:58Z</time>
      </trkpt>
      <trkpt lat="43.69014" lon="-0.17417">
        <ele>98</ele>
        <time>2022-08-20T12:00:32Z</time>
      </trkpt>
      <trkpt lat="43.6901" lon="-0.17421">
        <ele>98</ele>
        <time>2022-08-20T12:00:36Z</time>
      </trkpt>
      <trkpt lat="43.69002" lon="-0.17426">
        <ele>98</ele>
        <time>2022-08-20T12:00:44Z</time>
      </trkpt>
      <trkpt lat="43.68992" lon="-0.17432">
        <ele>98</ele>
        <time>2022-08-20T12:00:51Z</time>
      </trkpt>
      <trkpt lat="43.68983" lon="-0.17438">
        <ele>98</ele>
        <time>2022-08-20T12:00:59Z</time>
      </trkpt>
      <trkpt lat="43.68949" lon="-0.17468">
        <ele>98</ele>
        <time>2022-08-20T12:01:32Z</time>
      </trkpt>
      <trkpt lat="43.68944" lon="-0.17471">
        <ele>98</ele>
        <time>2022-08-20T12:01:36Z</time>
      </trkpt>
      <trkpt lat="43.68942" lon="-0.17477">
        <ele>98</ele>
        <time>2022-08-20T12:01:40Z</time>
      </trkpt>
      <trkpt lat="43.68957" lon="-0.17525">
        <ele>98</ele>
        <time>2022-08-20T12:02:14Z</time>
      </trkpt>
      <trkpt lat="43.68965" lon="-0.17556">
        <ele>97</ele>
        <time>2022-08-20T12:02:43Z</time>
      </trkpt>
      <trkpt lat="43.68967" lon="-0.17564">
        <ele>97</ele>
        <time>2022-08-20T12:03:23Z</time>
      </trkpt>
      <trkpt lat="43.6898" lon="-0.17612">
        <ele>97</ele>
        <time>2022-08-20T12:03:55Z</time>
      </trkpt>
      <trkpt lat="43.68989" lon="-0.17658">
        <ele>97</ele>
        <time>2022-08-20T12:04:24Z</time>
      </trkpt>
      <trkpt lat="43.68993" lon="-0.17663">
        <ele>97</ele>
        <time>2022-08-20T12:04:29Z</time>
      </trkpt>
      <trkpt lat="43.68994" lon="-0.1767">
        <ele>97</ele>
        <time>2022-08-20T12:04:49Z</time>
      </trkpt>
      <trkpt lat="43.69" lon="-0.17689">
        <ele>97</ele>
        <time>2022-08-20T12:05:06Z</time>
      </trkpt>
      <trkpt lat="43.69005" lon="-0.17701">
        <ele>97</ele>
        <time>2022-08-20T12:05:14Z</time>
      </trkpt>
      <trkpt lat="43.6901" lon="-0.1772">
        <ele>97</ele>
        <time>2022-08-20T12:05:26Z</time>
      </trkpt>
      <trkpt lat="43.69013" lon="-0.17726">
        <ele>97</ele>
        <time>2022-08-20T12:05:31Z</time>
      </trkpt>
      <trkpt lat="43.69026" lon="-0.17779">
        <ele>97</ele>
        <time>2022-08-20T12:06:05Z</time>
      </trkpt>
      <trkpt lat="43.69031" lon="-0.17799">
        <ele>97</ele>
        <time>2022-08-20T12:06:17Z</time>
      </trkpt>
      <trkpt lat="43.69038" lon="-0.17817">
        <ele>97</ele>
        <time>2022-08-20T12:06:28Z</time>
      </trkpt>
      <trkpt lat="43.69042" lon="-0.17829">
        <ele>98</ele>
        <time>2022-08-20T12:06:35Z</time>
      </trkpt>
      <trkpt lat="43.69054" lon="-0.17882">
        <ele>96</ele>
        <time>2022-08-20T12:07:08Z</time>
      </trkpt>
      <trkpt lat="43.69068" lon="-0.17931">
        <ele>96</ele>
        <time>2022-08-20T12:07:42Z</time>
      </trkpt>
      <trkpt lat="43.69074" lon="-0.17952">
        <ele>96</ele>
        <time>2022-08-20T12:07:56Z</time>
      </trkpt>
      <trkpt lat="43.69076" lon="-0.17959">
        <ele>96</ele>
        <time>2022-08-20T12:08:08Z</time>
      </trkpt>
      <trkpt lat="43.6908" lon="-0.17971">
        <ele>96</ele>
        <time>2022-08-20T12:08:16Z</time>
      </trkpt>
      <trkpt lat="43.69082" lon="-0.17984">
        <ele>97</ele>
        <time>2022-08-20T12:08:25Z</time>
      </trkpt>
      <trkpt lat="43.69089" lon="-0.18009">
        <ele>96</ele>
        <time>2022-08-20T12:08:41Z</time>
      </trkpt>
      <trkpt lat="43.69102" lon="-0.18057">
        <ele>96</ele>
        <time>2022-08-20T12:09:14Z</time>
      </trkpt>
      <trkpt lat="43.69114" lon="-0.18098">
        <ele>96</ele>
        <time>2022-08-20T12:09:46Z</time>
      </trkpt>
      <trkpt lat="43.69127" lon="-0.18147">
        <ele>96</ele>
        <time>2022-08-20T12:10:19Z</time>
      </trkpt>
      <trkpt lat="43.69132" lon="-0.18159">
        <ele>97</ele>
        <time>2022-08-20T12:10:28Z</time>
      </trkpt>
      <trkpt lat="43.69138" lon="-0.18177">
        <ele>97</ele>
        <time>2022-08-20T12:10:41Z</time>
      </trkpt>
      <trkpt lat="43.69139" lon="-0.18184">
        <ele>97</ele>
        <time>2022-08-20T12:10:45Z</time>
      </trkpt>
      <trkpt lat="43.69144" lon="-0.18195">
        <ele>96</ele>
        <time>2022-08-20T12:10:55Z</time>
      </trkpt>
      <trkpt lat="43.69145" lon="-0.18203">
        <ele>96</ele>
        <time>2022-08-20T12:11:03Z</time>
      </trkpt>
      <trkpt lat="43.69156" lon="-0.18245">
        <ele>96</ele>
        <time>2022-08-20T12:11:35Z</time>
      </trkpt>
      <trkpt lat="43.69158" lon="-0.18253">
        <ele>96</ele>
        <time>2022-08-20T12:11:39Z</time>
      </trkpt>
      <trkpt lat="43.69159" lon="-0.18266">
        <ele>96</ele>
        <time>2022-08-20T12:11:47Z</time>
      </trkpt>
      <trkpt lat="43.69162" lon="-0.18271">
        <ele>96</ele>
        <time>2022-08-20T12:11:51Z</time>
      </trkpt>
      <trkpt lat="43.69166" lon="-0.18285">
        <ele>96</ele>
        <time>2022-08-20T12:11:59Z</time>
      </trkpt>
      <trkpt lat="43.69168" lon="-0.18297">
        <ele>96</ele>
        <time>2022-08-20T12:12:15Z</time>
      </trkpt>
      <trkpt lat="43.6917" lon="-0.18303">
        <ele>96</ele>
        <time>2022-08-20T12:12:19Z</time>
      </trkpt>
      <trkpt lat="43.69182" lon="-0.18344">
        <ele>96</ele>
        <time>2022-08-20T12:12:45Z</time>
      </trkpt>
      <trkpt lat="43.69182" lon="-0.18352">
        <ele>96</ele>
        <time>2022-08-20T12:12:50Z</time>
      </trkpt>
      <trkpt lat="43.69198" lon="-0.18399">
        <ele>96</ele>
        <time>2022-08-20T12:13:23Z</time>
      </trkpt>
      <trkpt lat="43.69202" lon="-0.18419">
        <ele>96</ele>
        <time>2022-08-20T12:13:37Z</time>
      </trkpt>
      <trkpt lat="43.69208" lon="-0.18433">
        <ele>96</ele>
        <time>2022-08-20T12:13:47Z</time>
      </trkpt>
      <trkpt lat="43.6922" lon="-0.18481">
        <ele>96</ele>
        <time>2022-08-20T12:14:18Z</time>
      </trkpt>
      <trkpt lat="43.69233" lon="-0.18532">
        <ele>96</ele>
        <time>2022-08-20T12:14:52Z</time>
      </trkpt>
      <trkpt lat="43.69236" lon="-0.18547">
        <ele>96</ele>
        <time>2022-08-20T12:15:01Z</time>
      </trkpt>
      <trkpt lat="43.69239" lon="-0.18554">
        <ele>96</ele>
        <time>2022-08-20T12:15:11Z</time>
      </trkpt>
      <trkpt lat="43.69239" lon="-0.18564">
        <ele>97</ele>
        <time>2022-08-20T12:15:29Z</time>
      </trkpt>
      <trkpt lat="43.69242" lon="-0.18575">
        <ele>97</ele>
        <time>2022-08-20T12:15:55Z</time>
      </trkpt>
      <trkpt lat="43.69245" lon="-0.18581">
        <ele>97</ele>
        <time>2022-08-20T12:15:59Z</time>
      </trkpt>
      <trkpt lat="43.69254" lon="-0.18611">
        <ele>96</ele>
        <time>2022-08-20T12:16:19Z</time>
      </trkpt>
      <trkpt lat="43.69257" lon="-0.18623">
        <ele>96</ele>
        <time>2022-08-20T12:16:27Z</time>
      </trkpt>
      <trkpt lat="43.69259" lon="-0.18629">
        <ele>96</ele>
        <time>2022-08-20T12:16:31Z</time>
      </trkpt>
      <trkpt lat="43.69272" lon="-0.18672">
        <ele>96</ele>
        <time>2022-08-20T12:17:01Z</time>
      </trkpt>
      <trkpt lat="43.69281" lon="-0.18705">
        <ele>95</ele>
        <time>2022-08-20T12:17:22Z</time>
      </trkpt>
      <trkpt lat="43.69282" lon="-0.18712">
        <ele>96</ele>
        <time>2022-08-20T12:17:26Z</time>
      </trkpt>
      <trkpt lat="43.69283" lon="-0.18719">
        <ele>95</ele>
        <time>2022-08-20T12:17:30Z</time>
      </trkpt>
      <trkpt lat="43.69289" lon="-0.18739">
        <ele>96</ele>
        <time>2022-08-20T12:17:43Z</time>
      </trkpt>
      <trkpt lat="43.69295" lon="-0.18757">
        <ele>96</ele>
        <time>2022-08-20T12:17:55Z</time>
      </trkpt>
      <trkpt lat="43.69298" lon="-0.1877">
        <ele>96</ele>
        <time>2022-08-20T12:18:04Z</time>
      </trkpt>
      <trkpt lat="43.69301" lon="-0.18783">
        <ele>96</ele>
        <time>2022-08-20T12:18:13Z</time>
      </trkpt>
      <trkpt lat="43.69304" lon="-0.18789">
        <ele>96</ele>
        <time>2022-08-20T12:18:17Z</time>
      </trkpt>
      <trkpt lat="43.69313" lon="-0.18827">
        <ele>96</ele>
        <time>2022-08-20T12:18:46Z</time>
      </trkpt>
      <trkpt lat="43.69317" lon="-0.18835">
        <ele>96</ele>
        <time>2022-08-20T12:18:57Z</time>
      </trkpt>
      <trkpt lat="43.69329" lon="-0.18881">
        <ele>96</ele>
        <time>2022-08-20T12:19:28Z</time>
      </trkpt>
      <trkpt lat="43.69344" lon="-0.18935">
        <ele>96</ele>
        <time>2022-08-20T12:20:02Z</time>
      </trkpt>
      <trkpt lat="43.69347" lon="-0.18955">
        <ele>96</ele>
        <time>2022-08-20T12:20:15Z</time>
      </trkpt>
      <trkpt lat="43.69355" lon="-0.18981">
        <ele>96</ele>
        <time>2022-08-20T12:20:33Z</time>
      </trkpt>
      <trkpt lat="43.69356" lon="-0.18988">
        <ele>96</ele>
        <time>2022-08-20T12:20:37Z</time>
      </trkpt>
      <trkpt lat="43.69364" lon="-0.19014">
        <ele>95</ele>
        <time>2022-08-20T12:20:55Z</time>
      </trkpt>
      <trkpt lat="43.69365" lon="-0.19022">
        <ele>95</ele>
        <time>2022-08-20T12:20:59Z</time>
      </trkpt>
      <trkpt lat="43.69369" lon="-0.19035">
        <ele>95</ele>
        <time>2022-08-20T12:21:08Z</time>
      </trkpt>
      <trkpt lat="43.69372" lon="-0.19048">
        <ele>95</ele>
        <time>2022-08-20T12:21:16Z</time>
      </trkpt>
      <trkpt lat="43.69374" lon="-0.19053">
        <ele>95</ele>
        <time>2022-08-20T12:21:20Z</time>
      </trkpt>
      <trkpt lat="43.69375" lon="-0.19061">
        <ele>95</ele>
        <time>2022-08-20T12:21:25Z</time>
      </trkpt>
      <trkpt lat="43.69378" lon="-0.19067">
        <ele>95</ele>
        <time>2022-08-20T12:21:29Z</time>
      </trkpt>
      <trkpt lat="43.6938" lon="-0.19074">
        <ele>96</ele>
        <time>2022-08-20T12:21:33Z</time>
      </trkpt>
      <trkpt lat="43.69388" lon="-0.19094">
        <ele>95</ele>
        <time>2022-08-20T12:22:28Z</time>
      </trkpt>
      <trkpt lat="43.69389" lon="-0.19101">
        <ele>95</ele>
        <time>2022-08-20T12:22:34Z</time>
      </trkpt>
      <trkpt lat="43.69392" lon="-0.19107">
        <ele>95</ele>
        <time>2022-08-20T12:22:39Z</time>
      </trkpt>
      <trkpt lat="43.69398" lon="-0.19139">
        <ele>95</ele>
        <time>2022-08-20T12:23:03Z</time>
      </trkpt>
      <trkpt lat="43.694" lon="-0.19145">
        <ele>95</ele>
        <time>2022-08-20T12:23:07Z</time>
      </trkpt>
      <trkpt lat="43.69405" lon="-0.19158">
        <ele>95</ele>
        <time>2022-08-20T12:23:16Z</time>
      </trkpt>
      <trkpt lat="43.69407" lon="-0.19164">
        <ele>95</ele>
        <time>2022-08-20T12:23:20Z</time>
      </trkpt>
      <trkpt lat="43.69409" lon="-0.19178">
        <ele>95</ele>
        <time>2022-08-20T12:23:28Z</time>
      </trkpt>
      <trkpt lat="43.6941" lon="-0.19184">
        <ele>95</ele>
        <time>2022-08-20T12:23:32Z</time>
      </trkpt>
      <trkpt lat="43.69411" lon="-0.1919">
        <ele>95</ele>
        <time>2022-08-20T12:23:43Z</time>
      </trkpt>
      <trkpt lat="43.69414" lon="-0.19195">
        <ele>95</ele>
        <time>2022-08-20T12:24:29Z</time>
      </trkpt>
      <trkpt lat="43.69426" lon="-0.19229">
        <ele>95</ele>
        <time>2022-08-20T12:25:26Z</time>
      </trkpt>
      <trkpt lat="43.69427" lon="-0.19236">
        <ele>95</ele>
        <time>2022-08-20T12:25:31Z</time>
      </trkpt>
      <trkpt lat="43.69428" lon="-0.19242">
        <ele>95</ele>
        <time>2022-08-20T12:25:36Z</time>
      </trkpt>
      <trkpt lat="43.69431" lon="-0.19248">
        <ele>94</ele>
        <time>2022-08-20T12:25:39Z</time>
      </trkpt>
      <trkpt lat="43.69435" lon="-0.19262">
        <ele>94</ele>
        <time>2022-08-20T12:25:47Z</time>
      </trkpt>
      <trkpt lat="43.69435" lon="-0.19269">
        <ele>95</ele>
        <time>2022-08-20T12:25:51Z</time>
      </trkpt>
      <trkpt lat="43.69436" lon="-0.19275">
        <ele>94</ele>
        <time>2022-08-20T12:25:55Z</time>
      </trkpt>
      <trkpt lat="43.6944" lon="-0.19294">
        <ele>95</ele>
        <time>2022-08-20T12:26:08Z</time>
      </trkpt>
      <trkpt lat="43.69443" lon="-0.19301">
        <ele>95</ele>
        <time>2022-08-20T12:26:13Z</time>
      </trkpt>
      <trkpt lat="43.69445" lon="-0.19307">
        <ele>95</ele>
        <time>2022-08-20T12:26:17Z</time>
      </trkpt>
      <trkpt lat="43.69451" lon="-0.19332">
        <ele>94</ele>
        <time>2022-08-20T12:26:33Z</time>
      </trkpt>
      <trkpt lat="43.69454" lon="-0.19345">
        <ele>94</ele>
        <time>2022-08-20T12:26:41Z</time>
      </trkpt>
      <trkpt lat="43.69456" lon="-0.19351">
        <ele>94</ele>
        <time>2022-08-20T12:26:45Z</time>
      </trkpt>
      <trkpt lat="43.69458" lon="-0.19356">
        <ele>94</ele>
        <time>2022-08-20T12:26:49Z</time>
      </trkpt>
      <trkpt lat="43.69463" lon="-0.19383">
        <ele>95</ele>
        <time>2022-08-20T12:27:06Z</time>
      </trkpt>
      <trkpt lat="43.69478" lon="-0.19434">
        <ele>95</ele>
        <time>2022-08-20T12:27:39Z</time>
      </trkpt>
      <trkpt lat="43.69483" lon="-0.19446">
        <ele>95</ele>
        <time>2022-08-20T12:27:48Z</time>
      </trkpt>
      <trkpt lat="43.69484" lon="-0.19452">
        <ele>95</ele>
        <time>2022-08-20T12:27:52Z</time>
      </trkpt>
      <trkpt lat="43.69497" lon="-0.19504">
        <ele>94</ele>
        <time>2022-08-20T12:28:25Z</time>
      </trkpt>
      <trkpt lat="43.69512" lon="-0.19554">
        <ele>95</ele>
        <time>2022-08-20T12:28:58Z</time>
      </trkpt>
      <trkpt lat="43.69522" lon="-0.19584">
        <ele>94</ele>
        <time>2022-08-20T12:29:19Z</time>
      </trkpt>
      <trkpt lat="43.69528" lon="-0.19609">
        <ele>94</ele>
        <time>2022-08-20T12:29:35Z</time>
      </trkpt>
      <trkpt lat="43.69534" lon="-0.1963">
        <ele>94</ele>
        <time>2022-08-20T12:29:50Z</time>
      </trkpt>
      <trkpt lat="43.69541" lon="-0.19658">
        <ele>94</ele>
        <time>2022-08-20T12:30:09Z</time>
      </trkpt>
      <trkpt lat="43.69556" lon="-0.1971">
        <ele>94</ele>
        <time>2022-08-20T12:30:41Z</time>
      </trkpt>
      <trkpt lat="43.69561" lon="-0.19734">
        <ele>94</ele>
        <time>2022-08-20T12:30:57Z</time>
      </trkpt>
      <trkpt lat="43.69576" lon="-0.19785">
        <ele>94</ele>
        <time>2022-08-20T12:31:30Z</time>
      </trkpt>
      <trkpt lat="43.69577" lon="-0.19791">
        <ele>94</ele>
        <time>2022-08-20T12:31:34Z</time>
      </trkpt>
      <trkpt lat="43.6959" lon="-0.19838">
        <ele>94</ele>
        <time>2022-08-20T12:32:04Z</time>
      </trkpt>
      <trkpt lat="43.69599" lon="-0.19867">
        <ele>94</ele>
        <time>2022-08-20T12:32:23Z</time>
      </trkpt>
      <trkpt lat="43.69611" lon="-0.19918">
        <ele>94</ele>
        <time>2022-08-20T12:32:55Z</time>
      </trkpt>
      <trkpt lat="43.69626" lon="-0.19973">
        <ele>94</ele>
        <time>2022-08-20T12:33:29Z</time>
      </trkpt>
      <trkpt lat="43.69628" lon="-0.19978">
        <ele>94</ele>
        <time>2022-08-20T12:33:34Z</time>
      </trkpt>
      <trkpt lat="43.69629" lon="-0.19986">
        <ele>94</ele>
        <time>2022-08-20T12:33:38Z</time>
      </trkpt>
      <trkpt lat="43.69633" lon="-0.19999">
        <ele>94</ele>
        <time>2022-08-20T12:33:47Z</time>
      </trkpt>
      <trkpt lat="43.69635" lon="-0.20011">
        <ele>93</ele>
        <time>2022-08-20T12:33:56Z</time>
      </trkpt>
      <trkpt lat="43.69649" lon="-0.2006">
        <ele>94</ele>
        <time>2022-08-20T12:34:28Z</time>
      </trkpt>
      <trkpt lat="43.69662" lon="-0.20112">
        <ele>94</ele>
        <time>2022-08-20T12:35:04Z</time>
      </trkpt>
      <trkpt lat="43.69673" lon="-0.20155">
        <ele>94</ele>
        <time>2022-08-20T12:35:36Z</time>
      </trkpt>
      <trkpt lat="43.69675" lon="-0.20172">
        <ele>94</ele>
        <time>2022-08-20T12:35:47Z</time>
      </trkpt>
      <trkpt lat="43.69687" lon="-0.20226">
        <ele>93</ele>
        <time>2022-08-20T12:36:20Z</time>
      </trkpt>
      <trkpt lat="43.69699" lon="-0.20279">
        <ele>93</ele>
        <time>2022-08-20T12:36:54Z</time>
      </trkpt>
      <trkpt lat="43.69702" lon="-0.20294">
        <ele>93</ele>
        <time>2022-08-20T12:37:02Z</time>
      </trkpt>
      <trkpt lat="43.69704" lon="-0.20299">
        <ele>93</ele>
        <time>2022-08-20T12:37:06Z</time>
      </trkpt>
      <trkpt lat="43.69708" lon="-0.20319">
        <ele>93</ele>
        <time>2022-08-20T12:37:18Z</time>
      </trkpt>
      <trkpt lat="43.69718" lon="-0.2035">
        <ele>93</ele>
        <time>2022-08-20T12:37:40Z</time>
      </trkpt>
      <trkpt lat="43.6972" lon="-0.20365">
        <ele>93</ele>
        <time>2022-08-20T12:37:49Z</time>
      </trkpt>
      <trkpt lat="43.69718" lon="-0.2037">
        <ele>93</ele>
        <time>2022-08-20T12:37:53Z</time>
      </trkpt>
      <trkpt lat="43.69713" lon="-0.20378">
        <ele>94</ele>
        <time>2022-08-20T12:38:01Z</time>
      </trkpt>
      <trkpt lat="43.69705" lon="-0.20387">
        <ele>93</ele>
        <time>2022-08-20T12:38:11Z</time>
      </trkpt>
      <trkpt lat="43.69685" lon="-0.20403">
        <ele>93</ele>
        <time>2022-08-20T12:38:32Z</time>
      </trkpt>
      <trkpt lat="43.6968" lon="-0.20408">
        <ele>93</ele>
        <time>2022-08-20T12:38:36Z</time>
      </trkpt>
      <trkpt lat="43.69649" lon="-0.20431">
        <ele>93</ele>
        <time>2022-08-20T12:39:07Z</time>
      </trkpt>
      <trkpt lat="43.69635" lon="-0.2044">
        <ele>94</ele>
        <time>2022-08-20T12:39:20Z</time>
      </trkpt>
      <trkpt lat="43.69602" lon="-0.20469">
        <ele>94</ele>
        <time>2022-08-20T12:39:54Z</time>
      </trkpt>
      <trkpt lat="43.69598" lon="-0.20472">
        <ele>94</ele>
        <time>2022-08-20T12:39:58Z</time>
      </trkpt>
      <trkpt lat="43.69575" lon="-0.20493">
        <ele>93</ele>
        <time>2022-08-20T12:40:19Z</time>
      </trkpt>
      <trkpt lat="43.69555" lon="-0.20509">
        <ele>93</ele>
        <time>2022-08-20T12:40:39Z</time>
      </trkpt>
      <trkpt lat="43.6955" lon="-0.20514">
        <ele>93</ele>
        <time>2022-08-20T12:40:43Z</time>
      </trkpt>
      <trkpt lat="43.69546" lon="-0.20526">
        <ele>93</ele>
        <time>2022-08-20T12:40:51Z</time>
      </trkpt>
      <trkpt lat="43.69546" lon="-0.20532">
        <ele>93</ele>
        <time>2022-08-20T12:40:55Z</time>
      </trkpt>
      <trkpt lat="43.69551" lon="-0.20558">
        <ele>93</ele>
        <time>2022-08-20T12:41:11Z</time>
      </trkpt>
      <trkpt lat="43.69544" lon="-0.20572">
        <ele>93</ele>
        <time>2022-08-20T12:41:21Z</time>
      </trkpt>
      <trkpt lat="43.69517" lon="-0.20597">
        <ele>93</ele>
        <time>2022-08-20T12:41:50Z</time>
      </trkpt>
      <trkpt lat="43.69516" lon="-0.20603">
        <ele>93</ele>
        <time>2022-08-20T12:42:00Z</time>
      </trkpt>
      <trkpt lat="43.69511" lon="-0.20607">
        <ele>93</ele>
        <time>2022-08-20T12:42:12Z</time>
      </trkpt>
      <trkpt lat="43.69507" lon="-0.2061">
        <ele>93</ele>
        <time>2022-08-20T12:42:16Z</time>
      </trkpt>
      <trkpt lat="43.69496" lon="-0.20616">
        <ele>92</ele>
        <time>2022-08-20T12:42:26Z</time>
      </trkpt>
      <trkpt lat="43.69482" lon="-0.20628">
        <ele>91</ele>
        <time>2022-08-20T12:42:39Z</time>
      </trkpt>
      <trkpt lat="43.69453" lon="-0.20645">
        <ele>88</ele>
        <time>2022-08-20T12:43:02Z</time>
      </trkpt>
      <trkpt lat="43.69439" lon="-0.20659">
        <ele>88</ele>
        <time>2022-08-20T12:43:18Z</time>
      </trkpt>
      <trkpt lat="43.6943" lon="-0.20665">
        <ele>88</ele>
        <time>2022-08-20T12:43:27Z</time>
      </trkpt>
      <trkpt lat="43.69407" lon="-0.20681">
        <ele>88</ele>
        <time>2022-08-20T12:43:49Z</time>
      </trkpt>
      <trkpt lat="43.69374" lon="-0.20703">
        <ele>88</ele>
        <time>2022-08-20T12:44:21Z</time>
      </trkpt>
      <trkpt lat="43.69355" lon="-0.20717">
        <ele>88</ele>
        <time>2022-08-20T12:44:39Z</time>
      </trkpt>
      <trkpt lat="43.69353" lon="-0.20722">
        <ele>87</ele>
        <time>2022-08-20T12:44:43Z</time>
      </trkpt>
      <trkpt lat="43.69353" lon="-0.20728">
        <ele>88</ele>
        <time>2022-08-20T12:44:51Z</time>
      </trkpt>
      <trkpt lat="43.69358" lon="-0.20729">
        <ele>87</ele>
        <time>2022-08-20T12:49:20Z</time>
      </trkpt>
      <trkpt lat="43.69363" lon="-0.20733">
        <ele>88</ele>
        <time>2022-08-20T13:13:57Z</time>
      </trkpt>
      <trkpt lat="43.69364" lon="-0.2074">
        <ele>88</ele>
        <time>2022-08-20T13:14:05Z</time>
      </trkpt>
      <trkpt lat="43.6937" lon="-0.20747">
        <ele>88</ele>
        <time>2022-08-20T13:14:12Z</time>
      </trkpt>
      <trkpt lat="43.69385" lon="-0.20772">
        <ele>88</ele>
        <time>2022-08-20T13:14:34Z</time>
      </trkpt>
      <trkpt lat="43.69394" lon="-0.20784">
        <ele>88</ele>
        <time>2022-08-20T13:14:45Z</time>
      </trkpt>
      <trkpt lat="43.69411" lon="-0.20811">
        <ele>88</ele>
        <time>2022-08-20T13:15:05Z</time>
      </trkpt>
      <trkpt lat="43.69415" lon="-0.20814">
        <ele>87</ele>
        <time>2022-08-20T13:15:10Z</time>
      </trkpt>
      <trkpt lat="43.69423" lon="-0.20835">
        <ele>88</ele>
        <time>2022-08-20T13:15:23Z</time>
      </trkpt>
      <trkpt lat="43.69435" lon="-0.20889">
        <ele>88</ele>
        <time>2022-08-20T13:15:56Z</time>
      </trkpt>
      <trkpt lat="43.6944" lon="-0.20904">
        <ele>88</ele>
        <time>2022-08-20T13:16:06Z</time>
      </trkpt>
      <trkpt lat="43.69441" lon="-0.20912">
        <ele>88</ele>
        <time>2022-08-20T13:16:10Z</time>
      </trkpt>
      <trkpt lat="43.69446" lon="-0.20937">
        <ele>88</ele>
        <time>2022-08-20T13:16:24Z</time>
      </trkpt>
      <trkpt lat="43.69447" lon="-0.20945">
        <ele>88</ele>
        <time>2022-08-20T13:16:29Z</time>
      </trkpt>
      <trkpt lat="43.69447" lon="-0.20953">
        <ele>88</ele>
        <time>2022-08-20T13:16:34Z</time>
      </trkpt>
      <trkpt lat="43.69458" lon="-0.21002">
        <ele>88</ele>
        <time>2022-08-20T13:17:04Z</time>
      </trkpt>
      <trkpt lat="43.69461" lon="-0.2101">
        <ele>88</ele>
        <time>2022-08-20T13:17:09Z</time>
      </trkpt>
      <trkpt lat="43.69461" lon="-0.21018">
        <ele>88</ele>
        <time>2022-08-20T13:17:13Z</time>
      </trkpt>
      <trkpt lat="43.6947" lon="-0.21057">
        <ele>88</ele>
        <time>2022-08-20T13:17:36Z</time>
      </trkpt>
      <trkpt lat="43.69472" lon="-0.21075">
        <ele>89</ele>
        <time>2022-08-20T13:17:48Z</time>
      </trkpt>
      <trkpt lat="43.69474" lon="-0.21081">
        <ele>89</ele>
        <time>2022-08-20T13:17:55Z</time>
      </trkpt>
      <trkpt lat="43.69477" lon="-0.21088">
        <ele>89</ele>
        <time>2022-08-20T13:18:01Z</time>
      </trkpt>
      <trkpt lat="43.69478" lon="-0.21098">
        <ele>88</ele>
        <time>2022-08-20T13:18:08Z</time>
      </trkpt>
      <trkpt lat="43.6948" lon="-0.21106">
        <ele>87</ele>
        <time>2022-08-20T13:18:13Z</time>
      </trkpt>
      <trkpt lat="43.69486" lon="-0.21132">
        <ele>87</ele>
        <time>2022-08-20T13:18:31Z</time>
      </trkpt>
      <trkpt lat="43.69486" lon="-0.21139">
        <ele>87</ele>
        <time>2022-08-20T13:18:35Z</time>
      </trkpt>
      <trkpt lat="43.69495" lon="-0.21193">
        <ele>87</ele>
        <time>2022-08-20T13:19:07Z</time>
      </trkpt>
      <trkpt lat="43.69496" lon="-0.21202">
        <ele>87</ele>
        <time>2022-08-20T13:19:12Z</time>
      </trkpt>
      <trkpt lat="43.69499" lon="-0.21209">
        <ele>87</ele>
        <time>2022-08-20T13:19:17Z</time>
      </trkpt>
      <trkpt lat="43.6951" lon="-0.21263">
        <ele>87</ele>
        <time>2022-08-20T13:19:50Z</time>
      </trkpt>
      <trkpt lat="43.69519" lon="-0.21309">
        <ele>87</ele>
        <time>2022-08-20T13:20:20Z</time>
      </trkpt>
      <trkpt lat="43.69522" lon="-0.21332">
        <ele>87</ele>
        <time>2022-08-20T13:20:34Z</time>
      </trkpt>
      <trkpt lat="43.69531" lon="-0.21372">
        <ele>87</ele>
        <time>2022-08-20T13:20:58Z</time>
      </trkpt>
      <trkpt lat="43.69532" lon="-0.2138">
        <ele>87</ele>
        <time>2022-08-20T13:21:02Z</time>
      </trkpt>
      <trkpt lat="43.69538" lon="-0.21399">
        <ele>87</ele>
        <time>2022-08-20T13:21:15Z</time>
      </trkpt>
      <trkpt lat="43.69545" lon="-0.21431">
        <ele>87</ele>
        <time>2022-08-20T13:21:35Z</time>
      </trkpt>
      <trkpt lat="43.69548" lon="-0.21438">
        <ele>87</ele>
        <time>2022-08-20T13:21:40Z</time>
      </trkpt>
      <trkpt lat="43.69556" lon="-0.21488">
        <ele>87</ele>
        <time>2022-08-20T13:22:10Z</time>
      </trkpt>
      <trkpt lat="43.69565" lon="-0.21529">
        <ele>87</ele>
        <time>2022-08-20T13:22:35Z</time>
      </trkpt>
      <trkpt lat="43.69569" lon="-0.21544">
        <ele>87</ele>
        <time>2022-08-20T13:22:45Z</time>
      </trkpt>
      <trkpt lat="43.69578" lon="-0.21603">
        <ele>87</ele>
        <time>2022-08-20T13:23:18Z</time>
      </trkpt>
      <trkpt lat="43.69581" lon="-0.21612">
        <ele>87</ele>
        <time>2022-08-20T13:23:24Z</time>
      </trkpt>
      <trkpt lat="43.69586" lon="-0.21649">
        <ele>87</ele>
        <time>2022-08-20T13:23:46Z</time>
      </trkpt>
      <trkpt lat="43.6959" lon="-0.21658">
        <ele>87</ele>
        <time>2022-08-20T13:23:52Z</time>
      </trkpt>
      <trkpt lat="43.69592" lon="-0.21678">
        <ele>87</ele>
        <time>2022-08-20T13:24:04Z</time>
      </trkpt>
      <trkpt lat="43.69603" lon="-0.21711">
        <ele>87</ele>
        <time>2022-08-20T13:24:26Z</time>
      </trkpt>
      <trkpt lat="43.69607" lon="-0.21729">
        <ele>87</ele>
        <time>2022-08-20T13:24:37Z</time>
      </trkpt>
      <trkpt lat="43.69612" lon="-0.21755">
        <ele>86</ele>
        <time>2022-08-20T13:24:53Z</time>
      </trkpt>
      <trkpt lat="43.69619" lon="-0.21795">
        <ele>86</ele>
        <time>2022-08-20T13:25:17Z</time>
      </trkpt>
      <trkpt lat="43.69622" lon="-0.21801">
        <ele>86</ele>
        <time>2022-08-20T13:25:21Z</time>
      </trkpt>
      <trkpt lat="43.69626" lon="-0.21807">
        <ele>86</ele>
        <time>2022-08-20T13:25:26Z</time>
      </trkpt>
      <trkpt lat="43.69628" lon="-0.21819">
        <ele>86</ele>
        <time>2022-08-20T13:25:34Z</time>
      </trkpt>
      <trkpt lat="43.69629" lon="-0.21826">
        <ele>87</ele>
        <time>2022-08-20T13:25:39Z</time>
      </trkpt>
      <trkpt lat="43.69635" lon="-0.21858">
        <ele>87</ele>
        <time>2022-08-20T13:26:01Z</time>
      </trkpt>
      <trkpt lat="43.69636" lon="-0.21865">
        <ele>87</ele>
        <time>2022-08-20T13:26:04Z</time>
      </trkpt>
      <trkpt lat="43.69641" lon="-0.21892">
        <ele>87</ele>
        <time>2022-08-20T13:26:20Z</time>
      </trkpt>
      <trkpt lat="43.69643" lon="-0.21901">
        <ele>87</ele>
        <time>2022-08-20T13:26:28Z</time>
      </trkpt>
      <trkpt lat="43.69648" lon="-0.21928">
        <ele>87</ele>
        <time>2022-08-20T13:26:43Z</time>
      </trkpt>
      <trkpt lat="43.6965" lon="-0.21934">
        <ele>87</ele>
        <time>2022-08-20T13:26:47Z</time>
      </trkpt>
      <trkpt lat="43.69661" lon="-0.21982">
        <ele>87</ele>
        <time>2022-08-20T13:27:17Z</time>
      </trkpt>
      <trkpt lat="43.69663" lon="-0.21989">
        <ele>87</ele>
        <time>2022-08-20T13:27:22Z</time>
      </trkpt>
      <trkpt lat="43.69666" lon="-0.22003">
        <ele>87</ele>
        <time>2022-08-20T13:27:30Z</time>
      </trkpt>
      <trkpt lat="43.69668" lon="-0.22011">
        <ele>87</ele>
        <time>2022-08-20T13:27:36Z</time>
      </trkpt>
      <trkpt lat="43.6967" lon="-0.22025">
        <ele>87</ele>
        <time>2022-08-20T13:27:44Z</time>
      </trkpt>
      <trkpt lat="43.69681" lon="-0.22075">
        <ele>87</ele>
        <time>2022-08-20T13:28:16Z</time>
      </trkpt>
      <trkpt lat="43.69684" lon="-0.22088">
        <ele>87</ele>
        <time>2022-08-20T13:28:24Z</time>
      </trkpt>
      <trkpt lat="43.69687" lon="-0.22108">
        <ele>87</ele>
        <time>2022-08-20T13:28:36Z</time>
      </trkpt>
      <trkpt lat="43.69691" lon="-0.2212">
        <ele>87</ele>
        <time>2022-08-20T13:28:44Z</time>
      </trkpt>
      <trkpt lat="43.69695" lon="-0.22146">
        <ele>87</ele>
        <time>2022-08-20T13:29:01Z</time>
      </trkpt>
      <trkpt lat="43.697" lon="-0.22167">
        <ele>87</ele>
        <time>2022-08-20T13:29:14Z</time>
      </trkpt>
      <trkpt lat="43.69702" lon="-0.22173">
        <ele>87</ele>
        <time>2022-08-20T13:29:19Z</time>
      </trkpt>
      <trkpt lat="43.6971" lon="-0.22218">
        <ele>86</ele>
        <time>2022-08-20T13:29:47Z</time>
      </trkpt>
      <trkpt lat="43.69714" lon="-0.2223">
        <ele>86</ele>
        <time>2022-08-20T13:29:55Z</time>
      </trkpt>
      <trkpt lat="43.69716" lon="-0.22243">
        <ele>86</ele>
        <time>2022-08-20T13:30:03Z</time>
      </trkpt>
      <trkpt lat="43.69719" lon="-0.22251">
        <ele>86</ele>
        <time>2022-08-20T13:30:09Z</time>
      </trkpt>
      <trkpt lat="43.69722" lon="-0.22265">
        <ele>86</ele>
        <time>2022-08-20T13:30:18Z</time>
      </trkpt>
      <trkpt lat="43.69725" lon="-0.22284">
        <ele>86</ele>
        <time>2022-08-20T13:30:31Z</time>
      </trkpt>
      <trkpt lat="43.69737" lon="-0.22335">
        <ele>86</ele>
        <time>2022-08-20T13:31:03Z</time>
      </trkpt>
      <trkpt lat="43.69739" lon="-0.22344">
        <ele>86</ele>
        <time>2022-08-20T13:31:10Z</time>
      </trkpt>
      <trkpt lat="43.69749" lon="-0.22394">
        <ele>85</ele>
        <time>2022-08-20T13:31:42Z</time>
      </trkpt>
      <trkpt lat="43.69759" lon="-0.22438">
        <ele>86</ele>
        <time>2022-08-20T13:32:11Z</time>
      </trkpt>
      <trkpt lat="43.69762" lon="-0.22451">
        <ele>85</ele>
        <time>2022-08-20T13:32:19Z</time>
      </trkpt>
      <trkpt lat="43.69772" lon="-0.22503">
        <ele>85</ele>
        <time>2022-08-20T13:32:51Z</time>
      </trkpt>
      <trkpt lat="43.69783" lon="-0.22552">
        <ele>85</ele>
        <time>2022-08-20T13:33:23Z</time>
      </trkpt>
      <trkpt lat="43.69785" lon="-0.22558">
        <ele>85</ele>
        <time>2022-08-20T13:33:27Z</time>
      </trkpt>
      <trkpt lat="43.69796" lon="-0.22602">
        <ele>84</ele>
        <time>2022-08-20T13:34:00Z</time>
      </trkpt>
      <trkpt lat="43.69804" lon="-0.2265">
        <ele>84</ele>
        <time>2022-08-20T13:34:29Z</time>
      </trkpt>
      <trkpt lat="43.69812" lon="-0.22676">
        <ele>84</ele>
        <time>2022-08-20T13:34:46Z</time>
      </trkpt>
      <trkpt lat="43.69823" lon="-0.22732">
        <ele>84</ele>
        <time>2022-08-20T13:35:19Z</time>
      </trkpt>
      <trkpt lat="43.69835" lon="-0.22783">
        <ele>85</ele>
        <time>2022-08-20T13:35:51Z</time>
      </trkpt>
      <trkpt lat="43.69843" lon="-0.22814">
        <ele>85</ele>
        <time>2022-08-20T13:36:12Z</time>
      </trkpt>
      <trkpt lat="43.69846" lon="-0.22834">
        <ele>84</ele>
        <time>2022-08-20T13:36:23Z</time>
      </trkpt>
      <trkpt lat="43.69851" lon="-0.22855">
        <ele>84</ele>
        <time>2022-08-20T13:36:35Z</time>
      </trkpt>
      <trkpt lat="43.69852" lon="-0.22863">
        <ele>84</ele>
        <time>2022-08-20T13:36:39Z</time>
      </trkpt>
      <trkpt lat="43.69859" lon="-0.22894">
        <ele>84</ele>
        <time>2022-08-20T13:36:59Z</time>
      </trkpt>
      <trkpt lat="43.69864" lon="-0.2292">
        <ele>84</ele>
        <time>2022-08-20T13:37:14Z</time>
      </trkpt>
      <trkpt lat="43.69866" lon="-0.22925">
        <ele>84</ele>
        <time>2022-08-20T13:37:18Z</time>
      </trkpt>
      <trkpt lat="43.69867" lon="-0.22932">
        <ele>84</ele>
        <time>2022-08-20T13:37:22Z</time>
      </trkpt>
      <trkpt lat="43.69878" lon="-0.22979">
        <ele>84</ele>
        <time>2022-08-20T13:37:55Z</time>
      </trkpt>
      <trkpt lat="43.6989" lon="-0.23033">
        <ele>84</ele>
        <time>2022-08-20T13:38:28Z</time>
      </trkpt>
      <trkpt lat="43.69902" lon="-0.23085">
        <ele>84</ele>
        <time>2022-08-20T13:39:01Z</time>
      </trkpt>
      <trkpt lat="43.69914" lon="-0.23139">
        <ele>84</ele>
        <time>2022-08-20T13:39:35Z</time>
      </trkpt>
      <trkpt lat="43.69916" lon="-0.23146">
        <ele>84</ele>
        <time>2022-08-20T13:39:41Z</time>
      </trkpt>
      <trkpt lat="43.69927" lon="-0.23195">
        <ele>84</ele>
        <time>2022-08-20T13:40:11Z</time>
      </trkpt>
      <trkpt lat="43.69933" lon="-0.23239">
        <ele>84</ele>
        <time>2022-08-20T13:40:36Z</time>
      </trkpt>
      <trkpt lat="43.69938" lon="-0.23251">
        <ele>84</ele>
        <time>2022-08-20T13:40:45Z</time>
      </trkpt>
      <trkpt lat="43.69941" lon="-0.23255">
        <ele>84</ele>
        <time>2022-08-20T13:40:49Z</time>
      </trkpt>
      <trkpt lat="43.69944" lon="-0.23261">
        <ele>84</ele>
        <time>2022-08-20T13:40:54Z</time>
      </trkpt>
      <trkpt lat="43.69977" lon="-0.23285">
        <ele>85</ele>
        <time>2022-08-20T13:41:26Z</time>
      </trkpt>
      <trkpt lat="43.70009" lon="-0.23315">
        <ele>84</ele>
        <time>2022-08-20T13:41:59Z</time>
      </trkpt>
      <trkpt lat="43.70013" lon="-0.2332">
        <ele>84</ele>
        <time>2022-08-20T13:42:03Z</time>
      </trkpt>
      <trkpt lat="43.70048" lon="-0.23348">
        <ele>84</ele>
        <time>2022-08-20T13:42:37Z</time>
      </trkpt>
      <trkpt lat="43.70058" lon="-0.23356">
        <ele>83</ele>
        <time>2022-08-20T13:42:45Z</time>
      </trkpt>
      <trkpt lat="43.70073" lon="-0.23372">
        <ele>84</ele>
        <time>2022-08-20T13:43:01Z</time>
      </trkpt>
      <trkpt lat="43.70091" lon="-0.23387">
        <ele>84</ele>
        <time>2022-08-20T13:43:18Z</time>
      </trkpt>
      <trkpt lat="43.70095" lon="-0.23391">
        <ele>84</ele>
        <time>2022-08-20T13:43:23Z</time>
      </trkpt>
      <trkpt lat="43.70104" lon="-0.23398">
        <ele>84</ele>
        <time>2022-08-20T13:43:31Z</time>
      </trkpt>
      <trkpt lat="43.70109" lon="-0.23405">
        <ele>84</ele>
        <time>2022-08-20T13:43:37Z</time>
      </trkpt>
      <trkpt lat="43.70112" lon="-0.23413">
        <ele>84</ele>
        <time>2022-08-20T13:43:58Z</time>
      </trkpt>
      <trkpt lat="43.70117" lon="-0.23416">
        <ele>84</ele>
        <time>2022-08-20T13:44:03Z</time>
      </trkpt>
      <trkpt lat="43.70121" lon="-0.23415">
        <ele>83</ele>
        <time>2022-08-20T13:44:29Z</time>
      </trkpt>
      <trkpt lat="43.70128" lon="-0.23418">
        <ele>83</ele>
        <time>2022-08-20T13:44:48Z</time>
      </trkpt>
      <trkpt lat="43.70135" lon="-0.23421">
        <ele>83</ele>
        <time>2022-08-20T13:44:56Z</time>
      </trkpt>
      <trkpt lat="43.70143" lon="-0.23434">
        <ele>83</ele>
        <time>2022-08-20T13:45:13Z</time>
      </trkpt>
      <trkpt lat="43.70146" lon="-0.2344">
        <ele>83</ele>
        <time>2022-08-20T13:45:17Z</time>
      </trkpt>
      <trkpt lat="43.70146" lon="-0.23448">
        <ele>84</ele>
        <time>2022-08-20T13:45:29Z</time>
      </trkpt>
      <trkpt lat="43.70148" lon="-0.23455">
        <ele>84</ele>
        <time>2022-08-20T13:45:33Z</time>
      </trkpt>
      <trkpt lat="43.70148" lon="-0.23462">
        <ele>84</ele>
        <time>2022-08-20T13:45:39Z</time>
      </trkpt>
      <trkpt lat="43.70146" lon="-0.23477">
        <ele>84</ele>
        <time>2022-08-20T13:45:48Z</time>
      </trkpt>
      <trkpt lat="43.70146" lon="-0.23483">
        <ele>84</ele>
        <time>2022-08-20T13:45:51Z</time>
      </trkpt>
      <trkpt lat="43.70148" lon="-0.23498">
        <ele>84</ele>
        <time>2022-08-20T13:45:58Z</time>
      </trkpt>
      <trkpt lat="43.70152" lon="-0.2349">
        <ele>84</ele>
        <time>2022-08-20T13:46:12Z</time>
      </trkpt>
      <trkpt lat="43.70155" lon="-0.23484">
        <ele>84</ele>
        <time>2022-08-20T13:46:15Z</time>
      </trkpt>
      <trkpt lat="43.70168" lon="-0.23477">
        <ele>84</ele>
        <time>2022-08-20T13:46:30Z</time>
      </trkpt>
      <trkpt lat="43.70179" lon="-0.23468">
        <ele>84</ele>
        <time>2022-08-20T13:46:42Z</time>
      </trkpt>
      <trkpt lat="43.70205" lon="-0.2346">
        <ele>84</ele>
        <time>2022-08-20T13:47:02Z</time>
      </trkpt>
      <trkpt lat="43.70214" lon="-0.23454">
        <ele>84</ele>
        <time>2022-08-20T13:47:10Z</time>
      </trkpt>
      <trkpt lat="43.70219" lon="-0.23452">
        <ele>84</ele>
        <time>2022-08-20T13:47:15Z</time>
      </trkpt>
      <trkpt lat="43.70225" lon="-0.23456">
        <ele>84</ele>
        <time>2022-08-20T13:47:22Z</time>
      </trkpt>
      <trkpt lat="43.70227" lon="-0.23463">
        <ele>84</ele>
        <time>2022-08-20T13:47:26Z</time>
      </trkpt>
      <trkpt lat="43.70229" lon="-0.2347">
        <ele>84</ele>
        <time>2022-08-20T13:47:30Z</time>
      </trkpt>
      <trkpt lat="43.70233" lon="-0.2348">
        <ele>84</ele>
        <time>2022-08-20T13:47:37Z</time>
      </trkpt>
      <trkpt lat="43.70236" lon="-0.23493">
        <ele>84</ele>
        <time>2022-08-20T13:47:46Z</time>
      </trkpt>
      <trkpt lat="43.70239" lon="-0.23501">
        <ele>84</ele>
        <time>2022-08-20T13:47:51Z</time>
      </trkpt>
      <trkpt lat="43.70243" lon="-0.23507">
        <ele>84</ele>
        <time>2022-08-20T13:47:56Z</time>
      </trkpt>
      <trkpt lat="43.70245" lon="-0.23512">
        <ele>84</ele>
        <time>2022-08-20T13:48:09Z</time>
      </trkpt>
      <trkpt lat="43.70249" lon="-0.23529">
        <ele>84</ele>
        <time>2022-08-20T13:48:27Z</time>
      </trkpt>
      <trkpt lat="43.70247" lon="-0.23537">
        <ele>84</ele>
        <time>2022-08-20T13:48:32Z</time>
      </trkpt>
      <trkpt lat="43.70249" lon="-0.23543">
        <ele>84</ele>
        <time>2022-08-20T13:48:37Z</time>
      </trkpt>
      <trkpt lat="43.70254" lon="-0.23557">
        <ele>84</ele>
        <time>2022-08-20T13:48:46Z</time>
      </trkpt>
      <trkpt lat="43.70257" lon="-0.23564">
        <ele>84</ele>
        <time>2022-08-20T13:48:50Z</time>
      </trkpt>
      <trkpt lat="43.70257" lon="-0.23572">
        <ele>84</ele>
        <time>2022-08-20T13:48:55Z</time>
      </trkpt>
      <trkpt lat="43.70264" lon="-0.23589">
        <ele>83</ele>
        <time>2022-08-20T13:49:08Z</time>
      </trkpt>
      <trkpt lat="43.70266" lon="-0.236">
        <ele>84</ele>
        <time>2022-08-20T13:49:16Z</time>
      </trkpt>
      <trkpt lat="43.70266" lon="-0.23608">
        <ele>84</ele>
        <time>2022-08-20T13:49:21Z</time>
      </trkpt>
      <trkpt lat="43.70269" lon="-0.23613">
        <ele>83</ele>
        <time>2022-08-20T13:49:26Z</time>
      </trkpt>
      <trkpt lat="43.70279" lon="-0.23636">
        <ele>84</ele>
        <time>2022-08-20T13:49:41Z</time>
      </trkpt>
      <trkpt lat="43.70279" lon="-0.23644">
        <ele>84</ele>
        <time>2022-08-20T13:49:58Z</time>
      </trkpt>
      <trkpt lat="43.70275" lon="-0.2365">
        <ele>84</ele>
        <time>2022-08-20T13:50:17Z</time>
      </trkpt>
      <trkpt lat="43.70272" lon="-0.23654">
        <ele>83</ele>
        <time>2022-08-20T13:50:21Z</time>
      </trkpt>
      <trkpt lat="43.70265" lon="-0.23656">
        <ele>84</ele>
        <time>2022-08-20T13:50:26Z</time>
      </trkpt>
      <trkpt lat="43.70261" lon="-0.23661">
        <ele>84</ele>
        <time>2022-08-20T13:50:30Z</time>
      </trkpt>
      <trkpt lat="43.70242" lon="-0.23665">
        <ele>84</ele>
        <time>2022-08-20T13:50:48Z</time>
      </trkpt>
      <trkpt lat="43.70236" lon="-0.23669">
        <ele>84</ele>
        <time>2022-08-20T13:50:53Z</time>
      </trkpt>
      <trkpt lat="43.70223" lon="-0.23673">
        <ele>84</ele>
        <time>2022-08-20T13:51:06Z</time>
      </trkpt>
      <trkpt lat="43.70217" lon="-0.23675">
        <ele>84</ele>
        <time>2022-08-20T13:51:10Z</time>
      </trkpt>
      <trkpt lat="43.70212" lon="-0.2368">
        <ele>84</ele>
        <time>2022-08-20T13:51:16Z</time>
      </trkpt>
      <trkpt lat="43.70193" lon="-0.23685">
        <ele>84</ele>
        <time>2022-08-20T13:51:34Z</time>
      </trkpt>
      <trkpt lat="43.70182" lon="-0.23696">
        <ele>84</ele>
        <time>2022-08-20T13:51:44Z</time>
      </trkpt>
      <trkpt lat="43.70179" lon="-0.237">
        <ele>84</ele>
        <time>2022-08-20T13:51:49Z</time>
      </trkpt>
      <trkpt lat="43.70185" lon="-0.23703">
        <ele>84</ele>
        <time>2022-08-20T13:52:03Z</time>
      </trkpt>
      <trkpt lat="43.70188" lon="-0.23713">
        <ele>84</ele>
        <time>2022-08-20T13:52:07Z</time>
      </trkpt>
      <trkpt lat="43.70189" lon="-0.23724">
        <ele>83</ele>
        <time>2022-08-20T13:52:17Z</time>
      </trkpt>
      <trkpt lat="43.70192" lon="-0.23772">
        <ele>83</ele>
        <time>2022-08-20T13:52:47Z</time>
      </trkpt>
      <trkpt lat="43.70196" lon="-0.23789">
        <ele>83</ele>
        <time>2022-08-20T13:52:59Z</time>
      </trkpt>
      <trkpt lat="43.70192" lon="-0.23807">
        <ele>83</ele>
        <time>2022-08-20T13:53:13Z</time>
      </trkpt>
      <trkpt lat="43.70189" lon="-0.23812">
        <ele>83</ele>
        <time>2022-08-20T13:53:22Z</time>
      </trkpt>
      <trkpt lat="43.70197" lon="-0.23811">
        <ele>83</ele>
        <time>2022-08-20T13:53:37Z</time>
      </trkpt>
      <trkpt lat="43.70196" lon="-0.23818">
        <ele>82</ele>
        <time>2022-08-20T13:53:43Z</time>
      </trkpt>
      <trkpt lat="43.7019" lon="-0.23828">
        <ele>83</ele>
        <time>2022-08-20T13:53:54Z</time>
      </trkpt>
      <trkpt lat="43.70195" lon="-0.23823">
        <ele>83</ele>
        <time>2022-08-20T13:54:10Z</time>
      </trkpt>
      <trkpt lat="43.70197" lon="-0.23815">
        <ele>83</ele>
        <time>2022-08-20T13:54:15Z</time>
      </trkpt>
      <trkpt lat="43.70201" lon="-0.23811">
        <ele>83</ele>
        <time>2022-08-20T13:54:19Z</time>
      </trkpt>
      <trkpt lat="43.70207" lon="-0.23801">
        <ele>83</ele>
        <time>2022-08-20T13:54:29Z</time>
      </trkpt>
      <trkpt lat="43.70214" lon="-0.23799">
        <ele>83</ele>
        <time>2022-08-20T13:54:36Z</time>
      </trkpt>
      <trkpt lat="43.70218" lon="-0.23795">
        <ele>83</ele>
        <time>2022-08-20T13:54:40Z</time>
      </trkpt>
      <trkpt lat="43.70224" lon="-0.23794">
        <ele>83</ele>
        <time>2022-08-20T13:54:44Z</time>
      </trkpt>
      <trkpt lat="43.70231" lon="-0.2379">
        <ele>83</ele>
        <time>2022-08-20T13:54:51Z</time>
      </trkpt>
      <trkpt lat="43.70238" lon="-0.23788">
        <ele>83</ele>
        <time>2022-08-20T13:54:56Z</time>
      </trkpt>
      <trkpt lat="43.70243" lon="-0.23784">
        <ele>83</ele>
        <time>2022-08-20T13:55:00Z</time>
      </trkpt>
      <trkpt lat="43.70249" lon="-0.23777">
        <ele>83</ele>
        <time>2022-08-20T13:55:04Z</time>
      </trkpt>
      <trkpt lat="43.7027" lon="-0.23773">
        <ele>83</ele>
        <time>2022-08-20T13:55:26Z</time>
      </trkpt>
      <trkpt lat="43.70278" lon="-0.23767">
        <ele>83</ele>
        <time>2022-08-20T13:55:34Z</time>
      </trkpt>
      <trkpt lat="43.703" lon="-0.23761">
        <ele>83</ele>
        <time>2022-08-20T13:55:51Z</time>
      </trkpt>
      <trkpt lat="43.70302" lon="-0.23769">
        <ele>83</ele>
        <time>2022-08-20T13:56:00Z</time>
      </trkpt>
      <trkpt lat="43.70308" lon="-0.23784">
        <ele>83</ele>
        <time>2022-08-20T13:56:13Z</time>
      </trkpt>
      <trkpt lat="43.70313" lon="-0.23791">
        <ele>83</ele>
        <time>2022-08-20T13:56:27Z</time>
      </trkpt>
      <trkpt lat="43.70316" lon="-0.23799">
        <ele>83</ele>
        <time>2022-08-20T13:56:51Z</time>
      </trkpt>
      <trkpt lat="43.70316" lon="-0.23825">
        <ele>83</ele>
        <time>2022-08-20T13:57:12Z</time>
      </trkpt>
      <trkpt lat="43.70318" lon="-0.23831">
        <ele>82</ele>
        <time>2022-08-20T13:57:16Z</time>
      </trkpt>
      <trkpt lat="43.70321" lon="-0.23841">
        <ele>83</ele>
        <time>2022-08-20T13:57:24Z</time>
      </trkpt>
      <trkpt lat="43.70325" lon="-0.23847">
        <ele>83</ele>
        <time>2022-08-20T13:57:28Z</time>
      </trkpt>
      <trkpt lat="43.70328" lon="-0.23853">
        <ele>83</ele>
        <time>2022-08-20T13:57:32Z</time>
      </trkpt>
      <trkpt lat="43.70332" lon="-0.23857">
        <ele>83</ele>
        <time>2022-08-20T13:57:36Z</time>
      </trkpt>
      <trkpt lat="43.70334" lon="-0.23872">
        <ele>83</ele>
        <time>2022-08-20T13:57:44Z</time>
      </trkpt>
      <trkpt lat="43.70334" lon="-0.23878">
        <ele>83</ele>
        <time>2022-08-20T13:57:49Z</time>
      </trkpt>
      <trkpt lat="43.70334" lon="-0.23886">
        <ele>83</ele>
        <time>2022-08-20T13:57:53Z</time>
      </trkpt>
      <trkpt lat="43.70338" lon="-0.23899">
        <ele>83</ele>
        <time>2022-08-20T13:58:01Z</time>
      </trkpt>
      <trkpt lat="43.70339" lon="-0.23906">
        <ele>83</ele>
        <time>2022-08-20T13:58:04Z</time>
      </trkpt>
      <trkpt lat="43.7034" lon="-0.23912">
        <ele>83</ele>
        <time>2022-08-20T13:58:08Z</time>
      </trkpt>
      <trkpt lat="43.70341" lon="-0.23919">
        <ele>83</ele>
        <time>2022-08-20T13:58:12Z</time>
      </trkpt>
      <trkpt lat="43.70346" lon="-0.2394">
        <ele>83</ele>
        <time>2022-08-20T13:58:25Z</time>
      </trkpt>
      <trkpt lat="43.70346" lon="-0.23946">
        <ele>83</ele>
        <time>2022-08-20T13:58:29Z</time>
      </trkpt>
      <trkpt lat="43.70357" lon="-0.23983">
        <ele>82</ele>
        <time>2022-08-20T13:58:51Z</time>
      </trkpt>
      <trkpt lat="43.7036" lon="-0.23997">
        <ele>83</ele>
        <time>2022-08-20T13:59:00Z</time>
      </trkpt>
      <trkpt lat="43.70366" lon="-0.24017">
        <ele>82</ele>
        <time>2022-08-20T13:59:14Z</time>
      </trkpt>
      <trkpt lat="43.70372" lon="-0.24032">
        <ele>82</ele>
        <time>2022-08-20T13:59:30Z</time>
      </trkpt>
      <trkpt lat="43.70373" lon="-0.24039">
        <ele>82</ele>
        <time>2022-08-20T13:59:34Z</time>
      </trkpt>
      <trkpt lat="43.70382" lon="-0.24067">
        <ele>83</ele>
        <time>2022-08-20T13:59:53Z</time>
      </trkpt>
      <trkpt lat="43.70381" lon="-0.24074">
        <ele>82</ele>
        <time>2022-08-20T13:59:57Z</time>
      </trkpt>
      <trkpt lat="43.70381" lon="-0.24082">
        <ele>83</ele>
        <time>2022-08-20T14:00:02Z</time>
      </trkpt>
      <trkpt lat="43.70384" lon="-0.24088">
        <ele>82</ele>
        <time>2022-08-20T14:00:06Z</time>
      </trkpt>
      <trkpt lat="43.70384" lon="-0.24096">
        <ele>82</ele>
        <time>2022-08-20T14:00:10Z</time>
      </trkpt>
      <trkpt lat="43.70383" lon="-0.24109">
        <ele>82</ele>
        <time>2022-08-20T14:00:17Z</time>
      </trkpt>
      <trkpt lat="43.70385" lon="-0.2413">
        <ele>82</ele>
        <time>2022-08-20T14:00:30Z</time>
      </trkpt>
      <trkpt lat="43.70383" lon="-0.24136">
        <ele>82</ele>
        <time>2022-08-20T14:00:34Z</time>
      </trkpt>
      <trkpt lat="43.70379" lon="-0.24141">
        <ele>82</ele>
        <time>2022-08-20T14:00:38Z</time>
      </trkpt>
      <trkpt lat="43.70375" lon="-0.24144">
        <ele>82</ele>
        <time>2022-08-20T14:00:42Z</time>
      </trkpt>
      <trkpt lat="43.70342" lon="-0.24157">
        <ele>82</ele>
        <time>2022-08-20T14:01:10Z</time>
      </trkpt>
      <trkpt lat="43.70338" lon="-0.24162">
        <ele>82</ele>
        <time>2022-08-20T14:01:14Z</time>
      </trkpt>
      <trkpt lat="43.703" lon="-0.2418">
        <ele>82</ele>
        <time>2022-08-20T14:01:46Z</time>
      </trkpt>
      <trkpt lat="43.70295" lon="-0.24184">
        <ele>82</ele>
        <time>2022-08-20T14:01:50Z</time>
      </trkpt>
      <trkpt lat="43.70293" lon="-0.24192">
        <ele>82</ele>
        <time>2022-08-20T14:01:54Z</time>
      </trkpt>
      <trkpt lat="43.70294" lon="-0.24199">
        <ele>82</ele>
        <time>2022-08-20T14:01:58Z</time>
      </trkpt>
      <trkpt lat="43.70295" lon="-0.24205">
        <ele>82</ele>
        <time>2022-08-20T14:02:02Z</time>
      </trkpt>
      <trkpt lat="43.70299" lon="-0.24219">
        <ele>82</ele>
        <time>2022-08-20T14:02:10Z</time>
      </trkpt>
      <trkpt lat="43.7031" lon="-0.2427">
        <ele>82</ele>
        <time>2022-08-20T14:02:41Z</time>
      </trkpt>
      <trkpt lat="43.70321" lon="-0.24323">
        <ele>82</ele>
        <time>2022-08-20T14:03:13Z</time>
      </trkpt>
      <trkpt lat="43.70333" lon="-0.24374">
        <ele>82</ele>
        <time>2022-08-20T14:03:45Z</time>
      </trkpt>
      <trkpt lat="43.70334" lon="-0.2438">
        <ele>82</ele>
        <time>2022-08-20T14:03:49Z</time>
      </trkpt>
      <trkpt lat="43.70342" lon="-0.24408">
        <ele>82</ele>
        <time>2022-08-20T14:04:06Z</time>
      </trkpt>
      <trkpt lat="43.70344" lon="-0.24428">
        <ele>82</ele>
        <time>2022-08-20T14:04:17Z</time>
      </trkpt>
      <trkpt lat="43.70347" lon="-0.24435">
        <ele>82</ele>
        <time>2022-08-20T14:04:25Z</time>
      </trkpt>
      <trkpt lat="43.70358" lon="-0.24489">
        <ele>81</ele>
        <time>2022-08-20T14:04:59Z</time>
      </trkpt>
      <trkpt lat="43.70364" lon="-0.24529">
        <ele>81</ele>
        <time>2022-08-20T14:05:23Z</time>
      </trkpt>
      <trkpt lat="43.70366" lon="-0.24542">
        <ele>81</ele>
        <time>2022-08-20T14:05:30Z</time>
      </trkpt>
      <trkpt lat="43.7037" lon="-0.24571">
        <ele>81</ele>
        <time>2022-08-20T14:05:48Z</time>
      </trkpt>
      <trkpt lat="43.70371" lon="-0.24587">
        <ele>81</ele>
        <time>2022-08-20T14:05:56Z</time>
      </trkpt>
      <trkpt lat="43.70373" lon="-0.24601">
        <ele>81</ele>
        <time>2022-08-20T14:06:04Z</time>
      </trkpt>
      <trkpt lat="43.70374" lon="-0.24615">
        <ele>81</ele>
        <time>2022-08-20T14:06:13Z</time>
      </trkpt>
      <trkpt lat="43.70376" lon="-0.24663">
        <ele>81</ele>
        <time>2022-08-20T14:06:40Z</time>
      </trkpt>
      <trkpt lat="43.70367" lon="-0.24716">
        <ele>81</ele>
        <time>2022-08-20T14:07:11Z</time>
      </trkpt>
      <trkpt lat="43.70364" lon="-0.2473">
        <ele>80</ele>
        <time>2022-08-20T14:07:19Z</time>
      </trkpt>
      <trkpt lat="43.70358" lon="-0.24784">
        <ele>81</ele>
        <time>2022-08-20T14:07:52Z</time>
      </trkpt>
      <trkpt lat="43.70356" lon="-0.2479">
        <ele>81</ele>
        <time>2022-08-20T14:07:56Z</time>
      </trkpt>
      <trkpt lat="43.70355" lon="-0.24797">
        <ele>81</ele>
        <time>2022-08-20T14:08:00Z</time>
      </trkpt>
      <trkpt lat="43.70355" lon="-0.24803">
        <ele>81</ele>
        <time>2022-08-20T14:08:05Z</time>
      </trkpt>
      <trkpt lat="43.70356" lon="-0.2481">
        <ele>81</ele>
        <time>2022-08-20T14:08:10Z</time>
      </trkpt>
      <trkpt lat="43.70356" lon="-0.24818">
        <ele>81</ele>
        <time>2022-08-20T14:08:14Z</time>
      </trkpt>
      <trkpt lat="43.70352" lon="-0.24832">
        <ele>81</ele>
        <time>2022-08-20T14:08:22Z</time>
      </trkpt>
      <trkpt lat="43.70344" lon="-0.24866">
        <ele>81</ele>
        <time>2022-08-20T14:08:53Z</time>
      </trkpt>
      <trkpt lat="43.70332" lon="-0.24898">
        <ele>81</ele>
        <time>2022-08-20T14:09:15Z</time>
      </trkpt>
      <trkpt lat="43.7033" lon="-0.24906">
        <ele>81</ele>
        <time>2022-08-20T14:09:20Z</time>
      </trkpt>
      <trkpt lat="43.70328" lon="-0.24913">
        <ele>80</ele>
        <time>2022-08-20T14:09:24Z</time>
      </trkpt>
      <trkpt lat="43.70324" lon="-0.24928">
        <ele>81</ele>
        <time>2022-08-20T14:09:32Z</time>
      </trkpt>
      <trkpt lat="43.70323" lon="-0.24935">
        <ele>80</ele>
        <time>2022-08-20T14:09:36Z</time>
      </trkpt>
      <trkpt lat="43.70318" lon="-0.24948">
        <ele>80</ele>
        <time>2022-08-20T14:09:47Z</time>
      </trkpt>
      <trkpt lat="43.70314" lon="-0.24961">
        <ele>81</ele>
        <time>2022-08-20T14:09:55Z</time>
      </trkpt>
      <trkpt lat="43.70313" lon="-0.24967">
        <ele>81</ele>
        <time>2022-08-20T14:09:59Z</time>
      </trkpt>
      <trkpt lat="43.70314" lon="-0.24974">
        <ele>81</ele>
        <time>2022-08-20T14:10:03Z</time>
      </trkpt>
      <trkpt lat="43.70316" lon="-0.24979">
        <ele>81</ele>
        <time>2022-08-20T14:10:07Z</time>
      </trkpt>
      <trkpt lat="43.7032" lon="-0.24984">
        <ele>81</ele>
        <time>2022-08-20T14:10:11Z</time>
      </trkpt>
      <trkpt lat="43.70325" lon="-0.24986">
        <ele>81</ele>
        <time>2022-08-20T14:10:16Z</time>
      </trkpt>
      <trkpt lat="43.7033" lon="-0.24989">
        <ele>80</ele>
        <time>2022-08-20T14:10:21Z</time>
      </trkpt>
      <trkpt lat="43.70345" lon="-0.24993">
        <ele>80</ele>
        <time>2022-08-20T14:10:47Z</time>
      </trkpt>
      <trkpt lat="43.70349" lon="-0.24997">
        <ele>80</ele>
        <time>2022-08-20T14:10:51Z</time>
      </trkpt>
      <trkpt lat="43.70359" lon="-0.25002">
        <ele>80</ele>
        <time>2022-08-20T14:10:59Z</time>
      </trkpt>
      <trkpt lat="43.70363" lon="-0.25005">
        <ele>80</ele>
        <time>2022-08-20T14:11:03Z</time>
      </trkpt>
      <trkpt lat="43.70368" lon="-0.25008">
        <ele>80</ele>
        <time>2022-08-20T14:11:09Z</time>
      </trkpt>
      <trkpt lat="43.70378" lon="-0.25011">
        <ele>81</ele>
        <time>2022-08-20T14:11:18Z</time>
      </trkpt>
      <trkpt lat="43.70383" lon="-0.2501">
        <ele>81</ele>
        <time>2022-08-20T14:11:23Z</time>
      </trkpt>
      <trkpt lat="43.70388" lon="-0.25011">
        <ele>81</ele>
        <time>2022-08-20T14:11:27Z</time>
      </trkpt>
      <trkpt lat="43.70394" lon="-0.25013">
        <ele>81</ele>
        <time>2022-08-20T14:11:32Z</time>
      </trkpt>
      <trkpt lat="43.70409" lon="-0.2502">
        <ele>81</ele>
        <time>2022-08-20T14:11:44Z</time>
      </trkpt>
      <trkpt lat="43.70411" lon="-0.25026">
        <ele>81</ele>
        <time>2022-08-20T14:11:49Z</time>
      </trkpt>
      <trkpt lat="43.70402" lon="-0.25054">
        <ele>81</ele>
        <time>2022-08-20T14:12:08Z</time>
      </trkpt>
      <trkpt lat="43.70382" lon="-0.25086">
        <ele>81</ele>
        <time>2022-08-20T14:12:30Z</time>
      </trkpt>
      <trkpt lat="43.70376" lon="-0.25098">
        <ele>81</ele>
        <time>2022-08-20T14:12:42Z</time>
      </trkpt>
      <trkpt lat="43.70376" lon="-0.25106">
        <ele>81</ele>
        <time>2022-08-20T14:12:53Z</time>
      </trkpt>
      <trkpt lat="43.70379" lon="-0.25123">
        <ele>81</ele>
        <time>2022-08-20T14:13:05Z</time>
      </trkpt>
      <trkpt lat="43.70371" lon="-0.25125">
        <ele>81</ele>
        <time>2022-08-20T14:13:09Z</time>
      </trkpt>
      <trkpt lat="43.70385" lon="-0.2512">
        <ele>81</ele>
        <time>2022-08-20T14:18:24Z</time>
      </trkpt>
      <trkpt lat="43.70381" lon="-0.25123">
        <ele>80</ele>
        <time>2022-08-20T14:20:24Z</time>
      </trkpt>
      <trkpt lat="43.70384" lon="-0.2513">
        <ele>80</ele>
        <time>2022-08-20T14:20:27Z</time>
      </trkpt>
      <trkpt lat="43.70389" lon="-0.25133">
        <ele>80</ele>
        <time>2022-08-20T14:20:32Z</time>
      </trkpt>
      <trkpt lat="43.70391" lon="-0.25139">
        <ele>80</ele>
        <time>2022-08-20T14:20:36Z</time>
      </trkpt>
      <trkpt lat="43.70406" lon="-0.25162">
        <ele>80</ele>
        <time>2022-08-20T14:20:57Z</time>
      </trkpt>
      <trkpt lat="43.70409" lon="-0.25171">
        <ele>80</ele>
        <time>2022-08-20T14:21:04Z</time>
      </trkpt>
      <trkpt lat="43.70406" lon="-0.25179">
        <ele>80</ele>
        <time>2022-08-20T14:21:17Z</time>
      </trkpt>
      <trkpt lat="43.70411" lon="-0.25192">
        <ele>80</ele>
        <time>2022-08-20T14:21:23Z</time>
      </trkpt>
      <trkpt lat="43.70411" lon="-0.252">
        <ele>80</ele>
        <time>2022-08-20T14:21:26Z</time>
      </trkpt>
      <trkpt lat="43.70418" lon="-0.25219">
        <ele>80</ele>
        <time>2022-08-20T14:21:38Z</time>
      </trkpt>
      <trkpt lat="43.70422" lon="-0.25267">
        <ele>80</ele>
        <time>2022-08-20T14:22:11Z</time>
      </trkpt>
      <trkpt lat="43.70428" lon="-0.25315">
        <ele>79</ele>
        <time>2022-08-20T14:22:38Z</time>
      </trkpt>
      <trkpt lat="43.70429" lon="-0.2533">
        <ele>80</ele>
        <time>2022-08-20T14:22:46Z</time>
      </trkpt>
      <trkpt lat="43.70434" lon="-0.25383">
        <ele>79</ele>
        <time>2022-08-20T14:23:17Z</time>
      </trkpt>
      <trkpt lat="43.70436" lon="-0.25389">
        <ele>79</ele>
        <time>2022-08-20T14:23:21Z</time>
      </trkpt>
      <trkpt lat="43.70436" lon="-0.25395">
        <ele>80</ele>
        <time>2022-08-20T14:23:24Z</time>
      </trkpt>
      <trkpt lat="43.70435" lon="-0.25415">
        <ele>80</ele>
        <time>2022-08-20T14:23:35Z</time>
      </trkpt>
      <trkpt lat="43.70436" lon="-0.25437">
        <ele>80</ele>
        <time>2022-08-20T14:23:49Z</time>
      </trkpt>
      <trkpt lat="43.70435" lon="-0.25444">
        <ele>79</ele>
        <time>2022-08-20T14:23:53Z</time>
      </trkpt>
      <trkpt lat="43.70438" lon="-0.255">
        <ele>79</ele>
        <time>2022-08-20T14:24:26Z</time>
      </trkpt>
      <trkpt lat="43.7044" lon="-0.25558">
        <ele>79</ele>
        <time>2022-08-20T14:25:01Z</time>
      </trkpt>
      <trkpt lat="43.7044" lon="-0.25566">
        <ele>79</ele>
        <time>2022-08-20T14:25:05Z</time>
      </trkpt>
      <trkpt lat="43.70443" lon="-0.25621">
        <ele>79</ele>
        <time>2022-08-20T14:25:37Z</time>
      </trkpt>
      <trkpt lat="43.70444" lon="-0.25628">
        <ele>79</ele>
        <time>2022-08-20T14:25:41Z</time>
      </trkpt>
      <trkpt lat="43.70443" lon="-0.25635">
        <ele>79</ele>
        <time>2022-08-20T14:25:44Z</time>
      </trkpt>
      <trkpt lat="43.70446" lon="-0.25688">
        <ele>79</ele>
        <time>2022-08-20T14:26:13Z</time>
      </trkpt>
      <trkpt lat="43.70445" lon="-0.25694">
        <ele>80</ele>
        <time>2022-08-20T14:26:16Z</time>
      </trkpt>
      <trkpt lat="43.70447" lon="-0.25715">
        <ele>79</ele>
        <time>2022-08-20T14:26:28Z</time>
      </trkpt>
      <trkpt lat="43.70447" lon="-0.25734">
        <ele>80</ele>
        <time>2022-08-20T14:26:41Z</time>
      </trkpt>
      <trkpt lat="43.70452" lon="-0.25756">
        <ele>79</ele>
        <time>2022-08-20T14:26:53Z</time>
      </trkpt>
      <trkpt lat="43.70453" lon="-0.25763">
        <ele>80</ele>
        <time>2022-08-20T14:26:57Z</time>
      </trkpt>
      <trkpt lat="43.70455" lon="-0.25769">
        <ele>80</ele>
        <time>2022-08-20T14:27:01Z</time>
      </trkpt>
      <trkpt lat="43.70456" lon="-0.25775">
        <ele>80</ele>
        <time>2022-08-20T14:27:05Z</time>
      </trkpt>
      <trkpt lat="43.70458" lon="-0.25789">
        <ele>80</ele>
        <time>2022-08-20T14:27:13Z</time>
      </trkpt>
      <trkpt lat="43.70462" lon="-0.25801">
        <ele>80</ele>
        <time>2022-08-20T14:27:21Z</time>
      </trkpt>
      <trkpt lat="43.70463" lon="-0.25809">
        <ele>80</ele>
        <time>2022-08-20T14:27:26Z</time>
      </trkpt>
      <trkpt lat="43.70462" lon="-0.25816">
        <ele>80</ele>
        <time>2022-08-20T14:27:31Z</time>
      </trkpt>
      <trkpt lat="43.70459" lon="-0.2583">
        <ele>80</ele>
        <time>2022-08-20T14:27:39Z</time>
      </trkpt>
      <trkpt lat="43.70459" lon="-0.2584">
        <ele>80</ele>
        <time>2022-08-20T14:27:46Z</time>
      </trkpt>
      <trkpt lat="43.70461" lon="-0.25855">
        <ele>80</ele>
        <time>2022-08-20T14:27:54Z</time>
      </trkpt>
      <trkpt lat="43.70464" lon="-0.25878">
        <ele>80</ele>
        <time>2022-08-20T14:28:06Z</time>
      </trkpt>
      <trkpt lat="43.70463" lon="-0.25885">
        <ele>80</ele>
        <time>2022-08-20T14:28:10Z</time>
      </trkpt>
      <trkpt lat="43.70464" lon="-0.25892">
        <ele>80</ele>
        <time>2022-08-20T14:28:14Z</time>
      </trkpt>
      <trkpt lat="43.70461" lon="-0.25898">
        <ele>80</ele>
        <time>2022-08-20T14:28:18Z</time>
      </trkpt>
      <trkpt lat="43.70458" lon="-0.25903">
        <ele>79</ele>
        <time>2022-08-20T14:28:23Z</time>
      </trkpt>
      <trkpt lat="43.70465" lon="-0.25938">
        <ele>80</ele>
        <time>2022-08-20T14:28:42Z</time>
      </trkpt>
      <trkpt lat="43.70465" lon="-0.25952">
        <ele>80</ele>
        <time>2022-08-20T14:28:49Z</time>
      </trkpt>
      <trkpt lat="43.70463" lon="-0.25959">
        <ele>79</ele>
        <time>2022-08-20T14:28:52Z</time>
      </trkpt>
      <trkpt lat="43.70463" lon="-0.25967">
        <ele>79</ele>
        <time>2022-08-20T14:28:56Z</time>
      </trkpt>
      <trkpt lat="43.70464" lon="-0.25973">
        <ele>80</ele>
        <time>2022-08-20T14:29:01Z</time>
      </trkpt>
      <trkpt lat="43.70465" lon="-0.25987">
        <ele>80</ele>
        <time>2022-08-20T14:29:09Z</time>
      </trkpt>
      <trkpt lat="43.70462" lon="-0.25994">
        <ele>80</ele>
        <time>2022-08-20T14:29:13Z</time>
      </trkpt>
      <trkpt lat="43.70459" lon="-0.25999">
        <ele>80</ele>
        <time>2022-08-20T14:29:16Z</time>
      </trkpt>
      <trkpt lat="43.70458" lon="-0.26006">
        <ele>80</ele>
        <time>2022-08-20T14:29:21Z</time>
      </trkpt>
      <trkpt lat="43.70457" lon="-0.26019">
        <ele>80</ele>
        <time>2022-08-20T14:29:30Z</time>
      </trkpt>
      <trkpt lat="43.70463" lon="-0.26042">
        <ele>80</ele>
        <time>2022-08-20T14:29:45Z</time>
      </trkpt>
      <trkpt lat="43.70465" lon="-0.26047">
        <ele>80</ele>
        <time>2022-08-20T14:29:49Z</time>
      </trkpt>
      <trkpt lat="43.70469" lon="-0.26068">
        <ele>80</ele>
        <time>2022-08-20T14:30:02Z</time>
      </trkpt>
      <trkpt lat="43.7047" lon="-0.26104">
        <ele>81</ele>
        <time>2022-08-20T14:30:22Z</time>
      </trkpt>
      <trkpt lat="43.70467" lon="-0.26118">
        <ele>81</ele>
        <time>2022-08-20T14:30:31Z</time>
      </trkpt>
      <trkpt lat="43.70468" lon="-0.26134">
        <ele>81</ele>
        <time>2022-08-20T14:30:39Z</time>
      </trkpt>
      <trkpt lat="43.70469" lon="-0.26142">
        <ele>80</ele>
        <time>2022-08-20T14:30:44Z</time>
      </trkpt>
      <trkpt lat="43.70468" lon="-0.26151">
        <ele>80</ele>
        <time>2022-08-20T14:30:49Z</time>
      </trkpt>
      <trkpt lat="43.70463" lon="-0.26155">
        <ele>81</ele>
        <time>2022-08-20T14:30:52Z</time>
      </trkpt>
      <trkpt lat="43.70454" lon="-0.26164">
        <ele>81</ele>
        <time>2022-08-20T14:30:59Z</time>
      </trkpt>
      <trkpt lat="43.70425" lon="-0.26174">
        <ele>81</ele>
        <time>2022-08-20T14:31:23Z</time>
      </trkpt>
      <trkpt lat="43.70419" lon="-0.26173">
        <ele>81</ele>
        <time>2022-08-20T14:31:28Z</time>
      </trkpt>
      <trkpt lat="43.70414" lon="-0.26173">
        <ele>81</ele>
        <time>2022-08-20T14:31:33Z</time>
      </trkpt>
      <trkpt lat="43.70405" lon="-0.26177">
        <ele>81</ele>
        <time>2022-08-20T14:31:45Z</time>
      </trkpt>
      <trkpt lat="43.70395" lon="-0.26177">
        <ele>81</ele>
        <time>2022-08-20T14:31:53Z</time>
      </trkpt>
      <trkpt lat="43.70389" lon="-0.26174">
        <ele>81</ele>
        <time>2022-08-20T14:32:00Z</time>
      </trkpt>
      <trkpt lat="43.70383" lon="-0.26182">
        <ele>81</ele>
        <time>2022-08-20T14:32:22Z</time>
      </trkpt>
      <trkpt lat="43.70348" lon="-0.26193">
        <ele>81</ele>
        <time>2022-08-20T14:32:53Z</time>
      </trkpt>
      <trkpt lat="43.70308" lon="-0.26198">
        <ele>80</ele>
        <time>2022-08-20T14:33:24Z</time>
      </trkpt>
      <trkpt lat="43.70298" lon="-0.26201">
        <ele>80</ele>
        <time>2022-08-20T14:33:32Z</time>
      </trkpt>
      <trkpt lat="43.70294" lon="-0.26204">
        <ele>81</ele>
        <time>2022-08-20T14:33:40Z</time>
      </trkpt>
      <trkpt lat="43.70289" lon="-0.26206">
        <ele>80</ele>
        <time>2022-08-20T14:33:45Z</time>
      </trkpt>
      <trkpt lat="43.70249" lon="-0.2621">
        <ele>79</ele>
        <time>2022-08-20T14:34:20Z</time>
      </trkpt>
      <trkpt lat="43.70243" lon="-0.26212">
        <ele>79</ele>
        <time>2022-08-20T14:34:24Z</time>
      </trkpt>
      <trkpt lat="43.70237" lon="-0.26218">
        <ele>79</ele>
        <time>2022-08-20T14:34:31Z</time>
      </trkpt>
      <trkpt lat="43.70225" lon="-0.26222">
        <ele>79</ele>
        <time>2022-08-20T14:34:44Z</time>
      </trkpt>
      <trkpt lat="43.70219" lon="-0.26224">
        <ele>79</ele>
        <time>2022-08-20T14:34:49Z</time>
      </trkpt>
      <trkpt lat="43.70212" lon="-0.26224">
        <ele>79</ele>
        <time>2022-08-20T14:34:54Z</time>
      </trkpt>
      <trkpt lat="43.70205" lon="-0.26228">
        <ele>79</ele>
        <time>2022-08-20T14:35:02Z</time>
      </trkpt>
      <trkpt lat="43.70182" lon="-0.26233">
        <ele>79</ele>
        <time>2022-08-20T14:35:20Z</time>
      </trkpt>
      <trkpt lat="43.70173" lon="-0.26238">
        <ele>79</ele>
        <time>2022-08-20T14:35:27Z</time>
      </trkpt>
      <trkpt lat="43.70167" lon="-0.26234">
        <ele>79</ele>
        <time>2022-08-20T14:35:33Z</time>
      </trkpt>
      <trkpt lat="43.70158" lon="-0.26236">
        <ele>80</ele>
        <time>2022-08-20T14:35:44Z</time>
      </trkpt>
      <trkpt lat="43.70162" lon="-0.26244">
        <ele>81</ele>
        <time>2022-08-20T14:35:56Z</time>
      </trkpt>
      <trkpt lat="43.70151" lon="-0.26246">
        <ele>80</ele>
        <time>2022-08-20T14:36:04Z</time>
      </trkpt>
      <trkpt lat="43.70143" lon="-0.26244">
        <ele>80</ele>
        <time>2022-08-20T14:36:13Z</time>
      </trkpt>
      <trkpt lat="43.70132" lon="-0.26242">
        <ele>80</ele>
        <time>2022-08-20T14:36:22Z</time>
      </trkpt>
      <trkpt lat="43.70125" lon="-0.26248">
        <ele>81</ele>
        <time>2022-08-20T14:36:29Z</time>
      </trkpt>
      <trkpt lat="43.70116" lon="-0.26246">
        <ele>81</ele>
        <time>2022-08-20T14:36:36Z</time>
      </trkpt>
      <trkpt lat="43.70107" lon="-0.26233">
        <ele>81</ele>
        <time>2022-08-20T14:36:53Z</time>
      </trkpt>
      <trkpt lat="43.701" lon="-0.26201">
        <ele>82</ele>
        <time>2022-08-20T14:37:10Z</time>
      </trkpt>
      <trkpt lat="43.70105" lon="-0.26201">
        <ele>81</ele>
        <time>2022-08-20T14:37:30Z</time>
      </trkpt>
      <trkpt lat="43.70114" lon="-0.26196">
        <ele>81</ele>
        <time>2022-08-20T14:37:35Z</time>
      </trkpt>
      <trkpt lat="43.70116" lon="-0.26187">
        <ele>82</ele>
        <time>2022-08-20T14:37:47Z</time>
      </trkpt>
      <trkpt lat="43.70106" lon="-0.26185">
        <ele>81</ele>
        <time>2022-08-20T14:38:15Z</time>
      </trkpt>
      <trkpt lat="43.701" lon="-0.26189">
        <ele>82</ele>
        <time>2022-08-20T14:38:21Z</time>
      </trkpt>
      <trkpt lat="43.70086" lon="-0.26191">
        <ele>82</ele>
        <time>2022-08-20T14:38:35Z</time>
      </trkpt>
      <trkpt lat="43.7008" lon="-0.26188">
        <ele>82</ele>
        <time>2022-08-20T14:38:57Z</time>
      </trkpt>
      <trkpt lat="43.70076" lon="-0.2619">
        <ele>82</ele>
        <time>2022-08-20T14:39:01Z</time>
      </trkpt>
      <trkpt lat="43.7007" lon="-0.26185">
        <ele>82</ele>
        <time>2022-08-20T14:39:09Z</time>
      </trkpt>
      <trkpt lat="43.70061" lon="-0.26187">
        <ele>82</ele>
        <time>2022-08-20T14:39:19Z</time>
      </trkpt>
      <trkpt lat="43.70058" lon="-0.26194">
        <ele>82</ele>
        <time>2022-08-20T14:39:23Z</time>
      </trkpt>
      <trkpt lat="43.70058" lon="-0.26203">
        <ele>83</ele>
        <time>2022-08-20T14:39:27Z</time>
      </trkpt>
      <trkpt lat="43.70058" lon="-0.26211">
        <ele>82</ele>
        <time>2022-08-20T14:39:32Z</time>
      </trkpt>
      <trkpt lat="43.70061" lon="-0.26218">
        <ele>83</ele>
        <time>2022-08-20T14:39:35Z</time>
      </trkpt>
      <trkpt lat="43.70061" lon="-0.26226">
        <ele>83</ele>
        <time>2022-08-20T14:39:39Z</time>
      </trkpt>
      <trkpt lat="43.70053" lon="-0.26226">
        <ele>83</ele>
        <time>2022-08-20T14:39:43Z</time>
      </trkpt>
      <trkpt lat="43.70048" lon="-0.2623">
        <ele>83</ele>
        <time>2022-08-20T14:39:49Z</time>
      </trkpt>
      <trkpt lat="43.70045" lon="-0.26241">
        <ele>82</ele>
        <time>2022-08-20T14:41:24Z</time>
      </trkpt>
      <trkpt lat="43.70044" lon="-0.26245">
        <ele>82</ele>
        <time>2022-08-20T14:41:50Z</time>
      </trkpt>
      <trkpt lat="43.70041" lon="-0.26253">
        <ele>82</ele>
        <time>2022-08-20T14:41:56Z</time>
      </trkpt>
      <trkpt lat="43.70031" lon="-0.26255">
        <ele>82</ele>
        <time>2022-08-20T14:42:09Z</time>
      </trkpt>
      <trkpt lat="43.70009" lon="-0.2625">
        <ele>82</ele>
        <time>2022-08-20T14:42:29Z</time>
      </trkpt>
      <trkpt lat="43.69997" lon="-0.26257">
        <ele>82</ele>
        <time>2022-08-20T14:42:45Z</time>
      </trkpt>
      <trkpt lat="43.69991" lon="-0.26269">
        <ele>82</ele>
        <time>2022-08-20T14:42:51Z</time>
      </trkpt>
      <trkpt lat="43.69989" lon="-0.26277">
        <ele>81</ele>
        <time>2022-08-20T14:42:57Z</time>
      </trkpt>
      <trkpt lat="43.6999" lon="-0.26284">
        <ele>81</ele>
        <time>2022-08-20T14:43:01Z</time>
      </trkpt>
      <trkpt lat="43.69991" lon="-0.26305">
        <ele>81</ele>
        <time>2022-08-20T14:43:13Z</time>
      </trkpt>
      <trkpt lat="43.69994" lon="-0.26315">
        <ele>81</ele>
        <time>2022-08-20T14:43:20Z</time>
      </trkpt>
      <trkpt lat="43.69999" lon="-0.26328">
        <ele>82</ele>
        <time>2022-08-20T14:43:30Z</time>
      </trkpt>
      <trkpt lat="43.69996" lon="-0.26353">
        <ele>81</ele>
        <time>2022-08-20T14:43:42Z</time>
      </trkpt>
      <trkpt lat="43.69997" lon="-0.26362">
        <ele>82</ele>
        <time>2022-08-20T14:43:49Z</time>
      </trkpt>
      <trkpt lat="43.69997" lon="-0.26373">
        <ele>82</ele>
        <time>2022-08-20T14:43:56Z</time>
      </trkpt>
      <trkpt lat="43.7" lon="-0.26383">
        <ele>82</ele>
        <time>2022-08-20T14:44:01Z</time>
      </trkpt>
      <trkpt lat="43.70001" lon="-0.26391">
        <ele>82</ele>
        <time>2022-08-20T14:44:07Z</time>
      </trkpt>
      <trkpt lat="43.70001" lon="-0.26401">
        <ele>82</ele>
        <time>2022-08-20T14:44:12Z</time>
      </trkpt>
      <trkpt lat="43.69999" lon="-0.26407">
        <ele>82</ele>
        <time>2022-08-20T14:44:17Z</time>
      </trkpt>
      <trkpt lat="43.69999" lon="-0.26415">
        <ele>82</ele>
        <time>2022-08-20T14:44:22Z</time>
      </trkpt>
      <trkpt lat="43.69999" lon="-0.26424">
        <ele>82</ele>
        <time>2022-08-20T14:44:40Z</time>
      </trkpt>
      <trkpt lat="43.69995" lon="-0.26439">
        <ele>83</ele>
        <time>2022-08-20T14:45:09Z</time>
      </trkpt>
      <trkpt lat="43.69997" lon="-0.26478">
        <ele>84</ele>
        <time>2022-08-20T14:45:32Z</time>
      </trkpt>
      <trkpt lat="43.69995" lon="-0.26489">
        <ele>84</ele>
        <time>2022-08-20T14:45:38Z</time>
      </trkpt>
      <trkpt lat="43.69998" lon="-0.2653">
        <ele>86</ele>
        <time>2022-08-20T14:46:04Z</time>
      </trkpt>
      <trkpt lat="43.69991" lon="-0.26551">
        <ele>87</ele>
        <time>2022-08-20T14:46:17Z</time>
      </trkpt>
      <trkpt lat="43.6999" lon="-0.26569">
        <ele>87</ele>
        <time>2022-08-20T14:46:36Z</time>
      </trkpt>
      <trkpt lat="43.69989" lon="-0.26576">
        <ele>87</ele>
        <time>2022-08-20T14:46:40Z</time>
      </trkpt>
      <trkpt lat="43.69989" lon="-0.26591">
        <ele>88</ele>
        <time>2022-08-20T14:46:49Z</time>
      </trkpt>
      <trkpt lat="43.69987" lon="-0.26598">
        <ele>88</ele>
        <time>2022-08-20T14:46:55Z</time>
      </trkpt>
      <trkpt lat="43.69995" lon="-0.26618">
        <ele>89</ele>
        <time>2022-08-20T14:47:13Z</time>
      </trkpt>
      <trkpt lat="43.69995" lon="-0.26626">
        <ele>89</ele>
        <time>2022-08-20T14:47:19Z</time>
      </trkpt>
      <trkpt lat="43.69986" lon="-0.26648">
        <ele>90</ele>
        <time>2022-08-20T14:47:33Z</time>
      </trkpt>
      <trkpt lat="43.69984" lon="-0.26655">
        <ele>91</ele>
        <time>2022-08-20T14:47:37Z</time>
      </trkpt>
      <trkpt lat="43.69975" lon="-0.26671">
        <ele>92</ele>
        <time>2022-08-20T14:47:47Z</time>
      </trkpt>
      <trkpt lat="43.69977" lon="-0.26686">
        <ele>94</ele>
        <time>2022-08-20T14:47:56Z</time>
      </trkpt>
      <trkpt lat="43.69969" lon="-0.267">
        <ele>95</ele>
        <time>2022-08-20T14:48:07Z</time>
      </trkpt>
      <trkpt lat="43.69938" lon="-0.26724">
        <ele>99</ele>
        <time>2022-08-20T14:48:38Z</time>
      </trkpt>
      <trkpt lat="43.69908" lon="-0.26752">
        <ele>104</ele>
        <time>2022-08-20T14:49:12Z</time>
      </trkpt>
      <trkpt lat="43.6989" lon="-0.2676">
        <ele>106</ele>
        <time>2022-08-20T14:49:34Z</time>
      </trkpt>
      <trkpt lat="43.69863" lon="-0.26786">
        <ele>110</ele>
        <time>2022-08-20T14:50:06Z</time>
      </trkpt>
      <trkpt lat="43.69859" lon="-0.26792">
        <ele>110</ele>
        <time>2022-08-20T14:50:11Z</time>
      </trkpt>
      <trkpt lat="43.69849" lon="-0.26798">
        <ele>111</ele>
        <time>2022-08-20T14:50:20Z</time>
      </trkpt>
      <trkpt lat="43.69844" lon="-0.26799">
        <ele>112</ele>
        <time>2022-08-20T14:50:24Z</time>
      </trkpt>
      <trkpt lat="43.69839" lon="-0.26802">
        <ele>112</ele>
        <time>2022-08-20T14:50:29Z</time>
      </trkpt>
      <trkpt lat="43.69837" lon="-0.26808">
        <ele>113</ele>
        <time>2022-08-20T14:50:33Z</time>
      </trkpt>
      <trkpt lat="43.69822" lon="-0.26828">
        <ele>115</ele>
        <time>2022-08-20T14:50:55Z</time>
      </trkpt>
      <trkpt lat="43.69818" lon="-0.26832">
        <ele>116</ele>
        <time>2022-08-20T14:51:14Z</time>
      </trkpt>
      <trkpt lat="43.69813" lon="-0.26833">
        <ele>117</ele>
        <time>2022-08-20T14:51:24Z</time>
      </trkpt>
      <trkpt lat="43.69801" lon="-0.26842">
        <ele>118</ele>
        <time>2022-08-20T14:51:39Z</time>
      </trkpt>
      <trkpt lat="43.69795" lon="-0.2684">
        <ele>118</ele>
        <time>2022-08-20T14:51:50Z</time>
      </trkpt>
      <trkpt lat="43.69791" lon="-0.2684">
        <ele>119</ele>
        <time>2022-08-20T14:51:54Z</time>
      </trkpt>
      <trkpt lat="43.69786" lon="-0.2684">
        <ele>119</ele>
        <time>2022-08-20T14:51:57Z</time>
      </trkpt>
      <trkpt lat="43.69781" lon="-0.26842">
        <ele>119</ele>
        <time>2022-08-20T14:51:59Z</time>
      </trkpt>
      <trkpt lat="43.69777" lon="-0.26846">
        <ele>120</ele>
        <time>2022-08-20T14:52:03Z</time>
      </trkpt>
      <trkpt lat="43.69777" lon="-0.26855">
        <ele>121</ele>
        <time>2022-08-20T14:52:10Z</time>
      </trkpt>
      <trkpt lat="43.69774" lon="-0.26862">
        <ele>121</ele>
        <time>2022-08-20T14:52:18Z</time>
      </trkpt>
      <trkpt lat="43.69778" lon="-0.26865">
        <ele>122</ele>
        <time>2022-08-20T14:52:33Z</time>
      </trkpt>
      <trkpt lat="43.69725" lon="-0.2691">
        <ele>177</ele>
        <time>2022-08-21T05:53:29Z</time>
      </trkpt>
      <trkpt lat="43.69717" lon="-0.26919">
        <ele>177</ele>
        <time>2022-08-21T05:53:33Z</time>
      </trkpt>
      <trkpt lat="43.69707" lon="-0.2692">
        <ele>177</ele>
        <time>2022-08-21T05:53:43Z</time>
      </trkpt>
      <trkpt lat="43.69699" lon="-0.26925">
        <ele>177</ele>
        <time>2022-08-21T05:53:51Z</time>
      </trkpt>
      <trkpt lat="43.69688" lon="-0.26925">
        <ele>177</ele>
        <time>2022-08-21T05:53:59Z</time>
      </trkpt>
      <trkpt lat="43.6968" lon="-0.26933">
        <ele>177</ele>
        <time>2022-08-21T05:54:07Z</time>
      </trkpt>
      <trkpt lat="43.6966" lon="-0.26941">
        <ele>177</ele>
        <time>2022-08-21T05:54:23Z</time>
      </trkpt>
      <trkpt lat="43.69642" lon="-0.26951">
        <ele>177</ele>
        <time>2022-08-21T05:54:38Z</time>
      </trkpt>
      <trkpt lat="43.69634" lon="-0.26958">
        <ele>177</ele>
        <time>2022-08-21T05:54:46Z</time>
      </trkpt>
      <trkpt lat="43.69625" lon="-0.2696">
        <ele>178</ele>
        <time>2022-08-21T05:54:53Z</time>
      </trkpt>
      <trkpt lat="43.69597" lon="-0.26977">
        <ele>180</ele>
        <time>2022-08-21T05:55:15Z</time>
      </trkpt>
      <trkpt lat="43.69582" lon="-0.26993">
        <ele>181</ele>
        <time>2022-08-21T05:55:31Z</time>
      </trkpt>
      <trkpt lat="43.69547" lon="-0.27011">
        <ele>183</ele>
        <time>2022-08-21T05:56:01Z</time>
      </trkpt>
      <trkpt lat="43.69521" lon="-0.2703">
        <ele>185</ele>
        <time>2022-08-21T05:56:24Z</time>
      </trkpt>
      <trkpt lat="43.69493" lon="-0.27039">
        <ele>187</ele>
        <time>2022-08-21T05:56:47Z</time>
      </trkpt>
      <trkpt lat="43.69486" lon="-0.27048">
        <ele>188</ele>
        <time>2022-08-21T05:56:55Z</time>
      </trkpt>
      <trkpt lat="43.69442" lon="-0.27078">
        <ele>190</ele>
        <time>2022-08-21T05:57:33Z</time>
      </trkpt>
      <trkpt lat="43.69409" lon="-0.27103">
        <ele>191</ele>
        <time>2022-08-21T05:58:03Z</time>
      </trkpt>
      <trkpt lat="43.69374" lon="-0.27126">
        <ele>193</ele>
        <time>2022-08-21T05:58:35Z</time>
      </trkpt>
      <trkpt lat="43.69341" lon="-0.27152">
        <ele>195</ele>
        <time>2022-08-21T05:59:07Z</time>
      </trkpt>
      <trkpt lat="43.69306" lon="-0.27176">
        <ele>196</ele>
        <time>2022-08-21T05:59:36Z</time>
      </trkpt>
      <trkpt lat="43.69298" lon="-0.27184">
        <ele>196</ele>
        <time>2022-08-21T05:59:44Z</time>
      </trkpt>
      <trkpt lat="43.69263" lon="-0.27207">
        <ele>197</ele>
        <time>2022-08-21T06:00:14Z</time>
      </trkpt>
      <trkpt lat="43.69228" lon="-0.27234">
        <ele>198</ele>
        <time>2022-08-21T06:00:45Z</time>
      </trkpt>
      <trkpt lat="43.69219" lon="-0.27238">
        <ele>198</ele>
        <time>2022-08-21T06:00:51Z</time>
      </trkpt>
      <trkpt lat="43.69212" lon="-0.27248">
        <ele>198</ele>
        <time>2022-08-21T06:00:59Z</time>
      </trkpt>
      <trkpt lat="43.69195" lon="-0.2726">
        <ele>199</ele>
        <time>2022-08-21T06:01:15Z</time>
      </trkpt>
      <trkpt lat="43.69176" lon="-0.27267">
        <ele>199</ele>
        <time>2022-08-21T06:01:42Z</time>
      </trkpt>
      <trkpt lat="43.69134" lon="-0.27298">
        <ele>200</ele>
        <time>2022-08-21T06:02:17Z</time>
      </trkpt>
      <trkpt lat="43.69092" lon="-0.2733">
        <ele>200</ele>
        <time>2022-08-21T06:02:54Z</time>
      </trkpt>
      <trkpt lat="43.69074" lon="-0.27339">
        <ele>200</ele>
        <time>2022-08-21T06:03:09Z</time>
      </trkpt>
      <trkpt lat="43.69041" lon="-0.27366">
        <ele>201</ele>
        <time>2022-08-21T06:03:39Z</time>
      </trkpt>
      <trkpt lat="43.68997" lon="-0.27392">
        <ele>201</ele>
        <time>2022-08-21T06:04:17Z</time>
      </trkpt>
      <trkpt lat="43.68974" lon="-0.27436">
        <ele>201</ele>
        <time>2022-08-21T06:04:46Z</time>
      </trkpt>
      <trkpt lat="43.68969" lon="-0.27461">
        <ele>201</ele>
        <time>2022-08-21T06:05:01Z</time>
      </trkpt>
      <trkpt lat="43.68968" lon="-0.27474">
        <ele>201</ele>
        <time>2022-08-21T06:05:08Z</time>
      </trkpt>
      <trkpt lat="43.68973" lon="-0.27499">
        <ele>201</ele>
        <time>2022-08-21T06:05:22Z</time>
      </trkpt>
      <trkpt lat="43.68974" lon="-0.27526">
        <ele>201</ele>
        <time>2022-08-21T06:05:37Z</time>
      </trkpt>
      <trkpt lat="43.68978" lon="-0.27566">
        <ele>200</ele>
        <time>2022-08-21T06:06:01Z</time>
      </trkpt>
      <trkpt lat="43.68982" lon="-0.27632">
        <ele>200</ele>
        <time>2022-08-21T06:06:36Z</time>
      </trkpt>
      <trkpt lat="43.68984" lon="-0.27646">
        <ele>200</ele>
        <time>2022-08-21T06:06:44Z</time>
      </trkpt>
      <trkpt lat="43.68984" lon="-0.2766">
        <ele>200</ele>
        <time>2022-08-21T06:06:51Z</time>
      </trkpt>
      <trkpt lat="43.68975" lon="-0.27698">
        <ele>200</ele>
        <time>2022-08-21T06:07:13Z</time>
      </trkpt>
      <trkpt lat="43.68941" lon="-0.27722">
        <ele>201</ele>
        <time>2022-08-21T06:07:43Z</time>
      </trkpt>
      <trkpt lat="43.68926" lon="-0.27737">
        <ele>201</ele>
        <time>2022-08-21T06:07:57Z</time>
      </trkpt>
      <trkpt lat="43.68918" lon="-0.27742">
        <ele>201</ele>
        <time>2022-08-21T06:08:04Z</time>
      </trkpt>
      <trkpt lat="43.68894" lon="-0.27763">
        <ele>201</ele>
        <time>2022-08-21T06:08:26Z</time>
      </trkpt>
      <trkpt lat="43.68877" lon="-0.27776">
        <ele>201</ele>
        <time>2022-08-21T06:08:42Z</time>
      </trkpt>
      <trkpt lat="43.6886" lon="-0.2779">
        <ele>201</ele>
        <time>2022-08-21T06:08:56Z</time>
      </trkpt>
      <trkpt lat="43.68858" lon="-0.27818">
        <ele>201</ele>
        <time>2022-08-21T06:09:11Z</time>
      </trkpt>
      <trkpt lat="43.68859" lon="-0.27831">
        <ele>201</ele>
        <time>2022-08-21T06:09:18Z</time>
      </trkpt>
      <trkpt lat="43.68856" lon="-0.27844">
        <ele>201</ele>
        <time>2022-08-21T06:09:27Z</time>
      </trkpt>
      <trkpt lat="43.68824" lon="-0.27873">
        <ele>201</ele>
        <time>2022-08-21T06:09:57Z</time>
      </trkpt>
      <trkpt lat="43.68793" lon="-0.27906">
        <ele>201</ele>
        <time>2022-08-21T06:10:26Z</time>
      </trkpt>
      <trkpt lat="43.68769" lon="-0.27944">
        <ele>201</ele>
        <time>2022-08-21T06:10:56Z</time>
      </trkpt>
      <trkpt lat="43.68734" lon="-0.27991">
        <ele>201</ele>
        <time>2022-08-21T06:11:33Z</time>
      </trkpt>
      <trkpt lat="43.68703" lon="-0.28025">
        <ele>201</ele>
        <time>2022-08-21T06:12:04Z</time>
      </trkpt>
      <trkpt lat="43.68664" lon="-0.28063">
        <ele>201</ele>
        <time>2022-08-21T06:12:40Z</time>
      </trkpt>
      <trkpt lat="43.68629" lon="-0.28088">
        <ele>201</ele>
        <time>2022-08-21T06:13:10Z</time>
      </trkpt>
      <trkpt lat="43.68589" lon="-0.28093">
        <ele>202</ele>
        <time>2022-08-21T06:13:40Z</time>
      </trkpt>
      <trkpt lat="43.68541" lon="-0.28085">
        <ele>203</ele>
        <time>2022-08-21T06:14:18Z</time>
      </trkpt>
      <trkpt lat="43.68522" lon="-0.28084">
        <ele>203</ele>
        <time>2022-08-21T06:14:33Z</time>
      </trkpt>
      <trkpt lat="43.68483" lon="-0.28073">
        <ele>203</ele>
        <time>2022-08-21T06:15:04Z</time>
      </trkpt>
      <trkpt lat="43.68463" lon="-0.28072">
        <ele>204</ele>
        <time>2022-08-21T06:15:19Z</time>
      </trkpt>
      <trkpt lat="43.68454" lon="-0.28079">
        <ele>204</ele>
        <time>2022-08-21T06:15:26Z</time>
      </trkpt>
      <trkpt lat="43.68429" lon="-0.28121">
        <ele>204</ele>
        <time>2022-08-21T06:15:58Z</time>
      </trkpt>
      <trkpt lat="43.68405" lon="-0.28165">
        <ele>203</ele>
        <time>2022-08-21T06:16:28Z</time>
      </trkpt>
      <trkpt lat="43.68393" lon="-0.28201">
        <ele>202</ele>
        <time>2022-08-21T06:16:51Z</time>
      </trkpt>
      <trkpt lat="43.68378" lon="-0.2825">
        <ele>201</ele>
        <time>2022-08-21T06:17:20Z</time>
      </trkpt>
      <trkpt lat="43.68368" lon="-0.28273">
        <ele>200</ele>
        <time>2022-08-21T06:17:35Z</time>
      </trkpt>
      <trkpt lat="43.68353" lon="-0.2829">
        <ele>200</ele>
        <time>2022-08-21T06:17:49Z</time>
      </trkpt>
      <trkpt lat="43.68318" lon="-0.28314">
        <ele>197</ele>
        <time>2022-08-21T06:18:21Z</time>
      </trkpt>
      <trkpt lat="43.6829" lon="-0.28329">
        <ele>194</ele>
        <time>2022-08-21T06:19:10Z</time>
      </trkpt>
      <trkpt lat="43.68282" lon="-0.28336">
        <ele>194</ele>
        <time>2022-08-21T06:19:16Z</time>
      </trkpt>
      <trkpt lat="43.68263" lon="-0.28341">
        <ele>192</ele>
        <time>2022-08-21T06:19:30Z</time>
      </trkpt>
      <trkpt lat="43.68236" lon="-0.28358">
        <ele>189</ele>
        <time>2022-08-21T06:19:51Z</time>
      </trkpt>
      <trkpt lat="43.68218" lon="-0.28366">
        <ele>187</ele>
        <time>2022-08-21T06:20:06Z</time>
      </trkpt>
      <trkpt lat="43.68179" lon="-0.28404">
        <ele>183</ele>
        <time>2022-08-21T06:20:43Z</time>
      </trkpt>
      <trkpt lat="43.68163" lon="-0.28415">
        <ele>182</ele>
        <time>2022-08-21T06:20:56Z</time>
      </trkpt>
      <trkpt lat="43.68125" lon="-0.28426">
        <ele>178</ele>
        <time>2022-08-21T06:21:26Z</time>
      </trkpt>
      <trkpt lat="43.68085" lon="-0.2843">
        <ele>175</ele>
        <time>2022-08-21T06:21:58Z</time>
      </trkpt>
      <trkpt lat="43.68057" lon="-0.2843">
        <ele>172</ele>
        <time>2022-08-21T06:22:20Z</time>
      </trkpt>
      <trkpt lat="43.68049" lon="-0.28438">
        <ele>171</ele>
        <time>2022-08-21T06:22:26Z</time>
      </trkpt>
      <trkpt lat="43.6804" lon="-0.2844">
        <ele>170</ele>
        <time>2022-08-21T06:22:35Z</time>
      </trkpt>
      <trkpt lat="43.6803" lon="-0.28425">
        <ele>169</ele>
        <time>2022-08-21T06:24:12Z</time>
      </trkpt>
      <trkpt lat="43.68024" lon="-0.28415">
        <ele>168</ele>
        <time>2022-08-21T06:24:22Z</time>
      </trkpt>
      <trkpt lat="43.68014" lon="-0.28412">
        <ele>167</ele>
        <time>2022-08-21T06:24:28Z</time>
      </trkpt>
      <trkpt lat="43.68004" lon="-0.2841">
        <ele>167</ele>
        <time>2022-08-21T06:24:35Z</time>
      </trkpt>
      <trkpt lat="43.67995" lon="-0.28404">
        <ele>167</ele>
        <time>2022-08-21T06:24:43Z</time>
      </trkpt>
      <trkpt lat="43.67947" lon="-0.28395">
        <ele>167</ele>
        <time>2022-08-21T06:25:20Z</time>
      </trkpt>
      <trkpt lat="43.67911" lon="-0.28378">
        <ele>167</ele>
        <time>2022-08-21T06:25:52Z</time>
      </trkpt>
      <trkpt lat="43.67901" lon="-0.2838">
        <ele>167</ele>
        <time>2022-08-21T06:26:02Z</time>
      </trkpt>
      <trkpt lat="43.67891" lon="-0.28388">
        <ele>167</ele>
        <time>2022-08-21T06:26:15Z</time>
      </trkpt>
      <trkpt lat="43.6786" lon="-0.28424">
        <ele>167</ele>
        <time>2022-08-21T06:26:38Z</time>
      </trkpt>
      <trkpt lat="43.67851" lon="-0.28428">
        <ele>167</ele>
        <time>2022-08-21T06:26:45Z</time>
      </trkpt>
      <trkpt lat="43.67841" lon="-0.28426">
        <ele>167</ele>
        <time>2022-08-21T06:26:53Z</time>
      </trkpt>
      <trkpt lat="43.67822" lon="-0.28417">
        <ele>167</ele>
        <time>2022-08-21T06:27:08Z</time>
      </trkpt>
      <trkpt lat="43.67801" lon="-0.28392">
        <ele>167</ele>
        <time>2022-08-21T06:27:32Z</time>
      </trkpt>
      <trkpt lat="43.67772" lon="-0.2838">
        <ele>167</ele>
        <time>2022-08-21T06:27:57Z</time>
      </trkpt>
      <trkpt lat="43.67762" lon="-0.2838">
        <ele>167</ele>
        <time>2022-08-21T06:28:05Z</time>
      </trkpt>
      <trkpt lat="43.67753" lon="-0.28378">
        <ele>167</ele>
        <time>2022-08-21T06:28:13Z</time>
      </trkpt>
      <trkpt lat="43.67738" lon="-0.2836">
        <ele>167</ele>
        <time>2022-08-21T06:28:28Z</time>
      </trkpt>
      <trkpt lat="43.67732" lon="-0.28349">
        <ele>167</ele>
        <time>2022-08-21T06:28:33Z</time>
      </trkpt>
      <trkpt lat="43.67723" lon="-0.28344">
        <ele>167</ele>
        <time>2022-08-21T06:28:43Z</time>
      </trkpt>
      <trkpt lat="43.67693" lon="-0.28342">
        <ele>167</ele>
        <time>2022-08-21T06:29:14Z</time>
      </trkpt>
      <trkpt lat="43.67684" lon="-0.28342">
        <ele>167</ele>
        <time>2022-08-21T06:29:19Z</time>
      </trkpt>
      <trkpt lat="43.67675" lon="-0.28337">
        <ele>167</ele>
        <time>2022-08-21T06:29:45Z</time>
      </trkpt>
      <trkpt lat="43.6766" lon="-0.28321">
        <ele>167</ele>
        <time>2022-08-21T06:30:01Z</time>
      </trkpt>
      <trkpt lat="43.67649" lon="-0.28299">
        <ele>168</ele>
        <time>2022-08-21T06:30:09Z</time>
      </trkpt>
      <trkpt lat="43.67636" lon="-0.28281">
        <ele>169</ele>
        <time>2022-08-21T06:30:27Z</time>
      </trkpt>
      <trkpt lat="43.67617" lon="-0.28274">
        <ele>169</ele>
        <time>2022-08-21T06:30:39Z</time>
      </trkpt>
      <trkpt lat="43.67589" lon="-0.28282">
        <ele>170</ele>
        <time>2022-08-21T06:31:09Z</time>
      </trkpt>
      <trkpt lat="43.6757" lon="-0.28285">
        <ele>171</ele>
        <time>2022-08-21T06:31:20Z</time>
      </trkpt>
      <trkpt lat="43.67552" lon="-0.28297">
        <ele>171</ele>
        <time>2022-08-21T06:31:32Z</time>
      </trkpt>
      <trkpt lat="43.67542" lon="-0.283">
        <ele>171</ele>
        <time>2022-08-21T06:31:40Z</time>
      </trkpt>
      <trkpt lat="43.67533" lon="-0.28307">
        <ele>172</ele>
        <time>2022-08-21T06:31:47Z</time>
      </trkpt>
      <trkpt lat="43.67504" lon="-0.28299">
        <ele>171</ele>
        <time>2022-08-21T06:32:08Z</time>
      </trkpt>
      <trkpt lat="43.67489" lon="-0.28283">
        <ele>171</ele>
        <time>2022-08-21T06:32:25Z</time>
      </trkpt>
      <trkpt lat="43.6748" lon="-0.28276">
        <ele>171</ele>
        <time>2022-08-21T06:32:34Z</time>
      </trkpt>
      <trkpt lat="43.67471" lon="-0.28274">
        <ele>171</ele>
        <time>2022-08-21T06:32:43Z</time>
      </trkpt>
      <trkpt lat="43.67453" lon="-0.28278">
        <ele>171</ele>
        <time>2022-08-21T06:32:58Z</time>
      </trkpt>
      <trkpt lat="43.67425" lon="-0.28291">
        <ele>170</ele>
        <time>2022-08-21T06:33:20Z</time>
      </trkpt>
      <trkpt lat="43.67389" lon="-0.28275">
        <ele>170</ele>
        <time>2022-08-21T06:33:51Z</time>
      </trkpt>
      <trkpt lat="43.67378" lon="-0.28274">
        <ele>170</ele>
        <time>2022-08-21T06:33:57Z</time>
      </trkpt>
      <trkpt lat="43.67368" lon="-0.28278">
        <ele>169</ele>
        <time>2022-08-21T06:34:04Z</time>
      </trkpt>
      <trkpt lat="43.6734" lon="-0.28279">
        <ele>169</ele>
        <time>2022-08-21T06:34:25Z</time>
      </trkpt>
      <trkpt lat="43.67313" lon="-0.28274">
        <ele>168</ele>
        <time>2022-08-21T06:35:02Z</time>
      </trkpt>
      <trkpt lat="43.67254" lon="-0.28262">
        <ele>165</ele>
        <time>2022-08-21T06:35:38Z</time>
      </trkpt>
      <trkpt lat="43.67235" lon="-0.28259">
        <ele>165</ele>
        <time>2022-08-21T06:35:53Z</time>
      </trkpt>
      <trkpt lat="43.67215" lon="-0.28258">
        <ele>164</ele>
        <time>2022-08-21T06:36:07Z</time>
      </trkpt>
      <trkpt lat="43.67206" lon="-0.28255">
        <ele>164</ele>
        <time>2022-08-21T06:36:16Z</time>
      </trkpt>
      <trkpt lat="43.67178" lon="-0.28257">
        <ele>163</ele>
        <time>2022-08-21T06:36:40Z</time>
      </trkpt>
      <trkpt lat="43.67127" lon="-0.28249">
        <ele>163</ele>
        <time>2022-08-21T06:37:16Z</time>
      </trkpt>
      <trkpt lat="43.6709" lon="-0.28252">
        <ele>163</ele>
        <time>2022-08-21T06:37:49Z</time>
      </trkpt>
      <trkpt lat="43.67081" lon="-0.28254">
        <ele>163</ele>
        <time>2022-08-21T06:37:58Z</time>
      </trkpt>
      <trkpt lat="43.67075" lon="-0.28263">
        <ele>163</ele>
        <time>2022-08-21T06:38:05Z</time>
      </trkpt>
      <trkpt lat="43.67065" lon="-0.28286">
        <ele>163</ele>
        <time>2022-08-21T06:38:24Z</time>
      </trkpt>
      <trkpt lat="43.67064" lon="-0.28299">
        <ele>163</ele>
        <time>2022-08-21T06:38:31Z</time>
      </trkpt>
      <trkpt lat="43.67066" lon="-0.28312">
        <ele>163</ele>
        <time>2022-08-21T06:38:39Z</time>
      </trkpt>
      <trkpt lat="43.67066" lon="-0.28325">
        <ele>163</ele>
        <time>2022-08-21T06:38:59Z</time>
      </trkpt>
      <trkpt lat="43.67055" lon="-0.28347">
        <ele>163</ele>
        <time>2022-08-21T06:39:08Z</time>
      </trkpt>
      <trkpt lat="43.67048" lon="-0.28356">
        <ele>163</ele>
        <time>2022-08-21T06:39:15Z</time>
      </trkpt>
      <trkpt lat="43.6703" lon="-0.28366">
        <ele>163</ele>
        <time>2022-08-21T06:39:29Z</time>
      </trkpt>
      <trkpt lat="43.67006" lon="-0.28391">
        <ele>164</ele>
        <time>2022-08-21T06:39:52Z</time>
      </trkpt>
      <trkpt lat="43.66989" lon="-0.28442">
        <ele>164</ele>
        <time>2022-08-21T06:40:26Z</time>
      </trkpt>
      <trkpt lat="43.66982" lon="-0.28451">
        <ele>165</ele>
        <time>2022-08-21T06:40:39Z</time>
      </trkpt>
      <trkpt lat="43.66962" lon="-0.28456">
        <ele>165</ele>
        <time>2022-08-21T06:40:51Z</time>
      </trkpt>
      <trkpt lat="43.66947" lon="-0.28472">
        <ele>165</ele>
        <time>2022-08-21T06:41:06Z</time>
      </trkpt>
      <trkpt lat="43.66928" lon="-0.28502">
        <ele>166</ele>
        <time>2022-08-21T06:41:28Z</time>
      </trkpt>
      <trkpt lat="43.6691" lon="-0.28514">
        <ele>167</ele>
        <time>2022-08-21T06:41:41Z</time>
      </trkpt>
      <trkpt lat="43.66895" lon="-0.28536">
        <ele>168</ele>
        <time>2022-08-21T06:42:02Z</time>
      </trkpt>
      <trkpt lat="43.66872" lon="-0.28593">
        <ele>170</ele>
        <time>2022-08-21T06:42:35Z</time>
      </trkpt>
      <trkpt lat="43.66855" lon="-0.28608">
        <ele>171</ele>
        <time>2022-08-21T06:42:51Z</time>
      </trkpt>
      <trkpt lat="43.66841" lon="-0.28643">
        <ele>172</ele>
        <time>2022-08-21T06:43:15Z</time>
      </trkpt>
      <trkpt lat="43.66846" lon="-0.28655">
        <ele>173</ele>
        <time>2022-08-21T06:43:22Z</time>
      </trkpt>
      <trkpt lat="43.66884" lon="-0.28678">
        <ele>175</ele>
        <time>2022-08-21T06:43:53Z</time>
      </trkpt>
      <trkpt lat="43.66891" lon="-0.28687">
        <ele>175</ele>
        <time>2022-08-21T06:44:01Z</time>
      </trkpt>
      <trkpt lat="43.66934" lon="-0.28719">
        <ele>179</ele>
        <time>2022-08-21T06:44:38Z</time>
      </trkpt>
      <trkpt lat="43.66961" lon="-0.28735">
        <ele>182</ele>
        <time>2022-08-21T06:45:03Z</time>
      </trkpt>
      <trkpt lat="43.66971" lon="-0.28738">
        <ele>182</ele>
        <time>2022-08-21T06:45:10Z</time>
      </trkpt>
      <trkpt lat="43.6698" lon="-0.28738">
        <ele>183</ele>
        <time>2022-08-21T06:45:18Z</time>
      </trkpt>
      <trkpt lat="43.66997" lon="-0.28753">
        <ele>185</ele>
        <time>2022-08-21T06:45:35Z</time>
      </trkpt>
      <trkpt lat="43.67004" lon="-0.28762">
        <ele>185</ele>
        <time>2022-08-21T06:45:43Z</time>
      </trkpt>
      <trkpt lat="43.6702" lon="-0.28778">
        <ele>187</ele>
        <time>2022-08-21T06:46:02Z</time>
      </trkpt>
      <trkpt lat="43.67038" lon="-0.28787">
        <ele>189</ele>
        <time>2022-08-21T06:46:19Z</time>
      </trkpt>
      <trkpt lat="43.67064" lon="-0.28824">
        <ele>192</ele>
        <time>2022-08-21T06:46:54Z</time>
      </trkpt>
      <trkpt lat="43.67072" lon="-0.28848">
        <ele>193</ele>
        <time>2022-08-21T06:47:11Z</time>
      </trkpt>
      <trkpt lat="43.67072" lon="-0.28875">
        <ele>195</ele>
        <time>2022-08-21T06:47:31Z</time>
      </trkpt>
      <trkpt lat="43.67066" lon="-0.28928">
        <ele>198</ele>
        <time>2022-08-21T06:48:04Z</time>
      </trkpt>
      <trkpt lat="43.67058" lon="-0.28979">
        <ele>202</ele>
        <time>2022-08-21T06:48:35Z</time>
      </trkpt>
      <trkpt lat="43.67059" lon="-0.28993">
        <ele>202</ele>
        <time>2022-08-21T06:48:43Z</time>
      </trkpt>
      <trkpt lat="43.67051" lon="-0.29047">
        <ele>204</ele>
        <time>2022-08-21T06:49:13Z</time>
      </trkpt>
      <trkpt lat="43.67041" lon="-0.29113">
        <ele>206</ele>
        <time>2022-08-21T06:49:49Z</time>
      </trkpt>
      <trkpt lat="43.67032" lon="-0.29167">
        <ele>207</ele>
        <time>2022-08-21T06:50:19Z</time>
      </trkpt>
      <trkpt lat="43.67026" lon="-0.29221">
        <ele>208</ele>
        <time>2022-08-21T06:50:49Z</time>
      </trkpt>
      <trkpt lat="43.67015" lon="-0.29287">
        <ele>209</ele>
        <time>2022-08-21T06:51:25Z</time>
      </trkpt>
      <trkpt lat="43.6701" lon="-0.29314">
        <ele>209</ele>
        <time>2022-08-21T06:51:41Z</time>
      </trkpt>
      <trkpt lat="43.6701" lon="-0.29327">
        <ele>209</ele>
        <time>2022-08-21T06:51:48Z</time>
      </trkpt>
      <trkpt lat="43.67" lon="-0.29378">
        <ele>208</ele>
        <time>2022-08-21T06:52:18Z</time>
      </trkpt>
      <trkpt lat="43.66988" lon="-0.29444">
        <ele>208</ele>
        <time>2022-08-21T06:52:55Z</time>
      </trkpt>
      <trkpt lat="43.66978" lon="-0.29482">
        <ele>208</ele>
        <time>2022-08-21T06:53:15Z</time>
      </trkpt>
      <trkpt lat="43.66974" lon="-0.29493">
        <ele>208</ele>
        <time>2022-08-21T06:53:21Z</time>
      </trkpt>
      <trkpt lat="43.66968" lon="-0.29517">
        <ele>208</ele>
        <time>2022-08-21T06:53:57Z</time>
      </trkpt>
      <trkpt lat="43.66957" lon="-0.29569">
        <ele>209</ele>
        <time>2022-08-21T06:54:27Z</time>
      </trkpt>
      <trkpt lat="43.66943" lon="-0.29632">
        <ele>209</ele>
        <time>2022-08-21T06:55:02Z</time>
      </trkpt>
      <trkpt lat="43.66928" lon="-0.29683">
        <ele>209</ele>
        <time>2022-08-21T06:55:31Z</time>
      </trkpt>
      <trkpt lat="43.66923" lon="-0.29723">
        <ele>209</ele>
        <time>2022-08-21T06:55:54Z</time>
      </trkpt>
      <trkpt lat="43.66929" lon="-0.29789">
        <ele>209</ele>
        <time>2022-08-21T06:56:29Z</time>
      </trkpt>
      <trkpt lat="43.66935" lon="-0.29852">
        <ele>208</ele>
        <time>2022-08-21T06:57:04Z</time>
      </trkpt>
      <trkpt lat="43.66934" lon="-0.29866">
        <ele>208</ele>
        <time>2022-08-21T06:57:12Z</time>
      </trkpt>
      <trkpt lat="43.6693" lon="-0.29878">
        <ele>208</ele>
        <time>2022-08-21T06:57:18Z</time>
      </trkpt>
      <trkpt lat="43.66923" lon="-0.29886">
        <ele>208</ele>
        <time>2022-08-21T06:57:26Z</time>
      </trkpt>
      <trkpt lat="43.66876" lon="-0.29899">
        <ele>208</ele>
        <time>2022-08-21T06:58:01Z</time>
      </trkpt>
      <trkpt lat="43.66836" lon="-0.29904">
        <ele>208</ele>
        <time>2022-08-21T06:58:32Z</time>
      </trkpt>
      <trkpt lat="43.66798" lon="-0.29915">
        <ele>209</ele>
        <time>2022-08-21T06:59:02Z</time>
      </trkpt>
      <trkpt lat="43.66759" lon="-0.29922">
        <ele>210</ele>
        <time>2022-08-21T06:59:33Z</time>
      </trkpt>
      <trkpt lat="43.66711" lon="-0.29934">
        <ele>211</ele>
        <time>2022-08-21T07:00:10Z</time>
      </trkpt>
      <trkpt lat="43.66701" lon="-0.29934">
        <ele>211</ele>
        <time>2022-08-21T07:00:17Z</time>
      </trkpt>
      <trkpt lat="43.66663" lon="-0.29949">
        <ele>212</ele>
        <time>2022-08-21T07:00:47Z</time>
      </trkpt>
      <trkpt lat="43.66618" lon="-0.29967">
        <ele>211</ele>
        <time>2022-08-21T07:01:23Z</time>
      </trkpt>
      <trkpt lat="43.66579" lon="-0.29982">
        <ele>211</ele>
        <time>2022-08-21T07:01:53Z</time>
      </trkpt>
      <trkpt lat="43.66535" lon="-0.3">
        <ele>210</ele>
        <time>2022-08-21T07:02:28Z</time>
      </trkpt>
      <trkpt lat="43.66526" lon="-0.30003">
        <ele>210</ele>
        <time>2022-08-21T07:02:35Z</time>
      </trkpt>
      <trkpt lat="43.66518" lon="-0.30009">
        <ele>210</ele>
        <time>2022-08-21T07:02:43Z</time>
      </trkpt>
      <trkpt lat="43.66472" lon="-0.30027">
        <ele>210</ele>
        <time>2022-08-21T07:03:18Z</time>
      </trkpt>
      <trkpt lat="43.66434" lon="-0.30041">
        <ele>210</ele>
        <time>2022-08-21T07:03:48Z</time>
      </trkpt>
      <trkpt lat="43.66398" lon="-0.30057">
        <ele>211</ele>
        <time>2022-08-21T07:04:16Z</time>
      </trkpt>
      <trkpt lat="43.6636" lon="-0.3007">
        <ele>211</ele>
        <time>2022-08-21T07:04:46Z</time>
      </trkpt>
      <trkpt lat="43.66342" lon="-0.30078">
        <ele>211</ele>
        <time>2022-08-21T07:05:02Z</time>
      </trkpt>
      <trkpt lat="43.66322" lon="-0.30082">
        <ele>211</ele>
        <time>2022-08-21T07:05:18Z</time>
      </trkpt>
      <trkpt lat="43.66287" lon="-0.30063">
        <ele>211</ele>
        <time>2022-08-21T07:05:49Z</time>
      </trkpt>
      <trkpt lat="43.66278" lon="-0.30059">
        <ele>211</ele>
        <time>2022-08-21T07:05:56Z</time>
      </trkpt>
      <trkpt lat="43.6626" lon="-0.30045">
        <ele>211</ele>
        <time>2022-08-21T07:06:10Z</time>
      </trkpt>
      <trkpt lat="43.66224" lon="-0.30021">
        <ele>211</ele>
        <time>2022-08-21T07:06:40Z</time>
      </trkpt>
      <trkpt lat="43.66214" lon="-0.30017">
        <ele>211</ele>
        <time>2022-08-21T07:06:48Z</time>
      </trkpt>
      <trkpt lat="43.66172" lon="-0.29989">
        <ele>211</ele>
        <time>2022-08-21T07:07:24Z</time>
      </trkpt>
      <trkpt lat="43.66129" lon="-0.29962">
        <ele>212</ele>
        <time>2022-08-21T07:08:01Z</time>
      </trkpt>
      <trkpt lat="43.66086" lon="-0.29934">
        <ele>213</ele>
        <time>2022-08-21T07:08:37Z</time>
      </trkpt>
      <trkpt lat="43.66058" lon="-0.29915">
        <ele>213</ele>
        <time>2022-08-21T07:09:01Z</time>
      </trkpt>
      <trkpt lat="43.66049" lon="-0.29912">
        <ele>213</ele>
        <time>2022-08-21T07:09:08Z</time>
      </trkpt>
      <trkpt lat="43.6604" lon="-0.29918">
        <ele>214</ele>
        <time>2022-08-21T07:09:15Z</time>
      </trkpt>
      <trkpt lat="43.66032" lon="-0.2993">
        <ele>214</ele>
        <time>2022-08-21T07:09:22Z</time>
      </trkpt>
      <trkpt lat="43.66029" lon="-0.29942">
        <ele>214</ele>
        <time>2022-08-21T07:09:28Z</time>
      </trkpt>
      <trkpt lat="43.66034" lon="-0.29995">
        <ele>214</ele>
        <time>2022-08-21T07:09:58Z</time>
      </trkpt>
      <trkpt lat="43.66037" lon="-0.30035">
        <ele>215</ele>
        <time>2022-08-21T07:10:21Z</time>
      </trkpt>
      <trkpt lat="43.66036" lon="-0.30048">
        <ele>215</ele>
        <time>2022-08-21T07:10:28Z</time>
      </trkpt>
      <trkpt lat="43.66038" lon="-0.30061">
        <ele>215</ele>
        <time>2022-08-21T07:10:35Z</time>
      </trkpt>
      <trkpt lat="43.66039" lon="-0.30102">
        <ele>215</ele>
        <time>2022-08-21T07:10:58Z</time>
      </trkpt>
      <trkpt lat="43.66046" lon="-0.30167">
        <ele>215</ele>
        <time>2022-08-21T07:11:34Z</time>
      </trkpt>
      <trkpt lat="43.66047" lon="-0.3018">
        <ele>215</ele>
        <time>2022-08-21T07:11:41Z</time>
      </trkpt>
      <trkpt lat="43.66045" lon="-0.30192">
        <ele>215</ele>
        <time>2022-08-21T07:11:49Z</time>
      </trkpt>
      <trkpt lat="43.66035" lon="-0.30198">
        <ele>215</ele>
        <time>2022-08-21T07:11:56Z</time>
      </trkpt>
      <trkpt lat="43.65989" lon="-0.30203">
        <ele>215</ele>
        <time>2022-08-21T07:12:32Z</time>
      </trkpt>
      <trkpt lat="43.6595" lon="-0.30213">
        <ele>214</ele>
        <time>2022-08-21T07:13:02Z</time>
      </trkpt>
      <trkpt lat="43.6594" lon="-0.30216">
        <ele>214</ele>
        <time>2022-08-21T07:13:09Z</time>
      </trkpt>
      <trkpt lat="43.6593" lon="-0.30215">
        <ele>214</ele>
        <time>2022-08-21T07:13:17Z</time>
      </trkpt>
      <trkpt lat="43.6591" lon="-0.30222">
        <ele>214</ele>
        <time>2022-08-21T07:13:32Z</time>
      </trkpt>
      <trkpt lat="43.65862" lon="-0.30218">
        <ele>213</ele>
        <time>2022-08-21T07:14:08Z</time>
      </trkpt>
      <trkpt lat="43.65852" lon="-0.30216">
        <ele>213</ele>
        <time>2022-08-21T07:14:15Z</time>
      </trkpt>
      <trkpt lat="43.65804" lon="-0.30227">
        <ele>214</ele>
        <time>2022-08-21T07:14:51Z</time>
      </trkpt>
      <trkpt lat="43.65764" lon="-0.30235">
        <ele>214</ele>
        <time>2022-08-21T07:15:22Z</time>
      </trkpt>
      <trkpt lat="43.65744" lon="-0.30237">
        <ele>215</ele>
        <time>2022-08-21T07:15:36Z</time>
      </trkpt>
      <trkpt lat="43.65735" lon="-0.30239">
        <ele>215</ele>
        <time>2022-08-21T07:15:43Z</time>
      </trkpt>
      <trkpt lat="43.65698" lon="-0.30236">
        <ele>215</ele>
        <time>2022-08-21T07:16:11Z</time>
      </trkpt>
      <trkpt lat="43.65651" lon="-0.30244">
        <ele>215</ele>
        <time>2022-08-21T07:16:50Z</time>
      </trkpt>
      <trkpt lat="43.65602" lon="-0.30254">
        <ele>215</ele>
        <time>2022-08-21T07:17:26Z</time>
      </trkpt>
      <trkpt lat="43.65553" lon="-0.30256">
        <ele>215</ele>
        <time>2022-08-21T07:18:02Z</time>
      </trkpt>
      <trkpt lat="43.65543" lon="-0.3026">
        <ele>215</ele>
        <time>2022-08-21T07:18:10Z</time>
      </trkpt>
      <trkpt lat="43.65504" lon="-0.30263">
        <ele>215</ele>
        <time>2022-08-21T07:18:40Z</time>
      </trkpt>
      <trkpt lat="43.65456" lon="-0.30268">
        <ele>215</ele>
        <time>2022-08-21T07:19:16Z</time>
      </trkpt>
      <trkpt lat="43.65427" lon="-0.30275">
        <ele>216</ele>
        <time>2022-08-21T07:19:38Z</time>
      </trkpt>
      <trkpt lat="43.65379" lon="-0.30278">
        <ele>216</ele>
        <time>2022-08-21T07:20:13Z</time>
      </trkpt>
      <trkpt lat="43.65351" lon="-0.30287">
        <ele>216</ele>
        <time>2022-08-21T07:20:36Z</time>
      </trkpt>
      <trkpt lat="43.65333" lon="-0.30288">
        <ele>216</ele>
        <time>2022-08-21T07:20:49Z</time>
      </trkpt>
      <trkpt lat="43.65313" lon="-0.30291">
        <ele>216</ele>
        <time>2022-08-21T07:21:04Z</time>
      </trkpt>
      <trkpt lat="43.65295" lon="-0.3029">
        <ele>216</ele>
        <time>2022-08-21T07:21:17Z</time>
      </trkpt>
      <trkpt lat="43.65248" lon="-0.30295">
        <ele>216</ele>
        <time>2022-08-21T07:21:53Z</time>
      </trkpt>
      <trkpt lat="43.65208" lon="-0.303">
        <ele>216</ele>
        <time>2022-08-21T07:22:23Z</time>
      </trkpt>
      <trkpt lat="43.65168" lon="-0.30304">
        <ele>216</ele>
        <time>2022-08-21T07:22:53Z</time>
      </trkpt>
      <trkpt lat="43.65131" lon="-0.30309">
        <ele>216</ele>
        <time>2022-08-21T07:23:24Z</time>
      </trkpt>
      <trkpt lat="43.65083" lon="-0.30322">
        <ele>216</ele>
        <time>2022-08-21T07:24:00Z</time>
      </trkpt>
      <trkpt lat="43.65054" lon="-0.30326">
        <ele>216</ele>
        <time>2022-08-21T07:24:21Z</time>
      </trkpt>
      <trkpt lat="43.65035" lon="-0.30322">
        <ele>216</ele>
        <time>2022-08-21T07:24:35Z</time>
      </trkpt>
      <trkpt lat="43.64996" lon="-0.30326">
        <ele>216</ele>
        <time>2022-08-21T07:25:06Z</time>
      </trkpt>
      <trkpt lat="43.64949" lon="-0.30331">
        <ele>216</ele>
        <time>2022-08-21T07:25:41Z</time>
      </trkpt>
      <trkpt lat="43.64919" lon="-0.30336">
        <ele>215</ele>
        <time>2022-08-21T07:26:02Z</time>
      </trkpt>
      <trkpt lat="43.64891" lon="-0.30336">
        <ele>215</ele>
        <time>2022-08-21T07:26:23Z</time>
      </trkpt>
      <trkpt lat="43.64843" lon="-0.30348">
        <ele>215</ele>
        <time>2022-08-21T07:26:58Z</time>
      </trkpt>
      <trkpt lat="43.64797" lon="-0.3036">
        <ele>215</ele>
        <time>2022-08-21T07:27:33Z</time>
      </trkpt>
      <trkpt lat="43.64757" lon="-0.30369">
        <ele>215</ele>
        <time>2022-08-21T07:28:04Z</time>
      </trkpt>
      <trkpt lat="43.64719" lon="-0.3038">
        <ele>216</ele>
        <time>2022-08-21T07:28:34Z</time>
      </trkpt>
      <trkpt lat="43.64672" lon="-0.3039">
        <ele>217</ele>
        <time>2022-08-21T07:29:09Z</time>
      </trkpt>
      <trkpt lat="43.64624" lon="-0.30401">
        <ele>218</ele>
        <time>2022-08-21T07:29:45Z</time>
      </trkpt>
      <trkpt lat="43.64604" lon="-0.30404">
        <ele>218</ele>
        <time>2022-08-21T07:30:00Z</time>
      </trkpt>
      <trkpt lat="43.64595" lon="-0.30409">
        <ele>218</ele>
        <time>2022-08-21T07:30:08Z</time>
      </trkpt>
      <trkpt lat="43.64547" lon="-0.3042">
        <ele>218</ele>
        <time>2022-08-21T07:30:43Z</time>
      </trkpt>
      <trkpt lat="43.64501" lon="-0.30431">
        <ele>218</ele>
        <time>2022-08-21T07:31:18Z</time>
      </trkpt>
      <trkpt lat="43.64483" lon="-0.30435">
        <ele>218</ele>
        <time>2022-08-21T07:31:32Z</time>
      </trkpt>
      <trkpt lat="43.64474" lon="-0.3044">
        <ele>218</ele>
        <time>2022-08-21T07:31:40Z</time>
      </trkpt>
      <trkpt lat="43.64467" lon="-0.30449">
        <ele>218</ele>
        <time>2022-08-21T07:31:47Z</time>
      </trkpt>
      <trkpt lat="43.64473" lon="-0.30475">
        <ele>218</ele>
        <time>2022-08-21T07:32:01Z</time>
      </trkpt>
      <trkpt lat="43.64487" lon="-0.30524">
        <ele>218</ele>
        <time>2022-08-21T07:32:32Z</time>
      </trkpt>
      <trkpt lat="43.64495" lon="-0.30561">
        <ele>217</ele>
        <time>2022-08-21T07:32:53Z</time>
      </trkpt>
      <trkpt lat="43.645" lon="-0.30573">
        <ele>217</ele>
        <time>2022-08-21T07:33:01Z</time>
      </trkpt>
      <trkpt lat="43.64505" lon="-0.30621">
        <ele>217</ele>
        <time>2022-08-21T07:34:05Z</time>
      </trkpt>
      <trkpt lat="43.64513" lon="-0.30659">
        <ele>216</ele>
        <time>2022-08-21T07:34:27Z</time>
      </trkpt>
      <trkpt lat="43.64514" lon="-0.30673">
        <ele>216</ele>
        <time>2022-08-21T07:34:35Z</time>
      </trkpt>
      <trkpt lat="43.64505" lon="-0.30725">
        <ele>216</ele>
        <time>2022-08-21T07:35:05Z</time>
      </trkpt>
      <trkpt lat="43.64492" lon="-0.3079">
        <ele>216</ele>
        <time>2022-08-21T07:35:42Z</time>
      </trkpt>
      <trkpt lat="43.6448" lon="-0.30854">
        <ele>216</ele>
        <time>2022-08-21T07:36:19Z</time>
      </trkpt>
      <trkpt lat="43.6447" lon="-0.30905">
        <ele>216</ele>
        <time>2022-08-21T07:36:49Z</time>
      </trkpt>
      <trkpt lat="43.6446" lon="-0.30955">
        <ele>216</ele>
        <time>2022-08-21T07:37:19Z</time>
      </trkpt>
      <trkpt lat="43.6445" lon="-0.31006">
        <ele>217</ele>
        <time>2022-08-21T07:37:49Z</time>
      </trkpt>
      <trkpt lat="43.64436" lon="-0.31068">
        <ele>218</ele>
        <time>2022-08-21T07:38:25Z</time>
      </trkpt>
      <trkpt lat="43.64426" lon="-0.31123">
        <ele>219</ele>
        <time>2022-08-21T07:38:55Z</time>
      </trkpt>
      <trkpt lat="43.64417" lon="-0.31175">
        <ele>219</ele>
        <time>2022-08-21T07:39:28Z</time>
      </trkpt>
      <trkpt lat="43.64405" lon="-0.31227">
        <ele>220</ele>
        <time>2022-08-21T07:39:58Z</time>
      </trkpt>
      <trkpt lat="43.64391" lon="-0.31291">
        <ele>220</ele>
        <time>2022-08-21T07:40:32Z</time>
      </trkpt>
      <trkpt lat="43.64388" lon="-0.31304">
        <ele>220</ele>
        <time>2022-08-21T07:40:40Z</time>
      </trkpt>
      <trkpt lat="43.64388" lon="-0.31317">
        <ele>220</ele>
        <time>2022-08-21T07:40:47Z</time>
      </trkpt>
      <trkpt lat="43.64375" lon="-0.3138">
        <ele>220</ele>
        <time>2022-08-21T07:41:22Z</time>
      </trkpt>
      <trkpt lat="43.64369" lon="-0.31404">
        <ele>220</ele>
        <time>2022-08-21T07:41:36Z</time>
      </trkpt>
      <trkpt lat="43.64363" lon="-0.31415">
        <ele>220</ele>
        <time>2022-08-21T07:41:44Z</time>
      </trkpt>
      <trkpt lat="43.64354" lon="-0.31419">
        <ele>220</ele>
        <time>2022-08-21T07:41:51Z</time>
      </trkpt>
      <trkpt lat="43.64306" lon="-0.31407">
        <ele>220</ele>
        <time>2022-08-21T07:42:28Z</time>
      </trkpt>
      <trkpt lat="43.64259" lon="-0.31386">
        <ele>220</ele>
        <time>2022-08-21T07:43:04Z</time>
      </trkpt>
      <trkpt lat="43.64222" lon="-0.3137">
        <ele>220</ele>
        <time>2022-08-21T07:43:37Z</time>
      </trkpt>
      <trkpt lat="43.64177" lon="-0.31344">
        <ele>221</ele>
        <time>2022-08-21T07:44:12Z</time>
      </trkpt>
      <trkpt lat="43.6414" lon="-0.31325">
        <ele>220</ele>
        <time>2022-08-21T07:44:42Z</time>
      </trkpt>
      <trkpt lat="43.64103" lon="-0.31309">
        <ele>220</ele>
        <time>2022-08-21T07:45:12Z</time>
      </trkpt>
      <trkpt lat="43.64078" lon="-0.31292">
        <ele>220</ele>
        <time>2022-08-21T07:45:33Z</time>
      </trkpt>
      <trkpt lat="43.64035" lon="-0.31268">
        <ele>219</ele>
        <time>2022-08-21T07:46:07Z</time>
      </trkpt>
      <trkpt lat="43.63999" lon="-0.31249">
        <ele>219</ele>
        <time>2022-08-21T07:46:36Z</time>
      </trkpt>
      <trkpt lat="43.6399" lon="-0.31246">
        <ele>219</ele>
        <time>2022-08-21T07:46:43Z</time>
      </trkpt>
      <trkpt lat="43.63964" lon="-0.31226">
        <ele>220</ele>
        <time>2022-08-21T07:47:05Z</time>
      </trkpt>
      <trkpt lat="43.63928" lon="-0.31205">
        <ele>220</ele>
        <time>2022-08-21T07:47:35Z</time>
      </trkpt>
      <trkpt lat="43.63891" lon="-0.31188">
        <ele>220</ele>
        <time>2022-08-21T07:48:05Z</time>
      </trkpt>
      <trkpt lat="43.63866" lon="-0.31171">
        <ele>221</ele>
        <time>2022-08-21T07:48:27Z</time>
      </trkpt>
      <trkpt lat="43.63828" lon="-0.31158">
        <ele>221</ele>
        <time>2022-08-21T07:48:57Z</time>
      </trkpt>
      <trkpt lat="43.63786" lon="-0.31126">
        <ele>221</ele>
        <time>2022-08-21T07:49:31Z</time>
      </trkpt>
      <trkpt lat="43.63769" lon="-0.31114">
        <ele>221</ele>
        <time>2022-08-21T07:49:45Z</time>
      </trkpt>
      <trkpt lat="43.6375" lon="-0.31108">
        <ele>222</ele>
        <time>2022-08-21T07:50:01Z</time>
      </trkpt>
      <trkpt lat="43.63741" lon="-0.31102">
        <ele>222</ele>
        <time>2022-08-21T07:50:09Z</time>
      </trkpt>
      <trkpt lat="43.63696" lon="-0.31083">
        <ele>222</ele>
        <time>2022-08-21T07:50:44Z</time>
      </trkpt>
      <trkpt lat="43.6365" lon="-0.3106">
        <ele>222</ele>
        <time>2022-08-21T07:51:20Z</time>
      </trkpt>
      <trkpt lat="43.63604" lon="-0.31041">
        <ele>222</ele>
        <time>2022-08-21T07:51:56Z</time>
      </trkpt>
      <trkpt lat="43.63559" lon="-0.31021">
        <ele>222</ele>
        <time>2022-08-21T07:52:32Z</time>
      </trkpt>
      <trkpt lat="43.63521" lon="-0.31004">
        <ele>222</ele>
        <time>2022-08-21T07:53:02Z</time>
      </trkpt>
      <trkpt lat="43.63511" lon="-0.30997">
        <ele>222</ele>
        <time>2022-08-21T07:53:10Z</time>
      </trkpt>
      <trkpt lat="43.63473" lon="-0.30983">
        <ele>222</ele>
        <time>2022-08-21T07:53:40Z</time>
      </trkpt>
      <trkpt lat="43.63454" lon="-0.30972">
        <ele>222</ele>
        <time>2022-08-21T07:53:55Z</time>
      </trkpt>
      <trkpt lat="43.63417" lon="-0.30958">
        <ele>221</ele>
        <time>2022-08-21T07:54:26Z</time>
      </trkpt>
      <trkpt lat="43.63401" lon="-0.30945">
        <ele>221</ele>
        <time>2022-08-21T07:54:38Z</time>
      </trkpt>
      <trkpt lat="43.63362" lon="-0.30934">
        <ele>220</ele>
        <time>2022-08-21T07:55:09Z</time>
      </trkpt>
      <trkpt lat="43.63334" lon="-0.30927">
        <ele>220</ele>
        <time>2022-08-21T07:55:31Z</time>
      </trkpt>
      <trkpt lat="43.63318" lon="-0.30916">
        <ele>220</ele>
        <time>2022-08-21T07:55:43Z</time>
      </trkpt>
      <trkpt lat="43.63295" lon="-0.30896">
        <ele>221</ele>
        <time>2022-08-21T07:56:02Z</time>
      </trkpt>
      <trkpt lat="43.63257" lon="-0.30877">
        <ele>222</ele>
        <time>2022-08-21T07:56:32Z</time>
      </trkpt>
      <trkpt lat="43.63239" lon="-0.30871">
        <ele>222</ele>
        <time>2022-08-21T07:56:46Z</time>
      </trkpt>
      <trkpt lat="43.63203" lon="-0.30851">
        <ele>223</ele>
        <time>2022-08-21T07:57:16Z</time>
      </trkpt>
      <trkpt lat="43.63156" lon="-0.30837">
        <ele>224</ele>
        <time>2022-08-21T07:57:51Z</time>
      </trkpt>
      <trkpt lat="43.63127" lon="-0.30841">
        <ele>224</ele>
        <time>2022-08-21T07:58:13Z</time>
      </trkpt>
      <trkpt lat="43.63088" lon="-0.30839">
        <ele>224</ele>
        <time>2022-08-21T07:58:43Z</time>
      </trkpt>
      <trkpt lat="43.63041" lon="-0.30833">
        <ele>224</ele>
        <time>2022-08-21T07:59:17Z</time>
      </trkpt>
      <trkpt lat="43.63003" lon="-0.30827">
        <ele>224</ele>
        <time>2022-08-21T07:59:47Z</time>
      </trkpt>
      <trkpt lat="43.62955" lon="-0.30823">
        <ele>224</ele>
        <time>2022-08-21T08:00:23Z</time>
      </trkpt>
      <trkpt lat="43.62909" lon="-0.30814">
        <ele>225</ele>
        <time>2022-08-21T08:00:57Z</time>
      </trkpt>
      <trkpt lat="43.62871" lon="-0.30822">
        <ele>226</ele>
        <time>2022-08-21T08:01:34Z</time>
      </trkpt>
      <trkpt lat="43.62848" lon="-0.3081">
        <ele>226</ele>
        <time>2022-08-21T08:02:10Z</time>
      </trkpt>
      <trkpt lat="43.62838" lon="-0.30806">
        <ele>226</ele>
        <time>2022-08-21T08:02:17Z</time>
      </trkpt>
      <trkpt lat="43.6282" lon="-0.30806">
        <ele>226</ele>
        <time>2022-08-21T08:02:32Z</time>
      </trkpt>
      <trkpt lat="43.62773" lon="-0.3079">
        <ele>226</ele>
        <time>2022-08-21T08:03:07Z</time>
      </trkpt>
      <trkpt lat="43.62726" lon="-0.30779">
        <ele>226</ele>
        <time>2022-08-21T08:03:41Z</time>
      </trkpt>
      <trkpt lat="43.62717" lon="-0.30779">
        <ele>226</ele>
        <time>2022-08-21T08:03:49Z</time>
      </trkpt>
      <trkpt lat="43.62671" lon="-0.30766">
        <ele>226</ele>
        <time>2022-08-21T08:04:24Z</time>
      </trkpt>
      <trkpt lat="43.62624" lon="-0.30754">
        <ele>226</ele>
        <time>2022-08-21T08:04:58Z</time>
      </trkpt>
      <trkpt lat="43.62578" lon="-0.30744">
        <ele>226</ele>
        <time>2022-08-21T08:05:33Z</time>
      </trkpt>
      <trkpt lat="43.62531" lon="-0.3074">
        <ele>226</ele>
        <time>2022-08-21T08:06:09Z</time>
      </trkpt>
      <trkpt lat="43.62493" lon="-0.30742">
        <ele>227</ele>
        <time>2022-08-21T08:06:37Z</time>
      </trkpt>
      <trkpt lat="43.62452" lon="-0.30737">
        <ele>227</ele>
        <time>2022-08-21T08:07:07Z</time>
      </trkpt>
      <trkpt lat="43.62424" lon="-0.30728">
        <ele>227</ele>
        <time>2022-08-21T08:07:27Z</time>
      </trkpt>
      <trkpt lat="43.62415" lon="-0.30728">
        <ele>227</ele>
        <time>2022-08-21T08:07:35Z</time>
      </trkpt>
      <trkpt lat="43.62377" lon="-0.30714">
        <ele>228</ele>
        <time>2022-08-21T08:08:06Z</time>
      </trkpt>
      <trkpt lat="43.6234" lon="-0.30699">
        <ele>228</ele>
        <time>2022-08-21T08:08:36Z</time>
      </trkpt>
      <trkpt lat="43.62294" lon="-0.30683">
        <ele>229</ele>
        <time>2022-08-21T08:09:10Z</time>
      </trkpt>
      <trkpt lat="43.62245" lon="-0.30671">
        <ele>229</ele>
        <time>2022-08-21T08:09:46Z</time>
      </trkpt>
      <trkpt lat="43.622" lon="-0.30652">
        <ele>229</ele>
        <time>2022-08-21T08:10:21Z</time>
      </trkpt>
      <trkpt lat="43.62173" lon="-0.3064">
        <ele>229</ele>
        <time>2022-08-21T08:10:41Z</time>
      </trkpt>
      <trkpt lat="43.62137" lon="-0.30622">
        <ele>229</ele>
        <time>2022-08-21T08:11:09Z</time>
      </trkpt>
      <trkpt lat="43.62128" lon="-0.30619">
        <ele>229</ele>
        <time>2022-08-21T08:11:16Z</time>
      </trkpt>
      <trkpt lat="43.62109" lon="-0.30607">
        <ele>229</ele>
        <time>2022-08-21T08:11:30Z</time>
      </trkpt>
      <trkpt lat="43.621" lon="-0.30603">
        <ele>229</ele>
        <time>2022-08-21T08:11:36Z</time>
      </trkpt>
      <trkpt lat="43.62067" lon="-0.30575">
        <ele>229</ele>
        <time>2022-08-21T08:12:07Z</time>
      </trkpt>
      <trkpt lat="43.62025" lon="-0.30543">
        <ele>229</ele>
        <time>2022-08-21T08:12:43Z</time>
      </trkpt>
      <trkpt lat="43.61982" lon="-0.30511">
        <ele>230</ele>
        <time>2022-08-21T08:13:19Z</time>
      </trkpt>
      <trkpt lat="43.61939" lon="-0.30484">
        <ele>230</ele>
        <time>2022-08-21T08:13:56Z</time>
      </trkpt>
      <trkpt lat="43.61904" lon="-0.30459">
        <ele>230</ele>
        <time>2022-08-21T08:14:26Z</time>
      </trkpt>
      <trkpt lat="43.6186" lon="-0.30428">
        <ele>231</ele>
        <time>2022-08-21T08:15:02Z</time>
      </trkpt>
      <trkpt lat="43.61835" lon="-0.30408">
        <ele>231</ele>
        <time>2022-08-21T08:15:24Z</time>
      </trkpt>
      <trkpt lat="43.618" lon="-0.30384">
        <ele>231</ele>
        <time>2022-08-21T08:15:55Z</time>
      </trkpt>
      <trkpt lat="43.6176" lon="-0.30348">
        <ele>231</ele>
        <time>2022-08-21T08:16:30Z</time>
      </trkpt>
      <trkpt lat="43.61727" lon="-0.30321">
        <ele>232</ele>
        <time>2022-08-21T08:17:00Z</time>
      </trkpt>
      <trkpt lat="43.6169" lon="-0.303">
        <ele>232</ele>
        <time>2022-08-21T08:17:30Z</time>
      </trkpt>
      <trkpt lat="43.61655" lon="-0.30279">
        <ele>232</ele>
        <time>2022-08-21T08:18:00Z</time>
      </trkpt>
      <trkpt lat="43.61636" lon="-0.3027">
        <ele>232</ele>
        <time>2022-08-21T08:18:15Z</time>
      </trkpt>
      <trkpt lat="43.61602" lon="-0.30246">
        <ele>232</ele>
        <time>2022-08-21T08:18:47Z</time>
      </trkpt>
      <trkpt lat="43.61556" lon="-0.30216">
        <ele>232</ele>
        <time>2022-08-21T08:19:23Z</time>
      </trkpt>
      <trkpt lat="43.61521" lon="-0.30193">
        <ele>233</ele>
        <time>2022-08-21T08:19:54Z</time>
      </trkpt>
      <trkpt lat="43.61496" lon="-0.30175">
        <ele>233</ele>
        <time>2022-08-21T08:20:14Z</time>
      </trkpt>
      <trkpt lat="43.61486" lon="-0.30172">
        <ele>233</ele>
        <time>2022-08-21T08:20:22Z</time>
      </trkpt>
      <trkpt lat="43.6144" lon="-0.30148">
        <ele>233</ele>
        <time>2022-08-21T08:21:01Z</time>
      </trkpt>
      <trkpt lat="43.61414" lon="-0.30133">
        <ele>233</ele>
        <time>2022-08-21T08:21:24Z</time>
      </trkpt>
      <trkpt lat="43.61401" lon="-0.30113">
        <ele>233</ele>
        <time>2022-08-21T08:43:00Z</time>
      </trkpt>
      <trkpt lat="43.61383" lon="-0.30103">
        <ele>233</ele>
        <time>2022-08-21T08:43:15Z</time>
      </trkpt>
      <trkpt lat="43.61374" lon="-0.30095">
        <ele>233</ele>
        <time>2022-08-21T08:43:23Z</time>
      </trkpt>
      <trkpt lat="43.61349" lon="-0.30056">
        <ele>233</ele>
        <time>2022-08-21T08:43:53Z</time>
      </trkpt>
      <trkpt lat="43.61311" lon="-0.30013">
        <ele>233</ele>
        <time>2022-08-21T08:44:28Z</time>
      </trkpt>
      <trkpt lat="43.61276" lon="-0.29965">
        <ele>234</ele>
        <time>2022-08-21T08:45:04Z</time>
      </trkpt>
      <trkpt lat="43.61265" lon="-0.29943">
        <ele>234</ele>
        <time>2022-08-21T08:45:20Z</time>
      </trkpt>
      <trkpt lat="43.6123" lon="-0.29897">
        <ele>235</ele>
        <time>2022-08-21T08:45:56Z</time>
      </trkpt>
      <trkpt lat="43.61208" lon="-0.29869">
        <ele>235</ele>
        <time>2022-08-21T08:46:17Z</time>
      </trkpt>
      <trkpt lat="43.61191" lon="-0.29861">
        <ele>235</ele>
        <time>2022-08-21T08:46:30Z</time>
      </trkpt>
      <trkpt lat="43.61142" lon="-0.29862">
        <ele>235</ele>
        <time>2022-08-21T08:47:04Z</time>
      </trkpt>
      <trkpt lat="43.61093" lon="-0.29864">
        <ele>235</ele>
        <time>2022-08-21T08:47:40Z</time>
      </trkpt>
      <trkpt lat="43.61045" lon="-0.29867">
        <ele>235</ele>
        <time>2022-08-21T08:48:15Z</time>
      </trkpt>
      <trkpt lat="43.60996" lon="-0.2987">
        <ele>235</ele>
        <time>2022-08-21T08:48:49Z</time>
      </trkpt>
      <trkpt lat="43.60948" lon="-0.2987">
        <ele>235</ele>
        <time>2022-08-21T08:49:24Z</time>
      </trkpt>
      <trkpt lat="43.609" lon="-0.29863">
        <ele>235</ele>
        <time>2022-08-21T08:50:00Z</time>
      </trkpt>
      <trkpt lat="43.60853" lon="-0.29856">
        <ele>235</ele>
        <time>2022-08-21T08:50:36Z</time>
      </trkpt>
      <trkpt lat="43.60815" lon="-0.29853">
        <ele>235</ele>
        <time>2022-08-21T08:51:08Z</time>
      </trkpt>
      <trkpt lat="43.60804" lon="-0.29852">
        <ele>235</ele>
        <time>2022-08-21T08:51:17Z</time>
      </trkpt>
      <trkpt lat="43.60786" lon="-0.29846">
        <ele>235</ele>
        <time>2022-08-21T08:51:31Z</time>
      </trkpt>
      <trkpt lat="43.60758" lon="-0.29843">
        <ele>235</ele>
        <time>2022-08-21T08:51:54Z</time>
      </trkpt>
      <trkpt lat="43.60721" lon="-0.29834">
        <ele>235</ele>
        <time>2022-08-21T08:52:24Z</time>
      </trkpt>
      <trkpt lat="43.60683" lon="-0.29827">
        <ele>235</ele>
        <time>2022-08-21T08:52:55Z</time>
      </trkpt>
      <trkpt lat="43.60674" lon="-0.29823">
        <ele>235</ele>
        <time>2022-08-21T08:53:01Z</time>
      </trkpt>
      <trkpt lat="43.60665" lon="-0.29822">
        <ele>235</ele>
        <time>2022-08-21T08:53:08Z</time>
      </trkpt>
      <trkpt lat="43.60661" lon="-0.29834">
        <ele>235</ele>
        <time>2022-08-21T08:53:16Z</time>
      </trkpt>
      <trkpt lat="43.60661" lon="-0.29861">
        <ele>234</ele>
        <time>2022-08-21T08:53:30Z</time>
      </trkpt>
      <trkpt lat="43.6066" lon="-0.29873">
        <ele>234</ele>
        <time>2022-08-21T08:53:37Z</time>
      </trkpt>
      <trkpt lat="43.6066" lon="-0.29899">
        <ele>234</ele>
        <time>2022-08-21T08:53:51Z</time>
      </trkpt>
      <trkpt lat="43.60658" lon="-0.29911">
        <ele>234</ele>
        <time>2022-08-21T08:53:58Z</time>
      </trkpt>
      <trkpt lat="43.60656" lon="-0.29976">
        <ele>234</ele>
        <time>2022-08-21T08:54:34Z</time>
      </trkpt>
      <trkpt lat="43.60655" lon="-0.3003">
        <ele>234</ele>
        <time>2022-08-21T08:55:04Z</time>
      </trkpt>
      <trkpt lat="43.60653" lon="-0.30083">
        <ele>234</ele>
        <time>2022-08-21T08:55:34Z</time>
      </trkpt>
      <trkpt lat="43.60649" lon="-0.30136">
        <ele>234</ele>
        <time>2022-08-21T08:56:06Z</time>
      </trkpt>
      <trkpt lat="43.60642" lon="-0.30144">
        <ele>234</ele>
        <time>2022-08-21T08:56:13Z</time>
      </trkpt>
      <trkpt lat="43.60622" lon="-0.30139">
        <ele>234</ele>
        <time>2022-08-21T08:56:28Z</time>
      </trkpt>
      <trkpt lat="43.60585" lon="-0.30142">
        <ele>233</ele>
        <time>2022-08-21T08:56:56Z</time>
      </trkpt>
      <trkpt lat="43.6058" lon="-0.30155">
        <ele>233</ele>
        <time>2022-08-21T08:57:04Z</time>
      </trkpt>
      <trkpt lat="43.6058" lon="-0.3018">
        <ele>233</ele>
        <time>2022-08-21T08:57:19Z</time>
      </trkpt>
      <trkpt lat="43.60581" lon="-0.30194">
        <ele>233</ele>
        <time>2022-08-21T08:57:26Z</time>
      </trkpt>
      <trkpt lat="43.60577" lon="-0.30249">
        <ele>233</ele>
        <time>2022-08-21T08:57:58Z</time>
      </trkpt>
      <trkpt lat="43.60575" lon="-0.30303">
        <ele>233</ele>
        <time>2022-08-21T08:58:30Z</time>
      </trkpt>
      <trkpt lat="43.6057" lon="-0.30371">
        <ele>232</ele>
        <time>2022-08-21T08:59:07Z</time>
      </trkpt>
      <trkpt lat="43.60568" lon="-0.30423">
        <ele>232</ele>
        <time>2022-08-21T08:59:37Z</time>
      </trkpt>
      <trkpt lat="43.60565" lon="-0.30491">
        <ele>231</ele>
        <time>2022-08-21T09:00:13Z</time>
      </trkpt>
      <trkpt lat="43.60563" lon="-0.30504">
        <ele>230</ele>
        <time>2022-08-21T09:00:21Z</time>
      </trkpt>
      <trkpt lat="43.60563" lon="-0.30559">
        <ele>227</ele>
        <time>2022-08-21T09:00:51Z</time>
      </trkpt>
      <trkpt lat="43.60558" lon="-0.3057">
        <ele>226</ele>
        <time>2022-08-21T09:01:00Z</time>
      </trkpt>
      <trkpt lat="43.6052" lon="-0.30581">
        <ele>223</ele>
        <time>2022-08-21T09:01:33Z</time>
      </trkpt>
      <trkpt lat="43.6051" lon="-0.30583">
        <ele>222</ele>
        <time>2022-08-21T09:01:42Z</time>
      </trkpt>
      <trkpt lat="43.60492" lon="-0.30595">
        <ele>221</ele>
        <time>2022-08-21T09:01:57Z</time>
      </trkpt>
      <trkpt lat="43.60455" lon="-0.30587">
        <ele>218</ele>
        <time>2022-08-21T09:02:30Z</time>
      </trkpt>
      <trkpt lat="43.60446" lon="-0.30584">
        <ele>217</ele>
        <time>2022-08-21T09:02:39Z</time>
      </trkpt>
      <trkpt lat="43.60436" lon="-0.30584">
        <ele>217</ele>
        <time>2022-08-21T09:02:48Z</time>
      </trkpt>
      <trkpt lat="43.60428" lon="-0.30591">
        <ele>217</ele>
        <time>2022-08-21T09:02:57Z</time>
      </trkpt>
      <trkpt lat="43.60414" lon="-0.30608">
        <ele>217</ele>
        <time>2022-08-21T09:03:17Z</time>
      </trkpt>
      <trkpt lat="43.60405" lon="-0.30614">
        <ele>217</ele>
        <time>2022-08-21T09:03:25Z</time>
      </trkpt>
      <trkpt lat="43.60396" lon="-0.30617">
        <ele>217</ele>
        <time>2022-08-21T09:03:36Z</time>
      </trkpt>
      <trkpt lat="43.60376" lon="-0.30608">
        <ele>217</ele>
        <time>2022-08-21T09:03:56Z</time>
      </trkpt>
      <trkpt lat="43.60358" lon="-0.30595">
        <ele>217</ele>
        <time>2022-08-21T09:04:09Z</time>
      </trkpt>
      <trkpt lat="43.60349" lon="-0.30594">
        <ele>217</ele>
        <time>2022-08-21T09:04:17Z</time>
      </trkpt>
      <trkpt lat="43.60325" lon="-0.30578">
        <ele>217</ele>
        <time>2022-08-21T09:04:48Z</time>
      </trkpt>
      <trkpt lat="43.60315" lon="-0.30572">
        <ele>217</ele>
        <time>2022-08-21T09:04:53Z</time>
      </trkpt>
      <trkpt lat="43.60285" lon="-0.30564">
        <ele>217</ele>
        <time>2022-08-21T09:05:12Z</time>
      </trkpt>
      <trkpt lat="43.60258" lon="-0.30576">
        <ele>217</ele>
        <time>2022-08-21T09:05:37Z</time>
      </trkpt>
      <trkpt lat="43.60249" lon="-0.30584">
        <ele>217</ele>
        <time>2022-08-21T09:05:43Z</time>
      </trkpt>
      <trkpt lat="43.60249" lon="-0.30598">
        <ele>217</ele>
        <time>2022-08-21T09:05:53Z</time>
      </trkpt>
      <trkpt lat="43.60275" lon="-0.30653">
        <ele>216</ele>
        <time>2022-08-21T09:06:27Z</time>
      </trkpt>
      <trkpt lat="43.60295" lon="-0.30696">
        <ele>215</ele>
        <time>2022-08-21T09:06:57Z</time>
      </trkpt>
      <trkpt lat="43.60306" lon="-0.30732">
        <ele>215</ele>
        <time>2022-08-21T09:07:22Z</time>
      </trkpt>
      <trkpt lat="43.60312" lon="-0.30783">
        <ele>215</ele>
        <time>2022-08-21T09:07:56Z</time>
      </trkpt>
      <trkpt lat="43.60321" lon="-0.30821">
        <ele>216</ele>
        <time>2022-08-21T09:08:30Z</time>
      </trkpt>
      <trkpt lat="43.60331" lon="-0.30872">
        <ele>218</ele>
        <time>2022-08-21T09:08:59Z</time>
      </trkpt>
      <trkpt lat="43.60334" lon="-0.30925">
        <ele>220</ele>
        <time>2022-08-21T09:09:39Z</time>
      </trkpt>
      <trkpt lat="43.60338" lon="-0.30977">
        <ele>221</ele>
        <time>2022-08-21T09:10:10Z</time>
      </trkpt>
      <trkpt lat="43.60342" lon="-0.31029">
        <ele>223</ele>
        <time>2022-08-21T09:10:41Z</time>
      </trkpt>
      <trkpt lat="43.60344" lon="-0.31043">
        <ele>223</ele>
        <time>2022-08-21T09:10:49Z</time>
      </trkpt>
      <trkpt lat="43.60355" lon="-0.31067">
        <ele>224</ele>
        <time>2022-08-21T09:11:04Z</time>
      </trkpt>
      <trkpt lat="43.60358" lon="-0.31078">
        <ele>225</ele>
        <time>2022-08-21T09:11:12Z</time>
      </trkpt>
      <trkpt lat="43.60361" lon="-0.31132">
        <ele>226</ele>
        <time>2022-08-21T09:11:43Z</time>
      </trkpt>
      <trkpt lat="43.6036" lon="-0.31145">
        <ele>227</ele>
        <time>2022-08-21T09:11:51Z</time>
      </trkpt>
      <trkpt lat="43.60361" lon="-0.31157">
        <ele>227</ele>
        <time>2022-08-21T09:11:57Z</time>
      </trkpt>
      <trkpt lat="43.60355" lon="-0.31223">
        <ele>229</ele>
        <time>2022-08-21T09:12:31Z</time>
      </trkpt>
      <trkpt lat="43.60354" lon="-0.31277">
        <ele>230</ele>
        <time>2022-08-21T09:13:04Z</time>
      </trkpt>
      <trkpt lat="43.60354" lon="-0.31331">
        <ele>231</ele>
        <time>2022-08-21T09:13:36Z</time>
      </trkpt>
      <trkpt lat="43.60353" lon="-0.31372">
        <ele>232</ele>
        <time>2022-08-21T09:14:00Z</time>
      </trkpt>
      <trkpt lat="43.60349" lon="-0.31399">
        <ele>232</ele>
        <time>2022-08-21T09:14:15Z</time>
      </trkpt>
      <trkpt lat="43.60328" lon="-0.31426">
        <ele>233</ele>
        <time>2022-08-21T09:14:39Z</time>
      </trkpt>
      <trkpt lat="43.60323" lon="-0.31437">
        <ele>233</ele>
        <time>2022-08-21T09:14:48Z</time>
      </trkpt>
      <trkpt lat="43.60297" lon="-0.31477">
        <ele>234</ele>
        <time>2022-08-21T09:15:18Z</time>
      </trkpt>
      <trkpt lat="43.60269" lon="-0.3151">
        <ele>234</ele>
        <time>2022-08-21T09:15:50Z</time>
      </trkpt>
      <trkpt lat="43.60239" lon="-0.31543">
        <ele>234</ele>
        <time>2022-08-21T09:16:22Z</time>
      </trkpt>
      <trkpt lat="43.60206" lon="-0.31574">
        <ele>235</ele>
        <time>2022-08-21T09:16:55Z</time>
      </trkpt>
      <trkpt lat="43.60177" lon="-0.31609">
        <ele>235</ele>
        <time>2022-08-21T09:17:26Z</time>
      </trkpt>
      <trkpt lat="43.60152" lon="-0.31648">
        <ele>235</ele>
        <time>2022-08-21T09:17:57Z</time>
      </trkpt>
      <trkpt lat="43.60144" lon="-0.31656">
        <ele>234</ele>
        <time>2022-08-21T09:18:05Z</time>
      </trkpt>
      <trkpt lat="43.60138" lon="-0.31666">
        <ele>234</ele>
        <time>2022-08-21T09:18:13Z</time>
      </trkpt>
      <trkpt lat="43.60135" lon="-0.31678">
        <ele>234</ele>
        <time>2022-08-21T09:18:20Z</time>
      </trkpt>
      <trkpt lat="43.60136" lon="-0.31691">
        <ele>234</ele>
        <time>2022-08-21T09:18:28Z</time>
      </trkpt>
      <trkpt lat="43.60149" lon="-0.31726">
        <ele>233</ele>
        <time>2022-08-21T09:18:52Z</time>
      </trkpt>
      <trkpt lat="43.60155" lon="-0.31736">
        <ele>233</ele>
        <time>2022-08-21T09:18:59Z</time>
      </trkpt>
      <trkpt lat="43.60166" lon="-0.31774">
        <ele>232</ele>
        <time>2022-08-21T09:19:23Z</time>
      </trkpt>
      <trkpt lat="43.60172" lon="-0.31813">
        <ele>231</ele>
        <time>2022-08-21T09:19:49Z</time>
      </trkpt>
      <trkpt lat="43.60185" lon="-0.31862">
        <ele>231</ele>
        <time>2022-08-21T09:20:20Z</time>
      </trkpt>
      <trkpt lat="43.60196" lon="-0.31914">
        <ele>230</ele>
        <time>2022-08-21T09:20:55Z</time>
      </trkpt>
      <trkpt lat="43.60199" lon="-0.31927">
        <ele>230</ele>
        <time>2022-08-21T09:21:03Z</time>
      </trkpt>
      <trkpt lat="43.60204" lon="-0.31979">
        <ele>230</ele>
        <time>2022-08-21T09:21:33Z</time>
      </trkpt>
      <trkpt lat="43.60206" lon="-0.32033">
        <ele>230</ele>
        <time>2022-08-21T09:22:05Z</time>
      </trkpt>
      <trkpt lat="43.60205" lon="-0.32046">
        <ele>230</ele>
        <time>2022-08-21T09:22:13Z</time>
      </trkpt>
      <trkpt lat="43.60206" lon="-0.32059">
        <ele>230</ele>
        <time>2022-08-21T09:22:21Z</time>
      </trkpt>
      <trkpt lat="43.60202" lon="-0.32111">
        <ele>231</ele>
        <time>2022-08-21T09:22:52Z</time>
      </trkpt>
      <trkpt lat="43.60199" lon="-0.32164">
        <ele>232</ele>
        <time>2022-08-21T09:23:25Z</time>
      </trkpt>
      <trkpt lat="43.60193" lon="-0.32217">
        <ele>233</ele>
        <time>2022-08-21T09:23:59Z</time>
      </trkpt>
      <trkpt lat="43.60193" lon="-0.32256">
        <ele>234</ele>
        <time>2022-08-21T09:24:24Z</time>
      </trkpt>
      <trkpt lat="43.60188" lon="-0.32293">
        <ele>235</ele>
        <time>2022-08-21T09:24:49Z</time>
      </trkpt>
      <trkpt lat="43.60187" lon="-0.32319">
        <ele>235</ele>
        <time>2022-08-21T09:25:04Z</time>
      </trkpt>
      <trkpt lat="43.60184" lon="-0.32332">
        <ele>236</ele>
        <time>2022-08-21T09:25:13Z</time>
      </trkpt>
      <trkpt lat="43.6018" lon="-0.32386">
        <ele>239</ele>
        <time>2022-08-21T09:25:48Z</time>
      </trkpt>
      <trkpt lat="43.60177" lon="-0.32412">
        <ele>240</ele>
        <time>2022-08-21T09:26:06Z</time>
      </trkpt>
      <trkpt lat="43.60172" lon="-0.32437">
        <ele>242</ele>
        <time>2022-08-21T09:26:23Z</time>
      </trkpt>
      <trkpt lat="43.60172" lon="-0.32464">
        <ele>244</ele>
        <time>2022-08-21T09:26:41Z</time>
      </trkpt>
      <trkpt lat="43.60164" lon="-0.32503">
        <ele>246</ele>
        <time>2022-08-21T09:27:12Z</time>
      </trkpt>
      <trkpt lat="43.60157" lon="-0.32554">
        <ele>249</ele>
        <time>2022-08-21T09:27:49Z</time>
      </trkpt>
      <trkpt lat="43.60153" lon="-0.32578">
        <ele>251</ele>
        <time>2022-08-21T09:28:06Z</time>
      </trkpt>
      <trkpt lat="43.60148" lon="-0.32588">
        <ele>251</ele>
        <time>2022-08-21T09:28:15Z</time>
      </trkpt>
      <trkpt lat="43.60141" lon="-0.32597">
        <ele>252</ele>
        <time>2022-08-21T09:28:25Z</time>
      </trkpt>
      <trkpt lat="43.60114" lon="-0.32614">
        <ele>254</ele>
        <time>2022-08-21T09:28:55Z</time>
      </trkpt>
      <trkpt lat="43.60096" lon="-0.32622">
        <ele>256</ele>
        <time>2022-08-21T09:29:14Z</time>
      </trkpt>
      <trkpt lat="43.60063" lon="-0.32648">
        <ele>259</ele>
        <time>2022-08-21T09:29:47Z</time>
      </trkpt>
      <trkpt lat="43.60037" lon="-0.32664">
        <ele>261</ele>
        <time>2022-08-21T09:30:13Z</time>
      </trkpt>
      <trkpt lat="43.60006" lon="-0.32697">
        <ele>264</ele>
        <time>2022-08-21T09:30:44Z</time>
      </trkpt>
      <trkpt lat="43.59998" lon="-0.32703">
        <ele>264</ele>
        <time>2022-08-21T09:30:52Z</time>
      </trkpt>
      <trkpt lat="43.5999" lon="-0.3271">
        <ele>264</ele>
        <time>2022-08-21T09:31:00Z</time>
      </trkpt>
      <trkpt lat="43.59972" lon="-0.32717">
        <ele>263</ele>
        <time>2022-08-21T09:31:20Z</time>
      </trkpt>
      <trkpt lat="43.59964" lon="-0.3271">
        <ele>263</ele>
        <time>2022-08-21T09:31:29Z</time>
      </trkpt>
      <trkpt lat="43.59945" lon="-0.32712">
        <ele>263</ele>
        <time>2022-08-21T09:31:48Z</time>
      </trkpt>
      <trkpt lat="43.59897" lon="-0.32697">
        <ele>262</ele>
        <time>2022-08-21T09:32:21Z</time>
      </trkpt>
      <trkpt lat="43.5988" lon="-0.32683">
        <ele>261</ele>
        <time>2022-08-21T09:32:37Z</time>
      </trkpt>
      <trkpt lat="43.59861" lon="-0.32675">
        <ele>261</ele>
        <time>2022-08-21T09:32:51Z</time>
      </trkpt>
      <trkpt lat="43.59842" lon="-0.32675">
        <ele>260</ele>
        <time>2022-08-21T09:33:06Z</time>
      </trkpt>
      <trkpt lat="43.59833" lon="-0.32677">
        <ele>260</ele>
        <time>2022-08-21T09:33:15Z</time>
      </trkpt>
      <trkpt lat="43.59813" lon="-0.32678">
        <ele>260</ele>
        <time>2022-08-21T09:33:32Z</time>
      </trkpt>
      <trkpt lat="43.59782" lon="-0.32708">
        <ele>260</ele>
        <time>2022-08-21T09:34:03Z</time>
      </trkpt>
      <trkpt lat="43.59744" lon="-0.32719">
        <ele>259</ele>
        <time>2022-08-21T09:34:34Z</time>
      </trkpt>
      <trkpt lat="43.59716" lon="-0.32725">
        <ele>259</ele>
        <time>2022-08-21T09:34:59Z</time>
      </trkpt>
      <trkpt lat="43.59688" lon="-0.32736">
        <ele>259</ele>
        <time>2022-08-21T09:35:28Z</time>
      </trkpt>
      <trkpt lat="43.59661" lon="-0.32723">
        <ele>259</ele>
        <time>2022-08-21T09:36:03Z</time>
      </trkpt>
      <trkpt lat="43.59623" lon="-0.32727">
        <ele>257</ele>
        <time>2022-08-21T09:36:36Z</time>
      </trkpt>
      <trkpt lat="43.59613" lon="-0.32731">
        <ele>256</ele>
        <time>2022-08-21T09:36:46Z</time>
      </trkpt>
      <trkpt lat="43.59607" lon="-0.32741">
        <ele>256</ele>
        <time>2022-08-21T09:36:56Z</time>
      </trkpt>
      <trkpt lat="43.5959" lon="-0.32745">
        <ele>255</ele>
        <time>2022-08-21T09:38:55Z</time>
      </trkpt>
      <trkpt lat="43.59604" lon="-0.32759">
        <ele>254</ele>
        <time>2022-08-21T09:52:03Z</time>
      </trkpt>
      <trkpt lat="43.59599" lon="-0.32749">
        <ele>253</ele>
        <time>2022-08-21T09:58:02Z</time>
      </trkpt>
      <trkpt lat="43.59589" lon="-0.32733">
        <ele>252</ele>
        <time>2022-08-21T09:58:45Z</time>
      </trkpt>
      <trkpt lat="43.59551" lon="-0.32725">
        <ele>250</ele>
        <time>2022-08-21T09:59:16Z</time>
      </trkpt>
      <trkpt lat="43.59542" lon="-0.32728">
        <ele>249</ele>
        <time>2022-08-21T09:59:24Z</time>
      </trkpt>
      <trkpt lat="43.59523" lon="-0.32726">
        <ele>248</ele>
        <time>2022-08-21T09:59:43Z</time>
      </trkpt>
      <trkpt lat="43.59509" lon="-0.32738">
        <ele>247</ele>
        <time>2022-08-21T10:09:24Z</time>
      </trkpt>
      <trkpt lat="43.59482" lon="-0.32738">
        <ele>244</ele>
        <time>2022-08-21T10:09:37Z</time>
      </trkpt>
      <trkpt lat="43.59455" lon="-0.32756">
        <ele>241</ele>
        <time>2022-08-21T10:09:46Z</time>
      </trkpt>
      <trkpt lat="43.59552" lon="-0.32729">
        <ele>232</ele>
        <time>2022-08-21T10:10:26Z</time>
      </trkpt>
      <trkpt lat="43.59545" lon="-0.32739">
        <ele>233</ele>
        <time>2022-08-21T10:10:44Z</time>
      </trkpt>
      <trkpt lat="43.59535" lon="-0.32734">
        <ele>234</ele>
        <time>2022-08-21T10:11:05Z</time>
      </trkpt>
      <trkpt lat="43.59522" lon="-0.32745">
        <ele>236</ele>
        <time>2022-08-21T10:12:54Z</time>
      </trkpt>
      <trkpt lat="43.59478" lon="-0.32724">
        <ele>242</ele>
        <time>2022-08-21T10:56:06Z</time>
      </trkpt>
      <trkpt lat="43.59474" lon="-0.32735">
        <ele>243</ele>
        <time>2022-08-21T10:56:18Z</time>
      </trkpt>
      <trkpt lat="43.59439" lon="-0.32755">
        <ele>248</ele>
        <time>2022-08-21T10:56:55Z</time>
      </trkpt>
      <trkpt lat="43.59436" lon="-0.32767">
        <ele>249</ele>
        <time>2022-08-21T10:57:02Z</time>
      </trkpt>
      <trkpt lat="43.5941" lon="-0.32805">
        <ele>254</ele>
        <time>2022-08-21T10:57:36Z</time>
      </trkpt>
      <trkpt lat="43.59402" lon="-0.32814">
        <ele>255</ele>
        <time>2022-08-21T10:57:44Z</time>
      </trkpt>
      <trkpt lat="43.5937" lon="-0.3284">
        <ele>253</ele>
        <time>2022-08-21T10:58:15Z</time>
      </trkpt>
      <trkpt lat="43.59353" lon="-0.32854">
        <ele>252</ele>
        <time>2022-08-21T10:58:31Z</time>
      </trkpt>
      <trkpt lat="43.59339" lon="-0.32872">
        <ele>252</ele>
        <time>2022-08-21T10:58:45Z</time>
      </trkpt>
      <trkpt lat="43.59335" lon="-0.32884">
        <ele>251</ele>
        <time>2022-08-21T10:58:55Z</time>
      </trkpt>
      <trkpt lat="43.5933" lon="-0.3291">
        <ele>250</ele>
        <time>2022-08-21T10:59:17Z</time>
      </trkpt>
      <trkpt lat="43.59331" lon="-0.32923">
        <ele>250</ele>
        <time>2022-08-21T10:59:30Z</time>
      </trkpt>
      <trkpt lat="43.59328" lon="-0.32975">
        <ele>249</ele>
        <time>2022-08-21T11:00:01Z</time>
      </trkpt>
      <trkpt lat="43.59334" lon="-0.33029">
        <ele>247</ele>
        <time>2022-08-21T11:00:32Z</time>
      </trkpt>
      <trkpt lat="43.59346" lon="-0.33094">
        <ele>245</ele>
        <time>2022-08-21T11:01:09Z</time>
      </trkpt>
      <trkpt lat="43.59356" lon="-0.33145">
        <ele>243</ele>
        <time>2022-08-21T11:01:40Z</time>
      </trkpt>
      <trkpt lat="43.5937" lon="-0.33207">
        <ele>241</ele>
        <time>2022-08-21T11:02:17Z</time>
      </trkpt>
      <trkpt lat="43.5938" lon="-0.33244">
        <ele>240</ele>
        <time>2022-08-21T11:02:49Z</time>
      </trkpt>
      <trkpt lat="43.59386" lon="-0.33282">
        <ele>240</ele>
        <time>2022-08-21T11:03:15Z</time>
      </trkpt>
      <trkpt lat="43.59384" lon="-0.33322">
        <ele>240</ele>
        <time>2022-08-21T11:03:40Z</time>
      </trkpt>
      <trkpt lat="43.59382" lon="-0.33335">
        <ele>240</ele>
        <time>2022-08-21T11:03:48Z</time>
      </trkpt>
      <trkpt lat="43.59364" lon="-0.33382">
        <ele>240</ele>
        <time>2022-08-21T11:04:20Z</time>
      </trkpt>
      <trkpt lat="43.59346" lon="-0.33428">
        <ele>240</ele>
        <time>2022-08-21T11:04:51Z</time>
      </trkpt>
      <trkpt lat="43.59341" lon="-0.3344">
        <ele>240</ele>
        <time>2022-08-21T11:04:58Z</time>
      </trkpt>
      <trkpt lat="43.59337" lon="-0.33466">
        <ele>239</ele>
        <time>2022-08-21T11:05:13Z</time>
      </trkpt>
      <trkpt lat="43.59341" lon="-0.33517">
        <ele>238</ele>
        <time>2022-08-21T11:05:43Z</time>
      </trkpt>
      <trkpt lat="43.59345" lon="-0.3357">
        <ele>236</ele>
        <time>2022-08-21T11:06:13Z</time>
      </trkpt>
      <trkpt lat="43.59348" lon="-0.33611">
        <ele>235</ele>
        <time>2022-08-21T11:06:36Z</time>
      </trkpt>
      <trkpt lat="43.5936" lon="-0.33648">
        <ele>233</ele>
        <time>2022-08-21T11:07:00Z</time>
      </trkpt>
      <trkpt lat="43.59366" lon="-0.33658">
        <ele>233</ele>
        <time>2022-08-21T11:07:07Z</time>
      </trkpt>
      <trkpt lat="43.59394" lon="-0.33693">
        <ele>231</ele>
        <time>2022-08-21T11:07:40Z</time>
      </trkpt>
      <trkpt lat="43.59419" lon="-0.33747">
        <ele>227</ele>
        <time>2022-08-21T11:08:15Z</time>
      </trkpt>
      <trkpt lat="43.59445" lon="-0.33786">
        <ele>224</ele>
        <time>2022-08-21T11:08:46Z</time>
      </trkpt>
      <trkpt lat="43.59457" lon="-0.33807">
        <ele>223</ele>
        <time>2022-08-21T11:09:01Z</time>
      </trkpt>
      <trkpt lat="43.59475" lon="-0.33836">
        <ele>220</ele>
        <time>2022-08-21T11:09:24Z</time>
      </trkpt>
      <trkpt lat="43.5948" lon="-0.33847">
        <ele>219</ele>
        <time>2022-08-21T11:09:31Z</time>
      </trkpt>
      <trkpt lat="43.59494" lon="-0.33911">
        <ele>215</ele>
        <time>2022-08-21T11:10:05Z</time>
      </trkpt>
      <trkpt lat="43.59506" lon="-0.33975">
        <ele>210</ele>
        <time>2022-08-21T11:10:41Z</time>
      </trkpt>
      <trkpt lat="43.59519" lon="-0.34024">
        <ele>206</ele>
        <time>2022-08-21T11:11:11Z</time>
      </trkpt>
      <trkpt lat="43.59529" lon="-0.34047">
        <ele>204</ele>
        <time>2022-08-21T11:11:26Z</time>
      </trkpt>
      <trkpt lat="43.59531" lon="-0.3406">
        <ele>203</ele>
        <time>2022-08-21T11:11:33Z</time>
      </trkpt>
      <trkpt lat="43.59552" lon="-0.34104">
        <ele>199</ele>
        <time>2022-08-21T11:12:01Z</time>
      </trkpt>
      <trkpt lat="43.59568" lon="-0.34121">
        <ele>197</ele>
        <time>2022-08-21T11:12:16Z</time>
      </trkpt>
      <trkpt lat="43.59585" lon="-0.3413">
        <ele>196</ele>
        <time>2022-08-21T11:12:31Z</time>
      </trkpt>
      <trkpt lat="43.59619" lon="-0.34163">
        <ele>192</ele>
        <time>2022-08-21T11:13:01Z</time>
      </trkpt>
      <trkpt lat="43.59651" lon="-0.34193">
        <ele>189</ele>
        <time>2022-08-21T11:13:31Z</time>
      </trkpt>
      <trkpt lat="43.59659" lon="-0.34199">
        <ele>189</ele>
        <time>2022-08-21T11:13:38Z</time>
      </trkpt>
      <trkpt lat="43.59673" lon="-0.34218">
        <ele>187</ele>
        <time>2022-08-21T11:13:53Z</time>
      </trkpt>
      <trkpt lat="43.59683" lon="-0.3424">
        <ele>186</ele>
        <time>2022-08-21T11:14:09Z</time>
      </trkpt>
      <trkpt lat="43.5969" lon="-0.3425">
        <ele>185</ele>
        <time>2022-08-21T11:14:17Z</time>
      </trkpt>
      <trkpt lat="43.59699" lon="-0.34275">
        <ele>183</ele>
        <time>2022-08-21T11:14:32Z</time>
      </trkpt>
      <trkpt lat="43.59711" lon="-0.34294">
        <ele>182</ele>
        <time>2022-08-21T11:14:47Z</time>
      </trkpt>
      <trkpt lat="43.59727" lon="-0.34343">
        <ele>180</ele>
        <time>2022-08-21T11:15:20Z</time>
      </trkpt>
      <trkpt lat="43.59742" lon="-0.34393">
        <ele>177</ele>
        <time>2022-08-21T11:15:50Z</time>
      </trkpt>
      <trkpt lat="43.59751" lon="-0.34416">
        <ele>176</ele>
        <time>2022-08-21T11:16:06Z</time>
      </trkpt>
      <trkpt lat="43.59758" lon="-0.34426">
        <ele>175</ele>
        <time>2022-08-21T11:16:14Z</time>
      </trkpt>
      <trkpt lat="43.59766" lon="-0.34465">
        <ele>174</ele>
        <time>2022-08-21T11:16:35Z</time>
      </trkpt>
      <trkpt lat="43.59765" lon="-0.34532">
        <ele>171</ele>
        <time>2022-08-21T11:17:12Z</time>
      </trkpt>
      <trkpt lat="43.59763" lon="-0.34598">
        <ele>170</ele>
        <time>2022-08-21T11:17:46Z</time>
      </trkpt>
      <trkpt lat="43.59756" lon="-0.3465">
        <ele>169</ele>
        <time>2022-08-21T11:18:17Z</time>
      </trkpt>
      <trkpt lat="43.59745" lon="-0.34689">
        <ele>169</ele>
        <time>2022-08-21T11:18:41Z</time>
      </trkpt>
      <trkpt lat="43.59741" lon="-0.34714">
        <ele>168</ele>
        <time>2022-08-21T11:18:56Z</time>
      </trkpt>
      <trkpt lat="43.59737" lon="-0.34725">
        <ele>168</ele>
        <time>2022-08-21T11:19:04Z</time>
      </trkpt>
      <trkpt lat="43.59736" lon="-0.34738">
        <ele>168</ele>
        <time>2022-08-21T11:19:14Z</time>
      </trkpt>
      <trkpt lat="43.59729" lon="-0.34764">
        <ele>168</ele>
        <time>2022-08-21T11:19:25Z</time>
      </trkpt>
      <trkpt lat="43.59728" lon="-0.34789">
        <ele>168</ele>
        <time>2022-08-21T11:19:38Z</time>
      </trkpt>
      <trkpt lat="43.59735" lon="-0.34855">
        <ele>168</ele>
        <time>2022-08-21T11:20:12Z</time>
      </trkpt>
      <trkpt lat="43.59736" lon="-0.34908">
        <ele>169</ele>
        <time>2022-08-21T11:20:39Z</time>
      </trkpt>
      <trkpt lat="43.59731" lon="-0.34974">
        <ele>169</ele>
        <time>2022-08-21T11:21:16Z</time>
      </trkpt>
      <trkpt lat="43.59721" lon="-0.35041">
        <ele>169</ele>
        <time>2022-08-21T11:21:52Z</time>
      </trkpt>
      <trkpt lat="43.59717" lon="-0.3508">
        <ele>169</ele>
        <time>2022-08-21T11:22:15Z</time>
      </trkpt>
      <trkpt lat="43.59712" lon="-0.35092">
        <ele>169</ele>
        <time>2022-08-21T11:22:24Z</time>
      </trkpt>
      <trkpt lat="43.59702" lon="-0.35093">
        <ele>169</ele>
        <time>2022-08-21T11:22:33Z</time>
      </trkpt>
      <trkpt lat="43.59663" lon="-0.3509">
        <ele>169</ele>
        <time>2022-08-21T11:23:03Z</time>
      </trkpt>
      <trkpt lat="43.59625" lon="-0.35086">
        <ele>170</ele>
        <time>2022-08-21T11:23:35Z</time>
      </trkpt>
      <trkpt lat="43.59577" lon="-0.35074">
        <ele>169</ele>
        <time>2022-08-21T11:24:11Z</time>
      </trkpt>
      <trkpt lat="43.59539" lon="-0.35071">
        <ele>169</ele>
        <time>2022-08-21T11:24:42Z</time>
      </trkpt>
      <trkpt lat="43.59491" lon="-0.35064">
        <ele>169</ele>
        <time>2022-08-21T11:25:17Z</time>
      </trkpt>
      <trkpt lat="43.59481" lon="-0.35065">
        <ele>169</ele>
        <time>2022-08-21T11:25:24Z</time>
      </trkpt>
      <trkpt lat="43.59443" lon="-0.35057">
        <ele>169</ele>
        <time>2022-08-21T11:25:54Z</time>
      </trkpt>
      <trkpt lat="43.59425" lon="-0.35048">
        <ele>169</ele>
        <time>2022-08-21T11:26:08Z</time>
      </trkpt>
      <trkpt lat="43.59398" lon="-0.35041">
        <ele>169</ele>
        <time>2022-08-21T11:26:30Z</time>
      </trkpt>
      <trkpt lat="43.59389" lon="-0.35037">
        <ele>170</ele>
        <time>2022-08-21T11:26:38Z</time>
      </trkpt>
      <trkpt lat="43.59374" lon="-0.35022">
        <ele>170</ele>
        <time>2022-08-21T11:26:50Z</time>
      </trkpt>
      <trkpt lat="43.59329" lon="-0.35">
        <ele>171</ele>
        <time>2022-08-21T11:27:24Z</time>
      </trkpt>
      <trkpt lat="43.59301" lon="-0.34995">
        <ele>172</ele>
        <time>2022-08-21T11:27:46Z</time>
      </trkpt>
      <trkpt lat="43.59252" lon="-0.34996">
        <ele>173</ele>
        <time>2022-08-21T11:28:21Z</time>
      </trkpt>
      <trkpt lat="43.59223" lon="-0.35">
        <ele>173</ele>
        <time>2022-08-21T11:28:43Z</time>
      </trkpt>
      <trkpt lat="43.59177" lon="-0.35016">
        <ele>174</ele>
        <time>2022-08-21T11:29:19Z</time>
      </trkpt>
      <trkpt lat="43.5914" lon="-0.35027">
        <ele>175</ele>
        <time>2022-08-21T11:29:49Z</time>
      </trkpt>
      <trkpt lat="43.59094" lon="-0.35044">
        <ele>175</ele>
        <time>2022-08-21T11:30:25Z</time>
      </trkpt>
      <trkpt lat="43.59085" lon="-0.35048">
        <ele>176</ele>
        <time>2022-08-21T11:30:32Z</time>
      </trkpt>
      <trkpt lat="43.59046" lon="-0.35051">
        <ele>176</ele>
        <time>2022-08-21T11:31:03Z</time>
      </trkpt>
      <trkpt lat="43.59019" lon="-0.35056">
        <ele>177</ele>
        <time>2022-08-21T11:31:26Z</time>
      </trkpt>
      <trkpt lat="43.58973" lon="-0.35074">
        <ele>177</ele>
        <time>2022-08-21T11:32:01Z</time>
      </trkpt>
      <trkpt lat="43.58928" lon="-0.35078">
        <ele>178</ele>
        <time>2022-08-21T11:33:38Z</time>
      </trkpt>
      <trkpt lat="43.58888" lon="-0.35081">
        <ele>179</ele>
        <time>2022-08-21T11:34:10Z</time>
      </trkpt>
      <trkpt lat="43.58841" lon="-0.35082">
        <ele>179</ele>
        <time>2022-08-21T11:34:47Z</time>
      </trkpt>
      <trkpt lat="43.58804" lon="-0.35083">
        <ele>179</ele>
        <time>2022-08-21T11:35:17Z</time>
      </trkpt>
      <trkpt lat="43.58768" lon="-0.35081">
        <ele>179</ele>
        <time>2022-08-21T11:35:46Z</time>
      </trkpt>
      <trkpt lat="43.5872" lon="-0.35066">
        <ele>179</ele>
        <time>2022-08-21T11:36:22Z</time>
      </trkpt>
      <trkpt lat="43.58692" lon="-0.3506">
        <ele>179</ele>
        <time>2022-08-21T11:36:44Z</time>
      </trkpt>
      <trkpt lat="43.58664" lon="-0.3506">
        <ele>180</ele>
        <time>2022-08-21T11:37:04Z</time>
      </trkpt>
      <trkpt lat="43.58654" lon="-0.35058">
        <ele>180</ele>
        <time>2022-08-21T11:37:11Z</time>
      </trkpt>
      <trkpt lat="43.58645" lon="-0.35058">
        <ele>180</ele>
        <time>2022-08-21T11:37:18Z</time>
      </trkpt>
      <trkpt lat="43.58626" lon="-0.35065">
        <ele>180</ele>
        <time>2022-08-21T11:37:32Z</time>
      </trkpt>
      <trkpt lat="43.58586" lon="-0.35064">
        <ele>181</ele>
        <time>2022-08-21T11:38:03Z</time>
      </trkpt>
      <trkpt lat="43.58558" lon="-0.3506">
        <ele>181</ele>
        <time>2022-08-21T11:38:25Z</time>
      </trkpt>
      <trkpt lat="43.5854" lon="-0.35055">
        <ele>182</ele>
        <time>2022-08-21T11:38:39Z</time>
      </trkpt>
      <trkpt lat="43.58529" lon="-0.35054">
        <ele>183</ele>
        <time>2022-08-21T11:38:48Z</time>
      </trkpt>
      <trkpt lat="43.5852" lon="-0.3505">
        <ele>183</ele>
        <time>2022-08-21T11:38:56Z</time>
      </trkpt>
      <trkpt lat="43.58483" lon="-0.35048">
        <ele>186</ele>
        <time>2022-08-21T11:39:28Z</time>
      </trkpt>
      <trkpt lat="43.58435" lon="-0.35044">
        <ele>188</ele>
        <time>2022-08-21T11:40:05Z</time>
      </trkpt>
      <trkpt lat="43.58396" lon="-0.35043">
        <ele>191</ele>
        <time>2022-08-21T11:40:38Z</time>
      </trkpt>
      <trkpt lat="43.58358" lon="-0.35045">
        <ele>192</ele>
        <time>2022-08-21T11:41:18Z</time>
      </trkpt>
      <trkpt lat="43.58319" lon="-0.35052">
        <ele>192</ele>
        <time>2022-08-21T11:41:49Z</time>
      </trkpt>
      <trkpt lat="43.5831" lon="-0.35053">
        <ele>192</ele>
        <time>2022-08-21T11:41:57Z</time>
      </trkpt>
      <trkpt lat="43.583" lon="-0.3505">
        <ele>192</ele>
        <time>2022-08-21T11:42:05Z</time>
      </trkpt>
      <trkpt lat="43.58294" lon="-0.35039">
        <ele>193</ele>
        <time>2022-08-21T11:42:13Z</time>
      </trkpt>
      <trkpt lat="43.58294" lon="-0.34973">
        <ele>193</ele>
        <time>2022-08-21T11:42:50Z</time>
      </trkpt>
      <trkpt lat="43.5829" lon="-0.34921">
        <ele>193</ele>
        <time>2022-08-21T11:43:49Z</time>
      </trkpt>
      <trkpt lat="43.58306" lon="-0.34909">
        <ele>193</ele>
        <time>2022-08-21T11:44:41Z</time>
      </trkpt>
      <trkpt lat="43.58316" lon="-0.34909">
        <ele>194</ele>
        <time>2022-08-21T11:44:48Z</time>
      </trkpt>
      <trkpt lat="43.5809" lon="-0.34957">
        <ele>199</ele>
        <time>2022-08-21T12:18:41Z</time>
      </trkpt>
      <trkpt lat="43.58052" lon="-0.34962">
        <ele>197</ele>
        <time>2022-08-21T12:19:11Z</time>
      </trkpt>
      <trkpt lat="43.58042" lon="-0.34963">
        <ele>197</ele>
        <time>2022-08-21T12:19:18Z</time>
      </trkpt>
      <trkpt lat="43.58013" lon="-0.34973">
        <ele>195</ele>
        <time>2022-08-21T12:19:40Z</time>
      </trkpt>
      <trkpt lat="43.58004" lon="-0.3498">
        <ele>195</ele>
        <time>2022-08-21T12:19:48Z</time>
      </trkpt>
      <trkpt lat="43.57993" lon="-0.35001">
        <ele>194</ele>
        <time>2022-08-21T12:20:03Z</time>
      </trkpt>
      <trkpt lat="43.57992" lon="-0.35014">
        <ele>194</ele>
        <time>2022-08-21T12:20:11Z</time>
      </trkpt>
      <trkpt lat="43.57987" lon="-0.35065">
        <ele>197</ele>
        <time>2022-08-21T12:20:42Z</time>
      </trkpt>
      <trkpt lat="43.5798" lon="-0.35115">
        <ele>200</ele>
        <time>2022-08-21T12:21:14Z</time>
      </trkpt>
      <trkpt lat="43.57974" lon="-0.35167">
        <ele>203</ele>
        <time>2022-08-21T12:21:44Z</time>
      </trkpt>
      <trkpt lat="43.57968" lon="-0.35217">
        <ele>206</ele>
        <time>2022-08-21T12:22:15Z</time>
      </trkpt>
      <trkpt lat="43.5796" lon="-0.35269">
        <ele>209</ele>
        <time>2022-08-21T12:22:45Z</time>
      </trkpt>
      <trkpt lat="43.57955" lon="-0.35322">
        <ele>212</ele>
        <time>2022-08-21T12:23:16Z</time>
      </trkpt>
      <trkpt lat="43.5795" lon="-0.35375">
        <ele>214</ele>
        <time>2022-08-21T12:23:48Z</time>
      </trkpt>
      <trkpt lat="43.5795" lon="-0.35388">
        <ele>214</ele>
        <time>2022-08-21T12:23:55Z</time>
      </trkpt>
      <trkpt lat="43.57947" lon="-0.35401">
        <ele>215</ele>
        <time>2022-08-21T12:24:04Z</time>
      </trkpt>
      <trkpt lat="43.57937" lon="-0.35423">
        <ele>216</ele>
        <time>2022-08-21T12:24:19Z</time>
      </trkpt>
      <trkpt lat="43.57906" lon="-0.35453">
        <ele>218</ele>
        <time>2022-08-21T12:24:47Z</time>
      </trkpt>
      <trkpt lat="43.57897" lon="-0.35459">
        <ele>219</ele>
        <time>2022-08-21T12:24:55Z</time>
      </trkpt>
      <trkpt lat="43.57883" lon="-0.35478">
        <ele>219</ele>
        <time>2022-08-21T12:25:10Z</time>
      </trkpt>
      <trkpt lat="43.57867" lon="-0.35494">
        <ele>219</ele>
        <time>2022-08-21T12:25:26Z</time>
      </trkpt>
      <trkpt lat="43.5784" lon="-0.3553">
        <ele>219</ele>
        <time>2022-08-21T12:25:57Z</time>
      </trkpt>
      <trkpt lat="43.57828" lon="-0.35553">
        <ele>219</ele>
        <time>2022-08-21T12:26:13Z</time>
      </trkpt>
      <trkpt lat="43.5783" lon="-0.35593">
        <ele>219</ele>
        <time>2022-08-21T12:26:33Z</time>
      </trkpt>
      <trkpt lat="43.5784" lon="-0.35645">
        <ele>220</ele>
        <time>2022-08-21T12:27:08Z</time>
      </trkpt>
      <trkpt lat="43.57849" lon="-0.35698">
        <ele>220</ele>
        <time>2022-08-21T12:27:42Z</time>
      </trkpt>
      <trkpt lat="43.57852" lon="-0.35748">
        <ele>222</ele>
        <time>2022-08-21T12:28:14Z</time>
      </trkpt>
      <trkpt lat="43.57858" lon="-0.358">
        <ele>223</ele>
        <time>2022-08-21T12:28:45Z</time>
      </trkpt>
      <trkpt lat="43.57873" lon="-0.3585">
        <ele>225</ele>
        <time>2022-08-21T12:29:17Z</time>
      </trkpt>
      <trkpt lat="43.57882" lon="-0.35902">
        <ele>226</ele>
        <time>2022-08-21T12:29:55Z</time>
      </trkpt>
      <trkpt lat="43.57897" lon="-0.35954">
        <ele>228</ele>
        <time>2022-08-21T12:30:26Z</time>
      </trkpt>
      <trkpt lat="43.57915" lon="-0.36015">
        <ele>229</ele>
        <time>2022-08-21T12:31:03Z</time>
      </trkpt>
      <trkpt lat="43.5793" lon="-0.36063">
        <ele>230</ele>
        <time>2022-08-21T12:31:36Z</time>
      </trkpt>
      <trkpt lat="43.57934" lon="-0.36075">
        <ele>231</ele>
        <time>2022-08-21T12:31:44Z</time>
      </trkpt>
      <trkpt lat="43.57933" lon="-0.36129">
        <ele>232</ele>
        <time>2022-08-21T12:32:14Z</time>
      </trkpt>
      <trkpt lat="43.5793" lon="-0.36169">
        <ele>233</ele>
        <time>2022-08-21T12:32:44Z</time>
      </trkpt>
      <trkpt lat="43.57923" lon="-0.36204">
        <ele>233</ele>
        <time>2022-08-21T12:33:32Z</time>
      </trkpt>
      <trkpt lat="43.57917" lon="-0.36215">
        <ele>233</ele>
        <time>2022-08-21T12:33:40Z</time>
      </trkpt>
      <trkpt lat="43.57914" lon="-0.36228">
        <ele>233</ele>
        <time>2022-08-21T12:33:48Z</time>
      </trkpt>
      <trkpt lat="43.579" lon="-0.36248">
        <ele>233</ele>
        <time>2022-08-21T12:34:05Z</time>
      </trkpt>
      <trkpt lat="43.57884" lon="-0.36282">
        <ele>233</ele>
        <time>2022-08-21T12:34:28Z</time>
      </trkpt>
      <trkpt lat="43.57871" lon="-0.36333">
        <ele>233</ele>
        <time>2022-08-21T12:34:58Z</time>
      </trkpt>
      <trkpt lat="43.57858" lon="-0.36368">
        <ele>233</ele>
        <time>2022-08-21T12:35:21Z</time>
      </trkpt>
      <trkpt lat="43.5785" lon="-0.36376">
        <ele>233</ele>
        <time>2022-08-21T12:35:30Z</time>
      </trkpt>
      <trkpt lat="43.57841" lon="-0.36382">
        <ele>233</ele>
        <time>2022-08-21T12:35:39Z</time>
      </trkpt>
      <trkpt lat="43.57821" lon="-0.3638">
        <ele>232</ele>
        <time>2022-08-21T12:35:56Z</time>
      </trkpt>
      <trkpt lat="43.57774" lon="-0.36364">
        <ele>231</ele>
        <time>2022-08-21T12:36:33Z</time>
      </trkpt>
      <trkpt lat="43.57766" lon="-0.36359">
        <ele>231</ele>
        <time>2022-08-21T12:36:40Z</time>
      </trkpt>
      <trkpt lat="43.57737" lon="-0.36361">
        <ele>230</ele>
        <time>2022-08-21T12:37:00Z</time>
      </trkpt>
      <trkpt lat="43.57729" lon="-0.36366">
        <ele>230</ele>
        <time>2022-08-21T12:37:08Z</time>
      </trkpt>
      <trkpt lat="43.57698" lon="-0.36401">
        <ele>229</ele>
        <time>2022-08-21T12:37:39Z</time>
      </trkpt>
      <trkpt lat="43.57691" lon="-0.3641">
        <ele>229</ele>
        <time>2022-08-21T12:37:45Z</time>
      </trkpt>
      <trkpt lat="43.57683" lon="-0.36415">
        <ele>229</ele>
        <time>2022-08-21T12:37:52Z</time>
      </trkpt>
      <trkpt lat="43.57651" lon="-0.36449">
        <ele>230</ele>
        <time>2022-08-21T12:38:23Z</time>
      </trkpt>
      <trkpt lat="43.57627" lon="-0.36469">
        <ele>231</ele>
        <time>2022-08-21T12:38:45Z</time>
      </trkpt>
      <trkpt lat="43.57607" lon="-0.36497">
        <ele>231</ele>
        <time>2022-08-21T12:39:04Z</time>
      </trkpt>
      <trkpt lat="43.57591" lon="-0.3653">
        <ele>232</ele>
        <time>2022-08-21T12:39:26Z</time>
      </trkpt>
      <trkpt lat="43.57572" lon="-0.36591">
        <ele>233</ele>
        <time>2022-08-21T12:40:01Z</time>
      </trkpt>
      <trkpt lat="43.57568" lon="-0.36604">
        <ele>233</ele>
        <time>2022-08-21T12:40:08Z</time>
      </trkpt>
      <trkpt lat="43.57566" lon="-0.36657">
        <ele>234</ele>
        <time>2022-08-21T12:40:38Z</time>
      </trkpt>
      <trkpt lat="43.57566" lon="-0.36712">
        <ele>236</ele>
        <time>2022-08-21T12:41:08Z</time>
      </trkpt>
      <trkpt lat="43.57566" lon="-0.36725">
        <ele>236</ele>
        <time>2022-08-21T12:41:15Z</time>
      </trkpt>
      <trkpt lat="43.57559" lon="-0.36777">
        <ele>237</ele>
        <time>2022-08-21T12:41:45Z</time>
      </trkpt>
      <trkpt lat="43.57554" lon="-0.36803">
        <ele>238</ele>
        <time>2022-08-21T12:42:00Z</time>
      </trkpt>
      <trkpt lat="43.57535" lon="-0.3685">
        <ele>239</ele>
        <time>2022-08-21T12:42:28Z</time>
      </trkpt>
      <trkpt lat="43.57527" lon="-0.36875">
        <ele>240</ele>
        <time>2022-08-21T12:42:43Z</time>
      </trkpt>
      <trkpt lat="43.57501" lon="-0.36931">
        <ele>241</ele>
        <time>2022-08-21T12:43:20Z</time>
      </trkpt>
      <trkpt lat="43.57497" lon="-0.36943">
        <ele>242</ele>
        <time>2022-08-21T12:43:27Z</time>
      </trkpt>
      <trkpt lat="43.5748" lon="-0.36977">
        <ele>243</ele>
        <time>2022-08-21T12:43:49Z</time>
      </trkpt>
      <trkpt lat="43.5747" lon="-0.37001">
        <ele>243</ele>
        <time>2022-08-21T12:44:05Z</time>
      </trkpt>
      <trkpt lat="43.57455" lon="-0.37034">
        <ele>244</ele>
        <time>2022-08-21T12:44:26Z</time>
      </trkpt>
      <trkpt lat="43.57451" lon="-0.37046">
        <ele>244</ele>
        <time>2022-08-21T12:44:34Z</time>
      </trkpt>
      <trkpt lat="43.5743" lon="-0.3709">
        <ele>244</ele>
        <time>2022-08-21T12:45:05Z</time>
      </trkpt>
      <trkpt lat="43.57425" lon="-0.37102">
        <ele>244</ele>
        <time>2022-08-21T12:45:16Z</time>
      </trkpt>
      <trkpt lat="43.57418" lon="-0.37154">
        <ele>244</ele>
        <time>2022-08-21T12:45:57Z</time>
      </trkpt>
      <trkpt lat="43.5741" lon="-0.37205">
        <ele>244</ele>
        <time>2022-08-21T12:46:28Z</time>
      </trkpt>
      <trkpt lat="43.57409" lon="-0.37219">
        <ele>244</ele>
        <time>2022-08-21T12:46:36Z</time>
      </trkpt>
      <trkpt lat="43.5741" lon="-0.37232">
        <ele>244</ele>
        <time>2022-08-21T12:46:50Z</time>
      </trkpt>
      <trkpt lat="43.57408" lon="-0.37255">
        <ele>244</ele>
        <time>2022-08-21T12:48:06Z</time>
      </trkpt>
      <trkpt lat="43.57403" lon="-0.37281">
        <ele>244</ele>
        <time>2022-08-21T12:48:20Z</time>
      </trkpt>
      <trkpt lat="43.5741" lon="-0.37318">
        <ele>244</ele>
        <time>2022-08-21T12:48:44Z</time>
      </trkpt>
      <trkpt lat="43.57417" lon="-0.37337">
        <ele>244</ele>
        <time>2022-08-21T12:50:14Z</time>
      </trkpt>
      <trkpt lat="43.57421" lon="-0.37348">
        <ele>243</ele>
        <time>2022-08-21T12:50:23Z</time>
      </trkpt>
      <trkpt lat="43.57436" lon="-0.37398">
        <ele>243</ele>
        <time>2022-08-21T12:50:58Z</time>
      </trkpt>
      <trkpt lat="43.57441" lon="-0.37409">
        <ele>242</ele>
        <time>2022-08-21T12:51:07Z</time>
      </trkpt>
      <trkpt lat="43.57444" lon="-0.37422">
        <ele>242</ele>
        <time>2022-08-21T12:51:15Z</time>
      </trkpt>
      <trkpt lat="43.57453" lon="-0.37444">
        <ele>242</ele>
        <time>2022-08-21T12:51:39Z</time>
      </trkpt>
      <trkpt lat="43.57454" lon="-0.37458">
        <ele>242</ele>
        <time>2022-08-21T12:51:50Z</time>
      </trkpt>
      <trkpt lat="43.5745" lon="-0.3747">
        <ele>242</ele>
        <time>2022-08-21T12:51:59Z</time>
      </trkpt>
      <trkpt lat="43.57463" lon="-0.3749">
        <ele>241</ele>
        <time>2022-08-21T12:52:22Z</time>
      </trkpt>
      <trkpt lat="43.57476" lon="-0.37539">
        <ele>242</ele>
        <time>2022-08-21T12:52:55Z</time>
      </trkpt>
      <trkpt lat="43.57477" lon="-0.37551">
        <ele>242</ele>
        <time>2022-08-21T12:53:07Z</time>
      </trkpt>
      <trkpt lat="43.57482" lon="-0.37563">
        <ele>242</ele>
        <time>2022-08-21T12:53:17Z</time>
      </trkpt>
      <trkpt lat="43.57491" lon="-0.37568">
        <ele>242</ele>
        <time>2022-08-21T12:53:27Z</time>
      </trkpt>
      <trkpt lat="43.57498" lon="-0.37575">
        <ele>242</ele>
        <time>2022-08-21T12:53:37Z</time>
      </trkpt>
      <trkpt lat="43.57497" lon="-0.3757">
        <ele>243</ele>
        <time>2022-08-21T13:39:45Z</time>
      </trkpt>
      <trkpt lat="43.57489" lon="-0.37563">
        <ele>243</ele>
        <time>2022-08-21T13:40:00Z</time>
      </trkpt>
      <trkpt lat="43.57483" lon="-0.37553">
        <ele>243</ele>
        <time>2022-08-21T13:40:08Z</time>
      </trkpt>
      <trkpt lat="43.5747" lon="-0.37517">
        <ele>244</ele>
        <time>2022-08-21T13:40:34Z</time>
      </trkpt>
      <trkpt lat="43.57469" lon="-0.37491">
        <ele>244</ele>
        <time>2022-08-21T13:40:50Z</time>
      </trkpt>
      <trkpt lat="43.57461" lon="-0.37453">
        <ele>244</ele>
        <time>2022-08-21T13:41:15Z</time>
      </trkpt>
      <trkpt lat="43.57447" lon="-0.37404">
        <ele>243</ele>
        <time>2022-08-21T13:41:48Z</time>
      </trkpt>
      <trkpt lat="43.57428" lon="-0.37357">
        <ele>241</ele>
        <time>2022-08-21T13:42:18Z</time>
      </trkpt>
      <trkpt lat="43.57421" lon="-0.37332">
        <ele>241</ele>
        <time>2022-08-21T13:42:35Z</time>
      </trkpt>
      <trkpt lat="43.57406" lon="-0.37298">
        <ele>240</ele>
        <time>2022-08-21T13:42:59Z</time>
      </trkpt>
      <trkpt lat="43.57391" lon="-0.37282">
        <ele>239</ele>
        <time>2022-08-21T13:43:16Z</time>
      </trkpt>
      <trkpt lat="43.57385" lon="-0.37271">
        <ele>239</ele>
        <time>2022-08-21T13:43:24Z</time>
      </trkpt>
      <trkpt lat="43.57369" lon="-0.37256">
        <ele>238</ele>
        <time>2022-08-21T13:43:40Z</time>
      </trkpt>
      <trkpt lat="43.57362" lon="-0.37246">
        <ele>237</ele>
        <time>2022-08-21T13:43:48Z</time>
      </trkpt>
      <trkpt lat="43.57352" lon="-0.37224">
        <ele>235</ele>
        <time>2022-08-21T13:44:03Z</time>
      </trkpt>
      <trkpt lat="43.5734" lon="-0.37171">
        <ele>232</ele>
        <time>2022-08-21T13:44:35Z</time>
      </trkpt>
      <trkpt lat="43.57327" lon="-0.37151">
        <ele>230</ele>
        <time>2022-08-21T13:44:51Z</time>
      </trkpt>
      <trkpt lat="43.57323" lon="-0.37139">
        <ele>230</ele>
        <time>2022-08-21T13:44:57Z</time>
      </trkpt>
      <trkpt lat="43.57316" lon="-0.3713">
        <ele>229</ele>
        <time>2022-08-21T13:45:06Z</time>
      </trkpt>
      <trkpt lat="43.57298" lon="-0.37083">
        <ele>226</ele>
        <time>2022-08-21T13:45:36Z</time>
      </trkpt>
      <trkpt lat="43.57289" lon="-0.37061">
        <ele>224</ele>
        <time>2022-08-21T13:45:51Z</time>
      </trkpt>
      <trkpt lat="43.57282" lon="-0.37051">
        <ele>223</ele>
        <time>2022-08-21T13:45:58Z</time>
      </trkpt>
      <trkpt lat="43.5728" lon="-0.37064">
        <ele>222</ele>
        <time>2022-08-21T13:46:07Z</time>
      </trkpt>
      <trkpt lat="43.57291" lon="-0.37115">
        <ele>217</ele>
        <time>2022-08-21T13:46:37Z</time>
      </trkpt>
      <trkpt lat="43.57289" lon="-0.37168">
        <ele>211</ele>
        <time>2022-08-21T13:47:04Z</time>
      </trkpt>
      <trkpt lat="43.57283" lon="-0.37192">
        <ele>209</ele>
        <time>2022-08-21T13:47:19Z</time>
      </trkpt>
      <trkpt lat="43.57282" lon="-0.37204">
        <ele>208</ele>
        <time>2022-08-21T13:47:27Z</time>
      </trkpt>
      <trkpt lat="43.5729" lon="-0.37256">
        <ele>202</ele>
        <time>2022-08-21T13:47:57Z</time>
      </trkpt>
      <trkpt lat="43.57293" lon="-0.37269">
        <ele>201</ele>
        <time>2022-08-21T13:48:04Z</time>
      </trkpt>
      <trkpt lat="43.5729" lon="-0.3731">
        <ele>197</ele>
        <time>2022-08-21T13:48:30Z</time>
      </trkpt>
      <trkpt lat="43.57272" lon="-0.37355">
        <ele>190</ele>
        <time>2022-08-21T13:49:03Z</time>
      </trkpt>
      <trkpt lat="43.5726" lon="-0.37375">
        <ele>187</ele>
        <time>2022-08-21T13:49:23Z</time>
      </trkpt>
      <trkpt lat="43.57253" lon="-0.374">
        <ele>184</ele>
        <time>2022-08-21T13:49:40Z</time>
      </trkpt>
      <trkpt lat="43.57257" lon="-0.37453">
        <ele>178</ele>
        <time>2022-08-21T13:50:13Z</time>
      </trkpt>
      <trkpt lat="43.57253" lon="-0.37465">
        <ele>176</ele>
        <time>2022-08-21T13:50:22Z</time>
      </trkpt>
      <trkpt lat="43.57245" lon="-0.37474">
        <ele>174</ele>
        <time>2022-08-21T13:50:31Z</time>
      </trkpt>
      <trkpt lat="43.57208" lon="-0.37493">
        <ele>168</ele>
        <time>2022-08-21T13:51:04Z</time>
      </trkpt>
      <trkpt lat="43.5718" lon="-0.37502">
        <ele>167</ele>
        <time>2022-08-21T13:51:27Z</time>
      </trkpt>
      <trkpt lat="43.5715" lon="-0.37503">
        <ele>165</ele>
        <time>2022-08-21T13:51:53Z</time>
      </trkpt>
      <trkpt lat="43.57122" lon="-0.37537">
        <ele>163</ele>
        <time>2022-08-21T13:52:25Z</time>
      </trkpt>
      <trkpt lat="43.57108" lon="-0.37553">
        <ele>162</ele>
        <time>2022-08-21T13:52:40Z</time>
      </trkpt>
      <trkpt lat="43.57074" lon="-0.3758">
        <ele>160</ele>
        <time>2022-08-21T13:53:10Z</time>
      </trkpt>
      <trkpt lat="43.57057" lon="-0.37593">
        <ele>159</ele>
        <time>2022-08-21T13:53:25Z</time>
      </trkpt>
      <trkpt lat="43.57021" lon="-0.3761">
        <ele>160</ele>
        <time>2022-08-21T13:53:55Z</time>
      </trkpt>
      <trkpt lat="43.56993" lon="-0.37622">
        <ele>160</ele>
        <time>2022-08-21T13:54:18Z</time>
      </trkpt>
      <trkpt lat="43.56955" lon="-0.37633">
        <ele>160</ele>
        <time>2022-08-21T13:54:51Z</time>
      </trkpt>
      <trkpt lat="43.56929" lon="-0.37646">
        <ele>160</ele>
        <time>2022-08-21T13:55:14Z</time>
      </trkpt>
      <trkpt lat="43.56895" lon="-0.37673">
        <ele>160</ele>
        <time>2022-08-21T13:55:44Z</time>
      </trkpt>
      <trkpt lat="43.56887" lon="-0.37679">
        <ele>160</ele>
        <time>2022-08-21T13:55:51Z</time>
      </trkpt>
      <trkpt lat="43.56859" lon="-0.37714">
        <ele>161</ele>
        <time>2022-08-21T13:56:22Z</time>
      </trkpt>
      <trkpt lat="43.56851" lon="-0.37721">
        <ele>161</ele>
        <time>2022-08-21T13:56:31Z</time>
      </trkpt>
      <trkpt lat="43.56845" lon="-0.37731">
        <ele>161</ele>
        <time>2022-08-21T13:56:38Z</time>
      </trkpt>
      <trkpt lat="43.56831" lon="-0.37747">
        <ele>161</ele>
        <time>2022-08-21T13:56:52Z</time>
      </trkpt>
      <trkpt lat="43.5682" lon="-0.37769">
        <ele>161</ele>
        <time>2022-08-21T13:57:08Z</time>
      </trkpt>
      <trkpt lat="43.56812" lon="-0.37806">
        <ele>162</ele>
        <time>2022-08-21T13:57:31Z</time>
      </trkpt>
      <trkpt lat="43.56798" lon="-0.37821">
        <ele>162</ele>
        <time>2022-08-21T13:57:46Z</time>
      </trkpt>
      <trkpt lat="43.56789" lon="-0.37826">
        <ele>162</ele>
        <time>2022-08-21T13:57:54Z</time>
      </trkpt>
      <trkpt lat="43.56767" lon="-0.37849">
        <ele>163</ele>
        <time>2022-08-21T13:58:16Z</time>
      </trkpt>
      <trkpt lat="43.56742" lon="-0.37866">
        <ele>163</ele>
        <time>2022-08-21T13:58:38Z</time>
      </trkpt>
      <trkpt lat="43.56702" lon="-0.37901">
        <ele>165</ele>
        <time>2022-08-21T13:59:15Z</time>
      </trkpt>
      <trkpt lat="43.56694" lon="-0.37908">
        <ele>165</ele>
        <time>2022-08-21T13:59:23Z</time>
      </trkpt>
      <trkpt lat="43.56685" lon="-0.37911">
        <ele>165</ele>
        <time>2022-08-21T13:59:31Z</time>
      </trkpt>
      <trkpt lat="43.56643" lon="-0.37941">
        <ele>166</ele>
        <time>2022-08-21T14:00:07Z</time>
      </trkpt>
      <trkpt lat="43.56624" lon="-0.37964">
        <ele>167</ele>
        <time>2022-08-21T14:01:03Z</time>
      </trkpt>
      <trkpt lat="43.56606" lon="-0.37973">
        <ele>167</ele>
        <time>2022-08-21T14:01:19Z</time>
      </trkpt>
      <trkpt lat="43.56567" lon="-0.37977">
        <ele>168</ele>
        <time>2022-08-21T14:01:50Z</time>
      </trkpt>
      <trkpt lat="43.56529" lon="-0.37985">
        <ele>168</ele>
        <time>2022-08-21T14:02:21Z</time>
      </trkpt>
      <trkpt lat="43.56503" lon="-0.38001">
        <ele>169</ele>
        <time>2022-08-21T14:02:53Z</time>
      </trkpt>
      <trkpt lat="43.56474" lon="-0.38034">
        <ele>169</ele>
        <time>2022-08-21T14:03:27Z</time>
      </trkpt>
      <trkpt lat="43.56439" lon="-0.38056">
        <ele>170</ele>
        <time>2022-08-21T14:03:58Z</time>
      </trkpt>
      <trkpt lat="43.56415" lon="-0.38071">
        <ele>171</ele>
        <time>2022-08-21T14:04:40Z</time>
      </trkpt>
      <trkpt lat="43.56397" lon="-0.38081">
        <ele>172</ele>
        <time>2022-08-21T14:04:56Z</time>
      </trkpt>
      <trkpt lat="43.5638" lon="-0.38096">
        <ele>173</ele>
        <time>2022-08-21T14:05:15Z</time>
      </trkpt>
      <trkpt lat="43.56346" lon="-0.38114">
        <ele>174</ele>
        <time>2022-08-21T14:05:46Z</time>
      </trkpt>
      <trkpt lat="43.5631" lon="-0.38137">
        <ele>175</ele>
        <time>2022-08-21T14:06:20Z</time>
      </trkpt>
      <trkpt lat="43.563" lon="-0.3814">
        <ele>176</ele>
        <time>2022-08-21T14:06:28Z</time>
      </trkpt>
      <trkpt lat="43.56267" lon="-0.38169">
        <ele>177</ele>
        <time>2022-08-21T14:07:00Z</time>
      </trkpt>
      <trkpt lat="43.5625" lon="-0.38181">
        <ele>178</ele>
        <time>2022-08-21T14:07:15Z</time>
      </trkpt>
      <trkpt lat="43.56221" lon="-0.38219">
        <ele>180</ele>
        <time>2022-08-21T14:07:48Z</time>
      </trkpt>
      <trkpt lat="43.56191" lon="-0.3825">
        <ele>181</ele>
        <time>2022-08-21T14:08:20Z</time>
      </trkpt>
      <trkpt lat="43.56161" lon="-0.38281">
        <ele>183</ele>
        <time>2022-08-21T14:08:51Z</time>
      </trkpt>
      <trkpt lat="43.5613" lon="-0.3831">
        <ele>185</ele>
        <time>2022-08-21T14:09:23Z</time>
      </trkpt>
      <trkpt lat="43.56095" lon="-0.38335">
        <ele>189</ele>
        <time>2022-08-21T14:10:01Z</time>
      </trkpt>
      <trkpt lat="43.56077" lon="-0.38345">
        <ele>191</ele>
        <time>2022-08-21T14:10:22Z</time>
      </trkpt>
      <trkpt lat="43.56059" lon="-0.3835">
        <ele>192</ele>
        <time>2022-08-21T14:10:40Z</time>
      </trkpt>
      <trkpt lat="43.5605" lon="-0.38355">
        <ele>193</ele>
        <time>2022-08-21T14:10:49Z</time>
      </trkpt>
      <trkpt lat="43.56027" lon="-0.38379">
        <ele>196</ele>
        <time>2022-08-21T14:11:21Z</time>
      </trkpt>
      <trkpt lat="43.5602" lon="-0.38389">
        <ele>197</ele>
        <time>2022-08-21T14:11:32Z</time>
      </trkpt>
      <trkpt lat="43.56012" lon="-0.38395">
        <ele>198</ele>
        <time>2022-08-21T14:11:42Z</time>
      </trkpt>
      <trkpt lat="43.55998" lon="-0.38413">
        <ele>200</ele>
        <time>2022-08-21T14:11:59Z</time>
      </trkpt>
      <trkpt lat="43.55981" lon="-0.38424">
        <ele>202</ele>
        <time>2022-08-21T14:12:17Z</time>
      </trkpt>
      <trkpt lat="43.55969" lon="-0.38444">
        <ele>204</ele>
        <time>2022-08-21T14:12:43Z</time>
      </trkpt>
      <trkpt lat="43.55945" lon="-0.38466">
        <ele>207</ele>
        <time>2022-08-21T14:13:08Z</time>
      </trkpt>
      <trkpt lat="43.55926" lon="-0.38496">
        <ele>210</ele>
        <time>2022-08-21T14:13:41Z</time>
      </trkpt>
      <trkpt lat="43.55917" lon="-0.38503">
        <ele>211</ele>
        <time>2022-08-21T14:13:53Z</time>
      </trkpt>
      <trkpt lat="43.5591" lon="-0.38511">
        <ele>212</ele>
        <time>2022-08-21T14:14:04Z</time>
      </trkpt>
      <trkpt lat="43.55907" lon="-0.38523">
        <ele>214</ele>
        <time>2022-08-21T14:14:17Z</time>
      </trkpt>
      <trkpt lat="43.55885" lon="-0.38555">
        <ele>217</ele>
        <time>2022-08-21T14:15:09Z</time>
      </trkpt>
      <trkpt lat="43.55871" lon="-0.38573">
        <ele>219</ele>
        <time>2022-08-21T14:15:25Z</time>
      </trkpt>
      <trkpt lat="43.55858" lon="-0.38594">
        <ele>221</ele>
        <time>2022-08-21T14:15:41Z</time>
      </trkpt>
      <trkpt lat="43.55829" lon="-0.3863">
        <ele>223</ele>
        <time>2022-08-21T14:16:13Z</time>
      </trkpt>
      <trkpt lat="43.55817" lon="-0.38649">
        <ele>224</ele>
        <time>2022-08-21T14:16:29Z</time>
      </trkpt>
      <trkpt lat="43.55814" lon="-0.38661">
        <ele>224</ele>
        <time>2022-08-21T14:16:38Z</time>
      </trkpt>
      <trkpt lat="43.55806" lon="-0.38668">
        <ele>224</ele>
        <time>2022-08-21T14:16:54Z</time>
      </trkpt>
      <trkpt lat="43.5577" lon="-0.38685">
        <ele>226</ele>
        <time>2022-08-21T14:17:22Z</time>
      </trkpt>
      <trkpt lat="43.55761" lon="-0.38691">
        <ele>226</ele>
        <time>2022-08-21T14:17:31Z</time>
      </trkpt>
      <trkpt lat="43.55743" lon="-0.38697">
        <ele>227</ele>
        <time>2022-08-21T14:17:45Z</time>
      </trkpt>
      <trkpt lat="43.55709" lon="-0.38716">
        <ele>229</ele>
        <time>2022-08-21T14:18:16Z</time>
      </trkpt>
      <trkpt lat="43.55671" lon="-0.38734">
        <ele>229</ele>
        <time>2022-08-21T14:18:47Z</time>
      </trkpt>
      <trkpt lat="43.55663" lon="-0.3874">
        <ele>229</ele>
        <time>2022-08-21T14:18:55Z</time>
      </trkpt>
      <trkpt lat="43.55636" lon="-0.38752">
        <ele>230</ele>
        <time>2022-08-21T14:19:19Z</time>
      </trkpt>
      <trkpt lat="43.55609" lon="-0.38768">
        <ele>230</ele>
        <time>2022-08-21T14:19:46Z</time>
      </trkpt>
      <trkpt lat="43.5559" lon="-0.38775">
        <ele>231</ele>
        <time>2022-08-21T14:20:04Z</time>
      </trkpt>
      <trkpt lat="43.55594" lon="-0.38762">
        <ele>231</ele>
        <time>2022-08-21T14:20:37Z</time>
      </trkpt>
      <trkpt lat="43.5558" lon="-0.38715">
        <ele>231</ele>
        <time>2022-08-21T14:21:08Z</time>
      </trkpt>
      <trkpt lat="43.55581" lon="-0.38733">
        <ele>231</ele>
        <time>2022-08-21T14:21:37Z</time>
      </trkpt>
      <trkpt lat="43.5559" lon="-0.38771">
        <ele>231</ele>
        <time>2022-08-21T14:22:02Z</time>
      </trkpt>
      <trkpt lat="43.55582" lon="-0.38779">
        <ele>231</ele>
        <time>2022-08-21T14:22:14Z</time>
      </trkpt>
      <trkpt lat="43.55582" lon="-0.38765">
        <ele>231</ele>
        <time>2022-08-21T14:22:42Z</time>
      </trkpt>
      <trkpt lat="43.55581" lon="-0.38775">
        <ele>231</ele>
        <time>2022-08-21T14:23:57Z</time>
      </trkpt>
      <trkpt lat="43.55574" lon="-0.38785">
        <ele>231</ele>
        <time>2022-08-21T14:24:19Z</time>
      </trkpt>
      <trkpt lat="43.55546" lon="-0.38801">
        <ele>231</ele>
        <time>2022-08-21T14:24:42Z</time>
      </trkpt>
      <trkpt lat="43.55509" lon="-0.38816">
        <ele>231</ele>
        <time>2022-08-21T14:25:13Z</time>
      </trkpt>
      <trkpt lat="43.55482" lon="-0.38827">
        <ele>231</ele>
        <time>2022-08-21T14:25:35Z</time>
      </trkpt>
      <trkpt lat="43.55446" lon="-0.38852">
        <ele>231</ele>
        <time>2022-08-21T14:26:08Z</time>
      </trkpt>
      <trkpt lat="43.5541" lon="-0.3887">
        <ele>232</ele>
        <time>2022-08-21T14:26:38Z</time>
      </trkpt>
      <trkpt lat="43.55384" lon="-0.38887">
        <ele>232</ele>
        <time>2022-08-21T14:27:02Z</time>
      </trkpt>
      <trkpt lat="43.55374" lon="-0.38889">
        <ele>232</ele>
        <time>2022-08-21T14:27:10Z</time>
      </trkpt>
      <trkpt lat="43.55339" lon="-0.38908">
        <ele>232</ele>
        <time>2022-08-21T14:27:41Z</time>
      </trkpt>
      <trkpt lat="43.55331" lon="-0.38914">
        <ele>232</ele>
        <time>2022-08-21T14:27:49Z</time>
      </trkpt>
      <trkpt lat="43.55286" lon="-0.38936">
        <ele>232</ele>
        <time>2022-08-21T14:28:27Z</time>
      </trkpt>
      <trkpt lat="43.55248" lon="-0.38951">
        <ele>232</ele>
        <time>2022-08-21T14:28:57Z</time>
      </trkpt>
      <trkpt lat="43.5524" lon="-0.38955">
        <ele>232</ele>
        <time>2022-08-21T14:29:05Z</time>
      </trkpt>
      <trkpt lat="43.55223" lon="-0.38966">
        <ele>232</ele>
        <time>2022-08-21T14:29:19Z</time>
      </trkpt>
      <trkpt lat="43.55185" lon="-0.38985">
        <ele>232</ele>
        <time>2022-08-21T14:29:52Z</time>
      </trkpt>
      <trkpt lat="43.55169" lon="-0.38999">
        <ele>232</ele>
        <time>2022-08-21T14:30:07Z</time>
      </trkpt>
      <trkpt lat="43.5514" lon="-0.39036">
        <ele>233</ele>
        <time>2022-08-21T14:30:38Z</time>
      </trkpt>
      <trkpt lat="43.55133" lon="-0.39044">
        <ele>233</ele>
        <time>2022-08-21T14:30:46Z</time>
      </trkpt>
      <trkpt lat="43.55119" lon="-0.39066">
        <ele>233</ele>
        <time>2022-08-21T14:31:03Z</time>
      </trkpt>
      <trkpt lat="43.55103" lon="-0.3908">
        <ele>233</ele>
        <time>2022-08-21T14:31:20Z</time>
      </trkpt>
      <trkpt lat="43.55099" lon="-0.39091">
        <ele>233</ele>
        <time>2022-08-21T14:31:27Z</time>
      </trkpt>
      <trkpt lat="43.55094" lon="-0.39102">
        <ele>233</ele>
        <time>2022-08-21T14:31:34Z</time>
      </trkpt>
      <trkpt lat="43.55086" lon="-0.39109">
        <ele>233</ele>
        <time>2022-08-21T14:31:40Z</time>
      </trkpt>
      <trkpt lat="43.55061" lon="-0.39152">
        <ele>234</ele>
        <time>2022-08-21T14:32:13Z</time>
      </trkpt>
      <trkpt lat="43.5504" lon="-0.3918">
        <ele>234</ele>
        <time>2022-08-21T14:32:37Z</time>
      </trkpt>
      <trkpt lat="43.55014" lon="-0.39215">
        <ele>234</ele>
        <time>2022-08-21T14:33:10Z</time>
      </trkpt>
      <trkpt lat="43.54999" lon="-0.39231">
        <ele>234</ele>
        <time>2022-08-21T14:33:26Z</time>
      </trkpt>
      <trkpt lat="43.54972" lon="-0.39267">
        <ele>235</ele>
        <time>2022-08-21T14:33:57Z</time>
      </trkpt>
      <trkpt lat="43.54946" lon="-0.39304">
        <ele>235</ele>
        <time>2022-08-21T14:34:27Z</time>
      </trkpt>
      <trkpt lat="43.54919" lon="-0.39342">
        <ele>235</ele>
        <time>2022-08-21T14:35:01Z</time>
      </trkpt>
      <trkpt lat="43.54891" lon="-0.39379">
        <ele>235</ele>
        <time>2022-08-21T14:35:34Z</time>
      </trkpt>
      <trkpt lat="43.54864" lon="-0.39413">
        <ele>235</ele>
        <time>2022-08-21T14:36:06Z</time>
      </trkpt>
      <trkpt lat="43.54838" lon="-0.39449">
        <ele>235</ele>
        <time>2022-08-21T14:36:38Z</time>
      </trkpt>
      <trkpt lat="43.5481" lon="-0.39489">
        <ele>235</ele>
        <time>2022-08-21T14:37:11Z</time>
      </trkpt>
      <trkpt lat="43.54783" lon="-0.39526">
        <ele>234</ele>
        <time>2022-08-21T14:37:42Z</time>
      </trkpt>
      <trkpt lat="43.54756" lon="-0.39563">
        <ele>234</ele>
        <time>2022-08-21T14:38:13Z</time>
      </trkpt>
      <trkpt lat="43.54729" lon="-0.39601">
        <ele>234</ele>
        <time>2022-08-21T14:38:45Z</time>
      </trkpt>
      <trkpt lat="43.54701" lon="-0.39638">
        <ele>234</ele>
        <time>2022-08-21T14:39:17Z</time>
      </trkpt>
      <trkpt lat="43.54671" lon="-0.39675">
        <ele>234</ele>
        <time>2022-08-21T14:39:51Z</time>
      </trkpt>
      <trkpt lat="43.54643" lon="-0.39713">
        <ele>233</ele>
        <time>2022-08-21T14:40:23Z</time>
      </trkpt>
      <trkpt lat="43.54629" lon="-0.3973">
        <ele>232</ele>
        <time>2022-08-21T14:40:38Z</time>
      </trkpt>
      <trkpt lat="43.54602" lon="-0.39771">
        <ele>231</ele>
        <time>2022-08-21T14:41:11Z</time>
      </trkpt>
      <trkpt lat="43.54589" lon="-0.39792">
        <ele>230</ele>
        <time>2022-08-21T14:41:28Z</time>
      </trkpt>
      <trkpt lat="43.5456" lon="-0.39826">
        <ele>228</ele>
        <time>2022-08-21T14:42:02Z</time>
      </trkpt>
      <trkpt lat="43.5454" lon="-0.39855">
        <ele>227</ele>
        <time>2022-08-21T14:42:31Z</time>
      </trkpt>
      <trkpt lat="43.54523" lon="-0.39902">
        <ele>228</ele>
        <time>2022-08-21T14:43:03Z</time>
      </trkpt>
      <trkpt lat="43.54505" lon="-0.39934">
        <ele>228</ele>
        <time>2022-08-21T14:43:28Z</time>
      </trkpt>
      <trkpt lat="43.54498" lon="-0.39941">
        <ele>229</ele>
        <time>2022-08-21T14:43:36Z</time>
      </trkpt>
      <trkpt lat="43.54491" lon="-0.39951">
        <ele>229</ele>
        <time>2022-08-21T14:43:45Z</time>
      </trkpt>
      <trkpt lat="43.54489" lon="-0.39965">
        <ele>229</ele>
        <time>2022-08-21T14:43:53Z</time>
      </trkpt>
      <trkpt lat="43.54464" lon="-0.40008">
        <ele>230</ele>
        <time>2022-08-21T14:44:26Z</time>
      </trkpt>
      <trkpt lat="43.54439" lon="-0.40047">
        <ele>230</ele>
        <time>2022-08-21T14:44:58Z</time>
      </trkpt>
      <trkpt lat="43.54414" lon="-0.40088">
        <ele>231</ele>
        <time>2022-08-21T14:45:31Z</time>
      </trkpt>
      <trkpt lat="43.54405" lon="-0.40094">
        <ele>232</ele>
        <time>2022-08-21T14:45:54Z</time>
      </trkpt>
      <trkpt lat="43.54374" lon="-0.40143">
        <ele>233</ele>
        <time>2022-08-21T14:46:38Z</time>
      </trkpt>
      <trkpt lat="43.54348" lon="-0.40182">
        <ele>234</ele>
        <time>2022-08-21T14:47:13Z</time>
      </trkpt>
      <trkpt lat="43.54315" lon="-0.40231">
        <ele>236</ele>
        <time>2022-08-21T14:47:50Z</time>
      </trkpt>
      <trkpt lat="43.54287" lon="-0.40268">
        <ele>237</ele>
        <time>2022-08-21T14:48:20Z</time>
      </trkpt>
      <trkpt lat="43.5426" lon="-0.40305">
        <ele>237</ele>
        <time>2022-08-21T14:48:50Z</time>
      </trkpt>
      <trkpt lat="43.54238" lon="-0.4033">
        <ele>238</ele>
        <time>2022-08-21T14:49:12Z</time>
      </trkpt>
      <trkpt lat="43.54213" lon="-0.40355">
        <ele>238</ele>
        <time>2022-08-21T14:49:44Z</time>
      </trkpt>
      <trkpt lat="43.54174" lon="-0.40394">
        <ele>239</ele>
        <time>2022-08-21T14:50:20Z</time>
      </trkpt>
      <trkpt lat="43.54143" lon="-0.40425">
        <ele>240</ele>
        <time>2022-08-21T14:50:51Z</time>
      </trkpt>
      <trkpt lat="43.54135" lon="-0.40431">
        <ele>240</ele>
        <time>2022-08-21T14:50:58Z</time>
      </trkpt>
      <trkpt lat="43.54104" lon="-0.40462">
        <ele>241</ele>
        <time>2022-08-21T14:51:35Z</time>
      </trkpt>
      <trkpt lat="43.54096" lon="-0.40467">
        <ele>241</ele>
        <time>2022-08-21T14:51:42Z</time>
      </trkpt>
      <trkpt lat="43.54087" lon="-0.40469">
        <ele>242</ele>
        <time>2022-08-21T14:51:52Z</time>
      </trkpt>
      <trkpt lat="43.54079" lon="-0.40476">
        <ele>242</ele>
        <time>2022-08-21T14:52:07Z</time>
      </trkpt>
      <trkpt lat="43.54074" lon="-0.40488">
        <ele>242</ele>
        <time>2022-08-21T14:52:14Z</time>
      </trkpt>
      <trkpt lat="43.54067" lon="-0.40496">
        <ele>243</ele>
        <time>2022-08-21T14:52:21Z</time>
      </trkpt>
      <trkpt lat="43.5403" lon="-0.40511">
        <ele>244</ele>
        <time>2022-08-21T14:52:54Z</time>
      </trkpt>
      <trkpt lat="43.54002" lon="-0.40519">
        <ele>245</ele>
        <time>2022-08-21T14:53:20Z</time>
      </trkpt>
      <trkpt lat="43.53992" lon="-0.40513">
        <ele>246</ele>
        <time>2022-08-21T14:53:28Z</time>
      </trkpt>
      <trkpt lat="43.53982" lon="-0.40512">
        <ele>247</ele>
        <time>2022-08-21T14:53:37Z</time>
      </trkpt>
      <trkpt lat="43.53974" lon="-0.40516">
        <ele>248</ele>
        <time>2022-08-21T14:53:45Z</time>
      </trkpt>
      <trkpt lat="43.53964" lon="-0.40516">
        <ele>249</ele>
        <time>2022-08-21T14:53:55Z</time>
      </trkpt>
      <trkpt lat="43.53927" lon="-0.40509">
        <ele>252</ele>
        <time>2022-08-21T14:54:30Z</time>
      </trkpt>
      <trkpt lat="43.53918" lon="-0.40512">
        <ele>253</ele>
        <time>2022-08-21T14:54:40Z</time>
      </trkpt>
      <trkpt lat="43.53889" lon="-0.40512">
        <ele>255</ele>
        <time>2022-08-21T14:55:09Z</time>
      </trkpt>
      <trkpt lat="43.53861" lon="-0.40522">
        <ele>258</ele>
        <time>2022-08-21T14:55:44Z</time>
      </trkpt>
      <trkpt lat="43.53852" lon="-0.40525">
        <ele>258</ele>
        <time>2022-08-21T14:55:51Z</time>
      </trkpt>
      <trkpt lat="43.53842" lon="-0.40524">
        <ele>259</ele>
        <time>2022-08-21T14:55:58Z</time>
      </trkpt>
      <trkpt lat="43.53823" lon="-0.40528">
        <ele>261</ele>
        <time>2022-08-21T14:56:23Z</time>
      </trkpt>
      <trkpt lat="43.53797" lon="-0.40519">
        <ele>263</ele>
        <time>2022-08-21T14:56:46Z</time>
      </trkpt>
      <trkpt lat="43.53783" lon="-0.40502">
        <ele>265</ele>
        <time>2022-08-21T14:57:01Z</time>
      </trkpt>
      <trkpt lat="43.5375" lon="-0.40476">
        <ele>268</ele>
        <time>2022-08-21T14:57:45Z</time>
      </trkpt>
      <trkpt lat="43.53731" lon="-0.40474">
        <ele>270</ele>
        <time>2022-08-21T14:58:02Z</time>
      </trkpt>
      <trkpt lat="43.53721" lon="-0.40476">
        <ele>270</ele>
        <time>2022-08-21T14:58:10Z</time>
      </trkpt>
      <trkpt lat="43.53689" lon="-0.40507">
        <ele>274</ele>
        <time>2022-08-21T14:58:42Z</time>
      </trkpt>
      <trkpt lat="43.53683" lon="-0.40517">
        <ele>274</ele>
        <time>2022-08-21T14:58:51Z</time>
      </trkpt>
      <trkpt lat="43.53675" lon="-0.40524">
        <ele>275</ele>
        <time>2022-08-21T14:58:59Z</time>
      </trkpt>
      <trkpt lat="43.53662" lon="-0.40544">
        <ele>276</ele>
        <time>2022-08-21T14:59:18Z</time>
      </trkpt>
      <trkpt lat="43.53658" lon="-0.40556">
        <ele>276</ele>
        <time>2022-08-21T14:59:33Z</time>
      </trkpt>
      <trkpt lat="43.53648" lon="-0.40595">
        <ele>278</ele>
        <time>2022-08-21T14:59:51Z</time>
      </trkpt>
      <trkpt lat="43.53644" lon="-0.40607">
        <ele>278</ele>
        <time>2022-08-21T14:59:57Z</time>
      </trkpt>
      <trkpt lat="43.53637" lon="-0.40659">
        <ele>280</ele>
        <time>2022-08-21T15:00:35Z</time>
      </trkpt>
      <trkpt lat="43.53625" lon="-0.40708">
        <ele>281</ele>
        <time>2022-08-21T15:01:09Z</time>
      </trkpt>
      <trkpt lat="43.53619" lon="-0.40732">
        <ele>282</ele>
        <time>2022-08-21T15:01:25Z</time>
      </trkpt>
      <trkpt lat="43.53619" lon="-0.40745">
        <ele>283</ele>
        <time>2022-08-21T15:01:33Z</time>
      </trkpt>
      <trkpt lat="43.53614" lon="-0.40755">
        <ele>283</ele>
        <time>2022-08-21T15:01:43Z</time>
      </trkpt>
      <trkpt lat="43.53586" lon="-0.40766">
        <ele>283</ele>
        <time>2022-08-21T15:02:09Z</time>
      </trkpt>
      <trkpt lat="43.53548" lon="-0.40769">
        <ele>283</ele>
        <time>2022-08-21T15:02:39Z</time>
      </trkpt>
      <trkpt lat="43.53511" lon="-0.40775">
        <ele>283</ele>
        <time>2022-08-21T15:03:11Z</time>
      </trkpt>
      <trkpt lat="43.53502" lon="-0.40777">
        <ele>283</ele>
        <time>2022-08-21T15:03:19Z</time>
      </trkpt>
      <trkpt lat="43.53476" lon="-0.40794">
        <ele>284</ele>
        <time>2022-08-21T15:03:43Z</time>
      </trkpt>
      <trkpt lat="43.53467" lon="-0.40794">
        <ele>284</ele>
        <time>2022-08-21T15:03:52Z</time>
      </trkpt>
      <trkpt lat="43.53458" lon="-0.40788">
        <ele>284</ele>
        <time>2022-08-21T15:04:00Z</time>
      </trkpt>
      <trkpt lat="43.53436" lon="-0.40746">
        <ele>284</ele>
        <time>2022-08-21T15:04:30Z</time>
      </trkpt>
      <trkpt lat="43.5341" lon="-0.40708">
        <ele>283</ele>
        <time>2022-08-21T15:05:02Z</time>
      </trkpt>
      <trkpt lat="43.534" lon="-0.40708">
        <ele>283</ele>
        <time>2022-08-21T15:05:10Z</time>
      </trkpt>
      <trkpt lat="43.53383" lon="-0.40723">
        <ele>283</ele>
        <time>2022-08-21T15:05:25Z</time>
      </trkpt>
      <trkpt lat="43.53355" lon="-0.40759">
        <ele>283</ele>
        <time>2022-08-21T15:05:54Z</time>
      </trkpt>
      <trkpt lat="43.53346" lon="-0.40765">
        <ele>283</ele>
        <time>2022-08-21T15:06:03Z</time>
      </trkpt>
      <trkpt lat="43.53311" lon="-0.40806">
        <ele>282</ele>
        <time>2022-08-21T15:06:38Z</time>
      </trkpt>
      <trkpt lat="43.53287" lon="-0.40829">
        <ele>282</ele>
        <time>2022-08-21T15:07:05Z</time>
      </trkpt>
      <trkpt lat="43.53283" lon="-0.40842">
        <ele>282</ele>
        <time>2022-08-21T15:07:13Z</time>
      </trkpt>
      <trkpt lat="43.53289" lon="-0.40853">
        <ele>282</ele>
        <time>2022-08-21T15:07:20Z</time>
      </trkpt>
      <trkpt lat="43.53297" lon="-0.40861">
        <ele>282</ele>
        <time>2022-08-21T15:07:27Z</time>
      </trkpt>
      <trkpt lat="43.53317" lon="-0.4089">
        <ele>281</ele>
        <time>2022-08-21T15:07:51Z</time>
      </trkpt>
      <trkpt lat="43.53347" lon="-0.40925">
        <ele>281</ele>
        <time>2022-08-21T15:08:24Z</time>
      </trkpt>
      <trkpt lat="43.53352" lon="-0.40935">
        <ele>280</ele>
        <time>2022-08-21T15:08:31Z</time>
      </trkpt>
      <trkpt lat="43.53381" lon="-0.40967">
        <ele>280</ele>
        <time>2022-08-21T15:09:02Z</time>
      </trkpt>
      <trkpt lat="43.53388" lon="-0.40975">
        <ele>280</ele>
        <time>2022-08-21T15:09:08Z</time>
      </trkpt>
      <trkpt lat="43.53393" lon="-0.40986">
        <ele>280</ele>
        <time>2022-08-21T15:09:16Z</time>
      </trkpt>
      <trkpt lat="43.53409" lon="-0.41001">
        <ele>280</ele>
        <time>2022-08-21T15:09:33Z</time>
      </trkpt>
      <trkpt lat="43.53419" lon="-0.41006">
        <ele>280</ele>
        <time>2022-08-21T15:09:41Z</time>
      </trkpt>
      <trkpt lat="43.53426" lon="-0.41014">
        <ele>280</ele>
        <time>2022-08-21T15:09:48Z</time>
      </trkpt>
      <trkpt lat="43.53432" lon="-0.41025">
        <ele>280</ele>
        <time>2022-08-21T15:10:02Z</time>
      </trkpt>
      <trkpt lat="43.53434" lon="-0.41038">
        <ele>280</ele>
        <time>2022-08-21T15:10:10Z</time>
      </trkpt>
      <trkpt lat="43.5344" lon="-0.41049">
        <ele>280</ele>
        <time>2022-08-21T15:10:17Z</time>
      </trkpt>
      <trkpt lat="43.53442" lon="-0.41063">
        <ele>280</ele>
        <time>2022-08-21T15:10:25Z</time>
      </trkpt>
      <trkpt lat="43.53529" lon="-0.41402">
        <ele>231</ele>
        <time>2022-08-22T06:47:43Z</time>
      </trkpt>
      <trkpt lat="43.53524" lon="-0.41406">
        <ele>231</ele>
        <time>2022-08-22T06:47:51Z</time>
      </trkpt>
      <trkpt lat="43.53517" lon="-0.41409">
        <ele>231</ele>
        <time>2022-08-22T06:47:57Z</time>
      </trkpt>
      <trkpt lat="43.53512" lon="-0.41412">
        <ele>231</ele>
        <time>2022-08-22T06:48:02Z</time>
      </trkpt>
      <trkpt lat="43.53506" lon="-0.41418">
        <ele>230</ele>
        <time>2022-08-22T06:48:14Z</time>
      </trkpt>
      <trkpt lat="43.53502" lon="-0.41421">
        <ele>230</ele>
        <time>2022-08-22T06:48:18Z</time>
      </trkpt>
      <trkpt lat="43.53467" lon="-0.41461">
        <ele>229</ele>
        <time>2022-08-22T06:48:52Z</time>
      </trkpt>
      <trkpt lat="43.53463" lon="-0.41477">
        <ele>228</ele>
        <time>2022-08-22T06:49:03Z</time>
      </trkpt>
      <trkpt lat="43.5346" lon="-0.41491">
        <ele>227</ele>
        <time>2022-08-22T06:49:11Z</time>
      </trkpt>
      <trkpt lat="43.53454" lon="-0.41504">
        <ele>226</ele>
        <time>2022-08-22T06:49:19Z</time>
      </trkpt>
      <trkpt lat="43.53447" lon="-0.41526">
        <ele>224</ele>
        <time>2022-08-22T06:49:31Z</time>
      </trkpt>
      <trkpt lat="43.53444" lon="-0.41533">
        <ele>224</ele>
        <time>2022-08-22T06:49:34Z</time>
      </trkpt>
      <trkpt lat="43.53443" lon="-0.41539">
        <ele>224</ele>
        <time>2022-08-22T06:49:37Z</time>
      </trkpt>
      <trkpt lat="43.53432" lon="-0.41575">
        <ele>221</ele>
        <time>2022-08-22T06:49:57Z</time>
      </trkpt>
      <trkpt lat="43.53425" lon="-0.41644">
        <ele>216</ele>
        <time>2022-08-22T06:50:30Z</time>
      </trkpt>
      <trkpt lat="43.53423" lon="-0.41651">
        <ele>215</ele>
        <time>2022-08-22T06:50:34Z</time>
      </trkpt>
      <trkpt lat="43.53426" lon="-0.41665">
        <ele>214</ele>
        <time>2022-08-22T06:50:42Z</time>
      </trkpt>
      <trkpt lat="43.53436" lon="-0.41672">
        <ele>213</ele>
        <time>2022-08-22T06:50:48Z</time>
      </trkpt>
      <trkpt lat="43.5345" lon="-0.41677">
        <ele>212</ele>
        <time>2022-08-22T06:50:57Z</time>
      </trkpt>
      <trkpt lat="43.53454" lon="-0.4168">
        <ele>212</ele>
        <time>2022-08-22T06:51:00Z</time>
      </trkpt>
      <trkpt lat="43.53495" lon="-0.41705">
        <ele>210</ele>
        <time>2022-08-22T06:51:33Z</time>
      </trkpt>
      <trkpt lat="43.53499" lon="-0.4171">
        <ele>210</ele>
        <time>2022-08-22T06:51:38Z</time>
      </trkpt>
      <trkpt lat="43.53504" lon="-0.41712">
        <ele>210</ele>
        <time>2022-08-22T06:51:42Z</time>
      </trkpt>
      <trkpt lat="43.53508" lon="-0.41717">
        <ele>210</ele>
        <time>2022-08-22T06:51:46Z</time>
      </trkpt>
      <trkpt lat="43.53522" lon="-0.41726">
        <ele>209</ele>
        <time>2022-08-22T06:51:58Z</time>
      </trkpt>
      <trkpt lat="43.53526" lon="-0.41731">
        <ele>209</ele>
        <time>2022-08-22T06:52:02Z</time>
      </trkpt>
      <trkpt lat="43.53542" lon="-0.41738">
        <ele>210</ele>
        <time>2022-08-22T06:52:14Z</time>
      </trkpt>
      <trkpt lat="43.53559" lon="-0.41756">
        <ele>210</ele>
        <time>2022-08-22T06:52:29Z</time>
      </trkpt>
      <trkpt lat="43.53563" lon="-0.41761">
        <ele>210</ele>
        <time>2022-08-22T06:52:33Z</time>
      </trkpt>
      <trkpt lat="43.53564" lon="-0.41766">
        <ele>210</ele>
        <time>2022-08-22T06:52:36Z</time>
      </trkpt>
      <trkpt lat="43.53563" lon="-0.4178">
        <ele>210</ele>
        <time>2022-08-22T06:52:44Z</time>
      </trkpt>
      <trkpt lat="43.53563" lon="-0.41787">
        <ele>210</ele>
        <time>2022-08-22T06:52:48Z</time>
      </trkpt>
      <trkpt lat="43.53558" lon="-0.41808">
        <ele>209</ele>
        <time>2022-08-22T06:52:58Z</time>
      </trkpt>
      <trkpt lat="43.53557" lon="-0.41814">
        <ele>209</ele>
        <time>2022-08-22T06:53:01Z</time>
      </trkpt>
      <trkpt lat="43.53554" lon="-0.4182">
        <ele>210</ele>
        <time>2022-08-22T06:53:05Z</time>
      </trkpt>
      <trkpt lat="43.53549" lon="-0.41825">
        <ele>210</ele>
        <time>2022-08-22T06:53:09Z</time>
      </trkpt>
      <trkpt lat="43.53545" lon="-0.4183">
        <ele>210</ele>
        <time>2022-08-22T06:53:13Z</time>
      </trkpt>
      <trkpt lat="43.53541" lon="-0.41832">
        <ele>210</ele>
        <time>2022-08-22T06:53:16Z</time>
      </trkpt>
      <trkpt lat="43.53534" lon="-0.41839">
        <ele>210</ele>
        <time>2022-08-22T06:53:24Z</time>
      </trkpt>
      <trkpt lat="43.53525" lon="-0.4185">
        <ele>210</ele>
        <time>2022-08-22T06:53:34Z</time>
      </trkpt>
      <trkpt lat="43.5352" lon="-0.41853">
        <ele>210</ele>
        <time>2022-08-22T06:53:38Z</time>
      </trkpt>
      <trkpt lat="43.53486" lon="-0.41885">
        <ele>209</ele>
        <time>2022-08-22T06:54:09Z</time>
      </trkpt>
      <trkpt lat="43.53448" lon="-0.41923">
        <ele>209</ele>
        <time>2022-08-22T06:54:42Z</time>
      </trkpt>
      <trkpt lat="43.53412" lon="-0.41956">
        <ele>209</ele>
        <time>2022-08-22T06:55:14Z</time>
      </trkpt>
      <trkpt lat="43.53375" lon="-0.41991">
        <ele>209</ele>
        <time>2022-08-22T06:55:45Z</time>
      </trkpt>
      <trkpt lat="43.53358" lon="-0.42006">
        <ele>209</ele>
        <time>2022-08-22T06:56:00Z</time>
      </trkpt>
      <trkpt lat="43.53355" lon="-0.42012">
        <ele>209</ele>
        <time>2022-08-22T06:56:04Z</time>
      </trkpt>
      <trkpt lat="43.53349" lon="-0.4201">
        <ele>209</ele>
        <time>2022-08-22T06:56:08Z</time>
      </trkpt>
      <trkpt lat="43.5334" lon="-0.42002">
        <ele>210</ele>
        <time>2022-08-22T06:56:16Z</time>
      </trkpt>
      <trkpt lat="43.5332" lon="-0.41979">
        <ele>211</ele>
        <time>2022-08-22T06:56:35Z</time>
      </trkpt>
      <trkpt lat="43.53314" lon="-0.41967">
        <ele>211</ele>
        <time>2022-08-22T06:56:42Z</time>
      </trkpt>
      <trkpt lat="43.53299" lon="-0.41948">
        <ele>210</ele>
        <time>2022-08-22T06:56:57Z</time>
      </trkpt>
      <trkpt lat="43.53266" lon="-0.41902">
        <ele>211</ele>
        <time>2022-08-22T06:57:29Z</time>
      </trkpt>
      <trkpt lat="43.53259" lon="-0.41891">
        <ele>211</ele>
        <time>2022-08-22T06:57:38Z</time>
      </trkpt>
      <trkpt lat="43.53238" lon="-0.4184">
        <ele>212</ele>
        <time>2022-08-22T06:58:09Z</time>
      </trkpt>
      <trkpt lat="43.53226" lon="-0.4181">
        <ele>212</ele>
        <time>2022-08-22T06:58:26Z</time>
      </trkpt>
      <trkpt lat="43.53216" lon="-0.41759">
        <ele>212</ele>
        <time>2022-08-22T06:58:53Z</time>
      </trkpt>
      <trkpt lat="43.53216" lon="-0.41752">
        <ele>212</ele>
        <time>2022-08-22T06:58:57Z</time>
      </trkpt>
      <trkpt lat="43.53202" lon="-0.41694">
        <ele>212</ele>
        <time>2022-08-22T06:59:28Z</time>
      </trkpt>
      <trkpt lat="43.53187" lon="-0.41632">
        <ele>213</ele>
        <time>2022-08-22T06:59:59Z</time>
      </trkpt>
      <trkpt lat="43.53186" lon="-0.41626">
        <ele>213</ele>
        <time>2022-08-22T07:00:02Z</time>
      </trkpt>
      <trkpt lat="43.53181" lon="-0.41613">
        <ele>213</ele>
        <time>2022-08-22T07:00:09Z</time>
      </trkpt>
      <trkpt lat="43.53176" lon="-0.41608">
        <ele>213</ele>
        <time>2022-08-22T07:00:13Z</time>
      </trkpt>
      <trkpt lat="43.5317" lon="-0.41608">
        <ele>213</ele>
        <time>2022-08-22T07:00:16Z</time>
      </trkpt>
      <trkpt lat="43.53161" lon="-0.41616">
        <ele>213</ele>
        <time>2022-08-22T07:00:25Z</time>
      </trkpt>
      <trkpt lat="43.53152" lon="-0.41629">
        <ele>215</ele>
        <time>2022-08-22T07:00:35Z</time>
      </trkpt>
      <trkpt lat="43.53122" lon="-0.41656">
        <ele>223</ele>
        <time>2022-08-22T07:01:11Z</time>
      </trkpt>
      <trkpt lat="43.53113" lon="-0.4166">
        <ele>224</ele>
        <time>2022-08-22T07:01:18Z</time>
      </trkpt>
      <trkpt lat="43.53107" lon="-0.41658">
        <ele>225</ele>
        <time>2022-08-22T07:01:22Z</time>
      </trkpt>
      <trkpt lat="43.53102" lon="-0.41662">
        <ele>225</ele>
        <time>2022-08-22T07:01:27Z</time>
      </trkpt>
      <trkpt lat="43.53097" lon="-0.41669">
        <ele>226</ele>
        <time>2022-08-22T07:01:33Z</time>
      </trkpt>
      <trkpt lat="43.53094" lon="-0.41677">
        <ele>227</ele>
        <time>2022-08-22T07:01:39Z</time>
      </trkpt>
      <trkpt lat="43.53073" lon="-0.41695">
        <ele>228</ele>
        <time>2022-08-22T07:02:01Z</time>
      </trkpt>
      <trkpt lat="43.53068" lon="-0.41698">
        <ele>229</ele>
        <time>2022-08-22T07:02:07Z</time>
      </trkpt>
      <trkpt lat="43.53061" lon="-0.41703">
        <ele>230</ele>
        <time>2022-08-22T07:02:14Z</time>
      </trkpt>
      <trkpt lat="43.53049" lon="-0.41706">
        <ele>230</ele>
        <time>2022-08-22T07:02:23Z</time>
      </trkpt>
      <trkpt lat="43.53043" lon="-0.41709">
        <ele>231</ele>
        <time>2022-08-22T07:02:27Z</time>
      </trkpt>
      <trkpt lat="43.53032" lon="-0.41713">
        <ele>231</ele>
        <time>2022-08-22T07:02:36Z</time>
      </trkpt>
      <trkpt lat="43.53009" lon="-0.41735">
        <ele>233</ele>
        <time>2022-08-22T07:02:58Z</time>
      </trkpt>
      <trkpt lat="43.53004" lon="-0.41738">
        <ele>233</ele>
        <time>2022-08-22T07:03:03Z</time>
      </trkpt>
      <trkpt lat="43.52974" lon="-0.41773">
        <ele>236</ele>
        <time>2022-08-22T07:03:35Z</time>
      </trkpt>
      <trkpt lat="43.5297" lon="-0.41776">
        <ele>236</ele>
        <time>2022-08-22T07:03:40Z</time>
      </trkpt>
      <trkpt lat="43.52965" lon="-0.41784">
        <ele>236</ele>
        <time>2022-08-22T07:03:46Z</time>
      </trkpt>
      <trkpt lat="43.52951" lon="-0.41799">
        <ele>237</ele>
        <time>2022-08-22T07:04:00Z</time>
      </trkpt>
      <trkpt lat="43.52922" lon="-0.41837">
        <ele>237</ele>
        <time>2022-08-22T07:04:27Z</time>
      </trkpt>
      <trkpt lat="43.52885" lon="-0.4188">
        <ele>238</ele>
        <time>2022-08-22T07:05:00Z</time>
      </trkpt>
      <trkpt lat="43.52874" lon="-0.41893">
        <ele>238</ele>
        <time>2022-08-22T07:05:11Z</time>
      </trkpt>
      <trkpt lat="43.52858" lon="-0.41915">
        <ele>238</ele>
        <time>2022-08-22T07:05:27Z</time>
      </trkpt>
      <trkpt lat="43.5284" lon="-0.41933">
        <ele>238</ele>
        <time>2022-08-22T07:05:46Z</time>
      </trkpt>
      <trkpt lat="43.52806" lon="-0.41958">
        <ele>238</ele>
        <time>2022-08-22T07:06:18Z</time>
      </trkpt>
      <trkpt lat="43.52769" lon="-0.41984">
        <ele>238</ele>
        <time>2022-08-22T07:06:50Z</time>
      </trkpt>
      <trkpt lat="43.5274" lon="-0.42004">
        <ele>237</ele>
        <time>2022-08-22T07:07:14Z</time>
      </trkpt>
      <trkpt lat="43.52737" lon="-0.42009">
        <ele>237</ele>
        <time>2022-08-22T07:07:18Z</time>
      </trkpt>
      <trkpt lat="43.52732" lon="-0.42021">
        <ele>237</ele>
        <time>2022-08-22T07:07:25Z</time>
      </trkpt>
      <trkpt lat="43.52721" lon="-0.42081">
        <ele>236</ele>
        <time>2022-08-22T07:07:57Z</time>
      </trkpt>
      <trkpt lat="43.52709" lon="-0.42147">
        <ele>235</ele>
        <time>2022-08-22T07:08:31Z</time>
      </trkpt>
      <trkpt lat="43.52695" lon="-0.42205">
        <ele>234</ele>
        <time>2022-08-22T07:09:03Z</time>
      </trkpt>
      <trkpt lat="43.52693" lon="-0.42213">
        <ele>234</ele>
        <time>2022-08-22T07:09:07Z</time>
      </trkpt>
      <trkpt lat="43.52689" lon="-0.42257">
        <ele>232</ele>
        <time>2022-08-22T07:09:32Z</time>
      </trkpt>
      <trkpt lat="43.52677" lon="-0.42318">
        <ele>230</ele>
        <time>2022-08-22T07:10:04Z</time>
      </trkpt>
      <trkpt lat="43.52674" lon="-0.4233">
        <ele>230</ele>
        <time>2022-08-22T07:10:12Z</time>
      </trkpt>
      <trkpt lat="43.52672" lon="-0.42345">
        <ele>229</ele>
        <time>2022-08-22T07:10:21Z</time>
      </trkpt>
      <trkpt lat="43.52663" lon="-0.4238">
        <ele>228</ele>
        <time>2022-08-22T07:10:41Z</time>
      </trkpt>
      <trkpt lat="43.52663" lon="-0.42387">
        <ele>228</ele>
        <time>2022-08-22T07:10:46Z</time>
      </trkpt>
      <trkpt lat="43.52659" lon="-0.42407">
        <ele>228</ele>
        <time>2022-08-22T07:10:57Z</time>
      </trkpt>
      <trkpt lat="43.52658" lon="-0.42413">
        <ele>227</ele>
        <time>2022-08-22T07:11:01Z</time>
      </trkpt>
      <trkpt lat="43.52657" lon="-0.42421">
        <ele>227</ele>
        <time>2022-08-22T07:11:05Z</time>
      </trkpt>
      <trkpt lat="43.52658" lon="-0.42427">
        <ele>227</ele>
        <time>2022-08-22T07:11:09Z</time>
      </trkpt>
      <trkpt lat="43.52654" lon="-0.42441">
        <ele>227</ele>
        <time>2022-08-22T07:11:57Z</time>
      </trkpt>
      <trkpt lat="43.52652" lon="-0.4245">
        <ele>227</ele>
        <time>2022-08-22T07:12:21Z</time>
      </trkpt>
      <trkpt lat="43.52658" lon="-0.42458">
        <ele>227</ele>
        <time>2022-08-22T07:12:32Z</time>
      </trkpt>
      <trkpt lat="43.52667" lon="-0.42465">
        <ele>226</ele>
        <time>2022-08-22T07:12:41Z</time>
      </trkpt>
      <trkpt lat="43.52671" lon="-0.42469">
        <ele>226</ele>
        <time>2022-08-22T07:12:47Z</time>
      </trkpt>
      <trkpt lat="43.52676" lon="-0.42475">
        <ele>226</ele>
        <time>2022-08-22T07:12:59Z</time>
      </trkpt>
      <trkpt lat="43.52674" lon="-0.42474">
        <ele>226</ele>
        <time>2022-08-22T07:39:30Z</time>
      </trkpt>
      <trkpt lat="43.52669" lon="-0.42466">
        <ele>227</ele>
        <time>2022-08-22T07:46:32Z</time>
      </trkpt>
      <trkpt lat="43.52654" lon="-0.42447">
        <ele>227</ele>
        <time>2022-08-22T07:46:55Z</time>
      </trkpt>
      <trkpt lat="43.52641" lon="-0.42488">
        <ele>228</ele>
        <time>2022-08-22T07:47:22Z</time>
      </trkpt>
      <trkpt lat="43.52637" lon="-0.42507">
        <ele>229</ele>
        <time>2022-08-22T07:47:33Z</time>
      </trkpt>
      <trkpt lat="43.52634" lon="-0.4252">
        <ele>229</ele>
        <time>2022-08-22T07:47:41Z</time>
      </trkpt>
      <trkpt lat="43.52633" lon="-0.42527">
        <ele>229</ele>
        <time>2022-08-22T07:47:45Z</time>
      </trkpt>
      <trkpt lat="43.52621" lon="-0.42557">
        <ele>228</ele>
        <time>2022-08-22T07:48:06Z</time>
      </trkpt>
      <trkpt lat="43.52611" lon="-0.42574">
        <ele>227</ele>
        <time>2022-08-22T07:48:19Z</time>
      </trkpt>
      <trkpt lat="43.52587" lon="-0.42621">
        <ele>223</ele>
        <time>2022-08-22T07:48:51Z</time>
      </trkpt>
      <trkpt lat="43.5256" lon="-0.42674">
        <ele>219</ele>
        <time>2022-08-22T07:49:23Z</time>
      </trkpt>
      <trkpt lat="43.52558" lon="-0.4268">
        <ele>219</ele>
        <time>2022-08-22T07:49:26Z</time>
      </trkpt>
      <trkpt lat="43.52537" lon="-0.42713">
        <ele>215</ele>
        <time>2022-08-22T07:49:47Z</time>
      </trkpt>
      <trkpt lat="43.52529" lon="-0.4272">
        <ele>213</ele>
        <time>2022-08-22T07:49:53Z</time>
      </trkpt>
      <trkpt lat="43.52526" lon="-0.42724">
        <ele>213</ele>
        <time>2022-08-22T07:49:56Z</time>
      </trkpt>
      <trkpt lat="43.52515" lon="-0.42736">
        <ele>211</ele>
        <time>2022-08-22T07:50:05Z</time>
      </trkpt>
      <trkpt lat="43.52489" lon="-0.42779">
        <ele>207</ele>
        <time>2022-08-22T07:50:36Z</time>
      </trkpt>
      <trkpt lat="43.52478" lon="-0.42804">
        <ele>205</ele>
        <time>2022-08-22T07:50:54Z</time>
      </trkpt>
      <trkpt lat="43.52474" lon="-0.42817">
        <ele>204</ele>
        <time>2022-08-22T07:51:02Z</time>
      </trkpt>
      <trkpt lat="43.52469" lon="-0.42828">
        <ele>203</ele>
        <time>2022-08-22T07:51:08Z</time>
      </trkpt>
      <trkpt lat="43.52456" lon="-0.42881">
        <ele>202</ele>
        <time>2022-08-22T07:51:40Z</time>
      </trkpt>
      <trkpt lat="43.5245" lon="-0.42907">
        <ele>201</ele>
        <time>2022-08-22T07:51:56Z</time>
      </trkpt>
      <trkpt lat="43.52447" lon="-0.42914">
        <ele>201</ele>
        <time>2022-08-22T07:52:00Z</time>
      </trkpt>
      <trkpt lat="43.52438" lon="-0.4294">
        <ele>199</ele>
        <time>2022-08-22T07:52:16Z</time>
      </trkpt>
      <trkpt lat="43.52437" lon="-0.42947">
        <ele>199</ele>
        <time>2022-08-22T07:52:20Z</time>
      </trkpt>
      <trkpt lat="43.52435" lon="-0.42953">
        <ele>198</ele>
        <time>2022-08-22T07:52:24Z</time>
      </trkpt>
      <trkpt lat="43.52432" lon="-0.42959">
        <ele>198</ele>
        <time>2022-08-22T07:52:28Z</time>
      </trkpt>
      <trkpt lat="43.52427" lon="-0.42963">
        <ele>198</ele>
        <time>2022-08-22T07:52:32Z</time>
      </trkpt>
      <trkpt lat="43.52401" lon="-0.43005">
        <ele>193</ele>
        <time>2022-08-22T07:53:07Z</time>
      </trkpt>
      <trkpt lat="43.52389" lon="-0.43027">
        <ele>191</ele>
        <time>2022-08-22T07:53:22Z</time>
      </trkpt>
      <trkpt lat="43.52384" lon="-0.43031">
        <ele>190</ele>
        <time>2022-08-22T07:53:26Z</time>
      </trkpt>
      <trkpt lat="43.5238" lon="-0.43043">
        <ele>189</ele>
        <time>2022-08-22T07:53:33Z</time>
      </trkpt>
      <trkpt lat="43.52376" lon="-0.43048">
        <ele>189</ele>
        <time>2022-08-22T07:53:36Z</time>
      </trkpt>
      <trkpt lat="43.52365" lon="-0.43078">
        <ele>186</ele>
        <time>2022-08-22T07:53:52Z</time>
      </trkpt>
      <trkpt lat="43.52345" lon="-0.43113">
        <ele>183</ele>
        <time>2022-08-22T07:54:18Z</time>
      </trkpt>
      <trkpt lat="43.52334" lon="-0.43128">
        <ele>182</ele>
        <time>2022-08-22T07:54:31Z</time>
      </trkpt>
      <trkpt lat="43.52316" lon="-0.43169">
        <ele>178</ele>
        <time>2022-08-22T07:55:03Z</time>
      </trkpt>
      <trkpt lat="43.52305" lon="-0.43202">
        <ele>177</ele>
        <time>2022-08-22T07:55:23Z</time>
      </trkpt>
      <trkpt lat="43.52294" lon="-0.43226">
        <ele>176</ele>
        <time>2022-08-22T07:55:38Z</time>
      </trkpt>
      <trkpt lat="43.52292" lon="-0.43232">
        <ele>176</ele>
        <time>2022-08-22T07:55:42Z</time>
      </trkpt>
      <trkpt lat="43.52291" lon="-0.43239">
        <ele>176</ele>
        <time>2022-08-22T07:55:46Z</time>
      </trkpt>
      <trkpt lat="43.52288" lon="-0.43266">
        <ele>175</ele>
        <time>2022-08-22T07:56:02Z</time>
      </trkpt>
      <trkpt lat="43.52286" lon="-0.43272">
        <ele>174</ele>
        <time>2022-08-22T07:56:06Z</time>
      </trkpt>
      <trkpt lat="43.52279" lon="-0.43291">
        <ele>175</ele>
        <time>2022-08-22T07:56:18Z</time>
      </trkpt>
      <trkpt lat="43.52264" lon="-0.4332">
        <ele>173</ele>
        <time>2022-08-22T07:56:38Z</time>
      </trkpt>
      <trkpt lat="43.52237" lon="-0.43362">
        <ele>172</ele>
        <time>2022-08-22T07:57:09Z</time>
      </trkpt>
      <trkpt lat="43.52213" lon="-0.43406">
        <ele>171</ele>
        <time>2022-08-22T07:57:41Z</time>
      </trkpt>
      <trkpt lat="43.5219" lon="-0.43454">
        <ele>169</ele>
        <time>2022-08-22T07:58:13Z</time>
      </trkpt>
      <trkpt lat="43.52187" lon="-0.4346">
        <ele>169</ele>
        <time>2022-08-22T07:58:18Z</time>
      </trkpt>
      <trkpt lat="43.52172" lon="-0.4348">
        <ele>167</ele>
        <time>2022-08-22T07:58:35Z</time>
      </trkpt>
      <trkpt lat="43.52163" lon="-0.43491">
        <ele>166</ele>
        <time>2022-08-22T07:58:43Z</time>
      </trkpt>
      <trkpt lat="43.52151" lon="-0.43508">
        <ele>164</ele>
        <time>2022-08-22T07:59:00Z</time>
      </trkpt>
      <trkpt lat="43.52148" lon="-0.43512">
        <ele>164</ele>
        <time>2022-08-22T07:59:05Z</time>
      </trkpt>
      <trkpt lat="43.52143" lon="-0.43521">
        <ele>163</ele>
        <time>2022-08-22T07:59:12Z</time>
      </trkpt>
      <trkpt lat="43.52127" lon="-0.43537">
        <ele>160</ele>
        <time>2022-08-22T07:59:30Z</time>
      </trkpt>
      <trkpt lat="43.52107" lon="-0.4356">
        <ele>157</ele>
        <time>2022-08-22T07:59:48Z</time>
      </trkpt>
      <trkpt lat="43.52098" lon="-0.43565">
        <ele>155</ele>
        <time>2022-08-22T07:59:56Z</time>
      </trkpt>
      <trkpt lat="43.52087" lon="-0.43583">
        <ele>152</ele>
        <time>2022-08-22T08:00:11Z</time>
      </trkpt>
      <trkpt lat="43.52071" lon="-0.43596">
        <ele>149</ele>
        <time>2022-08-22T08:00:23Z</time>
      </trkpt>
      <trkpt lat="43.52064" lon="-0.43605">
        <ele>148</ele>
        <time>2022-08-22T08:00:29Z</time>
      </trkpt>
      <trkpt lat="43.52051" lon="-0.43619">
        <ele>145</ele>
        <time>2022-08-22T08:00:40Z</time>
      </trkpt>
      <trkpt lat="43.52047" lon="-0.43625">
        <ele>144</ele>
        <time>2022-08-22T08:00:44Z</time>
      </trkpt>
      <trkpt lat="43.52019" lon="-0.43647">
        <ele>140</ele>
        <time>2022-08-22T08:01:14Z</time>
      </trkpt>
      <trkpt lat="43.52016" lon="-0.43652">
        <ele>140</ele>
        <time>2022-08-22T08:01:17Z</time>
      </trkpt>
      <trkpt lat="43.52012" lon="-0.43655">
        <ele>139</ele>
        <time>2022-08-22T08:01:20Z</time>
      </trkpt>
      <trkpt lat="43.52006" lon="-0.43666">
        <ele>138</ele>
        <time>2022-08-22T08:01:27Z</time>
      </trkpt>
      <trkpt lat="43.51997" lon="-0.43676">
        <ele>137</ele>
        <time>2022-08-22T08:01:35Z</time>
      </trkpt>
      <trkpt lat="43.51989" lon="-0.43687">
        <ele>135</ele>
        <time>2022-08-22T08:01:43Z</time>
      </trkpt>
      <trkpt lat="43.51964" lon="-0.43715">
        <ele>130</ele>
        <time>2022-08-22T08:02:12Z</time>
      </trkpt>
      <trkpt lat="43.51955" lon="-0.43735">
        <ele>127</ele>
        <time>2022-08-22T08:02:23Z</time>
      </trkpt>
      <trkpt lat="43.51941" lon="-0.43779">
        <ele>122</ele>
        <time>2022-08-22T08:02:46Z</time>
      </trkpt>
      <trkpt lat="43.51937" lon="-0.43784">
        <ele>121</ele>
        <time>2022-08-22T08:02:50Z</time>
      </trkpt>
      <trkpt lat="43.51933" lon="-0.43787">
        <ele>120</ele>
        <time>2022-08-22T08:02:53Z</time>
      </trkpt>
      <trkpt lat="43.51894" lon="-0.43807">
        <ele>115</ele>
        <time>2022-08-22T08:03:22Z</time>
      </trkpt>
      <trkpt lat="43.51885" lon="-0.43813">
        <ele>114</ele>
        <time>2022-08-22T08:03:29Z</time>
      </trkpt>
      <trkpt lat="43.51861" lon="-0.43824">
        <ele>111</ele>
        <time>2022-08-22T08:03:47Z</time>
      </trkpt>
      <trkpt lat="43.51856" lon="-0.43824">
        <ele>110</ele>
        <time>2022-08-22T08:03:50Z</time>
      </trkpt>
      <trkpt lat="43.51852" lon="-0.43828">
        <ele>110</ele>
        <time>2022-08-22T08:03:53Z</time>
      </trkpt>
      <trkpt lat="43.51846" lon="-0.4383">
        <ele>109</ele>
        <time>2022-08-22T08:03:58Z</time>
      </trkpt>
      <trkpt lat="43.51842" lon="-0.43825">
        <ele>109</ele>
        <time>2022-08-22T08:04:02Z</time>
      </trkpt>
      <trkpt lat="43.51822" lon="-0.43821">
        <ele>108</ele>
        <time>2022-08-22T08:04:23Z</time>
      </trkpt>
      <trkpt lat="43.51817" lon="-0.43823">
        <ele>108</ele>
        <time>2022-08-22T08:04:28Z</time>
      </trkpt>
      <trkpt lat="43.51795" lon="-0.43841">
        <ele>107</ele>
        <time>2022-08-22T08:04:49Z</time>
      </trkpt>
      <trkpt lat="43.51772" lon="-0.43855">
        <ele>107</ele>
        <time>2022-08-22T08:05:06Z</time>
      </trkpt>
      <trkpt lat="43.51744" lon="-0.43885">
        <ele>106</ele>
        <time>2022-08-22T08:05:35Z</time>
      </trkpt>
      <trkpt lat="43.51733" lon="-0.43907">
        <ele>106</ele>
        <time>2022-08-22T08:05:48Z</time>
      </trkpt>
      <trkpt lat="43.51731" lon="-0.43913">
        <ele>105</ele>
        <time>2022-08-22T08:05:51Z</time>
      </trkpt>
      <trkpt lat="43.51718" lon="-0.43938">
        <ele>105</ele>
        <time>2022-08-22T08:06:05Z</time>
      </trkpt>
      <trkpt lat="43.51693" lon="-0.43969">
        <ele>105</ele>
        <time>2022-08-22T08:06:31Z</time>
      </trkpt>
      <trkpt lat="43.51689" lon="-0.43973">
        <ele>105</ele>
        <time>2022-08-22T08:06:34Z</time>
      </trkpt>
      <trkpt lat="43.51687" lon="-0.43978">
        <ele>106</ele>
        <time>2022-08-22T08:06:38Z</time>
      </trkpt>
      <trkpt lat="43.51684" lon="-0.43983">
        <ele>106</ele>
        <time>2022-08-22T08:06:42Z</time>
      </trkpt>
      <trkpt lat="43.51672" lon="-0.44003">
        <ele>106</ele>
        <time>2022-08-22T08:06:57Z</time>
      </trkpt>
      <trkpt lat="43.5167" lon="-0.44009">
        <ele>105</ele>
        <time>2022-08-22T08:07:01Z</time>
      </trkpt>
      <trkpt lat="43.51664" lon="-0.44043">
        <ele>104</ele>
        <time>2022-08-22T08:07:20Z</time>
      </trkpt>
      <trkpt lat="43.51663" lon="-0.44049">
        <ele>104</ele>
        <time>2022-08-22T08:07:23Z</time>
      </trkpt>
      <trkpt lat="43.5165" lon="-0.44077">
        <ele>104</ele>
        <time>2022-08-22T08:07:41Z</time>
      </trkpt>
      <trkpt lat="43.51641" lon="-0.44087">
        <ele>104</ele>
        <time>2022-08-22T08:07:54Z</time>
      </trkpt>
      <trkpt lat="43.51638" lon="-0.4409">
        <ele>104</ele>
        <time>2022-08-22T08:07:57Z</time>
      </trkpt>
      <trkpt lat="43.51632" lon="-0.44092">
        <ele>104</ele>
        <time>2022-08-22T08:08:01Z</time>
      </trkpt>
      <trkpt lat="43.51627" lon="-0.44089">
        <ele>104</ele>
        <time>2022-08-22T08:08:06Z</time>
      </trkpt>
      <trkpt lat="43.51631" lon="-0.44094">
        <ele>104</ele>
        <time>2022-08-22T08:08:46Z</time>
      </trkpt>
      <trkpt lat="43.5163" lon="-0.44101">
        <ele>104</ele>
        <time>2022-08-22T08:08:51Z</time>
      </trkpt>
      <trkpt lat="43.51625" lon="-0.44103">
        <ele>104</ele>
        <time>2022-08-22T08:08:54Z</time>
      </trkpt>
      <trkpt lat="43.51596" lon="-0.44087">
        <ele>104</ele>
        <time>2022-08-22T08:09:16Z</time>
      </trkpt>
      <trkpt lat="43.51555" lon="-0.44079">
        <ele>104</ele>
        <time>2022-08-22T08:09:47Z</time>
      </trkpt>
      <trkpt lat="43.51546" lon="-0.44079">
        <ele>104</ele>
        <time>2022-08-22T08:09:53Z</time>
      </trkpt>
      <trkpt lat="43.51499" lon="-0.44071">
        <ele>105</ele>
        <time>2022-08-22T08:10:25Z</time>
      </trkpt>
      <trkpt lat="43.51494" lon="-0.44071">
        <ele>105</ele>
        <time>2022-08-22T08:10:29Z</time>
      </trkpt>
      <trkpt lat="43.51471" lon="-0.44063">
        <ele>105</ele>
        <time>2022-08-22T08:10:45Z</time>
      </trkpt>
      <trkpt lat="43.51456" lon="-0.44064">
        <ele>105</ele>
        <time>2022-08-22T08:10:57Z</time>
      </trkpt>
      <trkpt lat="43.51435" lon="-0.44074">
        <ele>106</ele>
        <time>2022-08-22T08:11:13Z</time>
      </trkpt>
      <trkpt lat="43.51404" lon="-0.441">
        <ele>106</ele>
        <time>2022-08-22T08:11:40Z</time>
      </trkpt>
      <trkpt lat="43.51375" lon="-0.44142">
        <ele>106</ele>
        <time>2022-08-22T08:12:12Z</time>
      </trkpt>
      <trkpt lat="43.51368" lon="-0.44152">
        <ele>107</ele>
        <time>2022-08-22T08:12:19Z</time>
      </trkpt>
      <trkpt lat="43.51363" lon="-0.44157">
        <ele>107</ele>
        <time>2022-08-22T08:12:23Z</time>
      </trkpt>
      <trkpt lat="43.51359" lon="-0.44162">
        <ele>107</ele>
        <time>2022-08-22T08:12:26Z</time>
      </trkpt>
      <trkpt lat="43.51347" lon="-0.44176">
        <ele>106</ele>
        <time>2022-08-22T08:12:38Z</time>
      </trkpt>
      <trkpt lat="43.51315" lon="-0.44217">
        <ele>108</ele>
        <time>2022-08-22T08:13:10Z</time>
      </trkpt>
      <trkpt lat="43.51284" lon="-0.44262">
        <ele>108</ele>
        <time>2022-08-22T08:13:42Z</time>
      </trkpt>
      <trkpt lat="43.5128" lon="-0.44267">
        <ele>108</ele>
        <time>2022-08-22T08:13:47Z</time>
      </trkpt>
      <trkpt lat="43.51256" lon="-0.44318">
        <ele>110</ele>
        <time>2022-08-22T08:14:18Z</time>
      </trkpt>
      <trkpt lat="43.51236" lon="-0.44368">
        <ele>110</ele>
        <time>2022-08-22T08:14:49Z</time>
      </trkpt>
      <trkpt lat="43.51234" lon="-0.44374">
        <ele>110</ele>
        <time>2022-08-22T08:14:53Z</time>
      </trkpt>
      <trkpt lat="43.51229" lon="-0.44377">
        <ele>110</ele>
        <time>2022-08-22T08:14:58Z</time>
      </trkpt>
      <trkpt lat="43.51188" lon="-0.44369">
        <ele>110</ele>
        <time>2022-08-22T08:15:29Z</time>
      </trkpt>
      <trkpt lat="43.51183" lon="-0.44369">
        <ele>110</ele>
        <time>2022-08-22T08:15:33Z</time>
      </trkpt>
      <trkpt lat="43.51173" lon="-0.44367">
        <ele>110</ele>
        <time>2022-08-22T08:15:40Z</time>
      </trkpt>
      <trkpt lat="43.51158" lon="-0.44367">
        <ele>111</ele>
        <time>2022-08-22T08:15:52Z</time>
      </trkpt>
      <trkpt lat="43.51153" lon="-0.44369">
        <ele>111</ele>
        <time>2022-08-22T08:15:55Z</time>
      </trkpt>
      <trkpt lat="43.51152" lon="-0.44363">
        <ele>111</ele>
        <time>2022-08-22T08:16:01Z</time>
      </trkpt>
      <trkpt lat="43.51157" lon="-0.44364">
        <ele>111</ele>
        <time>2022-08-22T08:22:29Z</time>
      </trkpt>
      <trkpt lat="43.51159" lon="-0.44355">
        <ele>111</ele>
        <time>2022-08-22T08:22:41Z</time>
      </trkpt>
      <trkpt lat="43.51158" lon="-0.44362">
        <ele>111</ele>
        <time>2022-08-22T08:23:12Z</time>
      </trkpt>
      <trkpt lat="43.51157" lon="-0.44361">
        <ele>111</ele>
        <time>2022-08-22T08:24:56Z</time>
      </trkpt>
      <trkpt lat="43.51155" lon="-0.44364">
        <ele>111</ele>
        <time>2022-08-22T08:26:18Z</time>
      </trkpt>
      <trkpt lat="43.51151" lon="-0.44367">
        <ele>111</ele>
        <time>2022-08-22T08:27:22Z</time>
      </trkpt>
      <trkpt lat="43.51148" lon="-0.44375">
        <ele>110</ele>
        <time>2022-08-22T08:29:47Z</time>
      </trkpt>
      <trkpt lat="43.51133" lon="-0.44381">
        <ele>111</ele>
        <time>2022-08-22T08:29:58Z</time>
      </trkpt>
      <trkpt lat="43.51095" lon="-0.44403">
        <ele>113</ele>
        <time>2022-08-22T08:30:30Z</time>
      </trkpt>
      <trkpt lat="43.51086" lon="-0.44407">
        <ele>113</ele>
        <time>2022-08-22T08:30:39Z</time>
      </trkpt>
      <trkpt lat="43.51057" lon="-0.44427">
        <ele>114</ele>
        <time>2022-08-22T08:31:05Z</time>
      </trkpt>
      <trkpt lat="43.51053" lon="-0.44429">
        <ele>115</ele>
        <time>2022-08-22T08:31:32Z</time>
      </trkpt>
      <trkpt lat="43.51047" lon="-0.44437">
        <ele>115</ele>
        <time>2022-08-22T08:31:42Z</time>
      </trkpt>
      <trkpt lat="43.51042" lon="-0.44438">
        <ele>115</ele>
        <time>2022-08-22T08:31:47Z</time>
      </trkpt>
      <trkpt lat="43.51009" lon="-0.44461">
        <ele>117</ele>
        <time>2022-08-22T08:32:19Z</time>
      </trkpt>
      <trkpt lat="43.51" lon="-0.44469">
        <ele>117</ele>
        <time>2022-08-22T08:32:28Z</time>
      </trkpt>
      <trkpt lat="43.50996" lon="-0.44473">
        <ele>117</ele>
        <time>2022-08-22T08:32:32Z</time>
      </trkpt>
      <trkpt lat="43.50965" lon="-0.44512">
        <ele>119</ele>
        <time>2022-08-22T08:33:04Z</time>
      </trkpt>
      <trkpt lat="43.50936" lon="-0.44553">
        <ele>121</ele>
        <time>2022-08-22T08:33:36Z</time>
      </trkpt>
      <trkpt lat="43.50905" lon="-0.44594">
        <ele>123</ele>
        <time>2022-08-22T08:34:06Z</time>
      </trkpt>
      <trkpt lat="43.50875" lon="-0.44635">
        <ele>125</ele>
        <time>2022-08-22T08:34:37Z</time>
      </trkpt>
      <trkpt lat="43.50844" lon="-0.44674">
        <ele>125</ele>
        <time>2022-08-22T08:35:10Z</time>
      </trkpt>
      <trkpt lat="43.5081" lon="-0.44717">
        <ele>126</ele>
        <time>2022-08-22T08:35:44Z</time>
      </trkpt>
      <trkpt lat="43.5078" lon="-0.4476">
        <ele>126</ele>
        <time>2022-08-22T08:36:15Z</time>
      </trkpt>
      <trkpt lat="43.50777" lon="-0.44765">
        <ele>126</ele>
        <time>2022-08-22T08:36:19Z</time>
      </trkpt>
      <trkpt lat="43.5076" lon="-0.44818">
        <ele>127</ele>
        <time>2022-08-22T08:36:50Z</time>
      </trkpt>
      <trkpt lat="43.50742" lon="-0.44871">
        <ele>129</ele>
        <time>2022-08-22T08:37:21Z</time>
      </trkpt>
      <trkpt lat="43.50732" lon="-0.44906">
        <ele>130</ele>
        <time>2022-08-22T08:37:41Z</time>
      </trkpt>
      <trkpt lat="43.50732" lon="-0.44914">
        <ele>130</ele>
        <time>2022-08-22T08:37:45Z</time>
      </trkpt>
      <trkpt lat="43.50719" lon="-0.4497">
        <ele>133</ele>
        <time>2022-08-22T08:38:15Z</time>
      </trkpt>
      <trkpt lat="43.5071" lon="-0.45025">
        <ele>136</ele>
        <time>2022-08-22T08:38:48Z</time>
      </trkpt>
      <trkpt lat="43.50707" lon="-0.45039">
        <ele>137</ele>
        <time>2022-08-22T08:38:57Z</time>
      </trkpt>
      <trkpt lat="43.50698" lon="-0.45096">
        <ele>141</ele>
        <time>2022-08-22T08:39:29Z</time>
      </trkpt>
      <trkpt lat="43.50684" lon="-0.45151">
        <ele>144</ele>
        <time>2022-08-22T08:40:01Z</time>
      </trkpt>
      <trkpt lat="43.50659" lon="-0.45197">
        <ele>147</ele>
        <time>2022-08-22T08:40:34Z</time>
      </trkpt>
      <trkpt lat="43.50652" lon="-0.45224">
        <ele>148</ele>
        <time>2022-08-22T08:40:51Z</time>
      </trkpt>
      <trkpt lat="43.50647" lon="-0.4525">
        <ele>149</ele>
        <time>2022-08-22T08:41:08Z</time>
      </trkpt>
      <trkpt lat="43.50644" lon="-0.45256">
        <ele>150</ele>
        <time>2022-08-22T08:41:13Z</time>
      </trkpt>
      <trkpt lat="43.50639" lon="-0.4526">
        <ele>150</ele>
        <time>2022-08-22T08:41:17Z</time>
      </trkpt>
      <trkpt lat="43.5063" lon="-0.45262">
        <ele>150</ele>
        <time>2022-08-22T08:41:25Z</time>
      </trkpt>
      <trkpt lat="43.50625" lon="-0.45261">
        <ele>150</ele>
        <time>2022-08-22T08:41:29Z</time>
      </trkpt>
      <trkpt lat="43.5062" lon="-0.45258">
        <ele>150</ele>
        <time>2022-08-22T08:41:44Z</time>
      </trkpt>
      <trkpt lat="43.50615" lon="-0.4526">
        <ele>150</ele>
        <time>2022-08-22T08:41:48Z</time>
      </trkpt>
      <trkpt lat="43.50605" lon="-0.45263">
        <ele>149</ele>
        <time>2022-08-22T08:41:58Z</time>
      </trkpt>
      <trkpt lat="43.50592" lon="-0.4527">
        <ele>148</ele>
        <time>2022-08-22T08:42:09Z</time>
      </trkpt>
      <trkpt lat="43.50584" lon="-0.45279">
        <ele>146</ele>
        <time>2022-08-22T08:42:17Z</time>
      </trkpt>
      <trkpt lat="43.50558" lon="-0.45315">
        <ele>143</ele>
        <time>2022-08-22T08:42:48Z</time>
      </trkpt>
      <trkpt lat="43.50545" lon="-0.45326">
        <ele>142</ele>
        <time>2022-08-22T08:43:00Z</time>
      </trkpt>
      <trkpt lat="43.50506" lon="-0.45349">
        <ele>140</ele>
        <time>2022-08-22T08:43:33Z</time>
      </trkpt>
      <trkpt lat="43.50501" lon="-0.45353">
        <ele>139</ele>
        <time>2022-08-22T08:43:37Z</time>
      </trkpt>
      <trkpt lat="43.50497" lon="-0.45357">
        <ele>139</ele>
        <time>2022-08-22T08:43:41Z</time>
      </trkpt>
      <trkpt lat="43.50493" lon="-0.45362">
        <ele>139</ele>
        <time>2022-08-22T08:43:44Z</time>
      </trkpt>
      <trkpt lat="43.50462" lon="-0.45397">
        <ele>140</ele>
        <time>2022-08-22T08:44:16Z</time>
      </trkpt>
      <trkpt lat="43.50439" lon="-0.45417">
        <ele>140</ele>
        <time>2022-08-22T08:44:36Z</time>
      </trkpt>
      <trkpt lat="43.50401" lon="-0.45442">
        <ele>140</ele>
        <time>2022-08-22T08:45:08Z</time>
      </trkpt>
      <trkpt lat="43.50365" lon="-0.45471">
        <ele>140</ele>
        <time>2022-08-22T08:45:41Z</time>
      </trkpt>
      <trkpt lat="43.50331" lon="-0.45502">
        <ele>140</ele>
        <time>2022-08-22T08:46:15Z</time>
      </trkpt>
      <trkpt lat="43.50295" lon="-0.4553">
        <ele>142</ele>
        <time>2022-08-22T08:46:46Z</time>
      </trkpt>
      <trkpt lat="43.50259" lon="-0.45559">
        <ele>143</ele>
        <time>2022-08-22T08:47:18Z</time>
      </trkpt>
      <trkpt lat="43.50251" lon="-0.45567">
        <ele>143</ele>
        <time>2022-08-22T08:47:27Z</time>
      </trkpt>
      <trkpt lat="43.50246" lon="-0.45569">
        <ele>143</ele>
        <time>2022-08-22T08:47:32Z</time>
      </trkpt>
      <trkpt lat="43.50242" lon="-0.45571">
        <ele>143</ele>
        <time>2022-08-22T08:47:37Z</time>
      </trkpt>
      <trkpt lat="43.50238" lon="-0.45573">
        <ele>143</ele>
        <time>2022-08-22T08:47:55Z</time>
      </trkpt>
      <trkpt lat="43.50233" lon="-0.45575">
        <ele>144</ele>
        <time>2022-08-22T08:48:00Z</time>
      </trkpt>
      <trkpt lat="43.50224" lon="-0.45575">
        <ele>144</ele>
        <time>2022-08-22T08:48:08Z</time>
      </trkpt>
      <trkpt lat="43.50184" lon="-0.45565">
        <ele>145</ele>
        <time>2022-08-22T08:48:39Z</time>
      </trkpt>
      <trkpt lat="43.50143" lon="-0.45554">
        <ele>145</ele>
        <time>2022-08-22T08:49:11Z</time>
      </trkpt>
      <trkpt lat="43.50128" lon="-0.45558">
        <ele>146</ele>
        <time>2022-08-22T08:49:23Z</time>
      </trkpt>
      <trkpt lat="43.5011" lon="-0.45571">
        <ele>147</ele>
        <time>2022-08-22T08:49:40Z</time>
      </trkpt>
      <trkpt lat="43.50095" lon="-0.45589">
        <ele>148</ele>
        <time>2022-08-22T08:49:56Z</time>
      </trkpt>
      <trkpt lat="43.50092" lon="-0.45595">
        <ele>148</ele>
        <time>2022-08-22T08:50:01Z</time>
      </trkpt>
      <trkpt lat="43.50063" lon="-0.45634">
        <ele>152</ele>
        <time>2022-08-22T08:50:33Z</time>
      </trkpt>
      <trkpt lat="43.50038" lon="-0.45654">
        <ele>155</ele>
        <time>2022-08-22T08:50:59Z</time>
      </trkpt>
      <trkpt lat="43.50019" lon="-0.45661">
        <ele>157</ele>
        <time>2022-08-22T08:51:15Z</time>
      </trkpt>
      <trkpt lat="43.50005" lon="-0.45657">
        <ele>160</ele>
        <time>2022-08-22T08:51:29Z</time>
      </trkpt>
      <trkpt lat="43.49994" lon="-0.45652">
        <ele>161</ele>
        <time>2022-08-22T08:51:40Z</time>
      </trkpt>
      <trkpt lat="43.49986" lon="-0.45649">
        <ele>163</ele>
        <time>2022-08-22T08:51:53Z</time>
      </trkpt>
      <trkpt lat="43.49982" lon="-0.45646">
        <ele>163</ele>
        <time>2022-08-22T08:51:57Z</time>
      </trkpt>
      <trkpt lat="43.49977" lon="-0.45645">
        <ele>164</ele>
        <time>2022-08-22T08:52:02Z</time>
      </trkpt>
      <trkpt lat="43.49972" lon="-0.45643">
        <ele>165</ele>
        <time>2022-08-22T08:52:06Z</time>
      </trkpt>
      <trkpt lat="43.4996" lon="-0.45642">
        <ele>167</ele>
        <time>2022-08-22T08:52:17Z</time>
      </trkpt>
      <trkpt lat="43.49956" lon="-0.45644">
        <ele>168</ele>
        <time>2022-08-22T08:52:28Z</time>
      </trkpt>
      <trkpt lat="43.49951" lon="-0.45643">
        <ele>168</ele>
        <time>2022-08-22T08:52:34Z</time>
      </trkpt>
      <trkpt lat="43.49928" lon="-0.45646">
        <ele>171</ele>
        <time>2022-08-22T08:52:57Z</time>
      </trkpt>
      <trkpt lat="43.49924" lon="-0.45645">
        <ele>172</ele>
        <time>2022-08-22T08:53:01Z</time>
      </trkpt>
      <trkpt lat="43.49914" lon="-0.45646">
        <ele>173</ele>
        <time>2022-08-22T08:53:09Z</time>
      </trkpt>
      <trkpt lat="43.4991" lon="-0.45643">
        <ele>173</ele>
        <time>2022-08-22T08:53:12Z</time>
      </trkpt>
      <trkpt lat="43.49894" lon="-0.45643">
        <ele>175</ele>
        <time>2022-08-22T08:53:26Z</time>
      </trkpt>
      <trkpt lat="43.49889" lon="-0.45644">
        <ele>175</ele>
        <time>2022-08-22T08:53:29Z</time>
      </trkpt>
      <trkpt lat="43.49883" lon="-0.45647">
        <ele>177</ele>
        <time>2022-08-22T08:53:35Z</time>
      </trkpt>
      <trkpt lat="43.4986" lon="-0.45671">
        <ele>181</ele>
        <time>2022-08-22T08:54:04Z</time>
      </trkpt>
      <trkpt lat="43.49855" lon="-0.45672">
        <ele>181</ele>
        <time>2022-08-22T08:54:09Z</time>
      </trkpt>
      <trkpt lat="43.49839" lon="-0.45676">
        <ele>182</ele>
        <time>2022-08-22T08:54:24Z</time>
      </trkpt>
      <trkpt lat="43.49832" lon="-0.45676">
        <ele>182</ele>
        <time>2022-08-22T08:54:32Z</time>
      </trkpt>
      <trkpt lat="43.498" lon="-0.45671">
        <ele>183</ele>
        <time>2022-08-22T08:54:55Z</time>
      </trkpt>
      <trkpt lat="43.49796" lon="-0.45672">
        <ele>184</ele>
        <time>2022-08-22T08:54:59Z</time>
      </trkpt>
      <trkpt lat="43.49791" lon="-0.4567">
        <ele>184</ele>
        <time>2022-08-22T08:55:04Z</time>
      </trkpt>
      <trkpt lat="43.49785" lon="-0.45671">
        <ele>184</ele>
        <time>2022-08-22T08:55:08Z</time>
      </trkpt>
      <trkpt lat="43.49774" lon="-0.45669">
        <ele>185</ele>
        <time>2022-08-22T08:55:18Z</time>
      </trkpt>
      <trkpt lat="43.49745" lon="-0.45671">
        <ele>188</ele>
        <time>2022-08-22T08:55:51Z</time>
      </trkpt>
      <trkpt lat="43.49712" lon="-0.45673">
        <ele>191</ele>
        <time>2022-08-22T08:56:21Z</time>
      </trkpt>
      <trkpt lat="43.49672" lon="-0.45676">
        <ele>190</ele>
        <time>2022-08-22T08:56:53Z</time>
      </trkpt>
      <trkpt lat="43.49667" lon="-0.45675">
        <ele>189</ele>
        <time>2022-08-22T08:56:57Z</time>
      </trkpt>
      <trkpt lat="43.49663" lon="-0.45676">
        <ele>189</ele>
        <time>2022-08-22T08:57:01Z</time>
      </trkpt>
      <trkpt lat="43.49658" lon="-0.45676">
        <ele>190</ele>
        <time>2022-08-22T08:57:05Z</time>
      </trkpt>
      <trkpt lat="43.49643" lon="-0.45677">
        <ele>188</ele>
        <time>2022-08-22T08:57:16Z</time>
      </trkpt>
      <trkpt lat="43.49638" lon="-0.45678">
        <ele>189</ele>
        <time>2022-08-22T08:57:20Z</time>
      </trkpt>
      <trkpt lat="43.49633" lon="-0.45677">
        <ele>189</ele>
        <time>2022-08-22T08:57:24Z</time>
      </trkpt>
      <trkpt lat="43.49615" lon="-0.45679">
        <ele>189</ele>
        <time>2022-08-22T08:57:40Z</time>
      </trkpt>
      <trkpt lat="43.49609" lon="-0.4568">
        <ele>189</ele>
        <time>2022-08-22T08:57:44Z</time>
      </trkpt>
      <trkpt lat="43.49595" lon="-0.4568">
        <ele>189</ele>
        <time>2022-08-22T08:57:57Z</time>
      </trkpt>
      <trkpt lat="43.49576" lon="-0.45679">
        <ele>190</ele>
        <time>2022-08-22T08:58:13Z</time>
      </trkpt>
      <trkpt lat="43.49571" lon="-0.45677">
        <ele>190</ele>
        <time>2022-08-22T08:58:17Z</time>
      </trkpt>
      <trkpt lat="43.49562" lon="-0.45675">
        <ele>191</ele>
        <time>2022-08-22T08:58:25Z</time>
      </trkpt>
      <trkpt lat="43.49541" lon="-0.45666">
        <ele>192</ele>
        <time>2022-08-22T08:58:50Z</time>
      </trkpt>
      <trkpt lat="43.49536" lon="-0.45664">
        <ele>192</ele>
        <time>2022-08-22T08:58:54Z</time>
      </trkpt>
      <trkpt lat="43.4951" lon="-0.4565">
        <ele>195</ele>
        <time>2022-08-22T08:59:17Z</time>
      </trkpt>
      <trkpt lat="43.49497" lon="-0.45639">
        <ele>197</ele>
        <time>2022-08-22T08:59:34Z</time>
      </trkpt>
      <trkpt lat="43.49483" lon="-0.45624">
        <ele>199</ele>
        <time>2022-08-22T08:59:50Z</time>
      </trkpt>
      <trkpt lat="43.49461" lon="-0.4561">
        <ele>202</ele>
        <time>2022-08-22T09:00:12Z</time>
      </trkpt>
      <trkpt lat="43.49428" lon="-0.45595">
        <ele>207</ele>
        <time>2022-08-22T09:00:45Z</time>
      </trkpt>
      <trkpt lat="43.49424" lon="-0.45593">
        <ele>208</ele>
        <time>2022-08-22T09:00:50Z</time>
      </trkpt>
      <trkpt lat="43.49415" lon="-0.45587">
        <ele>209</ele>
        <time>2022-08-22T09:00:59Z</time>
      </trkpt>
      <trkpt lat="43.49402" lon="-0.45566">
        <ele>210</ele>
        <time>2022-08-22T09:01:31Z</time>
      </trkpt>
      <trkpt lat="43.49399" lon="-0.45561">
        <ele>210</ele>
        <time>2022-08-22T09:01:35Z</time>
      </trkpt>
      <trkpt lat="43.4939" lon="-0.45536">
        <ele>210</ele>
        <time>2022-08-22T09:01:52Z</time>
      </trkpt>
      <trkpt lat="43.4938" lon="-0.45503">
        <ele>208</ele>
        <time>2022-08-22T09:02:15Z</time>
      </trkpt>
      <trkpt lat="43.4936" lon="-0.45464">
        <ele>205</ele>
        <time>2022-08-22T09:02:44Z</time>
      </trkpt>
      <trkpt lat="43.49353" lon="-0.45446">
        <ele>204</ele>
        <time>2022-08-22T09:02:56Z</time>
      </trkpt>
      <trkpt lat="43.49346" lon="-0.45434">
        <ele>204</ele>
        <time>2022-08-22T09:03:04Z</time>
      </trkpt>
      <trkpt lat="43.49344" lon="-0.45427">
        <ele>204</ele>
        <time>2022-08-22T09:03:08Z</time>
      </trkpt>
      <trkpt lat="43.49339" lon="-0.45424">
        <ele>204</ele>
        <time>2022-08-22T09:03:12Z</time>
      </trkpt>
      <trkpt lat="43.49337" lon="-0.45418">
        <ele>205</ele>
        <time>2022-08-22T09:03:16Z</time>
      </trkpt>
      <trkpt lat="43.49335" lon="-0.45412">
        <ele>205</ele>
        <time>2022-08-22T09:03:20Z</time>
      </trkpt>
      <trkpt lat="43.49318" lon="-0.45398">
        <ele>208</ele>
        <time>2022-08-22T09:03:37Z</time>
      </trkpt>
      <trkpt lat="43.49308" lon="-0.45394">
        <ele>209</ele>
        <time>2022-08-22T09:03:46Z</time>
      </trkpt>
      <trkpt lat="43.493" lon="-0.45393">
        <ele>210</ele>
        <time>2022-08-22T09:03:54Z</time>
      </trkpt>
      <trkpt lat="43.49284" lon="-0.45398">
        <ele>211</ele>
        <time>2022-08-22T09:04:08Z</time>
      </trkpt>
      <trkpt lat="43.49275" lon="-0.45404">
        <ele>213</ele>
        <time>2022-08-22T09:04:16Z</time>
      </trkpt>
      <trkpt lat="43.49267" lon="-0.45413">
        <ele>214</ele>
        <time>2022-08-22T09:04:25Z</time>
      </trkpt>
      <trkpt lat="43.49252" lon="-0.45443">
        <ele>216</ele>
        <time>2022-08-22T09:04:49Z</time>
      </trkpt>
      <trkpt lat="43.49247" lon="-0.45446">
        <ele>216</ele>
        <time>2022-08-22T09:04:53Z</time>
      </trkpt>
      <trkpt lat="43.49239" lon="-0.45454">
        <ele>217</ele>
        <time>2022-08-22T09:05:01Z</time>
      </trkpt>
      <trkpt lat="43.49234" lon="-0.45456">
        <ele>218</ele>
        <time>2022-08-22T09:05:06Z</time>
      </trkpt>
      <trkpt lat="43.4923" lon="-0.4546">
        <ele>218</ele>
        <time>2022-08-22T09:05:10Z</time>
      </trkpt>
      <trkpt lat="43.49195" lon="-0.45482">
        <ele>221</ele>
        <time>2022-08-22T09:05:40Z</time>
      </trkpt>
      <trkpt lat="43.49184" lon="-0.45484">
        <ele>222</ele>
        <time>2022-08-22T09:05:50Z</time>
      </trkpt>
      <trkpt lat="43.49171" lon="-0.4548">
        <ele>224</ele>
        <time>2022-08-22T09:06:07Z</time>
      </trkpt>
      <trkpt lat="43.49158" lon="-0.45473">
        <ele>226</ele>
        <time>2022-08-22T09:06:20Z</time>
      </trkpt>
      <trkpt lat="43.4914" lon="-0.45467">
        <ele>228</ele>
        <time>2022-08-22T09:06:38Z</time>
      </trkpt>
      <trkpt lat="43.49131" lon="-0.45467">
        <ele>229</ele>
        <time>2022-08-22T09:06:46Z</time>
      </trkpt>
      <trkpt lat="43.49095" lon="-0.45478">
        <ele>232</ele>
        <time>2022-08-22T09:07:18Z</time>
      </trkpt>
      <trkpt lat="43.4908" lon="-0.45479">
        <ele>233</ele>
        <time>2022-08-22T09:07:30Z</time>
      </trkpt>
      <trkpt lat="43.49061" lon="-0.45475">
        <ele>234</ele>
        <time>2022-08-22T09:07:45Z</time>
      </trkpt>
      <trkpt lat="43.49047" lon="-0.45467">
        <ele>233</ele>
        <time>2022-08-22T09:07:57Z</time>
      </trkpt>
      <trkpt lat="43.49042" lon="-0.45464">
        <ele>233</ele>
        <time>2022-08-22T09:08:01Z</time>
      </trkpt>
      <trkpt lat="43.49037" lon="-0.45462">
        <ele>233</ele>
        <time>2022-08-22T09:08:05Z</time>
      </trkpt>
      <trkpt lat="43.49032" lon="-0.45459">
        <ele>234</ele>
        <time>2022-08-22T09:08:10Z</time>
      </trkpt>
      <trkpt lat="43.49028" lon="-0.45457">
        <ele>234</ele>
        <time>2022-08-22T09:08:14Z</time>
      </trkpt>
      <trkpt lat="43.49018" lon="-0.45452">
        <ele>233</ele>
        <time>2022-08-22T09:08:23Z</time>
      </trkpt>
      <trkpt lat="43.49006" lon="-0.45445">
        <ele>233</ele>
        <time>2022-08-22T09:08:34Z</time>
      </trkpt>
      <trkpt lat="43.49002" lon="-0.45442">
        <ele>233</ele>
        <time>2022-08-22T09:08:38Z</time>
      </trkpt>
      <trkpt lat="43.48994" lon="-0.45438">
        <ele>234</ele>
        <time>2022-08-22T09:08:53Z</time>
      </trkpt>
      <trkpt lat="43.48957" lon="-0.45415">
        <ele>234</ele>
        <time>2022-08-22T09:09:25Z</time>
      </trkpt>
      <trkpt lat="43.48952" lon="-0.45413">
        <ele>234</ele>
        <time>2022-08-22T09:09:29Z</time>
      </trkpt>
      <trkpt lat="43.48941" lon="-0.4541">
        <ele>234</ele>
        <time>2022-08-22T09:09:40Z</time>
      </trkpt>
      <trkpt lat="43.48931" lon="-0.45405">
        <ele>235</ele>
        <time>2022-08-22T09:09:47Z</time>
      </trkpt>
      <trkpt lat="43.48927" lon="-0.45401">
        <ele>235</ele>
        <time>2022-08-22T09:09:51Z</time>
      </trkpt>
      <trkpt lat="43.48923" lon="-0.45396">
        <ele>235</ele>
        <time>2022-08-22T09:09:55Z</time>
      </trkpt>
      <trkpt lat="43.48918" lon="-0.45393">
        <ele>235</ele>
        <time>2022-08-22T09:09:59Z</time>
      </trkpt>
      <trkpt lat="43.48903" lon="-0.45384">
        <ele>237</ele>
        <time>2022-08-22T09:10:14Z</time>
      </trkpt>
      <trkpt lat="43.48865" lon="-0.45363">
        <ele>239</ele>
        <time>2022-08-22T09:10:47Z</time>
      </trkpt>
      <trkpt lat="43.48828" lon="-0.45339">
        <ele>240</ele>
        <time>2022-08-22T09:11:19Z</time>
      </trkpt>
      <trkpt lat="43.48801" lon="-0.45307">
        <ele>240</ele>
        <time>2022-08-22T09:11:46Z</time>
      </trkpt>
      <trkpt lat="43.48792" lon="-0.45301">
        <ele>240</ele>
        <time>2022-08-22T09:11:54Z</time>
      </trkpt>
      <trkpt lat="43.48788" lon="-0.45299">
        <ele>240</ele>
        <time>2022-08-22T09:11:57Z</time>
      </trkpt>
      <trkpt lat="43.48755" lon="-0.45286">
        <ele>240</ele>
        <time>2022-08-22T09:12:25Z</time>
      </trkpt>
      <trkpt lat="43.48746" lon="-0.45278">
        <ele>240</ele>
        <time>2022-08-22T09:12:34Z</time>
      </trkpt>
      <trkpt lat="43.4873" lon="-0.45252">
        <ele>239</ele>
        <time>2022-08-22T09:12:54Z</time>
      </trkpt>
      <trkpt lat="43.48709" lon="-0.45206">
        <ele>239</ele>
        <time>2022-08-22T09:13:26Z</time>
      </trkpt>
      <trkpt lat="43.48704" lon="-0.45195">
        <ele>239</ele>
        <time>2022-08-22T09:13:34Z</time>
      </trkpt>
      <trkpt lat="43.48698" lon="-0.45185">
        <ele>239</ele>
        <time>2022-08-22T09:13:41Z</time>
      </trkpt>
      <trkpt lat="43.48669" lon="-0.45146">
        <ele>241</ele>
        <time>2022-08-22T09:14:12Z</time>
      </trkpt>
      <trkpt lat="43.48648" lon="-0.4511">
        <ele>241</ele>
        <time>2022-08-22T09:14:41Z</time>
      </trkpt>
      <trkpt lat="43.4864" lon="-0.45094">
        <ele>242</ele>
        <time>2022-08-22T09:14:53Z</time>
      </trkpt>
      <trkpt lat="43.48637" lon="-0.45088">
        <ele>241</ele>
        <time>2022-08-22T09:14:57Z</time>
      </trkpt>
      <trkpt lat="43.48614" lon="-0.45042">
        <ele>242</ele>
        <time>2022-08-22T09:15:28Z</time>
      </trkpt>
      <trkpt lat="43.4859" lon="-0.44998">
        <ele>243</ele>
        <time>2022-08-22T09:16:00Z</time>
      </trkpt>
      <trkpt lat="43.48587" lon="-0.44993">
        <ele>243</ele>
        <time>2022-08-22T09:16:04Z</time>
      </trkpt>
      <trkpt lat="43.48584" lon="-0.44988">
        <ele>243</ele>
        <time>2022-08-22T09:16:08Z</time>
      </trkpt>
      <trkpt lat="43.48558" lon="-0.44945">
        <ele>244</ele>
        <time>2022-08-22T09:16:42Z</time>
      </trkpt>
      <trkpt lat="43.48539" lon="-0.44915">
        <ele>244</ele>
        <time>2022-08-22T09:17:07Z</time>
      </trkpt>
      <trkpt lat="43.48516" lon="-0.44871">
        <ele>245</ele>
        <time>2022-08-22T09:17:40Z</time>
      </trkpt>
      <trkpt lat="43.48514" lon="-0.44865">
        <ele>245</ele>
        <time>2022-08-22T09:17:44Z</time>
      </trkpt>
      <trkpt lat="43.48511" lon="-0.4486">
        <ele>245</ele>
        <time>2022-08-22T09:17:48Z</time>
      </trkpt>
      <trkpt lat="43.48511" lon="-0.44853">
        <ele>245</ele>
        <time>2022-08-22T09:17:52Z</time>
      </trkpt>
      <trkpt lat="43.48512" lon="-0.44847">
        <ele>246</ele>
        <time>2022-08-22T09:17:56Z</time>
      </trkpt>
      <trkpt lat="43.48518" lon="-0.44836">
        <ele>246</ele>
        <time>2022-08-22T09:18:06Z</time>
      </trkpt>
      <trkpt lat="43.48522" lon="-0.44831">
        <ele>246</ele>
        <time>2022-08-22T09:18:10Z</time>
      </trkpt>
      <trkpt lat="43.48528" lon="-0.44824">
        <ele>246</ele>
        <time>2022-08-22T09:18:24Z</time>
      </trkpt>
      <trkpt lat="43.48537" lon="-0.44828">
        <ele>247</ele>
        <time>2022-08-22T09:18:36Z</time>
      </trkpt>
      <trkpt lat="43.48542" lon="-0.44831">
        <ele>247</ele>
        <time>2022-08-22T09:18:46Z</time>
      </trkpt>
      <trkpt lat="43.48542" lon="-0.44825">
        <ele>247</ele>
        <time>2022-08-22T09:21:13Z</time>
      </trkpt>
      <trkpt lat="43.48547" lon="-0.44832">
        <ele>245</ele>
        <time>2022-08-22T09:23:35Z</time>
      </trkpt>
      <trkpt lat="43.48544" lon="-0.44833">
        <ele>246</ele>
        <time>2022-08-22T09:25:42Z</time>
      </trkpt>
      <trkpt lat="43.4854" lon="-0.44827">
        <ele>246</ele>
        <time>2022-08-22T09:31:19Z</time>
      </trkpt>
      <trkpt lat="43.48536" lon="-0.44824">
        <ele>245</ele>
        <time>2022-08-22T09:31:27Z</time>
      </trkpt>
      <trkpt lat="43.48532" lon="-0.4482">
        <ele>245</ele>
        <time>2022-08-22T09:31:33Z</time>
      </trkpt>
      <trkpt lat="43.48532" lon="-0.44819">
        <ele>246</ele>
        <time>2022-08-22T09:35:10Z</time>
      </trkpt>
      <trkpt lat="43.48537" lon="-0.44825">
        <ele>246</ele>
        <time>2022-08-22T09:36:56Z</time>
      </trkpt>
      <trkpt lat="43.48533" lon="-0.44822">
        <ele>246</ele>
        <time>2022-08-22T09:37:27Z</time>
      </trkpt>
      <trkpt lat="43.48526" lon="-0.44824">
        <ele>246</ele>
        <time>2022-08-22T09:41:47Z</time>
      </trkpt>
      <trkpt lat="43.48522" lon="-0.44827">
        <ele>245</ele>
        <time>2022-08-22T09:41:52Z</time>
      </trkpt>
      <trkpt lat="43.48511" lon="-0.44842">
        <ele>245</ele>
        <time>2022-08-22T09:42:06Z</time>
      </trkpt>
      <trkpt lat="43.48502" lon="-0.44842">
        <ele>244</ele>
        <time>2022-08-22T09:42:16Z</time>
      </trkpt>
      <trkpt lat="43.48493" lon="-0.44836">
        <ele>245</ele>
        <time>2022-08-22T09:42:30Z</time>
      </trkpt>
      <trkpt lat="43.48489" lon="-0.4483">
        <ele>245</ele>
        <time>2022-08-22T09:42:36Z</time>
      </trkpt>
      <trkpt lat="43.48484" lon="-0.44828">
        <ele>246</ele>
        <time>2022-08-22T09:42:41Z</time>
      </trkpt>
      <trkpt lat="43.48469" lon="-0.44823">
        <ele>246</ele>
        <time>2022-08-22T09:42:54Z</time>
      </trkpt>
      <trkpt lat="43.48454" lon="-0.44819">
        <ele>246</ele>
        <time>2022-08-22T09:43:07Z</time>
      </trkpt>
      <trkpt lat="43.48429" lon="-0.44812">
        <ele>246</ele>
        <time>2022-08-22T09:43:29Z</time>
      </trkpt>
      <trkpt lat="43.48424" lon="-0.44814">
        <ele>246</ele>
        <time>2022-08-22T09:43:33Z</time>
      </trkpt>
      <trkpt lat="43.48419" lon="-0.44814">
        <ele>247</ele>
        <time>2022-08-22T09:43:37Z</time>
      </trkpt>
      <trkpt lat="43.4839" lon="-0.44817">
        <ele>246</ele>
        <time>2022-08-22T09:44:03Z</time>
      </trkpt>
      <trkpt lat="43.48385" lon="-0.44821">
        <ele>246</ele>
        <time>2022-08-22T09:44:07Z</time>
      </trkpt>
      <trkpt lat="43.4838" lon="-0.44833">
        <ele>246</ele>
        <time>2022-08-22T09:44:15Z</time>
      </trkpt>
      <trkpt lat="43.48375" lon="-0.44846">
        <ele>245</ele>
        <time>2022-08-22T09:44:23Z</time>
      </trkpt>
      <trkpt lat="43.48372" lon="-0.44851">
        <ele>244</ele>
        <time>2022-08-22T09:44:27Z</time>
      </trkpt>
      <trkpt lat="43.48365" lon="-0.4487">
        <ele>243</ele>
        <time>2022-08-22T09:44:39Z</time>
      </trkpt>
      <trkpt lat="43.48362" lon="-0.44885">
        <ele>243</ele>
        <time>2022-08-22T09:44:48Z</time>
      </trkpt>
      <trkpt lat="43.4836" lon="-0.44892">
        <ele>243</ele>
        <time>2022-08-22T09:44:52Z</time>
      </trkpt>
      <trkpt lat="43.48358" lon="-0.44924">
        <ele>242</ele>
        <time>2022-08-22T09:45:10Z</time>
      </trkpt>
      <trkpt lat="43.4836" lon="-0.44944">
        <ele>241</ele>
        <time>2022-08-22T09:45:22Z</time>
      </trkpt>
      <trkpt lat="43.48359" lon="-0.44952">
        <ele>241</ele>
        <time>2022-08-22T09:45:26Z</time>
      </trkpt>
      <trkpt lat="43.48363" lon="-0.45011">
        <ele>238</ele>
        <time>2022-08-22T09:45:59Z</time>
      </trkpt>
      <trkpt lat="43.48364" lon="-0.4507">
        <ele>236</ele>
        <time>2022-08-22T09:46:32Z</time>
      </trkpt>
      <trkpt lat="43.48365" lon="-0.45077">
        <ele>236</ele>
        <time>2022-08-22T09:46:36Z</time>
      </trkpt>
      <trkpt lat="43.48364" lon="-0.45085">
        <ele>236</ele>
        <time>2022-08-22T09:46:40Z</time>
      </trkpt>
      <trkpt lat="43.48369" lon="-0.45145">
        <ele>235</ele>
        <time>2022-08-22T09:47:13Z</time>
      </trkpt>
      <trkpt lat="43.48371" lon="-0.45195">
        <ele>232</ele>
        <time>2022-08-22T09:47:40Z</time>
      </trkpt>
      <trkpt lat="43.4837" lon="-0.45217">
        <ele>230</ele>
        <time>2022-08-22T09:47:51Z</time>
      </trkpt>
      <trkpt lat="43.48372" lon="-0.45248">
        <ele>228</ele>
        <time>2022-08-22T09:48:07Z</time>
      </trkpt>
      <trkpt lat="43.4837" lon="-0.45283">
        <ele>226</ele>
        <time>2022-08-22T09:48:27Z</time>
      </trkpt>
      <trkpt lat="43.48373" lon="-0.45292">
        <ele>225</ele>
        <time>2022-08-22T09:48:34Z</time>
      </trkpt>
      <trkpt lat="43.48369" lon="-0.45342">
        <ele>219</ele>
        <time>2022-08-22T09:49:06Z</time>
      </trkpt>
      <trkpt lat="43.48359" lon="-0.45399">
        <ele>217</ele>
        <time>2022-08-22T09:49:36Z</time>
      </trkpt>
      <trkpt lat="43.48359" lon="-0.45406">
        <ele>217</ele>
        <time>2022-08-22T09:49:40Z</time>
      </trkpt>
      <trkpt lat="43.48356" lon="-0.45442">
        <ele>215</ele>
        <time>2022-08-22T09:50:03Z</time>
      </trkpt>
      <trkpt lat="43.48357" lon="-0.4545">
        <ele>215</ele>
        <time>2022-08-22T09:50:10Z</time>
      </trkpt>
      <trkpt lat="43.48356" lon="-0.45458">
        <ele>215</ele>
        <time>2022-08-22T09:50:16Z</time>
      </trkpt>
      <trkpt lat="43.48353" lon="-0.45482">
        <ele>214</ele>
        <time>2022-08-22T09:50:30Z</time>
      </trkpt>
      <trkpt lat="43.48353" lon="-0.45489">
        <ele>215</ele>
        <time>2022-08-22T09:50:35Z</time>
      </trkpt>
      <trkpt lat="43.48348" lon="-0.45526">
        <ele>214</ele>
        <time>2022-08-22T09:50:56Z</time>
      </trkpt>
      <trkpt lat="43.48348" lon="-0.45533">
        <ele>214</ele>
        <time>2022-08-22T09:51:00Z</time>
      </trkpt>
      <trkpt lat="43.48347" lon="-0.45548">
        <ele>213</ele>
        <time>2022-08-22T09:51:08Z</time>
      </trkpt>
      <trkpt lat="43.48347" lon="-0.45555">
        <ele>213</ele>
        <time>2022-08-22T09:51:11Z</time>
      </trkpt>
      <trkpt lat="43.48346" lon="-0.45561">
        <ele>212</ele>
        <time>2022-08-22T09:51:14Z</time>
      </trkpt>
      <trkpt lat="43.48343" lon="-0.45622">
        <ele>210</ele>
        <time>2022-08-22T09:51:48Z</time>
      </trkpt>
      <trkpt lat="43.48334" lon="-0.45673">
        <ele>209</ele>
        <time>2022-08-22T09:52:15Z</time>
      </trkpt>
      <trkpt lat="43.48332" lon="-0.4568">
        <ele>209</ele>
        <time>2022-08-22T09:52:19Z</time>
      </trkpt>
      <trkpt lat="43.48328" lon="-0.45708">
        <ele>208</ele>
        <time>2022-08-22T09:52:35Z</time>
      </trkpt>
      <trkpt lat="43.48324" lon="-0.45723">
        <ele>207</ele>
        <time>2022-08-22T09:52:45Z</time>
      </trkpt>
      <trkpt lat="43.48314" lon="-0.45779">
        <ele>207</ele>
        <time>2022-08-22T09:53:16Z</time>
      </trkpt>
      <trkpt lat="43.48311" lon="-0.45801">
        <ele>207</ele>
        <time>2022-08-22T09:53:28Z</time>
      </trkpt>
      <trkpt lat="43.4831" lon="-0.45855">
        <ele>208</ele>
        <time>2022-08-22T09:53:59Z</time>
      </trkpt>
      <trkpt lat="43.48306" lon="-0.4589">
        <ele>207</ele>
        <time>2022-08-22T09:54:17Z</time>
      </trkpt>
      <trkpt lat="43.48302" lon="-0.45939">
        <ele>207</ele>
        <time>2022-08-22T09:54:44Z</time>
      </trkpt>
      <trkpt lat="43.4829" lon="-0.45977">
        <ele>208</ele>
        <time>2022-08-22T09:55:06Z</time>
      </trkpt>
      <trkpt lat="43.48287" lon="-0.45981">
        <ele>208</ele>
        <time>2022-08-22T09:55:10Z</time>
      </trkpt>
      <trkpt lat="43.48282" lon="-0.45985">
        <ele>208</ele>
        <time>2022-08-22T09:55:14Z</time>
      </trkpt>
      <trkpt lat="43.48263" lon="-0.4601">
        <ele>206</ele>
        <time>2022-08-22T09:55:34Z</time>
      </trkpt>
      <trkpt lat="43.48247" lon="-0.46051">
        <ele>208</ele>
        <time>2022-08-22T09:55:58Z</time>
      </trkpt>
      <trkpt lat="43.48245" lon="-0.46059">
        <ele>209</ele>
        <time>2022-08-22T09:56:02Z</time>
      </trkpt>
      <trkpt lat="43.48232" lon="-0.46103">
        <ele>208</ele>
        <time>2022-08-22T09:56:29Z</time>
      </trkpt>
      <trkpt lat="43.48226" lon="-0.46115">
        <ele>208</ele>
        <time>2022-08-22T09:56:36Z</time>
      </trkpt>
      <trkpt lat="43.48223" lon="-0.46121">
        <ele>207</ele>
        <time>2022-08-22T09:56:41Z</time>
      </trkpt>
      <trkpt lat="43.48216" lon="-0.46135">
        <ele>206</ele>
        <time>2022-08-22T09:56:50Z</time>
      </trkpt>
      <trkpt lat="43.48214" lon="-0.46142">
        <ele>206</ele>
        <time>2022-08-22T09:56:54Z</time>
      </trkpt>
      <trkpt lat="43.48213" lon="-0.46158">
        <ele>205</ele>
        <time>2022-08-22T09:57:02Z</time>
      </trkpt>
      <trkpt lat="43.48226" lon="-0.46216">
        <ele>206</ele>
        <time>2022-08-22T09:57:37Z</time>
      </trkpt>
      <trkpt lat="43.48226" lon="-0.46225">
        <ele>206</ele>
        <time>2022-08-22T09:57:41Z</time>
      </trkpt>
      <trkpt lat="43.48228" lon="-0.46245">
        <ele>206</ele>
        <time>2022-08-22T09:57:53Z</time>
      </trkpt>
      <trkpt lat="43.48227" lon="-0.46259">
        <ele>206</ele>
        <time>2022-08-22T09:58:02Z</time>
      </trkpt>
      <trkpt lat="43.48225" lon="-0.46266">
        <ele>206</ele>
        <time>2022-08-22T09:58:04Z</time>
      </trkpt>
      <trkpt lat="43.48225" lon="-0.46272">
        <ele>206</ele>
        <time>2022-08-22T09:58:08Z</time>
      </trkpt>
      <trkpt lat="43.48224" lon="-0.46279">
        <ele>206</ele>
        <time>2022-08-22T09:58:11Z</time>
      </trkpt>
      <trkpt lat="43.48221" lon="-0.4631">
        <ele>205</ele>
        <time>2022-08-22T09:58:29Z</time>
      </trkpt>
      <trkpt lat="43.48227" lon="-0.46368">
        <ele>206</ele>
        <time>2022-08-22T09:59:02Z</time>
      </trkpt>
      <trkpt lat="43.48228" lon="-0.46375">
        <ele>206</ele>
        <time>2022-08-22T09:59:06Z</time>
      </trkpt>
      <trkpt lat="43.48228" lon="-0.46383">
        <ele>206</ele>
        <time>2022-08-22T09:59:10Z</time>
      </trkpt>
      <trkpt lat="43.48228" lon="-0.4639">
        <ele>206</ele>
        <time>2022-08-22T09:59:14Z</time>
      </trkpt>
      <trkpt lat="43.48223" lon="-0.46449">
        <ele>201</ele>
        <time>2022-08-22T09:59:48Z</time>
      </trkpt>
      <trkpt lat="43.48214" lon="-0.4651">
        <ele>197</ele>
        <time>2022-08-22T10:00:19Z</time>
      </trkpt>
      <trkpt lat="43.48207" lon="-0.46538">
        <ele>195</ele>
        <time>2022-08-22T10:00:35Z</time>
      </trkpt>
      <trkpt lat="43.48205" lon="-0.46545">
        <ele>194</ele>
        <time>2022-08-22T10:00:39Z</time>
      </trkpt>
      <trkpt lat="43.48197" lon="-0.46555">
        <ele>193</ele>
        <time>2022-08-22T10:00:47Z</time>
      </trkpt>
      <trkpt lat="43.4816" lon="-0.46582">
        <ele>188</ele>
        <time>2022-08-22T10:01:19Z</time>
      </trkpt>
      <trkpt lat="43.48155" lon="-0.46585">
        <ele>187</ele>
        <time>2022-08-22T10:01:23Z</time>
      </trkpt>
      <trkpt lat="43.48117" lon="-0.46612">
        <ele>184</ele>
        <time>2022-08-22T10:01:55Z</time>
      </trkpt>
      <trkpt lat="43.48114" lon="-0.46618">
        <ele>184</ele>
        <time>2022-08-22T10:01:59Z</time>
      </trkpt>
      <trkpt lat="43.48088" lon="-0.4666">
        <ele>182</ele>
        <time>2022-08-22T10:02:30Z</time>
      </trkpt>
      <trkpt lat="43.48066" lon="-0.46706">
        <ele>178</ele>
        <time>2022-08-22T10:03:02Z</time>
      </trkpt>
      <trkpt lat="43.48058" lon="-0.46724">
        <ele>176</ele>
        <time>2022-08-22T10:03:13Z</time>
      </trkpt>
      <trkpt lat="43.48055" lon="-0.46737">
        <ele>174</ele>
        <time>2022-08-22T10:03:21Z</time>
      </trkpt>
      <trkpt lat="43.48058" lon="-0.46773">
        <ele>171</ele>
        <time>2022-08-22T10:03:41Z</time>
      </trkpt>
      <trkpt lat="43.4806" lon="-0.4678">
        <ele>171</ele>
        <time>2022-08-22T10:03:45Z</time>
      </trkpt>
      <trkpt lat="43.48066" lon="-0.46823">
        <ele>167</ele>
        <time>2022-08-22T10:04:10Z</time>
      </trkpt>
      <trkpt lat="43.48066" lon="-0.46831">
        <ele>167</ele>
        <time>2022-08-22T10:04:14Z</time>
      </trkpt>
      <trkpt lat="43.48071" lon="-0.46867">
        <ele>164</ele>
        <time>2022-08-22T10:04:33Z</time>
      </trkpt>
      <trkpt lat="43.48072" lon="-0.46889">
        <ele>163</ele>
        <time>2022-08-22T10:04:45Z</time>
      </trkpt>
      <trkpt lat="43.48073" lon="-0.46897">
        <ele>162</ele>
        <time>2022-08-22T10:04:50Z</time>
      </trkpt>
      <trkpt lat="43.48071" lon="-0.46933">
        <ele>160</ele>
        <time>2022-08-22T10:05:10Z</time>
      </trkpt>
      <trkpt lat="43.48065" lon="-0.46955">
        <ele>157</ele>
        <time>2022-08-22T10:05:22Z</time>
      </trkpt>
      <trkpt lat="43.48065" lon="-0.47007">
        <ele>151</ele>
        <time>2022-08-22T10:05:52Z</time>
      </trkpt>
      <trkpt lat="43.48063" lon="-0.47013">
        <ele>151</ele>
        <time>2022-08-22T10:05:55Z</time>
      </trkpt>
      <trkpt lat="43.48062" lon="-0.47029">
        <ele>149</ele>
        <time>2022-08-22T10:06:04Z</time>
      </trkpt>
      <trkpt lat="43.48059" lon="-0.47044">
        <ele>147</ele>
        <time>2022-08-22T10:06:12Z</time>
      </trkpt>
      <trkpt lat="43.48058" lon="-0.47051">
        <ele>146</ele>
        <time>2022-08-22T10:06:17Z</time>
      </trkpt>
      <trkpt lat="43.48055" lon="-0.47065">
        <ele>144</ele>
        <time>2022-08-22T10:06:25Z</time>
      </trkpt>
      <trkpt lat="43.48054" lon="-0.47074">
        <ele>143</ele>
        <time>2022-08-22T10:06:30Z</time>
      </trkpt>
      <trkpt lat="43.48052" lon="-0.4708">
        <ele>142</ele>
        <time>2022-08-22T10:06:34Z</time>
      </trkpt>
      <trkpt lat="43.4804" lon="-0.47107">
        <ele>139</ele>
        <time>2022-08-22T10:06:51Z</time>
      </trkpt>
      <trkpt lat="43.48037" lon="-0.47111">
        <ele>139</ele>
        <time>2022-08-22T10:06:54Z</time>
      </trkpt>
      <trkpt lat="43.48017" lon="-0.47153">
        <ele>135</ele>
        <time>2022-08-22T10:07:23Z</time>
      </trkpt>
      <trkpt lat="43.48013" lon="-0.47164">
        <ele>134</ele>
        <time>2022-08-22T10:07:34Z</time>
      </trkpt>
      <trkpt lat="43.48008" lon="-0.47168">
        <ele>134</ele>
        <time>2022-08-22T10:07:40Z</time>
      </trkpt>
      <trkpt lat="43.48001" lon="-0.4718">
        <ele>133</ele>
        <time>2022-08-22T10:07:49Z</time>
      </trkpt>
      <trkpt lat="43.48" lon="-0.47188">
        <ele>133</ele>
        <time>2022-08-22T10:07:53Z</time>
      </trkpt>
      <trkpt lat="43.47993" lon="-0.47191">
        <ele>132</ele>
        <time>2022-08-22T10:08:07Z</time>
      </trkpt>
      <trkpt lat="43.47992" lon="-0.47198">
        <ele>132</ele>
        <time>2022-08-22T10:08:49Z</time>
      </trkpt>
      <trkpt lat="43.47989" lon="-0.47206">
        <ele>133</ele>
        <time>2022-08-22T10:08:56Z</time>
      </trkpt>
      <trkpt lat="43.47985" lon="-0.47211">
        <ele>133</ele>
        <time>2022-08-22T10:09:01Z</time>
      </trkpt>
      <trkpt lat="43.47979" lon="-0.47226">
        <ele>132</ele>
        <time>2022-08-22T10:09:11Z</time>
      </trkpt>
      <trkpt lat="43.47978" lon="-0.47234">
        <ele>131</ele>
        <time>2022-08-22T10:09:20Z</time>
      </trkpt>
      <trkpt lat="43.47973" lon="-0.47242">
        <ele>130</ele>
        <time>2022-08-22T10:10:19Z</time>
      </trkpt>
      <trkpt lat="43.47961" lon="-0.4727">
        <ele>128</ele>
        <time>2022-08-22T10:10:41Z</time>
      </trkpt>
      <trkpt lat="43.47955" lon="-0.47271">
        <ele>128</ele>
        <time>2022-08-22T10:10:46Z</time>
      </trkpt>
      <trkpt lat="43.47951" lon="-0.47269">
        <ele>128</ele>
        <time>2022-08-22T10:10:51Z</time>
      </trkpt>
      <trkpt lat="43.47941" lon="-0.47257">
        <ele>128</ele>
        <time>2022-08-22T10:11:00Z</time>
      </trkpt>
      <trkpt lat="43.47936" lon="-0.47255">
        <ele>129</ele>
        <time>2022-08-22T10:11:05Z</time>
      </trkpt>
      <trkpt lat="43.4793" lon="-0.4725">
        <ele>129</ele>
        <time>2022-08-22T10:11:10Z</time>
      </trkpt>
      <trkpt lat="43.47924" lon="-0.47247">
        <ele>129</ele>
        <time>2022-08-22T10:11:16Z</time>
      </trkpt>
      <trkpt lat="43.47894" lon="-0.47218">
        <ele>132</ele>
        <time>2022-08-22T10:11:45Z</time>
      </trkpt>
      <trkpt lat="43.47889" lon="-0.47217">
        <ele>132</ele>
        <time>2022-08-22T10:11:51Z</time>
      </trkpt>
      <trkpt lat="43.4788" lon="-0.47212">
        <ele>132</ele>
        <time>2022-08-22T10:12:00Z</time>
      </trkpt>
      <trkpt lat="43.47877" lon="-0.47205">
        <ele>132</ele>
        <time>2022-08-22T10:12:10Z</time>
      </trkpt>
      <trkpt lat="43.47886" lon="-0.47196">
        <ele>133</ele>
        <time>2022-08-22T10:12:41Z</time>
      </trkpt>
      <trkpt lat="43.47883" lon="-0.47189">
        <ele>134</ele>
        <time>2022-08-22T10:12:44Z</time>
      </trkpt>
      <trkpt lat="43.47876" lon="-0.47174">
        <ele>136</ele>
        <time>2022-08-22T10:12:58Z</time>
      </trkpt>
      <trkpt lat="43.47876" lon="-0.47163">
        <ele>138</ele>
        <time>2022-08-22T10:13:06Z</time>
      </trkpt>
      <trkpt lat="43.47879" lon="-0.47158">
        <ele>140</ele>
        <time>2022-08-22T10:13:15Z</time>
      </trkpt>
      <trkpt lat="43.47888" lon="-0.47153">
        <ele>143</ele>
        <time>2022-08-22T10:13:38Z</time>
      </trkpt>
      <trkpt lat="43.47896" lon="-0.47145">
        <ele>145</ele>
        <time>2022-08-22T10:13:49Z</time>
      </trkpt>
      <trkpt lat="43.47894" lon="-0.47151">
        <ele>146</ele>
        <time>2022-08-22T10:21:40Z</time>
      </trkpt>
      <trkpt lat="43.47879" lon="-0.47157">
        <ele>144</ele>
        <time>2022-08-22T10:22:15Z</time>
      </trkpt>
      <trkpt lat="43.4787" lon="-0.4717">
        <ele>138</ele>
        <time>2022-08-22T10:22:39Z</time>
      </trkpt>
      <trkpt lat="43.47865" lon="-0.47174">
        <ele>136</ele>
        <time>2022-08-22T10:22:49Z</time>
      </trkpt>
      <trkpt lat="43.47866" lon="-0.47186">
        <ele>134</ele>
        <time>2022-08-22T10:22:58Z</time>
      </trkpt>
      <trkpt lat="43.47868" lon="-0.47192">
        <ele>134</ele>
        <time>2022-08-22T10:23:02Z</time>
      </trkpt>
      <trkpt lat="43.47869" lon="-0.47198">
        <ele>133</ele>
        <time>2022-08-22T10:23:13Z</time>
      </trkpt>
      <trkpt lat="43.47874" lon="-0.47203">
        <ele>133</ele>
        <time>2022-08-22T10:23:49Z</time>
      </trkpt>
      <trkpt lat="43.47878" lon="-0.47212">
        <ele>133</ele>
        <time>2022-08-22T10:23:58Z</time>
      </trkpt>
      <trkpt lat="43.47883" lon="-0.47213">
        <ele>133</ele>
        <time>2022-08-22T10:24:11Z</time>
      </trkpt>
      <trkpt lat="43.47883" lon="-0.47214">
        <ele>133</ele>
        <time>2022-08-22T10:26:43Z</time>
      </trkpt>
      <trkpt lat="43.47891" lon="-0.47212">
        <ele>134</ele>
        <time>2022-08-22T10:28:40Z</time>
      </trkpt>
      <trkpt lat="43.47888" lon="-0.47205">
        <ele>134</ele>
        <time>2022-08-22T10:29:01Z</time>
      </trkpt>
      <trkpt lat="43.47881" lon="-0.47209">
        <ele>133</ele>
        <time>2022-08-22T10:29:46Z</time>
      </trkpt>
      <trkpt lat="43.47884" lon="-0.47216">
        <ele>133</ele>
        <time>2022-08-22T10:31:51Z</time>
      </trkpt>
      <trkpt lat="43.47894" lon="-0.4722">
        <ele>133</ele>
        <time>2022-08-22T10:32:03Z</time>
      </trkpt>
      <trkpt lat="43.47898" lon="-0.47227">
        <ele>133</ele>
        <time>2022-08-22T10:32:11Z</time>
      </trkpt>
      <trkpt lat="43.47902" lon="-0.47231">
        <ele>132</ele>
        <time>2022-08-22T10:32:17Z</time>
      </trkpt>
      <trkpt lat="43.4792" lon="-0.47245">
        <ele>131</ele>
        <time>2022-08-22T10:32:35Z</time>
      </trkpt>
      <trkpt lat="43.47923" lon="-0.47249">
        <ele>131</ele>
        <time>2022-08-22T10:32:39Z</time>
      </trkpt>
      <trkpt lat="43.47945" lon="-0.47266">
        <ele>129</ele>
        <time>2022-08-22T10:33:04Z</time>
      </trkpt>
      <trkpt lat="43.47949" lon="-0.47272">
        <ele>129</ele>
        <time>2022-08-22T10:33:11Z</time>
      </trkpt>
      <trkpt lat="43.47952" lon="-0.47281">
        <ele>129</ele>
        <time>2022-08-22T10:33:20Z</time>
      </trkpt>
      <trkpt lat="43.47952" lon="-0.47289">
        <ele>128</ele>
        <time>2022-08-22T10:33:26Z</time>
      </trkpt>
      <trkpt lat="43.47947" lon="-0.47302">
        <ele>128</ele>
        <time>2022-08-22T10:33:38Z</time>
      </trkpt>
      <trkpt lat="43.47947" lon="-0.4731">
        <ele>127</ele>
        <time>2022-08-22T10:33:46Z</time>
      </trkpt>
      <trkpt lat="43.47944" lon="-0.47315">
        <ele>127</ele>
        <time>2022-08-22T10:33:58Z</time>
      </trkpt>
      <trkpt lat="43.47939" lon="-0.47327">
        <ele>127</ele>
        <time>2022-08-22T10:34:09Z</time>
      </trkpt>
      <trkpt lat="43.47934" lon="-0.47336">
        <ele>127</ele>
        <time>2022-08-22T10:34:28Z</time>
      </trkpt>
      <trkpt lat="43.47924" lon="-0.47369">
        <ele>126</ele>
        <time>2022-08-22T10:34:52Z</time>
      </trkpt>
      <trkpt lat="43.47922" lon="-0.47375">
        <ele>126</ele>
        <time>2022-08-22T10:34:56Z</time>
      </trkpt>
      <trkpt lat="43.47917" lon="-0.47402">
        <ele>126</ele>
        <time>2022-08-22T10:35:14Z</time>
      </trkpt>
      <trkpt lat="43.47908" lon="-0.47423">
        <ele>125</ele>
        <time>2022-08-22T10:35:34Z</time>
      </trkpt>
      <trkpt lat="43.47896" lon="-0.47444">
        <ele>125</ele>
        <time>2022-08-22T10:35:57Z</time>
      </trkpt>
      <trkpt lat="43.47893" lon="-0.47449">
        <ele>124</ele>
        <time>2022-08-22T10:36:21Z</time>
      </trkpt>
      <trkpt lat="43.47893" lon="-0.47457">
        <ele>124</ele>
        <time>2022-08-22T10:36:57Z</time>
      </trkpt>
      <trkpt lat="43.47898" lon="-0.47471">
        <ele>124</ele>
        <time>2022-08-22T10:37:20Z</time>
      </trkpt>
      <trkpt lat="43.47903" lon="-0.4749">
        <ele>124</ele>
        <time>2022-08-22T10:37:30Z</time>
      </trkpt>
      <trkpt lat="43.47909" lon="-0.4751">
        <ele>124</ele>
        <time>2022-08-22T10:37:42Z</time>
      </trkpt>
      <trkpt lat="43.4791" lon="-0.47516">
        <ele>124</ele>
        <time>2022-08-22T10:37:45Z</time>
      </trkpt>
      <trkpt lat="43.47911" lon="-0.47523">
        <ele>124</ele>
        <time>2022-08-22T10:37:49Z</time>
      </trkpt>
      <trkpt lat="43.47922" lon="-0.47562">
        <ele>122</ele>
        <time>2022-08-22T10:38:13Z</time>
      </trkpt>
      <trkpt lat="43.47925" lon="-0.4757">
        <ele>123</ele>
        <time>2022-08-22T10:38:18Z</time>
      </trkpt>
      <trkpt lat="43.47927" lon="-0.47576">
        <ele>123</ele>
        <time>2022-08-22T10:38:22Z</time>
      </trkpt>
      <trkpt lat="43.47939" lon="-0.47605">
        <ele>123</ele>
        <time>2022-08-22T10:38:40Z</time>
      </trkpt>
      <trkpt lat="43.4794" lon="-0.47611">
        <ele>123</ele>
        <time>2022-08-22T10:38:44Z</time>
      </trkpt>
      <trkpt lat="43.47958" lon="-0.47664">
        <ele>123</ele>
        <time>2022-08-22T10:39:16Z</time>
      </trkpt>
      <trkpt lat="43.47964" lon="-0.47676">
        <ele>122</ele>
        <time>2022-08-22T10:39:24Z</time>
      </trkpt>
      <trkpt lat="43.47966" lon="-0.47684">
        <ele>122</ele>
        <time>2022-08-22T10:39:28Z</time>
      </trkpt>
      <trkpt lat="43.47988" lon="-0.4773">
        <ele>122</ele>
        <time>2022-08-22T10:40:00Z</time>
      </trkpt>
      <trkpt lat="43.48011" lon="-0.47775">
        <ele>121</ele>
        <time>2022-08-22T10:40:31Z</time>
      </trkpt>
      <trkpt lat="43.48036" lon="-0.47826">
        <ele>120</ele>
        <time>2022-08-22T10:41:04Z</time>
      </trkpt>
      <trkpt lat="43.48038" lon="-0.47832">
        <ele>120</ele>
        <time>2022-08-22T10:41:08Z</time>
      </trkpt>
      <trkpt lat="43.48042" lon="-0.47838">
        <ele>120</ele>
        <time>2022-08-22T10:41:12Z</time>
      </trkpt>
      <trkpt lat="43.48055" lon="-0.4787">
        <ele>119</ele>
        <time>2022-08-22T10:41:32Z</time>
      </trkpt>
      <trkpt lat="43.48059" lon="-0.47876">
        <ele>119</ele>
        <time>2022-08-22T10:41:36Z</time>
      </trkpt>
      <trkpt lat="43.48069" lon="-0.47903">
        <ele>119</ele>
        <time>2022-08-22T10:41:52Z</time>
      </trkpt>
      <trkpt lat="43.4808" lon="-0.4792">
        <ele>119</ele>
        <time>2022-08-22T10:42:04Z</time>
      </trkpt>
      <trkpt lat="43.48083" lon="-0.47927">
        <ele>119</ele>
        <time>2022-08-22T10:42:08Z</time>
      </trkpt>
      <trkpt lat="43.48091" lon="-0.47945">
        <ele>119</ele>
        <time>2022-08-22T10:42:20Z</time>
      </trkpt>
      <trkpt lat="43.48114" lon="-0.47999">
        <ele>120</ele>
        <time>2022-08-22T10:42:55Z</time>
      </trkpt>
      <trkpt lat="43.48129" lon="-0.48027">
        <ele>120</ele>
        <time>2022-08-22T10:43:14Z</time>
      </trkpt>
      <trkpt lat="43.48134" lon="-0.48046">
        <ele>120</ele>
        <time>2022-08-22T10:43:25Z</time>
      </trkpt>
      <trkpt lat="43.48157" lon="-0.48094">
        <ele>120</ele>
        <time>2022-08-22T10:43:56Z</time>
      </trkpt>
      <trkpt lat="43.4816" lon="-0.48099">
        <ele>119</ele>
        <time>2022-08-22T10:44:00Z</time>
      </trkpt>
      <trkpt lat="43.48183" lon="-0.48151">
        <ele>119</ele>
        <time>2022-08-22T10:44:32Z</time>
      </trkpt>
      <trkpt lat="43.48197" lon="-0.48183">
        <ele>118</ele>
        <time>2022-08-22T10:44:51Z</time>
      </trkpt>
      <trkpt lat="43.48201" lon="-0.48189">
        <ele>118</ele>
        <time>2022-08-22T10:44:56Z</time>
      </trkpt>
      <trkpt lat="43.48221" lon="-0.48239">
        <ele>118</ele>
        <time>2022-08-22T10:45:27Z</time>
      </trkpt>
      <trkpt lat="43.48246" lon="-0.48294">
        <ele>116</ele>
        <time>2022-08-22T10:46:00Z</time>
      </trkpt>
      <trkpt lat="43.48267" lon="-0.48346">
        <ele>117</ele>
        <time>2022-08-22T10:46:31Z</time>
      </trkpt>
      <trkpt lat="43.48272" lon="-0.48358">
        <ele>117</ele>
        <time>2022-08-22T10:46:38Z</time>
      </trkpt>
      <trkpt lat="43.48291" lon="-0.4841">
        <ele>117</ele>
        <time>2022-08-22T10:47:09Z</time>
      </trkpt>
      <trkpt lat="43.48302" lon="-0.48434">
        <ele>117</ele>
        <time>2022-08-22T10:47:24Z</time>
      </trkpt>
      <trkpt lat="43.48306" lon="-0.48446">
        <ele>116</ele>
        <time>2022-08-22T10:47:31Z</time>
      </trkpt>
      <trkpt lat="43.48323" lon="-0.48505">
        <ele>115</ele>
        <time>2022-08-22T10:48:04Z</time>
      </trkpt>
      <trkpt lat="43.48325" lon="-0.48513">
        <ele>115</ele>
        <time>2022-08-22T10:48:08Z</time>
      </trkpt>
      <trkpt lat="43.48341" lon="-0.48551">
        <ele>115</ele>
        <time>2022-08-22T10:48:31Z</time>
      </trkpt>
      <trkpt lat="43.48353" lon="-0.48576">
        <ele>115</ele>
        <time>2022-08-22T10:48:46Z</time>
      </trkpt>
      <trkpt lat="43.48356" lon="-0.48581">
        <ele>115</ele>
        <time>2022-08-22T10:48:50Z</time>
      </trkpt>
      <trkpt lat="43.4836" lon="-0.48585">
        <ele>115</ele>
        <time>2022-08-22T10:48:53Z</time>
      </trkpt>
      <trkpt lat="43.48378" lon="-0.48612">
        <ele>115</ele>
        <time>2022-08-22T10:49:13Z</time>
      </trkpt>
      <trkpt lat="43.48385" lon="-0.48621">
        <ele>115</ele>
        <time>2022-08-22T10:49:20Z</time>
      </trkpt>
      <trkpt lat="43.4839" lon="-0.48624">
        <ele>115</ele>
        <time>2022-08-22T10:49:24Z</time>
      </trkpt>
      <trkpt lat="43.48404" lon="-0.48636">
        <ele>115</ele>
        <time>2022-08-22T10:49:35Z</time>
      </trkpt>
      <trkpt lat="43.48409" lon="-0.48638">
        <ele>116</ele>
        <time>2022-08-22T10:49:40Z</time>
      </trkpt>
      <trkpt lat="43.48447" lon="-0.48668">
        <ele>117</ele>
        <time>2022-08-22T10:50:13Z</time>
      </trkpt>
      <trkpt lat="43.48459" lon="-0.48678">
        <ele>117</ele>
        <time>2022-08-22T10:50:25Z</time>
      </trkpt>
      <trkpt lat="43.48466" lon="-0.48687">
        <ele>117</ele>
        <time>2022-08-22T10:50:32Z</time>
      </trkpt>
      <trkpt lat="43.48471" lon="-0.48699">
        <ele>117</ele>
        <time>2022-08-22T10:50:41Z</time>
      </trkpt>
      <trkpt lat="43.48497" lon="-0.48741">
        <ele>117</ele>
        <time>2022-08-22T10:51:13Z</time>
      </trkpt>
      <trkpt lat="43.48515" lon="-0.48777">
        <ele>118</ele>
        <time>2022-08-22T10:51:36Z</time>
      </trkpt>
      <trkpt lat="43.4852" lon="-0.4878">
        <ele>118</ele>
        <time>2022-08-22T10:51:40Z</time>
      </trkpt>
      <trkpt lat="43.48524" lon="-0.48784">
        <ele>118</ele>
        <time>2022-08-22T10:51:45Z</time>
      </trkpt>
      <trkpt lat="43.48529" lon="-0.48796">
        <ele>118</ele>
        <time>2022-08-22T10:51:53Z</time>
      </trkpt>
      <trkpt lat="43.48531" lon="-0.48803">
        <ele>118</ele>
        <time>2022-08-22T10:51:57Z</time>
      </trkpt>
      <trkpt lat="43.48534" lon="-0.48809">
        <ele>118</ele>
        <time>2022-08-22T10:52:01Z</time>
      </trkpt>
      <trkpt lat="43.48546" lon="-0.48842">
        <ele>118</ele>
        <time>2022-08-22T10:52:21Z</time>
      </trkpt>
      <trkpt lat="43.4857" lon="-0.48882">
        <ele>118</ele>
        <time>2022-08-22T10:52:48Z</time>
      </trkpt>
      <trkpt lat="43.48577" lon="-0.48891">
        <ele>117</ele>
        <time>2022-08-22T10:52:56Z</time>
      </trkpt>
      <trkpt lat="43.48584" lon="-0.48902">
        <ele>118</ele>
        <time>2022-08-22T10:53:04Z</time>
      </trkpt>
      <trkpt lat="43.48588" lon="-0.48908">
        <ele>118</ele>
        <time>2022-08-22T10:53:08Z</time>
      </trkpt>
      <trkpt lat="43.48591" lon="-0.48912">
        <ele>118</ele>
        <time>2022-08-22T10:53:11Z</time>
      </trkpt>
      <trkpt lat="43.48594" lon="-0.48917">
        <ele>118</ele>
        <time>2022-08-22T10:53:15Z</time>
      </trkpt>
      <trkpt lat="43.48599" lon="-0.48921">
        <ele>118</ele>
        <time>2022-08-22T10:53:19Z</time>
      </trkpt>
      <trkpt lat="43.48632" lon="-0.48956">
        <ele>116</ele>
        <time>2022-08-22T10:53:51Z</time>
      </trkpt>
      <trkpt lat="43.48636" lon="-0.48961">
        <ele>115</ele>
        <time>2022-08-22T10:53:54Z</time>
      </trkpt>
      <trkpt lat="43.48658" lon="-0.48981">
        <ele>114</ele>
        <time>2022-08-22T10:54:11Z</time>
      </trkpt>
      <trkpt lat="43.48661" lon="-0.48987">
        <ele>113</ele>
        <time>2022-08-22T10:54:15Z</time>
      </trkpt>
      <trkpt lat="43.4866" lon="-0.48994">
        <ele>113</ele>
        <time>2022-08-22T10:54:18Z</time>
      </trkpt>
      <trkpt lat="43.48656" lon="-0.48998">
        <ele>113</ele>
        <time>2022-08-22T10:54:21Z</time>
      </trkpt>
      <trkpt lat="43.48635" lon="-0.4901">
        <ele>113</ele>
        <time>2022-08-22T10:54:36Z</time>
      </trkpt>
      <trkpt lat="43.48605" lon="-0.49025">
        <ele>112</ele>
        <time>2022-08-22T10:55:03Z</time>
      </trkpt>
      <trkpt lat="43.48583" lon="-0.49047">
        <ele>112</ele>
        <time>2022-08-22T10:55:23Z</time>
      </trkpt>
      <trkpt lat="43.48574" lon="-0.49064">
        <ele>112</ele>
        <time>2022-08-22T10:55:34Z</time>
      </trkpt>
      <trkpt lat="43.4855" lon="-0.49119">
        <ele>111</ele>
        <time>2022-08-22T10:56:08Z</time>
      </trkpt>
      <trkpt lat="43.48532" lon="-0.49155">
        <ele>111</ele>
        <time>2022-08-22T10:56:30Z</time>
      </trkpt>
      <trkpt lat="43.48514" lon="-0.4918">
        <ele>110</ele>
        <time>2022-08-22T10:56:49Z</time>
      </trkpt>
      <trkpt lat="43.48478" lon="-0.49214">
        <ele>111</ele>
        <time>2022-08-22T10:57:22Z</time>
      </trkpt>
      <trkpt lat="43.48466" lon="-0.49228">
        <ele>110</ele>
        <time>2022-08-22T10:57:34Z</time>
      </trkpt>
      <trkpt lat="43.48462" lon="-0.49232">
        <ele>110</ele>
        <time>2022-08-22T10:57:38Z</time>
      </trkpt>
      <trkpt lat="43.48457" lon="-0.49235">
        <ele>110</ele>
        <time>2022-08-22T10:57:42Z</time>
      </trkpt>
      <trkpt lat="43.48421" lon="-0.49261">
        <ele>110</ele>
        <time>2022-08-22T10:58:13Z</time>
      </trkpt>
      <trkpt lat="43.48384" lon="-0.49294">
        <ele>109</ele>
        <time>2022-08-22T10:58:44Z</time>
      </trkpt>
      <trkpt lat="43.48349" lon="-0.49325">
        <ele>110</ele>
        <time>2022-08-22T10:59:16Z</time>
      </trkpt>
      <trkpt lat="43.48344" lon="-0.49328">
        <ele>110</ele>
        <time>2022-08-22T10:59:20Z</time>
      </trkpt>
      <trkpt lat="43.48335" lon="-0.49334">
        <ele>109</ele>
        <time>2022-08-22T10:59:28Z</time>
      </trkpt>
      <trkpt lat="43.48325" lon="-0.4934">
        <ele>109</ele>
        <time>2022-08-22T10:59:36Z</time>
      </trkpt>
      <trkpt lat="43.48302" lon="-0.49352">
        <ele>108</ele>
        <time>2022-08-22T10:59:58Z</time>
      </trkpt>
      <trkpt lat="43.48297" lon="-0.49357">
        <ele>108</ele>
        <time>2022-08-22T11:00:05Z</time>
      </trkpt>
      <trkpt lat="43.48293" lon="-0.4936">
        <ele>109</ele>
        <time>2022-08-22T11:00:09Z</time>
      </trkpt>
      <trkpt lat="43.4828" lon="-0.49376">
        <ele>108</ele>
        <time>2022-08-22T11:00:24Z</time>
      </trkpt>
      <trkpt lat="43.48276" lon="-0.49382">
        <ele>109</ele>
        <time>2022-08-22T11:00:30Z</time>
      </trkpt>
      <trkpt lat="43.48268" lon="-0.49401">
        <ele>109</ele>
        <time>2022-08-22T11:00:42Z</time>
      </trkpt>
      <trkpt lat="43.48267" lon="-0.49409">
        <ele>108</ele>
        <time>2022-08-22T11:00:46Z</time>
      </trkpt>
      <trkpt lat="43.48265" lon="-0.49416">
        <ele>108</ele>
        <time>2022-08-22T11:00:50Z</time>
      </trkpt>
      <trkpt lat="43.48262" lon="-0.49428">
        <ele>108</ele>
        <time>2022-08-22T11:00:57Z</time>
      </trkpt>
      <trkpt lat="43.4826" lon="-0.49434">
        <ele>108</ele>
        <time>2022-08-22T11:01:01Z</time>
      </trkpt>
      <trkpt lat="43.48256" lon="-0.49448">
        <ele>108</ele>
        <time>2022-08-22T11:01:08Z</time>
      </trkpt>
      <trkpt lat="43.48246" lon="-0.49473">
        <ele>108</ele>
        <time>2022-08-22T11:01:23Z</time>
      </trkpt>
      <trkpt lat="43.48243" lon="-0.49478">
        <ele>108</ele>
        <time>2022-08-22T11:01:27Z</time>
      </trkpt>
      <trkpt lat="43.48239" lon="-0.49484">
        <ele>108</ele>
        <time>2022-08-22T11:01:31Z</time>
      </trkpt>
      <trkpt lat="43.4821" lon="-0.49523">
        <ele>108</ele>
        <time>2022-08-22T11:02:01Z</time>
      </trkpt>
      <trkpt lat="43.482" lon="-0.49549">
        <ele>108</ele>
        <time>2022-08-22T11:02:17Z</time>
      </trkpt>
      <trkpt lat="43.48199" lon="-0.49557">
        <ele>108</ele>
        <time>2022-08-22T11:02:20Z</time>
      </trkpt>
      <trkpt lat="43.48191" lon="-0.49587">
        <ele>109</ele>
        <time>2022-08-22T11:02:38Z</time>
      </trkpt>
      <trkpt lat="43.48188" lon="-0.49602">
        <ele>109</ele>
        <time>2022-08-22T11:02:46Z</time>
      </trkpt>
      <trkpt lat="43.48185" lon="-0.49609">
        <ele>109</ele>
        <time>2022-08-22T11:02:51Z</time>
      </trkpt>
      <trkpt lat="43.48185" lon="-0.49616">
        <ele>109</ele>
        <time>2022-08-22T11:02:55Z</time>
      </trkpt>
      <trkpt lat="43.4817" lon="-0.4967">
        <ele>108</ele>
        <time>2022-08-22T11:03:27Z</time>
      </trkpt>
      <trkpt lat="43.4816" lon="-0.49704">
        <ele>107</ele>
        <time>2022-08-22T11:03:47Z</time>
      </trkpt>
      <trkpt lat="43.48153" lon="-0.49724">
        <ele>107</ele>
        <time>2022-08-22T11:03:59Z</time>
      </trkpt>
      <trkpt lat="43.48147" lon="-0.49756">
        <ele>107</ele>
        <time>2022-08-22T11:04:16Z</time>
      </trkpt>
      <trkpt lat="43.48147" lon="-0.49763">
        <ele>107</ele>
        <time>2022-08-22T11:04:20Z</time>
      </trkpt>
      <trkpt lat="43.48162" lon="-0.49816">
        <ele>107</ele>
        <time>2022-08-22T11:04:51Z</time>
      </trkpt>
      <trkpt lat="43.48164" lon="-0.4983">
        <ele>107</ele>
        <time>2022-08-22T11:04:59Z</time>
      </trkpt>
      <trkpt lat="43.48167" lon="-0.49887">
        <ele>108</ele>
        <time>2022-08-22T11:05:30Z</time>
      </trkpt>
      <trkpt lat="43.48168" lon="-0.49909">
        <ele>108</ele>
        <time>2022-08-22T11:05:41Z</time>
      </trkpt>
      <trkpt lat="43.48182" lon="-0.49966">
        <ele>108</ele>
        <time>2022-08-22T11:06:15Z</time>
      </trkpt>
      <trkpt lat="43.48184" lon="-0.49973">
        <ele>108</ele>
        <time>2022-08-22T11:06:19Z</time>
      </trkpt>
      <trkpt lat="43.48187" lon="-0.5001">
        <ele>109</ele>
        <time>2022-08-22T11:06:39Z</time>
      </trkpt>
      <trkpt lat="43.48186" lon="-0.50017">
        <ele>109</ele>
        <time>2022-08-22T11:06:43Z</time>
      </trkpt>
      <trkpt lat="43.48182" lon="-0.50047">
        <ele>109</ele>
        <time>2022-08-22T11:06:59Z</time>
      </trkpt>
      <trkpt lat="43.48181" lon="-0.50053">
        <ele>109</ele>
        <time>2022-08-22T11:07:02Z</time>
      </trkpt>
      <trkpt lat="43.48181" lon="-0.50067">
        <ele>109</ele>
        <time>2022-08-22T11:07:10Z</time>
      </trkpt>
      <trkpt lat="43.48178" lon="-0.50087">
        <ele>110</ele>
        <time>2022-08-22T11:07:21Z</time>
      </trkpt>
      <trkpt lat="43.48176" lon="-0.50137">
        <ele>111</ele>
        <time>2022-08-22T11:07:49Z</time>
      </trkpt>
      <trkpt lat="43.4818" lon="-0.50159">
        <ele>112</ele>
        <time>2022-08-22T11:08:01Z</time>
      </trkpt>
      <trkpt lat="43.48186" lon="-0.50172">
        <ele>113</ele>
        <time>2022-08-22T11:08:11Z</time>
      </trkpt>
      <trkpt lat="43.48218" lon="-0.50209">
        <ele>116</ele>
        <time>2022-08-22T11:08:44Z</time>
      </trkpt>
      <trkpt lat="43.48228" lon="-0.50232">
        <ele>119</ele>
        <time>2022-08-22T11:08:59Z</time>
      </trkpt>
      <trkpt lat="43.48229" lon="-0.50239">
        <ele>120</ele>
        <time>2022-08-22T11:09:04Z</time>
      </trkpt>
      <trkpt lat="43.48225" lon="-0.5025">
        <ele>121</ele>
        <time>2022-08-22T11:09:13Z</time>
      </trkpt>
      <trkpt lat="43.48217" lon="-0.50258">
        <ele>122</ele>
        <time>2022-08-22T11:09:21Z</time>
      </trkpt>
      <trkpt lat="43.48184" lon="-0.50284">
        <ele>127</ele>
        <time>2022-08-22T11:09:53Z</time>
      </trkpt>
      <trkpt lat="43.48179" lon="-0.50289">
        <ele>127</ele>
        <time>2022-08-22T11:09:58Z</time>
      </trkpt>
      <trkpt lat="43.48174" lon="-0.50291">
        <ele>128</ele>
        <time>2022-08-22T11:10:03Z</time>
      </trkpt>
      <trkpt lat="43.48161" lon="-0.50307">
        <ele>130</ele>
        <time>2022-08-22T11:10:24Z</time>
      </trkpt>
      <trkpt lat="43.48158" lon="-0.50313">
        <ele>131</ele>
        <time>2022-08-22T11:10:29Z</time>
      </trkpt>
      <trkpt lat="43.4815" lon="-0.50313">
        <ele>132</ele>
        <time>2022-08-22T11:10:44Z</time>
      </trkpt>
      <trkpt lat="43.48145" lon="-0.50313">
        <ele>132</ele>
        <time>2022-08-22T11:10:48Z</time>
      </trkpt>
      <trkpt lat="43.48125" lon="-0.50322">
        <ele>132</ele>
        <time>2022-08-22T11:11:06Z</time>
      </trkpt>
      <trkpt lat="43.48086" lon="-0.50328">
        <ele>132</ele>
        <time>2022-08-22T11:11:37Z</time>
      </trkpt>
      <trkpt lat="43.4808" lon="-0.50329">
        <ele>132</ele>
        <time>2022-08-22T11:11:41Z</time>
      </trkpt>
      <trkpt lat="43.48072" lon="-0.50334">
        <ele>132</ele>
        <time>2022-08-22T11:11:50Z</time>
      </trkpt>
      <trkpt lat="43.4805" lon="-0.50335">
        <ele>132</ele>
        <time>2022-08-22T11:12:07Z</time>
      </trkpt>
      <trkpt lat="43.48035" lon="-0.50339">
        <ele>133</ele>
        <time>2022-08-22T11:12:20Z</time>
      </trkpt>
      <trkpt lat="43.48031" lon="-0.50342">
        <ele>133</ele>
        <time>2022-08-22T11:12:24Z</time>
      </trkpt>
      <trkpt lat="43.48026" lon="-0.50343">
        <ele>133</ele>
        <time>2022-08-22T11:12:49Z</time>
      </trkpt>
      <trkpt lat="43.48021" lon="-0.50345">
        <ele>133</ele>
        <time>2022-08-22T11:12:54Z</time>
      </trkpt>
      <trkpt lat="43.48023" lon="-0.50356">
        <ele>133</ele>
        <time>2022-08-22T11:13:24Z</time>
      </trkpt>
      <trkpt lat="43.48022" lon="-0.50365">
        <ele>133</ele>
        <time>2022-08-22T11:13:29Z</time>
      </trkpt>
      <trkpt lat="43.4801" lon="-0.50416">
        <ele>134</ele>
        <time>2022-08-22T11:13:57Z</time>
      </trkpt>
      <trkpt lat="43.48007" lon="-0.50423">
        <ele>134</ele>
        <time>2022-08-22T11:14:01Z</time>
      </trkpt>
      <trkpt lat="43.48004" lon="-0.50436">
        <ele>134</ele>
        <time>2022-08-22T11:14:09Z</time>
      </trkpt>
      <trkpt lat="43.4799" lon="-0.50467">
        <ele>135</ele>
        <time>2022-08-22T11:14:29Z</time>
      </trkpt>
      <trkpt lat="43.47979" lon="-0.50489">
        <ele>134</ele>
        <time>2022-08-22T11:14:45Z</time>
      </trkpt>
      <trkpt lat="43.47977" lon="-0.50496">
        <ele>134</ele>
        <time>2022-08-22T11:14:49Z</time>
      </trkpt>
      <trkpt lat="43.47975" lon="-0.50503">
        <ele>134</ele>
        <time>2022-08-22T11:14:53Z</time>
      </trkpt>
      <trkpt lat="43.47975" lon="-0.50509">
        <ele>134</ele>
        <time>2022-08-22T11:14:57Z</time>
      </trkpt>
      <trkpt lat="43.47973" lon="-0.50525">
        <ele>135</ele>
        <time>2022-08-22T11:15:07Z</time>
      </trkpt>
      <trkpt lat="43.4797" lon="-0.50531">
        <ele>135</ele>
        <time>2022-08-22T11:15:11Z</time>
      </trkpt>
      <trkpt lat="43.47972" lon="-0.50546">
        <ele>135</ele>
        <time>2022-08-22T11:15:19Z</time>
      </trkpt>
      <trkpt lat="43.47977" lon="-0.50567">
        <ele>135</ele>
        <time>2022-08-22T11:15:30Z</time>
      </trkpt>
      <trkpt lat="43.47977" lon="-0.50573">
        <ele>135</ele>
        <time>2022-08-22T11:15:34Z</time>
      </trkpt>
      <trkpt lat="43.47984" lon="-0.50592">
        <ele>135</ele>
        <time>2022-08-22T11:15:46Z</time>
      </trkpt>
      <trkpt lat="43.47986" lon="-0.50606">
        <ele>135</ele>
        <time>2022-08-22T11:15:54Z</time>
      </trkpt>
      <trkpt lat="43.47986" lon="-0.50614">
        <ele>135</ele>
        <time>2022-08-22T11:15:58Z</time>
      </trkpt>
      <trkpt lat="43.47983" lon="-0.50633">
        <ele>135</ele>
        <time>2022-08-22T11:16:08Z</time>
      </trkpt>
      <trkpt lat="43.47977" lon="-0.50645">
        <ele>135</ele>
        <time>2022-08-22T11:16:16Z</time>
      </trkpt>
      <trkpt lat="43.47966" lon="-0.50662">
        <ele>136</ele>
        <time>2022-08-22T11:16:28Z</time>
      </trkpt>
      <trkpt lat="43.47932" lon="-0.50697">
        <ele>136</ele>
        <time>2022-08-22T11:17:01Z</time>
      </trkpt>
      <trkpt lat="43.47928" lon="-0.507">
        <ele>136</ele>
        <time>2022-08-22T11:17:05Z</time>
      </trkpt>
      <trkpt lat="43.47924" lon="-0.50706">
        <ele>136</ele>
        <time>2022-08-22T11:17:09Z</time>
      </trkpt>
      <trkpt lat="43.47895" lon="-0.50738">
        <ele>136</ele>
        <time>2022-08-22T11:17:36Z</time>
      </trkpt>
      <trkpt lat="43.47889" lon="-0.50749">
        <ele>136</ele>
        <time>2022-08-22T11:17:44Z</time>
      </trkpt>
      <trkpt lat="43.47887" lon="-0.50762">
        <ele>136</ele>
        <time>2022-08-22T11:17:51Z</time>
      </trkpt>
      <trkpt lat="43.47887" lon="-0.50769">
        <ele>136</ele>
        <time>2022-08-22T11:17:56Z</time>
      </trkpt>
      <trkpt lat="43.47893" lon="-0.50779">
        <ele>136</ele>
        <time>2022-08-22T11:18:34Z</time>
      </trkpt>
      <trkpt lat="43.47912" lon="-0.50832">
        <ele>136</ele>
        <time>2022-08-22T11:19:06Z</time>
      </trkpt>
      <trkpt lat="43.47935" lon="-0.50884">
        <ele>136</ele>
        <time>2022-08-22T11:19:37Z</time>
      </trkpt>
      <trkpt lat="43.47939" lon="-0.50897">
        <ele>136</ele>
        <time>2022-08-22T11:19:45Z</time>
      </trkpt>
      <trkpt lat="43.47942" lon="-0.50902">
        <ele>136</ele>
        <time>2022-08-22T11:19:49Z</time>
      </trkpt>
      <trkpt lat="43.47962" lon="-0.50959">
        <ele>136</ele>
        <time>2022-08-22T11:20:20Z</time>
      </trkpt>
      <trkpt lat="43.47965" lon="-0.50965">
        <ele>136</ele>
        <time>2022-08-22T11:20:24Z</time>
      </trkpt>
      <trkpt lat="43.47977" lon="-0.50997">
        <ele>135</ele>
        <time>2022-08-22T11:20:43Z</time>
      </trkpt>
      <trkpt lat="43.47981" lon="-0.51003">
        <ele>135</ele>
        <time>2022-08-22T11:20:47Z</time>
      </trkpt>
      <trkpt lat="43.4799" lon="-0.51029">
        <ele>135</ele>
        <time>2022-08-22T11:21:03Z</time>
      </trkpt>
      <trkpt lat="43.47991" lon="-0.51037">
        <ele>135</ele>
        <time>2022-08-22T11:21:07Z</time>
      </trkpt>
      <trkpt lat="43.48011" lon="-0.51086">
        <ele>135</ele>
        <time>2022-08-22T11:21:39Z</time>
      </trkpt>
      <trkpt lat="43.48017" lon="-0.51107">
        <ele>135</ele>
        <time>2022-08-22T11:21:51Z</time>
      </trkpt>
      <trkpt lat="43.48018" lon="-0.51113">
        <ele>135</ele>
        <time>2022-08-22T11:21:55Z</time>
      </trkpt>
      <trkpt lat="43.48019" lon="-0.51121">
        <ele>135</ele>
        <time>2022-08-22T11:22:00Z</time>
      </trkpt>
      <trkpt lat="43.48019" lon="-0.51127">
        <ele>135</ele>
        <time>2022-08-22T11:22:04Z</time>
      </trkpt>
      <trkpt lat="43.48018" lon="-0.51134">
        <ele>134</ele>
        <time>2022-08-22T11:22:08Z</time>
      </trkpt>
      <trkpt lat="43.48019" lon="-0.51156">
        <ele>134</ele>
        <time>2022-08-22T11:22:20Z</time>
      </trkpt>
      <trkpt lat="43.4802" lon="-0.51162">
        <ele>134</ele>
        <time>2022-08-22T11:22:23Z</time>
      </trkpt>
      <trkpt lat="43.48034" lon="-0.51202">
        <ele>134</ele>
        <time>2022-08-22T11:22:47Z</time>
      </trkpt>
      <trkpt lat="43.48036" lon="-0.51208">
        <ele>134</ele>
        <time>2022-08-22T11:22:51Z</time>
      </trkpt>
      <trkpt lat="43.48048" lon="-0.51221">
        <ele>134</ele>
        <time>2022-08-22T11:23:02Z</time>
      </trkpt>
      <trkpt lat="43.48084" lon="-0.51253">
        <ele>134</ele>
        <time>2022-08-22T11:23:34Z</time>
      </trkpt>
      <trkpt lat="43.48101" lon="-0.51268">
        <ele>134</ele>
        <time>2022-08-22T11:23:49Z</time>
      </trkpt>
      <trkpt lat="43.48136" lon="-0.51303">
        <ele>135</ele>
        <time>2022-08-22T11:24:20Z</time>
      </trkpt>
      <trkpt lat="43.4815" lon="-0.51314">
        <ele>134</ele>
        <time>2022-08-22T11:24:32Z</time>
      </trkpt>
      <trkpt lat="43.48158" lon="-0.51324">
        <ele>134</ele>
        <time>2022-08-22T11:24:40Z</time>
      </trkpt>
      <trkpt lat="43.48168" lon="-0.51331">
        <ele>134</ele>
        <time>2022-08-22T11:24:48Z</time>
      </trkpt>
      <trkpt lat="43.48176" lon="-0.5134">
        <ele>134</ele>
        <time>2022-08-22T11:24:56Z</time>
      </trkpt>
      <trkpt lat="43.48184" lon="-0.51347">
        <ele>134</ele>
        <time>2022-08-22T11:25:03Z</time>
      </trkpt>
      <trkpt lat="43.48217" lon="-0.51385">
        <ele>133</ele>
        <time>2022-08-22T11:25:35Z</time>
      </trkpt>
      <trkpt lat="43.48234" lon="-0.51402">
        <ele>134</ele>
        <time>2022-08-22T11:25:51Z</time>
      </trkpt>
      <trkpt lat="43.48268" lon="-0.51433">
        <ele>134</ele>
        <time>2022-08-22T11:26:21Z</time>
      </trkpt>
      <trkpt lat="43.48278" lon="-0.5144">
        <ele>133</ele>
        <time>2022-08-22T11:26:29Z</time>
      </trkpt>
      <trkpt lat="43.48312" lon="-0.51469">
        <ele>133</ele>
        <time>2022-08-22T11:27:01Z</time>
      </trkpt>
      <trkpt lat="43.48348" lon="-0.51498">
        <ele>133</ele>
        <time>2022-08-22T11:27:34Z</time>
      </trkpt>
      <trkpt lat="43.4836" lon="-0.5151">
        <ele>132</ele>
        <time>2022-08-22T11:27:44Z</time>
      </trkpt>
      <trkpt lat="43.48362" lon="-0.51516">
        <ele>132</ele>
        <time>2022-08-22T11:27:48Z</time>
      </trkpt>
      <trkpt lat="43.4836" lon="-0.51523">
        <ele>133</ele>
        <time>2022-08-22T11:27:52Z</time>
      </trkpt>
      <trkpt lat="43.48358" lon="-0.51528">
        <ele>133</ele>
        <time>2022-08-22T11:27:55Z</time>
      </trkpt>
      <trkpt lat="43.48355" lon="-0.51534">
        <ele>133</ele>
        <time>2022-08-22T11:27:59Z</time>
      </trkpt>
      <trkpt lat="43.4834" lon="-0.51561">
        <ele>133</ele>
        <time>2022-08-22T11:28:17Z</time>
      </trkpt>
      <trkpt lat="43.48337" lon="-0.51567">
        <ele>133</ele>
        <time>2022-08-22T11:28:21Z</time>
      </trkpt>
      <trkpt lat="43.4833" lon="-0.51577">
        <ele>133</ele>
        <time>2022-08-22T11:28:29Z</time>
      </trkpt>
      <trkpt lat="43.48323" lon="-0.51587">
        <ele>133</ele>
        <time>2022-08-22T11:28:37Z</time>
      </trkpt>
      <trkpt lat="43.48319" lon="-0.51592">
        <ele>133</ele>
        <time>2022-08-22T11:28:42Z</time>
      </trkpt>
      <trkpt lat="43.48313" lon="-0.51604">
        <ele>132</ele>
        <time>2022-08-22T11:28:49Z</time>
      </trkpt>
      <trkpt lat="43.48309" lon="-0.51609">
        <ele>133</ele>
        <time>2022-08-22T11:28:53Z</time>
      </trkpt>
      <trkpt lat="43.48276" lon="-0.51655">
        <ele>131</ele>
        <time>2022-08-22T11:29:28Z</time>
      </trkpt>
      <trkpt lat="43.48267" lon="-0.51671">
        <ele>130</ele>
        <time>2022-08-22T11:29:42Z</time>
      </trkpt>
      <trkpt lat="43.48264" lon="-0.51675">
        <ele>129</ele>
        <time>2022-08-22T11:29:46Z</time>
      </trkpt>
      <trkpt lat="43.48258" lon="-0.51686">
        <ele>128</ele>
        <time>2022-08-22T11:29:53Z</time>
      </trkpt>
      <trkpt lat="43.48253" lon="-0.51691">
        <ele>127</ele>
        <time>2022-08-22T11:29:57Z</time>
      </trkpt>
      <trkpt lat="43.48228" lon="-0.51731">
        <ele>124</ele>
        <time>2022-08-22T11:30:26Z</time>
      </trkpt>
      <trkpt lat="43.48224" lon="-0.51733">
        <ele>124</ele>
        <time>2022-08-22T11:30:31Z</time>
      </trkpt>
      <trkpt lat="43.4821" lon="-0.51753">
        <ele>122</ele>
        <time>2022-08-22T11:30:45Z</time>
      </trkpt>
      <trkpt lat="43.48205" lon="-0.51756">
        <ele>122</ele>
        <time>2022-08-22T11:30:48Z</time>
      </trkpt>
      <trkpt lat="43.48203" lon="-0.51763">
        <ele>121</ele>
        <time>2022-08-22T11:30:52Z</time>
      </trkpt>
      <trkpt lat="43.48184" lon="-0.51788">
        <ele>120</ele>
        <time>2022-08-22T11:31:10Z</time>
      </trkpt>
      <trkpt lat="43.48166" lon="-0.51824">
        <ele>117</ele>
        <time>2022-08-22T11:31:34Z</time>
      </trkpt>
      <trkpt lat="43.48165" lon="-0.51831">
        <ele>116</ele>
        <time>2022-08-22T11:31:39Z</time>
      </trkpt>
      <trkpt lat="43.48168" lon="-0.51837">
        <ele>116</ele>
        <time>2022-08-22T11:31:45Z</time>
      </trkpt>
      <trkpt lat="43.48174" lon="-0.51835">
        <ele>115</ele>
        <time>2022-08-22T11:31:50Z</time>
      </trkpt>
      <trkpt lat="43.4818" lon="-0.51835">
        <ele>115</ele>
        <time>2022-08-22T11:31:54Z</time>
      </trkpt>
      <trkpt lat="43.48185" lon="-0.51835">
        <ele>115</ele>
        <time>2022-08-22T11:31:59Z</time>
      </trkpt>
      <trkpt lat="43.48191" lon="-0.51834">
        <ele>115</ele>
        <time>2022-08-22T11:32:03Z</time>
      </trkpt>
      <trkpt lat="43.48202" lon="-0.51827">
        <ele>115</ele>
        <time>2022-08-22T11:32:13Z</time>
      </trkpt>
      <trkpt lat="43.48209" lon="-0.51825">
        <ele>114</ele>
        <time>2022-08-22T11:32:19Z</time>
      </trkpt>
      <trkpt lat="43.48215" lon="-0.51827">
        <ele>114</ele>
        <time>2022-08-22T11:32:23Z</time>
      </trkpt>
      <trkpt lat="43.4823" lon="-0.51839">
        <ele>113</ele>
        <time>2022-08-22T11:32:36Z</time>
      </trkpt>
      <trkpt lat="43.48237" lon="-0.51843">
        <ele>114</ele>
        <time>2022-08-22T11:32:41Z</time>
      </trkpt>
      <trkpt lat="43.48261" lon="-0.51838">
        <ele>113</ele>
        <time>2022-08-22T11:32:57Z</time>
      </trkpt>
      <trkpt lat="43.48282" lon="-0.51821">
        <ele>113</ele>
        <time>2022-08-22T11:33:15Z</time>
      </trkpt>
      <trkpt lat="43.48289" lon="-0.5182">
        <ele>113</ele>
        <time>2022-08-22T11:33:18Z</time>
      </trkpt>
      <trkpt lat="43.48294" lon="-0.51817">
        <ele>113</ele>
        <time>2022-08-22T11:33:21Z</time>
      </trkpt>
      <trkpt lat="43.48306" lon="-0.51817">
        <ele>113</ele>
        <time>2022-08-22T11:33:28Z</time>
      </trkpt>
      <trkpt lat="43.48319" lon="-0.51824">
        <ele>113</ele>
        <time>2022-08-22T11:33:41Z</time>
      </trkpt>
      <trkpt lat="43.4833" lon="-0.51825">
        <ele>112</ele>
        <time>2022-08-22T11:33:49Z</time>
      </trkpt>
      <trkpt lat="43.4837" lon="-0.51814">
        <ele>112</ele>
        <time>2022-08-22T11:34:20Z</time>
      </trkpt>
      <trkpt lat="43.48365" lon="-0.51813">
        <ele>112</ele>
        <time>2022-08-22T11:34:46Z</time>
      </trkpt>
      <trkpt lat="43.48361" lon="-0.51813">
        <ele>112</ele>
        <time>2022-08-22T11:34:50Z</time>
      </trkpt>
      <trkpt lat="43.4834" lon="-0.51815">
        <ele>112</ele>
        <time>2022-08-22T11:35:05Z</time>
      </trkpt>
      <trkpt lat="43.48329" lon="-0.51821">
        <ele>112</ele>
        <time>2022-08-22T11:35:15Z</time>
      </trkpt>
      <trkpt lat="43.48324" lon="-0.51823">
        <ele>112</ele>
        <time>2022-08-22T11:35:18Z</time>
      </trkpt>
      <trkpt lat="43.48319" lon="-0.51824">
        <ele>113</ele>
        <time>2022-08-22T11:35:23Z</time>
      </trkpt>
      <trkpt lat="43.48304" lon="-0.51813">
        <ele>113</ele>
        <time>2022-08-22T11:35:36Z</time>
      </trkpt>
      <trkpt lat="43.48298" lon="-0.51811">
        <ele>113</ele>
        <time>2022-08-22T11:35:41Z</time>
      </trkpt>
      <trkpt lat="43.48288" lon="-0.51817">
        <ele>113</ele>
        <time>2022-08-22T11:35:51Z</time>
      </trkpt>
      <trkpt lat="43.48284" lon="-0.5182">
        <ele>113</ele>
        <time>2022-08-22T11:35:55Z</time>
      </trkpt>
      <trkpt lat="43.48279" lon="-0.51822">
        <ele>113</ele>
        <time>2022-08-22T11:36:00Z</time>
      </trkpt>
      <trkpt lat="43.48273" lon="-0.51823">
        <ele>113</ele>
        <time>2022-08-22T11:36:05Z</time>
      </trkpt>
      <trkpt lat="43.48269" lon="-0.51825">
        <ele>113</ele>
        <time>2022-08-22T11:36:09Z</time>
      </trkpt>
      <trkpt lat="43.48264" lon="-0.51826">
        <ele>113</ele>
        <time>2022-08-22T11:36:14Z</time>
      </trkpt>
      <trkpt lat="43.48253" lon="-0.51832">
        <ele>114</ele>
        <time>2022-08-22T11:36:23Z</time>
      </trkpt>
      <trkpt lat="43.48248" lon="-0.51831">
        <ele>114</ele>
        <time>2022-08-22T11:36:27Z</time>
      </trkpt>
      <trkpt lat="43.48232" lon="-0.51823">
        <ele>114</ele>
        <time>2022-08-22T11:36:42Z</time>
      </trkpt>
      <trkpt lat="43.48228" lon="-0.5182">
        <ele>114</ele>
        <time>2022-08-22T11:36:46Z</time>
      </trkpt>
      <trkpt lat="43.48223" lon="-0.51819">
        <ele>114</ele>
        <time>2022-08-22T11:36:51Z</time>
      </trkpt>
      <trkpt lat="43.48218" lon="-0.51827">
        <ele>114</ele>
        <time>2022-08-22T11:37:01Z</time>
      </trkpt>
      <trkpt lat="43.48216" lon="-0.51835">
        <ele>114</ele>
        <time>2022-08-22T11:37:05Z</time>
      </trkpt>
      <trkpt lat="43.48217" lon="-0.51851">
        <ele>114</ele>
        <time>2022-08-22T11:37:13Z</time>
      </trkpt>
      <trkpt lat="43.48218" lon="-0.51858">
        <ele>114</ele>
        <time>2022-08-22T11:37:17Z</time>
      </trkpt>
      <trkpt lat="43.48219" lon="-0.51865">
        <ele>115</ele>
        <time>2022-08-22T11:37:21Z</time>
      </trkpt>
      <trkpt lat="43.4822" lon="-0.51873">
        <ele>115</ele>
        <time>2022-08-22T11:37:25Z</time>
      </trkpt>
      <trkpt lat="43.48221" lon="-0.51886">
        <ele>115</ele>
        <time>2022-08-22T11:37:33Z</time>
      </trkpt>
      <trkpt lat="43.48222" lon="-0.51894">
        <ele>114</ele>
        <time>2022-08-22T11:37:38Z</time>
      </trkpt>
      <trkpt lat="43.48222" lon="-0.51901">
        <ele>114</ele>
        <time>2022-08-22T11:37:42Z</time>
      </trkpt>
      <trkpt lat="43.48226" lon="-0.51916">
        <ele>115</ele>
        <time>2022-08-22T11:37:51Z</time>
      </trkpt>
      <trkpt lat="43.48228" lon="-0.51938">
        <ele>116</ele>
        <time>2022-08-22T11:38:04Z</time>
      </trkpt>
      <trkpt lat="43.48236" lon="-0.51974">
        <ele>120</ele>
        <time>2022-08-22T11:38:29Z</time>
      </trkpt>
      <trkpt lat="43.48247" lon="-0.51985">
        <ele>123</ele>
        <time>2022-08-22T11:38:44Z</time>
      </trkpt>
      <trkpt lat="43.48252" lon="-0.52004">
        <ele>128</ele>
        <time>2022-08-22T11:39:20Z</time>
      </trkpt>
      <trkpt lat="43.48252" lon="-0.52012">
        <ele>129</ele>
        <time>2022-08-22T11:39:26Z</time>
      </trkpt>
      <trkpt lat="43.48247" lon="-0.52035">
        <ele>132</ele>
        <time>2022-08-22T11:39:42Z</time>
      </trkpt>
      <trkpt lat="43.48245" lon="-0.52056">
        <ele>133</ele>
        <time>2022-08-22T11:39:55Z</time>
      </trkpt>
      <trkpt lat="43.48245" lon="-0.5207">
        <ele>133</ele>
        <time>2022-08-22T11:40:04Z</time>
      </trkpt>
      <trkpt lat="43.48253" lon="-0.52113">
        <ele>134</ele>
        <time>2022-08-22T11:40:29Z</time>
      </trkpt>
      <trkpt lat="43.48252" lon="-0.52119">
        <ele>134</ele>
        <time>2022-08-22T11:40:38Z</time>
      </trkpt>
      <trkpt lat="43.48253" lon="-0.5213">
        <ele>135</ele>
        <time>2022-08-22T11:40:50Z</time>
      </trkpt>
      <trkpt lat="43.48257" lon="-0.52139">
        <ele>135</ele>
        <time>2022-08-22T11:41:01Z</time>
      </trkpt>
      <trkpt lat="43.48254" lon="-0.52148">
        <ele>135</ele>
        <time>2022-08-22T11:41:26Z</time>
      </trkpt>
      <trkpt lat="43.48257" lon="-0.52154">
        <ele>136</ele>
        <time>2022-08-22T11:42:52Z</time>
      </trkpt>
      <trkpt lat="43.4826" lon="-0.52159">
        <ele>136</ele>
        <time>2022-08-22T11:42:57Z</time>
      </trkpt>
      <trkpt lat="43.48264" lon="-0.52161">
        <ele>136</ele>
        <time>2022-08-22T11:43:03Z</time>
      </trkpt>
      <trkpt lat="43.48268" lon="-0.52167">
        <ele>136</ele>
        <time>2022-08-22T11:43:08Z</time>
      </trkpt>
      <trkpt lat="43.48275" lon="-0.52193">
        <ele>136</ele>
        <time>2022-08-22T11:43:25Z</time>
      </trkpt>
      <trkpt lat="43.48278" lon="-0.52198">
        <ele>136</ele>
        <time>2022-08-22T11:43:30Z</time>
      </trkpt>
      <trkpt lat="43.4828" lon="-0.52205">
        <ele>136</ele>
        <time>2022-08-22T11:43:34Z</time>
      </trkpt>
      <trkpt lat="43.48281" lon="-0.5222">
        <ele>136</ele>
        <time>2022-08-22T11:43:42Z</time>
      </trkpt>
      <trkpt lat="43.48284" lon="-0.52226">
        <ele>136</ele>
        <time>2022-08-22T11:43:46Z</time>
      </trkpt>
      <trkpt lat="43.48288" lon="-0.52233">
        <ele>136</ele>
        <time>2022-08-22T11:43:58Z</time>
      </trkpt>
      <trkpt lat="43.4829" lon="-0.5224">
        <ele>136</ele>
        <time>2022-08-22T11:44:02Z</time>
      </trkpt>
      <trkpt lat="43.4829" lon="-0.52246">
        <ele>136</ele>
        <time>2022-08-22T11:44:06Z</time>
      </trkpt>
      <trkpt lat="43.48294" lon="-0.52282">
        <ele>135</ele>
        <time>2022-08-22T11:44:27Z</time>
      </trkpt>
      <trkpt lat="43.48312" lon="-0.52334">
        <ele>135</ele>
        <time>2022-08-22T11:44:58Z</time>
      </trkpt>
      <trkpt lat="43.48325" lon="-0.52356">
        <ele>135</ele>
        <time>2022-08-22T11:45:13Z</time>
      </trkpt>
      <trkpt lat="43.48327" lon="-0.52363">
        <ele>135</ele>
        <time>2022-08-22T11:45:17Z</time>
      </trkpt>
      <trkpt lat="43.48339" lon="-0.52384">
        <ele>135</ele>
        <time>2022-08-22T11:45:32Z</time>
      </trkpt>
      <trkpt lat="43.48343" lon="-0.52389">
        <ele>135</ele>
        <time>2022-08-22T11:45:36Z</time>
      </trkpt>
      <trkpt lat="43.48375" lon="-0.5243">
        <ele>135</ele>
        <time>2022-08-22T11:46:08Z</time>
      </trkpt>
      <trkpt lat="43.48404" lon="-0.52468">
        <ele>135</ele>
        <time>2022-08-22T11:46:41Z</time>
      </trkpt>
      <trkpt lat="43.48408" lon="-0.52473">
        <ele>135</ele>
        <time>2022-08-22T11:46:45Z</time>
      </trkpt>
      <trkpt lat="43.48423" lon="-0.52493">
        <ele>135</ele>
        <time>2022-08-22T11:47:00Z</time>
      </trkpt>
      <trkpt lat="43.48426" lon="-0.52499">
        <ele>135</ele>
        <time>2022-08-22T11:47:04Z</time>
      </trkpt>
      <trkpt lat="43.48435" lon="-0.52507">
        <ele>135</ele>
        <time>2022-08-22T11:47:12Z</time>
      </trkpt>
      <trkpt lat="43.48438" lon="-0.52512">
        <ele>135</ele>
        <time>2022-08-22T11:47:16Z</time>
      </trkpt>
      <trkpt lat="43.48448" lon="-0.52525">
        <ele>135</ele>
        <time>2022-08-22T11:47:26Z</time>
      </trkpt>
      <trkpt lat="43.4845" lon="-0.5253">
        <ele>135</ele>
        <time>2022-08-22T11:47:30Z</time>
      </trkpt>
      <trkpt lat="43.48468" lon="-0.52552">
        <ele>135</ele>
        <time>2022-08-22T11:47:47Z</time>
      </trkpt>
      <trkpt lat="43.48477" lon="-0.52568">
        <ele>134</ele>
        <time>2022-08-22T11:47:59Z</time>
      </trkpt>
      <trkpt lat="43.48482" lon="-0.52572">
        <ele>134</ele>
        <time>2022-08-22T11:48:03Z</time>
      </trkpt>
      <trkpt lat="43.48495" lon="-0.52594">
        <ele>135</ele>
        <time>2022-08-22T11:48:19Z</time>
      </trkpt>
      <trkpt lat="43.48498" lon="-0.526">
        <ele>135</ele>
        <time>2022-08-22T11:48:23Z</time>
      </trkpt>
      <trkpt lat="43.48502" lon="-0.52604">
        <ele>134</ele>
        <time>2022-08-22T11:48:28Z</time>
      </trkpt>
      <trkpt lat="43.48505" lon="-0.52609">
        <ele>135</ele>
        <time>2022-08-22T11:48:32Z</time>
      </trkpt>
      <trkpt lat="43.48508" lon="-0.52613">
        <ele>134</ele>
        <time>2022-08-22T11:48:36Z</time>
      </trkpt>
      <trkpt lat="43.48512" lon="-0.52619">
        <ele>134</ele>
        <time>2022-08-22T11:48:40Z</time>
      </trkpt>
      <trkpt lat="43.48516" lon="-0.52623">
        <ele>134</ele>
        <time>2022-08-22T11:48:44Z</time>
      </trkpt>
      <trkpt lat="43.48548" lon="-0.5266">
        <ele>134</ele>
        <time>2022-08-22T11:49:14Z</time>
      </trkpt>
      <trkpt lat="43.48557" lon="-0.52668">
        <ele>134</ele>
        <time>2022-08-22T11:49:22Z</time>
      </trkpt>
      <trkpt lat="43.48588" lon="-0.52705">
        <ele>133</ele>
        <time>2022-08-22T11:49:54Z</time>
      </trkpt>
      <trkpt lat="43.48602" lon="-0.52726">
        <ele>133</ele>
        <time>2022-08-22T11:50:11Z</time>
      </trkpt>
      <trkpt lat="43.48605" lon="-0.52732">
        <ele>133</ele>
        <time>2022-08-22T11:50:15Z</time>
      </trkpt>
      <trkpt lat="43.48619" lon="-0.52755">
        <ele>133</ele>
        <time>2022-08-22T11:50:31Z</time>
      </trkpt>
      <trkpt lat="43.48627" lon="-0.52779">
        <ele>133</ele>
        <time>2022-08-22T11:50:47Z</time>
      </trkpt>
      <trkpt lat="43.48629" lon="-0.52786">
        <ele>133</ele>
        <time>2022-08-22T11:50:50Z</time>
      </trkpt>
      <trkpt lat="43.48652" lon="-0.52834">
        <ele>133</ele>
        <time>2022-08-22T11:51:21Z</time>
      </trkpt>
      <trkpt lat="43.48678" lon="-0.52877">
        <ele>132</ele>
        <time>2022-08-22T11:51:53Z</time>
      </trkpt>
      <trkpt lat="43.48681" lon="-0.52882">
        <ele>132</ele>
        <time>2022-08-22T11:51:57Z</time>
      </trkpt>
      <trkpt lat="43.48709" lon="-0.52931">
        <ele>132</ele>
        <time>2022-08-22T11:52:31Z</time>
      </trkpt>
      <trkpt lat="43.48729" lon="-0.52965">
        <ele>132</ele>
        <time>2022-08-22T11:52:57Z</time>
      </trkpt>
      <trkpt lat="43.48734" lon="-0.52968">
        <ele>132</ele>
        <time>2022-08-22T11:53:01Z</time>
      </trkpt>
      <trkpt lat="43.48751" lon="-0.52995">
        <ele>132</ele>
        <time>2022-08-22T11:53:21Z</time>
      </trkpt>
      <trkpt lat="43.48756" lon="-0.53007">
        <ele>132</ele>
        <time>2022-08-22T11:53:29Z</time>
      </trkpt>
      <trkpt lat="43.48757" lon="-0.53013">
        <ele>132</ele>
        <time>2022-08-22T11:53:33Z</time>
      </trkpt>
      <trkpt lat="43.48764" lon="-0.53039">
        <ele>132</ele>
        <time>2022-08-22T11:53:48Z</time>
      </trkpt>
      <trkpt lat="43.48766" lon="-0.53046">
        <ele>132</ele>
        <time>2022-08-22T11:53:53Z</time>
      </trkpt>
      <trkpt lat="43.4877" lon="-0.53058">
        <ele>132</ele>
        <time>2022-08-22T11:54:01Z</time>
      </trkpt>
      <trkpt lat="43.48773" lon="-0.53063">
        <ele>132</ele>
        <time>2022-08-22T11:54:05Z</time>
      </trkpt>
      <trkpt lat="43.48774" lon="-0.53076">
        <ele>133</ele>
        <time>2022-08-22T11:54:12Z</time>
      </trkpt>
      <trkpt lat="43.48779" lon="-0.53095">
        <ele>133</ele>
        <time>2022-08-22T11:54:23Z</time>
      </trkpt>
      <trkpt lat="43.4878" lon="-0.53107">
        <ele>133</ele>
        <time>2022-08-22T11:54:31Z</time>
      </trkpt>
      <trkpt lat="43.48783" lon="-0.53115">
        <ele>132</ele>
        <time>2022-08-22T11:54:35Z</time>
      </trkpt>
      <trkpt lat="43.48783" lon="-0.53121">
        <ele>133</ele>
        <time>2022-08-22T11:54:39Z</time>
      </trkpt>
      <trkpt lat="43.48785" lon="-0.53127">
        <ele>133</ele>
        <time>2022-08-22T11:54:43Z</time>
      </trkpt>
      <trkpt lat="43.48788" lon="-0.53142">
        <ele>132</ele>
        <time>2022-08-22T11:54:52Z</time>
      </trkpt>
      <trkpt lat="43.4879" lon="-0.53157">
        <ele>133</ele>
        <time>2022-08-22T11:55:01Z</time>
      </trkpt>
      <trkpt lat="43.48792" lon="-0.5317">
        <ele>132</ele>
        <time>2022-08-22T11:55:09Z</time>
      </trkpt>
      <trkpt lat="43.48792" lon="-0.53177">
        <ele>133</ele>
        <time>2022-08-22T11:55:13Z</time>
      </trkpt>
      <trkpt lat="43.48796" lon="-0.53189">
        <ele>133</ele>
        <time>2022-08-22T11:55:21Z</time>
      </trkpt>
      <trkpt lat="43.48798" lon="-0.53202">
        <ele>134</ele>
        <time>2022-08-22T11:55:27Z</time>
      </trkpt>
      <trkpt lat="43.48799" lon="-0.53209">
        <ele>134</ele>
        <time>2022-08-22T11:55:31Z</time>
      </trkpt>
      <trkpt lat="43.488" lon="-0.53216">
        <ele>133</ele>
        <time>2022-08-22T11:55:35Z</time>
      </trkpt>
      <trkpt lat="43.48804" lon="-0.53243">
        <ele>133</ele>
        <time>2022-08-22T11:55:50Z</time>
      </trkpt>
      <trkpt lat="43.48806" lon="-0.5325">
        <ele>133</ele>
        <time>2022-08-22T11:55:55Z</time>
      </trkpt>
      <trkpt lat="43.48816" lon="-0.53298">
        <ele>132</ele>
        <time>2022-08-22T11:56:23Z</time>
      </trkpt>
      <trkpt lat="43.48816" lon="-0.53304">
        <ele>132</ele>
        <time>2022-08-22T11:56:26Z</time>
      </trkpt>
      <trkpt lat="43.48818" lon="-0.53311">
        <ele>132</ele>
        <time>2022-08-22T11:56:30Z</time>
      </trkpt>
      <trkpt lat="43.48821" lon="-0.53366">
        <ele>132</ele>
        <time>2022-08-22T11:57:01Z</time>
      </trkpt>
      <trkpt lat="43.48823" lon="-0.5338">
        <ele>132</ele>
        <time>2022-08-22T11:57:09Z</time>
      </trkpt>
      <trkpt lat="43.48825" lon="-0.53421">
        <ele>131</ele>
        <time>2022-08-22T11:57:32Z</time>
      </trkpt>
      <trkpt lat="43.48826" lon="-0.53435">
        <ele>131</ele>
        <time>2022-08-22T11:57:38Z</time>
      </trkpt>
      <trkpt lat="43.48827" lon="-0.53464">
        <ele>132</ele>
        <time>2022-08-22T11:57:55Z</time>
      </trkpt>
      <trkpt lat="43.48826" lon="-0.53478">
        <ele>132</ele>
        <time>2022-08-22T11:58:04Z</time>
      </trkpt>
      <trkpt lat="43.48821" lon="-0.53487">
        <ele>131</ele>
        <time>2022-08-22T11:58:12Z</time>
      </trkpt>
      <trkpt lat="43.48817" lon="-0.53493">
        <ele>131</ele>
        <time>2022-08-22T11:58:17Z</time>
      </trkpt>
      <trkpt lat="43.48814" lon="-0.53497">
        <ele>131</ele>
        <time>2022-08-22T11:58:21Z</time>
      </trkpt>
      <trkpt lat="43.48811" lon="-0.53503">
        <ele>131</ele>
        <time>2022-08-22T11:58:26Z</time>
      </trkpt>
      <trkpt lat="43.48809" lon="-0.53509">
        <ele>131</ele>
        <time>2022-08-22T11:58:30Z</time>
      </trkpt>
      <trkpt lat="43.48811" lon="-0.53523">
        <ele>132</ele>
        <time>2022-08-22T11:58:38Z</time>
      </trkpt>
      <trkpt lat="43.48812" lon="-0.5353">
        <ele>132</ele>
        <time>2022-08-22T11:58:42Z</time>
      </trkpt>
      <trkpt lat="43.48813" lon="-0.53536">
        <ele>132</ele>
        <time>2022-08-22T11:58:45Z</time>
      </trkpt>
      <trkpt lat="43.48815" lon="-0.53544">
        <ele>131</ele>
        <time>2022-08-22T11:58:49Z</time>
      </trkpt>
      <trkpt lat="43.48821" lon="-0.53568">
        <ele>132</ele>
        <time>2022-08-22T11:59:07Z</time>
      </trkpt>
      <trkpt lat="43.48826" lon="-0.53591">
        <ele>132</ele>
        <time>2022-08-22T11:59:24Z</time>
      </trkpt>
      <trkpt lat="43.48828" lon="-0.53598">
        <ele>132</ele>
        <time>2022-08-22T11:59:29Z</time>
      </trkpt>
      <trkpt lat="43.4884" lon="-0.53652">
        <ele>133</ele>
        <time>2022-08-22T11:59:57Z</time>
      </trkpt>
      <trkpt lat="43.48843" lon="-0.53666">
        <ele>133</ele>
        <time>2022-08-22T12:00:05Z</time>
      </trkpt>
      <trkpt lat="43.48846" lon="-0.53679">
        <ele>133</ele>
        <time>2022-08-22T12:00:13Z</time>
      </trkpt>
      <trkpt lat="43.48849" lon="-0.53692">
        <ele>132</ele>
        <time>2022-08-22T12:00:21Z</time>
      </trkpt>
      <trkpt lat="43.48861" lon="-0.53739">
        <ele>133</ele>
        <time>2022-08-22T12:00:48Z</time>
      </trkpt>
      <trkpt lat="43.48867" lon="-0.53751">
        <ele>132</ele>
        <time>2022-08-22T12:00:56Z</time>
      </trkpt>
      <trkpt lat="43.48867" lon="-0.53758">
        <ele>132</ele>
        <time>2022-08-22T12:01:00Z</time>
      </trkpt>
      <trkpt lat="43.48864" lon="-0.53769">
        <ele>133</ele>
        <time>2022-08-22T12:01:11Z</time>
      </trkpt>
      <trkpt lat="43.48856" lon="-0.53775">
        <ele>133</ele>
        <time>2022-08-22T12:01:20Z</time>
      </trkpt>
      <trkpt lat="43.48822" lon="-0.53796">
        <ele>132</ele>
        <time>2022-08-22T12:01:50Z</time>
      </trkpt>
      <trkpt lat="43.48817" lon="-0.53799">
        <ele>132</ele>
        <time>2022-08-22T12:01:54Z</time>
      </trkpt>
      <trkpt lat="43.48814" lon="-0.53804">
        <ele>132</ele>
        <time>2022-08-22T12:01:58Z</time>
      </trkpt>
      <trkpt lat="43.48791" lon="-0.53822">
        <ele>133</ele>
        <time>2022-08-22T12:02:24Z</time>
      </trkpt>
      <trkpt lat="43.48782" lon="-0.53828">
        <ele>133</ele>
        <time>2022-08-22T12:02:33Z</time>
      </trkpt>
      <trkpt lat="43.48781" lon="-0.53836">
        <ele>133</ele>
        <time>2022-08-22T12:02:37Z</time>
      </trkpt>
      <trkpt lat="43.48783" lon="-0.53843">
        <ele>133</ele>
        <time>2022-08-22T12:02:41Z</time>
      </trkpt>
      <trkpt lat="43.48787" lon="-0.53849">
        <ele>132</ele>
        <time>2022-08-22T12:02:45Z</time>
      </trkpt>
      <trkpt lat="43.48789" lon="-0.53855">
        <ele>132</ele>
        <time>2022-08-22T12:02:49Z</time>
      </trkpt>
      <trkpt lat="43.48793" lon="-0.53867">
        <ele>132</ele>
        <time>2022-08-22T12:02:57Z</time>
      </trkpt>
      <trkpt lat="43.48817" lon="-0.53913">
        <ele>132</ele>
        <time>2022-08-22T12:03:28Z</time>
      </trkpt>
      <trkpt lat="43.48826" lon="-0.53933">
        <ele>132</ele>
        <time>2022-08-22T12:03:40Z</time>
      </trkpt>
      <trkpt lat="43.48849" lon="-0.53976">
        <ele>132</ele>
        <time>2022-08-22T12:04:11Z</time>
      </trkpt>
      <trkpt lat="43.48858" lon="-0.53995">
        <ele>132</ele>
        <time>2022-08-22T12:04:22Z</time>
      </trkpt>
      <trkpt lat="43.48861" lon="-0.54">
        <ele>132</ele>
        <time>2022-08-22T12:04:26Z</time>
      </trkpt>
      <trkpt lat="43.48864" lon="-0.54006">
        <ele>132</ele>
        <time>2022-08-22T12:04:31Z</time>
      </trkpt>
      <trkpt lat="43.48867" lon="-0.54011">
        <ele>132</ele>
        <time>2022-08-22T12:04:35Z</time>
      </trkpt>
      <trkpt lat="43.48869" lon="-0.54017">
        <ele>132</ele>
        <time>2022-08-22T12:04:39Z</time>
      </trkpt>
      <trkpt lat="43.48882" lon="-0.54045">
        <ele>131</ele>
        <time>2022-08-22T12:04:58Z</time>
      </trkpt>
      <trkpt lat="43.48885" lon="-0.5405">
        <ele>131</ele>
        <time>2022-08-22T12:05:02Z</time>
      </trkpt>
      <trkpt lat="43.48887" lon="-0.54055">
        <ele>131</ele>
        <time>2022-08-22T12:05:06Z</time>
      </trkpt>
      <trkpt lat="43.48888" lon="-0.54063">
        <ele>131</ele>
        <time>2022-08-22T12:05:10Z</time>
      </trkpt>
      <trkpt lat="43.48894" lon="-0.54083">
        <ele>131</ele>
        <time>2022-08-22T12:05:23Z</time>
      </trkpt>
      <trkpt lat="43.48896" lon="-0.5409">
        <ele>130</ele>
        <time>2022-08-22T12:05:26Z</time>
      </trkpt>
      <trkpt lat="43.48901" lon="-0.541">
        <ele>131</ele>
        <time>2022-08-22T12:05:34Z</time>
      </trkpt>
      <trkpt lat="43.48906" lon="-0.54111">
        <ele>130</ele>
        <time>2022-08-22T12:05:42Z</time>
      </trkpt>
      <trkpt lat="43.48908" lon="-0.54117">
        <ele>130</ele>
        <time>2022-08-22T12:05:46Z</time>
      </trkpt>
      <trkpt lat="43.48923" lon="-0.54153">
        <ele>131</ele>
        <time>2022-08-22T12:06:10Z</time>
      </trkpt>
      <trkpt lat="43.4893" lon="-0.54162">
        <ele>131</ele>
        <time>2022-08-22T12:06:18Z</time>
      </trkpt>
      <trkpt lat="43.48934" lon="-0.54173">
        <ele>130</ele>
        <time>2022-08-22T12:06:26Z</time>
      </trkpt>
      <trkpt lat="43.48939" lon="-0.54191">
        <ele>131</ele>
        <time>2022-08-22T12:06:38Z</time>
      </trkpt>
      <trkpt lat="43.4894" lon="-0.54198">
        <ele>131</ele>
        <time>2022-08-22T12:06:42Z</time>
      </trkpt>
      <trkpt lat="43.4894" lon="-0.54205">
        <ele>130</ele>
        <time>2022-08-22T12:06:47Z</time>
      </trkpt>
      <trkpt lat="43.48937" lon="-0.54219">
        <ele>130</ele>
        <time>2022-08-22T12:06:55Z</time>
      </trkpt>
      <trkpt lat="43.48935" lon="-0.54225">
        <ele>131</ele>
        <time>2022-08-22T12:06:59Z</time>
      </trkpt>
      <trkpt lat="43.48934" lon="-0.54232">
        <ele>131</ele>
        <time>2022-08-22T12:07:03Z</time>
      </trkpt>
      <trkpt lat="43.48942" lon="-0.54244">
        <ele>130</ele>
        <time>2022-08-22T12:07:11Z</time>
      </trkpt>
      <trkpt lat="43.48949" lon="-0.54254">
        <ele>131</ele>
        <time>2022-08-22T12:07:19Z</time>
      </trkpt>
      <trkpt lat="43.48951" lon="-0.54261">
        <ele>130</ele>
        <time>2022-08-22T12:07:24Z</time>
      </trkpt>
      <trkpt lat="43.48955" lon="-0.54264">
        <ele>130</ele>
        <time>2022-08-22T12:07:28Z</time>
      </trkpt>
      <trkpt lat="43.48958" lon="-0.5427">
        <ele>130</ele>
        <time>2022-08-22T12:07:32Z</time>
      </trkpt>
      <trkpt lat="43.48963" lon="-0.54278">
        <ele>131</ele>
        <time>2022-08-22T12:07:39Z</time>
      </trkpt>
      <trkpt lat="43.48968" lon="-0.5429">
        <ele>130</ele>
        <time>2022-08-22T12:07:47Z</time>
      </trkpt>
      <trkpt lat="43.48972" lon="-0.54295">
        <ele>132</ele>
        <time>2022-08-22T12:07:51Z</time>
      </trkpt>
      <trkpt lat="43.48974" lon="-0.54301">
        <ele>132</ele>
        <time>2022-08-22T12:07:54Z</time>
      </trkpt>
      <trkpt lat="43.48983" lon="-0.54317">
        <ele>132</ele>
        <time>2022-08-22T12:08:06Z</time>
      </trkpt>
      <trkpt lat="43.48987" lon="-0.54323">
        <ele>131</ele>
        <time>2022-08-22T12:08:10Z</time>
      </trkpt>
      <trkpt lat="43.48991" lon="-0.54335">
        <ele>132</ele>
        <time>2022-08-22T12:08:18Z</time>
      </trkpt>
      <trkpt lat="43.48994" lon="-0.5434">
        <ele>132</ele>
        <time>2022-08-22T12:08:22Z</time>
      </trkpt>
      <trkpt lat="43.48996" lon="-0.54346">
        <ele>132</ele>
        <time>2022-08-22T12:08:27Z</time>
      </trkpt>
      <trkpt lat="43.49" lon="-0.54351">
        <ele>131</ele>
        <time>2022-08-22T12:08:31Z</time>
      </trkpt>
      <trkpt lat="43.49004" lon="-0.54371">
        <ele>131</ele>
        <time>2022-08-22T12:08:43Z</time>
      </trkpt>
      <trkpt lat="43.49005" lon="-0.54377">
        <ele>131</ele>
        <time>2022-08-22T12:08:47Z</time>
      </trkpt>
      <trkpt lat="43.49007" lon="-0.54384">
        <ele>131</ele>
        <time>2022-08-22T12:08:51Z</time>
      </trkpt>
      <trkpt lat="43.4901" lon="-0.5439">
        <ele>131</ele>
        <time>2022-08-22T12:08:56Z</time>
      </trkpt>
      <trkpt lat="43.49013" lon="-0.54397">
        <ele>131</ele>
        <time>2022-08-22T12:09:00Z</time>
      </trkpt>
      <trkpt lat="43.49019" lon="-0.54422">
        <ele>131</ele>
        <time>2022-08-22T12:09:18Z</time>
      </trkpt>
      <trkpt lat="43.49019" lon="-0.54429">
        <ele>130</ele>
        <time>2022-08-22T12:09:23Z</time>
      </trkpt>
      <trkpt lat="43.49019" lon="-0.54437">
        <ele>130</ele>
        <time>2022-08-22T12:09:29Z</time>
      </trkpt>
      <trkpt lat="43.4902" lon="-0.54437">
        <ele>130</ele>
        <time>2022-08-22T12:09:45Z</time>
      </trkpt>
      <trkpt lat="43.49023" lon="-0.54432">
        <ele>130</ele>
        <time>2022-08-22T12:09:48Z</time>
      </trkpt>
      <trkpt lat="43.49029" lon="-0.54435">
        <ele>131</ele>
        <time>2022-08-22T12:09:57Z</time>
      </trkpt>
      <trkpt lat="43.49033" lon="-0.54439">
        <ele>131</ele>
        <time>2022-08-22T12:11:10Z</time>
      </trkpt>
      <trkpt lat="43.49027" lon="-0.5444">
        <ele>130</ele>
        <time>2022-08-22T12:12:43Z</time>
      </trkpt>
      <trkpt lat="43.49029" lon="-0.54442">
        <ele>130</ele>
        <time>2022-08-22T12:14:25Z</time>
      </trkpt>
      <trkpt lat="43.49031" lon="-0.5444">
        <ele>131</ele>
        <time>2022-08-22T12:16:58Z</time>
      </trkpt>
      <trkpt lat="43.49029" lon="-0.54441">
        <ele>131</ele>
        <time>2022-08-22T12:19:26Z</time>
      </trkpt>
      <trkpt lat="43.4903" lon="-0.54441">
        <ele>131</ele>
        <time>2022-08-22T12:33:10Z</time>
      </trkpt>
      <trkpt lat="43.49027" lon="-0.54442">
        <ele>130</ele>
        <time>2022-08-22T12:34:09Z</time>
      </trkpt>
      <trkpt lat="43.49027" lon="-0.5444">
        <ele>130</ele>
        <time>2022-08-22T12:44:50Z</time>
      </trkpt>
      <trkpt lat="43.49032" lon="-0.54432">
        <ele>131</ele>
        <time>2022-08-22T12:51:11Z</time>
      </trkpt>
      <trkpt lat="43.49026" lon="-0.54427">
        <ele>130</ele>
        <time>2022-08-22T12:51:20Z</time>
      </trkpt>
      <trkpt lat="43.49022" lon="-0.54423">
        <ele>131</ele>
        <time>2022-08-22T12:51:26Z</time>
      </trkpt>
      <trkpt lat="43.49019" lon="-0.54412">
        <ele>130</ele>
        <time>2022-08-22T12:51:37Z</time>
      </trkpt>
      <trkpt lat="43.49018" lon="-0.54406">
        <ele>131</ele>
        <time>2022-08-22T12:51:42Z</time>
      </trkpt>
      <trkpt lat="43.49012" lon="-0.54386">
        <ele>131</ele>
        <time>2022-08-22T12:51:57Z</time>
      </trkpt>
      <trkpt lat="43.49009" lon="-0.54381">
        <ele>131</ele>
        <time>2022-08-22T12:52:02Z</time>
      </trkpt>
      <trkpt lat="43.49004" lon="-0.54362">
        <ele>131</ele>
        <time>2022-08-22T12:52:18Z</time>
      </trkpt>
      <trkpt lat="43.49003" lon="-0.54354">
        <ele>131</ele>
        <time>2022-08-22T12:52:26Z</time>
      </trkpt>
      <trkpt lat="43.49001" lon="-0.54349">
        <ele>131</ele>
        <time>2022-08-22T12:52:32Z</time>
      </trkpt>
      <trkpt lat="43.49005" lon="-0.54341">
        <ele>132</ele>
        <time>2022-08-22T12:52:51Z</time>
      </trkpt>
      <trkpt lat="43.49005" lon="-0.54342">
        <ele>131</ele>
        <time>2022-08-22T12:55:36Z</time>
      </trkpt>
      <trkpt lat="43.48999" lon="-0.54338">
        <ele>132</ele>
        <time>2022-08-22T12:56:10Z</time>
      </trkpt>
      <trkpt lat="43.48996" lon="-0.54331">
        <ele>131</ele>
        <time>2022-08-22T12:58:03Z</time>
      </trkpt>
      <trkpt lat="43.48992" lon="-0.54322">
        <ele>131</ele>
        <time>2022-08-22T12:58:15Z</time>
      </trkpt>
      <trkpt lat="43.48989" lon="-0.54317">
        <ele>131</ele>
        <time>2022-08-22T12:58:21Z</time>
      </trkpt>
      <trkpt lat="43.48988" lon="-0.5431">
        <ele>131</ele>
        <time>2022-08-22T12:58:27Z</time>
      </trkpt>
      <trkpt lat="43.48983" lon="-0.54298">
        <ele>131</ele>
        <time>2022-08-22T12:58:36Z</time>
      </trkpt>
      <trkpt lat="43.48963" lon="-0.54261">
        <ele>131</ele>
        <time>2022-08-22T12:59:11Z</time>
      </trkpt>
      <trkpt lat="43.48958" lon="-0.54258">
        <ele>130</ele>
        <time>2022-08-22T12:59:15Z</time>
      </trkpt>
      <trkpt lat="43.48954" lon="-0.54256">
        <ele>130</ele>
        <time>2022-08-22T12:59:19Z</time>
      </trkpt>
      <trkpt lat="43.48942" lon="-0.54243">
        <ele>130</ele>
        <time>2022-08-22T12:59:33Z</time>
      </trkpt>
      <trkpt lat="43.48937" lon="-0.5424">
        <ele>130</ele>
        <time>2022-08-22T12:59:38Z</time>
      </trkpt>
      <trkpt lat="43.48934" lon="-0.54235">
        <ele>130</ele>
        <time>2022-08-22T12:59:42Z</time>
      </trkpt>
      <trkpt lat="43.48925" lon="-0.54234">
        <ele>130</ele>
        <time>2022-08-22T12:59:51Z</time>
      </trkpt>
      <trkpt lat="43.4892" lon="-0.54236">
        <ele>130</ele>
        <time>2022-08-22T12:59:56Z</time>
      </trkpt>
      <trkpt lat="43.48916" lon="-0.54239">
        <ele>130</ele>
        <time>2022-08-22T13:00:00Z</time>
      </trkpt>
      <trkpt lat="43.4891" lon="-0.54249">
        <ele>129</ele>
        <time>2022-08-22T13:00:09Z</time>
      </trkpt>
      <trkpt lat="43.48897" lon="-0.54277">
        <ele>129</ele>
        <time>2022-08-22T13:00:33Z</time>
      </trkpt>
      <trkpt lat="43.48893" lon="-0.54282">
        <ele>129</ele>
        <time>2022-08-22T13:00:37Z</time>
      </trkpt>
      <trkpt lat="43.48875" lon="-0.54317">
        <ele>128</ele>
        <time>2022-08-22T13:01:08Z</time>
      </trkpt>
      <trkpt lat="43.4887" lon="-0.54331">
        <ele>128</ele>
        <time>2022-08-22T13:01:18Z</time>
      </trkpt>
      <trkpt lat="43.48856" lon="-0.54354">
        <ele>128</ele>
        <time>2022-08-22T13:01:37Z</time>
      </trkpt>
      <trkpt lat="43.48854" lon="-0.5436">
        <ele>127</ele>
        <time>2022-08-22T13:01:41Z</time>
      </trkpt>
      <trkpt lat="43.4883" lon="-0.54405">
        <ele>127</ele>
        <time>2022-08-22T13:02:13Z</time>
      </trkpt>
      <trkpt lat="43.4882" lon="-0.54423">
        <ele>127</ele>
        <time>2022-08-22T13:02:26Z</time>
      </trkpt>
      <trkpt lat="43.48818" lon="-0.5443">
        <ele>127</ele>
        <time>2022-08-22T13:02:31Z</time>
      </trkpt>
      <trkpt lat="43.48817" lon="-0.54437">
        <ele>127</ele>
        <time>2022-08-22T13:02:36Z</time>
      </trkpt>
      <trkpt lat="43.48813" lon="-0.54441">
        <ele>127</ele>
        <time>2022-08-22T13:02:40Z</time>
      </trkpt>
      <trkpt lat="43.48807" lon="-0.54442">
        <ele>127</ele>
        <time>2022-08-22T13:02:46Z</time>
      </trkpt>
      <trkpt lat="43.48802" lon="-0.5444">
        <ele>127</ele>
        <time>2022-08-22T13:02:52Z</time>
      </trkpt>
      <trkpt lat="43.48792" lon="-0.54434">
        <ele>127</ele>
        <time>2022-08-22T13:03:03Z</time>
      </trkpt>
      <trkpt lat="43.48786" lon="-0.54432">
        <ele>127</ele>
        <time>2022-08-22T13:03:09Z</time>
      </trkpt>
      <trkpt lat="43.48776" lon="-0.54426">
        <ele>128</ele>
        <time>2022-08-22T13:03:16Z</time>
      </trkpt>
      <trkpt lat="43.48766" lon="-0.54419">
        <ele>127</ele>
        <time>2022-08-22T13:03:24Z</time>
      </trkpt>
      <trkpt lat="43.48752" lon="-0.54413">
        <ele>127</ele>
        <time>2022-08-22T13:03:36Z</time>
      </trkpt>
      <trkpt lat="43.48747" lon="-0.54409">
        <ele>127</ele>
        <time>2022-08-22T13:03:41Z</time>
      </trkpt>
      <trkpt lat="43.48742" lon="-0.54407">
        <ele>127</ele>
        <time>2022-08-22T13:03:45Z</time>
      </trkpt>
      <trkpt lat="43.48712" lon="-0.54399">
        <ele>128</ele>
        <time>2022-08-22T13:04:10Z</time>
      </trkpt>
      <trkpt lat="43.48702" lon="-0.544">
        <ele>128</ele>
        <time>2022-08-22T13:04:20Z</time>
      </trkpt>
      <trkpt lat="43.48696" lon="-0.54403">
        <ele>128</ele>
        <time>2022-08-22T13:04:24Z</time>
      </trkpt>
      <trkpt lat="43.48686" lon="-0.54416">
        <ele>129</ele>
        <time>2022-08-22T13:04:36Z</time>
      </trkpt>
      <trkpt lat="43.48682" lon="-0.54419">
        <ele>128</ele>
        <time>2022-08-22T13:04:40Z</time>
      </trkpt>
      <trkpt lat="43.48663" lon="-0.54438">
        <ele>129</ele>
        <time>2022-08-22T13:04:59Z</time>
      </trkpt>
      <trkpt lat="43.4863" lon="-0.54475">
        <ele>131</ele>
        <time>2022-08-22T13:05:33Z</time>
      </trkpt>
      <trkpt lat="43.48613" lon="-0.54489">
        <ele>131</ele>
        <time>2022-08-22T13:05:50Z</time>
      </trkpt>
      <trkpt lat="43.48608" lon="-0.5449">
        <ele>132</ele>
        <time>2022-08-22T13:05:54Z</time>
      </trkpt>
      <trkpt lat="43.48594" lon="-0.54496">
        <ele>131</ele>
        <time>2022-08-22T13:06:07Z</time>
      </trkpt>
      <trkpt lat="43.48573" lon="-0.54494">
        <ele>131</ele>
        <time>2022-08-22T13:06:24Z</time>
      </trkpt>
      <trkpt lat="43.48569" lon="-0.54495">
        <ele>131</ele>
        <time>2022-08-22T13:06:28Z</time>
      </trkpt>
      <trkpt lat="43.48563" lon="-0.54496">
        <ele>132</ele>
        <time>2022-08-22T13:06:33Z</time>
      </trkpt>
      <trkpt lat="43.48549" lon="-0.54499">
        <ele>132</ele>
        <time>2022-08-22T13:06:46Z</time>
      </trkpt>
      <trkpt lat="43.48543" lon="-0.54499">
        <ele>132</ele>
        <time>2022-08-22T13:06:50Z</time>
      </trkpt>
      <trkpt lat="43.48533" lon="-0.54503">
        <ele>132</ele>
        <time>2022-08-22T13:06:58Z</time>
      </trkpt>
      <trkpt lat="43.48528" lon="-0.54503">
        <ele>132</ele>
        <time>2022-08-22T13:07:03Z</time>
      </trkpt>
      <trkpt lat="43.48506" lon="-0.54508">
        <ele>133</ele>
        <time>2022-08-22T13:07:21Z</time>
      </trkpt>
      <trkpt lat="43.48486" lon="-0.54513">
        <ele>133</ele>
        <time>2022-08-22T13:07:36Z</time>
      </trkpt>
      <trkpt lat="43.48482" lon="-0.54512">
        <ele>133</ele>
        <time>2022-08-22T13:07:39Z</time>
      </trkpt>
      <trkpt lat="43.48446" lon="-0.5452">
        <ele>133</ele>
        <time>2022-08-22T13:08:09Z</time>
      </trkpt>
      <trkpt lat="43.48436" lon="-0.54524">
        <ele>133</ele>
        <time>2022-08-22T13:08:17Z</time>
      </trkpt>
      <trkpt lat="43.48426" lon="-0.54526">
        <ele>133</ele>
        <time>2022-08-22T13:08:27Z</time>
      </trkpt>
      <trkpt lat="43.48413" lon="-0.54526">
        <ele>133</ele>
        <time>2022-08-22T13:08:39Z</time>
      </trkpt>
      <trkpt lat="43.48407" lon="-0.54524">
        <ele>134</ele>
        <time>2022-08-22T13:08:44Z</time>
      </trkpt>
      <trkpt lat="43.48396" lon="-0.54521">
        <ele>134</ele>
        <time>2022-08-22T13:08:52Z</time>
      </trkpt>
      <trkpt lat="43.48391" lon="-0.54519">
        <ele>134</ele>
        <time>2022-08-22T13:08:55Z</time>
      </trkpt>
      <trkpt lat="43.48386" lon="-0.54519">
        <ele>134</ele>
        <time>2022-08-22T13:08:58Z</time>
      </trkpt>
      <trkpt lat="43.48382" lon="-0.54521">
        <ele>134</ele>
        <time>2022-08-22T13:09:02Z</time>
      </trkpt>
      <trkpt lat="43.4838" lon="-0.54529">
        <ele>134</ele>
        <time>2022-08-22T13:09:22Z</time>
      </trkpt>
      <trkpt lat="43.48376" lon="-0.54534">
        <ele>134</ele>
        <time>2022-08-22T13:09:36Z</time>
      </trkpt>
      <trkpt lat="43.48364" lon="-0.5455">
        <ele>135</ele>
        <time>2022-08-22T13:09:49Z</time>
      </trkpt>
      <trkpt lat="43.4836" lon="-0.54554">
        <ele>134</ele>
        <time>2022-08-22T13:09:54Z</time>
      </trkpt>
      <trkpt lat="43.48353" lon="-0.54565">
        <ele>134</ele>
        <time>2022-08-22T13:10:03Z</time>
      </trkpt>
      <trkpt lat="43.48347" lon="-0.54575">
        <ele>134</ele>
        <time>2022-08-22T13:10:10Z</time>
      </trkpt>
      <trkpt lat="43.48345" lon="-0.54581">
        <ele>134</ele>
        <time>2022-08-22T13:10:14Z</time>
      </trkpt>
      <trkpt lat="43.48331" lon="-0.546">
        <ele>134</ele>
        <time>2022-08-22T13:10:31Z</time>
      </trkpt>
      <trkpt lat="43.48326" lon="-0.54602">
        <ele>135</ele>
        <time>2022-08-22T13:10:36Z</time>
      </trkpt>
      <trkpt lat="43.483" lon="-0.54645">
        <ele>135</ele>
        <time>2022-08-22T13:11:08Z</time>
      </trkpt>
      <trkpt lat="43.48289" lon="-0.54662">
        <ele>134</ele>
        <time>2022-08-22T13:11:21Z</time>
      </trkpt>
      <trkpt lat="43.48282" lon="-0.54671">
        <ele>135</ele>
        <time>2022-08-22T13:11:29Z</time>
      </trkpt>
      <trkpt lat="43.48273" lon="-0.54679">
        <ele>134</ele>
        <time>2022-08-22T13:11:38Z</time>
      </trkpt>
      <trkpt lat="43.48268" lon="-0.5469">
        <ele>134</ele>
        <time>2022-08-22T13:11:46Z</time>
      </trkpt>
      <trkpt lat="43.4826" lon="-0.547">
        <ele>135</ele>
        <time>2022-08-22T13:11:54Z</time>
      </trkpt>
      <trkpt lat="43.48233" lon="-0.54743">
        <ele>134</ele>
        <time>2022-08-22T13:12:27Z</time>
      </trkpt>
      <trkpt lat="43.48229" lon="-0.54746">
        <ele>134</ele>
        <time>2022-08-22T13:12:31Z</time>
      </trkpt>
      <trkpt lat="43.48222" lon="-0.54758">
        <ele>134</ele>
        <time>2022-08-22T13:12:47Z</time>
      </trkpt>
      <trkpt lat="43.48218" lon="-0.54762">
        <ele>134</ele>
        <time>2022-08-22T13:12:51Z</time>
      </trkpt>
      <trkpt lat="43.48195" lon="-0.54806">
        <ele>133</ele>
        <time>2022-08-22T13:13:23Z</time>
      </trkpt>
      <trkpt lat="43.48168" lon="-0.54849">
        <ele>134</ele>
        <time>2022-08-22T13:13:57Z</time>
      </trkpt>
      <trkpt lat="43.48141" lon="-0.54893">
        <ele>134</ele>
        <time>2022-08-22T13:14:30Z</time>
      </trkpt>
      <trkpt lat="43.48137" lon="-0.54898">
        <ele>135</ele>
        <time>2022-08-22T13:14:34Z</time>
      </trkpt>
      <trkpt lat="43.48111" lon="-0.5494">
        <ele>134</ele>
        <time>2022-08-22T13:15:07Z</time>
      </trkpt>
      <trkpt lat="43.48104" lon="-0.54949">
        <ele>134</ele>
        <time>2022-08-22T13:15:15Z</time>
      </trkpt>
      <trkpt lat="43.48095" lon="-0.54964">
        <ele>135</ele>
        <time>2022-08-22T13:15:27Z</time>
      </trkpt>
      <trkpt lat="43.4809" lon="-0.54969">
        <ele>135</ele>
        <time>2022-08-22T13:15:31Z</time>
      </trkpt>
      <trkpt lat="43.48086" lon="-0.54972">
        <ele>134</ele>
        <time>2022-08-22T13:15:35Z</time>
      </trkpt>
      <trkpt lat="43.48052" lon="-0.55002">
        <ele>135</ele>
        <time>2022-08-22T13:16:08Z</time>
      </trkpt>
      <trkpt lat="43.48047" lon="-0.55005">
        <ele>135</ele>
        <time>2022-08-22T13:16:12Z</time>
      </trkpt>
      <trkpt lat="43.48012" lon="-0.55035">
        <ele>135</ele>
        <time>2022-08-22T13:16:45Z</time>
      </trkpt>
      <trkpt lat="43.47982" lon="-0.55063">
        <ele>135</ele>
        <time>2022-08-22T13:17:16Z</time>
      </trkpt>
      <trkpt lat="43.47978" lon="-0.55067">
        <ele>135</ele>
        <time>2022-08-22T13:17:20Z</time>
      </trkpt>
      <trkpt lat="43.47974" lon="-0.55069">
        <ele>135</ele>
        <time>2022-08-22T13:17:24Z</time>
      </trkpt>
      <trkpt lat="43.47939" lon="-0.551">
        <ele>134</ele>
        <time>2022-08-22T13:17:57Z</time>
      </trkpt>
      <trkpt lat="43.47929" lon="-0.55106">
        <ele>134</ele>
        <time>2022-08-22T13:18:05Z</time>
      </trkpt>
      <trkpt lat="43.47926" lon="-0.55111">
        <ele>134</ele>
        <time>2022-08-22T13:18:09Z</time>
      </trkpt>
      <trkpt lat="43.47923" lon="-0.55118">
        <ele>134</ele>
        <time>2022-08-22T13:18:14Z</time>
      </trkpt>
      <trkpt lat="43.47905" lon="-0.5514">
        <ele>134</ele>
        <time>2022-08-22T13:18:44Z</time>
      </trkpt>
      <trkpt lat="43.47901" lon="-0.55144">
        <ele>134</ele>
        <time>2022-08-22T13:18:48Z</time>
      </trkpt>
      <trkpt lat="43.47885" lon="-0.5516">
        <ele>133</ele>
        <time>2022-08-22T13:19:05Z</time>
      </trkpt>
      <trkpt lat="43.4787" lon="-0.55174">
        <ele>132</ele>
        <time>2022-08-22T13:19:20Z</time>
      </trkpt>
      <trkpt lat="43.47852" lon="-0.55196">
        <ele>132</ele>
        <time>2022-08-22T13:19:39Z</time>
      </trkpt>
      <trkpt lat="43.47839" lon="-0.55209">
        <ele>132</ele>
        <time>2022-08-22T13:19:52Z</time>
      </trkpt>
      <trkpt lat="43.47835" lon="-0.55213">
        <ele>132</ele>
        <time>2022-08-22T13:19:56Z</time>
      </trkpt>
      <trkpt lat="43.47831" lon="-0.55218">
        <ele>132</ele>
        <time>2022-08-22T13:20:01Z</time>
      </trkpt>
      <trkpt lat="43.47822" lon="-0.55225">
        <ele>131</ele>
        <time>2022-08-22T13:20:10Z</time>
      </trkpt>
      <trkpt lat="43.47818" lon="-0.55228">
        <ele>131</ele>
        <time>2022-08-22T13:20:14Z</time>
      </trkpt>
      <trkpt lat="43.47813" lon="-0.55231">
        <ele>132</ele>
        <time>2022-08-22T13:20:19Z</time>
      </trkpt>
      <trkpt lat="43.47799" lon="-0.55241">
        <ele>132</ele>
        <time>2022-08-22T13:20:31Z</time>
      </trkpt>
      <trkpt lat="43.47791" lon="-0.55249">
        <ele>132</ele>
        <time>2022-08-22T13:20:40Z</time>
      </trkpt>
      <trkpt lat="43.47784" lon="-0.55261">
        <ele>133</ele>
        <time>2022-08-22T13:20:51Z</time>
      </trkpt>
      <trkpt lat="43.47768" lon="-0.55308">
        <ele>134</ele>
        <time>2022-08-22T13:21:22Z</time>
      </trkpt>
      <trkpt lat="43.47766" lon="-0.55313">
        <ele>134</ele>
        <time>2022-08-22T13:21:26Z</time>
      </trkpt>
      <trkpt lat="43.47765" lon="-0.5532">
        <ele>134</ele>
        <time>2022-08-22T13:21:30Z</time>
      </trkpt>
      <trkpt lat="43.4776" lon="-0.55333">
        <ele>133</ele>
        <time>2022-08-22T13:21:39Z</time>
      </trkpt>
      <trkpt lat="43.47743" lon="-0.55378">
        <ele>134</ele>
        <time>2022-08-22T13:22:10Z</time>
      </trkpt>
      <trkpt lat="43.47735" lon="-0.55398">
        <ele>135</ele>
        <time>2022-08-22T13:22:22Z</time>
      </trkpt>
      <trkpt lat="43.4773" lon="-0.55409">
        <ele>135</ele>
        <time>2022-08-22T13:22:30Z</time>
      </trkpt>
      <trkpt lat="43.47727" lon="-0.55416">
        <ele>135</ele>
        <time>2022-08-22T13:22:35Z</time>
      </trkpt>
      <trkpt lat="43.47715" lon="-0.55453">
        <ele>135</ele>
        <time>2022-08-22T13:23:00Z</time>
      </trkpt>
      <trkpt lat="43.47713" lon="-0.5546">
        <ele>135</ele>
        <time>2022-08-22T13:23:04Z</time>
      </trkpt>
      <trkpt lat="43.47697" lon="-0.55496">
        <ele>135</ele>
        <time>2022-08-22T13:23:28Z</time>
      </trkpt>
      <trkpt lat="43.47694" lon="-0.55515">
        <ele>135</ele>
        <time>2022-08-22T13:23:41Z</time>
      </trkpt>
      <trkpt lat="43.47691" lon="-0.5553">
        <ele>135</ele>
        <time>2022-08-22T13:23:51Z</time>
      </trkpt>
      <trkpt lat="43.47676" lon="-0.55587">
        <ele>135</ele>
        <time>2022-08-22T13:24:24Z</time>
      </trkpt>
      <trkpt lat="43.47665" lon="-0.55628">
        <ele>135</ele>
        <time>2022-08-22T13:24:48Z</time>
      </trkpt>
      <trkpt lat="43.47662" lon="-0.55633">
        <ele>135</ele>
        <time>2022-08-22T13:24:52Z</time>
      </trkpt>
      <trkpt lat="43.47661" lon="-0.55641">
        <ele>135</ele>
        <time>2022-08-22T13:24:56Z</time>
      </trkpt>
      <trkpt lat="43.47658" lon="-0.55646">
        <ele>135</ele>
        <time>2022-08-22T13:25:00Z</time>
      </trkpt>
      <trkpt lat="43.47657" lon="-0.55653">
        <ele>134</ele>
        <time>2022-08-22T13:25:04Z</time>
      </trkpt>
      <trkpt lat="43.47654" lon="-0.55659">
        <ele>134</ele>
        <time>2022-08-22T13:25:08Z</time>
      </trkpt>
      <trkpt lat="43.47652" lon="-0.55665">
        <ele>134</ele>
        <time>2022-08-22T13:25:12Z</time>
      </trkpt>
      <trkpt lat="43.47651" lon="-0.55682">
        <ele>134</ele>
        <time>2022-08-22T13:25:23Z</time>
      </trkpt>
      <trkpt lat="43.4764" lon="-0.55736">
        <ele>134</ele>
        <time>2022-08-22T13:25:57Z</time>
      </trkpt>
      <trkpt lat="43.47638" lon="-0.5575">
        <ele>134</ele>
        <time>2022-08-22T13:26:04Z</time>
      </trkpt>
      <trkpt lat="43.47631" lon="-0.55776">
        <ele>134</ele>
        <time>2022-08-22T13:26:21Z</time>
      </trkpt>
      <trkpt lat="43.47628" lon="-0.55781">
        <ele>134</ele>
        <time>2022-08-22T13:26:24Z</time>
      </trkpt>
      <trkpt lat="43.47627" lon="-0.55796">
        <ele>134</ele>
        <time>2022-08-22T13:26:33Z</time>
      </trkpt>
      <trkpt lat="43.47625" lon="-0.55803">
        <ele>134</ele>
        <time>2022-08-22T13:26:38Z</time>
      </trkpt>
      <trkpt lat="43.47623" lon="-0.55809">
        <ele>134</ele>
        <time>2022-08-22T13:26:42Z</time>
      </trkpt>
      <trkpt lat="43.47621" lon="-0.55816">
        <ele>134</ele>
        <time>2022-08-22T13:26:47Z</time>
      </trkpt>
      <trkpt lat="43.47619" lon="-0.55823">
        <ele>134</ele>
        <time>2022-08-22T13:26:51Z</time>
      </trkpt>
      <trkpt lat="43.47617" lon="-0.55833">
        <ele>134</ele>
        <time>2022-08-22T13:26:58Z</time>
      </trkpt>
      <trkpt lat="43.47611" lon="-0.55859">
        <ele>134</ele>
        <time>2022-08-22T13:27:13Z</time>
      </trkpt>
      <trkpt lat="43.47602" lon="-0.55886">
        <ele>134</ele>
        <time>2022-08-22T13:27:29Z</time>
      </trkpt>
      <trkpt lat="43.47598" lon="-0.55891">
        <ele>134</ele>
        <time>2022-08-22T13:27:33Z</time>
      </trkpt>
      <trkpt lat="43.47587" lon="-0.55926">
        <ele>135</ele>
        <time>2022-08-22T13:27:54Z</time>
      </trkpt>
      <trkpt lat="43.47583" lon="-0.55941">
        <ele>134</ele>
        <time>2022-08-22T13:28:02Z</time>
      </trkpt>
      <trkpt lat="43.47575" lon="-0.55977">
        <ele>134</ele>
        <time>2022-08-22T13:28:23Z</time>
      </trkpt>
      <trkpt lat="43.47575" lon="-0.55983">
        <ele>134</ele>
        <time>2022-08-22T13:28:27Z</time>
      </trkpt>
      <trkpt lat="43.4756" lon="-0.56041">
        <ele>134</ele>
        <time>2022-08-22T13:29:01Z</time>
      </trkpt>
      <trkpt lat="43.47552" lon="-0.5607">
        <ele>134</ele>
        <time>2022-08-22T13:29:18Z</time>
      </trkpt>
      <trkpt lat="43.47552" lon="-0.56076">
        <ele>134</ele>
        <time>2022-08-22T13:29:22Z</time>
      </trkpt>
      <trkpt lat="43.47545" lon="-0.56097">
        <ele>134</ele>
        <time>2022-08-22T13:29:35Z</time>
      </trkpt>
      <trkpt lat="43.47544" lon="-0.56104">
        <ele>134</ele>
        <time>2022-08-22T13:29:39Z</time>
      </trkpt>
      <trkpt lat="43.4754" lon="-0.56118">
        <ele>134</ele>
        <time>2022-08-22T13:29:48Z</time>
      </trkpt>
      <trkpt lat="43.4754" lon="-0.56125">
        <ele>134</ele>
        <time>2022-08-22T13:29:52Z</time>
      </trkpt>
      <trkpt lat="43.47538" lon="-0.56131">
        <ele>134</ele>
        <time>2022-08-22T13:29:56Z</time>
      </trkpt>
      <trkpt lat="43.47537" lon="-0.56139">
        <ele>134</ele>
        <time>2022-08-22T13:30:01Z</time>
      </trkpt>
      <trkpt lat="43.47531" lon="-0.56187">
        <ele>134</ele>
        <time>2022-08-22T13:30:31Z</time>
      </trkpt>
      <trkpt lat="43.47531" lon="-0.56194">
        <ele>134</ele>
        <time>2022-08-22T13:30:35Z</time>
      </trkpt>
      <trkpt lat="43.47529" lon="-0.56215">
        <ele>134</ele>
        <time>2022-08-22T13:30:47Z</time>
      </trkpt>
      <trkpt lat="43.47527" lon="-0.56222">
        <ele>134</ele>
        <time>2022-08-22T13:30:50Z</time>
      </trkpt>
      <trkpt lat="43.47525" lon="-0.56236">
        <ele>134</ele>
        <time>2022-08-22T13:30:59Z</time>
      </trkpt>
      <trkpt lat="43.4752" lon="-0.5625">
        <ele>133</ele>
        <time>2022-08-22T13:31:09Z</time>
      </trkpt>
      <trkpt lat="43.47518" lon="-0.56256">
        <ele>134</ele>
        <time>2022-08-22T13:31:14Z</time>
      </trkpt>
      <trkpt lat="43.47515" lon="-0.56264">
        <ele>134</ele>
        <time>2022-08-22T13:31:18Z</time>
      </trkpt>
      <trkpt lat="43.47514" lon="-0.56272">
        <ele>134</ele>
        <time>2022-08-22T13:31:23Z</time>
      </trkpt>
      <trkpt lat="43.47508" lon="-0.56294">
        <ele>134</ele>
        <time>2022-08-22T13:31:35Z</time>
      </trkpt>
      <trkpt lat="43.47505" lon="-0.56308">
        <ele>134</ele>
        <time>2022-08-22T13:31:45Z</time>
      </trkpt>
      <trkpt lat="43.47501" lon="-0.56321">
        <ele>133</ele>
        <time>2022-08-22T13:31:51Z</time>
      </trkpt>
      <trkpt lat="43.47497" lon="-0.5634">
        <ele>133</ele>
        <time>2022-08-22T13:32:02Z</time>
      </trkpt>
      <trkpt lat="43.47497" lon="-0.56355">
        <ele>133</ele>
        <time>2022-08-22T13:32:10Z</time>
      </trkpt>
      <trkpt lat="43.47498" lon="-0.56362">
        <ele>132</ele>
        <time>2022-08-22T13:32:14Z</time>
      </trkpt>
      <trkpt lat="43.47502" lon="-0.5637">
        <ele>132</ele>
        <time>2022-08-22T13:32:19Z</time>
      </trkpt>
      <trkpt lat="43.47506" lon="-0.56374">
        <ele>132</ele>
        <time>2022-08-22T13:32:23Z</time>
      </trkpt>
      <trkpt lat="43.47521" lon="-0.56398">
        <ele>132</ele>
        <time>2022-08-22T13:32:39Z</time>
      </trkpt>
      <trkpt lat="43.4754" lon="-0.56422">
        <ele>132</ele>
        <time>2022-08-22T13:32:56Z</time>
      </trkpt>
      <trkpt lat="43.47542" lon="-0.56429">
        <ele>132</ele>
        <time>2022-08-22T13:33:00Z</time>
      </trkpt>
      <trkpt lat="43.47539" lon="-0.56435">
        <ele>132</ele>
        <time>2022-08-22T13:33:04Z</time>
      </trkpt>
      <trkpt lat="43.47524" lon="-0.56454">
        <ele>131</ele>
        <time>2022-08-22T13:33:21Z</time>
      </trkpt>
      <trkpt lat="43.47508" lon="-0.56503">
        <ele>131</ele>
        <time>2022-08-22T13:33:51Z</time>
      </trkpt>
      <trkpt lat="43.47503" lon="-0.56518">
        <ele>131</ele>
        <time>2022-08-22T13:34:00Z</time>
      </trkpt>
      <trkpt lat="43.47485" lon="-0.56563">
        <ele>131</ele>
        <time>2022-08-22T13:34:28Z</time>
      </trkpt>
      <trkpt lat="43.47476" lon="-0.56573">
        <ele>131</ele>
        <time>2022-08-22T13:34:38Z</time>
      </trkpt>
      <trkpt lat="43.47473" lon="-0.56579">
        <ele>130</ele>
        <time>2022-08-22T13:34:43Z</time>
      </trkpt>
      <trkpt lat="43.47462" lon="-0.56581">
        <ele>130</ele>
        <time>2022-08-22T13:34:51Z</time>
      </trkpt>
      <trkpt lat="43.47457" lon="-0.56581">
        <ele>130</ele>
        <time>2022-08-22T13:34:56Z</time>
      </trkpt>
      <trkpt lat="43.47452" lon="-0.56582">
        <ele>130</ele>
        <time>2022-08-22T13:35:00Z</time>
      </trkpt>
      <trkpt lat="43.47438" lon="-0.56575">
        <ele>130</ele>
        <time>2022-08-22T13:35:13Z</time>
      </trkpt>
      <trkpt lat="43.4741" lon="-0.56553">
        <ele>130</ele>
        <time>2022-08-22T13:35:37Z</time>
      </trkpt>
      <trkpt lat="43.474" lon="-0.56548">
        <ele>130</ele>
        <time>2022-08-22T13:35:46Z</time>
      </trkpt>
      <trkpt lat="43.47394" lon="-0.56546">
        <ele>130</ele>
        <time>2022-08-22T13:35:50Z</time>
      </trkpt>
      <trkpt lat="43.47389" lon="-0.56543">
        <ele>131</ele>
        <time>2022-08-22T13:35:54Z</time>
      </trkpt>
      <trkpt lat="43.4738" lon="-0.56539">
        <ele>130</ele>
        <time>2022-08-22T13:36:01Z</time>
      </trkpt>
      <trkpt lat="43.47376" lon="-0.56538">
        <ele>131</ele>
        <time>2022-08-22T13:36:05Z</time>
      </trkpt>
      <trkpt lat="43.47369" lon="-0.56536">
        <ele>131</ele>
        <time>2022-08-22T13:36:10Z</time>
      </trkpt>
      <trkpt lat="43.47364" lon="-0.56535">
        <ele>130</ele>
        <time>2022-08-22T13:36:14Z</time>
      </trkpt>
      <trkpt lat="43.47334" lon="-0.5653">
        <ele>131</ele>
        <time>2022-08-22T13:36:37Z</time>
      </trkpt>
      <trkpt lat="43.47293" lon="-0.56531">
        <ele>132</ele>
        <time>2022-08-22T13:37:09Z</time>
      </trkpt>
      <trkpt lat="43.47283" lon="-0.5653">
        <ele>132</ele>
        <time>2022-08-22T13:37:17Z</time>
      </trkpt>
      <trkpt lat="43.47278" lon="-0.56531">
        <ele>132</ele>
        <time>2022-08-22T13:37:21Z</time>
      </trkpt>
      <trkpt lat="43.47264" lon="-0.56539">
        <ele>132</ele>
        <time>2022-08-22T13:37:33Z</time>
      </trkpt>
      <trkpt lat="43.47255" lon="-0.56547">
        <ele>133</ele>
        <time>2022-08-22T13:37:40Z</time>
      </trkpt>
      <trkpt lat="43.4725" lon="-0.56551">
        <ele>133</ele>
        <time>2022-08-22T13:37:44Z</time>
      </trkpt>
      <trkpt lat="43.47243" lon="-0.56561">
        <ele>133</ele>
        <time>2022-08-22T13:37:53Z</time>
      </trkpt>
      <trkpt lat="43.47225" lon="-0.56576">
        <ele>133</ele>
        <time>2022-08-22T13:38:09Z</time>
      </trkpt>
      <trkpt lat="43.47219" lon="-0.56578">
        <ele>133</ele>
        <time>2022-08-22T13:38:14Z</time>
      </trkpt>
      <trkpt lat="43.47209" lon="-0.56572">
        <ele>132</ele>
        <time>2022-08-22T13:38:22Z</time>
      </trkpt>
      <trkpt lat="43.472" lon="-0.56563">
        <ele>133</ele>
        <time>2022-08-22T13:38:30Z</time>
      </trkpt>
      <trkpt lat="43.47188" lon="-0.56547">
        <ele>133</ele>
        <time>2022-08-22T13:38:44Z</time>
      </trkpt>
      <trkpt lat="43.47184" lon="-0.56544">
        <ele>133</ele>
        <time>2022-08-22T13:38:48Z</time>
      </trkpt>
      <trkpt lat="43.47181" lon="-0.56538">
        <ele>133</ele>
        <time>2022-08-22T13:38:52Z</time>
      </trkpt>
      <trkpt lat="43.47176" lon="-0.56536">
        <ele>133</ele>
        <time>2022-08-22T13:38:56Z</time>
      </trkpt>
      <trkpt lat="43.47164" lon="-0.56523">
        <ele>133</ele>
        <time>2022-08-22T13:39:07Z</time>
      </trkpt>
      <trkpt lat="43.47154" lon="-0.56526">
        <ele>134</ele>
        <time>2022-08-22T13:39:15Z</time>
      </trkpt>
      <trkpt lat="43.47123" lon="-0.56564">
        <ele>135</ele>
        <time>2022-08-22T13:39:46Z</time>
      </trkpt>
      <trkpt lat="43.47119" lon="-0.56569">
        <ele>135</ele>
        <time>2022-08-22T13:39:50Z</time>
      </trkpt>
      <trkpt lat="43.47115" lon="-0.56573">
        <ele>134</ele>
        <time>2022-08-22T13:39:54Z</time>
      </trkpt>
      <trkpt lat="43.47111" lon="-0.56577">
        <ele>135</ele>
        <time>2022-08-22T13:39:58Z</time>
      </trkpt>
      <trkpt lat="43.47107" lon="-0.56582">
        <ele>136</ele>
        <time>2022-08-22T13:40:02Z</time>
      </trkpt>
      <trkpt lat="43.471" lon="-0.56591">
        <ele>135</ele>
        <time>2022-08-22T13:40:10Z</time>
      </trkpt>
      <trkpt lat="43.47087" lon="-0.56609">
        <ele>135</ele>
        <time>2022-08-22T13:40:22Z</time>
      </trkpt>
      <trkpt lat="43.47085" lon="-0.56615">
        <ele>136</ele>
        <time>2022-08-22T13:40:30Z</time>
      </trkpt>
      <trkpt lat="43.4708" lon="-0.5662">
        <ele>135</ele>
        <time>2022-08-22T13:40:42Z</time>
      </trkpt>
      <trkpt lat="43.47076" lon="-0.56626">
        <ele>135</ele>
        <time>2022-08-22T13:40:46Z</time>
      </trkpt>
      <trkpt lat="43.47071" lon="-0.56632">
        <ele>135</ele>
        <time>2022-08-22T13:40:50Z</time>
      </trkpt>
      <trkpt lat="43.4706" lon="-0.56646">
        <ele>135</ele>
        <time>2022-08-22T13:41:00Z</time>
      </trkpt>
      <trkpt lat="43.47045" lon="-0.56664">
        <ele>136</ele>
        <time>2022-08-22T13:41:14Z</time>
      </trkpt>
      <trkpt lat="43.47022" lon="-0.56699">
        <ele>137</ele>
        <time>2022-08-22T13:41:37Z</time>
      </trkpt>
      <trkpt lat="43.47015" lon="-0.5671">
        <ele>136</ele>
        <time>2022-08-22T13:41:45Z</time>
      </trkpt>
      <trkpt lat="43.46994" lon="-0.56751">
        <ele>136</ele>
        <time>2022-08-22T13:42:14Z</time>
      </trkpt>
      <trkpt lat="43.4697" lon="-0.56788">
        <ele>136</ele>
        <time>2022-08-22T13:42:40Z</time>
      </trkpt>
      <trkpt lat="43.46964" lon="-0.56802">
        <ele>136</ele>
        <time>2022-08-22T13:42:48Z</time>
      </trkpt>
      <trkpt lat="43.46961" lon="-0.56808">
        <ele>136</ele>
        <time>2022-08-22T13:42:52Z</time>
      </trkpt>
      <trkpt lat="43.46936" lon="-0.56857">
        <ele>138</ele>
        <time>2022-08-22T13:43:24Z</time>
      </trkpt>
      <trkpt lat="43.4693" lon="-0.56869">
        <ele>139</ele>
        <time>2022-08-22T13:43:32Z</time>
      </trkpt>
      <trkpt lat="43.46919" lon="-0.56885">
        <ele>139</ele>
        <time>2022-08-22T13:43:44Z</time>
      </trkpt>
      <trkpt lat="43.46915" lon="-0.5689">
        <ele>140</ele>
        <time>2022-08-22T13:43:48Z</time>
      </trkpt>
      <trkpt lat="43.46912" lon="-0.56897">
        <ele>140</ele>
        <time>2022-08-22T13:43:51Z</time>
      </trkpt>
      <trkpt lat="43.46892" lon="-0.5692">
        <ele>142</ele>
        <time>2022-08-22T13:44:09Z</time>
      </trkpt>
      <trkpt lat="43.46887" lon="-0.56922">
        <ele>142</ele>
        <time>2022-08-22T13:44:12Z</time>
      </trkpt>
      <trkpt lat="43.46864" lon="-0.56945">
        <ele>144</ele>
        <time>2022-08-22T13:44:31Z</time>
      </trkpt>
      <trkpt lat="43.46862" lon="-0.56952">
        <ele>144</ele>
        <time>2022-08-22T13:44:34Z</time>
      </trkpt>
      <trkpt lat="43.46858" lon="-0.56957">
        <ele>145</ele>
        <time>2022-08-22T13:44:38Z</time>
      </trkpt>
      <trkpt lat="43.46854" lon="-0.5696">
        <ele>145</ele>
        <time>2022-08-22T13:44:42Z</time>
      </trkpt>
      <trkpt lat="43.46851" lon="-0.56965">
        <ele>145</ele>
        <time>2022-08-22T13:44:46Z</time>
      </trkpt>
      <trkpt lat="43.46847" lon="-0.56969">
        <ele>145</ele>
        <time>2022-08-22T13:44:51Z</time>
      </trkpt>
      <trkpt lat="43.46845" lon="-0.56976">
        <ele>146</ele>
        <time>2022-08-22T13:44:56Z</time>
      </trkpt>
      <trkpt lat="43.46822" lon="-0.57008">
        <ele>149</ele>
        <time>2022-08-22T13:45:25Z</time>
      </trkpt>
      <trkpt lat="43.46808" lon="-0.57021">
        <ele>150</ele>
        <time>2022-08-22T13:45:39Z</time>
      </trkpt>
      <trkpt lat="43.46796" lon="-0.57035">
        <ele>152</ele>
        <time>2022-08-22T13:45:51Z</time>
      </trkpt>
      <trkpt lat="43.46761" lon="-0.57063">
        <ele>155</ele>
        <time>2022-08-22T13:46:21Z</time>
      </trkpt>
      <trkpt lat="43.46739" lon="-0.57076">
        <ele>157</ele>
        <time>2022-08-22T13:46:37Z</time>
      </trkpt>
      <trkpt lat="43.46729" lon="-0.5708">
        <ele>158</ele>
        <time>2022-08-22T13:46:45Z</time>
      </trkpt>
      <trkpt lat="43.4672" lon="-0.57087">
        <ele>160</ele>
        <time>2022-08-22T13:46:53Z</time>
      </trkpt>
      <trkpt lat="43.46713" lon="-0.57091">
        <ele>160</ele>
        <time>2022-08-22T13:47:01Z</time>
      </trkpt>
      <trkpt lat="43.46709" lon="-0.57094">
        <ele>161</ele>
        <time>2022-08-22T13:47:06Z</time>
      </trkpt>
      <trkpt lat="43.46697" lon="-0.57098">
        <ele>162</ele>
        <time>2022-08-22T13:47:16Z</time>
      </trkpt>
      <trkpt lat="43.46687" lon="-0.57111">
        <ele>164</ele>
        <time>2022-08-22T13:47:27Z</time>
      </trkpt>
      <trkpt lat="43.4668" lon="-0.57131">
        <ele>165</ele>
        <time>2022-08-22T13:47:41Z</time>
      </trkpt>
      <trkpt lat="43.46663" lon="-0.5717">
        <ele>170</ele>
        <time>2022-08-22T13:48:12Z</time>
      </trkpt>
      <trkpt lat="43.46661" lon="-0.57177">
        <ele>170</ele>
        <time>2022-08-22T13:48:24Z</time>
      </trkpt>
      <trkpt lat="43.46659" lon="-0.57211">
        <ele>174</ele>
        <time>2022-08-22T13:48:48Z</time>
      </trkpt>
      <trkpt lat="43.46662" lon="-0.57221">
        <ele>175</ele>
        <time>2022-08-22T13:49:07Z</time>
      </trkpt>
      <trkpt lat="43.46665" lon="-0.57229">
        <ele>176</ele>
        <time>2022-08-22T13:49:12Z</time>
      </trkpt>
      <trkpt lat="43.46683" lon="-0.57259">
        <ele>181</ele>
        <time>2022-08-22T13:49:41Z</time>
      </trkpt>
      <trkpt lat="43.46685" lon="-0.5727">
        <ele>183</ele>
        <time>2022-08-22T13:49:55Z</time>
      </trkpt>
      <trkpt lat="43.46695" lon="-0.57294">
        <ele>186</ele>
        <time>2022-08-22T13:50:26Z</time>
      </trkpt>
      <trkpt lat="43.46696" lon="-0.57304">
        <ele>188</ele>
        <time>2022-08-22T13:50:39Z</time>
      </trkpt>
      <trkpt lat="43.467" lon="-0.57342">
        <ele>193</ele>
        <time>2022-08-22T13:51:13Z</time>
      </trkpt>
      <trkpt lat="43.467" lon="-0.57357">
        <ele>195</ele>
        <time>2022-08-22T13:51:25Z</time>
      </trkpt>
      <trkpt lat="43.46699" lon="-0.57367">
        <ele>196</ele>
        <time>2022-08-22T13:51:32Z</time>
      </trkpt>
      <trkpt lat="43.46699" lon="-0.57373">
        <ele>197</ele>
        <time>2022-08-22T13:51:46Z</time>
      </trkpt>
      <trkpt lat="43.46697" lon="-0.57381">
        <ele>197</ele>
        <time>2022-08-22T13:51:53Z</time>
      </trkpt>
      <trkpt lat="43.46698" lon="-0.57395">
        <ele>198</ele>
        <time>2022-08-22T13:52:02Z</time>
      </trkpt>
      <trkpt lat="43.46693" lon="-0.57416">
        <ele>198</ele>
        <time>2022-08-22T13:52:17Z</time>
      </trkpt>
      <trkpt lat="43.4669" lon="-0.57426">
        <ele>198</ele>
        <time>2022-08-22T13:52:25Z</time>
      </trkpt>
      <trkpt lat="43.46687" lon="-0.57431">
        <ele>198</ele>
        <time>2022-08-22T13:52:30Z</time>
      </trkpt>
      <trkpt lat="43.46678" lon="-0.57436">
        <ele>198</ele>
        <time>2022-08-22T13:52:42Z</time>
      </trkpt>
      <trkpt lat="43.46674" lon="-0.57432">
        <ele>197</ele>
        <time>2022-08-22T13:54:35Z</time>
      </trkpt>
      <trkpt lat="43.46675" lon="-0.57426">
        <ele>196</ele>
        <time>2022-08-22T13:58:03Z</time>
      </trkpt>
      <trkpt lat="43.4668" lon="-0.57433">
        <ele>196</ele>
        <time>2022-08-22T13:58:56Z</time>
      </trkpt>
      <trkpt lat="43.46677" lon="-0.57433">
        <ele>196</ele>
        <time>2022-08-22T14:01:18Z</time>
      </trkpt>
      <trkpt lat="43.46673" lon="-0.57435">
        <ele>196</ele>
        <time>2022-08-22T14:06:54Z</time>
      </trkpt>
      <trkpt lat="43.46675" lon="-0.57442">
        <ele>196</ele>
        <time>2022-08-22T14:07:58Z</time>
      </trkpt>
      <trkpt lat="43.46671" lon="-0.57444">
        <ele>196</ele>
        <time>2022-08-22T14:08:02Z</time>
      </trkpt>
      <trkpt lat="43.46664" lon="-0.57445">
        <ele>196</ele>
        <time>2022-08-22T14:08:09Z</time>
      </trkpt>
      <trkpt lat="43.4666" lon="-0.57449">
        <ele>196</ele>
        <time>2022-08-22T14:08:19Z</time>
      </trkpt>
      <trkpt lat="43.46655" lon="-0.57451">
        <ele>196</ele>
        <time>2022-08-22T14:08:24Z</time>
      </trkpt>
      <trkpt lat="43.46649" lon="-0.57456">
        <ele>196</ele>
        <time>2022-08-22T14:08:31Z</time>
      </trkpt>
      <trkpt lat="43.46643" lon="-0.5746">
        <ele>195</ele>
        <time>2022-08-22T14:08:38Z</time>
      </trkpt>
      <trkpt lat="43.46639" lon="-0.57465">
        <ele>196</ele>
        <time>2022-08-22T14:08:43Z</time>
      </trkpt>
      <trkpt lat="43.46636" lon="-0.57472">
        <ele>195</ele>
        <time>2022-08-22T14:08:48Z</time>
      </trkpt>
      <trkpt lat="43.46632" lon="-0.57497">
        <ele>196</ele>
        <time>2022-08-22T14:09:04Z</time>
      </trkpt>
      <trkpt lat="43.46633" lon="-0.57518">
        <ele>197</ele>
        <time>2022-08-22T14:09:18Z</time>
      </trkpt>
      <trkpt lat="43.46628" lon="-0.57537">
        <ele>199</ele>
        <time>2022-08-22T14:09:31Z</time>
      </trkpt>
      <trkpt lat="43.46624" lon="-0.57542">
        <ele>199</ele>
        <time>2022-08-22T14:09:36Z</time>
      </trkpt>
      <trkpt lat="43.46611" lon="-0.57556">
        <ele>199</ele>
        <time>2022-08-22T14:09:48Z</time>
      </trkpt>
      <trkpt lat="43.46607" lon="-0.57558">
        <ele>199</ele>
        <time>2022-08-22T14:09:52Z</time>
      </trkpt>
      <trkpt lat="43.46601" lon="-0.5756">
        <ele>199</ele>
        <time>2022-08-22T14:09:55Z</time>
      </trkpt>
      <trkpt lat="43.46593" lon="-0.57565">
        <ele>200</ele>
        <time>2022-08-22T14:10:02Z</time>
      </trkpt>
      <trkpt lat="43.46588" lon="-0.57569">
        <ele>200</ele>
        <time>2022-08-22T14:10:07Z</time>
      </trkpt>
      <trkpt lat="43.46583" lon="-0.5757">
        <ele>200</ele>
        <time>2022-08-22T14:10:11Z</time>
      </trkpt>
      <trkpt lat="43.46563" lon="-0.57581">
        <ele>200</ele>
        <time>2022-08-22T14:10:26Z</time>
      </trkpt>
      <trkpt lat="43.46558" lon="-0.57585">
        <ele>200</ele>
        <time>2022-08-22T14:10:30Z</time>
      </trkpt>
      <trkpt lat="43.46548" lon="-0.57599">
        <ele>200</ele>
        <time>2022-08-22T14:10:41Z</time>
      </trkpt>
      <trkpt lat="43.46544" lon="-0.57603">
        <ele>201</ele>
        <time>2022-08-22T14:10:46Z</time>
      </trkpt>
      <trkpt lat="43.46537" lon="-0.57613">
        <ele>200</ele>
        <time>2022-08-22T14:10:54Z</time>
      </trkpt>
      <trkpt lat="43.46532" lon="-0.57617">
        <ele>201</ele>
        <time>2022-08-22T14:10:59Z</time>
      </trkpt>
      <trkpt lat="43.46526" lon="-0.57621">
        <ele>200</ele>
        <time>2022-08-22T14:11:06Z</time>
      </trkpt>
      <trkpt lat="43.46522" lon="-0.57625">
        <ele>200</ele>
        <time>2022-08-22T14:11:10Z</time>
      </trkpt>
      <trkpt lat="43.46518" lon="-0.57631">
        <ele>200</ele>
        <time>2022-08-22T14:11:15Z</time>
      </trkpt>
      <trkpt lat="43.46512" lon="-0.5764">
        <ele>200</ele>
        <time>2022-08-22T14:11:22Z</time>
      </trkpt>
      <trkpt lat="43.46507" lon="-0.57645">
        <ele>200</ele>
        <time>2022-08-22T14:11:29Z</time>
      </trkpt>
      <trkpt lat="43.46495" lon="-0.57661">
        <ele>201</ele>
        <time>2022-08-22T14:11:41Z</time>
      </trkpt>
      <trkpt lat="43.46488" lon="-0.57671">
        <ele>200</ele>
        <time>2022-08-22T14:11:48Z</time>
      </trkpt>
      <trkpt lat="43.46477" lon="-0.57688">
        <ele>199</ele>
        <time>2022-08-22T14:12:01Z</time>
      </trkpt>
      <trkpt lat="43.46476" lon="-0.57709">
        <ele>199</ele>
        <time>2022-08-22T14:12:14Z</time>
      </trkpt>
      <trkpt lat="43.46476" lon="-0.57716">
        <ele>199</ele>
        <time>2022-08-22T14:12:18Z</time>
      </trkpt>
      <trkpt lat="43.46476" lon="-0.57723">
        <ele>199</ele>
        <time>2022-08-22T14:12:22Z</time>
      </trkpt>
      <trkpt lat="43.46477" lon="-0.57737">
        <ele>198</ele>
        <time>2022-08-22T14:12:30Z</time>
      </trkpt>
      <trkpt lat="43.46473" lon="-0.57777">
        <ele>198</ele>
        <time>2022-08-22T14:12:52Z</time>
      </trkpt>
      <trkpt lat="43.46459" lon="-0.57829">
        <ele>198</ele>
        <time>2022-08-22T14:13:24Z</time>
      </trkpt>
      <trkpt lat="43.46456" lon="-0.57844">
        <ele>197</ele>
        <time>2022-08-22T14:13:33Z</time>
      </trkpt>
      <trkpt lat="43.46453" lon="-0.57856">
        <ele>198</ele>
        <time>2022-08-22T14:13:42Z</time>
      </trkpt>
      <trkpt lat="43.46452" lon="-0.57868">
        <ele>197</ele>
        <time>2022-08-22T14:14:04Z</time>
      </trkpt>
      <trkpt lat="43.46451" lon="-0.57877">
        <ele>197</ele>
        <time>2022-08-22T14:14:09Z</time>
      </trkpt>
      <trkpt lat="43.46442" lon="-0.57929">
        <ele>195</ele>
        <time>2022-08-22T14:14:44Z</time>
      </trkpt>
      <trkpt lat="43.4644" lon="-0.57936">
        <ele>194</ele>
        <time>2022-08-22T14:14:48Z</time>
      </trkpt>
      <trkpt lat="43.46442" lon="-0.5795">
        <ele>194</ele>
        <time>2022-08-22T14:14:57Z</time>
      </trkpt>
      <trkpt lat="43.46437" lon="-0.57971">
        <ele>192</ele>
        <time>2022-08-22T14:15:39Z</time>
      </trkpt>
      <trkpt lat="43.4644" lon="-0.57983">
        <ele>191</ele>
        <time>2022-08-22T14:15:47Z</time>
      </trkpt>
      <trkpt lat="43.46439" lon="-0.58003">
        <ele>189</ele>
        <time>2022-08-22T14:16:02Z</time>
      </trkpt>
      <trkpt lat="43.46437" lon="-0.58019">
        <ele>187</ele>
        <time>2022-08-22T14:16:13Z</time>
      </trkpt>
      <trkpt lat="43.46438" lon="-0.58026">
        <ele>186</ele>
        <time>2022-08-22T14:16:17Z</time>
      </trkpt>
      <trkpt lat="43.46435" lon="-0.58048">
        <ele>184</ele>
        <time>2022-08-22T14:16:32Z</time>
      </trkpt>
      <trkpt lat="43.46434" lon="-0.58062">
        <ele>184</ele>
        <time>2022-08-22T14:16:40Z</time>
      </trkpt>
      <trkpt lat="43.46433" lon="-0.58082">
        <ele>182</ele>
        <time>2022-08-22T14:16:53Z</time>
      </trkpt>
      <trkpt lat="43.4642" lon="-0.58146">
        <ele>178</ele>
        <time>2022-08-22T14:17:31Z</time>
      </trkpt>
      <trkpt lat="43.46418" lon="-0.58185">
        <ele>175</ele>
        <time>2022-08-22T14:17:54Z</time>
      </trkpt>
      <trkpt lat="43.46416" lon="-0.58199">
        <ele>174</ele>
        <time>2022-08-22T14:18:03Z</time>
      </trkpt>
      <trkpt lat="43.46414" lon="-0.58224">
        <ele>171</ele>
        <time>2022-08-22T14:18:18Z</time>
      </trkpt>
      <trkpt lat="43.46408" lon="-0.58276">
        <ele>166</ele>
        <time>2022-08-22T14:18:49Z</time>
      </trkpt>
      <trkpt lat="43.46409" lon="-0.58292">
        <ele>164</ele>
        <time>2022-08-22T14:18:56Z</time>
      </trkpt>
      <trkpt lat="43.46406" lon="-0.58312">
        <ele>161</ele>
        <time>2022-08-22T14:19:05Z</time>
      </trkpt>
      <trkpt lat="43.46403" lon="-0.58319">
        <ele>161</ele>
        <time>2022-08-22T14:19:09Z</time>
      </trkpt>
      <trkpt lat="43.464" lon="-0.58324">
        <ele>160</ele>
        <time>2022-08-22T14:19:12Z</time>
      </trkpt>
      <trkpt lat="43.46397" lon="-0.58328">
        <ele>160</ele>
        <time>2022-08-22T14:19:15Z</time>
      </trkpt>
      <trkpt lat="43.46387" lon="-0.58333">
        <ele>158</ele>
        <time>2022-08-22T14:19:22Z</time>
      </trkpt>
      <trkpt lat="43.46378" lon="-0.58334">
        <ele>157</ele>
        <time>2022-08-22T14:19:28Z</time>
      </trkpt>
      <trkpt lat="43.4637" lon="-0.58342">
        <ele>155</ele>
        <time>2022-08-22T14:19:39Z</time>
      </trkpt>
      <trkpt lat="43.46341" lon="-0.5836">
        <ele>149</ele>
        <time>2022-08-22T14:20:08Z</time>
      </trkpt>
      <trkpt lat="43.46336" lon="-0.58364">
        <ele>149</ele>
        <time>2022-08-22T14:20:12Z</time>
      </trkpt>
      <trkpt lat="43.4633" lon="-0.58364">
        <ele>147</ele>
        <time>2022-08-22T14:20:16Z</time>
      </trkpt>
      <trkpt lat="43.46306" lon="-0.58384">
        <ele>144</ele>
        <time>2022-08-22T14:20:36Z</time>
      </trkpt>
      <trkpt lat="43.46299" lon="-0.58394">
        <ele>144</ele>
        <time>2022-08-22T14:20:44Z</time>
      </trkpt>
      <trkpt lat="43.46294" lon="-0.58398">
        <ele>143</ele>
        <time>2022-08-22T14:20:49Z</time>
      </trkpt>
      <trkpt lat="43.46273" lon="-0.5844">
        <ele>141</ele>
        <time>2022-08-22T14:21:20Z</time>
      </trkpt>
      <trkpt lat="43.46271" lon="-0.58446">
        <ele>141</ele>
        <time>2022-08-22T14:21:25Z</time>
      </trkpt>
      <trkpt lat="43.46266" lon="-0.58454">
        <ele>140</ele>
        <time>2022-08-22T14:21:31Z</time>
      </trkpt>
      <trkpt lat="43.46259" lon="-0.58472">
        <ele>139</ele>
        <time>2022-08-22T14:21:45Z</time>
      </trkpt>
      <trkpt lat="43.46258" lon="-0.58479">
        <ele>139</ele>
        <time>2022-08-22T14:21:49Z</time>
      </trkpt>
      <trkpt lat="43.46255" lon="-0.58485">
        <ele>139</ele>
        <time>2022-08-22T14:21:54Z</time>
      </trkpt>
      <trkpt lat="43.46254" lon="-0.58492">
        <ele>139</ele>
        <time>2022-08-22T14:21:59Z</time>
      </trkpt>
      <trkpt lat="43.46251" lon="-0.58498">
        <ele>139</ele>
        <time>2022-08-22T14:22:04Z</time>
      </trkpt>
      <trkpt lat="43.46248" lon="-0.58503">
        <ele>139</ele>
        <time>2022-08-22T14:22:08Z</time>
      </trkpt>
      <trkpt lat="43.46246" lon="-0.58509">
        <ele>139</ele>
        <time>2022-08-22T14:22:12Z</time>
      </trkpt>
      <trkpt lat="43.46243" lon="-0.58515">
        <ele>139</ele>
        <time>2022-08-22T14:22:16Z</time>
      </trkpt>
      <trkpt lat="43.46241" lon="-0.58522">
        <ele>139</ele>
        <time>2022-08-22T14:22:20Z</time>
      </trkpt>
      <trkpt lat="43.46238" lon="-0.58528">
        <ele>139</ele>
        <time>2022-08-22T14:22:24Z</time>
      </trkpt>
      <trkpt lat="43.46235" lon="-0.58542">
        <ele>139</ele>
        <time>2022-08-22T14:22:32Z</time>
      </trkpt>
      <trkpt lat="43.46233" lon="-0.58555">
        <ele>139</ele>
        <time>2022-08-22T14:22:40Z</time>
      </trkpt>
      <trkpt lat="43.46233" lon="-0.58562">
        <ele>139</ele>
        <time>2022-08-22T14:22:44Z</time>
      </trkpt>
      <trkpt lat="43.46235" lon="-0.58574">
        <ele>139</ele>
        <time>2022-08-22T14:22:52Z</time>
      </trkpt>
      <trkpt lat="43.46236" lon="-0.58602">
        <ele>139</ele>
        <time>2022-08-22T14:23:08Z</time>
      </trkpt>
      <trkpt lat="43.46237" lon="-0.5861">
        <ele>139</ele>
        <time>2022-08-22T14:23:13Z</time>
      </trkpt>
      <trkpt lat="43.46238" lon="-0.58623">
        <ele>139</ele>
        <time>2022-08-22T14:23:21Z</time>
      </trkpt>
      <trkpt lat="43.46237" lon="-0.58637">
        <ele>138</ele>
        <time>2022-08-22T14:23:30Z</time>
      </trkpt>
      <trkpt lat="43.46238" lon="-0.58653">
        <ele>139</ele>
        <time>2022-08-22T14:23:38Z</time>
      </trkpt>
      <trkpt lat="43.46238" lon="-0.58663">
        <ele>139</ele>
        <time>2022-08-22T14:23:44Z</time>
      </trkpt>
      <trkpt lat="43.4624" lon="-0.58677">
        <ele>138</ele>
        <time>2022-08-22T14:23:53Z</time>
      </trkpt>
      <trkpt lat="43.4624" lon="-0.58705">
        <ele>138</ele>
        <time>2022-08-22T14:24:10Z</time>
      </trkpt>
      <trkpt lat="43.46241" lon="-0.58712">
        <ele>138</ele>
        <time>2022-08-22T14:24:14Z</time>
      </trkpt>
      <trkpt lat="43.46242" lon="-0.58753">
        <ele>137</ele>
        <time>2022-08-22T14:24:40Z</time>
      </trkpt>
      <trkpt lat="43.46242" lon="-0.5876">
        <ele>137</ele>
        <time>2022-08-22T14:24:44Z</time>
      </trkpt>
      <trkpt lat="43.46243" lon="-0.58786">
        <ele>136</ele>
        <time>2022-08-22T14:25:00Z</time>
      </trkpt>
      <trkpt lat="43.46246" lon="-0.58829">
        <ele>136</ele>
        <time>2022-08-22T14:25:26Z</time>
      </trkpt>
      <trkpt lat="43.46245" lon="-0.58836">
        <ele>136</ele>
        <time>2022-08-22T14:25:30Z</time>
      </trkpt>
      <trkpt lat="43.46246" lon="-0.58843">
        <ele>136</ele>
        <time>2022-08-22T14:25:34Z</time>
      </trkpt>
      <trkpt lat="43.46249" lon="-0.58898">
        <ele>136</ele>
        <time>2022-08-22T14:26:07Z</time>
      </trkpt>
      <trkpt lat="43.4625" lon="-0.58921">
        <ele>136</ele>
        <time>2022-08-22T14:26:22Z</time>
      </trkpt>
      <trkpt lat="43.46246" lon="-0.58943">
        <ele>136</ele>
        <time>2022-08-22T14:26:36Z</time>
      </trkpt>
      <trkpt lat="43.46232" lon="-0.58975">
        <ele>136</ele>
        <time>2022-08-22T14:26:59Z</time>
      </trkpt>
      <trkpt lat="43.46207" lon="-0.59014">
        <ele>137</ele>
        <time>2022-08-22T14:27:29Z</time>
      </trkpt>
      <trkpt lat="43.46194" lon="-0.59034">
        <ele>137</ele>
        <time>2022-08-22T14:27:48Z</time>
      </trkpt>
      <trkpt lat="43.46185" lon="-0.59054">
        <ele>137</ele>
        <time>2022-08-22T14:28:03Z</time>
      </trkpt>
      <trkpt lat="43.46172" lon="-0.59076">
        <ele>138</ele>
        <time>2022-08-22T14:28:21Z</time>
      </trkpt>
      <trkpt lat="43.46164" lon="-0.59095">
        <ele>139</ele>
        <time>2022-08-22T14:28:34Z</time>
      </trkpt>
      <trkpt lat="43.46163" lon="-0.59102">
        <ele>139</ele>
        <time>2022-08-22T14:28:39Z</time>
      </trkpt>
      <trkpt lat="43.46161" lon="-0.59116">
        <ele>139</ele>
        <time>2022-08-22T14:28:47Z</time>
      </trkpt>
      <trkpt lat="43.46158" lon="-0.59123">
        <ele>139</ele>
        <time>2022-08-22T14:28:52Z</time>
      </trkpt>
      <trkpt lat="43.46155" lon="-0.59136">
        <ele>140</ele>
        <time>2022-08-22T14:29:00Z</time>
      </trkpt>
      <trkpt lat="43.46155" lon="-0.59142">
        <ele>140</ele>
        <time>2022-08-22T14:29:04Z</time>
      </trkpt>
      <trkpt lat="43.46156" lon="-0.59157">
        <ele>140</ele>
        <time>2022-08-22T14:29:12Z</time>
      </trkpt>
      <trkpt lat="43.46156" lon="-0.59163">
        <ele>140</ele>
        <time>2022-08-22T14:29:16Z</time>
      </trkpt>
      <trkpt lat="43.4616" lon="-0.59211">
        <ele>142</ele>
        <time>2022-08-22T14:29:46Z</time>
      </trkpt>
      <trkpt lat="43.46158" lon="-0.59267">
        <ele>142</ele>
        <time>2022-08-22T14:30:21Z</time>
      </trkpt>
      <trkpt lat="43.46159" lon="-0.59324">
        <ele>144</ele>
        <time>2022-08-22T14:30:54Z</time>
      </trkpt>
      <trkpt lat="43.46159" lon="-0.5933">
        <ele>144</ele>
        <time>2022-08-22T14:30:58Z</time>
      </trkpt>
      <trkpt lat="43.46159" lon="-0.59336">
        <ele>144</ele>
        <time>2022-08-22T14:31:02Z</time>
      </trkpt>
      <trkpt lat="43.46159" lon="-0.59342">
        <ele>144</ele>
        <time>2022-08-22T14:31:06Z</time>
      </trkpt>
      <trkpt lat="43.46159" lon="-0.59348">
        <ele>145</ele>
        <time>2022-08-22T14:31:10Z</time>
      </trkpt>
      <trkpt lat="43.46158" lon="-0.59368">
        <ele>145</ele>
        <time>2022-08-22T14:31:22Z</time>
      </trkpt>
      <trkpt lat="43.46155" lon="-0.5938">
        <ele>146</ele>
        <time>2022-08-22T14:31:31Z</time>
      </trkpt>
      <trkpt lat="43.46153" lon="-0.59403">
        <ele>146</ele>
        <time>2022-08-22T14:31:47Z</time>
      </trkpt>
      <trkpt lat="43.46147" lon="-0.59449">
        <ele>148</ele>
        <time>2022-08-22T14:32:17Z</time>
      </trkpt>
      <trkpt lat="43.46148" lon="-0.59462">
        <ele>149</ele>
        <time>2022-08-22T14:32:25Z</time>
      </trkpt>
      <trkpt lat="43.46142" lon="-0.59506">
        <ele>151</ele>
        <time>2022-08-22T14:32:53Z</time>
      </trkpt>
      <trkpt lat="43.46134" lon="-0.59558">
        <ele>154</ele>
        <time>2022-08-22T14:33:27Z</time>
      </trkpt>
      <trkpt lat="43.46132" lon="-0.59572">
        <ele>155</ele>
        <time>2022-08-22T14:33:38Z</time>
      </trkpt>
      <trkpt lat="43.46129" lon="-0.59579">
        <ele>155</ele>
        <time>2022-08-22T14:33:42Z</time>
      </trkpt>
      <trkpt lat="43.46126" lon="-0.59605">
        <ele>156</ele>
        <time>2022-08-22T14:34:00Z</time>
      </trkpt>
      <trkpt lat="43.46123" lon="-0.59611">
        <ele>157</ele>
        <time>2022-08-22T14:34:08Z</time>
      </trkpt>
      <trkpt lat="43.46117" lon="-0.59616">
        <ele>157</ele>
        <time>2022-08-22T14:34:18Z</time>
      </trkpt>
      <trkpt lat="43.46106" lon="-0.59619">
        <ele>157</ele>
        <time>2022-08-22T14:34:30Z</time>
      </trkpt>
      <trkpt lat="43.46081" lon="-0.59624">
        <ele>156</ele>
        <time>2022-08-22T14:34:51Z</time>
      </trkpt>
      <trkpt lat="43.46066" lon="-0.59629">
        <ele>156</ele>
        <time>2022-08-22T14:35:04Z</time>
      </trkpt>
      <trkpt lat="43.46061" lon="-0.59634">
        <ele>156</ele>
        <time>2022-08-22T14:35:09Z</time>
      </trkpt>
      <trkpt lat="43.46056" lon="-0.59647">
        <ele>156</ele>
        <time>2022-08-22T14:35:18Z</time>
      </trkpt>
      <trkpt lat="43.46051" lon="-0.59679">
        <ele>157</ele>
        <time>2022-08-22T14:35:37Z</time>
      </trkpt>
      <trkpt lat="43.46052" lon="-0.59686">
        <ele>157</ele>
        <time>2022-08-22T14:35:41Z</time>
      </trkpt>
      <trkpt lat="43.4605" lon="-0.59698">
        <ele>157</ele>
        <time>2022-08-22T14:35:49Z</time>
      </trkpt>
      <trkpt lat="43.46042" lon="-0.59746">
        <ele>160</ele>
        <time>2022-08-22T14:36:22Z</time>
      </trkpt>
      <trkpt lat="43.46035" lon="-0.59775">
        <ele>162</ele>
        <time>2022-08-22T14:36:41Z</time>
      </trkpt>
      <trkpt lat="43.4603" lon="-0.59781">
        <ele>163</ele>
        <time>2022-08-22T14:36:47Z</time>
      </trkpt>
      <trkpt lat="43.46022" lon="-0.59779">
        <ele>163</ele>
        <time>2022-08-22T14:36:55Z</time>
      </trkpt>
      <trkpt lat="43.46017" lon="-0.59775">
        <ele>163</ele>
        <time>2022-08-22T14:37:00Z</time>
      </trkpt>
      <trkpt lat="43.4601" lon="-0.59764">
        <ele>164</ele>
        <time>2022-08-22T14:37:09Z</time>
      </trkpt>
      <trkpt lat="43.46006" lon="-0.59755">
        <ele>165</ele>
        <time>2022-08-22T14:37:31Z</time>
      </trkpt>
      <trkpt lat="43.46002" lon="-0.59751">
        <ele>166</ele>
        <time>2022-08-22T14:37:35Z</time>
      </trkpt>
      <trkpt lat="43.45985" lon="-0.59732">
        <ele>169</ele>
        <time>2022-08-22T14:37:58Z</time>
      </trkpt>
      <trkpt lat="43.45981" lon="-0.59728">
        <ele>169</ele>
        <time>2022-08-22T14:38:03Z</time>
      </trkpt>
      <trkpt lat="43.45973" lon="-0.59718">
        <ele>169</ele>
        <time>2022-08-22T14:38:12Z</time>
      </trkpt>
      <trkpt lat="43.45956" lon="-0.59701">
        <ele>170</ele>
        <time>2022-08-22T14:38:29Z</time>
      </trkpt>
      <trkpt lat="43.45936" lon="-0.59681">
        <ele>170</ele>
        <time>2022-08-22T14:38:50Z</time>
      </trkpt>
      <trkpt lat="43.45932" lon="-0.59678">
        <ele>170</ele>
        <time>2022-08-22T14:38:54Z</time>
      </trkpt>
      <trkpt lat="43.45923" lon="-0.59674">
        <ele>169</ele>
        <time>2022-08-22T14:39:02Z</time>
      </trkpt>
      <trkpt lat="43.45901" lon="-0.59664">
        <ele>170</ele>
        <time>2022-08-22T14:39:22Z</time>
      </trkpt>
      <trkpt lat="43.45895" lon="-0.59663">
        <ele>170</ele>
        <time>2022-08-22T14:39:26Z</time>
      </trkpt>
      <trkpt lat="43.45871" lon="-0.59657">
        <ele>170</ele>
        <time>2022-08-22T14:39:46Z</time>
      </trkpt>
      <trkpt lat="43.4583" lon="-0.59658">
        <ele>172</ele>
        <time>2022-08-22T14:40:18Z</time>
      </trkpt>
      <trkpt lat="43.45795" lon="-0.59665">
        <ele>172</ele>
        <time>2022-08-22T14:40:46Z</time>
      </trkpt>
      <trkpt lat="43.4579" lon="-0.59668">
        <ele>173</ele>
        <time>2022-08-22T14:40:51Z</time>
      </trkpt>
      <trkpt lat="43.45787" lon="-0.59672">
        <ele>173</ele>
        <time>2022-08-22T14:40:55Z</time>
      </trkpt>
      <trkpt lat="43.45774" lon="-0.59682">
        <ele>173</ele>
        <time>2022-08-22T14:41:06Z</time>
      </trkpt>
      <trkpt lat="43.45768" lon="-0.59685">
        <ele>172</ele>
        <time>2022-08-22T14:41:12Z</time>
      </trkpt>
      <trkpt lat="43.45755" lon="-0.59688">
        <ele>171</ele>
        <time>2022-08-22T14:41:24Z</time>
      </trkpt>
      <trkpt lat="43.45744" lon="-0.59685">
        <ele>172</ele>
        <time>2022-08-22T14:41:48Z</time>
      </trkpt>
      <trkpt lat="43.45734" lon="-0.59685">
        <ele>172</ele>
        <time>2022-08-22T14:41:55Z</time>
      </trkpt>
      <trkpt lat="43.45723" lon="-0.59684">
        <ele>173</ele>
        <time>2022-08-22T14:42:02Z</time>
      </trkpt>
      <trkpt lat="43.45714" lon="-0.59688">
        <ele>174</ele>
        <time>2022-08-22T14:42:10Z</time>
      </trkpt>
      <trkpt lat="43.45703" lon="-0.597">
        <ele>175</ele>
        <time>2022-08-22T14:42:22Z</time>
      </trkpt>
      <trkpt lat="43.45701" lon="-0.59705">
        <ele>175</ele>
        <time>2022-08-22T14:42:27Z</time>
      </trkpt>
      <trkpt lat="43.45692" lon="-0.59712">
        <ele>176</ele>
        <time>2022-08-22T14:42:34Z</time>
      </trkpt>
      <trkpt lat="43.45688" lon="-0.59715">
        <ele>176</ele>
        <time>2022-08-22T14:42:38Z</time>
      </trkpt>
      <trkpt lat="43.45652" lon="-0.59733">
        <ele>176</ele>
        <time>2022-08-22T14:43:10Z</time>
      </trkpt>
      <trkpt lat="43.45614" lon="-0.59753">
        <ele>174</ele>
        <time>2022-08-22T14:43:44Z</time>
      </trkpt>
      <trkpt lat="43.45605" lon="-0.5976">
        <ele>174</ele>
        <time>2022-08-22T14:43:51Z</time>
      </trkpt>
      <trkpt lat="43.45585" lon="-0.59776">
        <ele>171</ele>
        <time>2022-08-22T14:44:12Z</time>
      </trkpt>
      <trkpt lat="43.4558" lon="-0.59785">
        <ele>171</ele>
        <time>2022-08-22T14:44:20Z</time>
      </trkpt>
      <trkpt lat="43.45577" lon="-0.59792">
        <ele>172</ele>
        <time>2022-08-22T14:44:25Z</time>
      </trkpt>
      <trkpt lat="43.45577" lon="-0.59798">
        <ele>172</ele>
        <time>2022-08-22T14:44:29Z</time>
      </trkpt>
      <trkpt lat="43.45573" lon="-0.59803">
        <ele>172</ele>
        <time>2022-08-22T14:44:33Z</time>
      </trkpt>
      <trkpt lat="43.45571" lon="-0.5981">
        <ele>172</ele>
        <time>2022-08-22T14:44:37Z</time>
      </trkpt>
      <trkpt lat="43.45559" lon="-0.59855">
        <ele>179</ele>
        <time>2022-08-22T14:45:10Z</time>
      </trkpt>
      <trkpt lat="43.45559" lon="-0.59863">
        <ele>180</ele>
        <time>2022-08-22T14:45:16Z</time>
      </trkpt>
      <trkpt lat="43.45561" lon="-0.59871">
        <ele>181</ele>
        <time>2022-08-22T14:45:25Z</time>
      </trkpt>
      <trkpt lat="43.4556" lon="-0.59879">
        <ele>182</ele>
        <time>2022-08-22T14:45:49Z</time>
      </trkpt>
      <trkpt lat="43.45555" lon="-0.59883">
        <ele>183</ele>
        <time>2022-08-22T14:46:01Z</time>
      </trkpt>
      <trkpt lat="43.4555" lon="-0.59884">
        <ele>183</ele>
        <time>2022-08-22T14:46:21Z</time>
      </trkpt>
      <trkpt lat="43.45547" lon="-0.59889">
        <ele>183</ele>
        <time>2022-08-22T14:46:39Z</time>
      </trkpt>
      <trkpt lat="43.4555" lon="-0.59892">
        <ele>183</ele>
        <time>2022-08-22T14:47:07Z</time>
      </trkpt>
      <trkpt lat="43.45553" lon="-0.59906">
        <ele>184</ele>
        <time>2022-08-22T14:47:16Z</time>
      </trkpt>
      <trkpt lat="43.45556" lon="-0.59914">
        <ele>184</ele>
        <time>2022-08-22T14:47:23Z</time>
      </trkpt>
      <trkpt lat="43.45557" lon="-0.5992">
        <ele>185</ele>
        <time>2022-08-22T14:47:31Z</time>
      </trkpt>
      <trkpt lat="43.45546" lon="-0.59935">
        <ele>186</ele>
        <time>2022-08-22T14:48:10Z</time>
      </trkpt>
      <trkpt lat="43.45538" lon="-0.59933">
        <ele>185</ele>
        <time>2022-08-22T14:51:15Z</time>
      </trkpt>
      <trkpt lat="43.45541" lon="-0.59933">
        <ele>184</ele>
        <time>2022-08-22T14:52:24Z</time>
      </trkpt>
      <trkpt lat="43.45541" lon="-0.59927">
        <ele>185</ele>
        <time>2022-08-22T14:52:39Z</time>
      </trkpt>
      <trkpt lat="43.45554" lon="-0.59921">
        <ele>186</ele>
        <time>2022-08-22T14:53:39Z</time>
      </trkpt>
      <trkpt lat="43.45563" lon="-0.59919">
        <ele>184</ele>
        <time>2022-08-22T14:53:59Z</time>
      </trkpt>
      <trkpt lat="43.45569" lon="-0.59921">
        <ele>184</ele>
        <time>2022-08-22T14:54:04Z</time>
      </trkpt>
      <trkpt lat="43.45577" lon="-0.59923">
        <ele>184</ele>
        <time>2022-08-22T14:54:13Z</time>
      </trkpt>
      <trkpt lat="43.45582" lon="-0.59923">
        <ele>184</ele>
        <time>2022-08-22T14:54:18Z</time>
      </trkpt>
      <trkpt lat="43.45587" lon="-0.59926">
        <ele>184</ele>
        <time>2022-08-22T14:54:24Z</time>
      </trkpt>
      <trkpt lat="43.45591" lon="-0.59929">
        <ele>185</ele>
        <time>2022-08-22T14:54:37Z</time>
      </trkpt>
      <trkpt lat="43.45596" lon="-0.59937">
        <ele>185</ele>
        <time>2022-08-22T14:54:52Z</time>
      </trkpt>
      <trkpt lat="43.45603" lon="-0.59944">
        <ele>186</ele>
        <time>2022-08-22T14:55:00Z</time>
      </trkpt>
      <trkpt lat="43.45606" lon="-0.5995">
        <ele>186</ele>
        <time>2022-08-22T14:55:04Z</time>
      </trkpt>
      <trkpt lat="43.45626" lon="-0.59966">
        <ele>188</ele>
        <time>2022-08-22T14:55:24Z</time>
      </trkpt>
      <trkpt lat="43.45631" lon="-0.59966">
        <ele>188</ele>
        <time>2022-08-22T14:55:29Z</time>
      </trkpt>
      <trkpt lat="43.45637" lon="-0.59966">
        <ele>188</ele>
        <time>2022-08-22T14:55:33Z</time>
      </trkpt>
      <trkpt lat="43.45649" lon="-0.59965">
        <ele>189</ele>
        <time>2022-08-22T14:55:43Z</time>
      </trkpt>
      <trkpt lat="43.45681" lon="-0.59941">
        <ele>191</ele>
        <time>2022-08-22T14:56:13Z</time>
      </trkpt>
      <trkpt lat="43.45696" lon="-0.59933">
        <ele>193</ele>
        <time>2022-08-22T14:56:28Z</time>
      </trkpt>
      <trkpt lat="43.45706" lon="-0.59926">
        <ele>193</ele>
        <time>2022-08-22T14:56:37Z</time>
      </trkpt>
      <trkpt lat="43.45729" lon="-0.59918">
        <ele>195</ele>
        <time>2022-08-22T14:57:01Z</time>
      </trkpt>
      <trkpt lat="43.4576" lon="-0.59922">
        <ele>198</ele>
        <time>2022-08-22T14:57:32Z</time>
      </trkpt>
      <trkpt lat="43.45794" lon="-0.59928">
        <ele>200</ele>
        <time>2022-08-22T14:58:02Z</time>
      </trkpt>
      <trkpt lat="43.45799" lon="-0.5993">
        <ele>200</ele>
        <time>2022-08-22T14:58:06Z</time>
      </trkpt>
      <trkpt lat="43.45803" lon="-0.59933">
        <ele>200</ele>
        <time>2022-08-22T14:58:10Z</time>
      </trkpt>
      <trkpt lat="43.45808" lon="-0.59934">
        <ele>201</ele>
        <time>2022-08-22T14:58:14Z</time>
      </trkpt>
      <trkpt lat="43.45812" lon="-0.59936">
        <ele>201</ele>
        <time>2022-08-22T14:58:18Z</time>
      </trkpt>
      <trkpt lat="43.45817" lon="-0.59939">
        <ele>201</ele>
        <time>2022-08-22T14:58:23Z</time>
      </trkpt>
      <trkpt lat="43.45821" lon="-0.59943">
        <ele>201</ele>
        <time>2022-08-22T14:58:27Z</time>
      </trkpt>
      <trkpt lat="43.4583" lon="-0.59961">
        <ele>202</ele>
        <time>2022-08-22T14:58:41Z</time>
      </trkpt>
      <trkpt lat="43.45832" lon="-0.59982">
        <ele>203</ele>
        <time>2022-08-22T14:58:56Z</time>
      </trkpt>
      <trkpt lat="43.45833" lon="-0.60006">
        <ele>203</ele>
        <time>2022-08-22T14:59:14Z</time>
      </trkpt>
      <trkpt lat="43.45834" lon="-0.60014">
        <ele>204</ele>
        <time>2022-08-22T14:59:19Z</time>
      </trkpt>
      <trkpt lat="43.45836" lon="-0.60027">
        <ele>205</ele>
        <time>2022-08-22T14:59:27Z</time>
      </trkpt>
      <trkpt lat="43.45837" lon="-0.60033">
        <ele>205</ele>
        <time>2022-08-22T14:59:31Z</time>
      </trkpt>
      <trkpt lat="43.45848" lon="-0.60064">
        <ele>206</ele>
        <time>2022-08-22T14:59:53Z</time>
      </trkpt>
      <trkpt lat="43.45859" lon="-0.6008">
        <ele>207</ele>
        <time>2022-08-22T15:00:06Z</time>
      </trkpt>
      <trkpt lat="43.45866" lon="-0.60089">
        <ele>208</ele>
        <time>2022-08-22T15:00:14Z</time>
      </trkpt>
      <trkpt lat="43.45872" lon="-0.60099">
        <ele>208</ele>
        <time>2022-08-22T15:00:22Z</time>
      </trkpt>
      <trkpt lat="43.45877" lon="-0.60102">
        <ele>208</ele>
        <time>2022-08-22T15:00:27Z</time>
      </trkpt>
      <trkpt lat="43.45886" lon="-0.6011">
        <ele>208</ele>
        <time>2022-08-22T15:00:35Z</time>
      </trkpt>
      <trkpt lat="43.45927" lon="-0.60123">
        <ele>207</ele>
        <time>2022-08-22T15:01:08Z</time>
      </trkpt>
      <trkpt lat="43.45964" lon="-0.60131">
        <ele>206</ele>
        <time>2022-08-22T15:01:37Z</time>
      </trkpt>
      <trkpt lat="43.45969" lon="-0.60131">
        <ele>206</ele>
        <time>2022-08-22T15:01:41Z</time>
      </trkpt>
      <trkpt lat="43.45975" lon="-0.60131">
        <ele>206</ele>
        <time>2022-08-22T15:01:45Z</time>
      </trkpt>
      <trkpt lat="43.45985" lon="-0.60131">
        <ele>206</ele>
        <time>2022-08-22T15:01:53Z</time>
      </trkpt>
      <trkpt lat="43.45989" lon="-0.60132">
        <ele>206</ele>
        <time>2022-08-22T15:01:56Z</time>
      </trkpt>
      <trkpt lat="43.45994" lon="-0.6013">
        <ele>206</ele>
        <time>2022-08-22T15:02:00Z</time>
      </trkpt>
      <trkpt lat="43.4601" lon="-0.60132">
        <ele>206</ele>
        <time>2022-08-22T15:02:12Z</time>
      </trkpt>
      <trkpt lat="43.46014" lon="-0.60134">
        <ele>206</ele>
        <time>2022-08-22T15:02:16Z</time>
      </trkpt>
      <trkpt lat="43.46019" lon="-0.60131">
        <ele>206</ele>
        <time>2022-08-22T15:02:20Z</time>
      </trkpt>
      <trkpt lat="43.46025" lon="-0.60132">
        <ele>206</ele>
        <time>2022-08-22T15:02:24Z</time>
      </trkpt>
      <trkpt lat="43.46045" lon="-0.60126">
        <ele>206</ele>
        <time>2022-08-22T15:02:40Z</time>
      </trkpt>
      <trkpt lat="43.46061" lon="-0.60126">
        <ele>206</ele>
        <time>2022-08-22T15:02:52Z</time>
      </trkpt>
      <trkpt lat="43.46066" lon="-0.60124">
        <ele>206</ele>
        <time>2022-08-22T15:02:56Z</time>
      </trkpt>
      <trkpt lat="43.46071" lon="-0.60122">
        <ele>206</ele>
        <time>2022-08-22T15:03:00Z</time>
      </trkpt>
      <trkpt lat="43.46088" lon="-0.60124">
        <ele>206</ele>
        <time>2022-08-22T15:03:14Z</time>
      </trkpt>
      <trkpt lat="43.46122" lon="-0.60124">
        <ele>206</ele>
        <time>2022-08-22T15:03:42Z</time>
      </trkpt>
      <trkpt lat="43.46127" lon="-0.60126">
        <ele>206</ele>
        <time>2022-08-22T15:03:46Z</time>
      </trkpt>
      <trkpt lat="43.46144" lon="-0.60125">
        <ele>206</ele>
        <time>2022-08-22T15:03:58Z</time>
      </trkpt>
      <trkpt lat="43.46159" lon="-0.6013">
        <ele>207</ele>
        <time>2022-08-22T15:04:11Z</time>
      </trkpt>
      <trkpt lat="43.46163" lon="-0.60133">
        <ele>208</ele>
        <time>2022-08-22T15:04:15Z</time>
      </trkpt>
      <trkpt lat="43.46168" lon="-0.60137">
        <ele>208</ele>
        <time>2022-08-22T15:04:19Z</time>
      </trkpt>
      <trkpt lat="43.46173" lon="-0.60139">
        <ele>208</ele>
        <time>2022-08-22T15:04:23Z</time>
      </trkpt>
      <trkpt lat="43.46177" lon="-0.60143">
        <ele>208</ele>
        <time>2022-08-22T15:04:27Z</time>
      </trkpt>
      <trkpt lat="43.46182" lon="-0.60143">
        <ele>208</ele>
        <time>2022-08-22T15:04:31Z</time>
      </trkpt>
      <trkpt lat="43.46196" lon="-0.60152">
        <ele>209</ele>
        <time>2022-08-22T15:04:44Z</time>
      </trkpt>
      <trkpt lat="43.4621" lon="-0.6016">
        <ele>209</ele>
        <time>2022-08-22T15:04:56Z</time>
      </trkpt>
      <trkpt lat="43.46215" lon="-0.60161">
        <ele>210</ele>
        <time>2022-08-22T15:05:00Z</time>
      </trkpt>
      <trkpt lat="43.46219" lon="-0.60164">
        <ele>210</ele>
        <time>2022-08-22T15:05:04Z</time>
      </trkpt>
      <trkpt lat="43.46224" lon="-0.60168">
        <ele>210</ele>
        <time>2022-08-22T15:05:08Z</time>
      </trkpt>
      <trkpt lat="43.46228" lon="-0.6017">
        <ele>210</ele>
        <time>2022-08-22T15:05:12Z</time>
      </trkpt>
      <trkpt lat="43.46237" lon="-0.60175">
        <ele>210</ele>
        <time>2022-08-22T15:05:20Z</time>
      </trkpt>
      <trkpt lat="43.46246" lon="-0.60182">
        <ele>210</ele>
        <time>2022-08-22T15:05:27Z</time>
      </trkpt>
      <trkpt lat="43.4625" lon="-0.60185">
        <ele>210</ele>
        <time>2022-08-22T15:05:31Z</time>
      </trkpt>
      <trkpt lat="43.46254" lon="-0.60188">
        <ele>210</ele>
        <time>2022-08-22T15:05:35Z</time>
      </trkpt>
      <trkpt lat="43.46257" lon="-0.60194">
        <ele>211</ele>
        <time>2022-08-22T15:05:39Z</time>
      </trkpt>
      <trkpt lat="43.46273" lon="-0.60209">
        <ele>211</ele>
        <time>2022-08-22T15:05:54Z</time>
      </trkpt>
      <trkpt lat="43.46289" lon="-0.60227">
        <ele>211</ele>
        <time>2022-08-22T15:06:11Z</time>
      </trkpt>
      <trkpt lat="43.46293" lon="-0.60229">
        <ele>211</ele>
        <time>2022-08-22T15:06:15Z</time>
      </trkpt>
      <trkpt lat="43.46298" lon="-0.60232">
        <ele>211</ele>
        <time>2022-08-22T15:06:19Z</time>
      </trkpt>
      <trkpt lat="43.46302" lon="-0.60235">
        <ele>211</ele>
        <time>2022-08-22T15:06:23Z</time>
      </trkpt>
      <trkpt lat="43.46306" lon="-0.60238">
        <ele>211</ele>
        <time>2022-08-22T15:06:27Z</time>
      </trkpt>
      <trkpt lat="43.46309" lon="-0.60243">
        <ele>211</ele>
        <time>2022-08-22T15:06:31Z</time>
      </trkpt>
      <trkpt lat="43.46317" lon="-0.60251">
        <ele>212</ele>
        <time>2022-08-22T15:06:39Z</time>
      </trkpt>
      <trkpt lat="43.46321" lon="-0.60255">
        <ele>211</ele>
        <time>2022-08-22T15:06:43Z</time>
      </trkpt>
      <trkpt lat="43.46329" lon="-0.60266">
        <ele>211</ele>
        <time>2022-08-22T15:06:51Z</time>
      </trkpt>
      <trkpt lat="43.46336" lon="-0.60286">
        <ele>210</ele>
        <time>2022-08-22T15:07:03Z</time>
      </trkpt>
      <trkpt lat="43.46346" lon="-0.60301">
        <ele>210</ele>
        <time>2022-08-22T15:07:15Z</time>
      </trkpt>
      <trkpt lat="43.46354" lon="-0.6031">
        <ele>210</ele>
        <time>2022-08-22T15:07:23Z</time>
      </trkpt>
      <trkpt lat="43.4636" lon="-0.60321">
        <ele>210</ele>
        <time>2022-08-22T15:07:31Z</time>
      </trkpt>
      <trkpt lat="43.46363" lon="-0.60327">
        <ele>210</ele>
        <time>2022-08-22T15:07:35Z</time>
      </trkpt>
      <trkpt lat="43.46367" lon="-0.60331">
        <ele>210</ele>
        <time>2022-08-22T15:07:39Z</time>
      </trkpt>
      <trkpt lat="43.4638" lon="-0.60353">
        <ele>210</ele>
        <time>2022-08-22T15:07:55Z</time>
      </trkpt>
      <trkpt lat="43.46384" lon="-0.60358">
        <ele>210</ele>
        <time>2022-08-22T15:07:59Z</time>
      </trkpt>
      <trkpt lat="43.46393" lon="-0.60376">
        <ele>210</ele>
        <time>2022-08-22T15:08:11Z</time>
      </trkpt>
      <trkpt lat="43.46397" lon="-0.60381">
        <ele>211</ele>
        <time>2022-08-22T15:08:16Z</time>
      </trkpt>
      <trkpt lat="43.464" lon="-0.60387">
        <ele>210</ele>
        <time>2022-08-22T15:08:20Z</time>
      </trkpt>
      <trkpt lat="43.46403" lon="-0.60391">
        <ele>211</ele>
        <time>2022-08-22T15:08:24Z</time>
      </trkpt>
      <trkpt lat="43.46406" lon="-0.60397">
        <ele>211</ele>
        <time>2022-08-22T15:08:28Z</time>
      </trkpt>
      <trkpt lat="43.46428" lon="-0.60442">
        <ele>211</ele>
        <time>2022-08-22T15:08:59Z</time>
      </trkpt>
      <trkpt lat="43.46434" lon="-0.60453">
        <ele>211</ele>
        <time>2022-08-22T15:09:07Z</time>
      </trkpt>
      <trkpt lat="43.46436" lon="-0.60458">
        <ele>211</ele>
        <time>2022-08-22T15:09:11Z</time>
      </trkpt>
      <trkpt lat="43.46439" lon="-0.60464">
        <ele>211</ele>
        <time>2022-08-22T15:09:15Z</time>
      </trkpt>
      <trkpt lat="43.46445" lon="-0.60483">
        <ele>211</ele>
        <time>2022-08-22T15:09:28Z</time>
      </trkpt>
      <trkpt lat="43.4645" lon="-0.60495">
        <ele>212</ele>
        <time>2022-08-22T15:09:36Z</time>
      </trkpt>
      <trkpt lat="43.4645" lon="-0.60502">
        <ele>212</ele>
        <time>2022-08-22T15:09:40Z</time>
      </trkpt>
      <trkpt lat="43.46457" lon="-0.60522">
        <ele>211</ele>
        <time>2022-08-22T15:09:53Z</time>
      </trkpt>
      <trkpt lat="43.4646" lon="-0.60534">
        <ele>212</ele>
        <time>2022-08-22T15:10:01Z</time>
      </trkpt>
      <trkpt lat="43.46461" lon="-0.60541">
        <ele>212</ele>
        <time>2022-08-22T15:10:05Z</time>
      </trkpt>
      <trkpt lat="43.46475" lon="-0.6059">
        <ele>211</ele>
        <time>2022-08-22T15:10:36Z</time>
      </trkpt>
      <trkpt lat="43.46478" lon="-0.60597">
        <ele>212</ele>
        <time>2022-08-22T15:10:41Z</time>
      </trkpt>
      <trkpt lat="43.46479" lon="-0.60605">
        <ele>212</ele>
        <time>2022-08-22T15:10:45Z</time>
      </trkpt>
      <trkpt lat="43.46482" lon="-0.6061">
        <ele>212</ele>
        <time>2022-08-22T15:10:49Z</time>
      </trkpt>
      <trkpt lat="43.46483" lon="-0.60618">
        <ele>212</ele>
        <time>2022-08-22T15:10:53Z</time>
      </trkpt>
      <trkpt lat="43.46486" lon="-0.60625">
        <ele>211</ele>
        <time>2022-08-22T15:10:58Z</time>
      </trkpt>
      <trkpt lat="43.46486" lon="-0.60642">
        <ele>211</ele>
        <time>2022-08-22T15:11:08Z</time>
      </trkpt>
      <trkpt lat="43.4649" lon="-0.60662">
        <ele>211</ele>
        <time>2022-08-22T15:11:21Z</time>
      </trkpt>
      <trkpt lat="43.4649" lon="-0.60669">
        <ele>211</ele>
        <time>2022-08-22T15:11:25Z</time>
      </trkpt>
      <trkpt lat="43.46491" lon="-0.60683">
        <ele>211</ele>
        <time>2022-08-22T15:11:33Z</time>
      </trkpt>
      <trkpt lat="43.46494" lon="-0.60707">
        <ele>210</ele>
        <time>2022-08-22T15:11:49Z</time>
      </trkpt>
      <trkpt lat="43.46493" lon="-0.60714">
        <ele>210</ele>
        <time>2022-08-22T15:11:54Z</time>
      </trkpt>
      <trkpt lat="43.46494" lon="-0.60743">
        <ele>211</ele>
        <time>2022-08-22T15:12:11Z</time>
      </trkpt>
      <trkpt lat="43.46494" lon="-0.60749">
        <ele>210</ele>
        <time>2022-08-22T15:12:15Z</time>
      </trkpt>
      <trkpt lat="43.46493" lon="-0.60759">
        <ele>211</ele>
        <time>2022-08-22T15:12:22Z</time>
      </trkpt>
      <trkpt lat="43.46493" lon="-0.60767">
        <ele>211</ele>
        <time>2022-08-22T15:12:28Z</time>
      </trkpt>
      <trkpt lat="43.46495" lon="-0.60789">
        <ele>210</ele>
        <time>2022-08-22T15:12:42Z</time>
      </trkpt>
      <trkpt lat="43.46493" lon="-0.60795">
        <ele>211</ele>
        <time>2022-08-22T15:12:46Z</time>
      </trkpt>
      <trkpt lat="43.4649" lon="-0.60813">
        <ele>211</ele>
        <time>2022-08-22T15:12:58Z</time>
      </trkpt>
      <trkpt lat="43.46475" lon="-0.60862">
        <ele>211</ele>
        <time>2022-08-22T15:13:31Z</time>
      </trkpt>
      <trkpt lat="43.46452" lon="-0.60909">
        <ele>211</ele>
        <time>2022-08-22T15:14:05Z</time>
      </trkpt>
      <trkpt lat="43.46436" lon="-0.60963">
        <ele>211</ele>
        <time>2022-08-22T15:14:38Z</time>
      </trkpt>
      <trkpt lat="43.46432" lon="-0.60977">
        <ele>211</ele>
        <time>2022-08-22T15:14:45Z</time>
      </trkpt>
      <trkpt lat="43.46431" lon="-0.60983">
        <ele>211</ele>
        <time>2022-08-22T15:14:49Z</time>
      </trkpt>
      <trkpt lat="43.46427" lon="-0.60996">
        <ele>211</ele>
        <time>2022-08-22T15:14:57Z</time>
      </trkpt>
      <trkpt lat="43.46427" lon="-0.61024">
        <ele>210</ele>
        <time>2022-08-22T15:15:16Z</time>
      </trkpt>
      <trkpt lat="43.46429" lon="-0.61031">
        <ele>210</ele>
        <time>2022-08-22T15:15:21Z</time>
      </trkpt>
      <trkpt lat="43.46429" lon="-0.61041">
        <ele>210</ele>
        <time>2022-08-22T15:15:26Z</time>
      </trkpt>
      <trkpt lat="43.46428" lon="-0.61049">
        <ele>210</ele>
        <time>2022-08-22T15:15:30Z</time>
      </trkpt>
      <trkpt lat="43.46427" lon="-0.61061">
        <ele>210</ele>
        <time>2022-08-22T15:15:38Z</time>
      </trkpt>
      <trkpt lat="43.46426" lon="-0.61068">
        <ele>210</ele>
        <time>2022-08-22T15:15:42Z</time>
      </trkpt>
      <trkpt lat="43.46426" lon="-0.61095">
        <ele>209</ele>
        <time>2022-08-22T15:15:57Z</time>
      </trkpt>
      <trkpt lat="43.46425" lon="-0.61102">
        <ele>209</ele>
        <time>2022-08-22T15:16:02Z</time>
      </trkpt>
      <trkpt lat="43.46421" lon="-0.61109">
        <ele>209</ele>
        <time>2022-08-22T15:16:06Z</time>
      </trkpt>
      <trkpt lat="43.46421" lon="-0.61116">
        <ele>209</ele>
        <time>2022-08-22T15:16:11Z</time>
      </trkpt>
      <trkpt lat="43.4642" lon="-0.61153">
        <ele>208</ele>
        <time>2022-08-22T15:16:34Z</time>
      </trkpt>
      <trkpt lat="43.46422" lon="-0.61161">
        <ele>208</ele>
        <time>2022-08-22T15:16:38Z</time>
      </trkpt>
      <trkpt lat="43.46422" lon="-0.61172">
        <ele>209</ele>
        <time>2022-08-22T15:16:54Z</time>
      </trkpt>
      <trkpt lat="43.46433" lon="-0.61229">
        <ele>208</ele>
        <time>2022-08-22T15:17:30Z</time>
      </trkpt>
      <trkpt lat="43.46435" lon="-0.61243">
        <ele>208</ele>
        <time>2022-08-22T15:17:38Z</time>
      </trkpt>
      <trkpt lat="43.46435" lon="-0.61251">
        <ele>208</ele>
        <time>2022-08-22T15:17:43Z</time>
      </trkpt>
      <trkpt lat="43.46436" lon="-0.61258">
        <ele>208</ele>
        <time>2022-08-22T15:17:47Z</time>
      </trkpt>
      <trkpt lat="43.46439" lon="-0.61268">
        <ele>208</ele>
        <time>2022-08-22T15:17:55Z</time>
      </trkpt>
      <trkpt lat="43.46438" lon="-0.61284">
        <ele>207</ele>
        <time>2022-08-22T15:18:07Z</time>
      </trkpt>
      <trkpt lat="43.4644" lon="-0.61293">
        <ele>208</ele>
        <time>2022-08-22T15:18:13Z</time>
      </trkpt>
      <trkpt lat="43.46442" lon="-0.6132">
        <ele>207</ele>
        <time>2022-08-22T15:18:29Z</time>
      </trkpt>
      <trkpt lat="43.46444" lon="-0.61328">
        <ele>208</ele>
        <time>2022-08-22T15:18:34Z</time>
      </trkpt>
      <trkpt lat="43.46444" lon="-0.61337">
        <ele>208</ele>
        <time>2022-08-22T15:18:40Z</time>
      </trkpt>
      <trkpt lat="43.46444" lon="-0.61345">
        <ele>208</ele>
        <time>2022-08-22T15:18:44Z</time>
      </trkpt>
      <trkpt lat="43.46445" lon="-0.61352">
        <ele>208</ele>
        <time>2022-08-22T15:18:47Z</time>
      </trkpt>
      <trkpt lat="43.46444" lon="-0.61358">
        <ele>208</ele>
        <time>2022-08-22T15:18:53Z</time>
      </trkpt>
      <trkpt lat="43.46448" lon="-0.61363">
        <ele>208</ele>
        <time>2022-08-22T15:19:35Z</time>
      </trkpt>
      <trkpt lat="43.46448" lon="-0.61377">
        <ele>208</ele>
        <time>2022-08-22T15:19:56Z</time>
      </trkpt>
      <trkpt lat="43.46451" lon="-0.61396">
        <ele>209</ele>
        <time>2022-08-22T15:20:08Z</time>
      </trkpt>
      <trkpt lat="43.46458" lon="-0.61411">
        <ele>210</ele>
        <time>2022-08-22T15:20:16Z</time>
      </trkpt>
      <trkpt lat="43.46463" lon="-0.61425">
        <ele>210</ele>
        <time>2022-08-22T15:20:24Z</time>
      </trkpt>
      <trkpt lat="43.46465" lon="-0.61434">
        <ele>210</ele>
        <time>2022-08-22T15:20:28Z</time>
      </trkpt>
      <trkpt lat="43.46473" lon="-0.61457">
        <ele>211</ele>
        <time>2022-08-22T15:20:42Z</time>
      </trkpt>
      <trkpt lat="43.46479" lon="-0.61468">
        <ele>211</ele>
        <time>2022-08-22T15:20:50Z</time>
      </trkpt>
      <trkpt lat="43.46481" lon="-0.61474">
        <ele>211</ele>
        <time>2022-08-22T15:20:55Z</time>
      </trkpt>
      <trkpt lat="43.46485" lon="-0.61479">
        <ele>210</ele>
        <time>2022-08-22T15:21:00Z</time>
      </trkpt>
      <trkpt lat="43.46493" lon="-0.61482">
        <ele>209</ele>
        <time>2022-08-22T15:21:07Z</time>
      </trkpt>
      <trkpt lat="43.46501" lon="-0.61488">
        <ele>208</ele>
        <time>2022-08-22T15:21:18Z</time>
      </trkpt>
      <trkpt lat="43.46501" lon="-0.61495">
        <ele>208</ele>
        <time>2022-08-22T15:21:23Z</time>
      </trkpt>
      <trkpt lat="43.46498" lon="-0.61521">
        <ele>208</ele>
        <time>2022-08-22T15:21:43Z</time>
      </trkpt>
      <trkpt lat="43.46481" lon="-0.61559">
        <ele>207</ele>
        <time>2022-08-22T15:22:09Z</time>
      </trkpt>
      <trkpt lat="43.46479" lon="-0.61568">
        <ele>207</ele>
        <time>2022-08-22T15:22:15Z</time>
      </trkpt>
      <trkpt lat="43.46478" lon="-0.61575">
        <ele>207</ele>
        <time>2022-08-22T15:22:19Z</time>
      </trkpt>
      <trkpt lat="43.46475" lon="-0.61581">
        <ele>207</ele>
        <time>2022-08-22T15:22:24Z</time>
      </trkpt>
      <trkpt lat="43.4647" lon="-0.61585">
        <ele>207</ele>
        <time>2022-08-22T15:22:29Z</time>
      </trkpt>
      <trkpt lat="43.46471" lon="-0.61619">
        <ele>206</ele>
        <time>2022-08-22T15:23:01Z</time>
      </trkpt>
      <trkpt lat="43.46471" lon="-0.61646">
        <ele>205</ele>
        <time>2022-08-22T15:23:35Z</time>
      </trkpt>
      <trkpt lat="43.46468" lon="-0.61666">
        <ele>205</ele>
        <time>2022-08-22T15:23:45Z</time>
      </trkpt>
      <trkpt lat="43.46471" lon="-0.61708">
        <ele>204</ele>
        <time>2022-08-22T15:24:12Z</time>
      </trkpt>
      <trkpt lat="43.4647" lon="-0.61725">
        <ele>205</ele>
        <time>2022-08-22T15:24:21Z</time>
      </trkpt>
      <trkpt lat="43.46474" lon="-0.61742">
        <ele>205</ele>
        <time>2022-08-22T15:24:29Z</time>
      </trkpt>
      <trkpt lat="43.46479" lon="-0.61746">
        <ele>205</ele>
        <time>2022-08-22T15:24:37Z</time>
      </trkpt>
      <trkpt lat="43.46483" lon="-0.61744">
        <ele>205</ele>
        <time>2022-08-22T15:24:40Z</time>
      </trkpt>
      <trkpt lat="43.46488" lon="-0.61743">
        <ele>204</ele>
        <time>2022-08-22T15:24:45Z</time>
      </trkpt>
      <trkpt lat="43.46494" lon="-0.6174">
        <ele>202</ele>
        <time>2022-08-22T15:27:23Z</time>
      </trkpt>
      <trkpt lat="43.4649" lon="-0.61742">
        <ele>198</ele>
        <time>2022-08-22T15:35:47Z</time>
      </trkpt>
      <trkpt lat="43.46486" lon="-0.61749">
        <ele>198</ele>
        <time>2022-08-22T15:35:52Z</time>
      </trkpt>
      <trkpt lat="43.46478" lon="-0.61747">
        <ele>199</ele>
        <time>2022-08-22T15:36:37Z</time>
      </trkpt>
      <trkpt lat="43.46473" lon="-0.61785">
        <ele>200</ele>
        <time>2022-08-22T15:37:07Z</time>
      </trkpt>
      <trkpt lat="43.46477" lon="-0.61801">
        <ele>200</ele>
        <time>2022-08-22T15:37:19Z</time>
      </trkpt>
      <trkpt lat="43.46474" lon="-0.6181">
        <ele>201</ele>
        <time>2022-08-22T15:38:14Z</time>
      </trkpt>
      <trkpt lat="43.46478" lon="-0.61806">
        <ele>201</ele>
        <time>2022-08-22T15:39:09Z</time>
      </trkpt>
      <trkpt lat="43.4647" lon="-0.61806">
        <ele>201</ele>
        <time>2022-08-22T15:39:38Z</time>
      </trkpt>
      <trkpt lat="43.46479" lon="-0.61787">
        <ele>256</ele>
        <time>2022-08-23T05:06:35Z</time>
      </trkpt>
      <trkpt lat="43.46476" lon="-0.61815">
        <ele>256</ele>
        <time>2022-08-23T05:07:47Z</time>
      </trkpt>
      <trkpt lat="43.46476" lon="-0.61828">
        <ele>256</ele>
        <time>2022-08-23T05:07:55Z</time>
      </trkpt>
      <trkpt lat="43.46482" lon="-0.61867">
        <ele>256</ele>
        <time>2022-08-23T05:08:26Z</time>
      </trkpt>
      <trkpt lat="43.46483" lon="-0.61892">
        <ele>256</ele>
        <time>2022-08-23T05:08:41Z</time>
      </trkpt>
      <trkpt lat="43.46477" lon="-0.61944">
        <ele>256</ele>
        <time>2022-08-23T05:09:13Z</time>
      </trkpt>
      <trkpt lat="43.46475" lon="-0.61957">
        <ele>256</ele>
        <time>2022-08-23T05:09:21Z</time>
      </trkpt>
      <trkpt lat="43.46477" lon="-0.62011">
        <ele>255</ele>
        <time>2022-08-23T05:09:53Z</time>
      </trkpt>
      <trkpt lat="43.46473" lon="-0.62062">
        <ele>255</ele>
        <time>2022-08-23T05:10:25Z</time>
      </trkpt>
      <trkpt lat="43.46477" lon="-0.62088">
        <ele>255</ele>
        <time>2022-08-23T05:10:43Z</time>
      </trkpt>
      <trkpt lat="43.4648" lon="-0.62114">
        <ele>255</ele>
        <time>2022-08-23T05:11:00Z</time>
      </trkpt>
      <trkpt lat="43.46475" lon="-0.6214">
        <ele>255</ele>
        <time>2022-08-23T05:11:18Z</time>
      </trkpt>
      <trkpt lat="43.46473" lon="-0.6218">
        <ele>256</ele>
        <time>2022-08-23T05:11:39Z</time>
      </trkpt>
      <trkpt lat="43.46471" lon="-0.62193">
        <ele>256</ele>
        <time>2022-08-23T05:11:50Z</time>
      </trkpt>
      <trkpt lat="43.46471" lon="-0.62205">
        <ele>256</ele>
        <time>2022-08-23T05:11:59Z</time>
      </trkpt>
      <trkpt lat="43.4647" lon="-0.62231">
        <ele>257</ele>
        <time>2022-08-23T05:12:14Z</time>
      </trkpt>
      <trkpt lat="43.46475" lon="-0.62271">
        <ele>258</ele>
        <time>2022-08-23T05:12:39Z</time>
      </trkpt>
      <trkpt lat="43.46489" lon="-0.62319">
        <ele>260</ele>
        <time>2022-08-23T05:13:14Z</time>
      </trkpt>
      <trkpt lat="43.46491" lon="-0.62369">
        <ele>261</ele>
        <time>2022-08-23T05:13:45Z</time>
      </trkpt>
      <trkpt lat="43.46499" lon="-0.62408">
        <ele>262</ele>
        <time>2022-08-23T05:14:09Z</time>
      </trkpt>
      <trkpt lat="43.46499" lon="-0.62421">
        <ele>263</ele>
        <time>2022-08-23T05:14:17Z</time>
      </trkpt>
      <trkpt lat="43.46515" lon="-0.62471">
        <ele>265</ele>
        <time>2022-08-23T05:14:53Z</time>
      </trkpt>
      <trkpt lat="43.46521" lon="-0.62498">
        <ele>266</ele>
        <time>2022-08-23T05:15:09Z</time>
      </trkpt>
      <trkpt lat="43.46521" lon="-0.62512">
        <ele>266</ele>
        <time>2022-08-23T05:15:14Z</time>
      </trkpt>
      <trkpt lat="43.46526" lon="-0.62552">
        <ele>267</ele>
        <time>2022-08-23T05:15:38Z</time>
      </trkpt>
      <trkpt lat="43.46523" lon="-0.62579">
        <ele>268</ele>
        <time>2022-08-23T05:15:52Z</time>
      </trkpt>
      <trkpt lat="43.4652" lon="-0.62592">
        <ele>269</ele>
        <time>2022-08-23T05:16:00Z</time>
      </trkpt>
      <trkpt lat="43.46517" lon="-0.62618">
        <ele>270</ele>
        <time>2022-08-23T05:16:14Z</time>
      </trkpt>
      <trkpt lat="43.46512" lon="-0.62643">
        <ele>271</ele>
        <time>2022-08-23T05:16:29Z</time>
      </trkpt>
      <trkpt lat="43.46508" lon="-0.62683">
        <ele>271</ele>
        <time>2022-08-23T05:17:00Z</time>
      </trkpt>
      <trkpt lat="43.46503" lon="-0.62735">
        <ele>271</ele>
        <time>2022-08-23T05:17:31Z</time>
      </trkpt>
      <trkpt lat="43.46502" lon="-0.62748">
        <ele>272</ele>
        <time>2022-08-23T05:17:39Z</time>
      </trkpt>
      <trkpt lat="43.46504" lon="-0.62762">
        <ele>272</ele>
        <time>2022-08-23T05:17:46Z</time>
      </trkpt>
      <trkpt lat="43.46499" lon="-0.628">
        <ele>272</ele>
        <time>2022-08-23T05:18:06Z</time>
      </trkpt>
      <trkpt lat="43.46499" lon="-0.62814">
        <ele>272</ele>
        <time>2022-08-23T05:18:13Z</time>
      </trkpt>
      <trkpt lat="43.4651" lon="-0.62877">
        <ele>273</ele>
        <time>2022-08-23T05:18:48Z</time>
      </trkpt>
      <trkpt lat="43.46518" lon="-0.62914">
        <ele>273</ele>
        <time>2022-08-23T05:19:11Z</time>
      </trkpt>
      <trkpt lat="43.4652" lon="-0.62941">
        <ele>273</ele>
        <time>2022-08-23T05:19:27Z</time>
      </trkpt>
      <trkpt lat="43.46527" lon="-0.62951">
        <ele>273</ele>
        <time>2022-08-23T05:19:35Z</time>
      </trkpt>
      <trkpt lat="43.46548" lon="-0.62997">
        <ele>274</ele>
        <time>2022-08-23T05:20:06Z</time>
      </trkpt>
      <trkpt lat="43.4658" lon="-0.63048">
        <ele>274</ele>
        <time>2022-08-23T05:20:42Z</time>
      </trkpt>
      <trkpt lat="43.46611" lon="-0.63098">
        <ele>274</ele>
        <time>2022-08-23T05:21:16Z</time>
      </trkpt>
      <trkpt lat="43.46618" lon="-0.63108">
        <ele>274</ele>
        <time>2022-08-23T05:21:24Z</time>
      </trkpt>
      <trkpt lat="43.46625" lon="-0.63115">
        <ele>275</ele>
        <time>2022-08-23T05:21:32Z</time>
      </trkpt>
      <trkpt lat="43.46661" lon="-0.63164">
        <ele>275</ele>
        <time>2022-08-23T05:22:08Z</time>
      </trkpt>
      <trkpt lat="43.46699" lon="-0.63201">
        <ele>276</ele>
        <time>2022-08-23T05:22:44Z</time>
      </trkpt>
      <trkpt lat="43.46742" lon="-0.63227">
        <ele>277</ele>
        <time>2022-08-23T05:23:18Z</time>
      </trkpt>
      <trkpt lat="43.4675" lon="-0.63234">
        <ele>277</ele>
        <time>2022-08-23T05:23:25Z</time>
      </trkpt>
      <trkpt lat="43.46784" lon="-0.6328">
        <ele>276</ele>
        <time>2022-08-23T05:24:00Z</time>
      </trkpt>
      <trkpt lat="43.46813" lon="-0.63318">
        <ele>276</ele>
        <time>2022-08-23T05:24:30Z</time>
      </trkpt>
      <trkpt lat="43.46853" lon="-0.6336">
        <ele>275</ele>
        <time>2022-08-23T05:25:06Z</time>
      </trkpt>
      <trkpt lat="43.46866" lon="-0.6338">
        <ele>275</ele>
        <time>2022-08-23T05:25:21Z</time>
      </trkpt>
      <trkpt lat="43.46874" lon="-0.63388">
        <ele>275</ele>
        <time>2022-08-23T05:25:27Z</time>
      </trkpt>
      <trkpt lat="43.4688" lon="-0.63399">
        <ele>275</ele>
        <time>2022-08-23T05:25:36Z</time>
      </trkpt>
      <trkpt lat="43.46915" lon="-0.63445">
        <ele>274</ele>
        <time>2022-08-23T05:26:13Z</time>
      </trkpt>
      <trkpt lat="43.4695" lon="-0.63493">
        <ele>273</ele>
        <time>2022-08-23T05:26:50Z</time>
      </trkpt>
      <trkpt lat="43.46957" lon="-0.63504">
        <ele>273</ele>
        <time>2022-08-23T05:26:58Z</time>
      </trkpt>
      <trkpt lat="43.46981" lon="-0.63528">
        <ele>272</ele>
        <time>2022-08-23T05:27:21Z</time>
      </trkpt>
      <trkpt lat="43.46999" lon="-0.63576">
        <ele>272</ele>
        <time>2022-08-23T05:27:50Z</time>
      </trkpt>
      <trkpt lat="43.47031" lon="-0.63622">
        <ele>270</ele>
        <time>2022-08-23T05:28:26Z</time>
      </trkpt>
      <trkpt lat="43.47045" lon="-0.63657">
        <ele>269</ele>
        <time>2022-08-23T05:28:47Z</time>
      </trkpt>
      <trkpt lat="43.47047" lon="-0.63669">
        <ele>269</ele>
        <time>2022-08-23T05:28:53Z</time>
      </trkpt>
      <trkpt lat="43.47059" lon="-0.63704">
        <ele>268</ele>
        <time>2022-08-23T05:29:13Z</time>
      </trkpt>
      <trkpt lat="43.47071" lon="-0.63753">
        <ele>267</ele>
        <time>2022-08-23T05:29:44Z</time>
      </trkpt>
      <trkpt lat="43.47084" lon="-0.63816">
        <ele>266</ele>
        <time>2022-08-23T05:30:18Z</time>
      </trkpt>
      <trkpt lat="43.47102" lon="-0.63876">
        <ele>265</ele>
        <time>2022-08-23T05:30:53Z</time>
      </trkpt>
      <trkpt lat="43.47121" lon="-0.63937">
        <ele>265</ele>
        <time>2022-08-23T05:31:29Z</time>
      </trkpt>
      <trkpt lat="43.47131" lon="-0.6396">
        <ele>265</ele>
        <time>2022-08-23T05:31:45Z</time>
      </trkpt>
      <trkpt lat="43.47157" lon="-0.63999">
        <ele>264</ele>
        <time>2022-08-23T05:32:22Z</time>
      </trkpt>
      <trkpt lat="43.47165" lon="-0.64007">
        <ele>264</ele>
        <time>2022-08-23T05:32:29Z</time>
      </trkpt>
      <trkpt lat="43.47194" lon="-0.64063">
        <ele>263</ele>
        <time>2022-08-23T05:33:01Z</time>
      </trkpt>
      <trkpt lat="43.47219" lon="-0.64104">
        <ele>262</ele>
        <time>2022-08-23T05:33:28Z</time>
      </trkpt>
      <trkpt lat="43.47226" lon="-0.64112">
        <ele>261</ele>
        <time>2022-08-23T05:33:36Z</time>
      </trkpt>
      <trkpt lat="43.47243" lon="-0.64146">
        <ele>261</ele>
        <time>2022-08-23T05:34:01Z</time>
      </trkpt>
      <trkpt lat="43.47251" lon="-0.64185">
        <ele>260</ele>
        <time>2022-08-23T05:34:22Z</time>
      </trkpt>
      <trkpt lat="43.47259" lon="-0.6421">
        <ele>259</ele>
        <time>2022-08-23T05:34:36Z</time>
      </trkpt>
      <trkpt lat="43.47259" lon="-0.64264">
        <ele>259</ele>
        <time>2022-08-23T05:35:04Z</time>
      </trkpt>
      <trkpt lat="43.47252" lon="-0.64304">
        <ele>260</ele>
        <time>2022-08-23T05:35:24Z</time>
      </trkpt>
      <trkpt lat="43.47243" lon="-0.64341">
        <ele>260</ele>
        <time>2022-08-23T05:35:46Z</time>
      </trkpt>
      <trkpt lat="43.47234" lon="-0.64407">
        <ele>260</ele>
        <time>2022-08-23T05:36:18Z</time>
      </trkpt>
      <trkpt lat="43.47225" lon="-0.64474">
        <ele>260</ele>
        <time>2022-08-23T05:36:50Z</time>
      </trkpt>
      <trkpt lat="43.47226" lon="-0.64503">
        <ele>260</ele>
        <time>2022-08-23T05:37:46Z</time>
      </trkpt>
      <trkpt lat="43.4723" lon="-0.64529">
        <ele>260</ele>
        <time>2022-08-23T05:38:13Z</time>
      </trkpt>
      <trkpt lat="43.47239" lon="-0.64553">
        <ele>260</ele>
        <time>2022-08-23T05:39:07Z</time>
      </trkpt>
      <trkpt lat="43.47259" lon="-0.64583">
        <ele>260</ele>
        <time>2022-08-23T05:39:29Z</time>
      </trkpt>
      <trkpt lat="43.4729" lon="-0.64612">
        <ele>260</ele>
        <time>2022-08-23T05:39:56Z</time>
      </trkpt>
      <trkpt lat="43.47308" lon="-0.64642">
        <ele>260</ele>
        <time>2022-08-23T05:40:16Z</time>
      </trkpt>
      <trkpt lat="43.47326" lon="-0.64705">
        <ele>258</ele>
        <time>2022-08-23T05:40:51Z</time>
      </trkpt>
      <trkpt lat="43.47353" lon="-0.6476">
        <ele>256</ele>
        <time>2022-08-23T05:41:27Z</time>
      </trkpt>
      <trkpt lat="43.47367" lon="-0.64777">
        <ele>255</ele>
        <time>2022-08-23T05:41:39Z</time>
      </trkpt>
      <trkpt lat="43.47393" lon="-0.64835">
        <ele>253</ele>
        <time>2022-08-23T05:42:16Z</time>
      </trkpt>
      <trkpt lat="43.47396" lon="-0.64848">
        <ele>252</ele>
        <time>2022-08-23T05:42:23Z</time>
      </trkpt>
      <trkpt lat="43.47402" lon="-0.64859">
        <ele>252</ele>
        <time>2022-08-23T05:42:31Z</time>
      </trkpt>
      <trkpt lat="43.47411" lon="-0.64881">
        <ele>252</ele>
        <time>2022-08-23T05:42:46Z</time>
      </trkpt>
      <trkpt lat="43.47417" lon="-0.64906">
        <ele>253</ele>
        <time>2022-08-23T05:43:00Z</time>
      </trkpt>
      <trkpt lat="43.4742" lon="-0.64959">
        <ele>253</ele>
        <time>2022-08-23T05:43:27Z</time>
      </trkpt>
      <trkpt lat="43.47435" lon="-0.6502">
        <ele>254</ele>
        <time>2022-08-23T05:44:03Z</time>
      </trkpt>
      <trkpt lat="43.47446" lon="-0.65084">
        <ele>254</ele>
        <time>2022-08-23T05:44:40Z</time>
      </trkpt>
      <trkpt lat="43.47449" lon="-0.65098">
        <ele>254</ele>
        <time>2022-08-23T05:44:47Z</time>
      </trkpt>
      <trkpt lat="43.47465" lon="-0.6513">
        <ele>253</ele>
        <time>2022-08-23T05:45:09Z</time>
      </trkpt>
      <trkpt lat="43.47498" lon="-0.65161">
        <ele>252</ele>
        <time>2022-08-23T05:45:37Z</time>
      </trkpt>
      <trkpt lat="43.47516" lon="-0.65171">
        <ele>251</ele>
        <time>2022-08-23T05:45:52Z</time>
      </trkpt>
      <trkpt lat="43.47523" lon="-0.6518">
        <ele>251</ele>
        <time>2022-08-23T05:45:59Z</time>
      </trkpt>
      <trkpt lat="43.47561" lon="-0.65218">
        <ele>249</ele>
        <time>2022-08-23T05:46:35Z</time>
      </trkpt>
      <trkpt lat="43.47605" lon="-0.65244">
        <ele>247</ele>
        <time>2022-08-23T05:47:09Z</time>
      </trkpt>
      <trkpt lat="43.4764" lon="-0.65289">
        <ele>245</ele>
        <time>2022-08-23T05:47:43Z</time>
      </trkpt>
      <trkpt lat="43.47645" lon="-0.653">
        <ele>245</ele>
        <time>2022-08-23T05:47:50Z</time>
      </trkpt>
      <trkpt lat="43.47647" lon="-0.65313">
        <ele>244</ele>
        <time>2022-08-23T05:47:57Z</time>
      </trkpt>
      <trkpt lat="43.47651" lon="-0.65325">
        <ele>244</ele>
        <time>2022-08-23T05:48:04Z</time>
      </trkpt>
      <trkpt lat="43.47675" lon="-0.65366">
        <ele>242</ele>
        <time>2022-08-23T05:48:34Z</time>
      </trkpt>
      <trkpt lat="43.47682" lon="-0.65375">
        <ele>242</ele>
        <time>2022-08-23T05:48:41Z</time>
      </trkpt>
      <trkpt lat="43.47693" lon="-0.65398">
        <ele>241</ele>
        <time>2022-08-23T05:48:57Z</time>
      </trkpt>
      <trkpt lat="43.47698" lon="-0.65426">
        <ele>240</ele>
        <time>2022-08-23T05:49:12Z</time>
      </trkpt>
      <trkpt lat="43.47696" lon="-0.65438">
        <ele>240</ele>
        <time>2022-08-23T05:49:26Z</time>
      </trkpt>
      <trkpt lat="43.47698" lon="-0.65491">
        <ele>238</ele>
        <time>2022-08-23T05:49:57Z</time>
      </trkpt>
      <trkpt lat="43.47695" lon="-0.65505">
        <ele>238</ele>
        <time>2022-08-23T05:50:05Z</time>
      </trkpt>
      <trkpt lat="43.47695" lon="-0.65519">
        <ele>237</ele>
        <time>2022-08-23T05:50:12Z</time>
      </trkpt>
      <trkpt lat="43.47698" lon="-0.65532">
        <ele>237</ele>
        <time>2022-08-23T05:50:20Z</time>
      </trkpt>
      <trkpt lat="43.477" lon="-0.65584">
        <ele>235</ele>
        <time>2022-08-23T05:50:55Z</time>
      </trkpt>
      <trkpt lat="43.47703" lon="-0.6561">
        <ele>234</ele>
        <time>2022-08-23T05:51:25Z</time>
      </trkpt>
      <trkpt lat="43.47703" lon="-0.6564">
        <ele>234</ele>
        <time>2022-08-23T05:51:36Z</time>
      </trkpt>
      <trkpt lat="43.47691" lon="-0.6572">
        <ele>233</ele>
        <time>2022-08-23T05:52:09Z</time>
      </trkpt>
      <trkpt lat="43.47703" lon="-0.6577">
        <ele>234</ele>
        <time>2022-08-23T05:52:42Z</time>
      </trkpt>
      <trkpt lat="43.4771" lon="-0.65823">
        <ele>234</ele>
        <time>2022-08-23T05:53:10Z</time>
      </trkpt>
      <trkpt lat="43.47709" lon="-0.65837">
        <ele>234</ele>
        <time>2022-08-23T05:53:18Z</time>
      </trkpt>
      <trkpt lat="43.47714" lon="-0.65863">
        <ele>235</ele>
        <time>2022-08-23T05:53:34Z</time>
      </trkpt>
      <trkpt lat="43.47725" lon="-0.65883">
        <ele>235</ele>
        <time>2022-08-23T05:53:54Z</time>
      </trkpt>
      <trkpt lat="43.47727" lon="-0.65909">
        <ele>235</ele>
        <time>2022-08-23T05:54:08Z</time>
      </trkpt>
      <trkpt lat="43.4773" lon="-0.65921">
        <ele>235</ele>
        <time>2022-08-23T05:54:20Z</time>
      </trkpt>
      <trkpt lat="43.47726" lon="-0.65948">
        <ele>236</ele>
        <time>2022-08-23T05:54:32Z</time>
      </trkpt>
      <trkpt lat="43.47715" lon="-0.65986">
        <ele>236</ele>
        <time>2022-08-23T05:54:46Z</time>
      </trkpt>
      <trkpt lat="43.47713" lon="-0.66013">
        <ele>237</ele>
        <time>2022-08-23T05:55:03Z</time>
      </trkpt>
      <trkpt lat="43.47714" lon="-0.66026">
        <ele>237</ele>
        <time>2022-08-23T05:55:12Z</time>
      </trkpt>
      <trkpt lat="43.47718" lon="-0.66038">
        <ele>237</ele>
        <time>2022-08-23T05:55:22Z</time>
      </trkpt>
      <trkpt lat="43.47714" lon="-0.66065">
        <ele>237</ele>
        <time>2022-08-23T05:55:38Z</time>
      </trkpt>
      <trkpt lat="43.47713" lon="-0.66104">
        <ele>238</ele>
        <time>2022-08-23T05:56:03Z</time>
      </trkpt>
      <trkpt lat="43.47711" lon="-0.66116">
        <ele>238</ele>
        <time>2022-08-23T05:56:14Z</time>
      </trkpt>
      <trkpt lat="43.47712" lon="-0.6613">
        <ele>238</ele>
        <time>2022-08-23T05:56:25Z</time>
      </trkpt>
      <trkpt lat="43.47706" lon="-0.66159">
        <ele>239</ele>
        <time>2022-08-23T05:56:34Z</time>
      </trkpt>
      <trkpt lat="43.47697" lon="-0.66183">
        <ele>238</ele>
        <time>2022-08-23T05:56:44Z</time>
      </trkpt>
      <trkpt lat="43.47692" lon="-0.66209">
        <ele>238</ele>
        <time>2022-08-23T05:56:57Z</time>
      </trkpt>
      <trkpt lat="43.47696" lon="-0.66235">
        <ele>238</ele>
        <time>2022-08-23T05:57:18Z</time>
      </trkpt>
      <trkpt lat="43.47687" lon="-0.66278">
        <ele>238</ele>
        <time>2022-08-23T05:57:40Z</time>
      </trkpt>
      <trkpt lat="43.47678" lon="-0.66304">
        <ele>238</ele>
        <time>2022-08-23T05:57:49Z</time>
      </trkpt>
      <trkpt lat="43.47668" lon="-0.66369">
        <ele>238</ele>
        <time>2022-08-23T05:58:25Z</time>
      </trkpt>
      <trkpt lat="43.47667" lon="-0.66383">
        <ele>238</ele>
        <time>2022-08-23T05:58:34Z</time>
      </trkpt>
      <trkpt lat="43.4766" lon="-0.66421">
        <ele>237</ele>
        <time>2022-08-23T05:59:16Z</time>
      </trkpt>
      <trkpt lat="43.47659" lon="-0.66435">
        <ele>237</ele>
        <time>2022-08-23T05:59:25Z</time>
      </trkpt>
      <trkpt lat="43.47645" lon="-0.66513">
        <ele>237</ele>
        <time>2022-08-23T05:59:55Z</time>
      </trkpt>
      <trkpt lat="43.47638" lon="-0.66578">
        <ele>236</ele>
        <time>2022-08-23T06:00:31Z</time>
      </trkpt>
      <trkpt lat="43.47634" lon="-0.66632">
        <ele>236</ele>
        <time>2022-08-23T06:01:03Z</time>
      </trkpt>
      <trkpt lat="43.47631" lon="-0.6666">
        <ele>234</ele>
        <time>2022-08-23T06:01:30Z</time>
      </trkpt>
      <trkpt lat="43.47609" lon="-0.66706">
        <ele>232</ele>
        <time>2022-08-23T06:01:50Z</time>
      </trkpt>
      <trkpt lat="43.47601" lon="-0.66714">
        <ele>232</ele>
        <time>2022-08-23T06:01:55Z</time>
      </trkpt>
      <trkpt lat="43.47585" lon="-0.6675">
        <ele>230</ele>
        <time>2022-08-23T06:02:17Z</time>
      </trkpt>
      <trkpt lat="43.47576" lon="-0.66754">
        <ele>230</ele>
        <time>2022-08-23T06:02:33Z</time>
      </trkpt>
      <trkpt lat="43.47535" lon="-0.66791">
        <ele>227</ele>
        <time>2022-08-23T06:03:11Z</time>
      </trkpt>
      <trkpt lat="43.47526" lon="-0.66794">
        <ele>227</ele>
        <time>2022-08-23T06:03:19Z</time>
      </trkpt>
      <trkpt lat="43.47516" lon="-0.66791">
        <ele>226</ele>
        <time>2022-08-23T06:03:30Z</time>
      </trkpt>
      <trkpt lat="43.47487" lon="-0.66795">
        <ele>222</ele>
        <time>2022-08-23T06:03:48Z</time>
      </trkpt>
      <trkpt lat="43.47439" lon="-0.6678">
        <ele>214</ele>
        <time>2022-08-23T06:04:25Z</time>
      </trkpt>
      <trkpt lat="43.4743" lon="-0.66775">
        <ele>213</ele>
        <time>2022-08-23T06:04:44Z</time>
      </trkpt>
      <trkpt lat="43.47411" lon="-0.66774">
        <ele>210</ele>
        <time>2022-08-23T06:05:02Z</time>
      </trkpt>
      <trkpt lat="43.47403" lon="-0.6678">
        <ele>209</ele>
        <time>2022-08-23T06:05:09Z</time>
      </trkpt>
      <trkpt lat="43.47374" lon="-0.66791">
        <ele>205</ele>
        <time>2022-08-23T06:05:34Z</time>
      </trkpt>
      <trkpt lat="43.47312" lon="-0.66787">
        <ele>196</ele>
        <time>2022-08-23T06:06:07Z</time>
      </trkpt>
      <trkpt lat="43.47303" lon="-0.66784">
        <ele>195</ele>
        <time>2022-08-23T06:06:11Z</time>
      </trkpt>
      <trkpt lat="43.47286" lon="-0.66772">
        <ele>192</ele>
        <time>2022-08-23T06:06:20Z</time>
      </trkpt>
      <trkpt lat="43.47277" lon="-0.66773">
        <ele>191</ele>
        <time>2022-08-23T06:06:27Z</time>
      </trkpt>
      <trkpt lat="43.47268" lon="-0.66779">
        <ele>190</ele>
        <time>2022-08-23T06:06:36Z</time>
      </trkpt>
      <trkpt lat="43.47239" lon="-0.66786">
        <ele>186</ele>
        <time>2022-08-23T06:06:58Z</time>
      </trkpt>
      <trkpt lat="43.47201" lon="-0.66774">
        <ele>180</ele>
        <time>2022-08-23T06:07:31Z</time>
      </trkpt>
      <trkpt lat="43.47182" lon="-0.66766">
        <ele>178</ele>
        <time>2022-08-23T06:07:44Z</time>
      </trkpt>
      <trkpt lat="43.47173" lon="-0.66766">
        <ele>176</ele>
        <time>2022-08-23T06:07:53Z</time>
      </trkpt>
      <trkpt lat="43.47126" lon="-0.6676">
        <ele>174</ele>
        <time>2022-08-23T06:08:29Z</time>
      </trkpt>
      <trkpt lat="43.47098" lon="-0.66769">
        <ele>173</ele>
        <time>2022-08-23T06:09:02Z</time>
      </trkpt>
      <trkpt lat="43.4707" lon="-0.66778">
        <ele>172</ele>
        <time>2022-08-23T06:09:22Z</time>
      </trkpt>
      <trkpt lat="43.47045" lon="-0.66796">
        <ele>171</ele>
        <time>2022-08-23T06:09:42Z</time>
      </trkpt>
      <trkpt lat="43.47035" lon="-0.66798">
        <ele>170</ele>
        <time>2022-08-23T06:09:51Z</time>
      </trkpt>
      <trkpt lat="43.46991" lon="-0.66822">
        <ele>169</ele>
        <time>2022-08-23T06:10:27Z</time>
      </trkpt>
      <trkpt lat="43.46944" lon="-0.66838">
        <ele>168</ele>
        <time>2022-08-23T06:11:02Z</time>
      </trkpt>
      <trkpt lat="43.46905" lon="-0.66845">
        <ele>167</ele>
        <time>2022-08-23T06:11:34Z</time>
      </trkpt>
      <trkpt lat="43.46896" lon="-0.66851">
        <ele>167</ele>
        <time>2022-08-23T06:11:42Z</time>
      </trkpt>
      <trkpt lat="43.46884" lon="-0.66888">
        <ele>166</ele>
        <time>2022-08-23T06:12:04Z</time>
      </trkpt>
      <trkpt lat="43.46857" lon="-0.66926">
        <ele>165</ele>
        <time>2022-08-23T06:12:36Z</time>
      </trkpt>
      <trkpt lat="43.4685" lon="-0.66934">
        <ele>165</ele>
        <time>2022-08-23T06:12:43Z</time>
      </trkpt>
      <trkpt lat="43.46825" lon="-0.66977">
        <ele>165</ele>
        <time>2022-08-23T06:13:15Z</time>
      </trkpt>
      <trkpt lat="43.46808" lon="-0.67026">
        <ele>165</ele>
        <time>2022-08-23T06:13:46Z</time>
      </trkpt>
      <trkpt lat="43.46788" lon="-0.67071">
        <ele>164</ele>
        <time>2022-08-23T06:14:17Z</time>
      </trkpt>
      <trkpt lat="43.46768" lon="-0.67128">
        <ele>164</ele>
        <time>2022-08-23T06:14:52Z</time>
      </trkpt>
      <trkpt lat="43.46746" lon="-0.67185">
        <ele>163</ele>
        <time>2022-08-23T06:15:27Z</time>
      </trkpt>
      <trkpt lat="43.46744" lon="-0.67197">
        <ele>162</ele>
        <time>2022-08-23T06:15:34Z</time>
      </trkpt>
      <trkpt lat="43.4673" lon="-0.67233">
        <ele>161</ele>
        <time>2022-08-23T06:15:57Z</time>
      </trkpt>
      <trkpt lat="43.46723" lon="-0.67242">
        <ele>161</ele>
        <time>2022-08-23T06:16:04Z</time>
      </trkpt>
      <trkpt lat="43.4669" lon="-0.6727">
        <ele>159</ele>
        <time>2022-08-23T06:16:35Z</time>
      </trkpt>
      <trkpt lat="43.46666" lon="-0.67292">
        <ele>158</ele>
        <time>2022-08-23T06:16:56Z</time>
      </trkpt>
      <trkpt lat="43.4666" lon="-0.67302">
        <ele>158</ele>
        <time>2022-08-23T06:17:03Z</time>
      </trkpt>
      <trkpt lat="43.4662" lon="-0.6734">
        <ele>157</ele>
        <time>2022-08-23T06:17:40Z</time>
      </trkpt>
      <trkpt lat="43.46605" lon="-0.67355">
        <ele>156</ele>
        <time>2022-08-23T06:17:54Z</time>
      </trkpt>
      <trkpt lat="43.46571" lon="-0.67401">
        <ele>155</ele>
        <time>2022-08-23T06:18:28Z</time>
      </trkpt>
      <trkpt lat="43.46544" lon="-0.67435">
        <ele>154</ele>
        <time>2022-08-23T06:18:58Z</time>
      </trkpt>
      <trkpt lat="43.46513" lon="-0.67467">
        <ele>153</ele>
        <time>2022-08-23T06:19:28Z</time>
      </trkpt>
      <trkpt lat="43.46474" lon="-0.67508">
        <ele>152</ele>
        <time>2022-08-23T06:20:02Z</time>
      </trkpt>
      <trkpt lat="43.46443" lon="-0.67543">
        <ele>151</ele>
        <time>2022-08-23T06:20:34Z</time>
      </trkpt>
      <trkpt lat="43.4643" lon="-0.67563">
        <ele>150</ele>
        <time>2022-08-23T06:20:49Z</time>
      </trkpt>
      <trkpt lat="43.46425" lon="-0.67574">
        <ele>150</ele>
        <time>2022-08-23T06:20:56Z</time>
      </trkpt>
      <trkpt lat="43.46393" lon="-0.67624">
        <ele>149</ele>
        <time>2022-08-23T06:21:33Z</time>
      </trkpt>
      <trkpt lat="43.46352" lon="-0.67658">
        <ele>148</ele>
        <time>2022-08-23T06:22:06Z</time>
      </trkpt>
      <trkpt lat="43.46322" lon="-0.67689">
        <ele>147</ele>
        <time>2022-08-23T06:22:37Z</time>
      </trkpt>
      <trkpt lat="43.46313" lon="-0.67696">
        <ele>147</ele>
        <time>2022-08-23T06:22:46Z</time>
      </trkpt>
      <trkpt lat="43.46291" lon="-0.67721">
        <ele>147</ele>
        <time>2022-08-23T06:23:06Z</time>
      </trkpt>
      <trkpt lat="43.46283" lon="-0.67726">
        <ele>146</ele>
        <time>2022-08-23T06:23:14Z</time>
      </trkpt>
      <trkpt lat="43.46251" lon="-0.67755">
        <ele>146</ele>
        <time>2022-08-23T06:23:44Z</time>
      </trkpt>
      <trkpt lat="43.46218" lon="-0.67783">
        <ele>145</ele>
        <time>2022-08-23T06:24:14Z</time>
      </trkpt>
      <trkpt lat="43.46193" lon="-0.67805">
        <ele>145</ele>
        <time>2022-08-23T06:24:38Z</time>
      </trkpt>
      <trkpt lat="43.46158" lon="-0.67825">
        <ele>144</ele>
        <time>2022-08-23T06:25:09Z</time>
      </trkpt>
      <trkpt lat="43.46132" lon="-0.67841">
        <ele>144</ele>
        <time>2022-08-23T06:25:34Z</time>
      </trkpt>
      <trkpt lat="43.46117" lon="-0.67857">
        <ele>144</ele>
        <time>2022-08-23T06:25:49Z</time>
      </trkpt>
      <trkpt lat="43.4609" lon="-0.67896">
        <ele>144</ele>
        <time>2022-08-23T06:26:21Z</time>
      </trkpt>
      <trkpt lat="43.46063" lon="-0.67933">
        <ele>144</ele>
        <time>2022-08-23T06:26:53Z</time>
      </trkpt>
      <trkpt lat="43.46055" lon="-0.67941">
        <ele>144</ele>
        <time>2022-08-23T06:27:00Z</time>
      </trkpt>
      <trkpt lat="43.46028" lon="-0.67977">
        <ele>144</ele>
        <time>2022-08-23T06:27:30Z</time>
      </trkpt>
      <trkpt lat="43.4602" lon="-0.67984">
        <ele>144</ele>
        <time>2022-08-23T06:27:37Z</time>
      </trkpt>
      <trkpt lat="43.45997" lon="-0.68011">
        <ele>144</ele>
        <time>2022-08-23T06:28:01Z</time>
      </trkpt>
      <trkpt lat="43.45979" lon="-0.68024">
        <ele>144</ele>
        <time>2022-08-23T06:28:17Z</time>
      </trkpt>
      <trkpt lat="43.45974" lon="-0.68034">
        <ele>144</ele>
        <time>2022-08-23T06:28:24Z</time>
      </trkpt>
      <trkpt lat="43.45966" lon="-0.68043">
        <ele>144</ele>
        <time>2022-08-23T06:28:32Z</time>
      </trkpt>
      <trkpt lat="43.45958" lon="-0.68048">
        <ele>144</ele>
        <time>2022-08-23T06:28:39Z</time>
      </trkpt>
      <trkpt lat="43.45925" lon="-0.68074">
        <ele>144</ele>
        <time>2022-08-23T06:29:07Z</time>
      </trkpt>
      <trkpt lat="43.4588" lon="-0.68098">
        <ele>144</ele>
        <time>2022-08-23T06:29:44Z</time>
      </trkpt>
      <trkpt lat="43.45852" lon="-0.68101">
        <ele>144</ele>
        <time>2022-08-23T06:30:03Z</time>
      </trkpt>
      <trkpt lat="43.45808" lon="-0.68126">
        <ele>144</ele>
        <time>2022-08-23T06:30:39Z</time>
      </trkpt>
      <trkpt lat="43.4578" lon="-0.68135">
        <ele>143</ele>
        <time>2022-08-23T06:31:03Z</time>
      </trkpt>
      <trkpt lat="43.45771" lon="-0.6814">
        <ele>143</ele>
        <time>2022-08-23T06:31:10Z</time>
      </trkpt>
      <trkpt lat="43.45762" lon="-0.68141">
        <ele>143</ele>
        <time>2022-08-23T06:31:16Z</time>
      </trkpt>
      <trkpt lat="43.45735" lon="-0.68161">
        <ele>142</ele>
        <time>2022-08-23T06:31:37Z</time>
      </trkpt>
      <trkpt lat="43.45721" lon="-0.6818">
        <ele>142</ele>
        <time>2022-08-23T06:31:52Z</time>
      </trkpt>
      <trkpt lat="43.45712" lon="-0.68185">
        <ele>141</ele>
        <time>2022-08-23T06:31:59Z</time>
      </trkpt>
      <trkpt lat="43.45674" lon="-0.6819">
        <ele>140</ele>
        <time>2022-08-23T06:32:31Z</time>
      </trkpt>
      <trkpt lat="43.45665" lon="-0.68192">
        <ele>140</ele>
        <time>2022-08-23T06:32:39Z</time>
      </trkpt>
      <trkpt lat="43.45645" lon="-0.6819">
        <ele>139</ele>
        <time>2022-08-23T06:32:53Z</time>
      </trkpt>
      <trkpt lat="43.45616" lon="-0.68192">
        <ele>138</ele>
        <time>2022-08-23T06:33:17Z</time>
      </trkpt>
      <trkpt lat="43.45578" lon="-0.68188">
        <ele>137</ele>
        <time>2022-08-23T06:33:48Z</time>
      </trkpt>
      <trkpt lat="43.45542" lon="-0.68186">
        <ele>136</ele>
        <time>2022-08-23T06:38:50Z</time>
      </trkpt>
      <trkpt lat="43.45513" lon="-0.68189">
        <ele>135</ele>
        <time>2022-08-23T06:39:14Z</time>
      </trkpt>
      <trkpt lat="43.45477" lon="-0.68202">
        <ele>133</ele>
        <time>2022-08-23T06:39:49Z</time>
      </trkpt>
      <trkpt lat="43.45459" lon="-0.68208">
        <ele>133</ele>
        <time>2022-08-23T06:40:07Z</time>
      </trkpt>
      <trkpt lat="43.45424" lon="-0.68232">
        <ele>131</ele>
        <time>2022-08-23T06:40:42Z</time>
      </trkpt>
      <trkpt lat="43.45408" lon="-0.68244">
        <ele>131</ele>
        <time>2022-08-23T06:40:58Z</time>
      </trkpt>
      <trkpt lat="43.45379" lon="-0.68279">
        <ele>130</ele>
        <time>2022-08-23T06:41:32Z</time>
      </trkpt>
      <trkpt lat="43.45364" lon="-0.68295">
        <ele>129</ele>
        <time>2022-08-23T06:41:46Z</time>
      </trkpt>
      <trkpt lat="43.45339" lon="-0.68313">
        <ele>128</ele>
        <time>2022-08-23T06:42:10Z</time>
      </trkpt>
      <trkpt lat="43.45309" lon="-0.68316">
        <ele>128</ele>
        <time>2022-08-23T06:42:34Z</time>
      </trkpt>
      <trkpt lat="43.45291" lon="-0.6831">
        <ele>127</ele>
        <time>2022-08-23T06:42:50Z</time>
      </trkpt>
      <trkpt lat="43.45282" lon="-0.68303">
        <ele>127</ele>
        <time>2022-08-23T06:42:59Z</time>
      </trkpt>
      <trkpt lat="43.45255" lon="-0.68266">
        <ele>127</ele>
        <time>2022-08-23T06:43:32Z</time>
      </trkpt>
      <trkpt lat="43.45241" lon="-0.68248">
        <ele>127</ele>
        <time>2022-08-23T06:43:49Z</time>
      </trkpt>
      <trkpt lat="43.45231" lon="-0.68253">
        <ele>127</ele>
        <time>2022-08-23T06:43:59Z</time>
      </trkpt>
      <trkpt lat="43.45231" lon="-0.68266">
        <ele>127</ele>
        <time>2022-08-23T06:44:08Z</time>
      </trkpt>
      <trkpt lat="43.45244" lon="-0.68285">
        <ele>127</ele>
        <time>2022-08-23T06:44:22Z</time>
      </trkpt>
      <trkpt lat="43.45252" lon="-0.68292">
        <ele>127</ele>
        <time>2022-08-23T06:44:30Z</time>
      </trkpt>
      <trkpt lat="43.45257" lon="-0.68303">
        <ele>127</ele>
        <time>2022-08-23T06:44:40Z</time>
      </trkpt>
      <trkpt lat="43.45257" lon="-0.68317">
        <ele>127</ele>
        <time>2022-08-23T06:44:47Z</time>
      </trkpt>
      <trkpt lat="43.45255" lon="-0.6833">
        <ele>127</ele>
        <time>2022-08-23T06:44:56Z</time>
      </trkpt>
      <trkpt lat="43.4523" lon="-0.68369">
        <ele>128</ele>
        <time>2022-08-23T06:45:28Z</time>
      </trkpt>
      <trkpt lat="43.45203" lon="-0.68405">
        <ele>128</ele>
        <time>2022-08-23T06:45:58Z</time>
      </trkpt>
      <trkpt lat="43.45189" lon="-0.68424">
        <ele>128</ele>
        <time>2022-08-23T06:46:13Z</time>
      </trkpt>
      <trkpt lat="43.45172" lon="-0.68438">
        <ele>127</ele>
        <time>2022-08-23T06:46:28Z</time>
      </trkpt>
      <trkpt lat="43.45165" lon="-0.68449">
        <ele>127</ele>
        <time>2022-08-23T06:46:36Z</time>
      </trkpt>
      <trkpt lat="43.45148" lon="-0.6846">
        <ele>127</ele>
        <time>2022-08-23T06:46:50Z</time>
      </trkpt>
      <trkpt lat="43.45141" lon="-0.68468">
        <ele>127</ele>
        <time>2022-08-23T06:46:59Z</time>
      </trkpt>
      <trkpt lat="43.45141" lon="-0.68481">
        <ele>127</ele>
        <time>2022-08-23T06:47:08Z</time>
      </trkpt>
      <trkpt lat="43.45128" lon="-0.68489">
        <ele>127</ele>
        <time>2022-08-23T06:47:48Z</time>
      </trkpt>
      <trkpt lat="43.45112" lon="-0.68506">
        <ele>127</ele>
        <time>2022-08-23T06:48:02Z</time>
      </trkpt>
      <trkpt lat="43.45084" lon="-0.68541">
        <ele>126</ele>
        <time>2022-08-23T06:48:29Z</time>
      </trkpt>
      <trkpt lat="43.45076" lon="-0.68548">
        <ele>126</ele>
        <time>2022-08-23T06:48:36Z</time>
      </trkpt>
      <trkpt lat="43.45067" lon="-0.6855">
        <ele>126</ele>
        <time>2022-08-23T06:48:44Z</time>
      </trkpt>
      <trkpt lat="43.4505" lon="-0.68558">
        <ele>126</ele>
        <time>2022-08-23T06:48:57Z</time>
      </trkpt>
      <trkpt lat="43.45018" lon="-0.68591">
        <ele>126</ele>
        <time>2022-08-23T06:49:27Z</time>
      </trkpt>
      <trkpt lat="43.45002" lon="-0.68605">
        <ele>126</ele>
        <time>2022-08-23T06:49:43Z</time>
      </trkpt>
      <trkpt lat="43.44987" lon="-0.68622">
        <ele>126</ele>
        <time>2022-08-23T06:49:59Z</time>
      </trkpt>
      <trkpt lat="43.44971" lon="-0.68636">
        <ele>126</ele>
        <time>2022-08-23T06:50:14Z</time>
      </trkpt>
      <trkpt lat="43.44963" lon="-0.68646">
        <ele>126</ele>
        <time>2022-08-23T06:50:23Z</time>
      </trkpt>
      <trkpt lat="43.44931" lon="-0.68677">
        <ele>127</ele>
        <time>2022-08-23T06:50:54Z</time>
      </trkpt>
      <trkpt lat="43.44908" lon="-0.68702">
        <ele>127</ele>
        <time>2022-08-23T06:51:21Z</time>
      </trkpt>
      <trkpt lat="43.44877" lon="-0.68732">
        <ele>127</ele>
        <time>2022-08-23T06:51:52Z</time>
      </trkpt>
      <trkpt lat="43.4487" lon="-0.68741">
        <ele>127</ele>
        <time>2022-08-23T06:51:58Z</time>
      </trkpt>
      <trkpt lat="43.44855" lon="-0.68756">
        <ele>127</ele>
        <time>2022-08-23T06:52:12Z</time>
      </trkpt>
      <trkpt lat="43.44849" lon="-0.68766">
        <ele>127</ele>
        <time>2022-08-23T06:52:20Z</time>
      </trkpt>
      <trkpt lat="43.44816" lon="-0.68794">
        <ele>127</ele>
        <time>2022-08-23T06:52:51Z</time>
      </trkpt>
      <trkpt lat="43.44786" lon="-0.68825">
        <ele>127</ele>
        <time>2022-08-23T06:53:21Z</time>
      </trkpt>
      <trkpt lat="43.44754" lon="-0.68854">
        <ele>126</ele>
        <time>2022-08-23T06:53:51Z</time>
      </trkpt>
      <trkpt lat="43.44728" lon="-0.68873">
        <ele>126</ele>
        <time>2022-08-23T06:54:13Z</time>
      </trkpt>
      <trkpt lat="43.44692" lon="-0.68891">
        <ele>126</ele>
        <time>2022-08-23T06:54:43Z</time>
      </trkpt>
      <trkpt lat="43.44654" lon="-0.68893">
        <ele>126</ele>
        <time>2022-08-23T06:55:14Z</time>
      </trkpt>
      <trkpt lat="43.44616" lon="-0.68887">
        <ele>126</ele>
        <time>2022-08-23T06:55:46Z</time>
      </trkpt>
      <trkpt lat="43.44578" lon="-0.68897">
        <ele>125</ele>
        <time>2022-08-23T06:56:19Z</time>
      </trkpt>
      <trkpt lat="43.44559" lon="-0.68903">
        <ele>125</ele>
        <time>2022-08-23T06:56:34Z</time>
      </trkpt>
      <trkpt lat="43.44532" lon="-0.68917">
        <ele>125</ele>
        <time>2022-08-23T06:56:58Z</time>
      </trkpt>
      <trkpt lat="43.44488" lon="-0.68931">
        <ele>125</ele>
        <time>2022-08-23T06:57:33Z</time>
      </trkpt>
      <trkpt lat="43.44451" lon="-0.68951">
        <ele>124</ele>
        <time>2022-08-23T06:58:04Z</time>
      </trkpt>
      <trkpt lat="43.44424" lon="-0.68968">
        <ele>124</ele>
        <time>2022-08-23T06:58:27Z</time>
      </trkpt>
      <trkpt lat="43.44396" lon="-0.68977">
        <ele>125</ele>
        <time>2022-08-23T06:58:50Z</time>
      </trkpt>
      <trkpt lat="43.44388" lon="-0.68983">
        <ele>125</ele>
        <time>2022-08-23T06:58:56Z</time>
      </trkpt>
      <trkpt lat="43.44344" lon="-0.69007">
        <ele>125</ele>
        <time>2022-08-23T06:59:33Z</time>
      </trkpt>
      <trkpt lat="43.44308" lon="-0.69024">
        <ele>125</ele>
        <time>2022-08-23T07:00:06Z</time>
      </trkpt>
      <trkpt lat="43.443" lon="-0.69033">
        <ele>125</ele>
        <time>2022-08-23T07:00:13Z</time>
      </trkpt>
      <trkpt lat="43.44282" lon="-0.69041">
        <ele>126</ele>
        <time>2022-08-23T07:00:28Z</time>
      </trkpt>
      <trkpt lat="43.44249" lon="-0.6907">
        <ele>125</ele>
        <time>2022-08-23T07:00:58Z</time>
      </trkpt>
      <trkpt lat="43.44236" lon="-0.6909">
        <ele>125</ele>
        <time>2022-08-23T07:01:15Z</time>
      </trkpt>
      <trkpt lat="43.44233" lon="-0.69103">
        <ele>125</ele>
        <time>2022-08-23T07:01:24Z</time>
      </trkpt>
      <trkpt lat="43.44208" lon="-0.69144">
        <ele>124</ele>
        <time>2022-08-23T07:01:54Z</time>
      </trkpt>
      <trkpt lat="43.44176" lon="-0.69173">
        <ele>124</ele>
        <time>2022-08-23T07:02:25Z</time>
      </trkpt>
      <trkpt lat="43.44142" lon="-0.69202">
        <ele>123</ele>
        <time>2022-08-23T07:02:56Z</time>
      </trkpt>
      <trkpt lat="43.44112" lon="-0.69236">
        <ele>123</ele>
        <time>2022-08-23T07:03:26Z</time>
      </trkpt>
      <trkpt lat="43.44083" lon="-0.69273">
        <ele>123</ele>
        <time>2022-08-23T07:03:58Z</time>
      </trkpt>
      <trkpt lat="43.44076" lon="-0.69282">
        <ele>123</ele>
        <time>2022-08-23T07:04:06Z</time>
      </trkpt>
      <trkpt lat="43.44041" lon="-0.69304">
        <ele>123</ele>
        <time>2022-08-23T07:04:38Z</time>
      </trkpt>
      <trkpt lat="43.44033" lon="-0.6931">
        <ele>123</ele>
        <time>2022-08-23T07:04:46Z</time>
      </trkpt>
      <trkpt lat="43.44026" lon="-0.69319">
        <ele>123</ele>
        <time>2022-08-23T07:04:54Z</time>
      </trkpt>
      <trkpt lat="43.44016" lon="-0.69317">
        <ele>123</ele>
        <time>2022-08-23T07:05:08Z</time>
      </trkpt>
      <trkpt lat="43.43985" lon="-0.69288">
        <ele>124</ele>
        <time>2022-08-23T07:05:38Z</time>
      </trkpt>
      <trkpt lat="43.43967" lon="-0.69282">
        <ele>124</ele>
        <time>2022-08-23T07:05:54Z</time>
      </trkpt>
      <trkpt lat="43.43958" lon="-0.69281">
        <ele>124</ele>
        <time>2022-08-23T07:06:05Z</time>
      </trkpt>
      <trkpt lat="43.43949" lon="-0.69284">
        <ele>124</ele>
        <time>2022-08-23T07:06:12Z</time>
      </trkpt>
      <trkpt lat="43.4394" lon="-0.6928">
        <ele>124</ele>
        <time>2022-08-23T07:06:19Z</time>
      </trkpt>
      <trkpt lat="43.43933" lon="-0.69274">
        <ele>124</ele>
        <time>2022-08-23T07:06:25Z</time>
      </trkpt>
      <trkpt lat="43.43923" lon="-0.6928">
        <ele>124</ele>
        <time>2022-08-23T07:06:41Z</time>
      </trkpt>
      <trkpt lat="43.43911" lon="-0.69301">
        <ele>125</ele>
        <time>2022-08-23T07:06:58Z</time>
      </trkpt>
      <trkpt lat="43.43909" lon="-0.69314">
        <ele>125</ele>
        <time>2022-08-23T07:07:07Z</time>
      </trkpt>
      <trkpt lat="43.43912" lon="-0.69326">
        <ele>125</ele>
        <time>2022-08-23T07:07:16Z</time>
      </trkpt>
      <trkpt lat="43.43919" lon="-0.69334">
        <ele>125</ele>
        <time>2022-08-23T07:07:25Z</time>
      </trkpt>
      <trkpt lat="43.43925" lon="-0.69345">
        <ele>125</ele>
        <time>2022-08-23T07:07:33Z</time>
      </trkpt>
      <trkpt lat="43.43938" lon="-0.69366">
        <ele>125</ele>
        <time>2022-08-23T07:07:51Z</time>
      </trkpt>
      <trkpt lat="43.4393" lon="-0.69389">
        <ele>125</ele>
        <time>2022-08-23T07:08:07Z</time>
      </trkpt>
      <trkpt lat="43.43907" lon="-0.69433">
        <ele>126</ele>
        <time>2022-08-23T07:08:42Z</time>
      </trkpt>
      <trkpt lat="43.43901" lon="-0.69443">
        <ele>126</ele>
        <time>2022-08-23T07:08:51Z</time>
      </trkpt>
      <trkpt lat="43.43901" lon="-0.69445">
        <ele>127</ele>
        <time>2022-08-23T07:45:09Z</time>
      </trkpt>
      <trkpt lat="43.43923" lon="-0.69403">
        <ele>128</ele>
        <time>2022-08-23T07:45:48Z</time>
      </trkpt>
      <trkpt lat="43.43939" lon="-0.69369">
        <ele>128</ele>
        <time>2022-08-23T07:46:17Z</time>
      </trkpt>
      <trkpt lat="43.43926" lon="-0.69349">
        <ele>128</ele>
        <time>2022-08-23T07:46:33Z</time>
      </trkpt>
      <trkpt lat="43.43895" lon="-0.6932">
        <ele>129</ele>
        <time>2022-08-23T07:47:08Z</time>
      </trkpt>
      <trkpt lat="43.4389" lon="-0.6931">
        <ele>129</ele>
        <time>2022-08-23T07:47:16Z</time>
      </trkpt>
      <trkpt lat="43.43882" lon="-0.69302">
        <ele>129</ele>
        <time>2022-08-23T07:47:24Z</time>
      </trkpt>
      <trkpt lat="43.43873" lon="-0.69296">
        <ele>129</ele>
        <time>2022-08-23T07:47:35Z</time>
      </trkpt>
      <trkpt lat="43.43857" lon="-0.69281">
        <ele>128</ele>
        <time>2022-08-23T07:48:13Z</time>
      </trkpt>
      <trkpt lat="43.43819" lon="-0.6927">
        <ele>128</ele>
        <time>2022-08-23T07:48:47Z</time>
      </trkpt>
      <trkpt lat="43.43813" lon="-0.69261">
        <ele>128</ele>
        <time>2022-08-23T07:49:10Z</time>
      </trkpt>
      <trkpt lat="43.43804" lon="-0.69266">
        <ele>128</ele>
        <time>2022-08-23T07:49:20Z</time>
      </trkpt>
      <trkpt lat="43.43796" lon="-0.69259">
        <ele>128</ele>
        <time>2022-08-23T07:49:35Z</time>
      </trkpt>
      <trkpt lat="43.43787" lon="-0.69262">
        <ele>128</ele>
        <time>2022-08-23T07:50:01Z</time>
      </trkpt>
      <trkpt lat="43.43777" lon="-0.6926">
        <ele>128</ele>
        <time>2022-08-23T07:50:11Z</time>
      </trkpt>
      <trkpt lat="43.43759" lon="-0.69266">
        <ele>127</ele>
        <time>2022-08-23T07:50:28Z</time>
      </trkpt>
      <trkpt lat="43.4375" lon="-0.69263">
        <ele>127</ele>
        <time>2022-08-23T07:50:38Z</time>
      </trkpt>
      <trkpt lat="43.43712" lon="-0.69264">
        <ele>127</ele>
        <time>2022-08-23T07:51:13Z</time>
      </trkpt>
      <trkpt lat="43.43683" lon="-0.69268">
        <ele>127</ele>
        <time>2022-08-23T07:51:38Z</time>
      </trkpt>
      <trkpt lat="43.43637" lon="-0.69285">
        <ele>127</ele>
        <time>2022-08-23T07:52:14Z</time>
      </trkpt>
      <trkpt lat="43.43628" lon="-0.69291">
        <ele>127</ele>
        <time>2022-08-23T07:52:22Z</time>
      </trkpt>
      <trkpt lat="43.43619" lon="-0.69294">
        <ele>127</ele>
        <time>2022-08-23T07:52:29Z</time>
      </trkpt>
      <trkpt lat="43.43583" lon="-0.69314">
        <ele>127</ele>
        <time>2022-08-23T07:53:01Z</time>
      </trkpt>
      <trkpt lat="43.43551" lon="-0.6934">
        <ele>128</ele>
        <time>2022-08-23T07:53:33Z</time>
      </trkpt>
      <trkpt lat="43.43524" lon="-0.69358">
        <ele>128</ele>
        <time>2022-08-23T07:53:58Z</time>
      </trkpt>
      <trkpt lat="43.43486" lon="-0.69368">
        <ele>128</ele>
        <time>2022-08-23T07:54:29Z</time>
      </trkpt>
      <trkpt lat="43.43477" lon="-0.69373">
        <ele>128</ele>
        <time>2022-08-23T07:54:38Z</time>
      </trkpt>
      <trkpt lat="43.43447" lon="-0.69338">
        <ele>128</ele>
        <time>2022-08-23T07:55:10Z</time>
      </trkpt>
      <trkpt lat="43.43405" lon="-0.69312">
        <ele>128</ele>
        <time>2022-08-23T07:55:47Z</time>
      </trkpt>
      <trkpt lat="43.43368" lon="-0.6929">
        <ele>128</ele>
        <time>2022-08-23T07:56:19Z</time>
      </trkpt>
      <trkpt lat="43.43333" lon="-0.69268">
        <ele>128</ele>
        <time>2022-08-23T07:56:51Z</time>
      </trkpt>
      <trkpt lat="43.43302" lon="-0.69235">
        <ele>128</ele>
        <time>2022-08-23T07:57:24Z</time>
      </trkpt>
      <trkpt lat="43.43272" lon="-0.69202">
        <ele>128</ele>
        <time>2022-08-23T07:57:54Z</time>
      </trkpt>
      <trkpt lat="43.43244" lon="-0.69166">
        <ele>128</ele>
        <time>2022-08-23T07:58:26Z</time>
      </trkpt>
      <trkpt lat="43.43228" lon="-0.69133">
        <ele>128</ele>
        <time>2022-08-23T07:58:51Z</time>
      </trkpt>
      <trkpt lat="43.43201" lon="-0.69096">
        <ele>127</ele>
        <time>2022-08-23T07:59:21Z</time>
      </trkpt>
      <trkpt lat="43.43165" lon="-0.69052">
        <ele>127</ele>
        <time>2022-08-23T07:59:59Z</time>
      </trkpt>
      <trkpt lat="43.4313" lon="-0.6901">
        <ele>127</ele>
        <time>2022-08-23T08:00:35Z</time>
      </trkpt>
      <trkpt lat="43.43102" lon="-0.68976">
        <ele>127</ele>
        <time>2022-08-23T08:01:05Z</time>
      </trkpt>
      <trkpt lat="43.43083" lon="-0.68944">
        <ele>127</ele>
        <time>2022-08-23T08:01:28Z</time>
      </trkpt>
      <trkpt lat="43.43048" lon="-0.68903">
        <ele>127</ele>
        <time>2022-08-23T08:02:04Z</time>
      </trkpt>
      <trkpt lat="43.43017" lon="-0.68872">
        <ele>127</ele>
        <time>2022-08-23T08:02:36Z</time>
      </trkpt>
      <trkpt lat="43.42979" lon="-0.68831">
        <ele>127</ele>
        <time>2022-08-23T08:03:12Z</time>
      </trkpt>
      <trkpt lat="43.42971" lon="-0.68823">
        <ele>127</ele>
        <time>2022-08-23T08:03:19Z</time>
      </trkpt>
      <trkpt lat="43.42937" lon="-0.68799">
        <ele>126</ele>
        <time>2022-08-23T08:03:51Z</time>
      </trkpt>
      <trkpt lat="43.42928" lon="-0.68794">
        <ele>126</ele>
        <time>2022-08-23T08:03:59Z</time>
      </trkpt>
      <trkpt lat="43.4292" lon="-0.68787">
        <ele>126</ele>
        <time>2022-08-23T08:04:07Z</time>
      </trkpt>
      <trkpt lat="43.42916" lon="-0.68775">
        <ele>126</ele>
        <time>2022-08-23T08:04:13Z</time>
      </trkpt>
      <trkpt lat="43.42918" lon="-0.68749">
        <ele>126</ele>
        <time>2022-08-23T08:04:30Z</time>
      </trkpt>
      <trkpt lat="43.4292" lon="-0.68735">
        <ele>126</ele>
        <time>2022-08-23T08:04:37Z</time>
      </trkpt>
      <trkpt lat="43.4292" lon="-0.68723">
        <ele>126</ele>
        <time>2022-08-23T08:04:46Z</time>
      </trkpt>
      <trkpt lat="43.42899" lon="-0.68677">
        <ele>126</ele>
        <time>2022-08-23T08:05:16Z</time>
      </trkpt>
      <trkpt lat="43.42882" lon="-0.68645">
        <ele>126</ele>
        <time>2022-08-23T08:05:38Z</time>
      </trkpt>
      <trkpt lat="43.42849" lon="-0.68598">
        <ele>127</ele>
        <time>2022-08-23T08:06:13Z</time>
      </trkpt>
      <trkpt lat="43.42822" lon="-0.68562">
        <ele>127</ele>
        <time>2022-08-23T08:06:44Z</time>
      </trkpt>
      <trkpt lat="43.42814" lon="-0.68554">
        <ele>127</ele>
        <time>2022-08-23T08:06:52Z</time>
      </trkpt>
      <trkpt lat="43.42808" lon="-0.68542">
        <ele>127</ele>
        <time>2022-08-23T08:06:59Z</time>
      </trkpt>
      <trkpt lat="43.42781" lon="-0.68505">
        <ele>127</ele>
        <time>2022-08-23T08:07:31Z</time>
      </trkpt>
      <trkpt lat="43.42749" lon="-0.68475">
        <ele>128</ele>
        <time>2022-08-23T08:08:02Z</time>
      </trkpt>
      <trkpt lat="43.4274" lon="-0.68469">
        <ele>128</ele>
        <time>2022-08-23T08:08:11Z</time>
      </trkpt>
      <trkpt lat="43.42712" lon="-0.68434">
        <ele>128</ele>
        <time>2022-08-23T08:08:44Z</time>
      </trkpt>
      <trkpt lat="43.42685" lon="-0.68394">
        <ele>128</ele>
        <time>2022-08-23T08:09:14Z</time>
      </trkpt>
      <trkpt lat="43.42656" lon="-0.68359">
        <ele>128</ele>
        <time>2022-08-23T08:09:43Z</time>
      </trkpt>
      <trkpt lat="43.42625" lon="-0.68328">
        <ele>128</ele>
        <time>2022-08-23T08:10:14Z</time>
      </trkpt>
      <trkpt lat="43.42618" lon="-0.68322">
        <ele>128</ele>
        <time>2022-08-23T08:10:21Z</time>
      </trkpt>
      <trkpt lat="43.4259" lon="-0.68285">
        <ele>128</ele>
        <time>2022-08-23T08:10:52Z</time>
      </trkpt>
      <trkpt lat="43.42562" lon="-0.68246">
        <ele>128</ele>
        <time>2022-08-23T08:11:24Z</time>
      </trkpt>
      <trkpt lat="43.42533" lon="-0.68208">
        <ele>128</ele>
        <time>2022-08-23T08:11:58Z</time>
      </trkpt>
      <trkpt lat="43.42505" lon="-0.68174">
        <ele>128</ele>
        <time>2022-08-23T08:12:28Z</time>
      </trkpt>
      <trkpt lat="43.42477" lon="-0.6816">
        <ele>128</ele>
        <time>2022-08-23T08:12:53Z</time>
      </trkpt>
      <trkpt lat="43.42447" lon="-0.68127">
        <ele>127</ele>
        <time>2022-08-23T08:13:23Z</time>
      </trkpt>
      <trkpt lat="43.42417" lon="-0.68095">
        <ele>127</ele>
        <time>2022-08-23T08:13:54Z</time>
      </trkpt>
      <trkpt lat="43.42385" lon="-0.68065">
        <ele>127</ele>
        <time>2022-08-23T08:14:24Z</time>
      </trkpt>
      <trkpt lat="43.4235" lon="-0.68043">
        <ele>126</ele>
        <time>2022-08-23T08:14:57Z</time>
      </trkpt>
      <trkpt lat="43.42325" lon="-0.68025">
        <ele>126</ele>
        <time>2022-08-23T08:15:20Z</time>
      </trkpt>
      <trkpt lat="43.42297" lon="-0.68013">
        <ele>126</ele>
        <time>2022-08-23T08:15:43Z</time>
      </trkpt>
      <trkpt lat="43.42262" lon="-0.67991">
        <ele>127</ele>
        <time>2022-08-23T08:16:14Z</time>
      </trkpt>
      <trkpt lat="43.42245" lon="-0.67978">
        <ele>127</ele>
        <time>2022-08-23T08:16:28Z</time>
      </trkpt>
      <trkpt lat="43.42215" lon="-0.67975">
        <ele>127</ele>
        <time>2022-08-23T08:16:52Z</time>
      </trkpt>
      <trkpt lat="43.4218" lon="-0.6795">
        <ele>127</ele>
        <time>2022-08-23T08:17:22Z</time>
      </trkpt>
      <trkpt lat="43.42149" lon="-0.67922">
        <ele>127</ele>
        <time>2022-08-23T08:17:53Z</time>
      </trkpt>
      <trkpt lat="43.42114" lon="-0.67878">
        <ele>126</ele>
        <time>2022-08-23T08:18:31Z</time>
      </trkpt>
      <trkpt lat="43.42098" lon="-0.67864">
        <ele>126</ele>
        <time>2022-08-23T08:18:48Z</time>
      </trkpt>
      <trkpt lat="43.42069" lon="-0.67857">
        <ele>126</ele>
        <time>2022-08-23T08:19:13Z</time>
      </trkpt>
      <trkpt lat="43.42051" lon="-0.67848">
        <ele>126</ele>
        <time>2022-08-23T08:19:27Z</time>
      </trkpt>
      <trkpt lat="43.42016" lon="-0.67825">
        <ele>127</ele>
        <time>2022-08-23T08:20:01Z</time>
      </trkpt>
      <trkpt lat="43.41973" lon="-0.67796">
        <ele>129</ele>
        <time>2022-08-23T08:20:39Z</time>
      </trkpt>
      <trkpt lat="43.41949" lon="-0.67774">
        <ele>131</ele>
        <time>2022-08-23T08:21:01Z</time>
      </trkpt>
      <trkpt lat="43.41911" lon="-0.67766">
        <ele>132</ele>
        <time>2022-08-23T08:21:32Z</time>
      </trkpt>
      <trkpt lat="43.41872" lon="-0.67775">
        <ele>134</ele>
        <time>2022-08-23T08:22:06Z</time>
      </trkpt>
      <trkpt lat="43.41847" lon="-0.67791">
        <ele>137</ele>
        <time>2022-08-23T08:22:32Z</time>
      </trkpt>
      <trkpt lat="43.41837" lon="-0.67788">
        <ele>139</ele>
        <time>2022-08-23T08:22:41Z</time>
      </trkpt>
      <trkpt lat="43.4183" lon="-0.67781">
        <ele>140</ele>
        <time>2022-08-23T08:22:56Z</time>
      </trkpt>
      <trkpt lat="43.4182" lon="-0.67777">
        <ele>141</ele>
        <time>2022-08-23T08:23:05Z</time>
      </trkpt>
      <trkpt lat="43.41793" lon="-0.67789">
        <ele>145</ele>
        <time>2022-08-23T08:23:29Z</time>
      </trkpt>
      <trkpt lat="43.41785" lon="-0.67797">
        <ele>146</ele>
        <time>2022-08-23T08:23:36Z</time>
      </trkpt>
      <trkpt lat="43.41758" lon="-0.67812">
        <ele>149</ele>
        <time>2022-08-23T08:24:09Z</time>
      </trkpt>
      <trkpt lat="43.41739" lon="-0.67817">
        <ele>152</ele>
        <time>2022-08-23T08:24:24Z</time>
      </trkpt>
      <trkpt lat="43.41704" lon="-0.67839">
        <ele>156</ele>
        <time>2022-08-23T08:24:54Z</time>
      </trkpt>
      <trkpt lat="43.41666" lon="-0.67834">
        <ele>160</ele>
        <time>2022-08-23T08:25:33Z</time>
      </trkpt>
      <trkpt lat="43.41638" lon="-0.67825">
        <ele>163</ele>
        <time>2022-08-23T08:26:05Z</time>
      </trkpt>
      <trkpt lat="43.41608" lon="-0.67821">
        <ele>166</ele>
        <time>2022-08-23T08:26:29Z</time>
      </trkpt>
      <trkpt lat="43.41571" lon="-0.67801">
        <ele>170</ele>
        <time>2022-08-23T08:27:00Z</time>
      </trkpt>
      <trkpt lat="43.41563" lon="-0.67796">
        <ele>171</ele>
        <time>2022-08-23T08:27:07Z</time>
      </trkpt>
      <trkpt lat="43.41541" lon="-0.67767">
        <ele>174</ele>
        <time>2022-08-23T08:27:47Z</time>
      </trkpt>
      <trkpt lat="43.41529" lon="-0.67745">
        <ele>177</ele>
        <time>2022-08-23T08:28:06Z</time>
      </trkpt>
      <trkpt lat="43.41506" lon="-0.67719">
        <ele>182</ele>
        <time>2022-08-23T08:28:39Z</time>
      </trkpt>
      <trkpt lat="43.4149" lon="-0.67704">
        <ele>185</ele>
        <time>2022-08-23T08:28:56Z</time>
      </trkpt>
      <trkpt lat="43.41466" lon="-0.67669">
        <ele>190</ele>
        <time>2022-08-23T08:30:13Z</time>
      </trkpt>
      <trkpt lat="43.41425" lon="-0.6763">
        <ele>198</ele>
        <time>2022-08-23T08:31:45Z</time>
      </trkpt>
      <trkpt lat="43.41398" lon="-0.67618">
        <ele>203</ele>
        <time>2022-08-23T08:32:07Z</time>
      </trkpt>
      <trkpt lat="43.4139" lon="-0.6761">
        <ele>204</ele>
        <time>2022-08-23T08:32:17Z</time>
      </trkpt>
      <trkpt lat="43.41392" lon="-0.67598">
        <ele>205</ele>
        <time>2022-08-23T08:32:32Z</time>
      </trkpt>
      <trkpt lat="43.41398" lon="-0.67588">
        <ele>205</ele>
        <time>2022-08-23T08:32:44Z</time>
      </trkpt>
      <trkpt lat="43.41407" lon="-0.67583">
        <ele>206</ele>
        <time>2022-08-23T08:32:59Z</time>
      </trkpt>
      <trkpt lat="43.41417" lon="-0.67582">
        <ele>207</ele>
        <time>2022-08-23T08:33:06Z</time>
      </trkpt>
      <trkpt lat="43.41435" lon="-0.67589">
        <ele>208</ele>
        <time>2022-08-23T08:33:19Z</time>
      </trkpt>
      <trkpt lat="43.41458" lon="-0.67613">
        <ele>210</ele>
        <time>2022-08-23T08:33:50Z</time>
      </trkpt>
      <trkpt lat="43.41478" lon="-0.67619">
        <ele>212</ele>
        <time>2022-08-23T08:34:03Z</time>
      </trkpt>
      <trkpt lat="43.41488" lon="-0.6762">
        <ele>213</ele>
        <time>2022-08-23T08:34:09Z</time>
      </trkpt>
      <trkpt lat="43.41518" lon="-0.67605">
        <ele>215</ele>
        <time>2022-08-23T08:35:25Z</time>
      </trkpt>
      <trkpt lat="43.41537" lon="-0.67602">
        <ele>217</ele>
        <time>2022-08-23T08:35:44Z</time>
      </trkpt>
      <trkpt lat="43.41546" lon="-0.67604">
        <ele>217</ele>
        <time>2022-08-23T08:35:52Z</time>
      </trkpt>
      <trkpt lat="43.41552" lon="-0.67614">
        <ele>217</ele>
        <time>2022-08-23T08:36:00Z</time>
      </trkpt>
      <trkpt lat="43.41587" lon="-0.67638">
        <ele>216</ele>
        <time>2022-08-23T08:36:24Z</time>
      </trkpt>
      <trkpt lat="43.41614" lon="-0.6765">
        <ele>215</ele>
        <time>2022-08-23T08:36:58Z</time>
      </trkpt>
      <trkpt lat="43.41604" lon="-0.6764">
        <ele>215</ele>
        <time>2022-08-23T08:37:50Z</time>
      </trkpt>
      <trkpt lat="43.41594" lon="-0.67632">
        <ele>215</ele>
        <time>2022-08-23T08:37:55Z</time>
      </trkpt>
      <trkpt lat="43.41565" lon="-0.6762">
        <ele>215</ele>
        <time>2022-08-23T08:38:13Z</time>
      </trkpt>
      <trkpt lat="43.41546" lon="-0.6762">
        <ele>214</ele>
        <time>2022-08-23T08:38:27Z</time>
      </trkpt>
      <trkpt lat="43.41526" lon="-0.67626">
        <ele>214</ele>
        <time>2022-08-23T08:38:39Z</time>
      </trkpt>
      <trkpt lat="43.41517" lon="-0.67624">
        <ele>214</ele>
        <time>2022-08-23T08:38:59Z</time>
      </trkpt>
      <trkpt lat="43.41503" lon="-0.6761">
        <ele>214</ele>
        <time>2022-08-23T08:39:42Z</time>
      </trkpt>
      <trkpt lat="43.41471" lon="-0.67603">
        <ele>215</ele>
        <time>2022-08-23T08:40:12Z</time>
      </trkpt>
      <trkpt lat="43.41413" lon="-0.67596">
        <ele>215</ele>
        <time>2022-08-23T08:40:45Z</time>
      </trkpt>
      <trkpt lat="43.41395" lon="-0.67597">
        <ele>216</ele>
        <time>2022-08-23T08:40:58Z</time>
      </trkpt>
      <trkpt lat="43.41381" lon="-0.67614">
        <ele>216</ele>
        <time>2022-08-23T08:41:13Z</time>
      </trkpt>
      <trkpt lat="43.41363" lon="-0.67621">
        <ele>216</ele>
        <time>2022-08-23T08:41:43Z</time>
      </trkpt>
      <trkpt lat="43.41328" lon="-0.67644">
        <ele>217</ele>
        <time>2022-08-23T08:42:16Z</time>
      </trkpt>
      <trkpt lat="43.41309" lon="-0.67652">
        <ele>217</ele>
        <time>2022-08-23T08:42:29Z</time>
      </trkpt>
      <trkpt lat="43.4128" lon="-0.67657">
        <ele>217</ele>
        <time>2022-08-23T08:42:49Z</time>
      </trkpt>
      <trkpt lat="43.41243" lon="-0.67671">
        <ele>218</ele>
        <time>2022-08-23T08:43:19Z</time>
      </trkpt>
      <trkpt lat="43.41215" lon="-0.67682">
        <ele>218</ele>
        <time>2022-08-23T08:43:42Z</time>
      </trkpt>
      <trkpt lat="43.41182" lon="-0.67711">
        <ele>219</ele>
        <time>2022-08-23T08:44:17Z</time>
      </trkpt>
      <trkpt lat="43.41159" lon="-0.67733">
        <ele>219</ele>
        <time>2022-08-23T08:44:44Z</time>
      </trkpt>
      <trkpt lat="43.41151" lon="-0.67724">
        <ele>219</ele>
        <time>2022-08-23T08:44:56Z</time>
      </trkpt>
      <trkpt lat="43.41135" lon="-0.67675">
        <ele>219</ele>
        <time>2022-08-23T08:45:26Z</time>
      </trkpt>
      <trkpt lat="43.4112" lon="-0.67628">
        <ele>219</ele>
        <time>2022-08-23T08:45:58Z</time>
      </trkpt>
      <trkpt lat="43.41114" lon="-0.67618">
        <ele>219</ele>
        <time>2022-08-23T08:46:05Z</time>
      </trkpt>
      <trkpt lat="43.41086" lon="-0.67608">
        <ele>219</ele>
        <time>2022-08-23T08:46:27Z</time>
      </trkpt>
      <trkpt lat="43.41067" lon="-0.67608">
        <ele>219</ele>
        <time>2022-08-23T08:46:41Z</time>
      </trkpt>
      <trkpt lat="43.41039" lon="-0.67602">
        <ele>217</ele>
        <time>2022-08-23T08:47:03Z</time>
      </trkpt>
      <trkpt lat="43.41031" lon="-0.67595">
        <ele>216</ele>
        <time>2022-08-23T08:47:11Z</time>
      </trkpt>
      <trkpt lat="43.41012" lon="-0.67591">
        <ele>215</ele>
        <time>2022-08-23T08:47:27Z</time>
      </trkpt>
      <trkpt lat="43.40985" lon="-0.67575">
        <ele>212</ele>
        <time>2022-08-23T08:47:47Z</time>
      </trkpt>
      <trkpt lat="43.40965" lon="-0.6757">
        <ele>211</ele>
        <time>2022-08-23T08:48:03Z</time>
      </trkpt>
      <trkpt lat="43.4094" lon="-0.67554">
        <ele>208</ele>
        <time>2022-08-23T08:48:23Z</time>
      </trkpt>
      <trkpt lat="43.40931" lon="-0.67553">
        <ele>207</ele>
        <time>2022-08-23T08:48:31Z</time>
      </trkpt>
      <trkpt lat="43.40914" lon="-0.67563">
        <ele>206</ele>
        <time>2022-08-23T08:48:44Z</time>
      </trkpt>
      <trkpt lat="43.4088" lon="-0.67595">
        <ele>202</ele>
        <time>2022-08-23T08:49:14Z</time>
      </trkpt>
      <trkpt lat="43.40864" lon="-0.67609">
        <ele>200</ele>
        <time>2022-08-23T08:49:28Z</time>
      </trkpt>
      <trkpt lat="43.40827" lon="-0.67625">
        <ele>196</ele>
        <time>2022-08-23T08:49:59Z</time>
      </trkpt>
      <trkpt lat="43.4079" lon="-0.67644">
        <ele>192</ele>
        <time>2022-08-23T08:50:30Z</time>
      </trkpt>
      <trkpt lat="43.40754" lon="-0.6766">
        <ele>188</ele>
        <time>2022-08-23T08:51:03Z</time>
      </trkpt>
      <trkpt lat="43.40735" lon="-0.67666">
        <ele>186</ele>
        <time>2022-08-23T08:51:18Z</time>
      </trkpt>
      <trkpt lat="43.40727" lon="-0.67673">
        <ele>185</ele>
        <time>2022-08-23T08:51:26Z</time>
      </trkpt>
      <trkpt lat="43.40711" lon="-0.67706">
        <ele>181</ele>
        <time>2022-08-23T08:51:51Z</time>
      </trkpt>
      <trkpt lat="43.40697" lon="-0.67742">
        <ele>177</ele>
        <time>2022-08-23T08:52:22Z</time>
      </trkpt>
      <trkpt lat="43.40679" lon="-0.67789">
        <ele>172</ele>
        <time>2022-08-23T08:52:53Z</time>
      </trkpt>
      <trkpt lat="43.40655" lon="-0.67832">
        <ele>167</ele>
        <time>2022-08-23T08:53:26Z</time>
      </trkpt>
      <trkpt lat="43.40635" lon="-0.67863">
        <ele>163</ele>
        <time>2022-08-23T08:53:48Z</time>
      </trkpt>
      <trkpt lat="43.40626" lon="-0.67871">
        <ele>162</ele>
        <time>2022-08-23T08:53:57Z</time>
      </trkpt>
      <trkpt lat="43.40617" lon="-0.67868">
        <ele>161</ele>
        <time>2022-08-23T08:54:10Z</time>
      </trkpt>
      <trkpt lat="43.40602" lon="-0.67854">
        <ele>160</ele>
        <time>2022-08-23T08:54:26Z</time>
      </trkpt>
      <trkpt lat="43.40573" lon="-0.67818">
        <ele>157</ele>
        <time>2022-08-23T08:54:57Z</time>
      </trkpt>
      <trkpt lat="43.40549" lon="-0.67794">
        <ele>155</ele>
        <time>2022-08-23T08:55:20Z</time>
      </trkpt>
      <trkpt lat="43.4054" lon="-0.6779">
        <ele>155</ele>
        <time>2022-08-23T08:55:28Z</time>
      </trkpt>
      <trkpt lat="43.4053" lon="-0.6779">
        <ele>154</ele>
        <time>2022-08-23T08:55:35Z</time>
      </trkpt>
      <trkpt lat="43.40486" lon="-0.67817">
        <ele>151</ele>
        <time>2022-08-23T08:56:10Z</time>
      </trkpt>
      <trkpt lat="43.40459" lon="-0.67832">
        <ele>149</ele>
        <time>2022-08-23T08:56:44Z</time>
      </trkpt>
      <trkpt lat="43.40424" lon="-0.67852">
        <ele>148</ele>
        <time>2022-08-23T08:57:15Z</time>
      </trkpt>
      <trkpt lat="43.4037" lon="-0.67872">
        <ele>146</ele>
        <time>2022-08-23T08:58:38Z</time>
      </trkpt>
      <trkpt lat="43.4035" lon="-0.67873">
        <ele>145</ele>
        <time>2022-08-23T08:58:51Z</time>
      </trkpt>
      <trkpt lat="43.40332" lon="-0.67867">
        <ele>145</ele>
        <time>2022-08-23T08:59:09Z</time>
      </trkpt>
      <trkpt lat="43.40301" lon="-0.67871">
        <ele>143</ele>
        <time>2022-08-23T08:59:32Z</time>
      </trkpt>
      <trkpt lat="43.40284" lon="-0.67882">
        <ele>144</ele>
        <time>2022-08-23T08:59:45Z</time>
      </trkpt>
      <trkpt lat="43.40276" lon="-0.6789">
        <ele>144</ele>
        <time>2022-08-23T08:59:52Z</time>
      </trkpt>
      <trkpt lat="43.4024" lon="-0.67906">
        <ele>145</ele>
        <time>2022-08-23T09:00:22Z</time>
      </trkpt>
      <trkpt lat="43.40197" lon="-0.67932">
        <ele>145</ele>
        <time>2022-08-23T09:00:57Z</time>
      </trkpt>
      <trkpt lat="43.40178" lon="-0.67941">
        <ele>146</ele>
        <time>2022-08-23T09:01:13Z</time>
      </trkpt>
      <trkpt lat="43.40134" lon="-0.67967">
        <ele>146</ele>
        <time>2022-08-23T09:01:49Z</time>
      </trkpt>
      <trkpt lat="43.40109" lon="-0.67986">
        <ele>147</ele>
        <time>2022-08-23T09:02:11Z</time>
      </trkpt>
      <trkpt lat="43.40078" lon="-0.68018">
        <ele>148</ele>
        <time>2022-08-23T09:02:41Z</time>
      </trkpt>
      <trkpt lat="43.40046" lon="-0.6805">
        <ele>148</ele>
        <time>2022-08-23T09:03:13Z</time>
      </trkpt>
      <trkpt lat="43.40018" lon="-0.68084">
        <ele>149</ele>
        <time>2022-08-23T09:03:45Z</time>
      </trkpt>
      <trkpt lat="43.39986" lon="-0.68115">
        <ele>149</ele>
        <time>2022-08-23T09:04:15Z</time>
      </trkpt>
      <trkpt lat="43.39955" lon="-0.68151">
        <ele>151</ele>
        <time>2022-08-23T09:04:47Z</time>
      </trkpt>
      <trkpt lat="43.39934" lon="-0.68175">
        <ele>152</ele>
        <time>2022-08-23T09:05:13Z</time>
      </trkpt>
      <trkpt lat="43.39905" lon="-0.68187">
        <ele>153</ele>
        <time>2022-08-23T09:05:36Z</time>
      </trkpt>
      <trkpt lat="43.39899" lon="-0.68198">
        <ele>154</ele>
        <time>2022-08-23T09:05:46Z</time>
      </trkpt>
      <trkpt lat="43.39895" lon="-0.6821">
        <ele>154</ele>
        <time>2022-08-23T09:05:55Z</time>
      </trkpt>
      <trkpt lat="43.39864" lon="-0.68262">
        <ele>156</ele>
        <time>2022-08-23T09:06:45Z</time>
      </trkpt>
      <trkpt lat="43.39837" lon="-0.68294">
        <ele>156</ele>
        <time>2022-08-23T09:07:26Z</time>
      </trkpt>
      <trkpt lat="43.39794" lon="-0.68343">
        <ele>156</ele>
        <time>2022-08-23T09:08:18Z</time>
      </trkpt>
      <trkpt lat="43.39767" lon="-0.68379">
        <ele>156</ele>
        <time>2022-08-23T09:09:04Z</time>
      </trkpt>
      <trkpt lat="43.39747" lon="-0.68412">
        <ele>156</ele>
        <time>2022-08-23T09:09:39Z</time>
      </trkpt>
      <trkpt lat="43.39724" lon="-0.68438">
        <ele>156</ele>
        <time>2022-08-23T09:09:52Z</time>
      </trkpt>
      <trkpt lat="43.3969" lon="-0.68463">
        <ele>157</ele>
        <time>2022-08-23T09:10:18Z</time>
      </trkpt>
      <trkpt lat="43.39677" lon="-0.68488">
        <ele>157</ele>
        <time>2022-08-23T09:10:50Z</time>
      </trkpt>
      <trkpt lat="43.39671" lon="-0.68498">
        <ele>157</ele>
        <time>2022-08-23T09:10:59Z</time>
      </trkpt>
      <trkpt lat="43.39663" lon="-0.68506">
        <ele>157</ele>
        <time>2022-08-23T09:11:10Z</time>
      </trkpt>
      <trkpt lat="43.39636" lon="-0.68519">
        <ele>157</ele>
        <time>2022-08-23T09:11:38Z</time>
      </trkpt>
      <trkpt lat="43.39626" lon="-0.68519">
        <ele>157</ele>
        <time>2022-08-23T09:11:58Z</time>
      </trkpt>
      <trkpt lat="43.39608" lon="-0.68508">
        <ele>157</ele>
        <time>2022-08-23T09:12:20Z</time>
      </trkpt>
      <trkpt lat="43.39568" lon="-0.68507">
        <ele>158</ele>
        <time>2022-08-23T09:12:45Z</time>
      </trkpt>
      <trkpt lat="43.3955" lon="-0.68512">
        <ele>159</ele>
        <time>2022-08-23T09:13:02Z</time>
      </trkpt>
      <trkpt lat="43.39542" lon="-0.6852">
        <ele>160</ele>
        <time>2022-08-23T09:13:10Z</time>
      </trkpt>
      <trkpt lat="43.39533" lon="-0.68522">
        <ele>161</ele>
        <time>2022-08-23T09:13:18Z</time>
      </trkpt>
      <trkpt lat="43.3952" lon="-0.68503">
        <ele>162</ele>
        <time>2022-08-23T09:13:35Z</time>
      </trkpt>
      <trkpt lat="43.39516" lon="-0.68491">
        <ele>163</ele>
        <time>2022-08-23T09:13:44Z</time>
      </trkpt>
      <trkpt lat="43.39499" lon="-0.68466">
        <ele>165</ele>
        <time>2022-08-23T09:14:44Z</time>
      </trkpt>
      <trkpt lat="43.39456" lon="-0.68432">
        <ele>169</ele>
        <time>2022-08-23T09:15:15Z</time>
      </trkpt>
      <trkpt lat="43.39446" lon="-0.68428">
        <ele>170</ele>
        <time>2022-08-23T09:15:22Z</time>
      </trkpt>
      <trkpt lat="43.39418" lon="-0.68428">
        <ele>172</ele>
        <time>2022-08-23T09:15:46Z</time>
      </trkpt>
      <trkpt lat="43.39409" lon="-0.68432">
        <ele>172</ele>
        <time>2022-08-23T09:15:54Z</time>
      </trkpt>
      <trkpt lat="43.39397" lon="-0.68452">
        <ele>173</ele>
        <time>2022-08-23T09:16:10Z</time>
      </trkpt>
      <trkpt lat="43.39396" lon="-0.68465">
        <ele>173</ele>
        <time>2022-08-23T09:16:27Z</time>
      </trkpt>
      <trkpt lat="43.39414" lon="-0.68474">
        <ele>173</ele>
        <time>2022-08-23T09:31:29Z</time>
      </trkpt>
      <trkpt lat="43.39437" lon="-0.68497">
        <ele>174</ele>
        <time>2022-08-23T09:31:52Z</time>
      </trkpt>
      <trkpt lat="43.39443" lon="-0.68508">
        <ele>174</ele>
        <time>2022-08-23T09:32:01Z</time>
      </trkpt>
      <trkpt lat="43.39447" lon="-0.6852">
        <ele>174</ele>
        <time>2022-08-23T09:32:09Z</time>
      </trkpt>
      <trkpt lat="43.39449" lon="-0.68533">
        <ele>174</ele>
        <time>2022-08-23T09:32:17Z</time>
      </trkpt>
      <trkpt lat="43.39445" lon="-0.68559">
        <ele>175</ele>
        <time>2022-08-23T09:32:32Z</time>
      </trkpt>
      <trkpt lat="43.39426" lon="-0.68604">
        <ele>176</ele>
        <time>2022-08-23T09:33:04Z</time>
      </trkpt>
      <trkpt lat="43.39421" lon="-0.68615">
        <ele>176</ele>
        <time>2022-08-23T09:33:12Z</time>
      </trkpt>
      <trkpt lat="43.39391" lon="-0.68649">
        <ele>179</ele>
        <time>2022-08-23T09:33:42Z</time>
      </trkpt>
      <trkpt lat="43.39386" lon="-0.6866">
        <ele>180</ele>
        <time>2022-08-23T09:33:51Z</time>
      </trkpt>
      <trkpt lat="43.39384" lon="-0.68687">
        <ele>181</ele>
        <time>2022-08-23T09:34:06Z</time>
      </trkpt>
      <trkpt lat="43.39387" lon="-0.68712">
        <ele>182</ele>
        <time>2022-08-23T09:34:23Z</time>
      </trkpt>
      <trkpt lat="43.39389" lon="-0.68752">
        <ele>185</ele>
        <time>2022-08-23T09:34:48Z</time>
      </trkpt>
      <trkpt lat="43.39394" lon="-0.68804">
        <ele>188</ele>
        <time>2022-08-23T09:35:21Z</time>
      </trkpt>
      <trkpt lat="43.39395" lon="-0.68855">
        <ele>191</ele>
        <time>2022-08-23T09:35:53Z</time>
      </trkpt>
      <trkpt lat="43.39398" lon="-0.68868">
        <ele>192</ele>
        <time>2022-08-23T09:36:03Z</time>
      </trkpt>
      <trkpt lat="43.39403" lon="-0.68919">
        <ele>195</ele>
        <time>2022-08-23T09:36:40Z</time>
      </trkpt>
      <trkpt lat="43.39409" lon="-0.68945">
        <ele>197</ele>
        <time>2022-08-23T09:36:58Z</time>
      </trkpt>
      <trkpt lat="43.39414" lon="-0.68957">
        <ele>198</ele>
        <time>2022-08-23T09:37:07Z</time>
      </trkpt>
      <trkpt lat="43.39421" lon="-0.68966">
        <ele>199</ele>
        <time>2022-08-23T09:37:14Z</time>
      </trkpt>
      <trkpt lat="43.39438" lon="-0.69014">
        <ele>203</ele>
        <time>2022-08-23T09:37:47Z</time>
      </trkpt>
      <trkpt lat="43.39443" lon="-0.69038">
        <ele>205</ele>
        <time>2022-08-23T09:38:04Z</time>
      </trkpt>
      <trkpt lat="43.39438" lon="-0.69064">
        <ele>207</ele>
        <time>2022-08-23T09:38:21Z</time>
      </trkpt>
      <trkpt lat="43.39434" lon="-0.69076">
        <ele>208</ele>
        <time>2022-08-23T09:38:30Z</time>
      </trkpt>
      <trkpt lat="43.3943" lon="-0.69101">
        <ele>210</ele>
        <time>2022-08-23T09:38:48Z</time>
      </trkpt>
      <trkpt lat="43.39431" lon="-0.69115">
        <ele>211</ele>
        <time>2022-08-23T09:38:57Z</time>
      </trkpt>
      <trkpt lat="43.39435" lon="-0.69127">
        <ele>212</ele>
        <time>2022-08-23T09:39:07Z</time>
      </trkpt>
      <trkpt lat="43.39441" lon="-0.69138">
        <ele>213</ele>
        <time>2022-08-23T09:39:16Z</time>
      </trkpt>
      <trkpt lat="43.39442" lon="-0.69151">
        <ele>214</ele>
        <time>2022-08-23T09:39:25Z</time>
      </trkpt>
      <trkpt lat="43.39443" lon="-0.69183">
        <ele>216</ele>
        <time>2022-08-23T09:39:58Z</time>
      </trkpt>
      <trkpt lat="43.3945" lon="-0.69238">
        <ele>220</ele>
        <time>2022-08-23T09:40:34Z</time>
      </trkpt>
      <trkpt lat="43.39448" lon="-0.69252">
        <ele>221</ele>
        <time>2022-08-23T09:40:42Z</time>
      </trkpt>
      <trkpt lat="43.39427" lon="-0.69297">
        <ele>225</ele>
        <time>2022-08-23T09:41:13Z</time>
      </trkpt>
      <trkpt lat="43.3941" lon="-0.69343">
        <ele>228</ele>
        <time>2022-08-23T09:41:49Z</time>
      </trkpt>
      <trkpt lat="43.39401" lon="-0.69366">
        <ele>230</ele>
        <time>2022-08-23T09:42:17Z</time>
      </trkpt>
      <trkpt lat="43.39396" lon="-0.69391">
        <ele>232</ele>
        <time>2022-08-23T09:42:38Z</time>
      </trkpt>
      <trkpt lat="43.39395" lon="-0.69403">
        <ele>233</ele>
        <time>2022-08-23T09:42:48Z</time>
      </trkpt>
      <trkpt lat="43.39397" lon="-0.69429">
        <ele>234</ele>
        <time>2022-08-23T09:43:20Z</time>
      </trkpt>
      <trkpt lat="43.394" lon="-0.69441">
        <ele>235</ele>
        <time>2022-08-23T09:43:28Z</time>
      </trkpt>
      <trkpt lat="43.39404" lon="-0.69453">
        <ele>236</ele>
        <time>2022-08-23T09:43:37Z</time>
      </trkpt>
      <trkpt lat="43.39416" lon="-0.69472">
        <ele>238</ele>
        <time>2022-08-23T09:43:55Z</time>
      </trkpt>
      <trkpt lat="43.39419" lon="-0.69485">
        <ele>239</ele>
        <time>2022-08-23T09:44:06Z</time>
      </trkpt>
      <trkpt lat="43.39403" lon="-0.69495">
        <ele>240</ele>
        <time>2022-08-23T09:44:26Z</time>
      </trkpt>
      <trkpt lat="43.394" lon="-0.69508">
        <ele>241</ele>
        <time>2022-08-23T09:44:34Z</time>
      </trkpt>
      <trkpt lat="43.39404" lon="-0.69548">
        <ele>239</ele>
        <time>2022-08-23T09:44:52Z</time>
      </trkpt>
      <trkpt lat="43.39402" lon="-0.69575">
        <ele>236</ele>
        <time>2022-08-23T09:45:08Z</time>
      </trkpt>
      <trkpt lat="43.394" lon="-0.69628">
        <ele>232</ele>
        <time>2022-08-23T09:45:38Z</time>
      </trkpt>
      <trkpt lat="43.394" lon="-0.69695">
        <ele>226</ele>
        <time>2022-08-23T09:46:10Z</time>
      </trkpt>
      <trkpt lat="43.39403" lon="-0.69722">
        <ele>224</ele>
        <time>2022-08-23T09:46:25Z</time>
      </trkpt>
      <trkpt lat="43.39395" lon="-0.6976">
        <ele>221</ele>
        <time>2022-08-23T09:46:46Z</time>
      </trkpt>
      <trkpt lat="43.39395" lon="-0.698">
        <ele>218</ele>
        <time>2022-08-23T09:47:07Z</time>
      </trkpt>
      <trkpt lat="43.39405" lon="-0.69864">
        <ele>212</ele>
        <time>2022-08-23T09:47:43Z</time>
      </trkpt>
      <trkpt lat="43.39415" lon="-0.69888">
        <ele>210</ele>
        <time>2022-08-23T09:47:58Z</time>
      </trkpt>
      <trkpt lat="43.39423" lon="-0.69927">
        <ele>207</ele>
        <time>2022-08-23T09:48:22Z</time>
      </trkpt>
      <trkpt lat="43.39443" lon="-0.69988">
        <ele>201</ele>
        <time>2022-08-23T09:48:57Z</time>
      </trkpt>
      <trkpt lat="43.39441" lon="-0.70014">
        <ele>200</ele>
        <time>2022-08-23T09:49:13Z</time>
      </trkpt>
      <trkpt lat="43.39436" lon="-0.70025">
        <ele>200</ele>
        <time>2022-08-23T09:49:21Z</time>
      </trkpt>
      <trkpt lat="43.39426" lon="-0.70031">
        <ele>199</ele>
        <time>2022-08-23T09:49:24Z</time>
      </trkpt>
      <trkpt lat="43.39415" lon="-0.70034">
        <ele>199</ele>
        <time>2022-08-23T09:49:26Z</time>
      </trkpt>
      <trkpt lat="43.39406" lon="-0.70039">
        <ele>198</ele>
        <time>2022-08-23T09:49:31Z</time>
      </trkpt>
      <trkpt lat="43.39401" lon="-0.70064">
        <ele>198</ele>
        <time>2022-08-23T09:49:45Z</time>
      </trkpt>
      <trkpt lat="43.39409" lon="-0.7012">
        <ele>196</ele>
        <time>2022-08-23T09:50:12Z</time>
      </trkpt>
      <trkpt lat="43.39413" lon="-0.70131">
        <ele>195</ele>
        <time>2022-08-23T09:50:19Z</time>
      </trkpt>
      <trkpt lat="43.39425" lon="-0.70151">
        <ele>195</ele>
        <time>2022-08-23T09:50:33Z</time>
      </trkpt>
      <trkpt lat="43.39438" lon="-0.70199">
        <ele>193</ele>
        <time>2022-08-23T09:51:06Z</time>
      </trkpt>
      <trkpt lat="43.39456" lon="-0.7026">
        <ele>187</ele>
        <time>2022-08-23T09:51:42Z</time>
      </trkpt>
      <trkpt lat="43.39459" lon="-0.70272">
        <ele>186</ele>
        <time>2022-08-23T09:51:51Z</time>
      </trkpt>
      <trkpt lat="43.39466" lon="-0.70283">
        <ele>185</ele>
        <time>2022-08-23T09:51:58Z</time>
      </trkpt>
      <trkpt lat="43.39467" lon="-0.70296">
        <ele>184</ele>
        <time>2022-08-23T09:52:04Z</time>
      </trkpt>
      <trkpt lat="43.39466" lon="-0.70309">
        <ele>183</ele>
        <time>2022-08-23T09:52:10Z</time>
      </trkpt>
      <trkpt lat="43.39472" lon="-0.70335">
        <ele>181</ele>
        <time>2022-08-23T09:52:26Z</time>
      </trkpt>
      <trkpt lat="43.39493" lon="-0.70378">
        <ele>177</ele>
        <time>2022-08-23T09:52:55Z</time>
      </trkpt>
      <trkpt lat="43.395" lon="-0.70388">
        <ele>175</ele>
        <time>2022-08-23T09:53:04Z</time>
      </trkpt>
      <trkpt lat="43.39508" lon="-0.70396">
        <ele>174</ele>
        <time>2022-08-23T09:53:12Z</time>
      </trkpt>
      <trkpt lat="43.39518" lon="-0.70398">
        <ele>173</ele>
        <time>2022-08-23T09:53:19Z</time>
      </trkpt>
      <trkpt lat="43.39547" lon="-0.70433">
        <ele>170</ele>
        <time>2022-08-23T09:53:50Z</time>
      </trkpt>
      <trkpt lat="43.39554" lon="-0.70443">
        <ele>169</ele>
        <time>2022-08-23T09:54:03Z</time>
      </trkpt>
      <trkpt lat="43.39571" lon="-0.70452">
        <ele>167</ele>
        <time>2022-08-23T09:54:17Z</time>
      </trkpt>
      <trkpt lat="43.39579" lon="-0.70462">
        <ele>167</ele>
        <time>2022-08-23T09:54:22Z</time>
      </trkpt>
      <trkpt lat="43.39586" lon="-0.70474">
        <ele>166</ele>
        <time>2022-08-23T09:54:28Z</time>
      </trkpt>
      <trkpt lat="43.39599" lon="-0.7049">
        <ele>164</ele>
        <time>2022-08-23T09:54:44Z</time>
      </trkpt>
      <trkpt lat="43.39602" lon="-0.70502">
        <ele>163</ele>
        <time>2022-08-23T09:54:52Z</time>
      </trkpt>
      <trkpt lat="43.396" lon="-0.70514">
        <ele>163</ele>
        <time>2022-08-23T09:54:59Z</time>
      </trkpt>
      <trkpt lat="43.3959" lon="-0.70536">
        <ele>161</ele>
        <time>2022-08-23T09:55:12Z</time>
      </trkpt>
      <trkpt lat="43.39565" lon="-0.70576">
        <ele>158</ele>
        <time>2022-08-23T09:55:41Z</time>
      </trkpt>
      <trkpt lat="43.39555" lon="-0.70598">
        <ele>159</ele>
        <time>2022-08-23T09:55:57Z</time>
      </trkpt>
      <trkpt lat="43.39549" lon="-0.70607">
        <ele>160</ele>
        <time>2022-08-23T09:56:05Z</time>
      </trkpt>
      <trkpt lat="43.39537" lon="-0.70629">
        <ele>161</ele>
        <time>2022-08-23T09:56:33Z</time>
      </trkpt>
      <trkpt lat="43.39498" lon="-0.70781">
        <ele>169</ele>
        <time>2022-08-23T10:29:09Z</time>
      </trkpt>
      <trkpt lat="43.39489" lon="-0.70777">
        <ele>170</ele>
        <time>2022-08-23T10:29:15Z</time>
      </trkpt>
      <trkpt lat="43.3947" lon="-0.70782">
        <ele>170</ele>
        <time>2022-08-23T10:29:36Z</time>
      </trkpt>
      <trkpt lat="43.39431" lon="-0.70778">
        <ele>170</ele>
        <time>2022-08-23T10:30:11Z</time>
      </trkpt>
      <trkpt lat="43.39393" lon="-0.70771">
        <ele>169</ele>
        <time>2022-08-23T10:30:49Z</time>
      </trkpt>
      <trkpt lat="43.39384" lon="-0.70768">
        <ele>169</ele>
        <time>2022-08-23T10:30:58Z</time>
      </trkpt>
      <trkpt lat="43.39365" lon="-0.70768">
        <ele>169</ele>
        <time>2022-08-23T10:31:15Z</time>
      </trkpt>
      <trkpt lat="43.39327" lon="-0.70762">
        <ele>169</ele>
        <time>2022-08-23T10:31:46Z</time>
      </trkpt>
      <trkpt lat="43.3929" lon="-0.70756">
        <ele>169</ele>
        <time>2022-08-23T10:32:17Z</time>
      </trkpt>
      <trkpt lat="43.39252" lon="-0.70754">
        <ele>169</ele>
        <time>2022-08-23T10:32:48Z</time>
      </trkpt>
      <trkpt lat="43.39242" lon="-0.70755">
        <ele>169</ele>
        <time>2022-08-23T10:32:56Z</time>
      </trkpt>
      <trkpt lat="43.39233" lon="-0.70751">
        <ele>170</ele>
        <time>2022-08-23T10:33:03Z</time>
      </trkpt>
      <trkpt lat="43.39214" lon="-0.70753">
        <ele>170</ele>
        <time>2022-08-23T10:33:18Z</time>
      </trkpt>
      <trkpt lat="43.39177" lon="-0.70735">
        <ele>170</ele>
        <time>2022-08-23T10:33:55Z</time>
      </trkpt>
      <trkpt lat="43.39139" lon="-0.70725">
        <ele>171</ele>
        <time>2022-08-23T10:34:25Z</time>
      </trkpt>
      <trkpt lat="43.39101" lon="-0.70718">
        <ele>171</ele>
        <time>2022-08-23T10:35:01Z</time>
      </trkpt>
      <trkpt lat="43.39083" lon="-0.70716">
        <ele>172</ele>
        <time>2022-08-23T10:35:20Z</time>
      </trkpt>
      <trkpt lat="43.39054" lon="-0.70712">
        <ele>173</ele>
        <time>2022-08-23T10:35:45Z</time>
      </trkpt>
      <trkpt lat="43.39035" lon="-0.70711">
        <ele>173</ele>
        <time>2022-08-23T10:36:03Z</time>
      </trkpt>
      <trkpt lat="43.39" lon="-0.70692">
        <ele>174</ele>
        <time>2022-08-23T10:36:38Z</time>
      </trkpt>
      <trkpt lat="43.38966" lon="-0.70668">
        <ele>175</ele>
        <time>2022-08-23T10:37:09Z</time>
      </trkpt>
      <trkpt lat="43.38929" lon="-0.70648">
        <ele>176</ele>
        <time>2022-08-23T10:37:43Z</time>
      </trkpt>
      <trkpt lat="43.38911" lon="-0.70638">
        <ele>176</ele>
        <time>2022-08-23T10:38:00Z</time>
      </trkpt>
      <trkpt lat="43.38902" lon="-0.70631">
        <ele>176</ele>
        <time>2022-08-23T10:38:06Z</time>
      </trkpt>
      <trkpt lat="43.38883" lon="-0.70623">
        <ele>177</ele>
        <time>2022-08-23T10:38:26Z</time>
      </trkpt>
      <trkpt lat="43.38864" lon="-0.70624">
        <ele>177</ele>
        <time>2022-08-23T10:38:40Z</time>
      </trkpt>
      <trkpt lat="43.38824" lon="-0.70618">
        <ele>178</ele>
        <time>2022-08-23T10:39:16Z</time>
      </trkpt>
      <trkpt lat="43.38785" lon="-0.70609">
        <ele>179</ele>
        <time>2022-08-23T10:39:51Z</time>
      </trkpt>
      <trkpt lat="43.38747" lon="-0.70601">
        <ele>181</ele>
        <time>2022-08-23T10:40:25Z</time>
      </trkpt>
      <trkpt lat="43.38708" lon="-0.70599">
        <ele>183</ele>
        <time>2022-08-23T10:41:01Z</time>
      </trkpt>
      <trkpt lat="43.38699" lon="-0.70596">
        <ele>183</ele>
        <time>2022-08-23T10:41:17Z</time>
      </trkpt>
      <trkpt lat="43.38681" lon="-0.70603">
        <ele>184</ele>
        <time>2022-08-23T10:41:33Z</time>
      </trkpt>
      <trkpt lat="43.38671" lon="-0.70601">
        <ele>185</ele>
        <time>2022-08-23T10:41:42Z</time>
      </trkpt>
      <trkpt lat="43.38652" lon="-0.70602">
        <ele>186</ele>
        <time>2022-08-23T10:41:59Z</time>
      </trkpt>
      <trkpt lat="43.38643" lon="-0.70607">
        <ele>186</ele>
        <time>2022-08-23T10:42:06Z</time>
      </trkpt>
      <trkpt lat="43.38635" lon="-0.70614">
        <ele>187</ele>
        <time>2022-08-23T10:42:14Z</time>
      </trkpt>
      <trkpt lat="43.38611" lon="-0.70632">
        <ele>188</ele>
        <time>2022-08-23T10:42:40Z</time>
      </trkpt>
      <trkpt lat="43.38593" lon="-0.70642">
        <ele>187</ele>
        <time>2022-08-23T10:42:56Z</time>
      </trkpt>
      <trkpt lat="43.3856" lon="-0.70671">
        <ele>185</ele>
        <time>2022-08-23T10:43:27Z</time>
      </trkpt>
      <trkpt lat="43.38552" lon="-0.70677">
        <ele>184</ele>
        <time>2022-08-23T10:43:35Z</time>
      </trkpt>
      <trkpt lat="43.38532" lon="-0.70704">
        <ele>183</ele>
        <time>2022-08-23T10:44:06Z</time>
      </trkpt>
      <trkpt lat="43.38505" lon="-0.70718">
        <ele>182</ele>
        <time>2022-08-23T10:44:28Z</time>
      </trkpt>
      <trkpt lat="43.38487" lon="-0.70718">
        <ele>181</ele>
        <time>2022-08-23T10:44:44Z</time>
      </trkpt>
      <trkpt lat="43.38438" lon="-0.70731">
        <ele>178</ele>
        <time>2022-08-23T10:45:21Z</time>
      </trkpt>
      <trkpt lat="43.38419" lon="-0.70735">
        <ele>177</ele>
        <time>2022-08-23T10:45:35Z</time>
      </trkpt>
      <trkpt lat="43.38381" lon="-0.70749">
        <ele>175</ele>
        <time>2022-08-23T10:46:09Z</time>
      </trkpt>
      <trkpt lat="43.38362" lon="-0.70758">
        <ele>174</ele>
        <time>2022-08-23T10:46:25Z</time>
      </trkpt>
      <trkpt lat="43.38323" lon="-0.70766">
        <ele>172</ele>
        <time>2022-08-23T10:46:57Z</time>
      </trkpt>
      <trkpt lat="43.38294" lon="-0.70773">
        <ele>171</ele>
        <time>2022-08-23T10:47:24Z</time>
      </trkpt>
      <trkpt lat="43.38294" lon="-0.70785">
        <ele>170</ele>
        <time>2022-08-23T10:47:36Z</time>
      </trkpt>
      <trkpt lat="43.38292" lon="-0.70782">
        <ele>170</ele>
        <time>2022-08-23T11:15:38Z</time>
      </trkpt>
      <trkpt lat="43.38286" lon="-0.70772">
        <ele>171</ele>
        <time>2022-08-23T11:15:51Z</time>
      </trkpt>
      <trkpt lat="43.38276" lon="-0.70773">
        <ele>171</ele>
        <time>2022-08-23T11:16:00Z</time>
      </trkpt>
      <trkpt lat="43.38267" lon="-0.70778">
        <ele>172</ele>
        <time>2022-08-23T11:16:09Z</time>
      </trkpt>
      <trkpt lat="43.38248" lon="-0.70782">
        <ele>172</ele>
        <time>2022-08-23T11:16:28Z</time>
      </trkpt>
      <trkpt lat="43.38214" lon="-0.70802">
        <ele>174</ele>
        <time>2022-08-23T11:17:02Z</time>
      </trkpt>
      <trkpt lat="43.38184" lon="-0.70836">
        <ele>176</ele>
        <time>2022-08-23T11:17:40Z</time>
      </trkpt>
      <trkpt lat="43.38164" lon="-0.70864">
        <ele>177</ele>
        <time>2022-08-23T11:18:07Z</time>
      </trkpt>
      <trkpt lat="43.3815" lon="-0.70879">
        <ele>178</ele>
        <time>2022-08-23T11:18:25Z</time>
      </trkpt>
      <trkpt lat="43.38126" lon="-0.70923">
        <ele>181</ele>
        <time>2022-08-23T11:18:56Z</time>
      </trkpt>
      <trkpt lat="43.38091" lon="-0.70948">
        <ele>183</ele>
        <time>2022-08-23T11:19:31Z</time>
      </trkpt>
      <trkpt lat="43.38074" lon="-0.70956">
        <ele>184</ele>
        <time>2022-08-23T11:19:46Z</time>
      </trkpt>
      <trkpt lat="43.38045" lon="-0.70966">
        <ele>186</ele>
        <time>2022-08-23T11:20:08Z</time>
      </trkpt>
      <trkpt lat="43.3803" lon="-0.70981">
        <ele>187</ele>
        <time>2022-08-23T11:20:24Z</time>
      </trkpt>
      <trkpt lat="43.38023" lon="-0.70991">
        <ele>188</ele>
        <time>2022-08-23T11:20:32Z</time>
      </trkpt>
      <trkpt lat="43.38012" lon="-0.71028">
        <ele>190</ele>
        <time>2022-08-23T11:20:57Z</time>
      </trkpt>
      <trkpt lat="43.38013" lon="-0.71053">
        <ele>192</ele>
        <time>2022-08-23T11:21:15Z</time>
      </trkpt>
      <trkpt lat="43.38004" lon="-0.71105">
        <ele>197</ele>
        <time>2022-08-23T11:21:49Z</time>
      </trkpt>
      <trkpt lat="43.37994" lon="-0.71142">
        <ele>200</ele>
        <time>2022-08-23T11:22:20Z</time>
      </trkpt>
      <trkpt lat="43.37993" lon="-0.71155">
        <ele>201</ele>
        <time>2022-08-23T11:22:31Z</time>
      </trkpt>
      <trkpt lat="43.37986" lon="-0.71179">
        <ele>203</ele>
        <time>2022-08-23T11:22:55Z</time>
      </trkpt>
      <trkpt lat="43.37982" lon="-0.71215">
        <ele>206</ele>
        <time>2022-08-23T11:23:35Z</time>
      </trkpt>
      <trkpt lat="43.37971" lon="-0.71265">
        <ele>210</ele>
        <time>2022-08-23T11:24:06Z</time>
      </trkpt>
      <trkpt lat="43.3797" lon="-0.71291">
        <ele>211</ele>
        <time>2022-08-23T11:24:23Z</time>
      </trkpt>
      <trkpt lat="43.37972" lon="-0.71304">
        <ele>212</ele>
        <time>2022-08-23T11:24:30Z</time>
      </trkpt>
      <trkpt lat="43.37961" lon="-0.71328">
        <ele>213</ele>
        <time>2022-08-23T11:24:48Z</time>
      </trkpt>
      <trkpt lat="43.3793" lon="-0.71359">
        <ele>217</ele>
        <time>2022-08-23T11:25:23Z</time>
      </trkpt>
      <trkpt lat="43.37923" lon="-0.71367">
        <ele>217</ele>
        <time>2022-08-23T11:25:30Z</time>
      </trkpt>
      <trkpt lat="43.37914" lon="-0.71367">
        <ele>218</ele>
        <time>2022-08-23T11:25:37Z</time>
      </trkpt>
      <trkpt lat="43.37878" lon="-0.71382">
        <ele>221</ele>
        <time>2022-08-23T11:26:08Z</time>
      </trkpt>
      <trkpt lat="43.37841" lon="-0.71397">
        <ele>223</ele>
        <time>2022-08-23T11:26:40Z</time>
      </trkpt>
      <trkpt lat="43.37804" lon="-0.71408">
        <ele>224</ele>
        <time>2022-08-23T11:27:12Z</time>
      </trkpt>
      <trkpt lat="43.37757" lon="-0.71413">
        <ele>225</ele>
        <time>2022-08-23T11:27:48Z</time>
      </trkpt>
      <trkpt lat="43.37718" lon="-0.71412">
        <ele>226</ele>
        <time>2022-08-23T11:28:17Z</time>
      </trkpt>
      <trkpt lat="43.37681" lon="-0.71405">
        <ele>227</ele>
        <time>2022-08-23T11:28:49Z</time>
      </trkpt>
      <trkpt lat="43.37662" lon="-0.71402">
        <ele>228</ele>
        <time>2022-08-23T11:29:07Z</time>
      </trkpt>
      <trkpt lat="43.37643" lon="-0.71402">
        <ele>228</ele>
        <time>2022-08-23T11:29:37Z</time>
      </trkpt>
      <trkpt lat="43.37634" lon="-0.71405">
        <ele>228</ele>
        <time>2022-08-23T11:29:44Z</time>
      </trkpt>
      <trkpt lat="43.37624" lon="-0.71402">
        <ele>229</ele>
        <time>2022-08-23T11:29:53Z</time>
      </trkpt>
      <trkpt lat="43.37587" lon="-0.71403">
        <ele>230</ele>
        <time>2022-08-23T11:30:24Z</time>
      </trkpt>
      <trkpt lat="43.37547" lon="-0.71405">
        <ele>231</ele>
        <time>2022-08-23T11:30:55Z</time>
      </trkpt>
      <trkpt lat="43.3751" lon="-0.71417">
        <ele>233</ele>
        <time>2022-08-23T11:31:32Z</time>
      </trkpt>
      <trkpt lat="43.3749" lon="-0.71421">
        <ele>234</ele>
        <time>2022-08-23T11:31:48Z</time>
      </trkpt>
      <trkpt lat="43.37453" lon="-0.71408">
        <ele>237</ele>
        <time>2022-08-23T11:32:17Z</time>
      </trkpt>
      <trkpt lat="43.37443" lon="-0.71408">
        <ele>238</ele>
        <time>2022-08-23T11:32:26Z</time>
      </trkpt>
      <trkpt lat="43.37407" lon="-0.71426">
        <ele>241</ele>
        <time>2022-08-23T11:33:25Z</time>
      </trkpt>
      <trkpt lat="43.37373" lon="-0.71449">
        <ele>244</ele>
        <time>2022-08-23T11:33:58Z</time>
      </trkpt>
      <trkpt lat="43.37364" lon="-0.71452">
        <ele>245</ele>
        <time>2022-08-23T11:34:06Z</time>
      </trkpt>
      <trkpt lat="43.37331" lon="-0.71478">
        <ele>248</ele>
        <time>2022-08-23T11:34:39Z</time>
      </trkpt>
      <trkpt lat="43.37304" lon="-0.71515">
        <ele>251</ele>
        <time>2022-08-23T11:35:11Z</time>
      </trkpt>
      <trkpt lat="43.37297" lon="-0.71524">
        <ele>252</ele>
        <time>2022-08-23T11:35:18Z</time>
      </trkpt>
      <trkpt lat="43.37276" lon="-0.71568">
        <ele>255</ele>
        <time>2022-08-23T11:35:52Z</time>
      </trkpt>
      <trkpt lat="43.37259" lon="-0.71613">
        <ele>258</ele>
        <time>2022-08-23T11:36:25Z</time>
      </trkpt>
      <trkpt lat="43.3725" lon="-0.71649">
        <ele>260</ele>
        <time>2022-08-23T11:36:53Z</time>
      </trkpt>
      <trkpt lat="43.37237" lon="-0.71672">
        <ele>262</ele>
        <time>2022-08-23T11:37:09Z</time>
      </trkpt>
      <trkpt lat="43.37233" lon="-0.71684">
        <ele>263</ele>
        <time>2022-08-23T11:37:17Z</time>
      </trkpt>
      <trkpt lat="43.37231" lon="-0.71696">
        <ele>263</ele>
        <time>2022-08-23T11:37:25Z</time>
      </trkpt>
      <trkpt lat="43.37226" lon="-0.71706">
        <ele>264</ele>
        <time>2022-08-23T11:37:37Z</time>
      </trkpt>
      <trkpt lat="43.37223" lon="-0.71732">
        <ele>265</ele>
        <time>2022-08-23T11:37:54Z</time>
      </trkpt>
      <trkpt lat="43.37217" lon="-0.71758">
        <ele>267</ele>
        <time>2022-08-23T11:38:25Z</time>
      </trkpt>
      <trkpt lat="43.37216" lon="-0.7177">
        <ele>267</ele>
        <time>2022-08-23T11:38:35Z</time>
      </trkpt>
      <trkpt lat="43.37209" lon="-0.71808">
        <ele>269</ele>
        <time>2022-08-23T11:39:01Z</time>
      </trkpt>
      <trkpt lat="43.37204" lon="-0.71819">
        <ele>270</ele>
        <time>2022-08-23T11:39:09Z</time>
      </trkpt>
      <trkpt lat="43.37196" lon="-0.71826">
        <ele>271</ele>
        <time>2022-08-23T11:39:17Z</time>
      </trkpt>
      <trkpt lat="43.37184" lon="-0.71849">
        <ele>272</ele>
        <time>2022-08-23T11:42:52Z</time>
      </trkpt>
      <trkpt lat="43.3718" lon="-0.71862">
        <ele>273</ele>
        <time>2022-08-23T11:43:01Z</time>
      </trkpt>
      <trkpt lat="43.3715" lon="-0.71914">
        <ele>276</ele>
        <time>2022-08-23T11:43:38Z</time>
      </trkpt>
      <trkpt lat="43.37133" lon="-0.71933">
        <ele>277</ele>
        <time>2022-08-23T11:44:11Z</time>
      </trkpt>
      <trkpt lat="43.37101" lon="-0.71986">
        <ele>280</ele>
        <time>2022-08-23T11:44:46Z</time>
      </trkpt>
      <trkpt lat="43.37096" lon="-0.71997">
        <ele>281</ele>
        <time>2022-08-23T11:44:55Z</time>
      </trkpt>
      <trkpt lat="43.37072" lon="-0.72024">
        <ele>283</ele>
        <time>2022-08-23T11:45:48Z</time>
      </trkpt>
      <trkpt lat="43.37057" lon="-0.7204">
        <ele>284</ele>
        <time>2022-08-23T11:46:01Z</time>
      </trkpt>
      <trkpt lat="43.37043" lon="-0.72075">
        <ele>285</ele>
        <time>2022-08-23T11:46:22Z</time>
      </trkpt>
      <trkpt lat="43.37043" lon="-0.72114">
        <ele>287</ele>
        <time>2022-08-23T11:46:45Z</time>
      </trkpt>
      <trkpt lat="43.37044" lon="-0.72127">
        <ele>287</ele>
        <time>2022-08-23T11:46:52Z</time>
      </trkpt>
      <trkpt lat="43.37057" lon="-0.72178">
        <ele>288</ele>
        <time>2022-08-23T11:47:24Z</time>
      </trkpt>
      <trkpt lat="43.3707" lon="-0.72228">
        <ele>289</ele>
        <time>2022-08-23T11:47:58Z</time>
      </trkpt>
      <trkpt lat="43.37084" lon="-0.72277">
        <ele>291</ele>
        <time>2022-08-23T11:48:31Z</time>
      </trkpt>
      <trkpt lat="43.37099" lon="-0.72324">
        <ele>292</ele>
        <time>2022-08-23T11:49:01Z</time>
      </trkpt>
      <trkpt lat="43.37107" lon="-0.72349">
        <ele>291</ele>
        <time>2022-08-23T11:49:18Z</time>
      </trkpt>
      <trkpt lat="43.37109" lon="-0.72363">
        <ele>291</ele>
        <time>2022-08-23T11:49:27Z</time>
      </trkpt>
      <trkpt lat="43.3712" lon="-0.72399">
        <ele>291</ele>
        <time>2022-08-23T11:49:52Z</time>
      </trkpt>
      <trkpt lat="43.37132" lon="-0.7242">
        <ele>291</ele>
        <time>2022-08-23T11:50:08Z</time>
      </trkpt>
      <trkpt lat="43.3716" lon="-0.72472">
        <ele>290</ele>
        <time>2022-08-23T11:50:44Z</time>
      </trkpt>
      <trkpt lat="43.37174" lon="-0.72489">
        <ele>290</ele>
        <time>2022-08-23T11:51:00Z</time>
      </trkpt>
      <trkpt lat="43.37196" lon="-0.72532">
        <ele>290</ele>
        <time>2022-08-23T11:51:36Z</time>
      </trkpt>
      <trkpt lat="43.37217" lon="-0.7254">
        <ele>290</ele>
        <time>2022-08-23T11:54:34Z</time>
      </trkpt>
      <trkpt lat="43.37226" lon="-0.72544">
        <ele>290</ele>
        <time>2022-08-23T11:54:42Z</time>
      </trkpt>
      <trkpt lat="43.37233" lon="-0.72552">
        <ele>290</ele>
        <time>2022-08-23T11:54:48Z</time>
      </trkpt>
      <trkpt lat="43.37259" lon="-0.72569">
        <ele>289</ele>
        <time>2022-08-23T11:55:11Z</time>
      </trkpt>
      <trkpt lat="43.37267" lon="-0.72579">
        <ele>289</ele>
        <time>2022-08-23T11:55:19Z</time>
      </trkpt>
      <trkpt lat="43.37277" lon="-0.72583">
        <ele>289</ele>
        <time>2022-08-23T11:55:27Z</time>
      </trkpt>
      <trkpt lat="43.37319" lon="-0.72612">
        <ele>289</ele>
        <time>2022-08-23T11:56:03Z</time>
      </trkpt>
      <trkpt lat="43.3736" lon="-0.72643">
        <ele>288</ele>
        <time>2022-08-23T11:56:41Z</time>
      </trkpt>
      <trkpt lat="43.37374" lon="-0.72662">
        <ele>287</ele>
        <time>2022-08-23T11:56:55Z</time>
      </trkpt>
      <trkpt lat="43.37377" lon="-0.72675">
        <ele>287</ele>
        <time>2022-08-23T11:57:02Z</time>
      </trkpt>
      <trkpt lat="43.37377" lon="-0.72688">
        <ele>286</ele>
        <time>2022-08-23T11:57:09Z</time>
      </trkpt>
      <trkpt lat="43.37371" lon="-0.72713">
        <ele>285</ele>
        <time>2022-08-23T11:57:24Z</time>
      </trkpt>
      <trkpt lat="43.37369" lon="-0.72753">
        <ele>284</ele>
        <time>2022-08-23T11:57:45Z</time>
      </trkpt>
      <trkpt lat="43.37371" lon="-0.72766">
        <ele>283</ele>
        <time>2022-08-23T11:57:53Z</time>
      </trkpt>
      <trkpt lat="43.37384" lon="-0.72803">
        <ele>282</ele>
        <time>2022-08-23T11:58:31Z</time>
      </trkpt>
      <trkpt lat="43.37388" lon="-0.72845">
        <ele>280</ele>
        <time>2022-08-23T11:58:50Z</time>
      </trkpt>
      <trkpt lat="43.37386" lon="-0.72904">
        <ele>277</ele>
        <time>2022-08-23T11:59:03Z</time>
      </trkpt>
      <trkpt lat="43.37388" lon="-0.72916">
        <ele>276</ele>
        <time>2022-08-23T11:59:06Z</time>
      </trkpt>
      <trkpt lat="43.37401" lon="-0.72953">
        <ele>274</ele>
        <time>2022-08-23T11:59:28Z</time>
      </trkpt>
      <trkpt lat="43.3739" lon="-0.72974">
        <ele>272</ele>
        <time>2022-08-23T11:59:46Z</time>
      </trkpt>
      <trkpt lat="43.37383" lon="-0.72982">
        <ele>271</ele>
        <time>2022-08-23T11:59:53Z</time>
      </trkpt>
      <trkpt lat="43.37365" lon="-0.72988">
        <ele>270</ele>
        <time>2022-08-23T12:00:09Z</time>
      </trkpt>
      <trkpt lat="43.37339" lon="-0.73">
        <ele>267</ele>
        <time>2022-08-23T12:00:32Z</time>
      </trkpt>
      <trkpt lat="43.3731" lon="-0.73001">
        <ele>265</ele>
        <time>2022-08-23T12:00:56Z</time>
      </trkpt>
      <trkpt lat="43.373" lon="-0.72998">
        <ele>264</ele>
        <time>2022-08-23T12:01:03Z</time>
      </trkpt>
      <trkpt lat="43.3729" lon="-0.73">
        <ele>263</ele>
        <time>2022-08-23T12:01:11Z</time>
      </trkpt>
      <trkpt lat="43.37253" lon="-0.72997">
        <ele>259</ele>
        <time>2022-08-23T12:01:43Z</time>
      </trkpt>
      <trkpt lat="43.37233" lon="-0.72999">
        <ele>257</ele>
        <time>2022-08-23T12:01:59Z</time>
      </trkpt>
      <trkpt lat="43.37223" lon="-0.73001">
        <ele>256</ele>
        <time>2022-08-23T12:02:07Z</time>
      </trkpt>
      <trkpt lat="43.37197" lon="-0.73017">
        <ele>253</ele>
        <time>2022-08-23T12:02:45Z</time>
      </trkpt>
      <trkpt lat="43.37179" lon="-0.73029">
        <ele>251</ele>
        <time>2022-08-23T12:03:02Z</time>
      </trkpt>
      <trkpt lat="43.37133" lon="-0.73043">
        <ele>246</ele>
        <time>2022-08-23T12:03:37Z</time>
      </trkpt>
      <trkpt lat="43.37095" lon="-0.73055">
        <ele>240</ele>
        <time>2022-08-23T12:04:07Z</time>
      </trkpt>
      <trkpt lat="43.37061" lon="-0.73081">
        <ele>234</ele>
        <time>2022-08-23T12:04:37Z</time>
      </trkpt>
      <trkpt lat="43.37044" lon="-0.73093">
        <ele>230</ele>
        <time>2022-08-23T12:04:55Z</time>
      </trkpt>
      <trkpt lat="43.37036" lon="-0.73101">
        <ele>229</ele>
        <time>2022-08-23T12:05:04Z</time>
      </trkpt>
      <trkpt lat="43.37015" lon="-0.73145">
        <ele>223</ele>
        <time>2022-08-23T12:05:37Z</time>
      </trkpt>
      <trkpt lat="43.3701" lon="-0.73157">
        <ele>221</ele>
        <time>2022-08-23T12:05:45Z</time>
      </trkpt>
      <trkpt lat="43.36997" lon="-0.73174">
        <ele>219</ele>
        <time>2022-08-23T12:06:02Z</time>
      </trkpt>
      <trkpt lat="43.36977" lon="-0.73202">
        <ele>216</ele>
        <time>2022-08-23T12:06:39Z</time>
      </trkpt>
      <trkpt lat="43.3697" lon="-0.73211">
        <ele>215</ele>
        <time>2022-08-23T12:06:46Z</time>
      </trkpt>
      <trkpt lat="43.3696" lon="-0.73233">
        <ele>213</ele>
        <time>2022-08-23T12:07:00Z</time>
      </trkpt>
      <trkpt lat="43.36946" lon="-0.73248">
        <ele>212</ele>
        <time>2022-08-23T12:07:15Z</time>
      </trkpt>
      <trkpt lat="43.36908" lon="-0.73241">
        <ele>208</ele>
        <time>2022-08-23T12:07:47Z</time>
      </trkpt>
      <trkpt lat="43.3689" lon="-0.73235">
        <ele>207</ele>
        <time>2022-08-23T12:08:09Z</time>
      </trkpt>
      <trkpt lat="43.3687" lon="-0.73234">
        <ele>205</ele>
        <time>2022-08-23T12:08:26Z</time>
      </trkpt>
      <trkpt lat="43.36861" lon="-0.7324">
        <ele>204</ele>
        <time>2022-08-23T12:08:34Z</time>
      </trkpt>
      <trkpt lat="43.36851" lon="-0.73242">
        <ele>203</ele>
        <time>2022-08-23T12:08:43Z</time>
      </trkpt>
      <trkpt lat="43.36844" lon="-0.73232">
        <ele>202</ele>
        <time>2022-08-23T12:08:48Z</time>
      </trkpt>
      <trkpt lat="43.36839" lon="-0.73221">
        <ele>202</ele>
        <time>2022-08-23T12:08:55Z</time>
      </trkpt>
      <trkpt lat="43.36813" lon="-0.73179">
        <ele>205</ele>
        <time>2022-08-23T12:09:25Z</time>
      </trkpt>
      <trkpt lat="43.3679" lon="-0.73157">
        <ele>207</ele>
        <time>2022-08-23T12:09:51Z</time>
      </trkpt>
      <trkpt lat="43.36772" lon="-0.73147">
        <ele>208</ele>
        <time>2022-08-23T12:10:06Z</time>
      </trkpt>
      <trkpt lat="43.36763" lon="-0.73146">
        <ele>209</ele>
        <time>2022-08-23T12:10:12Z</time>
      </trkpt>
      <trkpt lat="43.36754" lon="-0.73148">
        <ele>210</ele>
        <time>2022-08-23T12:10:25Z</time>
      </trkpt>
      <trkpt lat="43.36746" lon="-0.73156">
        <ele>211</ele>
        <time>2022-08-23T12:10:43Z</time>
      </trkpt>
      <trkpt lat="43.3674" lon="-0.73165">
        <ele>211</ele>
        <time>2022-08-23T12:10:53Z</time>
      </trkpt>
      <trkpt lat="43.36732" lon="-0.73171">
        <ele>212</ele>
        <time>2022-08-23T12:11:02Z</time>
      </trkpt>
      <trkpt lat="43.36718" lon="-0.73191">
        <ele>213</ele>
        <time>2022-08-23T12:11:20Z</time>
      </trkpt>
      <trkpt lat="43.36711" lon="-0.73215">
        <ele>215</ele>
        <time>2022-08-23T12:11:40Z</time>
      </trkpt>
      <trkpt lat="43.36708" lon="-0.7324">
        <ele>216</ele>
        <time>2022-08-23T12:12:02Z</time>
      </trkpt>
      <trkpt lat="43.36707" lon="-0.73253">
        <ele>217</ele>
        <time>2022-08-23T12:12:13Z</time>
      </trkpt>
      <trkpt lat="43.36697" lon="-0.73305">
        <ele>221</ele>
        <time>2022-08-23T12:12:48Z</time>
      </trkpt>
      <trkpt lat="43.36693" lon="-0.73331">
        <ele>222</ele>
        <time>2022-08-23T12:13:04Z</time>
      </trkpt>
      <trkpt lat="43.36695" lon="-0.73356">
        <ele>224</ele>
        <time>2022-08-23T12:13:21Z</time>
      </trkpt>
      <trkpt lat="43.367" lon="-0.73369">
        <ele>225</ele>
        <time>2022-08-23T12:13:30Z</time>
      </trkpt>
      <trkpt lat="43.36709" lon="-0.73419">
        <ele>228</ele>
        <time>2022-08-23T12:14:05Z</time>
      </trkpt>
      <trkpt lat="43.36721" lon="-0.73472">
        <ele>232</ele>
        <time>2022-08-23T12:14:37Z</time>
      </trkpt>
      <trkpt lat="43.36724" lon="-0.73484">
        <ele>233</ele>
        <time>2022-08-23T12:14:45Z</time>
      </trkpt>
      <trkpt lat="43.36734" lon="-0.73507">
        <ele>235</ele>
        <time>2022-08-23T12:15:03Z</time>
      </trkpt>
      <trkpt lat="43.36735" lon="-0.7352">
        <ele>236</ele>
        <time>2022-08-23T12:15:11Z</time>
      </trkpt>
      <trkpt lat="43.36732" lon="-0.73544">
        <ele>238</ele>
        <time>2022-08-23T12:15:41Z</time>
      </trkpt>
      <trkpt lat="43.36727" lon="-0.73584">
        <ele>241</ele>
        <time>2022-08-23T12:16:12Z</time>
      </trkpt>
      <trkpt lat="43.36722" lon="-0.73595">
        <ele>242</ele>
        <time>2022-08-23T12:16:23Z</time>
      </trkpt>
      <trkpt lat="43.36716" lon="-0.7362">
        <ele>244</ele>
        <time>2022-08-23T12:16:45Z</time>
      </trkpt>
      <trkpt lat="43.36709" lon="-0.73629">
        <ele>245</ele>
        <time>2022-08-23T12:16:54Z</time>
      </trkpt>
      <trkpt lat="43.36691" lon="-0.7364">
        <ele>247</ele>
        <time>2022-08-23T12:17:19Z</time>
      </trkpt>
      <trkpt lat="43.36679" lon="-0.73661">
        <ele>249</ele>
        <time>2022-08-23T12:17:43Z</time>
      </trkpt>
      <trkpt lat="43.36665" lon="-0.73695">
        <ele>253</ele>
        <time>2022-08-23T12:18:22Z</time>
      </trkpt>
      <trkpt lat="43.36659" lon="-0.73705">
        <ele>254</ele>
        <time>2022-08-23T12:18:40Z</time>
      </trkpt>
      <trkpt lat="43.36647" lon="-0.73743">
        <ele>258</ele>
        <time>2022-08-23T12:19:19Z</time>
      </trkpt>
      <trkpt lat="43.36633" lon="-0.73794">
        <ele>263</ele>
        <time>2022-08-23T12:20:12Z</time>
      </trkpt>
      <trkpt lat="43.36623" lon="-0.73829">
        <ele>267</ele>
        <time>2022-08-23T12:20:49Z</time>
      </trkpt>
      <trkpt lat="43.36608" lon="-0.73864">
        <ele>271</ele>
        <time>2022-08-23T12:21:34Z</time>
      </trkpt>
      <trkpt lat="43.36605" lon="-0.73876">
        <ele>273</ele>
        <time>2022-08-23T12:21:45Z</time>
      </trkpt>
      <trkpt lat="43.36593" lon="-0.73896">
        <ele>275</ele>
        <time>2022-08-23T12:22:16Z</time>
      </trkpt>
      <trkpt lat="43.36582" lon="-0.73917">
        <ele>277</ele>
        <time>2022-08-23T12:22:38Z</time>
      </trkpt>
      <trkpt lat="43.36557" lon="-0.73938">
        <ele>279</ele>
        <time>2022-08-23T12:23:13Z</time>
      </trkpt>
      <trkpt lat="43.36541" lon="-0.7395">
        <ele>281</ele>
        <time>2022-08-23T12:23:34Z</time>
      </trkpt>
      <trkpt lat="43.36532" lon="-0.73954">
        <ele>282</ele>
        <time>2022-08-23T12:23:43Z</time>
      </trkpt>
      <trkpt lat="43.36525" lon="-0.73964">
        <ele>283</ele>
        <time>2022-08-23T12:23:50Z</time>
      </trkpt>
      <trkpt lat="43.36508" lon="-0.73976">
        <ele>285</ele>
        <time>2022-08-23T12:24:09Z</time>
      </trkpt>
      <trkpt lat="43.36495" lon="-0.73994">
        <ele>286</ele>
        <time>2022-08-23T12:24:26Z</time>
      </trkpt>
      <trkpt lat="43.36463" lon="-0.74021">
        <ele>290</ele>
        <time>2022-08-23T12:25:00Z</time>
      </trkpt>
      <trkpt lat="43.36453" lon="-0.74026">
        <ele>291</ele>
        <time>2022-08-23T12:25:08Z</time>
      </trkpt>
      <trkpt lat="43.36445" lon="-0.74031">
        <ele>291</ele>
        <time>2022-08-23T12:25:16Z</time>
      </trkpt>
      <trkpt lat="43.36417" lon="-0.74038">
        <ele>291</ele>
        <time>2022-08-23T12:25:40Z</time>
      </trkpt>
      <trkpt lat="43.36399" lon="-0.7405">
        <ele>292</ele>
        <time>2022-08-23T12:25:55Z</time>
      </trkpt>
      <trkpt lat="43.36392" lon="-0.74058">
        <ele>292</ele>
        <time>2022-08-23T12:26:04Z</time>
      </trkpt>
      <trkpt lat="43.36383" lon="-0.74061">
        <ele>292</ele>
        <time>2022-08-23T12:26:12Z</time>
      </trkpt>
      <trkpt lat="43.36374" lon="-0.74062">
        <ele>292</ele>
        <time>2022-08-23T12:26:25Z</time>
      </trkpt>
      <trkpt lat="43.36355" lon="-0.74052">
        <ele>292</ele>
        <time>2022-08-23T12:26:47Z</time>
      </trkpt>
      <trkpt lat="43.36313" lon="-0.74019">
        <ele>293</ele>
        <time>2022-08-23T12:27:18Z</time>
      </trkpt>
      <trkpt lat="43.36279" lon="-0.73994">
        <ele>293</ele>
        <time>2022-08-23T12:27:49Z</time>
      </trkpt>
      <trkpt lat="43.36244" lon="-0.7397">
        <ele>294</ele>
        <time>2022-08-23T12:28:20Z</time>
      </trkpt>
      <trkpt lat="43.3621" lon="-0.7395">
        <ele>294</ele>
        <time>2022-08-23T12:28:51Z</time>
      </trkpt>
      <trkpt lat="43.36172" lon="-0.7393">
        <ele>295</ele>
        <time>2022-08-23T12:29:22Z</time>
      </trkpt>
      <trkpt lat="43.36136" lon="-0.7391">
        <ele>295</ele>
        <time>2022-08-23T12:29:55Z</time>
      </trkpt>
      <trkpt lat="43.361" lon="-0.73891">
        <ele>296</ele>
        <time>2022-08-23T12:30:25Z</time>
      </trkpt>
      <trkpt lat="43.36074" lon="-0.73875">
        <ele>296</ele>
        <time>2022-08-23T12:30:51Z</time>
      </trkpt>
      <trkpt lat="43.36055" lon="-0.73867">
        <ele>297</ele>
        <time>2022-08-23T12:31:05Z</time>
      </trkpt>
      <trkpt lat="43.36021" lon="-0.73845">
        <ele>297</ele>
        <time>2022-08-23T12:31:35Z</time>
      </trkpt>
      <trkpt lat="43.35986" lon="-0.73825">
        <ele>298</ele>
        <time>2022-08-23T12:32:09Z</time>
      </trkpt>
      <trkpt lat="43.35962" lon="-0.73804">
        <ele>298</ele>
        <time>2022-08-23T12:32:34Z</time>
      </trkpt>
      <trkpt lat="43.35936" lon="-0.73766">
        <ele>298</ele>
        <time>2022-08-23T12:33:10Z</time>
      </trkpt>
      <trkpt lat="43.35929" lon="-0.73758">
        <ele>298</ele>
        <time>2022-08-23T12:33:19Z</time>
      </trkpt>
      <trkpt lat="43.35896" lon="-0.73736">
        <ele>299</ele>
        <time>2022-08-23T12:33:53Z</time>
      </trkpt>
      <trkpt lat="43.35878" lon="-0.73724">
        <ele>299</ele>
        <time>2022-08-23T12:34:12Z</time>
      </trkpt>
      <trkpt lat="43.3585" lon="-0.73716">
        <ele>299</ele>
        <time>2022-08-23T12:34:35Z</time>
      </trkpt>
      <trkpt lat="43.35832" lon="-0.73706">
        <ele>299</ele>
        <time>2022-08-23T12:34:48Z</time>
      </trkpt>
      <trkpt lat="43.35823" lon="-0.73705">
        <ele>299</ele>
        <time>2022-08-23T12:34:54Z</time>
      </trkpt>
      <trkpt lat="43.35814" lon="-0.73698">
        <ele>300</ele>
        <time>2022-08-23T12:35:02Z</time>
      </trkpt>
      <trkpt lat="43.35778" lon="-0.73681">
        <ele>300</ele>
        <time>2022-08-23T12:35:33Z</time>
      </trkpt>
      <trkpt lat="43.3575" lon="-0.73674">
        <ele>301</ele>
        <time>2022-08-23T12:35:58Z</time>
      </trkpt>
      <trkpt lat="43.35749" lon="-0.7369">
        <ele>301</ele>
        <time>2022-08-23T12:36:33Z</time>
      </trkpt>
      <trkpt lat="43.35743" lon="-0.7368">
        <ele>301</ele>
        <time>2022-08-23T12:37:06Z</time>
      </trkpt>
      <trkpt lat="43.35718" lon="-0.73665">
        <ele>301</ele>
        <time>2022-08-23T12:37:30Z</time>
      </trkpt>
      <trkpt lat="43.35709" lon="-0.73663">
        <ele>302</ele>
        <time>2022-08-23T12:37:36Z</time>
      </trkpt>
      <trkpt lat="43.35699" lon="-0.73655">
        <ele>302</ele>
        <time>2022-08-23T12:37:50Z</time>
      </trkpt>
      <trkpt lat="43.35671" lon="-0.73646">
        <ele>302</ele>
        <time>2022-08-23T12:38:03Z</time>
      </trkpt>
      <trkpt lat="43.35662" lon="-0.73641">
        <ele>302</ele>
        <time>2022-08-23T12:38:10Z</time>
      </trkpt>
      <trkpt lat="43.35625" lon="-0.73626">
        <ele>303</ele>
        <time>2022-08-23T12:38:42Z</time>
      </trkpt>
      <trkpt lat="43.35587" lon="-0.73612">
        <ele>304</ele>
        <time>2022-08-23T12:39:16Z</time>
      </trkpt>
      <trkpt lat="43.35578" lon="-0.73609">
        <ele>304</ele>
        <time>2022-08-23T12:39:28Z</time>
      </trkpt>
      <trkpt lat="43.3557" lon="-0.73603">
        <ele>305</ele>
        <time>2022-08-23T12:39:46Z</time>
      </trkpt>
      <trkpt lat="43.35573" lon="-0.7359">
        <ele>305</ele>
        <time>2022-08-23T12:42:21Z</time>
      </trkpt>
      <trkpt lat="43.35576" lon="-0.73539">
        <ele>306</ele>
        <time>2022-08-23T12:42:55Z</time>
      </trkpt>
      <trkpt lat="43.3558" lon="-0.73487">
        <ele>306</ele>
        <time>2022-08-23T12:43:31Z</time>
      </trkpt>
      <trkpt lat="43.35582" lon="-0.73461">
        <ele>307</ele>
        <time>2022-08-23T12:43:50Z</time>
      </trkpt>
      <trkpt lat="43.35576" lon="-0.73485">
        <ele>307</ele>
        <time>2022-08-23T12:44:17Z</time>
      </trkpt>
      <trkpt lat="43.35574" lon="-0.73522">
        <ele>307</ele>
        <time>2022-08-23T12:46:24Z</time>
      </trkpt>
      <trkpt lat="43.35571" lon="-0.73574">
        <ele>307</ele>
        <time>2022-08-23T12:46:57Z</time>
      </trkpt>
      <trkpt lat="43.3557" lon="-0.73588">
        <ele>307</ele>
        <time>2022-08-23T12:47:06Z</time>
      </trkpt>
      <trkpt lat="43.35566" lon="-0.73602">
        <ele>307</ele>
        <time>2022-08-23T13:21:11Z</time>
      </trkpt>
      <trkpt lat="43.35537" lon="-0.73606">
        <ele>307</ele>
        <time>2022-08-23T13:21:38Z</time>
      </trkpt>
      <trkpt lat="43.35498" lon="-0.73599">
        <ele>307</ele>
        <time>2022-08-23T13:22:10Z</time>
      </trkpt>
      <trkpt lat="43.35464" lon="-0.73574">
        <ele>308</ele>
        <time>2022-08-23T13:22:44Z</time>
      </trkpt>
      <trkpt lat="43.35447" lon="-0.7356">
        <ele>308</ele>
        <time>2022-08-23T13:22:58Z</time>
      </trkpt>
      <trkpt lat="43.35421" lon="-0.73524">
        <ele>309</ele>
        <time>2022-08-23T13:23:32Z</time>
      </trkpt>
      <trkpt lat="43.35393" lon="-0.73487">
        <ele>309</ele>
        <time>2022-08-23T13:24:03Z</time>
      </trkpt>
      <trkpt lat="43.35366" lon="-0.73449">
        <ele>310</ele>
        <time>2022-08-23T13:24:34Z</time>
      </trkpt>
      <trkpt lat="43.35336" lon="-0.73416">
        <ele>309</ele>
        <time>2022-08-23T13:25:05Z</time>
      </trkpt>
      <trkpt lat="43.35306" lon="-0.73382">
        <ele>309</ele>
        <time>2022-08-23T13:25:36Z</time>
      </trkpt>
      <trkpt lat="43.35299" lon="-0.73372">
        <ele>309</ele>
        <time>2022-08-23T13:25:43Z</time>
      </trkpt>
      <trkpt lat="43.35274" lon="-0.73355">
        <ele>309</ele>
        <time>2022-08-23T13:26:05Z</time>
      </trkpt>
      <trkpt lat="43.35265" lon="-0.73351">
        <ele>309</ele>
        <time>2022-08-23T13:26:12Z</time>
      </trkpt>
      <trkpt lat="43.35255" lon="-0.73351">
        <ele>309</ele>
        <time>2022-08-23T13:26:20Z</time>
      </trkpt>
      <trkpt lat="43.35217" lon="-0.73333">
        <ele>309</ele>
        <time>2022-08-23T13:26:51Z</time>
      </trkpt>
      <trkpt lat="43.35182" lon="-0.73309">
        <ele>309</ele>
        <time>2022-08-23T13:27:22Z</time>
      </trkpt>
      <trkpt lat="43.35172" lon="-0.73304">
        <ele>309</ele>
        <time>2022-08-23T13:27:30Z</time>
      </trkpt>
      <trkpt lat="43.35133" lon="-0.73266">
        <ele>309</ele>
        <time>2022-08-23T13:28:08Z</time>
      </trkpt>
      <trkpt lat="43.35101" lon="-0.73238">
        <ele>309</ele>
        <time>2022-08-23T13:28:40Z</time>
      </trkpt>
      <trkpt lat="43.35092" lon="-0.7324">
        <ele>309</ele>
        <time>2022-08-23T13:28:49Z</time>
      </trkpt>
      <trkpt lat="43.35085" lon="-0.73249">
        <ele>309</ele>
        <time>2022-08-23T13:28:55Z</time>
      </trkpt>
      <trkpt lat="43.35072" lon="-0.73283">
        <ele>309</ele>
        <time>2022-08-23T13:29:18Z</time>
      </trkpt>
      <trkpt lat="43.35064" lon="-0.73291">
        <ele>309</ele>
        <time>2022-08-23T13:29:28Z</time>
      </trkpt>
      <trkpt lat="43.35038" lon="-0.73305">
        <ele>309</ele>
        <time>2022-08-23T13:29:55Z</time>
      </trkpt>
      <trkpt lat="43.3501" lon="-0.73308">
        <ele>309</ele>
        <time>2022-08-23T13:30:19Z</time>
      </trkpt>
      <trkpt lat="43.34972" lon="-0.73323">
        <ele>309</ele>
        <time>2022-08-23T13:30:51Z</time>
      </trkpt>
      <trkpt lat="43.34963" lon="-0.73325">
        <ele>309</ele>
        <time>2022-08-23T13:30:59Z</time>
      </trkpt>
      <trkpt lat="43.34929" lon="-0.73346">
        <ele>309</ele>
        <time>2022-08-23T13:31:31Z</time>
      </trkpt>
      <trkpt lat="43.34894" lon="-0.73367">
        <ele>308</ele>
        <time>2022-08-23T13:32:05Z</time>
      </trkpt>
      <trkpt lat="43.34885" lon="-0.73372">
        <ele>308</ele>
        <time>2022-08-23T13:32:14Z</time>
      </trkpt>
      <trkpt lat="43.34878" lon="-0.73381">
        <ele>308</ele>
        <time>2022-08-23T13:32:22Z</time>
      </trkpt>
      <trkpt lat="43.34842" lon="-0.73402">
        <ele>306</ele>
        <time>2022-08-23T13:32:54Z</time>
      </trkpt>
      <trkpt lat="43.34825" lon="-0.73416">
        <ele>306</ele>
        <time>2022-08-23T13:33:10Z</time>
      </trkpt>
      <trkpt lat="43.34808" lon="-0.73426">
        <ele>305</ele>
        <time>2022-08-23T13:33:27Z</time>
      </trkpt>
      <trkpt lat="43.34776" lon="-0.73457">
        <ele>304</ele>
        <time>2022-08-23T13:34:00Z</time>
      </trkpt>
      <trkpt lat="43.34745" lon="-0.73488">
        <ele>303</ele>
        <time>2022-08-23T13:34:30Z</time>
      </trkpt>
      <trkpt lat="43.34714" lon="-0.73518">
        <ele>302</ele>
        <time>2022-08-23T13:35:03Z</time>
      </trkpt>
      <trkpt lat="43.34684" lon="-0.7355">
        <ele>300</ele>
        <time>2022-08-23T13:35:35Z</time>
      </trkpt>
      <trkpt lat="43.34651" lon="-0.73579">
        <ele>299</ele>
        <time>2022-08-23T13:36:08Z</time>
      </trkpt>
      <trkpt lat="43.34618" lon="-0.73608">
        <ele>298</ele>
        <time>2022-08-23T13:36:38Z</time>
      </trkpt>
      <trkpt lat="43.34602" lon="-0.73623">
        <ele>297</ele>
        <time>2022-08-23T13:36:56Z</time>
      </trkpt>
      <trkpt lat="43.34568" lon="-0.73647">
        <ele>294</ele>
        <time>2022-08-23T13:37:27Z</time>
      </trkpt>
      <trkpt lat="43.34558" lon="-0.73648">
        <ele>293</ele>
        <time>2022-08-23T13:37:37Z</time>
      </trkpt>
      <trkpt lat="43.34539" lon="-0.73645">
        <ele>292</ele>
        <time>2022-08-23T13:37:56Z</time>
      </trkpt>
      <trkpt lat="43.3453" lon="-0.73639">
        <ele>291</ele>
        <time>2022-08-23T13:38:04Z</time>
      </trkpt>
      <trkpt lat="43.34512" lon="-0.73633">
        <ele>290</ele>
        <time>2022-08-23T13:38:21Z</time>
      </trkpt>
      <trkpt lat="43.34486" lon="-0.73633">
        <ele>288</ele>
        <time>2022-08-23T13:38:54Z</time>
      </trkpt>
      <trkpt lat="43.34466" lon="-0.7363">
        <ele>287</ele>
        <time>2022-08-23T13:39:11Z</time>
      </trkpt>
      <trkpt lat="43.34441" lon="-0.73635">
        <ele>285</ele>
        <time>2022-08-23T13:39:35Z</time>
      </trkpt>
      <trkpt lat="43.34402" lon="-0.73676">
        <ele>279</ele>
        <time>2022-08-23T13:40:14Z</time>
      </trkpt>
      <trkpt lat="43.34385" lon="-0.73686">
        <ele>276</ele>
        <time>2022-08-23T13:40:26Z</time>
      </trkpt>
      <trkpt lat="43.34365" lon="-0.73686">
        <ele>274</ele>
        <time>2022-08-23T13:40:45Z</time>
      </trkpt>
      <trkpt lat="43.34337" lon="-0.73695">
        <ele>270</ele>
        <time>2022-08-23T13:41:04Z</time>
      </trkpt>
      <trkpt lat="43.34328" lon="-0.73691">
        <ele>269</ele>
        <time>2022-08-23T13:41:14Z</time>
      </trkpt>
      <trkpt lat="43.34319" lon="-0.7369">
        <ele>268</ele>
        <time>2022-08-23T13:41:26Z</time>
      </trkpt>
      <trkpt lat="43.34282" lon="-0.73671">
        <ele>262</ele>
        <time>2022-08-23T13:41:58Z</time>
      </trkpt>
      <trkpt lat="43.34253" lon="-0.73653">
        <ele>258</ele>
        <time>2022-08-23T13:42:16Z</time>
      </trkpt>
      <trkpt lat="43.34204" lon="-0.73651">
        <ele>250</ele>
        <time>2022-08-23T13:42:51Z</time>
      </trkpt>
      <trkpt lat="43.34175" lon="-0.7366">
        <ele>245</ele>
        <time>2022-08-23T13:43:15Z</time>
      </trkpt>
      <trkpt lat="43.34167" lon="-0.73667">
        <ele>244</ele>
        <time>2022-08-23T13:43:22Z</time>
      </trkpt>
      <trkpt lat="43.34158" lon="-0.7367">
        <ele>243</ele>
        <time>2022-08-23T13:43:30Z</time>
      </trkpt>
      <trkpt lat="43.34143" lon="-0.73686">
        <ele>240</ele>
        <time>2022-08-23T13:43:44Z</time>
      </trkpt>
      <trkpt lat="43.34137" lon="-0.73696">
        <ele>238</ele>
        <time>2022-08-23T13:43:52Z</time>
      </trkpt>
      <trkpt lat="43.34128" lon="-0.73703">
        <ele>237</ele>
        <time>2022-08-23T13:44:01Z</time>
      </trkpt>
      <trkpt lat="43.34119" lon="-0.73702">
        <ele>235</ele>
        <time>2022-08-23T13:44:21Z</time>
      </trkpt>
      <trkpt lat="43.34108" lon="-0.73697">
        <ele>234</ele>
        <time>2022-08-23T13:44:26Z</time>
      </trkpt>
      <trkpt lat="43.34088" lon="-0.73698">
        <ele>232</ele>
        <time>2022-08-23T13:44:34Z</time>
      </trkpt>
      <trkpt lat="43.34079" lon="-0.73703">
        <ele>231</ele>
        <time>2022-08-23T13:44:39Z</time>
      </trkpt>
      <trkpt lat="43.34049" lon="-0.73698">
        <ele>229</ele>
        <time>2022-08-23T13:45:04Z</time>
      </trkpt>
      <trkpt lat="43.34039" lon="-0.73702">
        <ele>228</ele>
        <time>2022-08-23T13:45:15Z</time>
      </trkpt>
      <trkpt lat="43.3403" lon="-0.7371">
        <ele>228</ele>
        <time>2022-08-23T13:45:20Z</time>
      </trkpt>
      <trkpt lat="43.3402" lon="-0.73713">
        <ele>227</ele>
        <time>2022-08-23T13:45:26Z</time>
      </trkpt>
      <trkpt lat="43.34011" lon="-0.73709">
        <ele>226</ele>
        <time>2022-08-23T13:45:32Z</time>
      </trkpt>
      <trkpt lat="43.34001" lon="-0.73709">
        <ele>225</ele>
        <time>2022-08-23T13:45:38Z</time>
      </trkpt>
      <trkpt lat="43.33978" lon="-0.7373">
        <ele>223</ele>
        <time>2022-08-23T13:46:28Z</time>
      </trkpt>
      <trkpt lat="43.33947" lon="-0.7374">
        <ele>221</ele>
        <time>2022-08-23T13:46:41Z</time>
      </trkpt>
      <trkpt lat="43.33926" lon="-0.73741">
        <ele>220</ele>
        <time>2022-08-23T13:46:57Z</time>
      </trkpt>
      <trkpt lat="43.33917" lon="-0.73744">
        <ele>219</ele>
        <time>2022-08-23T13:47:02Z</time>
      </trkpt>
      <trkpt lat="43.3391" lon="-0.73753">
        <ele>219</ele>
        <time>2022-08-23T13:47:10Z</time>
      </trkpt>
      <trkpt lat="43.33901" lon="-0.73757">
        <ele>218</ele>
        <time>2022-08-23T13:47:16Z</time>
      </trkpt>
      <trkpt lat="43.33876" lon="-0.73775">
        <ele>216</ele>
        <time>2022-08-23T13:47:37Z</time>
      </trkpt>
      <trkpt lat="43.33858" lon="-0.7378">
        <ele>215</ele>
        <time>2022-08-23T13:47:49Z</time>
      </trkpt>
      <trkpt lat="43.33849" lon="-0.73785">
        <ele>215</ele>
        <time>2022-08-23T13:47:55Z</time>
      </trkpt>
      <trkpt lat="43.33826" lon="-0.73827">
        <ele>212</ele>
        <time>2022-08-23T13:48:26Z</time>
      </trkpt>
      <trkpt lat="43.338" lon="-0.73866">
        <ele>210</ele>
        <time>2022-08-23T13:48:54Z</time>
      </trkpt>
      <trkpt lat="43.33792" lon="-0.73892">
        <ele>209</ele>
        <time>2022-08-23T13:49:10Z</time>
      </trkpt>
      <trkpt lat="43.33791" lon="-0.73931">
        <ele>207</ele>
        <time>2022-08-23T13:49:32Z</time>
      </trkpt>
      <trkpt lat="43.33782" lon="-0.73983">
        <ele>205</ele>
        <time>2022-08-23T13:50:06Z</time>
      </trkpt>
      <trkpt lat="43.33779" lon="-0.74047">
        <ele>202</ele>
        <time>2022-08-23T13:50:44Z</time>
      </trkpt>
      <trkpt lat="43.33776" lon="-0.7406">
        <ele>202</ele>
        <time>2022-08-23T13:50:55Z</time>
      </trkpt>
      <trkpt lat="43.33777" lon="-0.74102">
        <ele>200</ele>
        <time>2022-08-23T13:51:19Z</time>
      </trkpt>
      <trkpt lat="43.33791" lon="-0.74167">
        <ele>199</ele>
        <time>2022-08-23T13:51:55Z</time>
      </trkpt>
      <trkpt lat="43.33795" lon="-0.7418">
        <ele>198</ele>
        <time>2022-08-23T13:52:01Z</time>
      </trkpt>
      <trkpt lat="43.33787" lon="-0.74246">
        <ele>198</ele>
        <time>2022-08-23T13:52:37Z</time>
      </trkpt>
      <trkpt lat="43.3379" lon="-0.74273">
        <ele>197</ele>
        <time>2022-08-23T13:52:52Z</time>
      </trkpt>
      <trkpt lat="43.33787" lon="-0.74285">
        <ele>197</ele>
        <time>2022-08-23T13:53:02Z</time>
      </trkpt>
      <trkpt lat="43.33785" lon="-0.74325">
        <ele>197</ele>
        <time>2022-08-23T13:53:22Z</time>
      </trkpt>
      <trkpt lat="43.33777" lon="-0.74365">
        <ele>196</ele>
        <time>2022-08-23T13:53:40Z</time>
      </trkpt>
      <trkpt lat="43.33772" lon="-0.74376">
        <ele>196</ele>
        <time>2022-08-23T13:53:48Z</time>
      </trkpt>
      <trkpt lat="43.33769" lon="-0.74388">
        <ele>196</ele>
        <time>2022-08-23T13:53:56Z</time>
      </trkpt>
      <trkpt lat="43.33763" lon="-0.74399">
        <ele>196</ele>
        <time>2022-08-23T13:54:08Z</time>
      </trkpt>
      <trkpt lat="43.33762" lon="-0.74413">
        <ele>196</ele>
        <time>2022-08-23T13:54:15Z</time>
      </trkpt>
      <trkpt lat="43.33767" lon="-0.74452">
        <ele>195</ele>
        <time>2022-08-23T13:54:35Z</time>
      </trkpt>
      <trkpt lat="43.33763" lon="-0.7452">
        <ele>194</ele>
        <time>2022-08-23T13:55:10Z</time>
      </trkpt>
      <trkpt lat="43.33763" lon="-0.74534">
        <ele>194</ele>
        <time>2022-08-23T13:55:18Z</time>
      </trkpt>
      <trkpt lat="43.33758" lon="-0.7456">
        <ele>194</ele>
        <time>2022-08-23T13:55:32Z</time>
      </trkpt>
      <trkpt lat="43.33757" lon="-0.74587">
        <ele>193</ele>
        <time>2022-08-23T13:55:46Z</time>
      </trkpt>
      <trkpt lat="43.33761" lon="-0.74612">
        <ele>193</ele>
        <time>2022-08-23T13:56:05Z</time>
      </trkpt>
      <trkpt lat="43.33766" lon="-0.74622">
        <ele>193</ele>
        <time>2022-08-23T13:56:12Z</time>
      </trkpt>
      <trkpt lat="43.33768" lon="-0.74635">
        <ele>193</ele>
        <time>2022-08-23T13:56:20Z</time>
      </trkpt>
      <trkpt lat="43.33779" lon="-0.74657">
        <ele>193</ele>
        <time>2022-08-23T13:56:35Z</time>
      </trkpt>
      <trkpt lat="43.33792" lon="-0.74721">
        <ele>192</ele>
        <time>2022-08-23T13:57:08Z</time>
      </trkpt>
      <trkpt lat="43.33797" lon="-0.74748">
        <ele>192</ele>
        <time>2022-08-23T13:57:25Z</time>
      </trkpt>
      <trkpt lat="43.33801" lon="-0.74788">
        <ele>192</ele>
        <time>2022-08-23T13:57:50Z</time>
      </trkpt>
      <trkpt lat="43.33795" lon="-0.74814">
        <ele>191</ele>
        <time>2022-08-23T13:58:06Z</time>
      </trkpt>
      <trkpt lat="43.33796" lon="-0.74827">
        <ele>191</ele>
        <time>2022-08-23T13:58:16Z</time>
      </trkpt>
      <trkpt lat="43.33798" lon="-0.7484">
        <ele>191</ele>
        <time>2022-08-23T13:58:23Z</time>
      </trkpt>
      <trkpt lat="43.33793" lon="-0.74923">
        <ele>192</ele>
        <time>2022-08-23T13:58:58Z</time>
      </trkpt>
      <trkpt lat="43.33786" lon="-0.7499">
        <ele>193</ele>
        <time>2022-08-23T13:59:32Z</time>
      </trkpt>
      <trkpt lat="43.33779" lon="-0.75">
        <ele>193</ele>
        <time>2022-08-23T13:59:40Z</time>
      </trkpt>
      <trkpt lat="43.33769" lon="-0.75036">
        <ele>194</ele>
        <time>2022-08-23T14:00:03Z</time>
      </trkpt>
      <trkpt lat="43.33771" lon="-0.75062">
        <ele>194</ele>
        <time>2022-08-23T14:00:17Z</time>
      </trkpt>
      <trkpt lat="43.33769" lon="-0.75075">
        <ele>194</ele>
        <time>2022-08-23T14:00:24Z</time>
      </trkpt>
      <trkpt lat="43.33769" lon="-0.75088">
        <ele>194</ele>
        <time>2022-08-23T14:00:32Z</time>
      </trkpt>
      <trkpt lat="43.33767" lon="-0.751">
        <ele>194</ele>
        <time>2022-08-23T14:00:38Z</time>
      </trkpt>
      <trkpt lat="43.33768" lon="-0.75126">
        <ele>193</ele>
        <time>2022-08-23T14:00:53Z</time>
      </trkpt>
      <trkpt lat="43.33766" lon="-0.75139">
        <ele>193</ele>
        <time>2022-08-23T14:01:03Z</time>
      </trkpt>
      <trkpt lat="43.33763" lon="-0.75193">
        <ele>192</ele>
        <time>2022-08-23T14:01:29Z</time>
      </trkpt>
      <trkpt lat="43.33761" lon="-0.75205">
        <ele>192</ele>
        <time>2022-08-23T14:01:37Z</time>
      </trkpt>
      <trkpt lat="43.33763" lon="-0.75218">
        <ele>192</ele>
        <time>2022-08-23T14:01:46Z</time>
      </trkpt>
      <trkpt lat="43.33761" lon="-0.75257">
        <ele>191</ele>
        <time>2022-08-23T14:02:10Z</time>
      </trkpt>
      <trkpt lat="43.33771" lon="-0.75309">
        <ele>190</ele>
        <time>2022-08-23T14:02:44Z</time>
      </trkpt>
      <trkpt lat="43.33779" lon="-0.75376">
        <ele>190</ele>
        <time>2022-08-23T14:03:19Z</time>
      </trkpt>
      <trkpt lat="43.33781" lon="-0.75391">
        <ele>189</ele>
        <time>2022-08-23T14:03:27Z</time>
      </trkpt>
      <trkpt lat="43.33774" lon="-0.75442">
        <ele>189</ele>
        <time>2022-08-23T14:04:04Z</time>
      </trkpt>
      <trkpt lat="43.33774" lon="-0.75456">
        <ele>189</ele>
        <time>2022-08-23T14:04:13Z</time>
      </trkpt>
      <trkpt lat="43.33765" lon="-0.75494">
        <ele>188</ele>
        <time>2022-08-23T14:04:33Z</time>
      </trkpt>
      <trkpt lat="43.33764" lon="-0.75508">
        <ele>188</ele>
        <time>2022-08-23T14:04:40Z</time>
      </trkpt>
      <trkpt lat="43.3376" lon="-0.75519">
        <ele>188</ele>
        <time>2022-08-23T14:04:46Z</time>
      </trkpt>
      <trkpt lat="43.33758" lon="-0.75534">
        <ele>188</ele>
        <time>2022-08-23T14:04:53Z</time>
      </trkpt>
      <trkpt lat="43.33752" lon="-0.75545">
        <ele>188</ele>
        <time>2022-08-23T14:04:58Z</time>
      </trkpt>
      <trkpt lat="43.3374" lon="-0.75583">
        <ele>187</ele>
        <time>2022-08-23T14:05:23Z</time>
      </trkpt>
      <trkpt lat="43.33729" lon="-0.75606">
        <ele>187</ele>
        <time>2022-08-23T14:05:39Z</time>
      </trkpt>
      <trkpt lat="43.33716" lon="-0.75642">
        <ele>186</ele>
        <time>2022-08-23T14:06:10Z</time>
      </trkpt>
      <trkpt lat="43.33703" lon="-0.75676">
        <ele>186</ele>
        <time>2022-08-23T14:06:34Z</time>
      </trkpt>
      <trkpt lat="43.33703" lon="-0.75702">
        <ele>186</ele>
        <time>2022-08-23T14:06:52Z</time>
      </trkpt>
      <trkpt lat="43.33713" lon="-0.75752">
        <ele>185</ele>
        <time>2022-08-23T14:07:22Z</time>
      </trkpt>
      <trkpt lat="43.33727" lon="-0.75803">
        <ele>184</ele>
        <time>2022-08-23T14:07:55Z</time>
      </trkpt>
      <trkpt lat="43.3373" lon="-0.75815">
        <ele>184</ele>
        <time>2022-08-23T14:08:04Z</time>
      </trkpt>
      <trkpt lat="43.33741" lon="-0.75878">
        <ele>182</ele>
        <time>2022-08-23T14:08:40Z</time>
      </trkpt>
      <trkpt lat="43.33756" lon="-0.75926">
        <ele>181</ele>
        <time>2022-08-23T14:09:16Z</time>
      </trkpt>
      <trkpt lat="43.33776" lon="-0.75969">
        <ele>179</ele>
        <time>2022-08-23T14:09:49Z</time>
      </trkpt>
      <trkpt lat="43.33783" lon="-0.75979">
        <ele>179</ele>
        <time>2022-08-23T14:09:58Z</time>
      </trkpt>
      <trkpt lat="43.33788" lon="-0.7599">
        <ele>179</ele>
        <time>2022-08-23T14:10:09Z</time>
      </trkpt>
      <trkpt lat="43.33782" lon="-0.76015">
        <ele>178</ele>
        <time>2022-08-23T14:10:21Z</time>
      </trkpt>
      <trkpt lat="43.33776" lon="-0.76027">
        <ele>179</ele>
        <time>2022-08-23T14:10:28Z</time>
      </trkpt>
      <trkpt lat="43.3376" lon="-0.76045">
        <ele>179</ele>
        <time>2022-08-23T14:10:41Z</time>
      </trkpt>
      <trkpt lat="43.33718" lon="-0.76075">
        <ele>179</ele>
        <time>2022-08-23T14:11:17Z</time>
      </trkpt>
      <trkpt lat="43.33701" lon="-0.76087">
        <ele>179</ele>
        <time>2022-08-23T14:11:33Z</time>
      </trkpt>
      <trkpt lat="43.3367" lon="-0.76118">
        <ele>179</ele>
        <time>2022-08-23T14:12:04Z</time>
      </trkpt>
      <trkpt lat="43.33638" lon="-0.7615">
        <ele>179</ele>
        <time>2022-08-23T14:12:34Z</time>
      </trkpt>
      <trkpt lat="43.33607" lon="-0.76183">
        <ele>179</ele>
        <time>2022-08-23T14:13:04Z</time>
      </trkpt>
      <trkpt lat="43.33577" lon="-0.76218">
        <ele>179</ele>
        <time>2022-08-23T14:13:36Z</time>
      </trkpt>
      <trkpt lat="43.33546" lon="-0.76249">
        <ele>179</ele>
        <time>2022-08-23T14:14:05Z</time>
      </trkpt>
      <trkpt lat="43.3353" lon="-0.76262">
        <ele>179</ele>
        <time>2022-08-23T14:14:21Z</time>
      </trkpt>
      <trkpt lat="43.33508" lon="-0.76288">
        <ele>179</ele>
        <time>2022-08-23T14:14:42Z</time>
      </trkpt>
      <trkpt lat="43.33487" lon="-0.76348">
        <ele>178</ele>
        <time>2022-08-23T14:15:19Z</time>
      </trkpt>
      <trkpt lat="43.33484" lon="-0.7636">
        <ele>177</ele>
        <time>2022-08-23T14:15:27Z</time>
      </trkpt>
      <trkpt lat="43.33464" lon="-0.76389">
        <ele>177</ele>
        <time>2022-08-23T14:15:58Z</time>
      </trkpt>
      <trkpt lat="43.33454" lon="-0.76392">
        <ele>176</ele>
        <time>2022-08-23T14:16:07Z</time>
      </trkpt>
      <trkpt lat="43.33417" lon="-0.76382">
        <ele>175</ele>
        <time>2022-08-23T14:16:40Z</time>
      </trkpt>
      <trkpt lat="43.33409" lon="-0.76375">
        <ele>175</ele>
        <time>2022-08-23T14:16:50Z</time>
      </trkpt>
      <trkpt lat="43.33399" lon="-0.76373">
        <ele>175</ele>
        <time>2022-08-23T14:16:59Z</time>
      </trkpt>
      <trkpt lat="43.33391" lon="-0.76367">
        <ele>175</ele>
        <time>2022-08-23T14:17:08Z</time>
      </trkpt>
      <trkpt lat="43.33371" lon="-0.76339">
        <ele>174</ele>
        <time>2022-08-23T14:17:29Z</time>
      </trkpt>
      <trkpt lat="43.33365" lon="-0.76329">
        <ele>174</ele>
        <time>2022-08-23T14:17:36Z</time>
      </trkpt>
      <trkpt lat="43.33358" lon="-0.7632">
        <ele>175</ele>
        <time>2022-08-23T14:17:44Z</time>
      </trkpt>
      <trkpt lat="43.33352" lon="-0.7631">
        <ele>175</ele>
        <time>2022-08-23T14:17:51Z</time>
      </trkpt>
      <trkpt lat="43.33329" lon="-0.76289">
        <ele>176</ele>
        <time>2022-08-23T14:18:16Z</time>
      </trkpt>
      <trkpt lat="43.33302" lon="-0.76276">
        <ele>177</ele>
        <time>2022-08-23T14:18:43Z</time>
      </trkpt>
      <trkpt lat="43.33284" lon="-0.76271">
        <ele>177</ele>
        <time>2022-08-23T14:18:57Z</time>
      </trkpt>
      <trkpt lat="43.33268" lon="-0.76254">
        <ele>178</ele>
        <time>2022-08-23T14:19:14Z</time>
      </trkpt>
      <trkpt lat="43.33221" lon="-0.76237">
        <ele>179</ele>
        <time>2022-08-23T14:19:49Z</time>
      </trkpt>
      <trkpt lat="43.33184" lon="-0.76231">
        <ele>180</ele>
        <time>2022-08-23T14:20:22Z</time>
      </trkpt>
      <trkpt lat="43.33174" lon="-0.76234">
        <ele>180</ele>
        <time>2022-08-23T14:20:30Z</time>
      </trkpt>
      <trkpt lat="43.33147" lon="-0.76225">
        <ele>180</ele>
        <time>2022-08-23T14:20:55Z</time>
      </trkpt>
      <trkpt lat="43.3313" lon="-0.76213">
        <ele>180</ele>
        <time>2022-08-23T14:21:11Z</time>
      </trkpt>
      <trkpt lat="43.33099" lon="-0.7618">
        <ele>180</ele>
        <time>2022-08-23T14:21:47Z</time>
      </trkpt>
      <trkpt lat="43.33084" lon="-0.76162">
        <ele>180</ele>
        <time>2022-08-23T14:22:05Z</time>
      </trkpt>
      <trkpt lat="43.33079" lon="-0.7615">
        <ele>180</ele>
        <time>2022-08-23T14:22:13Z</time>
      </trkpt>
      <trkpt lat="43.33064" lon="-0.76131">
        <ele>180</ele>
        <time>2022-08-23T14:22:31Z</time>
      </trkpt>
      <trkpt lat="43.33055" lon="-0.76125">
        <ele>180</ele>
        <time>2022-08-23T14:22:38Z</time>
      </trkpt>
      <trkpt lat="43.33048" lon="-0.76116">
        <ele>180</ele>
        <time>2022-08-23T14:22:45Z</time>
      </trkpt>
      <trkpt lat="43.33013" lon="-0.76093">
        <ele>180</ele>
        <time>2022-08-23T14:23:18Z</time>
      </trkpt>
      <trkpt lat="43.33005" lon="-0.76088">
        <ele>180</ele>
        <time>2022-08-23T14:23:29Z</time>
      </trkpt>
      <trkpt lat="43.32975" lon="-0.76053">
        <ele>180</ele>
        <time>2022-08-23T14:23:58Z</time>
      </trkpt>
      <trkpt lat="43.32954" lon="-0.76007">
        <ele>181</ele>
        <time>2022-08-23T14:24:31Z</time>
      </trkpt>
      <trkpt lat="43.32934" lon="-0.75976">
        <ele>181</ele>
        <time>2022-08-23T14:24:53Z</time>
      </trkpt>
      <trkpt lat="43.32904" lon="-0.75945">
        <ele>181</ele>
        <time>2022-08-23T14:25:25Z</time>
      </trkpt>
      <trkpt lat="43.32882" lon="-0.75921">
        <ele>180</ele>
        <time>2022-08-23T14:25:48Z</time>
      </trkpt>
      <trkpt lat="43.32855" lon="-0.75882">
        <ele>180</ele>
        <time>2022-08-23T14:26:19Z</time>
      </trkpt>
      <trkpt lat="43.32826" lon="-0.75831">
        <ele>180</ele>
        <time>2022-08-23T14:26:55Z</time>
      </trkpt>
      <trkpt lat="43.32804" lon="-0.75785">
        <ele>180</ele>
        <time>2022-08-23T14:27:26Z</time>
      </trkpt>
      <trkpt lat="43.32772" lon="-0.75753">
        <ele>179</ele>
        <time>2022-08-23T14:28:01Z</time>
      </trkpt>
      <trkpt lat="43.32744" lon="-0.75717">
        <ele>179</ele>
        <time>2022-08-23T14:28:33Z</time>
      </trkpt>
      <trkpt lat="43.32719" lon="-0.75695">
        <ele>179</ele>
        <time>2022-08-23T14:28:56Z</time>
      </trkpt>
      <trkpt lat="43.32713" lon="-0.75684">
        <ele>178</ele>
        <time>2022-08-23T14:29:05Z</time>
      </trkpt>
      <trkpt lat="43.32697" lon="-0.75671">
        <ele>178</ele>
        <time>2022-08-23T14:29:21Z</time>
      </trkpt>
      <trkpt lat="43.32667" lon="-0.75637">
        <ele>178</ele>
        <time>2022-08-23T14:29:52Z</time>
      </trkpt>
      <trkpt lat="43.32659" lon="-0.7563">
        <ele>178</ele>
        <time>2022-08-23T14:30:00Z</time>
      </trkpt>
      <trkpt lat="43.32659" lon="-0.75617">
        <ele>178</ele>
        <time>2022-08-23T14:30:08Z</time>
      </trkpt>
      <trkpt lat="43.32655" lon="-0.75605">
        <ele>178</ele>
        <time>2022-08-23T14:30:20Z</time>
      </trkpt>
      <trkpt lat="43.3263" lon="-0.75586">
        <ele>178</ele>
        <time>2022-08-23T14:30:47Z</time>
      </trkpt>
      <trkpt lat="43.32621" lon="-0.75582">
        <ele>178</ele>
        <time>2022-08-23T14:30:59Z</time>
      </trkpt>
      <trkpt lat="43.32604" lon="-0.75594">
        <ele>179</ele>
        <time>2022-08-23T14:31:15Z</time>
      </trkpt>
      <trkpt lat="43.32586" lon="-0.75582">
        <ele>179</ele>
        <time>2022-08-23T14:31:32Z</time>
      </trkpt>
      <trkpt lat="43.32549" lon="-0.75562">
        <ele>179</ele>
        <time>2022-08-23T14:32:02Z</time>
      </trkpt>
      <trkpt lat="43.32532" lon="-0.75553">
        <ele>180</ele>
        <time>2022-08-23T14:32:18Z</time>
      </trkpt>
      <trkpt lat="43.325" lon="-0.75522">
        <ele>180</ele>
        <time>2022-08-23T14:32:51Z</time>
      </trkpt>
      <trkpt lat="43.32484" lon="-0.75509">
        <ele>181</ele>
        <time>2022-08-23T14:33:05Z</time>
      </trkpt>
      <trkpt lat="43.32475" lon="-0.75505">
        <ele>181</ele>
        <time>2022-08-23T14:33:13Z</time>
      </trkpt>
      <trkpt lat="43.32451" lon="-0.75482">
        <ele>182</ele>
        <time>2022-08-23T14:33:36Z</time>
      </trkpt>
      <trkpt lat="43.32429" lon="-0.7544">
        <ele>183</ele>
        <time>2022-08-23T14:33:59Z</time>
      </trkpt>
      <trkpt lat="43.32421" lon="-0.75432">
        <ele>183</ele>
        <time>2022-08-23T14:34:07Z</time>
      </trkpt>
      <trkpt lat="43.32403" lon="-0.75424">
        <ele>184</ele>
        <time>2022-08-23T14:34:24Z</time>
      </trkpt>
      <trkpt lat="43.32394" lon="-0.75421">
        <ele>184</ele>
        <time>2022-08-23T14:34:32Z</time>
      </trkpt>
      <trkpt lat="43.32365" lon="-0.75418">
        <ele>184</ele>
        <time>2022-08-23T14:35:18Z</time>
      </trkpt>
      <trkpt lat="43.32356" lon="-0.75418">
        <ele>184</ele>
        <time>2022-08-23T14:35:26Z</time>
      </trkpt>
      <trkpt lat="43.32347" lon="-0.75426">
        <ele>184</ele>
        <time>2022-08-23T14:35:33Z</time>
      </trkpt>
      <trkpt lat="43.32323" lon="-0.75468">
        <ele>185</ele>
        <time>2022-08-23T14:36:04Z</time>
      </trkpt>
      <trkpt lat="43.32292" lon="-0.75516">
        <ele>185</ele>
        <time>2022-08-23T14:36:41Z</time>
      </trkpt>
      <trkpt lat="43.32266" lon="-0.75554">
        <ele>185</ele>
        <time>2022-08-23T14:37:13Z</time>
      </trkpt>
      <trkpt lat="43.32246" lon="-0.75601">
        <ele>185</ele>
        <time>2022-08-23T14:37:44Z</time>
      </trkpt>
      <trkpt lat="43.3222" lon="-0.7564">
        <ele>185</ele>
        <time>2022-08-23T14:38:17Z</time>
      </trkpt>
      <trkpt lat="43.32214" lon="-0.7565">
        <ele>185</ele>
        <time>2022-08-23T14:38:25Z</time>
      </trkpt>
      <trkpt lat="43.32204" lon="-0.75648">
        <ele>185</ele>
        <time>2022-08-23T14:38:35Z</time>
      </trkpt>
      <trkpt lat="43.3217" lon="-0.75628">
        <ele>185</ele>
        <time>2022-08-23T14:39:09Z</time>
      </trkpt>
      <trkpt lat="43.32154" lon="-0.75612">
        <ele>185</ele>
        <time>2022-08-23T14:39:26Z</time>
      </trkpt>
      <trkpt lat="43.32145" lon="-0.75608">
        <ele>185</ele>
        <time>2022-08-23T14:39:34Z</time>
      </trkpt>
      <trkpt lat="43.32114" lon="-0.75577">
        <ele>185</ele>
        <time>2022-08-23T14:40:08Z</time>
      </trkpt>
      <trkpt lat="43.32105" lon="-0.75573">
        <ele>185</ele>
        <time>2022-08-23T14:40:19Z</time>
      </trkpt>
      <trkpt lat="43.32068" lon="-0.75581">
        <ele>185</ele>
        <time>2022-08-23T14:40:52Z</time>
      </trkpt>
      <trkpt lat="43.3206" lon="-0.75585">
        <ele>185</ele>
        <time>2022-08-23T14:41:01Z</time>
      </trkpt>
      <trkpt lat="43.32048" lon="-0.75564">
        <ele>185</ele>
        <time>2022-08-23T14:41:37Z</time>
      </trkpt>
      <trkpt lat="43.32035" lon="-0.75568">
        <ele>185</ele>
        <time>2022-08-23T15:03:23Z</time>
      </trkpt>
      <trkpt lat="43.32359" lon="-0.76279">
        <ele>123</ele>
        <time>2022-08-24T06:57:58Z</time>
      </trkpt>
      <trkpt lat="43.32356" lon="-0.76284">
        <ele>122</ele>
        <time>2022-08-24T06:58:14Z</time>
      </trkpt>
      <trkpt lat="43.32356" lon="-0.76291">
        <ele>122</ele>
        <time>2022-08-24T06:58:19Z</time>
      </trkpt>
      <trkpt lat="43.3235" lon="-0.7629">
        <ele>122</ele>
        <time>2022-08-24T06:58:27Z</time>
      </trkpt>
      <trkpt lat="43.32342" lon="-0.76286">
        <ele>121</ele>
        <time>2022-08-24T06:59:04Z</time>
      </trkpt>
      <trkpt lat="43.32338" lon="-0.76287">
        <ele>121</ele>
        <time>2022-08-24T06:59:09Z</time>
      </trkpt>
      <trkpt lat="43.32327" lon="-0.76286">
        <ele>120</ele>
        <time>2022-08-24T06:59:17Z</time>
      </trkpt>
      <trkpt lat="43.32313" lon="-0.76284">
        <ele>120</ele>
        <time>2022-08-24T06:59:26Z</time>
      </trkpt>
      <trkpt lat="43.32304" lon="-0.76285">
        <ele>120</ele>
        <time>2022-08-24T06:59:34Z</time>
      </trkpt>
      <trkpt lat="43.32299" lon="-0.76286">
        <ele>120</ele>
        <time>2022-08-24T06:59:39Z</time>
      </trkpt>
      <trkpt lat="43.32285" lon="-0.76288">
        <ele>120</ele>
        <time>2022-08-24T06:59:51Z</time>
      </trkpt>
      <trkpt lat="43.32276" lon="-0.76292">
        <ele>120</ele>
        <time>2022-08-24T07:00:00Z</time>
      </trkpt>
      <trkpt lat="43.32269" lon="-0.76292">
        <ele>120</ele>
        <time>2022-08-24T07:00:12Z</time>
      </trkpt>
      <trkpt lat="43.32251" lon="-0.76299">
        <ele>119</ele>
        <time>2022-08-24T07:00:27Z</time>
      </trkpt>
      <trkpt lat="43.32244" lon="-0.76304">
        <ele>119</ele>
        <time>2022-08-24T07:00:40Z</time>
      </trkpt>
      <trkpt lat="43.3224" lon="-0.76308">
        <ele>119</ele>
        <time>2022-08-24T07:00:42Z</time>
      </trkpt>
      <trkpt lat="43.32238" lon="-0.76317">
        <ele>118</ele>
        <time>2022-08-24T07:00:45Z</time>
      </trkpt>
      <trkpt lat="43.32236" lon="-0.76341">
        <ele>116</ele>
        <time>2022-08-24T07:00:53Z</time>
      </trkpt>
      <trkpt lat="43.32237" lon="-0.76348">
        <ele>115</ele>
        <time>2022-08-24T07:00:56Z</time>
      </trkpt>
      <trkpt lat="43.3224" lon="-0.76363">
        <ele>116</ele>
        <time>2022-08-24T07:01:05Z</time>
      </trkpt>
      <trkpt lat="43.32243" lon="-0.76369">
        <ele>116</ele>
        <time>2022-08-24T07:01:10Z</time>
      </trkpt>
      <trkpt lat="43.32256" lon="-0.76413">
        <ele>117</ele>
        <time>2022-08-24T07:01:38Z</time>
      </trkpt>
      <trkpt lat="43.32267" lon="-0.76466">
        <ele>114</ele>
        <time>2022-08-24T07:02:10Z</time>
      </trkpt>
      <trkpt lat="43.32271" lon="-0.76489">
        <ele>113</ele>
        <time>2022-08-24T07:02:24Z</time>
      </trkpt>
      <trkpt lat="43.32271" lon="-0.76495">
        <ele>113</ele>
        <time>2022-08-24T07:02:26Z</time>
      </trkpt>
      <trkpt lat="43.32276" lon="-0.76523">
        <ele>113</ele>
        <time>2022-08-24T07:02:41Z</time>
      </trkpt>
      <trkpt lat="43.32282" lon="-0.76535">
        <ele>113</ele>
        <time>2022-08-24T07:02:49Z</time>
      </trkpt>
      <trkpt lat="43.32287" lon="-0.76538">
        <ele>113</ele>
        <time>2022-08-24T07:02:53Z</time>
      </trkpt>
      <trkpt lat="43.32292" lon="-0.76552">
        <ele>113</ele>
        <time>2022-08-24T07:03:01Z</time>
      </trkpt>
      <trkpt lat="43.32296" lon="-0.76557">
        <ele>113</ele>
        <time>2022-08-24T07:03:05Z</time>
      </trkpt>
      <trkpt lat="43.32313" lon="-0.76566">
        <ele>113</ele>
        <time>2022-08-24T07:03:19Z</time>
      </trkpt>
      <trkpt lat="43.3235" lon="-0.76595">
        <ele>115</ele>
        <time>2022-08-24T07:03:52Z</time>
      </trkpt>
      <trkpt lat="43.32369" lon="-0.76611">
        <ele>116</ele>
        <time>2022-08-24T07:04:10Z</time>
      </trkpt>
      <trkpt lat="43.32388" lon="-0.76633">
        <ele>118</ele>
        <time>2022-08-24T07:04:30Z</time>
      </trkpt>
      <trkpt lat="43.32402" lon="-0.76662">
        <ele>120</ele>
        <time>2022-08-24T07:04:49Z</time>
      </trkpt>
      <trkpt lat="43.32404" lon="-0.7667">
        <ele>121</ele>
        <time>2022-08-24T07:04:53Z</time>
      </trkpt>
      <trkpt lat="43.32412" lon="-0.76696">
        <ele>122</ele>
        <time>2022-08-24T07:05:09Z</time>
      </trkpt>
      <trkpt lat="43.32418" lon="-0.76734">
        <ele>124</ele>
        <time>2022-08-24T07:05:30Z</time>
      </trkpt>
      <trkpt lat="43.3242" lon="-0.76742">
        <ele>124</ele>
        <time>2022-08-24T07:05:35Z</time>
      </trkpt>
      <trkpt lat="43.32421" lon="-0.76748">
        <ele>124</ele>
        <time>2022-08-24T07:05:38Z</time>
      </trkpt>
      <trkpt lat="43.32439" lon="-0.76791">
        <ele>124</ele>
        <time>2022-08-24T07:06:05Z</time>
      </trkpt>
      <trkpt lat="43.32443" lon="-0.76796">
        <ele>124</ele>
        <time>2022-08-24T07:06:09Z</time>
      </trkpt>
      <trkpt lat="43.3245" lon="-0.76815">
        <ele>124</ele>
        <time>2022-08-24T07:06:21Z</time>
      </trkpt>
      <trkpt lat="43.32456" lon="-0.76848">
        <ele>124</ele>
        <time>2022-08-24T07:06:37Z</time>
      </trkpt>
      <trkpt lat="43.32472" lon="-0.76904">
        <ele>124</ele>
        <time>2022-08-24T07:07:12Z</time>
      </trkpt>
      <trkpt lat="43.32476" lon="-0.76925">
        <ele>124</ele>
        <time>2022-08-24T07:07:22Z</time>
      </trkpt>
      <trkpt lat="43.32478" lon="-0.76931">
        <ele>124</ele>
        <time>2022-08-24T07:07:27Z</time>
      </trkpt>
      <trkpt lat="43.32484" lon="-0.76958">
        <ele>124</ele>
        <time>2022-08-24T07:07:42Z</time>
      </trkpt>
      <trkpt lat="43.32489" lon="-0.76972">
        <ele>124</ele>
        <time>2022-08-24T07:07:50Z</time>
      </trkpt>
      <trkpt lat="43.32491" lon="-0.76979">
        <ele>124</ele>
        <time>2022-08-24T07:07:54Z</time>
      </trkpt>
      <trkpt lat="43.32494" lon="-0.76984">
        <ele>124</ele>
        <time>2022-08-24T07:07:58Z</time>
      </trkpt>
      <trkpt lat="43.32494" lon="-0.76991">
        <ele>124</ele>
        <time>2022-08-24T07:08:01Z</time>
      </trkpt>
      <trkpt lat="43.32497" lon="-0.76996">
        <ele>124</ele>
        <time>2022-08-24T07:08:04Z</time>
      </trkpt>
      <trkpt lat="43.32495" lon="-0.77013">
        <ele>124</ele>
        <time>2022-08-24T07:08:14Z</time>
      </trkpt>
      <trkpt lat="43.32499" lon="-0.77072">
        <ele>124</ele>
        <time>2022-08-24T07:08:47Z</time>
      </trkpt>
      <trkpt lat="43.32498" lon="-0.77085">
        <ele>124</ele>
        <time>2022-08-24T07:08:55Z</time>
      </trkpt>
      <trkpt lat="43.325" lon="-0.77124">
        <ele>125</ele>
        <time>2022-08-24T07:09:16Z</time>
      </trkpt>
      <trkpt lat="43.32499" lon="-0.77132">
        <ele>125</ele>
        <time>2022-08-24T07:09:20Z</time>
      </trkpt>
      <trkpt lat="43.32499" lon="-0.77187">
        <ele>125</ele>
        <time>2022-08-24T07:09:51Z</time>
      </trkpt>
      <trkpt lat="43.32499" lon="-0.77195">
        <ele>125</ele>
        <time>2022-08-24T07:09:55Z</time>
      </trkpt>
      <trkpt lat="43.32502" lon="-0.7721">
        <ele>125</ele>
        <time>2022-08-24T07:10:03Z</time>
      </trkpt>
      <trkpt lat="43.32502" lon="-0.77267">
        <ele>126</ele>
        <time>2022-08-24T07:10:35Z</time>
      </trkpt>
      <trkpt lat="43.32503" lon="-0.77296">
        <ele>126</ele>
        <time>2022-08-24T07:10:51Z</time>
      </trkpt>
      <trkpt lat="43.32508" lon="-0.7731">
        <ele>127</ele>
        <time>2022-08-24T07:10:59Z</time>
      </trkpt>
      <trkpt lat="43.3251" lon="-0.77315">
        <ele>127</ele>
        <time>2022-08-24T07:11:03Z</time>
      </trkpt>
      <trkpt lat="43.32514" lon="-0.77319">
        <ele>127</ele>
        <time>2022-08-24T07:11:06Z</time>
      </trkpt>
      <trkpt lat="43.32517" lon="-0.77326">
        <ele>127</ele>
        <time>2022-08-24T07:11:10Z</time>
      </trkpt>
      <trkpt lat="43.32518" lon="-0.77334">
        <ele>127</ele>
        <time>2022-08-24T07:11:14Z</time>
      </trkpt>
      <trkpt lat="43.32521" lon="-0.7734">
        <ele>127</ele>
        <time>2022-08-24T07:11:18Z</time>
      </trkpt>
      <trkpt lat="43.32521" lon="-0.77349">
        <ele>126</ele>
        <time>2022-08-24T07:11:24Z</time>
      </trkpt>
      <trkpt lat="43.32519" lon="-0.77354">
        <ele>126</ele>
        <time>2022-08-24T07:11:28Z</time>
      </trkpt>
      <trkpt lat="43.32514" lon="-0.77357">
        <ele>127</ele>
        <time>2022-08-24T07:11:33Z</time>
      </trkpt>
      <trkpt lat="43.32509" lon="-0.77359">
        <ele>127</ele>
        <time>2022-08-24T07:11:38Z</time>
      </trkpt>
      <trkpt lat="43.32505" lon="-0.77364">
        <ele>127</ele>
        <time>2022-08-24T07:11:42Z</time>
      </trkpt>
      <trkpt lat="43.32502" lon="-0.77369">
        <ele>127</ele>
        <time>2022-08-24T07:11:46Z</time>
      </trkpt>
      <trkpt lat="43.32491" lon="-0.77401">
        <ele>126</ele>
        <time>2022-08-24T07:12:06Z</time>
      </trkpt>
      <trkpt lat="43.32479" lon="-0.77455">
        <ele>127</ele>
        <time>2022-08-24T07:12:38Z</time>
      </trkpt>
      <trkpt lat="43.32473" lon="-0.77476">
        <ele>127</ele>
        <time>2022-08-24T07:12:50Z</time>
      </trkpt>
      <trkpt lat="43.32465" lon="-0.77533">
        <ele>127</ele>
        <time>2022-08-24T07:13:21Z</time>
      </trkpt>
      <trkpt lat="43.32456" lon="-0.7759">
        <ele>128</ele>
        <time>2022-08-24T07:13:53Z</time>
      </trkpt>
      <trkpt lat="43.32445" lon="-0.7765">
        <ele>129</ele>
        <time>2022-08-24T07:14:27Z</time>
      </trkpt>
      <trkpt lat="43.32444" lon="-0.77656">
        <ele>129</ele>
        <time>2022-08-24T07:14:31Z</time>
      </trkpt>
      <trkpt lat="43.32443" lon="-0.77663">
        <ele>129</ele>
        <time>2022-08-24T07:14:35Z</time>
      </trkpt>
      <trkpt lat="43.32437" lon="-0.7769">
        <ele>129</ele>
        <time>2022-08-24T07:14:51Z</time>
      </trkpt>
      <trkpt lat="43.32436" lon="-0.77697">
        <ele>129</ele>
        <time>2022-08-24T07:14:55Z</time>
      </trkpt>
      <trkpt lat="43.32425" lon="-0.77752">
        <ele>129</ele>
        <time>2022-08-24T07:15:26Z</time>
      </trkpt>
      <trkpt lat="43.32413" lon="-0.7781">
        <ele>129</ele>
        <time>2022-08-24T07:15:57Z</time>
      </trkpt>
      <trkpt lat="43.32406" lon="-0.77851">
        <ele>129</ele>
        <time>2022-08-24T07:16:21Z</time>
      </trkpt>
      <trkpt lat="43.32404" lon="-0.77872">
        <ele>129</ele>
        <time>2022-08-24T07:16:33Z</time>
      </trkpt>
      <trkpt lat="43.324" lon="-0.77899">
        <ele>129</ele>
        <time>2022-08-24T07:16:50Z</time>
      </trkpt>
      <trkpt lat="43.32397" lon="-0.77906">
        <ele>129</ele>
        <time>2022-08-24T07:16:54Z</time>
      </trkpt>
      <trkpt lat="43.3239" lon="-0.77941">
        <ele>130</ele>
        <time>2022-08-24T07:17:14Z</time>
      </trkpt>
      <trkpt lat="43.32383" lon="-0.7796">
        <ele>131</ele>
        <time>2022-08-24T07:17:25Z</time>
      </trkpt>
      <trkpt lat="43.32383" lon="-0.77968">
        <ele>131</ele>
        <time>2022-08-24T07:17:30Z</time>
      </trkpt>
      <trkpt lat="43.32392" lon="-0.78007">
        <ele>134</ele>
        <time>2022-08-24T07:17:57Z</time>
      </trkpt>
      <trkpt lat="43.32406" lon="-0.78032">
        <ele>135</ele>
        <time>2022-08-24T07:18:15Z</time>
      </trkpt>
      <trkpt lat="43.32416" lon="-0.78041">
        <ele>136</ele>
        <time>2022-08-24T07:18:24Z</time>
      </trkpt>
      <trkpt lat="43.32423" lon="-0.78051">
        <ele>137</ele>
        <time>2022-08-24T07:18:33Z</time>
      </trkpt>
      <trkpt lat="43.32446" lon="-0.7807">
        <ele>139</ele>
        <time>2022-08-24T07:18:56Z</time>
      </trkpt>
      <trkpt lat="43.3245" lon="-0.78079">
        <ele>141</ele>
        <time>2022-08-24T07:19:07Z</time>
      </trkpt>
      <trkpt lat="43.32462" lon="-0.78087">
        <ele>142</ele>
        <time>2022-08-24T07:19:20Z</time>
      </trkpt>
      <trkpt lat="43.32465" lon="-0.78094">
        <ele>143</ele>
        <time>2022-08-24T07:19:26Z</time>
      </trkpt>
      <trkpt lat="43.32481" lon="-0.78108">
        <ele>146</ele>
        <time>2022-08-24T07:19:46Z</time>
      </trkpt>
      <trkpt lat="43.32488" lon="-0.78114">
        <ele>149</ele>
        <time>2022-08-24T07:20:01Z</time>
      </trkpt>
      <trkpt lat="43.32503" lon="-0.78126">
        <ele>152</ele>
        <time>2022-08-24T07:20:14Z</time>
      </trkpt>
      <trkpt lat="43.32512" lon="-0.78128">
        <ele>153</ele>
        <time>2022-08-24T07:20:22Z</time>
      </trkpt>
      <trkpt lat="43.32517" lon="-0.78135">
        <ele>154</ele>
        <time>2022-08-24T07:20:29Z</time>
      </trkpt>
      <trkpt lat="43.32552" lon="-0.78155">
        <ele>157</ele>
        <time>2022-08-24T07:21:02Z</time>
      </trkpt>
      <trkpt lat="43.32561" lon="-0.78164">
        <ele>157</ele>
        <time>2022-08-24T07:21:13Z</time>
      </trkpt>
      <trkpt lat="43.32572" lon="-0.78172">
        <ele>157</ele>
        <time>2022-08-24T07:21:23Z</time>
      </trkpt>
      <trkpt lat="43.32581" lon="-0.78179">
        <ele>157</ele>
        <time>2022-08-24T07:21:33Z</time>
      </trkpt>
      <trkpt lat="43.3259" lon="-0.78185">
        <ele>157</ele>
        <time>2022-08-24T07:21:40Z</time>
      </trkpt>
      <trkpt lat="43.32603" lon="-0.78198">
        <ele>157</ele>
        <time>2022-08-24T07:21:51Z</time>
      </trkpt>
      <trkpt lat="43.32648" lon="-0.78214">
        <ele>157</ele>
        <time>2022-08-24T07:22:26Z</time>
      </trkpt>
      <trkpt lat="43.32689" lon="-0.78214">
        <ele>156</ele>
        <time>2022-08-24T07:22:58Z</time>
      </trkpt>
      <trkpt lat="43.32706" lon="-0.78216">
        <ele>156</ele>
        <time>2022-08-24T07:23:10Z</time>
      </trkpt>
      <trkpt lat="43.32723" lon="-0.78211">
        <ele>156</ele>
        <time>2022-08-24T07:23:25Z</time>
      </trkpt>
      <trkpt lat="43.32727" lon="-0.78209">
        <ele>156</ele>
        <time>2022-08-24T07:23:29Z</time>
      </trkpt>
      <trkpt lat="43.32743" lon="-0.78203">
        <ele>155</ele>
        <time>2022-08-24T07:23:42Z</time>
      </trkpt>
      <trkpt lat="43.32775" lon="-0.78205">
        <ele>155</ele>
        <time>2022-08-24T07:24:06Z</time>
      </trkpt>
      <trkpt lat="43.3278" lon="-0.78209">
        <ele>155</ele>
        <time>2022-08-24T07:24:10Z</time>
      </trkpt>
      <trkpt lat="43.32819" lon="-0.78228">
        <ele>155</ele>
        <time>2022-08-24T07:24:43Z</time>
      </trkpt>
      <trkpt lat="43.32839" lon="-0.78234">
        <ele>156</ele>
        <time>2022-08-24T07:25:00Z</time>
      </trkpt>
      <trkpt lat="43.32843" lon="-0.78238">
        <ele>156</ele>
        <time>2022-08-24T07:25:05Z</time>
      </trkpt>
      <trkpt lat="43.32845" lon="-0.78245">
        <ele>156</ele>
        <time>2022-08-24T07:25:11Z</time>
      </trkpt>
      <trkpt lat="43.32843" lon="-0.78251">
        <ele>156</ele>
        <time>2022-08-24T07:25:15Z</time>
      </trkpt>
      <trkpt lat="43.32843" lon="-0.78296">
        <ele>157</ele>
        <time>2022-08-24T07:25:40Z</time>
      </trkpt>
      <trkpt lat="43.32842" lon="-0.78303">
        <ele>157</ele>
        <time>2022-08-24T07:25:44Z</time>
      </trkpt>
      <trkpt lat="43.32843" lon="-0.7831">
        <ele>157</ele>
        <time>2022-08-24T07:25:48Z</time>
      </trkpt>
      <trkpt lat="43.32841" lon="-0.78317">
        <ele>157</ele>
        <time>2022-08-24T07:25:53Z</time>
      </trkpt>
      <trkpt lat="43.32843" lon="-0.78324">
        <ele>157</ele>
        <time>2022-08-24T07:25:57Z</time>
      </trkpt>
      <trkpt lat="43.32841" lon="-0.78368">
        <ele>158</ele>
        <time>2022-08-24T07:26:21Z</time>
      </trkpt>
      <trkpt lat="43.32842" lon="-0.78377">
        <ele>158</ele>
        <time>2022-08-24T07:26:25Z</time>
      </trkpt>
      <trkpt lat="43.32841" lon="-0.78386">
        <ele>158</ele>
        <time>2022-08-24T07:26:30Z</time>
      </trkpt>
      <trkpt lat="43.32841" lon="-0.78392">
        <ele>158</ele>
        <time>2022-08-24T07:26:34Z</time>
      </trkpt>
      <trkpt lat="43.3284" lon="-0.78401">
        <ele>158</ele>
        <time>2022-08-24T07:26:38Z</time>
      </trkpt>
      <trkpt lat="43.32841" lon="-0.78408">
        <ele>158</ele>
        <time>2022-08-24T07:26:42Z</time>
      </trkpt>
      <trkpt lat="43.32841" lon="-0.78415">
        <ele>158</ele>
        <time>2022-08-24T07:26:46Z</time>
      </trkpt>
      <trkpt lat="43.32843" lon="-0.78424">
        <ele>158</ele>
        <time>2022-08-24T07:26:52Z</time>
      </trkpt>
      <trkpt lat="43.32842" lon="-0.78432">
        <ele>158</ele>
        <time>2022-08-24T07:26:56Z</time>
      </trkpt>
      <trkpt lat="43.32845" lon="-0.78461">
        <ele>158</ele>
        <time>2022-08-24T07:27:13Z</time>
      </trkpt>
      <trkpt lat="43.32844" lon="-0.78467">
        <ele>158</ele>
        <time>2022-08-24T07:27:17Z</time>
      </trkpt>
      <trkpt lat="43.32847" lon="-0.78524">
        <ele>157</ele>
        <time>2022-08-24T07:27:47Z</time>
      </trkpt>
      <trkpt lat="43.3285" lon="-0.78579">
        <ele>157</ele>
        <time>2022-08-24T07:28:18Z</time>
      </trkpt>
      <trkpt lat="43.32851" lon="-0.78594">
        <ele>157</ele>
        <time>2022-08-24T07:28:26Z</time>
      </trkpt>
      <trkpt lat="43.32853" lon="-0.786">
        <ele>157</ele>
        <time>2022-08-24T07:28:30Z</time>
      </trkpt>
      <trkpt lat="43.32857" lon="-0.78643">
        <ele>158</ele>
        <time>2022-08-24T07:28:53Z</time>
      </trkpt>
      <trkpt lat="43.32859" lon="-0.78652">
        <ele>158</ele>
        <time>2022-08-24T07:28:59Z</time>
      </trkpt>
      <trkpt lat="43.3286" lon="-0.78659">
        <ele>158</ele>
        <time>2022-08-24T07:29:03Z</time>
      </trkpt>
      <trkpt lat="43.32862" lon="-0.78665">
        <ele>158</ele>
        <time>2022-08-24T07:29:07Z</time>
      </trkpt>
      <trkpt lat="43.32862" lon="-0.78673">
        <ele>158</ele>
        <time>2022-08-24T07:29:12Z</time>
      </trkpt>
      <trkpt lat="43.32865" lon="-0.78685">
        <ele>159</ele>
        <time>2022-08-24T07:29:21Z</time>
      </trkpt>
      <trkpt lat="43.32867" lon="-0.78699">
        <ele>159</ele>
        <time>2022-08-24T07:29:29Z</time>
      </trkpt>
      <trkpt lat="43.32873" lon="-0.78718">
        <ele>159</ele>
        <time>2022-08-24T07:29:41Z</time>
      </trkpt>
      <trkpt lat="43.32885" lon="-0.78735">
        <ele>159</ele>
        <time>2022-08-24T07:29:53Z</time>
      </trkpt>
      <trkpt lat="43.32893" lon="-0.78745">
        <ele>159</ele>
        <time>2022-08-24T07:30:00Z</time>
      </trkpt>
      <trkpt lat="43.32916" lon="-0.78784">
        <ele>159</ele>
        <time>2022-08-24T07:30:28Z</time>
      </trkpt>
      <trkpt lat="43.32929" lon="-0.78799">
        <ele>158</ele>
        <time>2022-08-24T07:30:40Z</time>
      </trkpt>
      <trkpt lat="43.32956" lon="-0.78842">
        <ele>158</ele>
        <time>2022-08-24T07:31:12Z</time>
      </trkpt>
      <trkpt lat="43.3298" lon="-0.78879">
        <ele>158</ele>
        <time>2022-08-24T07:31:42Z</time>
      </trkpt>
      <trkpt lat="43.32984" lon="-0.78884">
        <ele>157</ele>
        <time>2022-08-24T07:31:46Z</time>
      </trkpt>
      <trkpt lat="43.32988" lon="-0.78887">
        <ele>157</ele>
        <time>2022-08-24T07:32:21Z</time>
      </trkpt>
      <trkpt lat="43.32992" lon="-0.78896">
        <ele>158</ele>
        <time>2022-08-24T07:33:00Z</time>
      </trkpt>
      <trkpt lat="43.33018" lon="-0.78934">
        <ele>158</ele>
        <time>2022-08-24T07:33:29Z</time>
      </trkpt>
      <trkpt lat="43.33022" lon="-0.78937">
        <ele>158</ele>
        <time>2022-08-24T07:33:33Z</time>
      </trkpt>
      <trkpt lat="43.33048" lon="-0.7898">
        <ele>158</ele>
        <time>2022-08-24T07:34:04Z</time>
      </trkpt>
      <trkpt lat="43.33058" lon="-0.78996">
        <ele>158</ele>
        <time>2022-08-24T07:34:15Z</time>
      </trkpt>
      <trkpt lat="43.33058" lon="-0.79005">
        <ele>157</ele>
        <time>2022-08-24T07:34:21Z</time>
      </trkpt>
      <trkpt lat="43.33051" lon="-0.79015">
        <ele>157</ele>
        <time>2022-08-24T07:34:29Z</time>
      </trkpt>
      <trkpt lat="43.33037" lon="-0.79028">
        <ele>156</ele>
        <time>2022-08-24T07:34:41Z</time>
      </trkpt>
      <trkpt lat="43.33034" lon="-0.79033">
        <ele>155</ele>
        <time>2022-08-24T07:34:45Z</time>
      </trkpt>
      <trkpt lat="43.3303" lon="-0.79037">
        <ele>155</ele>
        <time>2022-08-24T07:34:49Z</time>
      </trkpt>
      <trkpt lat="43.33024" lon="-0.79048">
        <ele>154</ele>
        <time>2022-08-24T07:34:57Z</time>
      </trkpt>
      <trkpt lat="43.33019" lon="-0.79069">
        <ele>152</ele>
        <time>2022-08-24T07:35:09Z</time>
      </trkpt>
      <trkpt lat="43.33018" lon="-0.7909">
        <ele>150</ele>
        <time>2022-08-24T07:35:21Z</time>
      </trkpt>
      <trkpt lat="43.33019" lon="-0.79097">
        <ele>150</ele>
        <time>2022-08-24T07:35:25Z</time>
      </trkpt>
      <trkpt lat="43.33021" lon="-0.79107">
        <ele>149</ele>
        <time>2022-08-24T07:35:32Z</time>
      </trkpt>
      <trkpt lat="43.33025" lon="-0.79121">
        <ele>149</ele>
        <time>2022-08-24T07:35:40Z</time>
      </trkpt>
      <trkpt lat="43.33025" lon="-0.79134">
        <ele>148</ele>
        <time>2022-08-24T07:35:47Z</time>
      </trkpt>
      <trkpt lat="43.33029" lon="-0.79154">
        <ele>147</ele>
        <time>2022-08-24T07:35:58Z</time>
      </trkpt>
      <trkpt lat="43.33027" lon="-0.79169">
        <ele>146</ele>
        <time>2022-08-24T07:36:06Z</time>
      </trkpt>
      <trkpt lat="43.33016" lon="-0.79186">
        <ele>146</ele>
        <time>2022-08-24T07:36:17Z</time>
      </trkpt>
      <trkpt lat="43.32984" lon="-0.79221">
        <ele>143</ele>
        <time>2022-08-24T07:36:48Z</time>
      </trkpt>
      <trkpt lat="43.32977" lon="-0.79232">
        <ele>142</ele>
        <time>2022-08-24T07:36:57Z</time>
      </trkpt>
      <trkpt lat="43.32971" lon="-0.79252">
        <ele>141</ele>
        <time>2022-08-24T07:37:09Z</time>
      </trkpt>
      <trkpt lat="43.32971" lon="-0.7926">
        <ele>141</ele>
        <time>2022-08-24T07:37:13Z</time>
      </trkpt>
      <trkpt lat="43.32972" lon="-0.79277">
        <ele>140</ele>
        <time>2022-08-24T07:37:22Z</time>
      </trkpt>
      <trkpt lat="43.32971" lon="-0.79292">
        <ele>139</ele>
        <time>2022-08-24T07:37:31Z</time>
      </trkpt>
      <trkpt lat="43.32975" lon="-0.79344">
        <ele>136</ele>
        <time>2022-08-24T07:38:00Z</time>
      </trkpt>
      <trkpt lat="43.32971" lon="-0.79366">
        <ele>133</ele>
        <time>2022-08-24T07:38:12Z</time>
      </trkpt>
      <trkpt lat="43.32967" lon="-0.7938">
        <ele>132</ele>
        <time>2022-08-24T07:38:19Z</time>
      </trkpt>
      <trkpt lat="43.32966" lon="-0.79387">
        <ele>132</ele>
        <time>2022-08-24T07:38:23Z</time>
      </trkpt>
      <trkpt lat="43.32966" lon="-0.79409">
        <ele>130</ele>
        <time>2022-08-24T07:38:34Z</time>
      </trkpt>
      <trkpt lat="43.32958" lon="-0.79432">
        <ele>129</ele>
        <time>2022-08-24T07:38:46Z</time>
      </trkpt>
      <trkpt lat="43.32955" lon="-0.79484">
        <ele>125</ele>
        <time>2022-08-24T07:39:16Z</time>
      </trkpt>
      <trkpt lat="43.32947" lon="-0.79511">
        <ele>124</ele>
        <time>2022-08-24T07:39:32Z</time>
      </trkpt>
      <trkpt lat="43.32932" lon="-0.79541">
        <ele>124</ele>
        <time>2022-08-24T07:39:54Z</time>
      </trkpt>
      <trkpt lat="43.32925" lon="-0.7955">
        <ele>124</ele>
        <time>2022-08-24T07:40:03Z</time>
      </trkpt>
      <trkpt lat="43.32911" lon="-0.79578">
        <ele>125</ele>
        <time>2022-08-24T07:40:25Z</time>
      </trkpt>
      <trkpt lat="43.329" lon="-0.79587">
        <ele>126</ele>
        <time>2022-08-24T07:40:36Z</time>
      </trkpt>
      <trkpt lat="43.32861" lon="-0.79608">
        <ele>127</ele>
        <time>2022-08-24T07:41:07Z</time>
      </trkpt>
      <trkpt lat="43.32846" lon="-0.79615">
        <ele>128</ele>
        <time>2022-08-24T07:41:19Z</time>
      </trkpt>
      <trkpt lat="43.32834" lon="-0.79627">
        <ele>128</ele>
        <time>2022-08-24T07:41:31Z</time>
      </trkpt>
      <trkpt lat="43.32814" lon="-0.79638">
        <ele>128</ele>
        <time>2022-08-24T07:41:46Z</time>
      </trkpt>
      <trkpt lat="43.32808" lon="-0.79639">
        <ele>128</ele>
        <time>2022-08-24T07:41:51Z</time>
      </trkpt>
      <trkpt lat="43.3278" lon="-0.79656">
        <ele>128</ele>
        <time>2022-08-24T07:42:14Z</time>
      </trkpt>
      <trkpt lat="43.32761" lon="-0.79665">
        <ele>127</ele>
        <time>2022-08-24T07:42:30Z</time>
      </trkpt>
      <trkpt lat="43.32728" lon="-0.79688">
        <ele>127</ele>
        <time>2022-08-24T07:42:59Z</time>
      </trkpt>
      <trkpt lat="43.32713" lon="-0.79708">
        <ele>125</ele>
        <time>2022-08-24T07:43:16Z</time>
      </trkpt>
      <trkpt lat="43.3271" lon="-0.79714">
        <ele>125</ele>
        <time>2022-08-24T07:43:20Z</time>
      </trkpt>
      <trkpt lat="43.32691" lon="-0.79727">
        <ele>125</ele>
        <time>2022-08-24T07:43:36Z</time>
      </trkpt>
      <trkpt lat="43.3267" lon="-0.79735">
        <ele>124</ele>
        <time>2022-08-24T07:43:52Z</time>
      </trkpt>
      <trkpt lat="43.32661" lon="-0.79736">
        <ele>124</ele>
        <time>2022-08-24T07:44:01Z</time>
      </trkpt>
      <trkpt lat="43.32652" lon="-0.79742">
        <ele>122</ele>
        <time>2022-08-24T07:44:09Z</time>
      </trkpt>
      <trkpt lat="43.32649" lon="-0.79747">
        <ele>122</ele>
        <time>2022-08-24T07:44:14Z</time>
      </trkpt>
      <trkpt lat="43.32644" lon="-0.79759">
        <ele>121</ele>
        <time>2022-08-24T07:44:22Z</time>
      </trkpt>
      <trkpt lat="43.32637" lon="-0.7977">
        <ele>119</ele>
        <time>2022-08-24T07:44:31Z</time>
      </trkpt>
      <trkpt lat="43.32632" lon="-0.79782">
        <ele>118</ele>
        <time>2022-08-24T07:44:39Z</time>
      </trkpt>
      <trkpt lat="43.32628" lon="-0.79786">
        <ele>118</ele>
        <time>2022-08-24T07:44:42Z</time>
      </trkpt>
      <trkpt lat="43.32623" lon="-0.79792">
        <ele>118</ele>
        <time>2022-08-24T07:44:46Z</time>
      </trkpt>
      <trkpt lat="43.32619" lon="-0.79796">
        <ele>118</ele>
        <time>2022-08-24T07:44:50Z</time>
      </trkpt>
      <trkpt lat="43.32613" lon="-0.79797">
        <ele>118</ele>
        <time>2022-08-24T07:44:55Z</time>
      </trkpt>
      <trkpt lat="43.32599" lon="-0.7981">
        <ele>117</ele>
        <time>2022-08-24T07:45:08Z</time>
      </trkpt>
      <trkpt lat="43.32583" lon="-0.79825">
        <ele>117</ele>
        <time>2022-08-24T07:45:24Z</time>
      </trkpt>
      <trkpt lat="43.32571" lon="-0.79832">
        <ele>118</ele>
        <time>2022-08-24T07:45:35Z</time>
      </trkpt>
      <trkpt lat="43.32565" lon="-0.79833">
        <ele>119</ele>
        <time>2022-08-24T07:45:41Z</time>
      </trkpt>
      <trkpt lat="43.32547" lon="-0.79831">
        <ele>119</ele>
        <time>2022-08-24T07:45:55Z</time>
      </trkpt>
      <trkpt lat="43.32541" lon="-0.79834">
        <ele>118</ele>
        <time>2022-08-24T07:46:00Z</time>
      </trkpt>
      <trkpt lat="43.32539" lon="-0.7984">
        <ele>118</ele>
        <time>2022-08-24T07:46:05Z</time>
      </trkpt>
      <trkpt lat="43.32541" lon="-0.79858">
        <ele>119</ele>
        <time>2022-08-24T07:46:17Z</time>
      </trkpt>
      <trkpt lat="43.32568" lon="-0.79902">
        <ele>119</ele>
        <time>2022-08-24T07:46:48Z</time>
      </trkpt>
      <trkpt lat="43.32583" lon="-0.79932">
        <ele>119</ele>
        <time>2022-08-24T07:47:09Z</time>
      </trkpt>
      <trkpt lat="43.32589" lon="-0.79946">
        <ele>119</ele>
        <time>2022-08-24T07:47:17Z</time>
      </trkpt>
      <trkpt lat="43.32598" lon="-0.79957">
        <ele>119</ele>
        <time>2022-08-24T07:47:25Z</time>
      </trkpt>
      <trkpt lat="43.32603" lon="-0.79969">
        <ele>119</ele>
        <time>2022-08-24T07:47:34Z</time>
      </trkpt>
      <trkpt lat="43.32614" lon="-0.80023">
        <ele>118</ele>
        <time>2022-08-24T07:48:07Z</time>
      </trkpt>
      <trkpt lat="43.32614" lon="-0.80045">
        <ele>119</ele>
        <time>2022-08-24T07:48:20Z</time>
      </trkpt>
      <trkpt lat="43.32626" lon="-0.801">
        <ele>119</ele>
        <time>2022-08-24T07:48:52Z</time>
      </trkpt>
      <trkpt lat="43.32633" lon="-0.80121">
        <ele>119</ele>
        <time>2022-08-24T07:49:05Z</time>
      </trkpt>
      <trkpt lat="43.32641" lon="-0.80172">
        <ele>119</ele>
        <time>2022-08-24T07:49:36Z</time>
      </trkpt>
      <trkpt lat="43.32644" lon="-0.8018">
        <ele>119</ele>
        <time>2022-08-24T07:49:40Z</time>
      </trkpt>
      <trkpt lat="43.32645" lon="-0.80186">
        <ele>119</ele>
        <time>2022-08-24T07:49:43Z</time>
      </trkpt>
      <trkpt lat="43.32647" lon="-0.80196">
        <ele>119</ele>
        <time>2022-08-24T07:49:51Z</time>
      </trkpt>
      <trkpt lat="43.32648" lon="-0.80253">
        <ele>119</ele>
        <time>2022-08-24T07:50:23Z</time>
      </trkpt>
      <trkpt lat="43.32648" lon="-0.80259">
        <ele>119</ele>
        <time>2022-08-24T07:50:27Z</time>
      </trkpt>
      <trkpt lat="43.32645" lon="-0.80275">
        <ele>120</ele>
        <time>2022-08-24T07:50:40Z</time>
      </trkpt>
      <trkpt lat="43.32644" lon="-0.80283">
        <ele>120</ele>
        <time>2022-08-24T07:50:45Z</time>
      </trkpt>
      <trkpt lat="43.32639" lon="-0.80295">
        <ele>120</ele>
        <time>2022-08-24T07:50:53Z</time>
      </trkpt>
      <trkpt lat="43.32625" lon="-0.80344">
        <ele>123</ele>
        <time>2022-08-24T07:51:24Z</time>
      </trkpt>
      <trkpt lat="43.32609" lon="-0.8038">
        <ele>125</ele>
        <time>2022-08-24T07:51:48Z</time>
      </trkpt>
      <trkpt lat="43.32596" lon="-0.80406">
        <ele>126</ele>
        <time>2022-08-24T07:52:08Z</time>
      </trkpt>
      <trkpt lat="43.32585" lon="-0.80448">
        <ele>127</ele>
        <time>2022-08-24T07:52:35Z</time>
      </trkpt>
      <trkpt lat="43.32582" lon="-0.80493">
        <ele>129</ele>
        <time>2022-08-24T07:53:02Z</time>
      </trkpt>
      <trkpt lat="43.32584" lon="-0.80503">
        <ele>129</ele>
        <time>2022-08-24T07:53:16Z</time>
      </trkpt>
      <trkpt lat="43.3259" lon="-0.80507">
        <ele>129</ele>
        <time>2022-08-24T07:53:23Z</time>
      </trkpt>
      <trkpt lat="43.326" lon="-0.80517">
        <ele>129</ele>
        <time>2022-08-24T07:53:36Z</time>
      </trkpt>
      <trkpt lat="43.32605" lon="-0.80524">
        <ele>130</ele>
        <time>2022-08-24T07:53:41Z</time>
      </trkpt>
      <trkpt lat="43.32608" lon="-0.8053">
        <ele>130</ele>
        <time>2022-08-24T07:53:46Z</time>
      </trkpt>
      <trkpt lat="43.32609" lon="-0.80548">
        <ele>131</ele>
        <time>2022-08-24T07:53:58Z</time>
      </trkpt>
      <trkpt lat="43.32617" lon="-0.8056">
        <ele>132</ele>
        <time>2022-08-24T07:54:14Z</time>
      </trkpt>
      <trkpt lat="43.32635" lon="-0.80595">
        <ele>137</ele>
        <time>2022-08-24T07:54:50Z</time>
      </trkpt>
      <trkpt lat="43.32642" lon="-0.80603">
        <ele>138</ele>
        <time>2022-08-24T07:54:58Z</time>
      </trkpt>
      <trkpt lat="43.32647" lon="-0.80618">
        <ele>139</ele>
        <time>2022-08-24T07:55:10Z</time>
      </trkpt>
      <trkpt lat="43.32657" lon="-0.80626">
        <ele>142</ele>
        <time>2022-08-24T07:55:25Z</time>
      </trkpt>
      <trkpt lat="43.32666" lon="-0.80624">
        <ele>142</ele>
        <time>2022-08-24T07:55:29Z</time>
      </trkpt>
      <trkpt lat="43.32674" lon="-0.80617">
        <ele>142</ele>
        <time>2022-08-24T07:55:35Z</time>
      </trkpt>
      <trkpt lat="43.327" lon="-0.80615">
        <ele>141</ele>
        <time>2022-08-24T07:56:02Z</time>
      </trkpt>
      <trkpt lat="43.32719" lon="-0.80612">
        <ele>140</ele>
        <time>2022-08-24T07:56:21Z</time>
      </trkpt>
      <trkpt lat="43.3273" lon="-0.80612">
        <ele>140</ele>
        <time>2022-08-24T07:56:29Z</time>
      </trkpt>
      <trkpt lat="43.32735" lon="-0.80613">
        <ele>140</ele>
        <time>2022-08-24T07:56:34Z</time>
      </trkpt>
      <trkpt lat="43.32739" lon="-0.80617">
        <ele>140</ele>
        <time>2022-08-24T07:56:43Z</time>
      </trkpt>
      <trkpt lat="43.32747" lon="-0.80611">
        <ele>139</ele>
        <time>2022-08-24T07:57:31Z</time>
      </trkpt>
      <trkpt lat="43.32755" lon="-0.80602">
        <ele>137</ele>
        <time>2022-08-24T07:57:43Z</time>
      </trkpt>
      <trkpt lat="43.32761" lon="-0.80601">
        <ele>137</ele>
        <time>2022-08-24T07:57:47Z</time>
      </trkpt>
      <trkpt lat="43.32768" lon="-0.806">
        <ele>136</ele>
        <time>2022-08-24T07:57:55Z</time>
      </trkpt>
      <trkpt lat="43.32775" lon="-0.80598">
        <ele>135</ele>
        <time>2022-08-24T07:58:02Z</time>
      </trkpt>
      <trkpt lat="43.32781" lon="-0.806">
        <ele>134</ele>
        <time>2022-08-24T07:58:06Z</time>
      </trkpt>
      <trkpt lat="43.32784" lon="-0.80605">
        <ele>134</ele>
        <time>2022-08-24T07:58:12Z</time>
      </trkpt>
      <trkpt lat="43.32798" lon="-0.80617">
        <ele>134</ele>
        <time>2022-08-24T07:58:25Z</time>
      </trkpt>
      <trkpt lat="43.32816" lon="-0.80633">
        <ele>132</ele>
        <time>2022-08-24T07:58:50Z</time>
      </trkpt>
      <trkpt lat="43.32823" lon="-0.80637">
        <ele>132</ele>
        <time>2022-08-24T07:58:59Z</time>
      </trkpt>
      <trkpt lat="43.32828" lon="-0.80637">
        <ele>132</ele>
        <time>2022-08-24T07:59:03Z</time>
      </trkpt>
      <trkpt lat="43.32838" lon="-0.80643">
        <ele>131</ele>
        <time>2022-08-24T07:59:12Z</time>
      </trkpt>
      <trkpt lat="43.32849" lon="-0.80659">
        <ele>130</ele>
        <time>2022-08-24T07:59:27Z</time>
      </trkpt>
      <trkpt lat="43.32854" lon="-0.80659">
        <ele>129</ele>
        <time>2022-08-24T07:59:31Z</time>
      </trkpt>
      <trkpt lat="43.32875" lon="-0.80677">
        <ele>126</ele>
        <time>2022-08-24T08:00:03Z</time>
      </trkpt>
      <trkpt lat="43.3288" lon="-0.80683">
        <ele>126</ele>
        <time>2022-08-24T08:00:08Z</time>
      </trkpt>
      <trkpt lat="43.32882" lon="-0.80689">
        <ele>126</ele>
        <time>2022-08-24T08:00:12Z</time>
      </trkpt>
      <trkpt lat="43.32893" lon="-0.80699">
        <ele>126</ele>
        <time>2022-08-24T08:00:21Z</time>
      </trkpt>
      <trkpt lat="43.32901" lon="-0.80717">
        <ele>126</ele>
        <time>2022-08-24T08:00:34Z</time>
      </trkpt>
      <trkpt lat="43.32902" lon="-0.80724">
        <ele>126</ele>
        <time>2022-08-24T08:00:39Z</time>
      </trkpt>
      <trkpt lat="43.32903" lon="-0.80733">
        <ele>126</ele>
        <time>2022-08-24T08:00:47Z</time>
      </trkpt>
      <trkpt lat="43.32908" lon="-0.80736">
        <ele>126</ele>
        <time>2022-08-24T08:00:54Z</time>
      </trkpt>
      <trkpt lat="43.32913" lon="-0.80738">
        <ele>126</ele>
        <time>2022-08-24T08:00:59Z</time>
      </trkpt>
      <trkpt lat="43.32918" lon="-0.80737">
        <ele>126</ele>
        <time>2022-08-24T08:01:04Z</time>
      </trkpt>
      <trkpt lat="43.32927" lon="-0.80727">
        <ele>126</ele>
        <time>2022-08-24T08:01:13Z</time>
      </trkpt>
      <trkpt lat="43.32938" lon="-0.8073">
        <ele>127</ele>
        <time>2022-08-24T08:01:23Z</time>
      </trkpt>
      <trkpt lat="43.32958" lon="-0.80745">
        <ele>127</ele>
        <time>2022-08-24T08:01:41Z</time>
      </trkpt>
      <trkpt lat="43.32959" lon="-0.80754">
        <ele>127</ele>
        <time>2022-08-24T08:01:48Z</time>
      </trkpt>
      <trkpt lat="43.32956" lon="-0.80768">
        <ele>127</ele>
        <time>2022-08-24T08:01:58Z</time>
      </trkpt>
      <trkpt lat="43.32953" lon="-0.80774">
        <ele>127</ele>
        <time>2022-08-24T08:02:02Z</time>
      </trkpt>
      <trkpt lat="43.32948" lon="-0.80788">
        <ele>127</ele>
        <time>2022-08-24T08:02:11Z</time>
      </trkpt>
      <trkpt lat="43.32945" lon="-0.80794">
        <ele>127</ele>
        <time>2022-08-24T08:02:16Z</time>
      </trkpt>
      <trkpt lat="43.32943" lon="-0.80801">
        <ele>127</ele>
        <time>2022-08-24T08:02:21Z</time>
      </trkpt>
      <trkpt lat="43.32936" lon="-0.80814">
        <ele>127</ele>
        <time>2022-08-24T08:02:29Z</time>
      </trkpt>
      <trkpt lat="43.32923" lon="-0.80864">
        <ele>127</ele>
        <time>2022-08-24T08:03:00Z</time>
      </trkpt>
      <trkpt lat="43.32917" lon="-0.80885">
        <ele>127</ele>
        <time>2022-08-24T08:03:13Z</time>
      </trkpt>
      <trkpt lat="43.32911" lon="-0.80898">
        <ele>127</ele>
        <time>2022-08-24T08:03:21Z</time>
      </trkpt>
      <trkpt lat="43.32909" lon="-0.80908">
        <ele>127</ele>
        <time>2022-08-24T08:03:28Z</time>
      </trkpt>
      <trkpt lat="43.32897" lon="-0.80933">
        <ele>127</ele>
        <time>2022-08-24T08:03:45Z</time>
      </trkpt>
      <trkpt lat="43.32885" lon="-0.80946">
        <ele>127</ele>
        <time>2022-08-24T08:03:57Z</time>
      </trkpt>
      <trkpt lat="43.32851" lon="-0.80971">
        <ele>126</ele>
        <time>2022-08-24T08:04:28Z</time>
      </trkpt>
      <trkpt lat="43.32814" lon="-0.80997">
        <ele>126</ele>
        <time>2022-08-24T08:05:00Z</time>
      </trkpt>
      <trkpt lat="43.32785" lon="-0.81015">
        <ele>126</ele>
        <time>2022-08-24T08:05:26Z</time>
      </trkpt>
      <trkpt lat="43.32744" lon="-0.81028">
        <ele>126</ele>
        <time>2022-08-24T08:05:58Z</time>
      </trkpt>
      <trkpt lat="43.32735" lon="-0.81032">
        <ele>126</ele>
        <time>2022-08-24T08:06:05Z</time>
      </trkpt>
      <trkpt lat="43.32718" lon="-0.81043">
        <ele>126</ele>
        <time>2022-08-24T08:06:17Z</time>
      </trkpt>
      <trkpt lat="43.32705" lon="-0.81058">
        <ele>127</ele>
        <time>2022-08-24T08:06:31Z</time>
      </trkpt>
      <trkpt lat="43.32679" lon="-0.81102">
        <ele>127</ele>
        <time>2022-08-24T08:07:03Z</time>
      </trkpt>
      <trkpt lat="43.32653" lon="-0.81144">
        <ele>128</ele>
        <time>2022-08-24T08:07:35Z</time>
      </trkpt>
      <trkpt lat="43.32634" lon="-0.81175">
        <ele>128</ele>
        <time>2022-08-24T08:07:58Z</time>
      </trkpt>
      <trkpt lat="43.32628" lon="-0.81197">
        <ele>128</ele>
        <time>2022-08-24T08:08:10Z</time>
      </trkpt>
      <trkpt lat="43.3262" lon="-0.81256">
        <ele>129</ele>
        <time>2022-08-24T08:08:42Z</time>
      </trkpt>
      <trkpt lat="43.32619" lon="-0.81263">
        <ele>129</ele>
        <time>2022-08-24T08:08:46Z</time>
      </trkpt>
      <trkpt lat="43.32608" lon="-0.81296">
        <ele>129</ele>
        <time>2022-08-24T08:09:06Z</time>
      </trkpt>
      <trkpt lat="43.32601" lon="-0.81308">
        <ele>129</ele>
        <time>2022-08-24T08:09:15Z</time>
      </trkpt>
      <trkpt lat="43.32568" lon="-0.81344">
        <ele>130</ele>
        <time>2022-08-24T08:09:47Z</time>
      </trkpt>
      <trkpt lat="43.32536" lon="-0.81376">
        <ele>129</ele>
        <time>2022-08-24T08:10:19Z</time>
      </trkpt>
      <trkpt lat="43.3251" lon="-0.81412">
        <ele>129</ele>
        <time>2022-08-24T08:10:47Z</time>
      </trkpt>
      <trkpt lat="43.32486" lon="-0.81457">
        <ele>129</ele>
        <time>2022-08-24T08:11:17Z</time>
      </trkpt>
      <trkpt lat="43.32474" lon="-0.81481">
        <ele>129</ele>
        <time>2022-08-24T08:11:34Z</time>
      </trkpt>
      <trkpt lat="43.3247" lon="-0.81494">
        <ele>129</ele>
        <time>2022-08-24T08:11:41Z</time>
      </trkpt>
      <trkpt lat="43.32469" lon="-0.81553">
        <ele>130</ele>
        <time>2022-08-24T08:12:14Z</time>
      </trkpt>
      <trkpt lat="43.32475" lon="-0.81605">
        <ele>130</ele>
        <time>2022-08-24T08:12:43Z</time>
      </trkpt>
      <trkpt lat="43.32478" lon="-0.81618">
        <ele>130</ele>
        <time>2022-08-24T08:12:50Z</time>
      </trkpt>
      <trkpt lat="43.32489" lon="-0.81676">
        <ele>130</ele>
        <time>2022-08-24T08:13:22Z</time>
      </trkpt>
      <trkpt lat="43.32494" lon="-0.81704">
        <ele>130</ele>
        <time>2022-08-24T08:13:40Z</time>
      </trkpt>
      <trkpt lat="43.32496" lon="-0.81721">
        <ele>129</ele>
        <time>2022-08-24T08:13:50Z</time>
      </trkpt>
      <trkpt lat="43.32501" lon="-0.81746">
        <ele>129</ele>
        <time>2022-08-24T08:14:06Z</time>
      </trkpt>
      <trkpt lat="43.32502" lon="-0.81755">
        <ele>129</ele>
        <time>2022-08-24T08:14:10Z</time>
      </trkpt>
      <trkpt lat="43.32506" lon="-0.81782">
        <ele>129</ele>
        <time>2022-08-24T08:14:25Z</time>
      </trkpt>
      <trkpt lat="43.32502" lon="-0.81806">
        <ele>130</ele>
        <time>2022-08-24T08:14:44Z</time>
      </trkpt>
      <trkpt lat="43.32506" lon="-0.81808">
        <ele>130</ele>
        <time>2022-08-24T08:14:50Z</time>
      </trkpt>
      <trkpt lat="43.32507" lon="-0.81816">
        <ele>130</ele>
        <time>2022-08-24T08:14:55Z</time>
      </trkpt>
      <trkpt lat="43.32502" lon="-0.81823">
        <ele>130</ele>
        <time>2022-08-24T08:15:00Z</time>
      </trkpt>
      <trkpt lat="43.32491" lon="-0.81871">
        <ele>130</ele>
        <time>2022-08-24T08:15:34Z</time>
      </trkpt>
      <trkpt lat="43.32486" lon="-0.81886">
        <ele>129</ele>
        <time>2022-08-24T08:15:43Z</time>
      </trkpt>
      <trkpt lat="43.32485" lon="-0.81894">
        <ele>129</ele>
        <time>2022-08-24T08:15:48Z</time>
      </trkpt>
      <trkpt lat="43.3248" lon="-0.81909">
        <ele>130</ele>
        <time>2022-08-24T08:15:57Z</time>
      </trkpt>
      <trkpt lat="43.32479" lon="-0.81916">
        <ele>130</ele>
        <time>2022-08-24T08:16:02Z</time>
      </trkpt>
      <trkpt lat="43.32476" lon="-0.81924">
        <ele>130</ele>
        <time>2022-08-24T08:16:06Z</time>
      </trkpt>
      <trkpt lat="43.32473" lon="-0.81939">
        <ele>130</ele>
        <time>2022-08-24T08:16:16Z</time>
      </trkpt>
      <trkpt lat="43.32468" lon="-0.81953">
        <ele>129</ele>
        <time>2022-08-24T08:16:23Z</time>
      </trkpt>
      <trkpt lat="43.32466" lon="-0.8196">
        <ele>129</ele>
        <time>2022-08-24T08:16:27Z</time>
      </trkpt>
      <trkpt lat="43.32466" lon="-0.81967">
        <ele>129</ele>
        <time>2022-08-24T08:16:32Z</time>
      </trkpt>
      <trkpt lat="43.32453" lon="-0.82022">
        <ele>130</ele>
        <time>2022-08-24T08:17:02Z</time>
      </trkpt>
      <trkpt lat="43.32453" lon="-0.82029">
        <ele>130</ele>
        <time>2022-08-24T08:17:07Z</time>
      </trkpt>
      <trkpt lat="43.32455" lon="-0.82044">
        <ele>130</ele>
        <time>2022-08-24T08:17:16Z</time>
      </trkpt>
      <trkpt lat="43.32469" lon="-0.82058">
        <ele>131</ele>
        <time>2022-08-24T08:17:31Z</time>
      </trkpt>
      <trkpt lat="43.32477" lon="-0.82071">
        <ele>131</ele>
        <time>2022-08-24T08:17:41Z</time>
      </trkpt>
      <trkpt lat="43.32476" lon="-0.82093">
        <ele>131</ele>
        <time>2022-08-24T08:17:55Z</time>
      </trkpt>
      <trkpt lat="43.32474" lon="-0.82112">
        <ele>132</ele>
        <time>2022-08-24T08:18:08Z</time>
      </trkpt>
      <trkpt lat="43.32481" lon="-0.82151">
        <ele>132</ele>
        <time>2022-08-24T08:18:34Z</time>
      </trkpt>
      <trkpt lat="43.32487" lon="-0.82159">
        <ele>133</ele>
        <time>2022-08-24T08:18:42Z</time>
      </trkpt>
      <trkpt lat="43.32493" lon="-0.82165">
        <ele>135</ele>
        <time>2022-08-24T08:18:50Z</time>
      </trkpt>
      <trkpt lat="43.325" lon="-0.82178">
        <ele>136</ele>
        <time>2022-08-24T08:18:59Z</time>
      </trkpt>
      <trkpt lat="43.32504" lon="-0.82192">
        <ele>137</ele>
        <time>2022-08-24T08:19:09Z</time>
      </trkpt>
      <trkpt lat="43.32515" lon="-0.82221">
        <ele>141</ele>
        <time>2022-08-24T08:19:28Z</time>
      </trkpt>
      <trkpt lat="43.32516" lon="-0.82227">
        <ele>141</ele>
        <time>2022-08-24T08:19:33Z</time>
      </trkpt>
      <trkpt lat="43.32535" lon="-0.8225">
        <ele>144</ele>
        <time>2022-08-24T08:19:58Z</time>
      </trkpt>
      <trkpt lat="43.32551" lon="-0.82263">
        <ele>146</ele>
        <time>2022-08-24T08:20:16Z</time>
      </trkpt>
      <trkpt lat="43.32557" lon="-0.82277">
        <ele>147</ele>
        <time>2022-08-24T08:20:28Z</time>
      </trkpt>
      <trkpt lat="43.32564" lon="-0.82296">
        <ele>147</ele>
        <time>2022-08-24T08:20:40Z</time>
      </trkpt>
      <trkpt lat="43.32567" lon="-0.823">
        <ele>147</ele>
        <time>2022-08-24T08:20:44Z</time>
      </trkpt>
      <trkpt lat="43.32571" lon="-0.82303">
        <ele>148</ele>
        <time>2022-08-24T08:20:49Z</time>
      </trkpt>
      <trkpt lat="43.32575" lon="-0.82309">
        <ele>148</ele>
        <time>2022-08-24T08:20:54Z</time>
      </trkpt>
      <trkpt lat="43.32584" lon="-0.82335">
        <ele>148</ele>
        <time>2022-08-24T08:21:12Z</time>
      </trkpt>
      <trkpt lat="43.32603" lon="-0.82367">
        <ele>149</ele>
        <time>2022-08-24T08:21:35Z</time>
      </trkpt>
      <trkpt lat="43.32607" lon="-0.82372">
        <ele>149</ele>
        <time>2022-08-24T08:21:38Z</time>
      </trkpt>
      <trkpt lat="43.32614" lon="-0.82385">
        <ele>149</ele>
        <time>2022-08-24T08:21:47Z</time>
      </trkpt>
      <trkpt lat="43.32636" lon="-0.82416">
        <ele>150</ele>
        <time>2022-08-24T08:22:13Z</time>
      </trkpt>
      <trkpt lat="43.32638" lon="-0.82422">
        <ele>151</ele>
        <time>2022-08-24T08:22:18Z</time>
      </trkpt>
      <trkpt lat="43.32663" lon="-0.82459">
        <ele>153</ele>
        <time>2022-08-24T08:22:46Z</time>
      </trkpt>
      <trkpt lat="43.32671" lon="-0.82468">
        <ele>153</ele>
        <time>2022-08-24T08:22:54Z</time>
      </trkpt>
      <trkpt lat="43.32688" lon="-0.82494">
        <ele>153</ele>
        <time>2022-08-24T08:23:13Z</time>
      </trkpt>
      <trkpt lat="43.32694" lon="-0.82513">
        <ele>153</ele>
        <time>2022-08-24T08:23:23Z</time>
      </trkpt>
      <trkpt lat="43.32715" lon="-0.82553">
        <ele>156</ele>
        <time>2022-08-24T08:23:55Z</time>
      </trkpt>
      <trkpt lat="43.32739" lon="-0.82594">
        <ele>157</ele>
        <time>2022-08-24T08:24:28Z</time>
      </trkpt>
      <trkpt lat="43.32746" lon="-0.82604">
        <ele>158</ele>
        <time>2022-08-24T08:24:35Z</time>
      </trkpt>
      <trkpt lat="43.32753" lon="-0.82611">
        <ele>158</ele>
        <time>2022-08-24T08:24:43Z</time>
      </trkpt>
      <trkpt lat="43.32758" lon="-0.82613">
        <ele>159</ele>
        <time>2022-08-24T08:24:47Z</time>
      </trkpt>
      <trkpt lat="43.32763" lon="-0.8261">
        <ele>159</ele>
        <time>2022-08-24T08:24:51Z</time>
      </trkpt>
      <trkpt lat="43.32787" lon="-0.82584">
        <ele>160</ele>
        <time>2022-08-24T08:25:14Z</time>
      </trkpt>
      <trkpt lat="43.32801" lon="-0.82571">
        <ele>160</ele>
        <time>2022-08-24T08:25:27Z</time>
      </trkpt>
      <trkpt lat="43.32806" lon="-0.8257">
        <ele>160</ele>
        <time>2022-08-24T08:25:32Z</time>
      </trkpt>
      <trkpt lat="43.32811" lon="-0.82573">
        <ele>160</ele>
        <time>2022-08-24T08:25:37Z</time>
      </trkpt>
      <trkpt lat="43.32818" lon="-0.82584">
        <ele>161</ele>
        <time>2022-08-24T08:25:46Z</time>
      </trkpt>
      <trkpt lat="43.32819" lon="-0.82589">
        <ele>161</ele>
        <time>2022-08-24T08:27:32Z</time>
      </trkpt>
      <trkpt lat="43.32827" lon="-0.82594">
        <ele>161</ele>
        <time>2022-08-24T08:28:01Z</time>
      </trkpt>
      <trkpt lat="43.32854" lon="-0.82628">
        <ele>162</ele>
        <time>2022-08-24T08:28:34Z</time>
      </trkpt>
      <trkpt lat="43.32862" lon="-0.82637">
        <ele>162</ele>
        <time>2022-08-24T08:28:43Z</time>
      </trkpt>
      <trkpt lat="43.32866" lon="-0.82639">
        <ele>162</ele>
        <time>2022-08-24T08:28:47Z</time>
      </trkpt>
      <trkpt lat="43.32898" lon="-0.82678">
        <ele>162</ele>
        <time>2022-08-24T08:29:20Z</time>
      </trkpt>
      <trkpt lat="43.32909" lon="-0.82698">
        <ele>161</ele>
        <time>2022-08-24T08:29:35Z</time>
      </trkpt>
      <trkpt lat="43.32941" lon="-0.82733">
        <ele>161</ele>
        <time>2022-08-24T08:30:09Z</time>
      </trkpt>
      <trkpt lat="43.32959" lon="-0.82742">
        <ele>161</ele>
        <time>2022-08-24T08:30:21Z</time>
      </trkpt>
      <trkpt lat="43.32981" lon="-0.82765">
        <ele>161</ele>
        <time>2022-08-24T08:30:41Z</time>
      </trkpt>
      <trkpt lat="43.33019" lon="-0.82793">
        <ele>161</ele>
        <time>2022-08-24T08:31:17Z</time>
      </trkpt>
      <trkpt lat="43.33024" lon="-0.82798">
        <ele>161</ele>
        <time>2022-08-24T08:31:21Z</time>
      </trkpt>
      <trkpt lat="43.33033" lon="-0.82807">
        <ele>162</ele>
        <time>2022-08-24T08:31:29Z</time>
      </trkpt>
      <trkpt lat="43.33037" lon="-0.82813">
        <ele>162</ele>
        <time>2022-08-24T08:31:33Z</time>
      </trkpt>
      <trkpt lat="43.33077" lon="-0.82843">
        <ele>163</ele>
        <time>2022-08-24T08:32:06Z</time>
      </trkpt>
      <trkpt lat="43.33104" lon="-0.82869">
        <ele>165</ele>
        <time>2022-08-24T08:32:33Z</time>
      </trkpt>
      <trkpt lat="43.33117" lon="-0.82891">
        <ele>166</ele>
        <time>2022-08-24T08:32:50Z</time>
      </trkpt>
      <trkpt lat="43.33136" lon="-0.82933">
        <ele>167</ele>
        <time>2022-08-24T08:33:21Z</time>
      </trkpt>
      <trkpt lat="43.33143" lon="-0.82946">
        <ele>168</ele>
        <time>2022-08-24T08:33:32Z</time>
      </trkpt>
      <trkpt lat="43.33145" lon="-0.82953">
        <ele>169</ele>
        <time>2022-08-24T08:33:37Z</time>
      </trkpt>
      <trkpt lat="43.33146" lon="-0.8296">
        <ele>169</ele>
        <time>2022-08-24T08:33:42Z</time>
      </trkpt>
      <trkpt lat="43.33153" lon="-0.82974">
        <ele>170</ele>
        <time>2022-08-24T08:33:53Z</time>
      </trkpt>
      <trkpt lat="43.33155" lon="-0.82989">
        <ele>170</ele>
        <time>2022-08-24T08:34:01Z</time>
      </trkpt>
      <trkpt lat="43.33159" lon="-0.83016">
        <ele>171</ele>
        <time>2022-08-24T08:34:18Z</time>
      </trkpt>
      <trkpt lat="43.33163" lon="-0.83054">
        <ele>172</ele>
        <time>2022-08-24T08:34:44Z</time>
      </trkpt>
      <trkpt lat="43.33162" lon="-0.83062">
        <ele>172</ele>
        <time>2022-08-24T08:34:48Z</time>
      </trkpt>
      <trkpt lat="43.33164" lon="-0.83083">
        <ele>171</ele>
        <time>2022-08-24T08:35:00Z</time>
      </trkpt>
      <trkpt lat="43.33168" lon="-0.83097">
        <ele>171</ele>
        <time>2022-08-24T08:35:09Z</time>
      </trkpt>
      <trkpt lat="43.33171" lon="-0.83102">
        <ele>170</ele>
        <time>2022-08-24T08:35:15Z</time>
      </trkpt>
      <trkpt lat="43.33194" lon="-0.83109">
        <ele>170</ele>
        <time>2022-08-24T08:35:34Z</time>
      </trkpt>
      <trkpt lat="43.33231" lon="-0.83113">
        <ele>170</ele>
        <time>2022-08-24T08:36:07Z</time>
      </trkpt>
      <trkpt lat="43.3324" lon="-0.83114">
        <ele>170</ele>
        <time>2022-08-24T08:36:14Z</time>
      </trkpt>
      <trkpt lat="43.33252" lon="-0.83117">
        <ele>170</ele>
        <time>2022-08-24T08:36:23Z</time>
      </trkpt>
      <trkpt lat="43.33253" lon="-0.83112">
        <ele>170</ele>
        <time>2022-08-24T08:36:45Z</time>
      </trkpt>
      <trkpt lat="43.33243" lon="-0.83106">
        <ele>169</ele>
        <time>2022-08-24T08:36:54Z</time>
      </trkpt>
      <trkpt lat="43.3323" lon="-0.83103">
        <ele>169</ele>
        <time>2022-08-24T08:37:03Z</time>
      </trkpt>
      <trkpt lat="43.33224" lon="-0.83101">
        <ele>169</ele>
        <time>2022-08-24T08:37:08Z</time>
      </trkpt>
      <trkpt lat="43.33199" lon="-0.83101">
        <ele>169</ele>
        <time>2022-08-24T08:37:27Z</time>
      </trkpt>
      <trkpt lat="43.33192" lon="-0.83098">
        <ele>169</ele>
        <time>2022-08-24T08:37:33Z</time>
      </trkpt>
      <trkpt lat="43.33177" lon="-0.83096">
        <ele>169</ele>
        <time>2022-08-24T08:37:46Z</time>
      </trkpt>
      <trkpt lat="43.33171" lon="-0.83094">
        <ele>169</ele>
        <time>2022-08-24T08:37:51Z</time>
      </trkpt>
      <trkpt lat="43.3316" lon="-0.83093">
        <ele>169</ele>
        <time>2022-08-24T08:38:00Z</time>
      </trkpt>
      <trkpt lat="43.3314" lon="-0.83082">
        <ele>170</ele>
        <time>2022-08-24T08:38:19Z</time>
      </trkpt>
      <trkpt lat="43.33131" lon="-0.83075">
        <ele>170</ele>
        <time>2022-08-24T08:38:29Z</time>
      </trkpt>
      <trkpt lat="43.33116" lon="-0.8307">
        <ele>170</ele>
        <time>2022-08-24T08:38:43Z</time>
      </trkpt>
      <trkpt lat="43.33111" lon="-0.83066">
        <ele>170</ele>
        <time>2022-08-24T08:38:48Z</time>
      </trkpt>
      <trkpt lat="43.33106" lon="-0.83065">
        <ele>169</ele>
        <time>2022-08-24T08:38:52Z</time>
      </trkpt>
      <trkpt lat="43.33076" lon="-0.83043">
        <ele>167</ele>
        <time>2022-08-24T08:39:25Z</time>
      </trkpt>
      <trkpt lat="43.33066" lon="-0.83037">
        <ele>166</ele>
        <time>2022-08-24T08:39:35Z</time>
      </trkpt>
      <trkpt lat="43.33038" lon="-0.83007">
        <ele>165</ele>
        <time>2022-08-24T08:40:05Z</time>
      </trkpt>
      <trkpt lat="43.33023" lon="-0.83">
        <ele>164</ele>
        <time>2022-08-24T08:40:17Z</time>
      </trkpt>
      <trkpt lat="43.33013" lon="-0.82999">
        <ele>163</ele>
        <time>2022-08-24T08:40:25Z</time>
      </trkpt>
      <trkpt lat="43.32974" lon="-0.83012">
        <ele>161</ele>
        <time>2022-08-24T08:40:58Z</time>
      </trkpt>
      <trkpt lat="43.32938" lon="-0.83011">
        <ele>160</ele>
        <time>2022-08-24T08:41:25Z</time>
      </trkpt>
      <trkpt lat="43.32895" lon="-0.83003">
        <ele>159</ele>
        <time>2022-08-24T08:41:58Z</time>
      </trkpt>
      <trkpt lat="43.32858" lon="-0.82993">
        <ele>157</ele>
        <time>2022-08-24T08:42:30Z</time>
      </trkpt>
      <trkpt lat="43.32816" lon="-0.8298">
        <ele>155</ele>
        <time>2022-08-24T08:43:02Z</time>
      </trkpt>
      <trkpt lat="43.32802" lon="-0.82973">
        <ele>154</ele>
        <time>2022-08-24T08:43:12Z</time>
      </trkpt>
      <trkpt lat="43.32797" lon="-0.82974">
        <ele>153</ele>
        <time>2022-08-24T08:43:16Z</time>
      </trkpt>
      <trkpt lat="43.32793" lon="-0.82972">
        <ele>153</ele>
        <time>2022-08-24T08:43:20Z</time>
      </trkpt>
      <trkpt lat="43.32762" lon="-0.82962">
        <ele>151</ele>
        <time>2022-08-24T08:43:53Z</time>
      </trkpt>
      <trkpt lat="43.32729" lon="-0.8295">
        <ele>147</ele>
        <time>2022-08-24T08:44:17Z</time>
      </trkpt>
      <trkpt lat="43.32725" lon="-0.82946">
        <ele>147</ele>
        <time>2022-08-24T08:44:20Z</time>
      </trkpt>
      <trkpt lat="43.32716" lon="-0.82942">
        <ele>146</ele>
        <time>2022-08-24T08:44:27Z</time>
      </trkpt>
      <trkpt lat="43.32707" lon="-0.82935">
        <ele>144</ele>
        <time>2022-08-24T08:44:35Z</time>
      </trkpt>
      <trkpt lat="43.32692" lon="-0.82929">
        <ele>142</ele>
        <time>2022-08-24T08:44:46Z</time>
      </trkpt>
      <trkpt lat="43.32681" lon="-0.82931">
        <ele>141</ele>
        <time>2022-08-24T08:44:55Z</time>
      </trkpt>
      <trkpt lat="43.32675" lon="-0.8294">
        <ele>140</ele>
        <time>2022-08-24T08:45:01Z</time>
      </trkpt>
      <trkpt lat="43.32672" lon="-0.82946">
        <ele>140</ele>
        <time>2022-08-24T08:45:04Z</time>
      </trkpt>
      <trkpt lat="43.32668" lon="-0.8295">
        <ele>139</ele>
        <time>2022-08-24T08:45:08Z</time>
      </trkpt>
      <trkpt lat="43.3265" lon="-0.82978">
        <ele>136</ele>
        <time>2022-08-24T08:45:28Z</time>
      </trkpt>
      <trkpt lat="43.32643" lon="-0.82987">
        <ele>135</ele>
        <time>2022-08-24T08:45:36Z</time>
      </trkpt>
      <trkpt lat="43.32633" lon="-0.83008">
        <ele>133</ele>
        <time>2022-08-24T08:45:54Z</time>
      </trkpt>
      <trkpt lat="43.32629" lon="-0.83013">
        <ele>132</ele>
        <time>2022-08-24T08:45:59Z</time>
      </trkpt>
      <trkpt lat="43.32627" lon="-0.8302">
        <ele>132</ele>
        <time>2022-08-24T08:46:04Z</time>
      </trkpt>
      <trkpt lat="43.32629" lon="-0.83028">
        <ele>132</ele>
        <time>2022-08-24T08:46:09Z</time>
      </trkpt>
      <trkpt lat="43.32638" lon="-0.83046">
        <ele>133</ele>
        <time>2022-08-24T08:46:24Z</time>
      </trkpt>
      <trkpt lat="43.32643" lon="-0.83074">
        <ele>134</ele>
        <time>2022-08-24T08:46:41Z</time>
      </trkpt>
      <trkpt lat="43.32642" lon="-0.83081">
        <ele>134</ele>
        <time>2022-08-24T08:46:47Z</time>
      </trkpt>
      <trkpt lat="43.32629" lon="-0.83106">
        <ele>134</ele>
        <time>2022-08-24T08:47:06Z</time>
      </trkpt>
      <trkpt lat="43.32625" lon="-0.8311">
        <ele>135</ele>
        <time>2022-08-24T08:47:13Z</time>
      </trkpt>
      <trkpt lat="43.32622" lon="-0.83115">
        <ele>135</ele>
        <time>2022-08-24T08:47:17Z</time>
      </trkpt>
      <trkpt lat="43.32612" lon="-0.83134">
        <ele>135</ele>
        <time>2022-08-24T08:47:30Z</time>
      </trkpt>
      <trkpt lat="43.32604" lon="-0.83145">
        <ele>136</ele>
        <time>2022-08-24T08:47:40Z</time>
      </trkpt>
      <trkpt lat="43.32591" lon="-0.83168">
        <ele>138</ele>
        <time>2022-08-24T08:48:04Z</time>
      </trkpt>
      <trkpt lat="43.32583" lon="-0.83174">
        <ele>139</ele>
        <time>2022-08-24T08:48:16Z</time>
      </trkpt>
      <trkpt lat="43.32566" lon="-0.83169">
        <ele>142</ele>
        <time>2022-08-24T08:48:35Z</time>
      </trkpt>
      <trkpt lat="43.32553" lon="-0.83155">
        <ele>144</ele>
        <time>2022-08-24T08:48:55Z</time>
      </trkpt>
      <trkpt lat="43.32546" lon="-0.83145">
        <ele>146</ele>
        <time>2022-08-24T08:49:09Z</time>
      </trkpt>
      <trkpt lat="43.3253" lon="-0.8314">
        <ele>148</ele>
        <time>2022-08-24T08:49:26Z</time>
      </trkpt>
      <trkpt lat="43.32519" lon="-0.83144">
        <ele>149</ele>
        <time>2022-08-24T08:49:33Z</time>
      </trkpt>
      <trkpt lat="43.32504" lon="-0.8316">
        <ele>152</ele>
        <time>2022-08-24T08:49:58Z</time>
      </trkpt>
      <trkpt lat="43.32491" lon="-0.83202">
        <ele>156</ele>
        <time>2022-08-24T08:50:33Z</time>
      </trkpt>
      <trkpt lat="43.32469" lon="-0.83234">
        <ele>159</ele>
        <time>2022-08-24T08:51:04Z</time>
      </trkpt>
      <trkpt lat="43.32447" lon="-0.83274">
        <ele>162</ele>
        <time>2022-08-24T08:51:39Z</time>
      </trkpt>
      <trkpt lat="43.32439" lon="-0.83292">
        <ele>163</ele>
        <time>2022-08-24T08:51:52Z</time>
      </trkpt>
      <trkpt lat="43.32435" lon="-0.83298">
        <ele>163</ele>
        <time>2022-08-24T08:51:57Z</time>
      </trkpt>
      <trkpt lat="43.3243" lon="-0.83306">
        <ele>163</ele>
        <time>2022-08-24T08:52:04Z</time>
      </trkpt>
      <trkpt lat="43.32424" lon="-0.83323">
        <ele>164</ele>
        <time>2022-08-24T08:52:15Z</time>
      </trkpt>
      <trkpt lat="43.32424" lon="-0.83333">
        <ele>164</ele>
        <time>2022-08-24T08:52:19Z</time>
      </trkpt>
      <trkpt lat="43.32427" lon="-0.83346">
        <ele>164</ele>
        <time>2022-08-24T08:52:28Z</time>
      </trkpt>
      <trkpt lat="43.32436" lon="-0.83363">
        <ele>164</ele>
        <time>2022-08-24T08:52:42Z</time>
      </trkpt>
      <trkpt lat="43.32433" lon="-0.8337">
        <ele>163</ele>
        <time>2022-08-24T08:52:47Z</time>
      </trkpt>
      <trkpt lat="43.32408" lon="-0.83401">
        <ele>164</ele>
        <time>2022-08-24T08:53:20Z</time>
      </trkpt>
      <trkpt lat="43.32384" lon="-0.83427">
        <ele>164</ele>
        <time>2022-08-24T08:53:45Z</time>
      </trkpt>
      <trkpt lat="43.32364" lon="-0.83439">
        <ele>165</ele>
        <time>2022-08-24T08:54:02Z</time>
      </trkpt>
      <trkpt lat="43.32327" lon="-0.8345">
        <ele>166</ele>
        <time>2022-08-24T08:54:33Z</time>
      </trkpt>
      <trkpt lat="43.32287" lon="-0.83464">
        <ele>168</ele>
        <time>2022-08-24T08:55:05Z</time>
      </trkpt>
      <trkpt lat="43.32273" lon="-0.8347">
        <ele>169</ele>
        <time>2022-08-24T08:55:20Z</time>
      </trkpt>
      <trkpt lat="43.32264" lon="-0.83475">
        <ele>169</ele>
        <time>2022-08-24T08:55:29Z</time>
      </trkpt>
      <trkpt lat="43.32253" lon="-0.83478">
        <ele>169</ele>
        <time>2022-08-24T08:55:38Z</time>
      </trkpt>
      <trkpt lat="43.32242" lon="-0.83484">
        <ele>168</ele>
        <time>2022-08-24T08:55:47Z</time>
      </trkpt>
      <trkpt lat="43.32236" lon="-0.83485">
        <ele>168</ele>
        <time>2022-08-24T08:55:51Z</time>
      </trkpt>
      <trkpt lat="43.32232" lon="-0.83488">
        <ele>168</ele>
        <time>2022-08-24T08:55:54Z</time>
      </trkpt>
      <trkpt lat="43.32212" lon="-0.83494">
        <ele>168</ele>
        <time>2022-08-24T08:56:08Z</time>
      </trkpt>
      <trkpt lat="43.32203" lon="-0.83498">
        <ele>168</ele>
        <time>2022-08-24T08:56:16Z</time>
      </trkpt>
      <trkpt lat="43.32193" lon="-0.83504">
        <ele>169</ele>
        <time>2022-08-24T08:56:29Z</time>
      </trkpt>
      <trkpt lat="43.32163" lon="-0.83509">
        <ele>171</ele>
        <time>2022-08-24T08:57:18Z</time>
      </trkpt>
      <trkpt lat="43.32168" lon="-0.83511">
        <ele>171</ele>
        <time>2022-08-24T08:58:12Z</time>
      </trkpt>
      <trkpt lat="43.32168" lon="-0.83506">
        <ele>171</ele>
        <time>2022-08-24T09:05:50Z</time>
      </trkpt>
      <trkpt lat="43.32169" lon="-0.83507">
        <ele>171</ele>
        <time>2022-08-24T09:08:11Z</time>
      </trkpt>
      <trkpt lat="43.32167" lon="-0.83506">
        <ele>170</ele>
        <time>2022-08-24T09:13:29Z</time>
      </trkpt>
      <trkpt lat="43.32159" lon="-0.83511">
        <ele>171</ele>
        <time>2022-08-24T09:14:44Z</time>
      </trkpt>
      <trkpt lat="43.32155" lon="-0.83511">
        <ele>171</ele>
        <time>2022-08-24T09:14:49Z</time>
      </trkpt>
      <trkpt lat="43.32145" lon="-0.83514">
        <ele>171</ele>
        <time>2022-08-24T09:15:09Z</time>
      </trkpt>
      <trkpt lat="43.32108" lon="-0.83518">
        <ele>172</ele>
        <time>2022-08-24T09:15:42Z</time>
      </trkpt>
      <trkpt lat="43.32069" lon="-0.83524">
        <ele>176</ele>
        <time>2022-08-24T09:16:14Z</time>
      </trkpt>
      <trkpt lat="43.3206" lon="-0.83526">
        <ele>176</ele>
        <time>2022-08-24T09:16:23Z</time>
      </trkpt>
      <trkpt lat="43.32022" lon="-0.83536">
        <ele>176</ele>
        <time>2022-08-24T09:16:55Z</time>
      </trkpt>
      <trkpt lat="43.3199" lon="-0.83554">
        <ele>178</ele>
        <time>2022-08-24T09:17:23Z</time>
      </trkpt>
      <trkpt lat="43.31984" lon="-0.83555">
        <ele>178</ele>
        <time>2022-08-24T09:17:27Z</time>
      </trkpt>
      <trkpt lat="43.3198" lon="-0.83557">
        <ele>178</ele>
        <time>2022-08-24T09:17:31Z</time>
      </trkpt>
      <trkpt lat="43.31944" lon="-0.83563">
        <ele>180</ele>
        <time>2022-08-24T09:17:59Z</time>
      </trkpt>
      <trkpt lat="43.31924" lon="-0.8357">
        <ele>180</ele>
        <time>2022-08-24T09:18:16Z</time>
      </trkpt>
      <trkpt lat="43.31915" lon="-0.83572">
        <ele>180</ele>
        <time>2022-08-24T09:18:23Z</time>
      </trkpt>
      <trkpt lat="43.31911" lon="-0.83574">
        <ele>180</ele>
        <time>2022-08-24T09:18:27Z</time>
      </trkpt>
      <trkpt lat="43.31906" lon="-0.83574">
        <ele>180</ele>
        <time>2022-08-24T09:18:31Z</time>
      </trkpt>
      <trkpt lat="43.31866" lon="-0.83589">
        <ele>183</ele>
        <time>2022-08-24T09:19:04Z</time>
      </trkpt>
      <trkpt lat="43.31853" lon="-0.83594">
        <ele>184</ele>
        <time>2022-08-24T09:19:14Z</time>
      </trkpt>
      <trkpt lat="43.31842" lon="-0.83596">
        <ele>184</ele>
        <time>2022-08-24T09:19:21Z</time>
      </trkpt>
      <trkpt lat="43.31811" lon="-0.83611">
        <ele>188</ele>
        <time>2022-08-24T09:20:04Z</time>
      </trkpt>
      <trkpt lat="43.31796" lon="-0.83615">
        <ele>190</ele>
        <time>2022-08-24T09:20:17Z</time>
      </trkpt>
      <trkpt lat="43.31786" lon="-0.83618">
        <ele>190</ele>
        <time>2022-08-24T09:20:25Z</time>
      </trkpt>
      <trkpt lat="43.31751" lon="-0.8363">
        <ele>194</ele>
        <time>2022-08-24T09:20:58Z</time>
      </trkpt>
      <trkpt lat="43.31747" lon="-0.83632">
        <ele>194</ele>
        <time>2022-08-24T09:21:02Z</time>
      </trkpt>
      <trkpt lat="43.31742" lon="-0.83635">
        <ele>194</ele>
        <time>2022-08-24T09:21:06Z</time>
      </trkpt>
      <trkpt lat="43.31739" lon="-0.83639">
        <ele>194</ele>
        <time>2022-08-24T09:21:10Z</time>
      </trkpt>
      <trkpt lat="43.31736" lon="-0.83645">
        <ele>194</ele>
        <time>2022-08-24T09:21:14Z</time>
      </trkpt>
      <trkpt lat="43.31732" lon="-0.83664">
        <ele>193</ele>
        <time>2022-08-24T09:21:27Z</time>
      </trkpt>
      <trkpt lat="43.3173" lon="-0.8367">
        <ele>193</ele>
        <time>2022-08-24T09:21:32Z</time>
      </trkpt>
      <trkpt lat="43.31728" lon="-0.83676">
        <ele>194</ele>
        <time>2022-08-24T09:21:37Z</time>
      </trkpt>
      <trkpt lat="43.31725" lon="-0.83681">
        <ele>194</ele>
        <time>2022-08-24T09:21:41Z</time>
      </trkpt>
      <trkpt lat="43.31721" lon="-0.83684">
        <ele>194</ele>
        <time>2022-08-24T09:21:45Z</time>
      </trkpt>
      <trkpt lat="43.31718" lon="-0.83689">
        <ele>194</ele>
        <time>2022-08-24T09:21:49Z</time>
      </trkpt>
      <trkpt lat="43.31711" lon="-0.83707">
        <ele>195</ele>
        <time>2022-08-24T09:22:01Z</time>
      </trkpt>
      <trkpt lat="43.31708" lon="-0.83719">
        <ele>196</ele>
        <time>2022-08-24T09:22:09Z</time>
      </trkpt>
      <trkpt lat="43.317" lon="-0.83736">
        <ele>196</ele>
        <time>2022-08-24T09:22:22Z</time>
      </trkpt>
      <trkpt lat="43.31676" lon="-0.8378">
        <ele>194</ele>
        <time>2022-08-24T09:22:54Z</time>
      </trkpt>
      <trkpt lat="43.31664" lon="-0.83806">
        <ele>192</ele>
        <time>2022-08-24T09:23:11Z</time>
      </trkpt>
      <trkpt lat="43.31652" lon="-0.8382">
        <ele>191</ele>
        <time>2022-08-24T09:23:23Z</time>
      </trkpt>
      <trkpt lat="43.31635" lon="-0.83833">
        <ele>189</ele>
        <time>2022-08-24T09:23:39Z</time>
      </trkpt>
      <trkpt lat="43.31631" lon="-0.83837">
        <ele>189</ele>
        <time>2022-08-24T09:23:43Z</time>
      </trkpt>
      <trkpt lat="43.31617" lon="-0.83878">
        <ele>186</ele>
        <time>2022-08-24T09:24:08Z</time>
      </trkpt>
      <trkpt lat="43.31603" lon="-0.83929">
        <ele>182</ele>
        <time>2022-08-24T09:24:39Z</time>
      </trkpt>
      <trkpt lat="43.31584" lon="-0.83978">
        <ele>179</ele>
        <time>2022-08-24T09:25:11Z</time>
      </trkpt>
      <trkpt lat="43.31565" lon="-0.84003">
        <ele>178</ele>
        <time>2022-08-24T09:25:29Z</time>
      </trkpt>
      <trkpt lat="43.31561" lon="-0.84005">
        <ele>177</ele>
        <time>2022-08-24T09:25:33Z</time>
      </trkpt>
      <trkpt lat="43.31558" lon="-0.84009">
        <ele>177</ele>
        <time>2022-08-24T09:25:37Z</time>
      </trkpt>
      <trkpt lat="43.31555" lon="-0.84015">
        <ele>177</ele>
        <time>2022-08-24T09:25:41Z</time>
      </trkpt>
      <trkpt lat="43.31518" lon="-0.8404">
        <ele>176</ele>
        <time>2022-08-24T09:26:12Z</time>
      </trkpt>
      <trkpt lat="43.31479" lon="-0.84056">
        <ele>173</ele>
        <time>2022-08-24T09:26:44Z</time>
      </trkpt>
      <trkpt lat="43.31438" lon="-0.84068">
        <ele>172</ele>
        <time>2022-08-24T09:27:14Z</time>
      </trkpt>
      <trkpt lat="43.31426" lon="-0.84072">
        <ele>172</ele>
        <time>2022-08-24T09:27:22Z</time>
      </trkpt>
      <trkpt lat="43.31421" lon="-0.84072">
        <ele>172</ele>
        <time>2022-08-24T09:27:26Z</time>
      </trkpt>
      <trkpt lat="43.31416" lon="-0.84076">
        <ele>172</ele>
        <time>2022-08-24T09:27:31Z</time>
      </trkpt>
      <trkpt lat="43.31387" lon="-0.84087">
        <ele>170</ele>
        <time>2022-08-24T09:27:55Z</time>
      </trkpt>
      <trkpt lat="43.31347" lon="-0.84095">
        <ele>169</ele>
        <time>2022-08-24T09:28:27Z</time>
      </trkpt>
      <trkpt lat="43.31337" lon="-0.84097">
        <ele>168</ele>
        <time>2022-08-24T09:28:35Z</time>
      </trkpt>
      <trkpt lat="43.31332" lon="-0.841">
        <ele>168</ele>
        <time>2022-08-24T09:28:39Z</time>
      </trkpt>
      <trkpt lat="43.31327" lon="-0.84099">
        <ele>168</ele>
        <time>2022-08-24T09:28:43Z</time>
      </trkpt>
      <trkpt lat="43.31318" lon="-0.84102">
        <ele>168</ele>
        <time>2022-08-24T09:28:50Z</time>
      </trkpt>
      <trkpt lat="43.31313" lon="-0.84101">
        <ele>168</ele>
        <time>2022-08-24T09:28:54Z</time>
      </trkpt>
      <trkpt lat="43.31298" lon="-0.84104">
        <ele>168</ele>
        <time>2022-08-24T09:29:05Z</time>
      </trkpt>
      <trkpt lat="43.31287" lon="-0.84106">
        <ele>169</ele>
        <time>2022-08-24T09:29:13Z</time>
      </trkpt>
      <trkpt lat="43.31257" lon="-0.84112">
        <ele>169</ele>
        <time>2022-08-24T09:29:37Z</time>
      </trkpt>
      <trkpt lat="43.31252" lon="-0.84112">
        <ele>169</ele>
        <time>2022-08-24T09:29:41Z</time>
      </trkpt>
      <trkpt lat="43.31227" lon="-0.84119">
        <ele>169</ele>
        <time>2022-08-24T09:30:01Z</time>
      </trkpt>
      <trkpt lat="43.31223" lon="-0.84123">
        <ele>169</ele>
        <time>2022-08-24T09:30:05Z</time>
      </trkpt>
      <trkpt lat="43.31219" lon="-0.84128">
        <ele>169</ele>
        <time>2022-08-24T09:30:09Z</time>
      </trkpt>
      <trkpt lat="43.3121" lon="-0.84132">
        <ele>169</ele>
        <time>2022-08-24T09:30:17Z</time>
      </trkpt>
      <trkpt lat="43.31198" lon="-0.84144">
        <ele>169</ele>
        <time>2022-08-24T09:30:29Z</time>
      </trkpt>
      <trkpt lat="43.31192" lon="-0.84154">
        <ele>168</ele>
        <time>2022-08-24T09:30:36Z</time>
      </trkpt>
      <trkpt lat="43.31191" lon="-0.8416">
        <ele>168</ele>
        <time>2022-08-24T09:30:40Z</time>
      </trkpt>
      <trkpt lat="43.3119" lon="-0.84189">
        <ele>167</ele>
        <time>2022-08-24T09:30:56Z</time>
      </trkpt>
      <trkpt lat="43.31197" lon="-0.8425">
        <ele>164</ele>
        <time>2022-08-24T09:31:28Z</time>
      </trkpt>
      <trkpt lat="43.31202" lon="-0.84309">
        <ele>160</ele>
        <time>2022-08-24T09:31:58Z</time>
      </trkpt>
      <trkpt lat="43.31188" lon="-0.84365">
        <ele>156</ele>
        <time>2022-08-24T09:32:29Z</time>
      </trkpt>
      <trkpt lat="43.31186" lon="-0.84386">
        <ele>154</ele>
        <time>2022-08-24T09:32:41Z</time>
      </trkpt>
      <trkpt lat="43.31186" lon="-0.84402">
        <ele>152</ele>
        <time>2022-08-24T09:32:51Z</time>
      </trkpt>
      <trkpt lat="43.31183" lon="-0.84419">
        <ele>151</ele>
        <time>2022-08-24T09:33:04Z</time>
      </trkpt>
      <trkpt lat="43.31175" lon="-0.84436">
        <ele>150</ele>
        <time>2022-08-24T09:33:16Z</time>
      </trkpt>
      <trkpt lat="43.31169" lon="-0.84445">
        <ele>149</ele>
        <time>2022-08-24T09:33:24Z</time>
      </trkpt>
      <trkpt lat="43.31162" lon="-0.84457">
        <ele>148</ele>
        <time>2022-08-24T09:33:33Z</time>
      </trkpt>
      <trkpt lat="43.31155" lon="-0.84483">
        <ele>146</ele>
        <time>2022-08-24T09:33:49Z</time>
      </trkpt>
      <trkpt lat="43.3115" lon="-0.84495">
        <ele>145</ele>
        <time>2022-08-24T09:33:57Z</time>
      </trkpt>
      <trkpt lat="43.31145" lon="-0.84514">
        <ele>144</ele>
        <time>2022-08-24T09:34:10Z</time>
      </trkpt>
      <trkpt lat="43.31123" lon="-0.84568">
        <ele>139</ele>
        <time>2022-08-24T09:34:45Z</time>
      </trkpt>
      <trkpt lat="43.3112" lon="-0.84574">
        <ele>139</ele>
        <time>2022-08-24T09:34:50Z</time>
      </trkpt>
      <trkpt lat="43.31117" lon="-0.84579">
        <ele>139</ele>
        <time>2022-08-24T09:34:53Z</time>
      </trkpt>
      <trkpt lat="43.3111" lon="-0.84596">
        <ele>137</ele>
        <time>2022-08-24T09:35:04Z</time>
      </trkpt>
      <trkpt lat="43.3109" lon="-0.84638">
        <ele>134</ele>
        <time>2022-08-24T09:35:32Z</time>
      </trkpt>
      <trkpt lat="43.31085" lon="-0.84651">
        <ele>133</ele>
        <time>2022-08-24T09:35:39Z</time>
      </trkpt>
      <trkpt lat="43.31074" lon="-0.84666">
        <ele>131</ele>
        <time>2022-08-24T09:35:49Z</time>
      </trkpt>
      <trkpt lat="43.31064" lon="-0.84693">
        <ele>129</ele>
        <time>2022-08-24T09:36:04Z</time>
      </trkpt>
      <trkpt lat="43.31063" lon="-0.84709">
        <ele>127</ele>
        <time>2022-08-24T09:36:16Z</time>
      </trkpt>
      <trkpt lat="43.31066" lon="-0.84731">
        <ele>125</ele>
        <time>2022-08-24T09:36:31Z</time>
      </trkpt>
      <trkpt lat="43.31069" lon="-0.84752">
        <ele>124</ele>
        <time>2022-08-24T09:36:45Z</time>
      </trkpt>
      <trkpt lat="43.3107" lon="-0.84759">
        <ele>124</ele>
        <time>2022-08-24T09:36:50Z</time>
      </trkpt>
      <trkpt lat="43.31071" lon="-0.84765">
        <ele>124</ele>
        <time>2022-08-24T09:36:54Z</time>
      </trkpt>
      <trkpt lat="43.31071" lon="-0.84773">
        <ele>124</ele>
        <time>2022-08-24T09:36:59Z</time>
      </trkpt>
      <trkpt lat="43.31066" lon="-0.84794">
        <ele>124</ele>
        <time>2022-08-24T09:37:12Z</time>
      </trkpt>
      <trkpt lat="43.31045" lon="-0.84841">
        <ele>125</ele>
        <time>2022-08-24T09:37:44Z</time>
      </trkpt>
      <trkpt lat="43.31026" lon="-0.84874">
        <ele>125</ele>
        <time>2022-08-24T09:38:07Z</time>
      </trkpt>
      <trkpt lat="43.31013" lon="-0.84895">
        <ele>125</ele>
        <time>2022-08-24T09:38:23Z</time>
      </trkpt>
      <trkpt lat="43.31002" lon="-0.84919">
        <ele>124</ele>
        <time>2022-08-24T09:38:38Z</time>
      </trkpt>
      <trkpt lat="43.30983" lon="-0.84969">
        <ele>122</ele>
        <time>2022-08-24T09:39:10Z</time>
      </trkpt>
      <trkpt lat="43.30965" lon="-0.8502">
        <ele>120</ele>
        <time>2022-08-24T09:39:41Z</time>
      </trkpt>
      <trkpt lat="43.30946" lon="-0.85069">
        <ele>119</ele>
        <time>2022-08-24T09:40:12Z</time>
      </trkpt>
      <trkpt lat="43.30932" lon="-0.85114">
        <ele>118</ele>
        <time>2022-08-24T09:40:39Z</time>
      </trkpt>
      <trkpt lat="43.30929" lon="-0.85143">
        <ele>118</ele>
        <time>2022-08-24T09:40:55Z</time>
      </trkpt>
      <trkpt lat="43.30929" lon="-0.85149">
        <ele>118</ele>
        <time>2022-08-24T09:40:59Z</time>
      </trkpt>
      <trkpt lat="43.30927" lon="-0.85178">
        <ele>118</ele>
        <time>2022-08-24T09:41:15Z</time>
      </trkpt>
      <trkpt lat="43.30927" lon="-0.85205">
        <ele>119</ele>
        <time>2022-08-24T09:41:30Z</time>
      </trkpt>
      <trkpt lat="43.30929" lon="-0.8522">
        <ele>119</ele>
        <time>2022-08-24T09:41:39Z</time>
      </trkpt>
      <trkpt lat="43.30929" lon="-0.85248">
        <ele>120</ele>
        <time>2022-08-24T09:41:55Z</time>
      </trkpt>
      <trkpt lat="43.30931" lon="-0.85255">
        <ele>120</ele>
        <time>2022-08-24T09:42:00Z</time>
      </trkpt>
      <trkpt lat="43.30932" lon="-0.85275">
        <ele>120</ele>
        <time>2022-08-24T09:42:12Z</time>
      </trkpt>
      <trkpt lat="43.30933" lon="-0.85282">
        <ele>120</ele>
        <time>2022-08-24T09:42:16Z</time>
      </trkpt>
      <trkpt lat="43.30934" lon="-0.85297">
        <ele>120</ele>
        <time>2022-08-24T09:42:24Z</time>
      </trkpt>
      <trkpt lat="43.30939" lon="-0.8533">
        <ele>120</ele>
        <time>2022-08-24T09:42:45Z</time>
      </trkpt>
      <trkpt lat="43.30942" lon="-0.85337">
        <ele>121</ele>
        <time>2022-08-24T09:43:17Z</time>
      </trkpt>
      <trkpt lat="43.30948" lon="-0.85372">
        <ele>120</ele>
        <time>2022-08-24T09:43:48Z</time>
      </trkpt>
      <trkpt lat="43.30951" lon="-0.85378">
        <ele>120</ele>
        <time>2022-08-24T09:43:52Z</time>
      </trkpt>
      <trkpt lat="43.30952" lon="-0.85385">
        <ele>120</ele>
        <time>2022-08-24T09:43:56Z</time>
      </trkpt>
      <trkpt lat="43.30968" lon="-0.85438">
        <ele>119</ele>
        <time>2022-08-24T09:44:27Z</time>
      </trkpt>
      <trkpt lat="43.30971" lon="-0.85452">
        <ele>119</ele>
        <time>2022-08-24T09:44:35Z</time>
      </trkpt>
      <trkpt lat="43.3098" lon="-0.85471">
        <ele>118</ele>
        <time>2022-08-24T09:44:48Z</time>
      </trkpt>
      <trkpt lat="43.30999" lon="-0.85496">
        <ele>119</ele>
        <time>2022-08-24T09:45:09Z</time>
      </trkpt>
      <trkpt lat="43.31004" lon="-0.85499">
        <ele>119</ele>
        <time>2022-08-24T09:45:13Z</time>
      </trkpt>
      <trkpt lat="43.3101" lon="-0.85515">
        <ele>119</ele>
        <time>2022-08-24T09:45:24Z</time>
      </trkpt>
      <trkpt lat="43.3101" lon="-0.85522">
        <ele>119</ele>
        <time>2022-08-24T09:45:28Z</time>
      </trkpt>
      <trkpt lat="43.31015" lon="-0.85534">
        <ele>119</ele>
        <time>2022-08-24T09:45:37Z</time>
      </trkpt>
      <trkpt lat="43.31016" lon="-0.8554">
        <ele>119</ele>
        <time>2022-08-24T09:45:40Z</time>
      </trkpt>
      <trkpt lat="43.31017" lon="-0.85547">
        <ele>119</ele>
        <time>2022-08-24T09:45:45Z</time>
      </trkpt>
      <trkpt lat="43.31017" lon="-0.85554">
        <ele>119</ele>
        <time>2022-08-24T09:45:49Z</time>
      </trkpt>
      <trkpt lat="43.31017" lon="-0.85563">
        <ele>119</ele>
        <time>2022-08-24T09:45:55Z</time>
      </trkpt>
      <trkpt lat="43.31016" lon="-0.85569">
        <ele>119</ele>
        <time>2022-08-24T09:46:00Z</time>
      </trkpt>
      <trkpt lat="43.31014" lon="-0.85576">
        <ele>119</ele>
        <time>2022-08-24T09:46:04Z</time>
      </trkpt>
      <trkpt lat="43.31009" lon="-0.85632">
        <ele>118</ele>
        <time>2022-08-24T09:46:36Z</time>
      </trkpt>
      <trkpt lat="43.31002" lon="-0.85693">
        <ele>118</ele>
        <time>2022-08-24T09:47:10Z</time>
      </trkpt>
      <trkpt lat="43.30996" lon="-0.85745">
        <ele>118</ele>
        <time>2022-08-24T09:47:43Z</time>
      </trkpt>
      <trkpt lat="43.30994" lon="-0.85759">
        <ele>118</ele>
        <time>2022-08-24T09:47:51Z</time>
      </trkpt>
      <trkpt lat="43.30992" lon="-0.85764">
        <ele>118</ele>
        <time>2022-08-24T09:47:54Z</time>
      </trkpt>
      <trkpt lat="43.30986" lon="-0.8582">
        <ele>119</ele>
        <time>2022-08-24T09:48:25Z</time>
      </trkpt>
      <trkpt lat="43.30983" lon="-0.85841">
        <ele>119</ele>
        <time>2022-08-24T09:48:37Z</time>
      </trkpt>
      <trkpt lat="43.30978" lon="-0.85883">
        <ele>121</ele>
        <time>2022-08-24T09:49:01Z</time>
      </trkpt>
      <trkpt lat="43.30976" lon="-0.8589">
        <ele>121</ele>
        <time>2022-08-24T09:49:05Z</time>
      </trkpt>
      <trkpt lat="43.30969" lon="-0.85943">
        <ele>123</ele>
        <time>2022-08-24T09:49:38Z</time>
      </trkpt>
      <trkpt lat="43.30962" lon="-0.85995">
        <ele>125</ele>
        <time>2022-08-24T09:50:11Z</time>
      </trkpt>
      <trkpt lat="43.30959" lon="-0.86043">
        <ele>127</ele>
        <time>2022-08-24T09:50:44Z</time>
      </trkpt>
      <trkpt lat="43.30961" lon="-0.8607">
        <ele>127</ele>
        <time>2022-08-24T09:51:01Z</time>
      </trkpt>
      <trkpt lat="43.30962" lon="-0.86083">
        <ele>127</ele>
        <time>2022-08-24T09:51:09Z</time>
      </trkpt>
      <trkpt lat="43.30964" lon="-0.86089">
        <ele>126</ele>
        <time>2022-08-24T09:51:13Z</time>
      </trkpt>
      <trkpt lat="43.30983" lon="-0.8613">
        <ele>125</ele>
        <time>2022-08-24T09:51:42Z</time>
      </trkpt>
      <trkpt lat="43.30985" lon="-0.86136">
        <ele>124</ele>
        <time>2022-08-24T09:51:46Z</time>
      </trkpt>
      <trkpt lat="43.30988" lon="-0.86143">
        <ele>124</ele>
        <time>2022-08-24T09:51:50Z</time>
      </trkpt>
      <trkpt lat="43.30992" lon="-0.86147">
        <ele>124</ele>
        <time>2022-08-24T09:51:55Z</time>
      </trkpt>
      <trkpt lat="43.30995" lon="-0.86153">
        <ele>123</ele>
        <time>2022-08-24T09:52:00Z</time>
      </trkpt>
      <trkpt lat="43.30999" lon="-0.86158">
        <ele>123</ele>
        <time>2022-08-24T09:52:05Z</time>
      </trkpt>
      <trkpt lat="43.31001" lon="-0.86164">
        <ele>122</ele>
        <time>2022-08-24T09:52:08Z</time>
      </trkpt>
      <trkpt lat="43.31004" lon="-0.86179">
        <ele>122</ele>
        <time>2022-08-24T09:52:16Z</time>
      </trkpt>
      <trkpt lat="43.31009" lon="-0.86193">
        <ele>121</ele>
        <time>2022-08-24T09:52:23Z</time>
      </trkpt>
      <trkpt lat="43.31013" lon="-0.86199">
        <ele>120</ele>
        <time>2022-08-24T09:52:27Z</time>
      </trkpt>
      <trkpt lat="43.31018" lon="-0.86217">
        <ele>119</ele>
        <time>2022-08-24T09:52:36Z</time>
      </trkpt>
      <trkpt lat="43.31024" lon="-0.8623">
        <ele>118</ele>
        <time>2022-08-24T09:52:44Z</time>
      </trkpt>
      <trkpt lat="43.31032" lon="-0.86251">
        <ele>117</ele>
        <time>2022-08-24T09:52:57Z</time>
      </trkpt>
      <trkpt lat="43.31052" lon="-0.86294">
        <ele>114</ele>
        <time>2022-08-24T09:53:29Z</time>
      </trkpt>
      <trkpt lat="43.31056" lon="-0.86301">
        <ele>114</ele>
        <time>2022-08-24T09:53:36Z</time>
      </trkpt>
      <trkpt lat="43.31063" lon="-0.86328">
        <ele>113</ele>
        <time>2022-08-24T09:53:55Z</time>
      </trkpt>
      <trkpt lat="43.31065" lon="-0.86333">
        <ele>113</ele>
        <time>2022-08-24T09:54:00Z</time>
      </trkpt>
      <trkpt lat="43.31073" lon="-0.86386">
        <ele>112</ele>
        <time>2022-08-24T09:54:32Z</time>
      </trkpt>
      <trkpt lat="43.31074" lon="-0.86392">
        <ele>112</ele>
        <time>2022-08-24T09:54:36Z</time>
      </trkpt>
      <trkpt lat="43.31073" lon="-0.864">
        <ele>112</ele>
        <time>2022-08-24T09:54:41Z</time>
      </trkpt>
      <trkpt lat="43.31071" lon="-0.86413">
        <ele>111</ele>
        <time>2022-08-24T09:54:49Z</time>
      </trkpt>
      <trkpt lat="43.31069" lon="-0.86419">
        <ele>112</ele>
        <time>2022-08-24T09:54:53Z</time>
      </trkpt>
      <trkpt lat="43.31068" lon="-0.86428">
        <ele>111</ele>
        <time>2022-08-24T09:54:58Z</time>
      </trkpt>
      <trkpt lat="43.3106" lon="-0.8645">
        <ele>111</ele>
        <time>2022-08-24T09:55:13Z</time>
      </trkpt>
      <trkpt lat="43.31056" lon="-0.86455">
        <ele>111</ele>
        <time>2022-08-24T09:55:18Z</time>
      </trkpt>
      <trkpt lat="43.31054" lon="-0.8646">
        <ele>111</ele>
        <time>2022-08-24T09:55:22Z</time>
      </trkpt>
      <trkpt lat="43.3105" lon="-0.86467">
        <ele>111</ele>
        <time>2022-08-24T09:55:27Z</time>
      </trkpt>
      <trkpt lat="43.31048" lon="-0.86475">
        <ele>110</ele>
        <time>2022-08-24T09:55:35Z</time>
      </trkpt>
      <trkpt lat="43.31042" lon="-0.86487">
        <ele>110</ele>
        <time>2022-08-24T09:55:43Z</time>
      </trkpt>
      <trkpt lat="43.3104" lon="-0.86494">
        <ele>110</ele>
        <time>2022-08-24T09:55:47Z</time>
      </trkpt>
      <trkpt lat="43.31033" lon="-0.86513">
        <ele>109</ele>
        <time>2022-08-24T09:55:59Z</time>
      </trkpt>
      <trkpt lat="43.31031" lon="-0.86519">
        <ele>109</ele>
        <time>2022-08-24T09:56:03Z</time>
      </trkpt>
      <trkpt lat="43.31024" lon="-0.86551">
        <ele>109</ele>
        <time>2022-08-24T09:56:23Z</time>
      </trkpt>
      <trkpt lat="43.31023" lon="-0.86558">
        <ele>109</ele>
        <time>2022-08-24T09:56:27Z</time>
      </trkpt>
      <trkpt lat="43.31015" lon="-0.86611">
        <ele>108</ele>
        <time>2022-08-24T09:56:59Z</time>
      </trkpt>
      <trkpt lat="43.31013" lon="-0.86618">
        <ele>108</ele>
        <time>2022-08-24T09:57:03Z</time>
      </trkpt>
      <trkpt lat="43.31011" lon="-0.86675">
        <ele>107</ele>
        <time>2022-08-24T09:57:35Z</time>
      </trkpt>
      <trkpt lat="43.31009" lon="-0.8673">
        <ele>106</ele>
        <time>2022-08-24T09:58:07Z</time>
      </trkpt>
      <trkpt lat="43.31009" lon="-0.86751">
        <ele>107</ele>
        <time>2022-08-24T09:58:19Z</time>
      </trkpt>
      <trkpt lat="43.31008" lon="-0.86758">
        <ele>106</ele>
        <time>2022-08-24T09:58:23Z</time>
      </trkpt>
      <trkpt lat="43.31009" lon="-0.86779">
        <ele>106</ele>
        <time>2022-08-24T09:58:36Z</time>
      </trkpt>
      <trkpt lat="43.31006" lon="-0.86799">
        <ele>106</ele>
        <time>2022-08-24T09:58:48Z</time>
      </trkpt>
      <trkpt lat="43.31006" lon="-0.86819">
        <ele>106</ele>
        <time>2022-08-24T09:59:00Z</time>
      </trkpt>
      <trkpt lat="43.31007" lon="-0.86826">
        <ele>106</ele>
        <time>2022-08-24T09:59:04Z</time>
      </trkpt>
      <trkpt lat="43.31011" lon="-0.86831">
        <ele>106</ele>
        <time>2022-08-24T09:59:08Z</time>
      </trkpt>
      <trkpt lat="43.31018" lon="-0.86838">
        <ele>105</ele>
        <time>2022-08-24T09:59:16Z</time>
      </trkpt>
      <trkpt lat="43.31027" lon="-0.86842">
        <ele>106</ele>
        <time>2022-08-24T09:59:24Z</time>
      </trkpt>
      <trkpt lat="43.31043" lon="-0.86859">
        <ele>105</ele>
        <time>2022-08-24T09:59:41Z</time>
      </trkpt>
      <trkpt lat="43.31054" lon="-0.86872">
        <ele>105</ele>
        <time>2022-08-24T09:59:53Z</time>
      </trkpt>
      <trkpt lat="43.31072" lon="-0.86882">
        <ele>104</ele>
        <time>2022-08-24T10:00:09Z</time>
      </trkpt>
      <trkpt lat="43.31098" lon="-0.86888">
        <ele>104</ele>
        <time>2022-08-24T10:00:30Z</time>
      </trkpt>
      <trkpt lat="43.31103" lon="-0.86887">
        <ele>104</ele>
        <time>2022-08-24T10:00:34Z</time>
      </trkpt>
      <trkpt lat="43.31114" lon="-0.86888">
        <ele>104</ele>
        <time>2022-08-24T10:00:42Z</time>
      </trkpt>
      <trkpt lat="43.31153" lon="-0.86881">
        <ele>103</ele>
        <time>2022-08-24T10:01:14Z</time>
      </trkpt>
      <trkpt lat="43.31188" lon="-0.86876">
        <ele>103</ele>
        <time>2022-08-24T10:01:47Z</time>
      </trkpt>
      <trkpt lat="43.31228" lon="-0.86875">
        <ele>103</ele>
        <time>2022-08-24T10:02:22Z</time>
      </trkpt>
      <trkpt lat="43.31233" lon="-0.86875">
        <ele>103</ele>
        <time>2022-08-24T10:02:27Z</time>
      </trkpt>
      <trkpt lat="43.31244" lon="-0.86877">
        <ele>102</ele>
        <time>2022-08-24T10:02:36Z</time>
      </trkpt>
      <trkpt lat="43.31282" lon="-0.8688">
        <ele>102</ele>
        <time>2022-08-24T10:03:10Z</time>
      </trkpt>
      <trkpt lat="43.31297" lon="-0.86883">
        <ele>102</ele>
        <time>2022-08-24T10:03:23Z</time>
      </trkpt>
      <trkpt lat="43.31303" lon="-0.86886">
        <ele>102</ele>
        <time>2022-08-24T10:03:29Z</time>
      </trkpt>
      <trkpt lat="43.3131" lon="-0.86897">
        <ele>102</ele>
        <time>2022-08-24T10:03:40Z</time>
      </trkpt>
      <trkpt lat="43.31311" lon="-0.86905">
        <ele>102</ele>
        <time>2022-08-24T10:03:45Z</time>
      </trkpt>
      <trkpt lat="43.31311" lon="-0.86911">
        <ele>102</ele>
        <time>2022-08-24T10:03:49Z</time>
      </trkpt>
      <trkpt lat="43.31302" lon="-0.86932">
        <ele>102</ele>
        <time>2022-08-24T10:04:03Z</time>
      </trkpt>
      <trkpt lat="43.31302" lon="-0.86939">
        <ele>102</ele>
        <time>2022-08-24T10:04:08Z</time>
      </trkpt>
      <trkpt lat="43.31302" lon="-0.86952">
        <ele>103</ele>
        <time>2022-08-24T10:04:17Z</time>
      </trkpt>
      <trkpt lat="43.31311" lon="-0.86961">
        <ele>102</ele>
        <time>2022-08-24T10:04:30Z</time>
      </trkpt>
      <trkpt lat="43.31315" lon="-0.86958">
        <ele>102</ele>
        <time>2022-08-24T10:04:37Z</time>
      </trkpt>
      <trkpt lat="43.31318" lon="-0.86963">
        <ele>101</ele>
        <time>2022-08-24T10:04:43Z</time>
      </trkpt>
      <trkpt lat="43.3132" lon="-0.8698">
        <ele>101</ele>
        <time>2022-08-24T10:04:58Z</time>
      </trkpt>
      <trkpt lat="43.31318" lon="-0.86987">
        <ele>101</ele>
        <time>2022-08-24T10:05:03Z</time>
      </trkpt>
      <trkpt lat="43.31315" lon="-0.86992">
        <ele>101</ele>
        <time>2022-08-24T10:05:07Z</time>
      </trkpt>
      <trkpt lat="43.3131" lon="-0.86995">
        <ele>102</ele>
        <time>2022-08-24T10:05:12Z</time>
      </trkpt>
      <trkpt lat="43.313" lon="-0.86991">
        <ele>103</ele>
        <time>2022-08-24T10:05:24Z</time>
      </trkpt>
      <trkpt lat="43.31294" lon="-0.86988">
        <ele>103</ele>
        <time>2022-08-24T10:05:30Z</time>
      </trkpt>
      <trkpt lat="43.31284" lon="-0.86987">
        <ele>103</ele>
        <time>2022-08-24T10:05:39Z</time>
      </trkpt>
      <trkpt lat="43.31255" lon="-0.86979">
        <ele>102</ele>
        <time>2022-08-24T10:06:01Z</time>
      </trkpt>
      <trkpt lat="43.31245" lon="-0.86979">
        <ele>102</ele>
        <time>2022-08-24T10:06:09Z</time>
      </trkpt>
      <trkpt lat="43.31226" lon="-0.86975">
        <ele>102</ele>
        <time>2022-08-24T10:06:26Z</time>
      </trkpt>
      <trkpt lat="43.31221" lon="-0.86975">
        <ele>102</ele>
        <time>2022-08-24T10:06:30Z</time>
      </trkpt>
      <trkpt lat="43.31217" lon="-0.86974">
        <ele>101</ele>
        <time>2022-08-24T10:06:34Z</time>
      </trkpt>
      <trkpt lat="43.31202" lon="-0.86972">
        <ele>101</ele>
        <time>2022-08-24T10:06:46Z</time>
      </trkpt>
      <trkpt lat="43.31198" lon="-0.86969">
        <ele>101</ele>
        <time>2022-08-24T10:06:50Z</time>
      </trkpt>
      <trkpt lat="43.31164" lon="-0.86961">
        <ele>101</ele>
        <time>2022-08-24T10:07:18Z</time>
      </trkpt>
      <trkpt lat="43.31159" lon="-0.86958">
        <ele>101</ele>
        <time>2022-08-24T10:07:22Z</time>
      </trkpt>
      <trkpt lat="43.31155" lon="-0.86958">
        <ele>101</ele>
        <time>2022-08-24T10:07:26Z</time>
      </trkpt>
      <trkpt lat="43.3115" lon="-0.86957">
        <ele>101</ele>
        <time>2022-08-24T10:07:30Z</time>
      </trkpt>
      <trkpt lat="43.3113" lon="-0.86957">
        <ele>102</ele>
        <time>2022-08-24T10:07:46Z</time>
      </trkpt>
      <trkpt lat="43.3109" lon="-0.8695">
        <ele>102</ele>
        <time>2022-08-24T10:08:20Z</time>
      </trkpt>
      <trkpt lat="43.31085" lon="-0.86951">
        <ele>102</ele>
        <time>2022-08-24T10:08:24Z</time>
      </trkpt>
      <trkpt lat="43.31076" lon="-0.86948">
        <ele>102</ele>
        <time>2022-08-24T10:08:32Z</time>
      </trkpt>
      <trkpt lat="43.31071" lon="-0.86949">
        <ele>102</ele>
        <time>2022-08-24T10:08:36Z</time>
      </trkpt>
      <trkpt lat="43.31033" lon="-0.86943">
        <ele>103</ele>
        <time>2022-08-24T10:09:09Z</time>
      </trkpt>
      <trkpt lat="43.31023" lon="-0.86941">
        <ele>103</ele>
        <time>2022-08-24T10:09:17Z</time>
      </trkpt>
      <trkpt lat="43.31019" lon="-0.8694">
        <ele>103</ele>
        <time>2022-08-24T10:09:21Z</time>
      </trkpt>
      <trkpt lat="43.31004" lon="-0.86938">
        <ele>103</ele>
        <time>2022-08-24T10:09:33Z</time>
      </trkpt>
      <trkpt lat="43.30989" lon="-0.86937">
        <ele>103</ele>
        <time>2022-08-24T10:09:45Z</time>
      </trkpt>
      <trkpt lat="43.30979" lon="-0.86934">
        <ele>103</ele>
        <time>2022-08-24T10:09:53Z</time>
      </trkpt>
      <trkpt lat="43.30965" lon="-0.86933">
        <ele>103</ele>
        <time>2022-08-24T10:10:05Z</time>
      </trkpt>
      <trkpt lat="43.3096" lon="-0.86931">
        <ele>102</ele>
        <time>2022-08-24T10:10:09Z</time>
      </trkpt>
      <trkpt lat="43.30946" lon="-0.86931">
        <ele>103</ele>
        <time>2022-08-24T10:10:21Z</time>
      </trkpt>
      <trkpt lat="43.30937" lon="-0.86931">
        <ele>103</ele>
        <time>2022-08-24T10:10:29Z</time>
      </trkpt>
      <trkpt lat="43.30933" lon="-0.86931">
        <ele>103</ele>
        <time>2022-08-24T10:10:34Z</time>
      </trkpt>
      <trkpt lat="43.30925" lon="-0.86927">
        <ele>103</ele>
        <time>2022-08-24T10:10:47Z</time>
      </trkpt>
      <trkpt lat="43.30921" lon="-0.86922">
        <ele>103</ele>
        <time>2022-08-24T10:10:52Z</time>
      </trkpt>
      <trkpt lat="43.30915" lon="-0.86921">
        <ele>102</ele>
        <time>2022-08-24T10:11:00Z</time>
      </trkpt>
      <trkpt lat="43.3088" lon="-0.86915">
        <ele>102</ele>
        <time>2022-08-24T10:11:32Z</time>
      </trkpt>
      <trkpt lat="43.3087" lon="-0.86911">
        <ele>102</ele>
        <time>2022-08-24T10:11:41Z</time>
      </trkpt>
      <trkpt lat="43.30844" lon="-0.86905">
        <ele>102</ele>
        <time>2022-08-24T10:12:04Z</time>
      </trkpt>
      <trkpt lat="43.3084" lon="-0.86902">
        <ele>102</ele>
        <time>2022-08-24T10:12:08Z</time>
      </trkpt>
      <trkpt lat="43.30832" lon="-0.86903">
        <ele>102</ele>
        <time>2022-08-24T10:12:18Z</time>
      </trkpt>
      <trkpt lat="43.30809" lon="-0.86898">
        <ele>102</ele>
        <time>2022-08-24T10:12:49Z</time>
      </trkpt>
      <trkpt lat="43.30804" lon="-0.86897">
        <ele>102</ele>
        <time>2022-08-24T10:12:53Z</time>
      </trkpt>
      <trkpt lat="43.3079" lon="-0.86896">
        <ele>102</ele>
        <time>2022-08-24T10:13:05Z</time>
      </trkpt>
      <trkpt lat="43.30784" lon="-0.869">
        <ele>101</ele>
        <time>2022-08-24T10:13:15Z</time>
      </trkpt>
      <trkpt lat="43.3078" lon="-0.86901">
        <ele>101</ele>
        <time>2022-08-24T10:13:22Z</time>
      </trkpt>
      <trkpt lat="43.30759" lon="-0.86906">
        <ele>98</ele>
        <time>2022-08-24T10:13:55Z</time>
      </trkpt>
      <trkpt lat="43.30743" lon="-0.86905">
        <ele>97</ele>
        <time>2022-08-24T10:14:09Z</time>
      </trkpt>
      <trkpt lat="43.30738" lon="-0.86903">
        <ele>97</ele>
        <time>2022-08-24T10:14:13Z</time>
      </trkpt>
      <trkpt lat="43.30732" lon="-0.86902">
        <ele>97</ele>
        <time>2022-08-24T10:14:17Z</time>
      </trkpt>
      <trkpt lat="43.30727" lon="-0.86902">
        <ele>97</ele>
        <time>2022-08-24T10:14:21Z</time>
      </trkpt>
      <trkpt lat="43.30722" lon="-0.86904">
        <ele>97</ele>
        <time>2022-08-24T10:14:25Z</time>
      </trkpt>
      <trkpt lat="43.30714" lon="-0.86911">
        <ele>97</ele>
        <time>2022-08-24T10:14:33Z</time>
      </trkpt>
      <trkpt lat="43.30684" lon="-0.86948">
        <ele>98</ele>
        <time>2022-08-24T10:15:06Z</time>
      </trkpt>
      <trkpt lat="43.30656" lon="-0.86987">
        <ele>98</ele>
        <time>2022-08-24T10:15:38Z</time>
      </trkpt>
      <trkpt lat="43.30627" lon="-0.87024">
        <ele>100</ele>
        <time>2022-08-24T10:16:09Z</time>
      </trkpt>
      <trkpt lat="43.30622" lon="-0.87028">
        <ele>100</ele>
        <time>2022-08-24T10:16:13Z</time>
      </trkpt>
      <trkpt lat="43.30616" lon="-0.87037">
        <ele>100</ele>
        <time>2022-08-24T10:16:20Z</time>
      </trkpt>
      <trkpt lat="43.30587" lon="-0.87075">
        <ele>102</ele>
        <time>2022-08-24T10:16:53Z</time>
      </trkpt>
      <trkpt lat="43.30583" lon="-0.87081">
        <ele>102</ele>
        <time>2022-08-24T10:16:57Z</time>
      </trkpt>
      <trkpt lat="43.30555" lon="-0.87118">
        <ele>104</ele>
        <time>2022-08-24T10:17:29Z</time>
      </trkpt>
      <trkpt lat="43.30525" lon="-0.87155">
        <ele>104</ele>
        <time>2022-08-24T10:18:02Z</time>
      </trkpt>
      <trkpt lat="43.30496" lon="-0.87194">
        <ele>105</ele>
        <time>2022-08-24T10:18:34Z</time>
      </trkpt>
      <trkpt lat="43.30469" lon="-0.87227">
        <ele>106</ele>
        <time>2022-08-24T10:19:04Z</time>
      </trkpt>
      <trkpt lat="43.30452" lon="-0.87261">
        <ele>107</ele>
        <time>2022-08-24T10:19:28Z</time>
      </trkpt>
      <trkpt lat="43.3045" lon="-0.87268">
        <ele>107</ele>
        <time>2022-08-24T10:19:32Z</time>
      </trkpt>
      <trkpt lat="43.30446" lon="-0.87307">
        <ele>110</ele>
        <time>2022-08-24T10:19:59Z</time>
      </trkpt>
      <trkpt lat="43.30447" lon="-0.8732">
        <ele>111</ele>
        <time>2022-08-24T10:20:08Z</time>
      </trkpt>
      <trkpt lat="43.30447" lon="-0.87364">
        <ele>114</ele>
        <time>2022-08-24T10:20:40Z</time>
      </trkpt>
      <trkpt lat="43.30448" lon="-0.87379">
        <ele>115</ele>
        <time>2022-08-24T10:20:51Z</time>
      </trkpt>
      <trkpt lat="43.30451" lon="-0.87383">
        <ele>115</ele>
        <time>2022-08-24T10:20:56Z</time>
      </trkpt>
      <trkpt lat="43.30481" lon="-0.87378">
        <ele>114</ele>
        <time>2022-08-24T10:21:28Z</time>
      </trkpt>
      <trkpt lat="43.30483" lon="-0.87384">
        <ele>114</ele>
        <time>2022-08-24T10:21:39Z</time>
      </trkpt>
      <trkpt lat="43.30487" lon="-0.87379">
        <ele>113</ele>
        <time>2022-08-24T10:21:44Z</time>
      </trkpt>
      <trkpt lat="43.30494" lon="-0.87376">
        <ele>113</ele>
        <time>2022-08-24T10:21:52Z</time>
      </trkpt>
      <trkpt lat="43.30503" lon="-0.87376">
        <ele>113</ele>
        <time>2022-08-24T10:22:05Z</time>
      </trkpt>
      <trkpt lat="43.3051" lon="-0.87373">
        <ele>113</ele>
        <time>2022-08-24T10:22:13Z</time>
      </trkpt>
      <trkpt lat="43.30517" lon="-0.87366">
        <ele>112</ele>
        <time>2022-08-24T10:23:46Z</time>
      </trkpt>
      <trkpt lat="43.30519" lon="-0.87373">
        <ele>110</ele>
        <time>2022-08-24T10:27:36Z</time>
      </trkpt>
      <trkpt lat="43.30515" lon="-0.87374">
        <ele>109</ele>
        <time>2022-08-24T10:34:18Z</time>
      </trkpt>
      <trkpt lat="43.30516" lon="-0.87377">
        <ele>110</ele>
        <time>2022-08-24T10:40:03Z</time>
      </trkpt>
      <trkpt lat="43.30519" lon="-0.87372">
        <ele>110</ele>
        <time>2022-08-24T11:00:53Z</time>
      </trkpt>
      <trkpt lat="43.30514" lon="-0.87369">
        <ele>110</ele>
        <time>2022-08-24T11:01:29Z</time>
      </trkpt>
      <trkpt lat="43.30502" lon="-0.87375">
        <ele>110</ele>
        <time>2022-08-24T11:01:52Z</time>
      </trkpt>
      <trkpt lat="43.30498" lon="-0.87374">
        <ele>109</ele>
        <time>2022-08-24T11:02:07Z</time>
      </trkpt>
      <trkpt lat="43.30492" lon="-0.87374">
        <ele>110</ele>
        <time>2022-08-24T11:02:18Z</time>
      </trkpt>
      <trkpt lat="43.30489" lon="-0.8738">
        <ele>110</ele>
        <time>2022-08-24T11:06:07Z</time>
      </trkpt>
      <trkpt lat="43.30509" lon="-0.87374">
        <ele>111</ele>
        <time>2022-08-24T11:06:32Z</time>
      </trkpt>
      <trkpt lat="43.30517" lon="-0.87375">
        <ele>110</ele>
        <time>2022-08-24T11:12:00Z</time>
      </trkpt>
      <trkpt lat="43.30512" lon="-0.8738">
        <ele>110</ele>
        <time>2022-08-24T11:25:29Z</time>
      </trkpt>
      <trkpt lat="43.30515" lon="-0.87366">
        <ele>110</ele>
        <time>2022-08-24T11:26:52Z</time>
      </trkpt>
      <trkpt lat="43.30516" lon="-0.87373">
        <ele>110</ele>
        <time>2022-08-24T11:31:48Z</time>
      </trkpt>
      <trkpt lat="43.30512" lon="-0.8737">
        <ele>110</ele>
        <time>2022-08-24T11:49:43Z</time>
      </trkpt>
      <trkpt lat="43.30508" lon="-0.87374">
        <ele>110</ele>
        <time>2022-08-24T11:50:17Z</time>
      </trkpt>
      <trkpt lat="43.30501" lon="-0.87375">
        <ele>110</ele>
        <time>2022-08-24T11:50:29Z</time>
      </trkpt>
      <trkpt lat="43.30494" lon="-0.87374">
        <ele>109</ele>
        <time>2022-08-24T11:50:41Z</time>
      </trkpt>
      <trkpt lat="43.30495" lon="-0.87376">
        <ele>110</ele>
        <time>2022-08-24T11:53:13Z</time>
      </trkpt>
      <trkpt lat="43.30503" lon="-0.87374">
        <ele>110</ele>
        <time>2022-08-24T11:53:53Z</time>
      </trkpt>
      <trkpt lat="43.3051" lon="-0.87372">
        <ele>110</ele>
        <time>2022-08-24T11:54:02Z</time>
      </trkpt>
      <trkpt lat="43.30513" lon="-0.87374">
        <ele>110</ele>
        <time>2022-08-24T12:03:06Z</time>
      </trkpt>
      <trkpt lat="43.30512" lon="-0.8737">
        <ele>110</ele>
        <time>2022-08-24T12:05:42Z</time>
      </trkpt>
      <trkpt lat="43.30485" lon="-0.8738">
        <ele>110</ele>
        <time>2022-08-24T12:06:17Z</time>
      </trkpt>
      <trkpt lat="43.30468" lon="-0.87384">
        <ele>110</ele>
        <time>2022-08-24T12:06:34Z</time>
      </trkpt>
      <trkpt lat="43.30464" lon="-0.87382">
        <ele>111</ele>
        <time>2022-08-24T12:06:41Z</time>
      </trkpt>
      <trkpt lat="43.30458" lon="-0.87383">
        <ele>111</ele>
        <time>2022-08-24T12:06:46Z</time>
      </trkpt>
      <trkpt lat="43.30442" lon="-0.87386">
        <ele>111</ele>
        <time>2022-08-24T12:07:02Z</time>
      </trkpt>
      <trkpt lat="43.30435" lon="-0.87391">
        <ele>111</ele>
        <time>2022-08-24T12:07:12Z</time>
      </trkpt>
      <trkpt lat="43.30431" lon="-0.87389">
        <ele>111</ele>
        <time>2022-08-24T12:07:17Z</time>
      </trkpt>
      <trkpt lat="43.30422" lon="-0.87395">
        <ele>111</ele>
        <time>2022-08-24T12:07:25Z</time>
      </trkpt>
      <trkpt lat="43.30405" lon="-0.87414">
        <ele>111</ele>
        <time>2022-08-24T12:07:43Z</time>
      </trkpt>
      <trkpt lat="43.30401" lon="-0.87427">
        <ele>111</ele>
        <time>2022-08-24T12:07:51Z</time>
      </trkpt>
      <trkpt lat="43.30397" lon="-0.87435">
        <ele>111</ele>
        <time>2022-08-24T12:07:59Z</time>
      </trkpt>
      <trkpt lat="43.30394" lon="-0.87446">
        <ele>110</ele>
        <time>2022-08-24T12:08:07Z</time>
      </trkpt>
      <trkpt lat="43.30394" lon="-0.87455">
        <ele>110</ele>
        <time>2022-08-24T12:08:14Z</time>
      </trkpt>
      <trkpt lat="43.30402" lon="-0.87483">
        <ele>108</ele>
        <time>2022-08-24T12:08:37Z</time>
      </trkpt>
      <trkpt lat="43.30405" lon="-0.8749">
        <ele>108</ele>
        <time>2022-08-24T12:08:42Z</time>
      </trkpt>
      <trkpt lat="43.30409" lon="-0.87512">
        <ele>108</ele>
        <time>2022-08-24T12:08:56Z</time>
      </trkpt>
      <trkpt lat="43.30411" lon="-0.87518">
        <ele>107</ele>
        <time>2022-08-24T12:09:00Z</time>
      </trkpt>
      <trkpt lat="43.30412" lon="-0.87525">
        <ele>107</ele>
        <time>2022-08-24T12:09:04Z</time>
      </trkpt>
      <trkpt lat="43.30426" lon="-0.87562">
        <ele>107</ele>
        <time>2022-08-24T12:09:29Z</time>
      </trkpt>
      <trkpt lat="43.30433" lon="-0.87575">
        <ele>107</ele>
        <time>2022-08-24T12:09:38Z</time>
      </trkpt>
      <trkpt lat="43.30433" lon="-0.87589">
        <ele>106</ele>
        <time>2022-08-24T12:09:46Z</time>
      </trkpt>
      <trkpt lat="43.30433" lon="-0.87601">
        <ele>106</ele>
        <time>2022-08-24T12:09:53Z</time>
      </trkpt>
      <trkpt lat="43.30425" lon="-0.87652">
        <ele>106</ele>
        <time>2022-08-24T12:10:27Z</time>
      </trkpt>
      <trkpt lat="43.30424" lon="-0.8766">
        <ele>107</ele>
        <time>2022-08-24T12:10:32Z</time>
      </trkpt>
      <trkpt lat="43.30426" lon="-0.87667">
        <ele>107</ele>
        <time>2022-08-24T12:10:37Z</time>
      </trkpt>
      <trkpt lat="43.30432" lon="-0.87677">
        <ele>108</ele>
        <time>2022-08-24T12:10:45Z</time>
      </trkpt>
      <trkpt lat="43.30441" lon="-0.87685">
        <ele>108</ele>
        <time>2022-08-24T12:10:55Z</time>
      </trkpt>
      <trkpt lat="43.3045" lon="-0.87683">
        <ele>108</ele>
        <time>2022-08-24T12:11:07Z</time>
      </trkpt>
      <trkpt lat="43.30451" lon="-0.87699">
        <ele>108</ele>
        <time>2022-08-24T12:11:34Z</time>
      </trkpt>
      <trkpt lat="43.30457" lon="-0.87719">
        <ele>108</ele>
        <time>2022-08-24T12:11:49Z</time>
      </trkpt>
      <trkpt lat="43.30467" lon="-0.87734">
        <ele>109</ele>
        <time>2022-08-24T12:12:02Z</time>
      </trkpt>
      <trkpt lat="43.30474" lon="-0.87752">
        <ele>109</ele>
        <time>2022-08-24T12:12:15Z</time>
      </trkpt>
      <trkpt lat="43.30483" lon="-0.87758">
        <ele>109</ele>
        <time>2022-08-24T12:12:25Z</time>
      </trkpt>
      <trkpt lat="43.30506" lon="-0.87792">
        <ele>111</ele>
        <time>2022-08-24T12:12:55Z</time>
      </trkpt>
      <trkpt lat="43.3051" lon="-0.87797">
        <ele>111</ele>
        <time>2022-08-24T12:12:59Z</time>
      </trkpt>
      <trkpt lat="43.30519" lon="-0.87815">
        <ele>111</ele>
        <time>2022-08-24T12:13:14Z</time>
      </trkpt>
      <trkpt lat="43.30532" lon="-0.8783">
        <ele>112</ele>
        <time>2022-08-24T12:13:28Z</time>
      </trkpt>
      <trkpt lat="43.30536" lon="-0.87838">
        <ele>113</ele>
        <time>2022-08-24T12:13:34Z</time>
      </trkpt>
      <trkpt lat="43.30555" lon="-0.87866">
        <ele>115</ele>
        <time>2022-08-24T12:13:59Z</time>
      </trkpt>
      <trkpt lat="43.30559" lon="-0.87868">
        <ele>115</ele>
        <time>2022-08-24T12:14:03Z</time>
      </trkpt>
      <trkpt lat="43.30563" lon="-0.87872">
        <ele>115</ele>
        <time>2022-08-24T12:14:08Z</time>
      </trkpt>
      <trkpt lat="43.30571" lon="-0.87892">
        <ele>116</ele>
        <time>2022-08-24T12:14:21Z</time>
      </trkpt>
      <trkpt lat="43.30578" lon="-0.87902">
        <ele>116</ele>
        <time>2022-08-24T12:14:30Z</time>
      </trkpt>
      <trkpt lat="43.30586" lon="-0.87911">
        <ele>116</ele>
        <time>2022-08-24T12:14:39Z</time>
      </trkpt>
      <trkpt lat="43.30597" lon="-0.87926">
        <ele>116</ele>
        <time>2022-08-24T12:14:52Z</time>
      </trkpt>
      <trkpt lat="43.30602" lon="-0.87931">
        <ele>116</ele>
        <time>2022-08-24T12:14:56Z</time>
      </trkpt>
      <trkpt lat="43.30607" lon="-0.87934">
        <ele>116</ele>
        <time>2022-08-24T12:15:02Z</time>
      </trkpt>
      <trkpt lat="43.30616" lon="-0.87941">
        <ele>116</ele>
        <time>2022-08-24T12:15:11Z</time>
      </trkpt>
      <trkpt lat="43.3062" lon="-0.87943">
        <ele>115</ele>
        <time>2022-08-24T12:15:15Z</time>
      </trkpt>
      <trkpt lat="43.30625" lon="-0.87946">
        <ele>115</ele>
        <time>2022-08-24T12:15:19Z</time>
      </trkpt>
      <trkpt lat="43.30649" lon="-0.87969">
        <ele>115</ele>
        <time>2022-08-24T12:15:43Z</time>
      </trkpt>
      <trkpt lat="43.30654" lon="-0.87971">
        <ele>115</ele>
        <time>2022-08-24T12:15:47Z</time>
      </trkpt>
      <trkpt lat="43.3068" lon="-0.87995">
        <ele>115</ele>
        <time>2022-08-24T12:16:13Z</time>
      </trkpt>
      <trkpt lat="43.30684" lon="-0.87997">
        <ele>115</ele>
        <time>2022-08-24T12:16:17Z</time>
      </trkpt>
      <trkpt lat="43.30703" lon="-0.8802">
        <ele>115</ele>
        <time>2022-08-24T12:16:38Z</time>
      </trkpt>
      <trkpt lat="43.30716" lon="-0.88041">
        <ele>116</ele>
        <time>2022-08-24T12:16:57Z</time>
      </trkpt>
      <trkpt lat="43.30725" lon="-0.88058">
        <ele>116</ele>
        <time>2022-08-24T12:17:09Z</time>
      </trkpt>
      <trkpt lat="43.30728" lon="-0.88065">
        <ele>116</ele>
        <time>2022-08-24T12:17:13Z</time>
      </trkpt>
      <trkpt lat="43.30747" lon="-0.88097">
        <ele>116</ele>
        <time>2022-08-24T12:17:40Z</time>
      </trkpt>
      <trkpt lat="43.3076" lon="-0.88128">
        <ele>115</ele>
        <time>2022-08-24T12:18:01Z</time>
      </trkpt>
      <trkpt lat="43.30773" lon="-0.8815">
        <ele>115</ele>
        <time>2022-08-24T12:18:18Z</time>
      </trkpt>
      <trkpt lat="43.30778" lon="-0.88163">
        <ele>115</ele>
        <time>2022-08-24T12:18:27Z</time>
      </trkpt>
      <trkpt lat="43.30781" lon="-0.88167">
        <ele>115</ele>
        <time>2022-08-24T12:18:31Z</time>
      </trkpt>
      <trkpt lat="43.30787" lon="-0.88179">
        <ele>115</ele>
        <time>2022-08-24T12:18:39Z</time>
      </trkpt>
      <trkpt lat="43.30801" lon="-0.88206">
        <ele>115</ele>
        <time>2022-08-24T12:19:01Z</time>
      </trkpt>
      <trkpt lat="43.30806" lon="-0.8821">
        <ele>115</ele>
        <time>2022-08-24T12:19:06Z</time>
      </trkpt>
      <trkpt lat="43.30814" lon="-0.8823">
        <ele>116</ele>
        <time>2022-08-24T12:19:20Z</time>
      </trkpt>
      <trkpt lat="43.30817" lon="-0.88234">
        <ele>116</ele>
        <time>2022-08-24T12:19:25Z</time>
      </trkpt>
      <trkpt lat="43.30839" lon="-0.88274">
        <ele>116</ele>
        <time>2022-08-24T12:19:55Z</time>
      </trkpt>
      <trkpt lat="43.30842" lon="-0.88279">
        <ele>116</ele>
        <time>2022-08-24T12:19:59Z</time>
      </trkpt>
      <trkpt lat="43.30845" lon="-0.88285">
        <ele>116</ele>
        <time>2022-08-24T12:20:03Z</time>
      </trkpt>
      <trkpt lat="43.3087" lon="-0.88331">
        <ele>116</ele>
        <time>2022-08-24T12:20:37Z</time>
      </trkpt>
      <trkpt lat="43.30877" lon="-0.88343">
        <ele>116</ele>
        <time>2022-08-24T12:20:45Z</time>
      </trkpt>
      <trkpt lat="43.30881" lon="-0.88348">
        <ele>116</ele>
        <time>2022-08-24T12:20:50Z</time>
      </trkpt>
      <trkpt lat="43.30899" lon="-0.88384">
        <ele>117</ele>
        <time>2022-08-24T12:21:17Z</time>
      </trkpt>
      <trkpt lat="43.30918" lon="-0.88434">
        <ele>117</ele>
        <time>2022-08-24T12:21:50Z</time>
      </trkpt>
      <trkpt lat="43.30921" lon="-0.88438">
        <ele>117</ele>
        <time>2022-08-24T12:21:53Z</time>
      </trkpt>
      <trkpt lat="43.30922" lon="-0.88445">
        <ele>117</ele>
        <time>2022-08-24T12:21:57Z</time>
      </trkpt>
      <trkpt lat="43.30941" lon="-0.88485">
        <ele>118</ele>
        <time>2022-08-24T12:22:26Z</time>
      </trkpt>
      <trkpt lat="43.30951" lon="-0.8851">
        <ele>119</ele>
        <time>2022-08-24T12:22:44Z</time>
      </trkpt>
      <trkpt lat="43.30959" lon="-0.88528">
        <ele>119</ele>
        <time>2022-08-24T12:22:57Z</time>
      </trkpt>
      <trkpt lat="43.30973" lon="-0.88565">
        <ele>119</ele>
        <time>2022-08-24T12:23:20Z</time>
      </trkpt>
      <trkpt lat="43.30976" lon="-0.8857">
        <ele>119</ele>
        <time>2022-08-24T12:23:24Z</time>
      </trkpt>
      <trkpt lat="43.30995" lon="-0.88619">
        <ele>120</ele>
        <time>2022-08-24T12:23:57Z</time>
      </trkpt>
      <trkpt lat="43.31011" lon="-0.88663">
        <ele>120</ele>
        <time>2022-08-24T12:24:27Z</time>
      </trkpt>
      <trkpt lat="43.31016" lon="-0.88677">
        <ele>120</ele>
        <time>2022-08-24T12:24:36Z</time>
      </trkpt>
      <trkpt lat="43.31027" lon="-0.88705">
        <ele>121</ele>
        <time>2022-08-24T12:24:56Z</time>
      </trkpt>
      <trkpt lat="43.31032" lon="-0.88717">
        <ele>122</ele>
        <time>2022-08-24T12:25:04Z</time>
      </trkpt>
      <trkpt lat="43.31033" lon="-0.88724">
        <ele>122</ele>
        <time>2022-08-24T12:25:08Z</time>
      </trkpt>
      <trkpt lat="43.31055" lon="-0.88769">
        <ele>123</ele>
        <time>2022-08-24T12:25:41Z</time>
      </trkpt>
      <trkpt lat="43.31074" lon="-0.88817">
        <ele>124</ele>
        <time>2022-08-24T12:26:15Z</time>
      </trkpt>
      <trkpt lat="43.31076" lon="-0.88823">
        <ele>124</ele>
        <time>2022-08-24T12:26:19Z</time>
      </trkpt>
      <trkpt lat="43.31079" lon="-0.88829">
        <ele>124</ele>
        <time>2022-08-24T12:26:23Z</time>
      </trkpt>
      <trkpt lat="43.31081" lon="-0.88835">
        <ele>124</ele>
        <time>2022-08-24T12:26:27Z</time>
      </trkpt>
      <trkpt lat="43.31084" lon="-0.8884">
        <ele>124</ele>
        <time>2022-08-24T12:26:31Z</time>
      </trkpt>
      <trkpt lat="43.31091" lon="-0.88874">
        <ele>125</ele>
        <time>2022-08-24T12:26:52Z</time>
      </trkpt>
      <trkpt lat="43.31092" lon="-0.88923">
        <ele>126</ele>
        <time>2022-08-24T12:27:20Z</time>
      </trkpt>
      <trkpt lat="43.31105" lon="-0.88976">
        <ele>127</ele>
        <time>2022-08-24T12:27:52Z</time>
      </trkpt>
      <trkpt lat="43.31108" lon="-0.88987">
        <ele>128</ele>
        <time>2022-08-24T12:28:01Z</time>
      </trkpt>
      <trkpt lat="43.31107" lon="-0.88994">
        <ele>128</ele>
        <time>2022-08-24T12:28:25Z</time>
      </trkpt>
      <trkpt lat="43.3111" lon="-0.89001">
        <ele>128</ele>
        <time>2022-08-24T12:29:21Z</time>
      </trkpt>
      <trkpt lat="43.31113" lon="-0.89015">
        <ele>128</ele>
        <time>2022-08-24T12:29:29Z</time>
      </trkpt>
      <trkpt lat="43.31128" lon="-0.89062">
        <ele>130</ele>
        <time>2022-08-24T12:30:00Z</time>
      </trkpt>
      <trkpt lat="43.31137" lon="-0.89095">
        <ele>130</ele>
        <time>2022-08-24T12:30:22Z</time>
      </trkpt>
      <trkpt lat="43.31154" lon="-0.89147">
        <ele>132</ele>
        <time>2022-08-24T12:30:54Z</time>
      </trkpt>
      <trkpt lat="43.31178" lon="-0.89195">
        <ele>134</ele>
        <time>2022-08-24T12:31:28Z</time>
      </trkpt>
      <trkpt lat="43.31182" lon="-0.89201">
        <ele>134</ele>
        <time>2022-08-24T12:31:33Z</time>
      </trkpt>
      <trkpt lat="43.31188" lon="-0.89218">
        <ele>135</ele>
        <time>2022-08-24T12:31:45Z</time>
      </trkpt>
      <trkpt lat="43.31193" lon="-0.8923">
        <ele>135</ele>
        <time>2022-08-24T12:31:53Z</time>
      </trkpt>
      <trkpt lat="43.31197" lon="-0.89243">
        <ele>136</ele>
        <time>2022-08-24T12:32:02Z</time>
      </trkpt>
      <trkpt lat="43.31204" lon="-0.89254">
        <ele>137</ele>
        <time>2022-08-24T12:32:10Z</time>
      </trkpt>
      <trkpt lat="43.31206" lon="-0.89261">
        <ele>137</ele>
        <time>2022-08-24T12:32:15Z</time>
      </trkpt>
      <trkpt lat="43.31209" lon="-0.89266">
        <ele>137</ele>
        <time>2022-08-24T12:32:18Z</time>
      </trkpt>
      <trkpt lat="43.31211" lon="-0.89273">
        <ele>137</ele>
        <time>2022-08-24T12:32:22Z</time>
      </trkpt>
      <trkpt lat="43.31223" lon="-0.89294">
        <ele>139</ele>
        <time>2022-08-24T12:32:38Z</time>
      </trkpt>
      <trkpt lat="43.31231" lon="-0.89313">
        <ele>141</ele>
        <time>2022-08-24T12:32:52Z</time>
      </trkpt>
      <trkpt lat="43.31242" lon="-0.89329">
        <ele>142</ele>
        <time>2022-08-24T12:33:07Z</time>
      </trkpt>
      <trkpt lat="43.31244" lon="-0.89336">
        <ele>143</ele>
        <time>2022-08-24T12:33:11Z</time>
      </trkpt>
      <trkpt lat="43.31259" lon="-0.89369">
        <ele>145</ele>
        <time>2022-08-24T12:33:35Z</time>
      </trkpt>
      <trkpt lat="43.31265" lon="-0.89382">
        <ele>145</ele>
        <time>2022-08-24T12:33:46Z</time>
      </trkpt>
      <trkpt lat="43.31267" lon="-0.89388">
        <ele>145</ele>
        <time>2022-08-24T12:33:49Z</time>
      </trkpt>
      <trkpt lat="43.31283" lon="-0.89414">
        <ele>147</ele>
        <time>2022-08-24T12:34:10Z</time>
      </trkpt>
      <trkpt lat="43.3129" lon="-0.89432">
        <ele>148</ele>
        <time>2022-08-24T12:34:23Z</time>
      </trkpt>
      <trkpt lat="43.31294" lon="-0.89444">
        <ele>148</ele>
        <time>2022-08-24T12:34:31Z</time>
      </trkpt>
      <trkpt lat="43.31303" lon="-0.89488">
        <ele>150</ele>
        <time>2022-08-24T12:34:58Z</time>
      </trkpt>
      <trkpt lat="43.31313" lon="-0.89529">
        <ele>154</ele>
        <time>2022-08-24T12:35:28Z</time>
      </trkpt>
      <trkpt lat="43.31322" lon="-0.89574">
        <ele>157</ele>
        <time>2022-08-24T12:35:58Z</time>
      </trkpt>
      <trkpt lat="43.31324" lon="-0.89579">
        <ele>158</ele>
        <time>2022-08-24T12:36:03Z</time>
      </trkpt>
      <trkpt lat="43.31324" lon="-0.89587">
        <ele>158</ele>
        <time>2022-08-24T12:36:07Z</time>
      </trkpt>
      <trkpt lat="43.3133" lon="-0.89628">
        <ele>162</ele>
        <time>2022-08-24T12:36:37Z</time>
      </trkpt>
      <trkpt lat="43.31329" lon="-0.89634">
        <ele>163</ele>
        <time>2022-08-24T12:36:41Z</time>
      </trkpt>
      <trkpt lat="43.3134" lon="-0.89675">
        <ele>167</ele>
        <time>2022-08-24T12:37:11Z</time>
      </trkpt>
      <trkpt lat="43.31343" lon="-0.89689">
        <ele>169</ele>
        <time>2022-08-24T12:37:22Z</time>
      </trkpt>
      <trkpt lat="43.31347" lon="-0.8969">
        <ele>170</ele>
        <time>2022-08-24T12:37:57Z</time>
      </trkpt>
      <trkpt lat="43.31348" lon="-0.89697">
        <ele>170</ele>
        <time>2022-08-24T12:38:06Z</time>
      </trkpt>
      <trkpt lat="43.31353" lon="-0.89734">
        <ele>173</ele>
        <time>2022-08-24T12:38:29Z</time>
      </trkpt>
      <trkpt lat="43.31353" lon="-0.89741">
        <ele>173</ele>
        <time>2022-08-24T12:38:33Z</time>
      </trkpt>
      <trkpt lat="43.31355" lon="-0.89747">
        <ele>174</ele>
        <time>2022-08-24T12:38:38Z</time>
      </trkpt>
      <trkpt lat="43.31358" lon="-0.8976">
        <ele>174</ele>
        <time>2022-08-24T12:38:46Z</time>
      </trkpt>
      <trkpt lat="43.31359" lon="-0.89767">
        <ele>174</ele>
        <time>2022-08-24T12:38:50Z</time>
      </trkpt>
      <trkpt lat="43.31362" lon="-0.89791">
        <ele>175</ele>
        <time>2022-08-24T12:39:06Z</time>
      </trkpt>
      <trkpt lat="43.31363" lon="-0.89811">
        <ele>174</ele>
        <time>2022-08-24T12:39:19Z</time>
      </trkpt>
      <trkpt lat="43.31363" lon="-0.89818">
        <ele>174</ele>
        <time>2022-08-24T12:39:23Z</time>
      </trkpt>
      <trkpt lat="43.31358" lon="-0.8983">
        <ele>174</ele>
        <time>2022-08-24T12:39:32Z</time>
      </trkpt>
      <trkpt lat="43.31352" lon="-0.89836">
        <ele>174</ele>
        <time>2022-08-24T12:39:39Z</time>
      </trkpt>
      <trkpt lat="43.31348" lon="-0.8984">
        <ele>175</ele>
        <time>2022-08-24T12:39:46Z</time>
      </trkpt>
      <trkpt lat="43.31342" lon="-0.89842">
        <ele>175</ele>
        <time>2022-08-24T12:40:23Z</time>
      </trkpt>
      <trkpt lat="43.31341" lon="-0.89847">
        <ele>174</ele>
        <time>2022-08-24T12:42:47Z</time>
      </trkpt>
      <trkpt lat="43.31341" lon="-0.89859">
        <ele>175</ele>
        <time>2022-08-24T12:42:58Z</time>
      </trkpt>
      <trkpt lat="43.31336" lon="-0.89864">
        <ele>175</ele>
        <time>2022-08-24T12:43:05Z</time>
      </trkpt>
      <trkpt lat="43.31332" lon="-0.89876">
        <ele>175</ele>
        <time>2022-08-24T12:43:17Z</time>
      </trkpt>
      <trkpt lat="43.31328" lon="-0.89893">
        <ele>176</ele>
        <time>2022-08-24T12:43:29Z</time>
      </trkpt>
      <trkpt lat="43.31321" lon="-0.89922">
        <ele>176</ele>
        <time>2022-08-24T12:43:50Z</time>
      </trkpt>
      <trkpt lat="43.31317" lon="-0.89937">
        <ele>177</ele>
        <time>2022-08-24T12:44:01Z</time>
      </trkpt>
      <trkpt lat="43.31306" lon="-0.89964">
        <ele>178</ele>
        <time>2022-08-24T12:44:21Z</time>
      </trkpt>
      <trkpt lat="43.31306" lon="-0.89972">
        <ele>178</ele>
        <time>2022-08-24T12:44:27Z</time>
      </trkpt>
      <trkpt lat="43.31298" lon="-0.89986">
        <ele>179</ele>
        <time>2022-08-24T12:44:40Z</time>
      </trkpt>
      <trkpt lat="43.31297" lon="-0.89995">
        <ele>180</ele>
        <time>2022-08-24T12:44:45Z</time>
      </trkpt>
      <trkpt lat="43.31285" lon="-0.90031">
        <ele>181</ele>
        <time>2022-08-24T12:45:14Z</time>
      </trkpt>
      <trkpt lat="43.31278" lon="-0.90045">
        <ele>181</ele>
        <time>2022-08-24T12:45:25Z</time>
      </trkpt>
      <trkpt lat="43.31277" lon="-0.90052">
        <ele>181</ele>
        <time>2022-08-24T12:45:30Z</time>
      </trkpt>
      <trkpt lat="43.31267" lon="-0.90068">
        <ele>181</ele>
        <time>2022-08-24T12:45:55Z</time>
      </trkpt>
      <trkpt lat="43.31263" lon="-0.90075">
        <ele>181</ele>
        <time>2022-08-24T12:46:15Z</time>
      </trkpt>
      <trkpt lat="43.31259" lon="-0.90079">
        <ele>180</ele>
        <time>2022-08-24T12:46:18Z</time>
      </trkpt>
      <trkpt lat="43.31255" lon="-0.90083">
        <ele>180</ele>
        <time>2022-08-24T12:46:22Z</time>
      </trkpt>
      <trkpt lat="43.31246" lon="-0.90093">
        <ele>180</ele>
        <time>2022-08-24T12:46:32Z</time>
      </trkpt>
      <trkpt lat="43.3124" lon="-0.90099">
        <ele>180</ele>
        <time>2022-08-24T12:46:38Z</time>
      </trkpt>
      <trkpt lat="43.31233" lon="-0.90106">
        <ele>180</ele>
        <time>2022-08-24T12:46:47Z</time>
      </trkpt>
      <trkpt lat="43.3122" lon="-0.90118">
        <ele>179</ele>
        <time>2022-08-24T12:47:00Z</time>
      </trkpt>
      <trkpt lat="43.31192" lon="-0.90146">
        <ele>177</ele>
        <time>2022-08-24T12:47:28Z</time>
      </trkpt>
      <trkpt lat="43.31185" lon="-0.90158">
        <ele>177</ele>
        <time>2022-08-24T12:47:37Z</time>
      </trkpt>
      <trkpt lat="43.31181" lon="-0.90163">
        <ele>176</ele>
        <time>2022-08-24T12:47:41Z</time>
      </trkpt>
      <trkpt lat="43.31158" lon="-0.90211">
        <ele>170</ele>
        <time>2022-08-24T12:48:14Z</time>
      </trkpt>
      <trkpt lat="43.31155" lon="-0.90215">
        <ele>170</ele>
        <time>2022-08-24T12:48:18Z</time>
      </trkpt>
      <trkpt lat="43.31146" lon="-0.9024">
        <ele>168</ele>
        <time>2022-08-24T12:48:35Z</time>
      </trkpt>
      <trkpt lat="43.31142" lon="-0.90263">
        <ele>167</ele>
        <time>2022-08-24T12:48:50Z</time>
      </trkpt>
      <trkpt lat="43.31137" lon="-0.90275">
        <ele>165</ele>
        <time>2022-08-24T12:48:58Z</time>
      </trkpt>
      <trkpt lat="43.31125" lon="-0.90296">
        <ele>163</ele>
        <time>2022-08-24T12:49:15Z</time>
      </trkpt>
      <trkpt lat="43.31121" lon="-0.90308">
        <ele>162</ele>
        <time>2022-08-24T12:49:23Z</time>
      </trkpt>
      <trkpt lat="43.31112" lon="-0.90324">
        <ele>160</ele>
        <time>2022-08-24T12:49:37Z</time>
      </trkpt>
      <trkpt lat="43.31113" lon="-0.90331">
        <ele>159</ele>
        <time>2022-08-24T12:49:42Z</time>
      </trkpt>
      <trkpt lat="43.31131" lon="-0.90371">
        <ele>157</ele>
        <time>2022-08-24T12:50:14Z</time>
      </trkpt>
      <trkpt lat="43.31136" lon="-0.90376">
        <ele>157</ele>
        <time>2022-08-24T12:50:18Z</time>
      </trkpt>
      <trkpt lat="43.31144" lon="-0.90382">
        <ele>157</ele>
        <time>2022-08-24T12:50:26Z</time>
      </trkpt>
      <trkpt lat="43.31147" lon="-0.90389">
        <ele>156</ele>
        <time>2022-08-24T12:50:31Z</time>
      </trkpt>
      <trkpt lat="43.31148" lon="-0.90395">
        <ele>156</ele>
        <time>2022-08-24T12:50:35Z</time>
      </trkpt>
      <trkpt lat="43.31154" lon="-0.90416">
        <ele>155</ele>
        <time>2022-08-24T12:50:47Z</time>
      </trkpt>
      <trkpt lat="43.31154" lon="-0.9043">
        <ele>154</ele>
        <time>2022-08-24T12:51:03Z</time>
      </trkpt>
      <trkpt lat="43.31153" lon="-0.90438">
        <ele>153</ele>
        <time>2022-08-24T12:51:09Z</time>
      </trkpt>
      <trkpt lat="43.31154" lon="-0.90444">
        <ele>153</ele>
        <time>2022-08-24T12:51:14Z</time>
      </trkpt>
      <trkpt lat="43.31151" lon="-0.90449">
        <ele>152</ele>
        <time>2022-08-24T12:51:38Z</time>
      </trkpt>
      <trkpt lat="43.31148" lon="-0.90455">
        <ele>152</ele>
        <time>2022-08-24T12:51:44Z</time>
      </trkpt>
      <trkpt lat="43.31146" lon="-0.90462">
        <ele>152</ele>
        <time>2022-08-24T12:51:49Z</time>
      </trkpt>
      <trkpt lat="43.31147" lon="-0.90469">
        <ele>152</ele>
        <time>2022-08-24T12:51:54Z</time>
      </trkpt>
      <trkpt lat="43.31148" lon="-0.90503">
        <ele>149</ele>
        <time>2022-08-24T12:52:17Z</time>
      </trkpt>
      <trkpt lat="43.31159" lon="-0.90553">
        <ele>143</ele>
        <time>2022-08-24T12:52:50Z</time>
      </trkpt>
      <trkpt lat="43.31169" lon="-0.90599">
        <ele>138</ele>
        <time>2022-08-24T12:53:20Z</time>
      </trkpt>
      <trkpt lat="43.31189" lon="-0.90646">
        <ele>132</ele>
        <time>2022-08-24T12:53:52Z</time>
      </trkpt>
      <trkpt lat="43.31216" lon="-0.90687">
        <ele>125</ele>
        <time>2022-08-24T12:54:24Z</time>
      </trkpt>
      <trkpt lat="43.31221" lon="-0.90692">
        <ele>124</ele>
        <time>2022-08-24T12:54:28Z</time>
      </trkpt>
      <trkpt lat="43.3123" lon="-0.90717">
        <ele>120</ele>
        <time>2022-08-24T12:54:45Z</time>
      </trkpt>
      <trkpt lat="43.31228" lon="-0.90739">
        <ele>118</ele>
        <time>2022-08-24T12:54:58Z</time>
      </trkpt>
      <trkpt lat="43.31226" lon="-0.90745">
        <ele>117</ele>
        <time>2022-08-24T12:55:03Z</time>
      </trkpt>
      <trkpt lat="43.31222" lon="-0.9075">
        <ele>117</ele>
        <time>2022-08-24T12:55:08Z</time>
      </trkpt>
      <trkpt lat="43.3121" lon="-0.90746">
        <ele>116</ele>
        <time>2022-08-24T12:55:18Z</time>
      </trkpt>
      <trkpt lat="43.31178" lon="-0.90723">
        <ele>112</ele>
        <time>2022-08-24T12:55:46Z</time>
      </trkpt>
      <trkpt lat="43.31173" lon="-0.90722">
        <ele>111</ele>
        <time>2022-08-24T12:55:52Z</time>
      </trkpt>
      <trkpt lat="43.31147" lon="-0.90738">
        <ele>109</ele>
        <time>2022-08-24T12:56:15Z</time>
      </trkpt>
      <trkpt lat="43.31143" lon="-0.90746">
        <ele>109</ele>
        <time>2022-08-24T12:56:21Z</time>
      </trkpt>
      <trkpt lat="43.31139" lon="-0.90759">
        <ele>108</ele>
        <time>2022-08-24T12:56:29Z</time>
      </trkpt>
      <trkpt lat="43.31141" lon="-0.90765">
        <ele>107</ele>
        <time>2022-08-24T12:56:34Z</time>
      </trkpt>
      <trkpt lat="43.31147" lon="-0.90773">
        <ele>106</ele>
        <time>2022-08-24T12:56:43Z</time>
      </trkpt>
      <trkpt lat="43.31147" lon="-0.90779">
        <ele>106</ele>
        <time>2022-08-24T12:56:47Z</time>
      </trkpt>
      <trkpt lat="43.31149" lon="-0.90785">
        <ele>106</ele>
        <time>2022-08-24T12:56:51Z</time>
      </trkpt>
      <trkpt lat="43.31156" lon="-0.90797">
        <ele>106</ele>
        <time>2022-08-24T12:57:00Z</time>
      </trkpt>
      <trkpt lat="43.31161" lon="-0.90799">
        <ele>106</ele>
        <time>2022-08-24T12:57:05Z</time>
      </trkpt>
      <trkpt lat="43.31166" lon="-0.90803">
        <ele>105</ele>
        <time>2022-08-24T12:57:10Z</time>
      </trkpt>
      <trkpt lat="43.31169" lon="-0.90808">
        <ele>105</ele>
        <time>2022-08-24T12:57:14Z</time>
      </trkpt>
      <trkpt lat="43.31173" lon="-0.90821">
        <ele>105</ele>
        <time>2022-08-24T12:57:24Z</time>
      </trkpt>
      <trkpt lat="43.31167" lon="-0.90841">
        <ele>105</ele>
        <time>2022-08-24T12:57:40Z</time>
      </trkpt>
      <trkpt lat="43.31164" lon="-0.90857">
        <ele>107</ele>
        <time>2022-08-24T12:57:54Z</time>
      </trkpt>
      <trkpt lat="43.31166" lon="-0.90873">
        <ele>110</ele>
        <time>2022-08-24T12:58:24Z</time>
      </trkpt>
      <trkpt lat="43.31176" lon="-0.90909">
        <ele>112</ele>
        <time>2022-08-24T12:58:54Z</time>
      </trkpt>
      <trkpt lat="43.31176" lon="-0.90916">
        <ele>112</ele>
        <time>2022-08-24T12:58:59Z</time>
      </trkpt>
      <trkpt lat="43.31172" lon="-0.90921">
        <ele>112</ele>
        <time>2022-08-24T12:59:04Z</time>
      </trkpt>
      <trkpt lat="43.31163" lon="-0.90932">
        <ele>112</ele>
        <time>2022-08-24T12:59:17Z</time>
      </trkpt>
      <trkpt lat="43.31158" lon="-0.90935">
        <ele>113</ele>
        <time>2022-08-24T12:59:22Z</time>
      </trkpt>
      <trkpt lat="43.3114" lon="-0.90944">
        <ele>115</ele>
        <time>2022-08-24T12:59:42Z</time>
      </trkpt>
      <trkpt lat="43.31137" lon="-0.90948">
        <ele>116</ele>
        <time>2022-08-24T12:59:47Z</time>
      </trkpt>
    </trkseg>
  </trk>
</gpx>